<?xml version='1.0' encoding='UTF-8'?><gpx version="1.1" creator="JPX - https://github.com/jenetics/jpx" xmlns="http://www.topografix.com/GPX/1/1"><trk><trkseg><trkpt lat="43.4159117" lon="11.4596083"><ele>451.4</ele><time>2026-04-06T10:44:23.535Z</time></trkpt><trkpt lat="43.4159167" lon="11.4597317"><ele>452.8</ele><time>2026-04-06T10:44:25.539Z</time></trkpt><trkpt lat="43.415905" lon="11.4599217"><ele>454.20000000000005</ele><time>2026-04-06T10:44:27.536Z</time></trkpt><trkpt lat="43.4159033" lon="11.4600233"><ele>455.6</ele><time>2026-04-06T10:44:28.532Z</time></trkpt><trkpt lat="43.4158983" lon="11.4601317"><ele>457.0</ele><time>2026-04-06T10:44:29.534Z</time></trkpt><trkpt lat="43.4158983" lon="11.4602367"><ele>457.0</ele><time>2026-04-06T10:44:30.538Z</time></trkpt><trkpt lat="43.4158983" lon="11.4603267"><ele>457.00000000000006</ele><time>2026-04-06T10:44:31.536Z</time></trkpt><trkpt lat="43.41591" lon="11.4604833"><ele>457.00000000000006</ele><time>2026-04-06T10:44:33.547Z</time></trkpt><trkpt lat="43.415925" lon="11.4606367"><ele>457.0</ele><time>2026-04-06T10:44:35.532Z</time></trkpt><trkpt lat="43.4159783" lon="11.4607867"><ele>457.0</ele><time>2026-04-06T10:44:37.536Z</time></trkpt><trkpt lat="43.41604" lon="11.46092"><ele>459.8</ele><time>2026-04-06T10:44:39.54Z</time></trkpt><trkpt lat="43.41611" lon="11.4610383"><ele>462.6</ele><time>2026-04-06T10:44:41.541Z</time></trkpt><trkpt lat="43.4160967" lon="11.4611733"><ele>465.40000000000003</ele><time>2026-04-06T10:44:43.546Z</time></trkpt><trkpt lat="43.4160417" lon="11.4613"><ele>468.20000000000005</ele><time>2026-04-06T10:44:45.553Z</time></trkpt><trkpt lat="43.4159583" lon="11.4613967"><ele>471.0</ele><time>2026-04-06T10:44:47.566Z</time></trkpt><trkpt lat="43.4158733" lon="11.4614417"><ele>471.0</ele><time>2026-04-06T10:44:49.535Z</time></trkpt><trkpt lat="43.41581" lon="11.4614333"><ele>471.0</ele><time>2026-04-06T10:44:51.533Z</time></trkpt><trkpt lat="43.4157367" lon="11.461355"><ele>471.0</ele><time>2026-04-06T10:44:53.536Z</time></trkpt><trkpt lat="43.4156717" lon="11.461235"><ele>471.0</ele><time>2026-04-06T10:44:55.538Z</time></trkpt><trkpt lat="43.4156383" lon="11.461135"><ele>471.0</ele><time>2026-04-06T10:44:57.54Z</time></trkpt><trkpt lat="43.41561" lon="11.461025"><ele>471.0</ele><time>2026-04-06T10:45:05.534Z</time></trkpt><trkpt lat="43.415565" lon="11.4609433"><ele>471.0</ele><time>2026-04-06T10:45:07.533Z</time></trkpt><trkpt lat="43.4155083" lon="11.4608433"><ele>471.0</ele><time>2026-04-06T10:45:09.538Z</time></trkpt><trkpt lat="43.4154367" lon="11.46079"><ele>471.0</ele><time>2026-04-06T10:45:11.536Z</time></trkpt><trkpt lat="43.4153833" lon="11.46074"><ele>471.0</ele><time>2026-04-06T10:45:13.538Z</time></trkpt><trkpt lat="43.4153233" lon="11.4607"><ele>471.0</ele><time>2026-04-06T10:45:15.537Z</time></trkpt><trkpt lat="43.4152533" lon="11.4607"><ele>471.0</ele><time>2026-04-06T10:45:18.543Z</time></trkpt><trkpt lat="43.4152783" lon="11.460805"><ele>472.5</ele><time>2026-04-06T10:45:22.536Z</time></trkpt><trkpt lat="43.4153433" lon="11.4608783"><ele>474.0</ele><time>2026-04-06T10:45:25.537Z</time></trkpt><trkpt lat="43.4153967" lon="11.4609433"><ele>475.5</ele><time>2026-04-06T10:45:27.54Z</time></trkpt><trkpt lat="43.4154317" lon="11.46104"><ele>477.0</ele><time>2026-04-06T10:45:29.533Z</time></trkpt><trkpt lat="43.4154167" lon="11.46115"><ele>478.5</ele><time>2026-04-06T10:45:31.536Z</time></trkpt><trkpt lat="43.4154" lon="11.4612533"><ele>480.0</ele><time>2026-04-06T10:45:33.553Z</time></trkpt><trkpt lat="43.4153883" lon="11.461365"><ele>481.42857142857144</ele><time>2026-04-06T10:45:35.533Z</time></trkpt><trkpt lat="43.41538" lon="11.461455"><ele>482.85714285714283</ele><time>2026-04-06T10:45:37.536Z</time></trkpt><trkpt lat="43.4153867" lon="11.4615617"><ele>484.2857142857143</ele><time>2026-04-06T10:45:39.535Z</time></trkpt><trkpt lat="43.4153783" lon="11.4616533"><ele>485.7142857142857</ele><time>2026-04-06T10:45:41.533Z</time></trkpt><trkpt lat="43.4153117" lon="11.4617133"><ele>487.1428571428571</ele><time>2026-04-06T10:45:44.534Z</time></trkpt><trkpt lat="43.41525" lon="11.4616783"><ele>488.57142857142856</ele><time>2026-04-06T10:45:46.539Z</time></trkpt><trkpt lat="43.415205" lon="11.4615867"><ele>490.0</ele><time>2026-04-06T10:45:49.534Z</time></trkpt><trkpt lat="43.4151533" lon="11.4614883"><ele>490.00000000000006</ele><time>2026-04-06T10:45:52.534Z</time></trkpt><trkpt lat="43.4150985" lon="11.4614171"><ele>490.0</ele><time>2026-04-06T10:45:54.54Z</time></trkpt><trkpt lat="43.4150243" lon="11.4614034"><ele>490.0</ele><time>2026-04-06T10:45:56.537Z</time></trkpt><trkpt lat="43.4149843" lon="11.4615304"><ele>490.0</ele><time>2026-04-06T10:46:00.563Z</time></trkpt><trkpt lat="43.4149534" lon="11.4616363"><ele>490.00000000000006</ele><time>2026-04-06T10:46:01.534Z</time></trkpt><trkpt lat="43.4149183" lon="11.4617824"><ele>490.0</ele><time>2026-04-06T10:46:03.543Z</time></trkpt><trkpt lat="43.4148726" lon="11.4619299"><ele>490.0</ele><time>2026-04-06T10:46:05.533Z</time></trkpt><trkpt lat="43.4148107" lon="11.4620607"><ele>490.0</ele><time>2026-04-06T10:46:07.533Z</time></trkpt><trkpt lat="43.4147656" lon="11.4621558"><ele>490.0</ele><time>2026-04-06T10:46:09.533Z</time></trkpt><trkpt lat="43.4147167" lon="11.4622783"><ele>490.0</ele><time>2026-04-06T10:46:18.538Z</time></trkpt><trkpt lat="43.414695" lon="11.4623933"><ele>490.0</ele><time>2026-04-06T10:46:20.534Z</time></trkpt><trkpt lat="43.4146633" lon="11.4625133"><ele>494.0</ele><time>2026-04-06T10:46:22.536Z</time></trkpt><trkpt lat="43.4146517" lon="11.462625"><ele>498.0</ele><time>2026-04-06T10:46:24.537Z</time></trkpt><trkpt lat="43.4146383" lon="11.4627567"><ele>502.0</ele><time>2026-04-06T10:46:26.536Z</time></trkpt><trkpt lat="43.4146317" lon="11.4629217"><ele>506.0</ele><time>2026-04-06T10:46:28.534Z</time></trkpt><trkpt lat="43.4146167" lon="11.46305"><ele>510.0</ele><time>2026-04-06T10:46:29.539Z</time></trkpt><trkpt lat="43.4146167" lon="11.46316"><ele>512.3333333333334</ele><time>2026-04-06T10:46:30.533Z</time></trkpt><trkpt lat="43.4146083" lon="11.4632767"><ele>514.6666666666666</ele><time>2026-04-06T10:46:31.537Z</time></trkpt><trkpt lat="43.4146" lon="11.4633933"><ele>517.0</ele><time>2026-04-06T10:46:32.541Z</time></trkpt><trkpt lat="43.4145917" lon="11.4634917"><ele>519.3333333333333</ele><time>2026-04-06T10:46:33.534Z</time></trkpt><trkpt lat="43.4145817" lon="11.4635783"><ele>521.6666666666666</ele><time>2026-04-06T10:46:34.536Z</time></trkpt><trkpt lat="43.4145667" lon="11.4637233"><ele>524.0</ele><time>2026-04-06T10:46:36.543Z</time></trkpt><trkpt lat="43.4145167" lon="11.4638567"><ele>524.0</ele><time>2026-04-06T10:46:38.535Z</time></trkpt><trkpt lat="43.4144283" lon="11.4639617"><ele>524.0</ele><time>2026-04-06T10:46:40.533Z</time></trkpt><trkpt lat="43.4143283" lon="11.464055"><ele>524.0</ele><time>2026-04-06T10:46:42.534Z</time></trkpt><trkpt lat="43.4142733" lon="11.4641217"><ele>524.0</ele><time>2026-04-06T10:46:43.538Z</time></trkpt><trkpt lat="43.4141733" lon="11.4642417"><ele>524.0</ele><time>2026-04-06T10:46:45.537Z</time></trkpt><trkpt lat="43.4141167" lon="11.4642917"><ele>524.0</ele><time>2026-04-06T10:46:46.54Z</time></trkpt><trkpt lat="43.4140467" lon="11.4643417"><ele>524.0</ele><time>2026-04-06T10:46:47.534Z</time></trkpt><trkpt lat="43.4139767" lon="11.4643733"><ele>524.0</ele><time>2026-04-06T10:46:48.535Z</time></trkpt><trkpt lat="43.4138917" lon="11.4644133"><ele>524.0</ele><time>2026-04-06T10:46:49.537Z</time></trkpt><trkpt lat="43.4138083" lon="11.464445"><ele>524.0</ele><time>2026-04-06T10:46:50.534Z</time></trkpt><trkpt lat="43.4137283" lon="11.4644667"><ele>524.0</ele><time>2026-04-06T10:46:51.538Z</time></trkpt><trkpt lat="43.4136667" lon="11.46449"><ele>525.1666666666666</ele><time>2026-04-06T10:46:52.533Z</time></trkpt><trkpt lat="43.413575" lon="11.46452"><ele>526.3333333333333</ele><time>2026-04-06T10:46:54.545Z</time></trkpt><trkpt lat="43.4134933" lon="11.464525"><ele>527.5</ele><time>2026-04-06T10:46:56.54Z</time></trkpt><trkpt lat="43.41341" lon="11.4645133"><ele>528.6666666666666</ele><time>2026-04-06T10:46:58.537Z</time></trkpt><trkpt lat="43.4133383" lon="11.46446"><ele>529.8333333333334</ele><time>2026-04-06T10:47:00.534Z</time></trkpt><trkpt lat="43.4132433" lon="11.4644533"><ele>531.0</ele><time>2026-04-06T10:47:02.537Z</time></trkpt><trkpt lat="43.413185" lon="11.4644183"><ele>531.0</ele><time>2026-04-06T10:47:04.532Z</time></trkpt><trkpt lat="43.41314" lon="11.46431"><ele>531.0</ele><time>2026-04-06T10:47:07.536Z</time></trkpt><trkpt lat="43.4130533" lon="11.4643033"><ele>531.0</ele><time>2026-04-06T10:47:09.534Z</time></trkpt><trkpt lat="43.41296" lon="11.4643167"><ele>531.0</ele><time>2026-04-06T10:47:11.533Z</time></trkpt><trkpt lat="43.4128783" lon="11.46431"><ele>531.0</ele><time>2026-04-06T10:47:13.533Z</time></trkpt><trkpt lat="43.412765" lon="11.4643317"><ele>527.6</ele><time>2026-04-06T10:47:15.54Z</time></trkpt><trkpt lat="43.4126633" lon="11.4643217"><ele>524.2</ele><time>2026-04-06T10:47:17.537Z</time></trkpt><trkpt lat="43.412565" lon="11.46434"><ele>520.8</ele><time>2026-04-06T10:47:19.535Z</time></trkpt><trkpt lat="43.4124783" lon="11.4643567"><ele>517.4</ele><time>2026-04-06T10:47:21.534Z</time></trkpt><trkpt lat="43.41241" lon="11.46439"><ele>514.0</ele><time>2026-04-06T10:47:23.534Z</time></trkpt><trkpt lat="43.412325" lon="11.4644417"><ele>514.0</ele><time>2026-04-06T10:47:26.541Z</time></trkpt><trkpt lat="43.412265" lon="11.46449"><ele>514.0</ele><time>2026-04-06T10:47:28.533Z</time></trkpt><trkpt lat="43.4121817" lon="11.4645417"><ele>514.0</ele><time>2026-04-06T10:47:31.538Z</time></trkpt><trkpt lat="43.412115" lon="11.464585"><ele>514.0</ele><time>2026-04-06T10:47:33.531Z</time></trkpt><trkpt lat="43.4120483" lon="11.46462"><ele>514.0</ele><time>2026-04-06T10:47:35.536Z</time></trkpt><trkpt lat="43.4119667" lon="11.464675"><ele>514.0</ele><time>2026-04-06T10:47:37.536Z</time></trkpt><trkpt lat="43.41189" lon="11.464725"><ele>512.1666666666667</ele><time>2026-04-06T10:47:40.533Z</time></trkpt><trkpt lat="43.4118217" lon="11.46478"><ele>510.33333333333337</ele><time>2026-04-06T10:47:43.533Z</time></trkpt><trkpt lat="43.4117367" lon="11.4648"><ele>508.5</ele><time>2026-04-06T10:47:46.536Z</time></trkpt><trkpt lat="43.4116633" lon="11.4647917"><ele>506.66666666666663</ele><time>2026-04-06T10:47:48.533Z</time></trkpt><trkpt lat="43.4115717" lon="11.4647517"><ele>504.8333333333333</ele><time>2026-04-06T10:47:51.538Z</time></trkpt><trkpt lat="43.4114833" lon="11.4647383"><ele>503.0</ele><time>2026-04-06T10:47:53.541Z</time></trkpt><trkpt lat="43.4114017" lon="11.4646983"><ele>503.0</ele><time>2026-04-06T10:47:55.532Z</time></trkpt><trkpt lat="43.4113267" lon="11.4646617"><ele>502.99999999999994</ele><time>2026-04-06T10:47:57.539Z</time></trkpt><trkpt lat="43.41125" lon="11.4646117"><ele>502.99999999999994</ele><time>2026-04-06T10:48:00.54Z</time></trkpt><trkpt lat="43.4111233" lon="11.4645117"><ele>503.0</ele><time>2026-04-06T10:48:30.536Z</time></trkpt><trkpt lat="43.41106" lon="11.4644717"><ele>503.0</ele><time>2026-04-06T10:48:32.536Z</time></trkpt><trkpt lat="43.4109683" lon="11.46447"><ele>501.2</ele><time>2026-04-06T10:48:34.533Z</time></trkpt><trkpt lat="43.41084" lon="11.464495"><ele>499.4</ele><time>2026-04-06T10:48:36.533Z</time></trkpt><trkpt lat="43.4107633" lon="11.4645017"><ele>497.59999999999997</ele><time>2026-04-06T10:48:37.532Z</time></trkpt><trkpt lat="43.41068" lon="11.46451"><ele>495.79999999999995</ele><time>2026-04-06T10:48:38.535Z</time></trkpt><trkpt lat="43.4105967" lon="11.46451"><ele>494.0</ele><time>2026-04-06T10:48:39.535Z</time></trkpt><trkpt lat="43.4105167" lon="11.464495"><ele>493.66666666666663</ele><time>2026-04-06T10:48:40.541Z</time></trkpt><trkpt lat="43.4104383" lon="11.4644833"><ele>493.3333333333333</ele><time>2026-04-06T10:48:41.538Z</time></trkpt><trkpt lat="43.4103583" lon="11.4644817"><ele>493.0</ele><time>2026-04-06T10:48:42.533Z</time></trkpt><trkpt lat="43.4102833" lon="11.46448"><ele>492.66666666666663</ele><time>2026-04-06T10:48:43.534Z</time></trkpt><trkpt lat="43.4102083" lon="11.46448"><ele>492.3333333333333</ele><time>2026-04-06T10:48:44.538Z</time></trkpt><trkpt lat="43.4101333" lon="11.46448"><ele>492.0</ele><time>2026-04-06T10:48:45.536Z</time></trkpt><trkpt lat="43.4100533" lon="11.4644767"><ele>492.0</ele><time>2026-04-06T10:48:46.542Z</time></trkpt><trkpt lat="43.4099783" lon="11.4644783"><ele>492.0</ele><time>2026-04-06T10:48:47.533Z</time></trkpt><trkpt lat="43.4099033" lon="11.4644783"><ele>492.0</ele><time>2026-04-06T10:48:48.536Z</time></trkpt><trkpt lat="43.4098267" lon="11.4644817"><ele>492.0</ele><time>2026-04-06T10:48:49.539Z</time></trkpt><trkpt lat="43.4097483" lon="11.4644817"><ele>492.0</ele><time>2026-04-06T10:48:50.535Z</time></trkpt><trkpt lat="43.4096667" lon="11.464485"><ele>492.0</ele><time>2026-04-06T10:48:51.539Z</time></trkpt><trkpt lat="43.4095783" lon="11.4644867"><ele>492.1666666666667</ele><time>2026-04-06T10:48:52.539Z</time></trkpt><trkpt lat="43.409485" lon="11.464495"><ele>492.33333333333337</ele><time>2026-04-06T10:48:53.538Z</time></trkpt><trkpt lat="43.409395" lon="11.4645"><ele>492.5</ele><time>2026-04-06T10:48:54.538Z</time></trkpt><trkpt lat="43.4093117" lon="11.4645067"><ele>492.6666666666667</ele><time>2026-04-06T10:48:55.535Z</time></trkpt><trkpt lat="43.40923" lon="11.4645117"><ele>492.83333333333337</ele><time>2026-04-06T10:48:56.533Z</time></trkpt><trkpt lat="43.40915" lon="11.464525"><ele>493.0</ele><time>2026-04-06T10:48:57.539Z</time></trkpt><trkpt lat="43.4090733" lon="11.4645333"><ele>493.00000000000006</ele><time>2026-04-06T10:48:58.539Z</time></trkpt><trkpt lat="43.4089983" lon="11.4645417"><ele>493.0</ele><time>2026-04-06T10:48:59.536Z</time></trkpt><trkpt lat="43.4089333" lon="11.4645417"><ele>493.0</ele><time>2026-04-06T10:49:00.537Z</time></trkpt><trkpt lat="43.4088267" lon="11.4645633"><ele>493.0</ele><time>2026-04-06T10:49:02.539Z</time></trkpt><trkpt lat="43.4087383" lon="11.4645717"><ele>493.00000000000006</ele><time>2026-04-06T10:49:04.539Z</time></trkpt><trkpt lat="43.4086283" lon="11.464565"><ele>493.0</ele><time>2026-04-06T10:49:06.535Z</time></trkpt><trkpt lat="43.4084417" lon="11.4645517"><ele>492.33333333333337</ele><time>2026-04-06T10:49:09.535Z</time></trkpt><trkpt lat="43.4083783" lon="11.4645467"><ele>491.6666666666667</ele><time>2026-04-06T10:49:10.541Z</time></trkpt><trkpt lat="43.408315" lon="11.464535"><ele>491.0</ele><time>2026-04-06T10:49:11.535Z</time></trkpt><trkpt lat="43.4082483" lon="11.464535"><ele>490.33333333333337</ele><time>2026-04-06T10:49:12.538Z</time></trkpt><trkpt lat="43.4081183" lon="11.4645333"><ele>489.6666666666667</ele><time>2026-04-06T10:49:14.535Z</time></trkpt><trkpt lat="43.4080517" lon="11.4645333"><ele>489.0</ele><time>2026-04-06T10:49:15.535Z</time></trkpt><trkpt lat="43.40798" lon="11.464535"><ele>487.3333333333333</ele><time>2026-04-06T10:49:16.532Z</time></trkpt><trkpt lat="43.4079033" lon="11.464545"><ele>485.66666666666663</ele><time>2026-04-06T10:49:17.539Z</time></trkpt><trkpt lat="43.4078267" lon="11.4645533"><ele>484.0</ele><time>2026-04-06T10:49:18.539Z</time></trkpt><trkpt lat="43.4077467" lon="11.4645617"><ele>482.3333333333333</ele><time>2026-04-06T10:49:19.535Z</time></trkpt><trkpt lat="43.4076717" lon="11.46458"><ele>480.66666666666663</ele><time>2026-04-06T10:49:20.537Z</time></trkpt><trkpt lat="43.4075933" lon="11.4645817"><ele>479.0</ele><time>2026-04-06T10:49:21.533Z</time></trkpt><trkpt lat="43.4075167" lon="11.46459"><ele>478.99999999999994</ele><time>2026-04-06T10:49:22.54Z</time></trkpt><trkpt lat="43.40744" lon="11.4646017"><ele>479.0</ele><time>2026-04-06T10:49:23.534Z</time></trkpt><trkpt lat="43.40736" lon="11.4646117"><ele>479.0</ele><time>2026-04-06T10:49:24.536Z</time></trkpt><trkpt lat="43.4072767" lon="11.4646183"><ele>479.0</ele><time>2026-04-06T10:49:25.534Z</time></trkpt><trkpt lat="43.4071883" lon="11.464635"><ele>478.99999999999994</ele><time>2026-04-06T10:49:26.533Z</time></trkpt><trkpt lat="43.4071017" lon="11.4646517"><ele>479.0</ele><time>2026-04-06T10:49:27.543Z</time></trkpt><trkpt lat="43.407015" lon="11.464655"><ele>478.8333333333333</ele><time>2026-04-06T10:49:28.54Z</time></trkpt><trkpt lat="43.4069383" lon="11.4646533"><ele>478.66666666666663</ele><time>2026-04-06T10:49:29.536Z</time></trkpt><trkpt lat="43.406865" lon="11.4646383"><ele>478.5</ele><time>2026-04-06T10:49:30.534Z</time></trkpt><trkpt lat="43.4068017" lon="11.4646267"><ele>478.33333333333337</ele><time>2026-04-06T10:49:31.534Z</time></trkpt><trkpt lat="43.406695" lon="11.4645917"><ele>478.1666666666667</ele><time>2026-04-06T10:49:33.537Z</time></trkpt><trkpt lat="43.4065967" lon="11.4645433"><ele>478.0</ele><time>2026-04-06T10:49:35.535Z</time></trkpt><trkpt lat="43.4065017" lon="11.4645183"><ele>477.2</ele><time>2026-04-06T10:49:37.544Z</time></trkpt><trkpt lat="43.4064133" lon="11.4644683"><ele>476.4</ele><time>2026-04-06T10:49:39.534Z</time></trkpt><trkpt lat="43.4063283" lon="11.464445"><ele>475.59999999999997</ele><time>2026-04-06T10:49:41.537Z</time></trkpt><trkpt lat="43.4062433" lon="11.464415"><ele>474.79999999999995</ele><time>2026-04-06T10:49:43.536Z</time></trkpt><trkpt lat="43.4061567" lon="11.4643767"><ele>474.0</ele><time>2026-04-06T10:49:45.533Z</time></trkpt><trkpt lat="43.4060683" lon="11.464325"><ele>472.5</ele><time>2026-04-06T10:49:47.538Z</time></trkpt><trkpt lat="43.4059717" lon="11.4642667"><ele>471.0</ele><time>2026-04-06T10:49:49.536Z</time></trkpt><trkpt lat="43.4058717" lon="11.464195"><ele>469.5</ele><time>2026-04-06T10:49:51.535Z</time></trkpt><trkpt lat="43.4057733" lon="11.4641067"><ele>468.0</ele><time>2026-04-06T10:49:53.533Z</time></trkpt><trkpt lat="43.4056717" lon="11.4640167"><ele>468.0</ele><time>2026-04-06T10:49:55.534Z</time></trkpt><trkpt lat="43.4055817" lon="11.463935"><ele>467.99999999999994</ele><time>2026-04-06T10:49:57.542Z</time></trkpt><trkpt lat="43.4054833" lon="11.46385"><ele>467.99999999999994</ele><time>2026-04-06T10:49:59.537Z</time></trkpt><trkpt lat="43.4053917" lon="11.4637683"><ele>468.0</ele><time>2026-04-06T10:50:01.535Z</time></trkpt><trkpt lat="43.4053133" lon="11.463685"><ele>468.0</ele><time>2026-04-06T10:50:03.536Z</time></trkpt><trkpt lat="43.405245" lon="11.4635933"><ele>465.5</ele><time>2026-04-06T10:50:05.533Z</time></trkpt><trkpt lat="43.4051767" lon="11.46351"><ele>463.0</ele><time>2026-04-06T10:50:07.535Z</time></trkpt><trkpt lat="43.40513" lon="11.4634367"><ele>460.5</ele><time>2026-04-06T10:50:09.535Z</time></trkpt><trkpt lat="43.4051" lon="11.4633283"><ele>458.0</ele><time>2026-04-06T10:50:12.536Z</time></trkpt><trkpt lat="43.40503" lon="11.4632967"><ele>455.5</ele><time>2026-04-06T10:51:31.535Z</time></trkpt><trkpt lat="43.404975" lon="11.463245"><ele>453.0</ele><time>2026-04-06T10:51:33.554Z</time></trkpt><trkpt lat="43.4048983" lon="11.4631417"><ele>453.0</ele><time>2026-04-06T10:51:35.539Z</time></trkpt><trkpt lat="43.4048567" lon="11.4630717"><ele>452.99999999999994</ele><time>2026-04-06T10:51:36.534Z</time></trkpt><trkpt lat="43.4047883" lon="11.4629283"><ele>452.99999999999994</ele><time>2026-04-06T10:51:38.533Z</time></trkpt><trkpt lat="43.404735" lon="11.4627817"><ele>453.0</ele><time>2026-04-06T10:51:40.534Z</time></trkpt><trkpt lat="43.4047033" lon="11.4626083"><ele>453.0</ele><time>2026-04-06T10:51:42.536Z</time></trkpt><trkpt lat="43.40469" lon="11.4625017"><ele>452.59999999999997</ele><time>2026-04-06T10:51:43.538Z</time></trkpt><trkpt lat="43.404675" lon="11.4623617"><ele>452.19999999999993</ele><time>2026-04-06T10:51:44.537Z</time></trkpt><trkpt lat="43.40466" lon="11.4622183"><ele>451.8</ele><time>2026-04-06T10:51:45.536Z</time></trkpt><trkpt lat="43.404635" lon="11.4620867"><ele>451.4</ele><time>2026-04-06T10:51:46.534Z</time></trkpt><trkpt lat="43.4046083" lon="11.4619667"><ele>451.0</ele><time>2026-04-06T10:51:47.533Z</time></trkpt><trkpt lat="43.40459" lon="11.461855"><ele>451.83333333333337</ele><time>2026-04-06T10:51:48.537Z</time></trkpt><trkpt lat="43.404575" lon="11.461755"><ele>452.6666666666667</ele><time>2026-04-06T10:51:49.537Z</time></trkpt><trkpt lat="43.40455" lon="11.46166"><ele>453.5</ele><time>2026-04-06T10:51:50.538Z</time></trkpt><trkpt lat="43.4045133" lon="11.4615633"><ele>454.33333333333337</ele><time>2026-04-06T10:51:51.533Z</time></trkpt><trkpt lat="43.404465" lon="11.4614533"><ele>455.1666666666667</ele><time>2026-04-06T10:51:52.535Z</time></trkpt><trkpt lat="43.404415" lon="11.4613333"><ele>456.0</ele><time>2026-04-06T10:51:53.536Z</time></trkpt><trkpt lat="43.4043683" lon="11.4612217"><ele>456.3333333333333</ele><time>2026-04-06T10:51:54.537Z</time></trkpt><trkpt lat="43.4043267" lon="11.4611233"><ele>456.66666666666663</ele><time>2026-04-06T10:51:55.536Z</time></trkpt><trkpt lat="43.4042817" lon="11.4610283"><ele>457.0</ele><time>2026-04-06T10:51:56.535Z</time></trkpt><trkpt lat="43.4042417" lon="11.4609333"><ele>457.3333333333333</ele><time>2026-04-06T10:51:57.536Z</time></trkpt><trkpt lat="43.4042033" lon="11.4608417"><ele>457.66666666666663</ele><time>2026-04-06T10:51:58.543Z</time></trkpt><trkpt lat="43.404165" lon="11.4607483"><ele>458.0</ele><time>2026-04-06T10:51:59.536Z</time></trkpt><trkpt lat="43.40413" lon="11.4606483"><ele>457.99999999999994</ele><time>2026-04-06T10:52:00.534Z</time></trkpt><trkpt lat="43.4040983" lon="11.460545"><ele>458.0</ele><time>2026-04-06T10:52:01.534Z</time></trkpt><trkpt lat="43.4040833" lon="11.4604383"><ele>458.0</ele><time>2026-04-06T10:52:02.537Z</time></trkpt><trkpt lat="43.404075" lon="11.4603467"><ele>458.0</ele><time>2026-04-06T10:52:03.536Z</time></trkpt><trkpt lat="43.4040767" lon="11.4602483"><ele>457.99999999999994</ele><time>2026-04-06T10:52:04.535Z</time></trkpt><trkpt lat="43.4040833" lon="11.4601583"><ele>458.0</ele><time>2026-04-06T10:52:05.536Z</time></trkpt><trkpt lat="43.4041067" lon="11.4599867"><ele>457.71428571428567</ele><time>2026-04-06T10:52:07.538Z</time></trkpt><trkpt lat="43.404125" lon="11.4598833"><ele>457.42857142857144</ele><time>2026-04-06T10:52:08.542Z</time></trkpt><trkpt lat="43.404145" lon="11.4597867"><ele>457.1428571428571</ele><time>2026-04-06T10:52:09.535Z</time></trkpt><trkpt lat="43.4041617" lon="11.45969"><ele>456.85714285714283</ele><time>2026-04-06T10:52:10.533Z</time></trkpt><trkpt lat="43.4041867" lon="11.4595967"><ele>456.57142857142856</ele><time>2026-04-06T10:52:11.533Z</time></trkpt><trkpt lat="43.4042167" lon="11.4595033"><ele>456.2857142857143</ele><time>2026-04-06T10:52:12.544Z</time></trkpt><trkpt lat="43.404255" lon="11.4594133"><ele>456.0</ele><time>2026-04-06T10:52:13.541Z</time></trkpt><trkpt lat="43.404295" lon="11.4593333"><ele>455.85714285714283</ele><time>2026-04-06T10:52:14.537Z</time></trkpt><trkpt lat="43.4043367" lon="11.459255"><ele>455.71428571428567</ele><time>2026-04-06T10:52:15.536Z</time></trkpt><trkpt lat="43.4043817" lon="11.4591783"><ele>455.57142857142856</ele><time>2026-04-06T10:52:16.533Z</time></trkpt><trkpt lat="43.4044267" lon="11.45911"><ele>455.42857142857144</ele><time>2026-04-06T10:52:17.539Z</time></trkpt><trkpt lat="43.4044733" lon="11.4590433"><ele>455.2857142857143</ele><time>2026-04-06T10:52:18.539Z</time></trkpt><trkpt lat="43.4045233" lon="11.458975"><ele>455.1428571428571</ele><time>2026-04-06T10:52:19.536Z</time></trkpt><trkpt lat="43.4045683" lon="11.4589033"><ele>455.0</ele><time>2026-04-06T10:52:20.536Z</time></trkpt><trkpt lat="43.4046133" lon="11.458835"><ele>454.2</ele><time>2026-04-06T10:52:21.535Z</time></trkpt><trkpt lat="43.4046583" lon="11.45877"><ele>453.4</ele><time>2026-04-06T10:52:22.541Z</time></trkpt><trkpt lat="43.40473" lon="11.4586283"><ele>452.6</ele><time>2026-04-06T10:52:24.534Z</time></trkpt><trkpt lat="43.4047633" lon="11.45855"><ele>451.8</ele><time>2026-04-06T10:52:25.534Z</time></trkpt><trkpt lat="43.4047967" lon="11.4583933"><ele>451.0</ele><time>2026-04-06T10:52:27.541Z</time></trkpt><trkpt lat="43.40484" lon="11.4582583"><ele>451.0</ele><time>2026-04-06T10:52:29.533Z</time></trkpt><trkpt lat="43.4049033" lon="11.45814"><ele>451.0</ele><time>2026-04-06T10:52:31.536Z</time></trkpt><trkpt lat="43.4049733" lon="11.4580433"><ele>451.0</ele><time>2026-04-06T10:52:33.537Z</time></trkpt><trkpt lat="43.40501" lon="11.45792"><ele>451.0</ele><time>2026-04-06T10:52:35.535Z</time></trkpt><trkpt lat="43.405015" lon="11.457755"><ele>451.0</ele><time>2026-04-06T10:52:37.536Z</time></trkpt><trkpt lat="43.405015" lon="11.4576667"><ele>449.85714285714283</ele><time>2026-04-06T10:52:38.534Z</time></trkpt><trkpt lat="43.4050117" lon="11.4575717"><ele>448.7142857142857</ele><time>2026-04-06T10:52:39.535Z</time></trkpt><trkpt lat="43.40501" lon="11.4574817"><ele>447.57142857142856</ele><time>2026-04-06T10:52:40.534Z</time></trkpt><trkpt lat="43.4050083" lon="11.4573933"><ele>446.42857142857144</ele><time>2026-04-06T10:52:41.535Z</time></trkpt><trkpt lat="43.405005" lon="11.4573067"><ele>445.28571428571433</ele><time>2026-04-06T10:52:42.536Z</time></trkpt><trkpt lat="43.4049967" lon="11.457215"><ele>444.14285714285717</ele><time>2026-04-06T10:52:43.536Z</time></trkpt><trkpt lat="43.404985" lon="11.4571233"><ele>443.0</ele><time>2026-04-06T10:52:44.537Z</time></trkpt><trkpt lat="43.40497" lon="11.4570383"><ele>441.59999999999997</ele><time>2026-04-06T10:52:45.535Z</time></trkpt><trkpt lat="43.40495" lon="11.456955"><ele>440.19999999999993</ele><time>2026-04-06T10:52:46.535Z</time></trkpt><trkpt lat="43.4049067" lon="11.4568"><ele>438.8</ele><time>2026-04-06T10:52:48.54Z</time></trkpt><trkpt lat="43.4048667" lon="11.45665"><ele>437.4</ele><time>2026-04-06T10:52:50.534Z</time></trkpt><trkpt lat="43.4048317" lon="11.45653"><ele>436.0</ele><time>2026-04-06T10:52:52.537Z</time></trkpt><trkpt lat="43.4048217" lon="11.45643"><ele>436.0</ele><time>2026-04-06T10:52:54.535Z</time></trkpt><trkpt lat="43.4048567" lon="11.4563533"><ele>436.0</ele><time>2026-04-06T10:52:56.541Z</time></trkpt><trkpt lat="43.4049217" lon="11.4563283"><ele>436.0</ele><time>2026-04-06T10:52:58.537Z</time></trkpt><trkpt lat="43.40503" lon="11.45634"><ele>436.0</ele><time>2026-04-06T10:53:00.543Z</time></trkpt><trkpt lat="43.4051517" lon="11.4563583"><ele>436.0</ele><time>2026-04-06T10:53:02.538Z</time></trkpt><trkpt lat="43.4052583" lon="11.45638"><ele>436.0</ele><time>2026-04-06T10:53:04.535Z</time></trkpt><trkpt lat="43.4053583" lon="11.4563983"><ele>436.0</ele><time>2026-04-06T10:53:06.536Z</time></trkpt><trkpt lat="43.4054733" lon="11.4564083"><ele>436.0</ele><time>2026-04-06T10:53:08.543Z</time></trkpt><trkpt lat="43.405585" lon="11.45639"><ele>436.0</ele><time>2026-04-06T10:53:10.536Z</time></trkpt><trkpt lat="43.4056917" lon="11.4563283"><ele>436.0</ele><time>2026-04-06T10:53:12.537Z</time></trkpt><trkpt lat="43.405785" lon="11.4562167"><ele>434.57142857142856</ele><time>2026-04-06T10:53:14.544Z</time></trkpt><trkpt lat="43.4058317" lon="11.4561533"><ele>433.14285714285717</ele><time>2026-04-06T10:53:15.541Z</time></trkpt><trkpt lat="43.4058783" lon="11.456085"><ele>431.71428571428567</ele><time>2026-04-06T10:53:16.536Z</time></trkpt><trkpt lat="43.4059217" lon="11.4560133"><ele>430.2857142857143</ele><time>2026-04-06T10:53:17.536Z</time></trkpt><trkpt lat="43.4059583" lon="11.4559367"><ele>428.85714285714283</ele><time>2026-04-06T10:53:18.542Z</time></trkpt><trkpt lat="43.4059933" lon="11.45585"><ele>427.4285714285714</ele><time>2026-04-06T10:53:19.535Z</time></trkpt><trkpt lat="43.4060183" lon="11.4557533"><ele>426.0</ele><time>2026-04-06T10:53:20.544Z</time></trkpt><trkpt lat="43.4060367" lon="11.4556467"><ele>425.99999999999994</ele><time>2026-04-06T10:53:21.535Z</time></trkpt><trkpt lat="43.406055" lon="11.455535"><ele>426.0</ele><time>2026-04-06T10:53:22.54Z</time></trkpt><trkpt lat="43.40607" lon="11.4554267"><ele>426.0</ele><time>2026-04-06T10:53:23.535Z</time></trkpt><trkpt lat="43.40609" lon="11.4553267"><ele>426.0</ele><time>2026-04-06T10:53:24.541Z</time></trkpt><trkpt lat="43.4061133" lon="11.4552283"><ele>426.0</ele><time>2026-04-06T10:53:25.533Z</time></trkpt><trkpt lat="43.4061317" lon="11.4551383"><ele>425.99999999999994</ele><time>2026-04-06T10:53:26.537Z</time></trkpt><trkpt lat="43.4061483" lon="11.45505"><ele>426.0</ele><time>2026-04-06T10:53:27.537Z</time></trkpt><trkpt lat="43.4061617" lon="11.454965"><ele>425.3333333333333</ele><time>2026-04-06T10:53:28.534Z</time></trkpt><trkpt lat="43.4062083" lon="11.4548033"><ele>424.66666666666663</ele><time>2026-04-06T10:53:30.538Z</time></trkpt><trkpt lat="43.4062417" lon="11.45472"><ele>424.0</ele><time>2026-04-06T10:53:31.536Z</time></trkpt><trkpt lat="43.4062833" lon="11.45464"><ele>423.3333333333333</ele><time>2026-04-06T10:53:32.535Z</time></trkpt><trkpt lat="43.4063317" lon="11.45456"><ele>422.66666666666663</ele><time>2026-04-06T10:53:33.539Z</time></trkpt><trkpt lat="43.4063783" lon="11.4544717"><ele>422.0</ele><time>2026-04-06T10:53:34.536Z</time></trkpt><trkpt lat="43.406425" lon="11.4543783"><ele>420.3333333333333</ele><time>2026-04-06T10:53:35.534Z</time></trkpt><trkpt lat="43.4064633" lon="11.45428"><ele>418.66666666666663</ele><time>2026-04-06T10:53:36.538Z</time></trkpt><trkpt lat="43.4064983" lon="11.4541783"><ele>417.0</ele><time>2026-04-06T10:53:37.533Z</time></trkpt><trkpt lat="43.406525" lon="11.454075"><ele>415.33333333333337</ele><time>2026-04-06T10:53:38.533Z</time></trkpt><trkpt lat="43.4065483" lon="11.4539717"><ele>413.6666666666667</ele><time>2026-04-06T10:53:39.533Z</time></trkpt><trkpt lat="43.4065567" lon="11.4538633"><ele>412.0</ele><time>2026-04-06T10:53:40.543Z</time></trkpt><trkpt lat="43.4065517" lon="11.45375"><ele>412.00000000000006</ele><time>2026-04-06T10:53:41.554Z</time></trkpt><trkpt lat="43.4065367" lon="11.453645"><ele>412.0</ele><time>2026-04-06T10:53:42.54Z</time></trkpt><trkpt lat="43.406515" lon="11.4535417"><ele>412.0</ele><time>2026-04-06T10:53:43.535Z</time></trkpt><trkpt lat="43.40649" lon="11.4534267"><ele>412.0</ele><time>2026-04-06T10:53:44.534Z</time></trkpt><trkpt lat="43.40647" lon="11.4533117"><ele>412.00000000000006</ele><time>2026-04-06T10:53:45.542Z</time></trkpt><trkpt lat="43.406455" lon="11.4531983"><ele>412.0</ele><time>2026-04-06T10:53:46.536Z</time></trkpt><trkpt lat="43.406445" lon="11.453085"><ele>412.00000000000006</ele><time>2026-04-06T10:53:47.535Z</time></trkpt><trkpt lat="43.4064517" lon="11.452975"><ele>412.0</ele><time>2026-04-06T10:53:48.535Z</time></trkpt><trkpt lat="43.406465" lon="11.4528567"><ele>412.0</ele><time>2026-04-06T10:53:49.537Z</time></trkpt><trkpt lat="43.4064833" lon="11.452735"><ele>412.0</ele><time>2026-04-06T10:53:50.54Z</time></trkpt><trkpt lat="43.4064967" lon="11.4526067"><ele>412.00000000000006</ele><time>2026-04-06T10:53:51.533Z</time></trkpt><trkpt lat="43.4065067" lon="11.45248"><ele>412.0</ele><time>2026-04-06T10:53:52.535Z</time></trkpt><trkpt lat="43.40652" lon="11.452355"><ele>411.50000000000006</ele><time>2026-04-06T10:53:53.534Z</time></trkpt><trkpt lat="43.40652" lon="11.4522433"><ele>411.0</ele><time>2026-04-06T10:53:54.538Z</time></trkpt><trkpt lat="43.4065117" lon="11.452135"><ele>410.5</ele><time>2026-04-06T10:53:55.545Z</time></trkpt><trkpt lat="43.4064967" lon="11.4520317"><ele>410.0</ele><time>2026-04-06T10:53:56.538Z</time></trkpt><trkpt lat="43.4064683" lon="11.4519233"><ele>409.50000000000006</ele><time>2026-04-06T10:53:57.534Z</time></trkpt><trkpt lat="43.40643" lon="11.4518133"><ele>409.0</ele><time>2026-04-06T10:53:58.542Z</time></trkpt><trkpt lat="43.406385" lon="11.4517"><ele>409.4</ele><time>2026-04-06T10:53:59.544Z</time></trkpt><trkpt lat="43.4063283" lon="11.4515833"><ele>409.79999999999995</ele><time>2026-04-06T10:54:00.537Z</time></trkpt><trkpt lat="43.4062667" lon="11.4514683"><ele>410.20000000000005</ele><time>2026-04-06T10:54:01.537Z</time></trkpt><trkpt lat="43.406205" lon="11.451355"><ele>410.6</ele><time>2026-04-06T10:54:02.537Z</time></trkpt><trkpt lat="43.406145" lon="11.45125"><ele>411.0</ele><time>2026-04-06T10:54:03.534Z</time></trkpt><trkpt lat="43.4060917" lon="11.4511483"><ele>411.0</ele><time>2026-04-06T10:54:04.54Z</time></trkpt><trkpt lat="43.4060417" lon="11.4510483"><ele>411.0</ele><time>2026-04-06T10:54:05.539Z</time></trkpt><trkpt lat="43.4060017" lon="11.4509417"><ele>411.0</ele><time>2026-04-06T10:54:06.539Z</time></trkpt><trkpt lat="43.40597" lon="11.4508317"><ele>411.0</ele><time>2026-04-06T10:54:07.535Z</time></trkpt><trkpt lat="43.4059417" lon="11.4507233"><ele>411.0</ele><time>2026-04-06T10:54:08.536Z</time></trkpt><trkpt lat="43.4059117" lon="11.450615"><ele>411.0</ele><time>2026-04-06T10:54:09.542Z</time></trkpt><trkpt lat="43.405875" lon="11.4505067"><ele>410.4</ele><time>2026-04-06T10:54:10.535Z</time></trkpt><trkpt lat="43.405835" lon="11.450385"><ele>409.8</ele><time>2026-04-06T10:54:11.538Z</time></trkpt><trkpt lat="43.4057933" lon="11.4502683"><ele>409.2</ele><time>2026-04-06T10:54:12.536Z</time></trkpt><trkpt lat="43.4057417" lon="11.4501517"><ele>408.59999999999997</ele><time>2026-04-06T10:54:13.533Z</time></trkpt><trkpt lat="43.4056883" lon="11.45004"><ele>408.0</ele><time>2026-04-06T10:54:14.537Z</time></trkpt><trkpt lat="43.40564" lon="11.449925"><ele>408.0</ele><time>2026-04-06T10:54:15.537Z</time></trkpt><trkpt lat="43.405585" lon="11.44981"><ele>408.0</ele><time>2026-04-06T10:54:16.535Z</time></trkpt><trkpt lat="43.40553" lon="11.4496917"><ele>408.0</ele><time>2026-04-06T10:54:17.536Z</time></trkpt><trkpt lat="43.4054683" lon="11.44958"><ele>408.0</ele><time>2026-04-06T10:54:18.533Z</time></trkpt><trkpt lat="43.4054033" lon="11.4494767"><ele>408.0</ele><time>2026-04-06T10:54:19.537Z</time></trkpt><trkpt lat="43.4053417" lon="11.4493767"><ele>406.8333333333333</ele><time>2026-04-06T10:54:20.536Z</time></trkpt><trkpt lat="43.405285" lon="11.4492867"><ele>405.66666666666663</ele><time>2026-04-06T10:54:21.535Z</time></trkpt><trkpt lat="43.4052333" lon="11.449205"><ele>404.5</ele><time>2026-04-06T10:54:22.533Z</time></trkpt><trkpt lat="43.405185" lon="11.4491233"><ele>403.3333333333333</ele><time>2026-04-06T10:54:23.531Z</time></trkpt><trkpt lat="43.40514" lon="11.4490483"><ele>402.16666666666663</ele><time>2026-04-06T10:54:24.541Z</time></trkpt><trkpt lat="43.4051033" lon="11.4489767"><ele>401.0</ele><time>2026-04-06T10:54:25.535Z</time></trkpt><trkpt lat="43.4050517" lon="11.4488583"><ele>400.6</ele><time>2026-04-06T10:54:27.533Z</time></trkpt><trkpt lat="43.4050083" lon="11.44877"><ele>400.20000000000005</ele><time>2026-04-06T10:54:29.538Z</time></trkpt><trkpt lat="43.4049417" lon="11.4486533"><ele>399.79999999999995</ele><time>2026-04-06T10:54:31.533Z</time></trkpt><trkpt lat="43.4048917" lon="11.44858"><ele>399.4</ele><time>2026-04-06T10:54:32.535Z</time></trkpt><trkpt lat="43.4048167" lon="11.4485017"><ele>399.0</ele><time>2026-04-06T10:54:33.537Z</time></trkpt><trkpt lat="43.4047117" lon="11.44842"><ele>398.75</ele><time>2026-04-06T10:54:34.538Z</time></trkpt><trkpt lat="43.4045967" lon="11.4483333"><ele>398.5</ele><time>2026-04-06T10:54:35.535Z</time></trkpt><trkpt lat="43.4044683" lon="11.4482467"><ele>398.25</ele><time>2026-04-06T10:54:36.535Z</time></trkpt><trkpt lat="43.4043383" lon="11.4481517"><ele>398.0</ele><time>2026-04-06T10:54:37.533Z</time></trkpt><trkpt lat="43.4042083" lon="11.4480617"><ele>398.0</ele><time>2026-04-06T10:54:38.543Z</time></trkpt><trkpt lat="43.4040883" lon="11.44798"><ele>398.0</ele><time>2026-04-06T10:54:39.549Z</time></trkpt><trkpt lat="43.40398" lon="11.4479017"><ele>398.0</ele><time>2026-04-06T10:54:40.535Z</time></trkpt><trkpt lat="43.403875" lon="11.4478417"><ele>398.0</ele><time>2026-04-06T10:54:41.532Z</time></trkpt><trkpt lat="43.403775" lon="11.4477867"><ele>398.25</ele><time>2026-04-06T10:54:42.535Z</time></trkpt><trkpt lat="43.4036667" lon="11.4477317"><ele>398.5</ele><time>2026-04-06T10:54:43.54Z</time></trkpt><trkpt lat="43.4035533" lon="11.44768"><ele>398.75</ele><time>2026-04-06T10:54:44.538Z</time></trkpt><trkpt lat="43.403445" lon="11.4476167"><ele>399.0</ele><time>2026-04-06T10:54:45.536Z</time></trkpt><trkpt lat="43.403335" lon="11.4475483"><ele>399.0</ele><time>2026-04-06T10:54:46.532Z</time></trkpt><trkpt lat="43.4032217" lon="11.447485"><ele>399.0</ele><time>2026-04-06T10:54:47.535Z</time></trkpt><trkpt lat="43.40311" lon="11.4474233"><ele>399.0</ele><time>2026-04-06T10:54:48.537Z</time></trkpt><trkpt lat="43.4029967" lon="11.4473667"><ele>399.0</ele><time>2026-04-06T10:54:49.537Z</time></trkpt><trkpt lat="43.402885" lon="11.447305"><ele>399.0</ele><time>2026-04-06T10:54:50.536Z</time></trkpt><trkpt lat="43.4027683" lon="11.4472333"><ele>399.0</ele><time>2026-04-06T10:54:51.534Z</time></trkpt><trkpt lat="43.4026367" lon="11.4471683"><ele>399.0</ele><time>2026-04-06T10:54:52.535Z</time></trkpt><trkpt lat="43.4025017" lon="11.4470917"><ele>399.0</ele><time>2026-04-06T10:54:53.536Z</time></trkpt><trkpt lat="43.40236" lon="11.44701"><ele>399.0</ele><time>2026-04-06T10:54:54.534Z</time></trkpt><trkpt lat="43.40222" lon="11.4469233"><ele>399.0</ele><time>2026-04-06T10:54:55.534Z</time></trkpt><trkpt lat="43.4020883" lon="11.44682"><ele>399.0</ele><time>2026-04-06T10:54:56.535Z</time></trkpt><trkpt lat="43.4019633" lon="11.4467117"><ele>395.33333333333337</ele><time>2026-04-06T10:54:57.532Z</time></trkpt><trkpt lat="43.40184" lon="11.4466083"><ele>391.6666666666667</ele><time>2026-04-06T10:54:58.536Z</time></trkpt><trkpt lat="43.4017217" lon="11.4464767"><ele>388.0</ele><time>2026-04-06T10:54:59.538Z</time></trkpt><trkpt lat="43.401605" lon="11.4463367"><ele>388.6666666666667</ele><time>2026-04-06T10:55:00.542Z</time></trkpt><trkpt lat="43.4014933" lon="11.4461933"><ele>389.33333333333337</ele><time>2026-04-06T10:55:01.549Z</time></trkpt><trkpt lat="43.4013833" lon="11.4460383"><ele>390.0</ele><time>2026-04-06T10:55:02.534Z</time></trkpt><trkpt lat="43.4012783" lon="11.4458783"><ele>388.25</ele><time>2026-04-06T10:55:03.533Z</time></trkpt><trkpt lat="43.4011883" lon="11.4457167"><ele>386.5</ele><time>2026-04-06T10:55:04.534Z</time></trkpt><trkpt lat="43.401095" lon="11.44556"><ele>384.75</ele><time>2026-04-06T10:55:05.535Z</time></trkpt><trkpt lat="43.4009983" lon="11.4453983"><ele>383.0</ele><time>2026-04-06T10:55:06.534Z</time></trkpt><trkpt lat="43.4008933" lon="11.4452417"><ele>382.75</ele><time>2026-04-06T10:55:07.536Z</time></trkpt><trkpt lat="43.40079" lon="11.4450967"><ele>382.5</ele><time>2026-04-06T10:55:08.539Z</time></trkpt><trkpt lat="43.400685" lon="11.444955"><ele>382.25</ele><time>2026-04-06T10:55:09.534Z</time></trkpt><trkpt lat="43.4005783" lon="11.4448167"><ele>382.0</ele><time>2026-04-06T10:55:10.533Z</time></trkpt><trkpt lat="43.400475" lon="11.44468"><ele>380.75</ele><time>2026-04-06T10:55:11.548Z</time></trkpt><trkpt lat="43.4003733" lon="11.4445433"><ele>379.5</ele><time>2026-04-06T10:55:12.539Z</time></trkpt><trkpt lat="43.400275" lon="11.4444083"><ele>378.25</ele><time>2026-04-06T10:55:13.537Z</time></trkpt><trkpt lat="43.4001733" lon="11.4442817"><ele>377.0</ele><time>2026-04-06T10:55:14.535Z</time></trkpt><trkpt lat="43.400075" lon="11.4441567"><ele>377.0</ele><time>2026-04-06T10:55:15.534Z</time></trkpt><trkpt lat="43.3999833" lon="11.4440267"><ele>377.0</ele><time>2026-04-06T10:55:16.533Z</time></trkpt><trkpt lat="43.39989" lon="11.4439083"><ele>377.0</ele><time>2026-04-06T10:55:17.535Z</time></trkpt><trkpt lat="43.3997933" lon="11.4438033"><ele>377.0</ele><time>2026-04-06T10:55:18.534Z</time></trkpt><trkpt lat="43.3996817" lon="11.443725"><ele>376.75</ele><time>2026-04-06T10:55:19.535Z</time></trkpt><trkpt lat="43.3995683" lon="11.4436617"><ele>376.5</ele><time>2026-04-06T10:55:20.534Z</time></trkpt><trkpt lat="43.3994567" lon="11.4436083"><ele>376.25</ele><time>2026-04-06T10:55:21.533Z</time></trkpt><trkpt lat="43.3993467" lon="11.4435617"><ele>376.0</ele><time>2026-04-06T10:55:22.535Z</time></trkpt><trkpt lat="43.3992433" lon="11.443515"><ele>376.0</ele><time>2026-04-06T10:55:23.536Z</time></trkpt><trkpt lat="43.3991383" lon="11.4434767"><ele>376.0</ele><time>2026-04-06T10:55:24.533Z</time></trkpt><trkpt lat="43.39903" lon="11.443445"><ele>376.0</ele><time>2026-04-06T10:55:25.542Z</time></trkpt><trkpt lat="43.398915" lon="11.4434333"><ele>376.0</ele><time>2026-04-06T10:55:26.533Z</time></trkpt><trkpt lat="43.3987817" lon="11.4434467"><ele>376.0</ele><time>2026-04-06T10:55:27.539Z</time></trkpt><trkpt lat="43.3986333" lon="11.44348"><ele>376.0</ele><time>2026-04-06T10:55:28.534Z</time></trkpt><trkpt lat="43.39848" lon="11.4435133"><ele>376.0</ele><time>2026-04-06T10:55:29.536Z</time></trkpt><trkpt lat="43.398335" lon="11.44354"><ele>376.0</ele><time>2026-04-06T10:55:30.536Z</time></trkpt><trkpt lat="43.398195" lon="11.443565"><ele>376.0</ele><time>2026-04-06T10:55:31.535Z</time></trkpt><trkpt lat="43.3980567" lon="11.443595"><ele>376.0</ele><time>2026-04-06T10:55:32.54Z</time></trkpt><trkpt lat="43.3979217" lon="11.4436117"><ele>376.0</ele><time>2026-04-06T10:55:33.534Z</time></trkpt><trkpt lat="43.3977867" lon="11.4435933"><ele>375.0</ele><time>2026-04-06T10:55:34.535Z</time></trkpt><trkpt lat="43.3976367" lon="11.4435467"><ele>374.0</ele><time>2026-04-06T10:55:35.535Z</time></trkpt><trkpt lat="43.39747" lon="11.443485"><ele>373.0</ele><time>2026-04-06T10:55:36.532Z</time></trkpt><trkpt lat="43.39729" lon="11.4434167"><ele>372.3333333333333</ele><time>2026-04-06T10:55:37.542Z</time></trkpt><trkpt lat="43.3971117" lon="11.4433467"><ele>371.6666666666667</ele><time>2026-04-06T10:55:38.539Z</time></trkpt><trkpt lat="43.3969367" lon="11.4432767"><ele>371.0</ele><time>2026-04-06T10:55:39.535Z</time></trkpt><trkpt lat="43.3967583" lon="11.4432067"><ele>371.0</ele><time>2026-04-06T10:55:40.538Z</time></trkpt><trkpt lat="43.39658" lon="11.4431367"><ele>371.0</ele><time>2026-04-06T10:55:41.533Z</time></trkpt><trkpt lat="43.3964017" lon="11.4430683"><ele>371.0</ele><time>2026-04-06T10:55:42.533Z</time></trkpt><trkpt lat="43.3962183" lon="11.4429967"><ele>369.6666666666667</ele><time>2026-04-06T10:55:43.539Z</time></trkpt><trkpt lat="43.3960317" lon="11.4429217"><ele>368.3333333333333</ele><time>2026-04-06T10:55:44.539Z</time></trkpt><trkpt lat="43.3958467" lon="11.4428467"><ele>367.0</ele><time>2026-04-06T10:55:45.532Z</time></trkpt><trkpt lat="43.39567" lon="11.442775"><ele>367.3333333333333</ele><time>2026-04-06T10:55:46.54Z</time></trkpt><trkpt lat="43.3954967" lon="11.4427183"><ele>367.6666666666667</ele><time>2026-04-06T10:55:47.537Z</time></trkpt><trkpt lat="43.3953217" lon="11.4426817"><ele>368.0</ele><time>2026-04-06T10:55:48.537Z</time></trkpt><trkpt lat="43.395145" lon="11.4426717"><ele>368.0</ele><time>2026-04-06T10:55:49.536Z</time></trkpt><trkpt lat="43.3949733" lon="11.442675"><ele>368.0</ele><time>2026-04-06T10:55:50.535Z</time></trkpt><trkpt lat="43.394815" lon="11.4426867"><ele>368.0</ele><time>2026-04-06T10:55:51.536Z</time></trkpt><trkpt lat="43.3946683" lon="11.442695"><ele>368.0</ele><time>2026-04-06T10:55:52.537Z</time></trkpt><trkpt lat="43.3945333" lon="11.442695"><ele>368.0</ele><time>2026-04-06T10:55:53.537Z</time></trkpt><trkpt lat="43.3944017" lon="11.4426933"><ele>368.0</ele><time>2026-04-06T10:55:54.535Z</time></trkpt><trkpt lat="43.3942717" lon="11.4426733"><ele>368.0</ele><time>2026-04-06T10:55:55.533Z</time></trkpt><trkpt lat="43.39414" lon="11.4426617"><ele>368.0</ele><time>2026-04-06T10:55:56.538Z</time></trkpt><trkpt lat="43.3939983" lon="11.4426417"><ele>368.0</ele><time>2026-04-06T10:55:57.544Z</time></trkpt><trkpt lat="43.3938533" lon="11.4426217"><ele>368.0</ele><time>2026-04-06T10:55:58.535Z</time></trkpt><trkpt lat="43.3937083" lon="11.4425983"><ele>368.0</ele><time>2026-04-06T10:55:59.537Z</time></trkpt><trkpt lat="43.3935567" lon="11.442545"><ele>368.0</ele><time>2026-04-06T10:56:00.539Z</time></trkpt><trkpt lat="43.3934067" lon="11.4424767"><ele>368.0</ele><time>2026-04-06T10:56:01.537Z</time></trkpt><trkpt lat="43.39326" lon="11.4424017"><ele>368.0</ele><time>2026-04-06T10:56:02.538Z</time></trkpt><trkpt lat="43.393105" lon="11.4423433"><ele>368.33333333333337</ele><time>2026-04-06T10:56:03.538Z</time></trkpt><trkpt lat="43.39294" lon="11.4423083"><ele>368.6666666666667</ele><time>2026-04-06T10:56:04.534Z</time></trkpt><trkpt lat="43.3927783" lon="11.4423017"><ele>369.0</ele><time>2026-04-06T10:56:05.549Z</time></trkpt><trkpt lat="43.3926167" lon="11.4423233"><ele>369.0</ele><time>2026-04-06T10:56:06.536Z</time></trkpt><trkpt lat="43.392455" lon="11.4423717"><ele>369.0</ele><time>2026-04-06T10:56:07.538Z</time></trkpt><trkpt lat="43.3922917" lon="11.4424483"><ele>369.0</ele><time>2026-04-06T10:56:08.539Z</time></trkpt><trkpt lat="43.3921283" lon="11.44255"><ele>368.0</ele><time>2026-04-06T10:56:09.534Z</time></trkpt><trkpt lat="43.3919733" lon="11.4426567"><ele>367.0</ele><time>2026-04-06T10:56:10.532Z</time></trkpt><trkpt lat="43.3918233" lon="11.4427483"><ele>366.0</ele><time>2026-04-06T10:56:11.538Z</time></trkpt><trkpt lat="43.3916767" lon="11.4428083"><ele>366.0</ele><time>2026-04-06T10:56:12.538Z</time></trkpt><trkpt lat="43.3915217" lon="11.4428283"><ele>366.0</ele><time>2026-04-06T10:56:13.535Z</time></trkpt><trkpt lat="43.3913583" lon="11.4428333"><ele>366.0</ele><time>2026-04-06T10:56:14.532Z</time></trkpt><trkpt lat="43.39118" lon="11.4428417"><ele>366.6666666666667</ele><time>2026-04-06T10:56:15.538Z</time></trkpt><trkpt lat="43.391" lon="11.4428783"><ele>367.33333333333337</ele><time>2026-04-06T10:56:16.537Z</time></trkpt><trkpt lat="43.390835" lon="11.4429167"><ele>368.0</ele><time>2026-04-06T10:56:17.537Z</time></trkpt><trkpt lat="43.3906817" lon="11.4429417"><ele>368.0</ele><time>2026-04-06T10:56:18.546Z</time></trkpt><trkpt lat="43.3905333" lon="11.44295"><ele>368.0</ele><time>2026-04-06T10:56:19.537Z</time></trkpt><trkpt lat="43.3903867" lon="11.4429433"><ele>368.0</ele><time>2026-04-06T10:56:20.538Z</time></trkpt><trkpt lat="43.3902467" lon="11.44293"><ele>368.0</ele><time>2026-04-06T10:56:21.536Z</time></trkpt><trkpt lat="43.3901183" lon="11.4429067"><ele>367.25</ele><time>2026-04-06T10:56:22.535Z</time></trkpt><trkpt lat="43.3899967" lon="11.44288"><ele>366.5</ele><time>2026-04-06T10:56:23.533Z</time></trkpt><trkpt lat="43.3898917" lon="11.4428267"><ele>365.75</ele><time>2026-04-06T10:56:24.532Z</time></trkpt><trkpt lat="43.3898" lon="11.44274"><ele>365.0</ele><time>2026-04-06T10:56:25.534Z</time></trkpt><trkpt lat="43.38972" lon="11.44262"><ele>363.0</ele><time>2026-04-06T10:56:26.541Z</time></trkpt><trkpt lat="43.3896517" lon="11.4424733"><ele>361.0</ele><time>2026-04-06T10:56:27.535Z</time></trkpt><trkpt lat="43.3895783" lon="11.44231"><ele>359.0</ele><time>2026-04-06T10:56:28.538Z</time></trkpt><trkpt lat="43.3894933" lon="11.4421417"><ele>357.0</ele><time>2026-04-06T10:56:29.541Z</time></trkpt><trkpt lat="43.3894" lon="11.4419817"><ele>357.0</ele><time>2026-04-06T10:56:30.538Z</time></trkpt><trkpt lat="43.3893083" lon="11.44183"><ele>357.0</ele><time>2026-04-06T10:56:31.535Z</time></trkpt><trkpt lat="43.3892133" lon="11.4416867"><ele>357.0</ele><time>2026-04-06T10:56:32.54Z</time></trkpt><trkpt lat="43.3891183" lon="11.44154"><ele>357.0</ele><time>2026-04-06T10:56:33.536Z</time></trkpt><trkpt lat="43.3890267" lon="11.4414"><ele>356.25</ele><time>2026-04-06T10:56:34.536Z</time></trkpt><trkpt lat="43.38894" lon="11.44126"><ele>355.5</ele><time>2026-04-06T10:56:35.536Z</time></trkpt><trkpt lat="43.388845" lon="11.4411217"><ele>354.75</ele><time>2026-04-06T10:56:36.535Z</time></trkpt><trkpt lat="43.3887367" lon="11.4409833"><ele>354.0</ele><time>2026-04-06T10:56:37.535Z</time></trkpt><trkpt lat="43.3886083" lon="11.4408433"><ele>354.0</ele><time>2026-04-06T10:56:38.534Z</time></trkpt><trkpt lat="43.38847" lon="11.4406983"><ele>354.0</ele><time>2026-04-06T10:56:39.533Z</time></trkpt><trkpt lat="43.3883367" lon="11.440525"><ele>354.0</ele><time>2026-04-06T10:56:40.535Z</time></trkpt><trkpt lat="43.3882117" lon="11.4403267"><ele>351.3333333333333</ele><time>2026-04-06T10:56:41.537Z</time></trkpt><trkpt lat="43.388085" lon="11.4401233"><ele>348.66666666666663</ele><time>2026-04-06T10:56:42.535Z</time></trkpt><trkpt lat="43.3879517" lon="11.439915"><ele>346.0</ele><time>2026-04-06T10:56:43.533Z</time></trkpt><trkpt lat="43.3878267" lon="11.43969"><ele>344.66666666666663</ele><time>2026-04-06T10:56:44.537Z</time></trkpt><trkpt lat="43.3877067" lon="11.4394667"><ele>343.3333333333333</ele><time>2026-04-06T10:56:45.538Z</time></trkpt><trkpt lat="43.3875883" lon="11.439255"><ele>342.0</ele><time>2026-04-06T10:56:46.538Z</time></trkpt><trkpt lat="43.3874683" lon="11.4390617"><ele>342.0</ele><time>2026-04-06T10:56:47.534Z</time></trkpt><trkpt lat="43.3873483" lon="11.4388817"><ele>342.0</ele><time>2026-04-06T10:56:48.533Z</time></trkpt><trkpt lat="43.3872483" lon="11.438705"><ele>342.0</ele><time>2026-04-06T10:56:49.534Z</time></trkpt><trkpt lat="43.3871717" lon="11.4385333"><ele>342.25</ele><time>2026-04-06T10:56:50.534Z</time></trkpt><trkpt lat="43.3871083" lon="11.4383633"><ele>342.5</ele><time>2026-04-06T10:56:51.531Z</time></trkpt><trkpt lat="43.38706" lon="11.43818"><ele>342.75</ele><time>2026-04-06T10:56:52.535Z</time></trkpt><trkpt lat="43.3870133" lon="11.4379983"><ele>343.0</ele><time>2026-04-06T10:56:53.535Z</time></trkpt><trkpt lat="43.3869717" lon="11.437825"><ele>343.25</ele><time>2026-04-06T10:56:54.539Z</time></trkpt><trkpt lat="43.38693" lon="11.4376633"><ele>343.5</ele><time>2026-04-06T10:56:55.541Z</time></trkpt><trkpt lat="43.386885" lon="11.4375067"><ele>343.75</ele><time>2026-04-06T10:56:56.533Z</time></trkpt><trkpt lat="43.386835" lon="11.437355"><ele>344.0</ele><time>2026-04-06T10:56:57.535Z</time></trkpt><trkpt lat="43.386785" lon="11.4371983"><ele>342.0</ele><time>2026-04-06T10:56:58.533Z</time></trkpt><trkpt lat="43.3867217" lon="11.43705"><ele>340.0</ele><time>2026-04-06T10:56:59.539Z</time></trkpt><trkpt lat="43.38664" lon="11.4369133"><ele>338.0</ele><time>2026-04-06T10:57:00.539Z</time></trkpt><trkpt lat="43.3865383" lon="11.4367833"><ele>336.0</ele><time>2026-04-06T10:57:01.539Z</time></trkpt><trkpt lat="43.3864267" lon="11.4366517"><ele>336.0</ele><time>2026-04-06T10:57:02.537Z</time></trkpt><trkpt lat="43.386315" lon="11.43652"><ele>336.0</ele><time>2026-04-06T10:57:03.54Z</time></trkpt><trkpt lat="43.3862067" lon="11.4364083"><ele>336.0</ele><time>2026-04-06T10:57:04.545Z</time></trkpt><trkpt lat="43.38611" lon="11.4362883"><ele>336.0</ele><time>2026-04-06T10:57:05.54Z</time></trkpt><trkpt lat="43.3860283" lon="11.4361717"><ele>336.0</ele><time>2026-04-06T10:57:06.539Z</time></trkpt><trkpt lat="43.38595" lon="11.4360617"><ele>336.0</ele><time>2026-04-06T10:57:07.543Z</time></trkpt><trkpt lat="43.3858683" lon="11.4359517"><ele>336.0</ele><time>2026-04-06T10:57:08.541Z</time></trkpt><trkpt lat="43.3857633" lon="11.4358533"><ele>336.0</ele><time>2026-04-06T10:57:09.535Z</time></trkpt><trkpt lat="43.3856333" lon="11.43577"><ele>334.75</ele><time>2026-04-06T10:57:10.537Z</time></trkpt><trkpt lat="43.385505" lon="11.435675"><ele>333.5</ele><time>2026-04-06T10:57:11.538Z</time></trkpt><trkpt lat="43.3853767" lon="11.4355733"><ele>332.25</ele><time>2026-04-06T10:57:12.535Z</time></trkpt><trkpt lat="43.3852483" lon="11.43547"><ele>331.0</ele><time>2026-04-06T10:57:13.547Z</time></trkpt><trkpt lat="43.385115" lon="11.43537"><ele>330.3333333333333</ele><time>2026-04-06T10:57:14.542Z</time></trkpt><trkpt lat="43.3849733" lon="11.4352767"><ele>329.6666666666667</ele><time>2026-04-06T10:57:15.534Z</time></trkpt><trkpt lat="43.384825" lon="11.435205"><ele>329.0</ele><time>2026-04-06T10:57:16.534Z</time></trkpt><trkpt lat="43.3846683" lon="11.4351533"><ele>327.6666666666667</ele><time>2026-04-06T10:57:17.535Z</time></trkpt><trkpt lat="43.3845" lon="11.43511"><ele>326.3333333333333</ele><time>2026-04-06T10:57:18.533Z</time></trkpt><trkpt lat="43.3843197" lon="11.4350671"><ele>325.0</ele><time>2026-04-06T10:57:19.535Z</time></trkpt><trkpt lat="43.3841282" lon="11.4350214"><ele>325.0</ele><time>2026-04-06T10:57:20.537Z</time></trkpt><trkpt lat="43.3839369" lon="11.4349703"><ele>325.0</ele><time>2026-04-06T10:57:21.534Z</time></trkpt><trkpt lat="43.3837585" lon="11.434914"><ele>325.0</ele><time>2026-04-06T10:57:22.533Z</time></trkpt><trkpt lat="43.383594" lon="11.4348417"><ele>324.66666666666663</ele><time>2026-04-06T10:57:23.534Z</time></trkpt><trkpt lat="43.3834431" lon="11.4347649"><ele>324.3333333333333</ele><time>2026-04-06T10:57:24.543Z</time></trkpt><trkpt lat="43.3833123" lon="11.4346686"><ele>324.0</ele><time>2026-04-06T10:57:25.537Z</time></trkpt><trkpt lat="43.3831876" lon="11.4345674"><ele>324.75</ele><time>2026-04-06T10:57:26.544Z</time></trkpt><trkpt lat="43.3830657" lon="11.4344579"><ele>325.5</ele><time>2026-04-06T10:57:27.535Z</time></trkpt><trkpt lat="43.3829435" lon="11.4343442"><ele>326.25</ele><time>2026-04-06T10:57:28.533Z</time></trkpt><trkpt lat="43.382822" lon="11.4342336"><ele>327.0</ele><time>2026-04-06T10:57:29.541Z</time></trkpt><trkpt lat="43.3826992" lon="11.43415"><ele>327.0</ele><time>2026-04-06T10:57:30.537Z</time></trkpt><trkpt lat="43.3825737" lon="11.4340881"><ele>327.0</ele><time>2026-04-06T10:57:31.538Z</time></trkpt><trkpt lat="43.3824424" lon="11.4340461"><ele>327.0</ele><time>2026-04-06T10:57:32.547Z</time></trkpt><trkpt lat="43.3823066" lon="11.434021"><ele>327.0</ele><time>2026-04-06T10:57:33.536Z</time></trkpt><trkpt lat="43.382168" lon="11.4340065"><ele>326.5</ele><time>2026-04-06T10:57:34.539Z</time></trkpt><trkpt lat="43.3820353" lon="11.4339923"><ele>326.0</ele><time>2026-04-06T10:57:35.537Z</time></trkpt><trkpt lat="43.3819159" lon="11.4339835"><ele>325.5</ele><time>2026-04-06T10:57:36.537Z</time></trkpt><trkpt lat="43.3818097" lon="11.4339748"><ele>325.0</ele><time>2026-04-06T10:57:37.54Z</time></trkpt><trkpt lat="43.3817106" lon="11.4339504"><ele>325.0</ele><time>2026-04-06T10:57:38.534Z</time></trkpt><trkpt lat="43.381609" lon="11.4339106"><ele>325.0</ele><time>2026-04-06T10:57:39.544Z</time></trkpt><trkpt lat="43.3815002" lon="11.4338468"><ele>325.0</ele><time>2026-04-06T10:57:40.534Z</time></trkpt><trkpt lat="43.381382" lon="11.4337742"><ele>325.0</ele><time>2026-04-06T10:57:41.537Z</time></trkpt><trkpt lat="43.3812668" lon="11.4336961"><ele>323.0</ele><time>2026-04-06T10:57:42.533Z</time></trkpt><trkpt lat="43.3811503" lon="11.4336125"><ele>321.0</ele><time>2026-04-06T10:57:43.538Z</time></trkpt><trkpt lat="43.3810336" lon="11.4335158"><ele>319.0</ele><time>2026-04-06T10:57:44.626Z</time></trkpt><trkpt lat="43.3809317" lon="11.4334017"><ele>317.0</ele><time>2026-04-06T10:57:45.534Z</time></trkpt><trkpt lat="43.3808341" lon="11.4332556"><ele>317.0</ele><time>2026-04-06T10:57:46.535Z</time></trkpt><trkpt lat="43.3807553" lon="11.4330983"><ele>317.0</ele><time>2026-04-06T10:57:47.535Z</time></trkpt><trkpt lat="43.3806939" lon="11.4329476"><ele>317.0</ele><time>2026-04-06T10:57:48.533Z</time></trkpt><trkpt lat="43.3806214" lon="11.4328326"><ele>317.0</ele><time>2026-04-06T10:57:49.534Z</time></trkpt><trkpt lat="43.3805301" lon="11.4327627"><ele>318.0</ele><time>2026-04-06T10:57:50.539Z</time></trkpt><trkpt lat="43.3804226" lon="11.4327152"><ele>319.0</ele><time>2026-04-06T10:57:51.535Z</time></trkpt><trkpt lat="43.3802967" lon="11.4326867"><ele>320.0</ele><time>2026-04-06T10:57:52.534Z</time></trkpt><trkpt lat="43.3801633" lon="11.4326617"><ele>321.0</ele><time>2026-04-06T10:57:53.538Z</time></trkpt><trkpt lat="43.3800217" lon="11.4326383"><ele>321.0</ele><time>2026-04-06T10:57:54.537Z</time></trkpt><trkpt lat="43.3798667" lon="11.43261"><ele>321.0</ele><time>2026-04-06T10:57:55.532Z</time></trkpt><trkpt lat="43.3797083" lon="11.43257"><ele>321.0</ele><time>2026-04-06T10:57:56.536Z</time></trkpt><trkpt lat="43.379555" lon="11.4325067"><ele>320.0</ele><time>2026-04-06T10:57:57.537Z</time></trkpt><trkpt lat="43.379395" lon="11.43243"><ele>319.0</ele><time>2026-04-06T10:57:58.538Z</time></trkpt><trkpt lat="43.3792283" lon="11.4323417"><ele>318.0</ele><time>2026-04-06T10:57:59.535Z</time></trkpt><trkpt lat="43.3790517" lon="11.4322533"><ele>318.0</ele><time>2026-04-06T10:58:00.536Z</time></trkpt><trkpt lat="43.3788667" lon="11.432175"><ele>318.0</ele><time>2026-04-06T10:58:01.533Z</time></trkpt><trkpt lat="43.3786883" lon="11.4320917"><ele>318.0</ele><time>2026-04-06T10:58:02.534Z</time></trkpt><trkpt lat="43.3785133" lon="11.432"><ele>317.6666666666667</ele><time>2026-04-06T10:58:03.536Z</time></trkpt><trkpt lat="43.3783383" lon="11.4319083"><ele>317.33333333333337</ele><time>2026-04-06T10:58:04.532Z</time></trkpt><trkpt lat="43.3781683" lon="11.4318183"><ele>317.0</ele><time>2026-04-06T10:58:05.542Z</time></trkpt><trkpt lat="43.378005" lon="11.43174"><ele>317.6666666666667</ele><time>2026-04-06T10:58:06.533Z</time></trkpt><trkpt lat="43.3778483" lon="11.4316633"><ele>318.3333333333333</ele><time>2026-04-06T10:58:07.534Z</time></trkpt><trkpt lat="43.3777017" lon="11.431585"><ele>319.0</ele><time>2026-04-06T10:58:08.536Z</time></trkpt><trkpt lat="43.3775567" lon="11.431515"><ele>319.0</ele><time>2026-04-06T10:58:09.538Z</time></trkpt><trkpt lat="43.3774083" lon="11.4314483"><ele>319.0</ele><time>2026-04-06T10:58:10.535Z</time></trkpt><trkpt lat="43.3772533" lon="11.431405"><ele>319.0</ele><time>2026-04-06T10:58:11.536Z</time></trkpt><trkpt lat="43.377095" lon="11.4313717"><ele>318.0</ele><time>2026-04-06T10:58:12.534Z</time></trkpt><trkpt lat="43.37694" lon="11.4313433"><ele>317.0</ele><time>2026-04-06T10:58:13.538Z</time></trkpt><trkpt lat="43.3767917" lon="11.4313117"><ele>316.0</ele><time>2026-04-06T10:58:14.536Z</time></trkpt><trkpt lat="43.3766433" lon="11.4313083"><ele>315.25</ele><time>2026-04-06T10:58:15.535Z</time></trkpt><trkpt lat="43.376505" lon="11.431295"><ele>314.5</ele><time>2026-04-06T10:58:16.534Z</time></trkpt><trkpt lat="43.37638" lon="11.4312733"><ele>313.75</ele><time>2026-04-06T10:58:17.536Z</time></trkpt><trkpt lat="43.3762633" lon="11.4312467"><ele>313.0</ele><time>2026-04-06T10:58:18.535Z</time></trkpt><trkpt lat="43.376145" lon="11.43122"><ele>313.0</ele><time>2026-04-06T10:58:19.536Z</time></trkpt><trkpt lat="43.3760267" lon="11.4311933"><ele>313.0</ele><time>2026-04-06T10:58:20.536Z</time></trkpt><trkpt lat="43.3759133" lon="11.43115"><ele>313.0</ele><time>2026-04-06T10:58:21.532Z</time></trkpt><trkpt lat="43.375805" lon="11.4310967"><ele>313.0</ele><time>2026-04-06T10:58:22.542Z</time></trkpt><trkpt lat="43.3756983" lon="11.431035"><ele>313.0</ele><time>2026-04-06T10:58:23.533Z</time></trkpt><trkpt lat="43.3755983" lon="11.4309667"><ele>313.0</ele><time>2026-04-06T10:58:24.551Z</time></trkpt><trkpt lat="43.3755017" lon="11.4308967"><ele>313.0</ele><time>2026-04-06T10:58:25.537Z</time></trkpt><trkpt lat="43.375405" lon="11.43084"><ele>313.0</ele><time>2026-04-06T10:58:26.546Z</time></trkpt><trkpt lat="43.3753117" lon="11.4307783"><ele>313.0</ele><time>2026-04-06T10:58:27.536Z</time></trkpt><trkpt lat="43.3752233" lon="11.4307083"><ele>311.2</ele><time>2026-04-06T10:58:28.537Z</time></trkpt><trkpt lat="43.3751317" lon="11.4306467"><ele>309.4</ele><time>2026-04-06T10:58:29.535Z</time></trkpt><trkpt lat="43.3750367" lon="11.4305867"><ele>307.59999999999997</ele><time>2026-04-06T10:58:30.533Z</time></trkpt><trkpt lat="43.3749333" lon="11.4305417"><ele>305.8</ele><time>2026-04-06T10:58:31.534Z</time></trkpt><trkpt lat="43.374835" lon="11.4305"><ele>304.0</ele><time>2026-04-06T10:58:32.535Z</time></trkpt><trkpt lat="43.3747383" lon="11.4304617"><ele>304.2</ele><time>2026-04-06T10:58:33.545Z</time></trkpt><trkpt lat="43.3746433" lon="11.43042"><ele>304.4</ele><time>2026-04-06T10:58:34.534Z</time></trkpt><trkpt lat="43.3745483" lon="11.4303883"><ele>304.6</ele><time>2026-04-06T10:58:35.535Z</time></trkpt><trkpt lat="43.3744483" lon="11.4303567"><ele>304.8</ele><time>2026-04-06T10:58:36.54Z</time></trkpt><trkpt lat="43.3743417" lon="11.4303267"><ele>305.0</ele><time>2026-04-06T10:58:37.535Z</time></trkpt><trkpt lat="43.3742367" lon="11.4302967"><ele>305.0</ele><time>2026-04-06T10:58:38.539Z</time></trkpt><trkpt lat="43.3741317" lon="11.4302667"><ele>305.0</ele><time>2026-04-06T10:58:39.539Z</time></trkpt><trkpt lat="43.3740283" lon="11.4302367"><ele>305.0</ele><time>2026-04-06T10:58:40.534Z</time></trkpt><trkpt lat="43.37393" lon="11.4302033"><ele>305.0</ele><time>2026-04-06T10:58:41.536Z</time></trkpt><trkpt lat="43.3738317" lon="11.4301717"><ele>305.0</ele><time>2026-04-06T10:58:42.544Z</time></trkpt><trkpt lat="43.3737317" lon="11.43013"><ele>304.8</ele><time>2026-04-06T10:58:43.542Z</time></trkpt><trkpt lat="43.3736333" lon="11.43009"><ele>304.6</ele><time>2026-04-06T10:58:44.537Z</time></trkpt><trkpt lat="43.3735333" lon="11.4300333"><ele>304.4</ele><time>2026-04-06T10:58:45.536Z</time></trkpt><trkpt lat="43.37343" lon="11.429975"><ele>304.2</ele><time>2026-04-06T10:58:46.535Z</time></trkpt><trkpt lat="43.3733233" lon="11.429915"><ele>304.0</ele><time>2026-04-06T10:58:47.534Z</time></trkpt><trkpt lat="43.3732133" lon="11.42986"><ele>304.0</ele><time>2026-04-06T10:58:48.539Z</time></trkpt><trkpt lat="43.3730967" lon="11.4297967"><ele>304.0</ele><time>2026-04-06T10:58:49.542Z</time></trkpt><trkpt lat="43.372985" lon="11.4297233"><ele>304.0</ele><time>2026-04-06T10:58:50.533Z</time></trkpt><trkpt lat="43.3728633" lon="11.429655"><ele>304.0</ele><time>2026-04-06T10:58:51.536Z</time></trkpt><trkpt lat="43.37274" lon="11.42958"><ele>301.66666666666663</ele><time>2026-04-06T10:58:52.536Z</time></trkpt><trkpt lat="43.3726083" lon="11.4294967"><ele>299.3333333333333</ele><time>2026-04-06T10:58:53.538Z</time></trkpt><trkpt lat="43.3724633" lon="11.4294117"><ele>297.0</ele><time>2026-04-06T10:58:54.536Z</time></trkpt><trkpt lat="43.37231" lon="11.4293233"><ele>295.6666666666667</ele><time>2026-04-06T10:58:55.533Z</time></trkpt><trkpt lat="43.3721517" lon="11.4292267"><ele>294.33333333333337</ele><time>2026-04-06T10:58:56.535Z</time></trkpt><trkpt lat="43.3719883" lon="11.4291317"><ele>293.0</ele><time>2026-04-06T10:58:57.541Z</time></trkpt><trkpt lat="43.3718333" lon="11.429035"><ele>293.0</ele><time>2026-04-06T10:58:58.536Z</time></trkpt><trkpt lat="43.371685" lon="11.4289433"><ele>293.0</ele><time>2026-04-06T10:58:59.538Z</time></trkpt><trkpt lat="43.3715417" lon="11.428855"><ele>293.0</ele><time>2026-04-06T10:59:00.534Z</time></trkpt><trkpt lat="43.371395" lon="11.4287833"><ele>293.33333333333337</ele><time>2026-04-06T10:59:01.541Z</time></trkpt><trkpt lat="43.3712467" lon="11.4287233"><ele>293.6666666666667</ele><time>2026-04-06T10:59:02.536Z</time></trkpt><trkpt lat="43.3710867" lon="11.4286867"><ele>294.0</ele><time>2026-04-06T10:59:03.536Z</time></trkpt><trkpt lat="43.3709217" lon="11.4286467"><ele>294.0</ele><time>2026-04-06T10:59:04.533Z</time></trkpt><trkpt lat="43.37074" lon="11.4286167"><ele>294.0</ele><time>2026-04-06T10:59:05.535Z</time></trkpt><trkpt lat="43.370555" lon="11.4285883"><ele>294.0</ele><time>2026-04-06T10:59:06.539Z</time></trkpt><trkpt lat="43.3703683" lon="11.4285617"><ele>291.6666666666667</ele><time>2026-04-06T10:59:07.534Z</time></trkpt><trkpt lat="43.3701733" lon="11.4285367"><ele>289.33333333333337</ele><time>2026-04-06T10:59:08.535Z</time></trkpt><trkpt lat="43.3699767" lon="11.428515"><ele>287.0</ele><time>2026-04-06T10:59:09.536Z</time></trkpt><trkpt lat="43.3697917" lon="11.42849"><ele>285.33333333333337</ele><time>2026-04-06T10:59:10.533Z</time></trkpt><trkpt lat="43.3696133" lon="11.428475"><ele>283.6666666666667</ele><time>2026-04-06T10:59:11.542Z</time></trkpt><trkpt lat="43.3694433" lon="11.4284567"><ele>282.0</ele><time>2026-04-06T10:59:12.538Z</time></trkpt><trkpt lat="43.36928" lon="11.4284483"><ele>282.0</ele><time>2026-04-06T10:59:13.538Z</time></trkpt><trkpt lat="43.3691233" lon="11.42844"><ele>282.0</ele><time>2026-04-06T10:59:14.536Z</time></trkpt><trkpt lat="43.368975" lon="11.4284333"><ele>282.0</ele><time>2026-04-06T10:59:15.54Z</time></trkpt><trkpt lat="43.3688333" lon="11.4284283"><ele>282.0</ele><time>2026-04-06T10:59:16.535Z</time></trkpt><trkpt lat="43.368695" lon="11.42839"><ele>282.5</ele><time>2026-04-06T10:59:17.54Z</time></trkpt><trkpt lat="43.3685617" lon="11.4283217"><ele>283.0</ele><time>2026-04-06T10:59:18.536Z</time></trkpt><trkpt lat="43.368435" lon="11.42824"><ele>283.5</ele><time>2026-04-06T10:59:19.534Z</time></trkpt><trkpt lat="43.3683267" lon="11.428135"><ele>284.0</ele><time>2026-04-06T10:59:20.542Z</time></trkpt><trkpt lat="43.3682317" lon="11.42801"><ele>283.75</ele><time>2026-04-06T10:59:21.537Z</time></trkpt><trkpt lat="43.36815" lon="11.4278733"><ele>283.5</ele><time>2026-04-06T10:59:22.539Z</time></trkpt><trkpt lat="43.3680867" lon="11.4277167"><ele>283.25</ele><time>2026-04-06T10:59:23.537Z</time></trkpt><trkpt lat="43.3680367" lon="11.4275533"><ele>283.0</ele><time>2026-04-06T10:59:24.536Z</time></trkpt><trkpt lat="43.36799" lon="11.4273883"><ele>283.0</ele><time>2026-04-06T10:59:25.535Z</time></trkpt><trkpt lat="43.36794" lon="11.427225"><ele>283.0</ele><time>2026-04-06T10:59:26.539Z</time></trkpt><trkpt lat="43.3678867" lon="11.427075"><ele>283.0</ele><time>2026-04-06T10:59:27.533Z</time></trkpt><trkpt lat="43.3678217" lon="11.42694"><ele>283.0</ele><time>2026-04-06T10:59:28.54Z</time></trkpt><trkpt lat="43.3677317" lon="11.42683"><ele>283.25</ele><time>2026-04-06T10:59:29.535Z</time></trkpt><trkpt lat="43.36761" lon="11.42675"><ele>283.5</ele><time>2026-04-06T10:59:30.535Z</time></trkpt><trkpt lat="43.367475" lon="11.4266783"><ele>283.75</ele><time>2026-04-06T10:59:31.537Z</time></trkpt><trkpt lat="43.3673167" lon="11.4266167"><ele>284.0</ele><time>2026-04-06T10:59:32.539Z</time></trkpt><trkpt lat="43.367165" lon="11.42656"><ele>285.25</ele><time>2026-04-06T10:59:33.536Z</time></trkpt><trkpt lat="43.3670283" lon="11.4264967"><ele>286.5</ele><time>2026-04-06T10:59:34.535Z</time></trkpt><trkpt lat="43.3669017" lon="11.4264383"><ele>287.75</ele><time>2026-04-06T10:59:35.533Z</time></trkpt><trkpt lat="43.3667783" lon="11.4263817"><ele>289.0</ele><time>2026-04-06T10:59:36.539Z</time></trkpt><trkpt lat="43.3666583" lon="11.4263317"><ele>289.0</ele><time>2026-04-06T10:59:37.54Z</time></trkpt><trkpt lat="43.366525" lon="11.4263117"><ele>289.0</ele><time>2026-04-06T10:59:38.538Z</time></trkpt><trkpt lat="43.366385" lon="11.4263217"><ele>289.0</ele><time>2026-04-06T10:59:39.533Z</time></trkpt><trkpt lat="43.3662467" lon="11.4263483"><ele>289.0</ele><time>2026-04-06T10:59:40.54Z</time></trkpt><trkpt lat="43.3661217" lon="11.4263767"><ele>289.25</ele><time>2026-04-06T10:59:41.539Z</time></trkpt><trkpt lat="43.3660033" lon="11.4263917"><ele>289.5</ele><time>2026-04-06T10:59:42.541Z</time></trkpt><trkpt lat="43.3659" lon="11.426355"><ele>289.75</ele><time>2026-04-06T10:59:43.544Z</time></trkpt><trkpt lat="43.3658083" lon="11.4262717"><ele>290.0</ele><time>2026-04-06T10:59:44.534Z</time></trkpt><trkpt lat="43.365725" lon="11.42615"><ele>290.0</ele><time>2026-04-06T10:59:45.543Z</time></trkpt><trkpt lat="43.3656367" lon="11.42601"><ele>290.0</ele><time>2026-04-06T10:59:46.535Z</time></trkpt><trkpt lat="43.365545" lon="11.4258517"><ele>290.0</ele><time>2026-04-06T10:59:47.535Z</time></trkpt><trkpt lat="43.3654433" lon="11.4257083"><ele>290.0</ele><time>2026-04-06T10:59:48.537Z</time></trkpt><trkpt lat="43.365345" lon="11.4255717"><ele>287.75</ele><time>2026-04-06T10:59:49.535Z</time></trkpt><trkpt lat="43.365255" lon="11.42543"><ele>285.5</ele><time>2026-04-06T10:59:50.535Z</time></trkpt><trkpt lat="43.36517" lon="11.4252883"><ele>283.25</ele><time>2026-04-06T10:59:51.532Z</time></trkpt><trkpt lat="43.3650867" lon="11.42515"><ele>281.0</ele><time>2026-04-06T10:59:52.536Z</time></trkpt><trkpt lat="43.365005" lon="11.4250133"><ele>281.0</ele><time>2026-04-06T10:59:53.539Z</time></trkpt><trkpt lat="43.3649217" lon="11.4248917"><ele>281.0</ele><time>2026-04-06T10:59:54.534Z</time></trkpt><trkpt lat="43.3648517" lon="11.424765"><ele>281.0</ele><time>2026-04-06T10:59:55.539Z</time></trkpt><trkpt lat="43.364785" lon="11.4246317"><ele>281.0</ele><time>2026-04-06T10:59:56.534Z</time></trkpt><trkpt lat="43.3647267" lon="11.4244883"><ele>280.25</ele><time>2026-04-06T10:59:57.54Z</time></trkpt><trkpt lat="43.3646833" lon="11.4243317"><ele>279.5</ele><time>2026-04-06T10:59:58.547Z</time></trkpt><trkpt lat="43.3646333" lon="11.4241667"><ele>278.75</ele><time>2026-04-06T10:59:59.536Z</time></trkpt><trkpt lat="43.3645933" lon="11.4239783"><ele>278.0</ele><time>2026-04-06T11:00:00.536Z</time></trkpt><trkpt lat="43.3645667" lon="11.4237783"><ele>276.25</ele><time>2026-04-06T11:00:01.536Z</time></trkpt><trkpt lat="43.36455" lon="11.4235783"><ele>274.5</ele><time>2026-04-06T11:00:02.533Z</time></trkpt><trkpt lat="43.36454" lon="11.4233917"><ele>272.75</ele><time>2026-04-06T11:00:03.536Z</time></trkpt><trkpt lat="43.3645283" lon="11.423215"><ele>271.0</ele><time>2026-04-06T11:00:04.535Z</time></trkpt><trkpt lat="43.3645233" lon="11.4230333"><ele>269.25</ele><time>2026-04-06T11:00:05.532Z</time></trkpt><trkpt lat="43.3645183" lon="11.422855"><ele>267.5</ele><time>2026-04-06T11:00:06.537Z</time></trkpt><trkpt lat="43.3645" lon="11.4226983"><ele>265.75</ele><time>2026-04-06T11:00:07.533Z</time></trkpt><trkpt lat="43.36449" lon="11.422535"><ele>264.0</ele><time>2026-04-06T11:00:08.544Z</time></trkpt><trkpt lat="43.3644833" lon="11.422375"><ele>264.0</ele><time>2026-04-06T11:00:09.539Z</time></trkpt><trkpt lat="43.3644717" lon="11.422215"><ele>264.0</ele><time>2026-04-06T11:00:10.547Z</time></trkpt><trkpt lat="43.3644583" lon="11.4220717"><ele>264.0</ele><time>2026-04-06T11:00:11.537Z</time></trkpt><trkpt lat="43.36445" lon="11.4219267"><ele>264.0</ele><time>2026-04-06T11:00:12.533Z</time></trkpt><trkpt lat="43.3644483" lon="11.4217983"><ele>264.0</ele><time>2026-04-06T11:00:13.543Z</time></trkpt><trkpt lat="43.364445" lon="11.4216667"><ele>262.8333333333333</ele><time>2026-04-06T11:00:14.544Z</time></trkpt><trkpt lat="43.3644383" lon="11.4215483"><ele>261.6666666666667</ele><time>2026-04-06T11:00:15.539Z</time></trkpt><trkpt lat="43.36442" lon="11.4214383"><ele>260.5</ele><time>2026-04-06T11:00:16.533Z</time></trkpt><trkpt lat="43.3644" lon="11.4213267"><ele>259.33333333333337</ele><time>2026-04-06T11:00:17.536Z</time></trkpt><trkpt lat="43.3643783" lon="11.421215"><ele>258.1666666666667</ele><time>2026-04-06T11:00:18.533Z</time></trkpt><trkpt lat="43.3643567" lon="11.4211033"><ele>257.0</ele><time>2026-04-06T11:00:19.533Z</time></trkpt><trkpt lat="43.3642817" lon="11.4208867"><ele>256.8</ele><time>2026-04-06T11:00:21.536Z</time></trkpt><trkpt lat="43.364245" lon="11.4207667"><ele>256.6</ele><time>2026-04-06T11:00:22.549Z</time></trkpt><trkpt lat="43.3642067" lon="11.42065"><ele>256.40000000000003</ele><time>2026-04-06T11:00:23.535Z</time></trkpt><trkpt lat="43.3641767" lon="11.4205367"><ele>256.2</ele><time>2026-04-06T11:00:24.535Z</time></trkpt><trkpt lat="43.3641433" lon="11.4204267"><ele>256.0</ele><time>2026-04-06T11:00:25.541Z</time></trkpt><trkpt lat="43.3641217" lon="11.42031"><ele>255.60000000000002</ele><time>2026-04-06T11:00:26.538Z</time></trkpt><trkpt lat="43.3641067" lon="11.4201833"><ele>255.20000000000002</ele><time>2026-04-06T11:00:27.534Z</time></trkpt><trkpt lat="43.3641033" lon="11.4200417"><ele>254.79999999999998</ele><time>2026-04-06T11:00:28.535Z</time></trkpt><trkpt lat="43.36409" lon="11.4198983"><ele>254.39999999999998</ele><time>2026-04-06T11:00:29.536Z</time></trkpt><trkpt lat="43.36408" lon="11.4197467"><ele>254.0</ele><time>2026-04-06T11:00:30.535Z</time></trkpt><trkpt lat="43.36407" lon="11.41959"><ele>253.2</ele><time>2026-04-06T11:00:31.534Z</time></trkpt><trkpt lat="43.364065" lon="11.4194317"><ele>252.39999999999998</ele><time>2026-04-06T11:00:32.534Z</time></trkpt><trkpt lat="43.3640617" lon="11.4192783"><ele>251.6</ele><time>2026-04-06T11:00:33.534Z</time></trkpt><trkpt lat="43.3640633" lon="11.4191333"><ele>250.8</ele><time>2026-04-06T11:00:34.537Z</time></trkpt><trkpt lat="43.3640617" lon="11.4190017"><ele>250.0</ele><time>2026-04-06T11:00:35.535Z</time></trkpt><trkpt lat="43.3640633" lon="11.4188883"><ele>248.8</ele><time>2026-04-06T11:00:36.535Z</time></trkpt><trkpt lat="43.3640583" lon="11.4187983"><ele>247.6</ele><time>2026-04-06T11:00:37.536Z</time></trkpt><trkpt lat="43.3640133" lon="11.4186633"><ele>246.39999999999998</ele><time>2026-04-06T11:00:39.539Z</time></trkpt><trkpt lat="43.3639417" lon="11.4185717"><ele>245.2</ele><time>2026-04-06T11:00:41.537Z</time></trkpt><trkpt lat="43.3638483" lon="11.4185317"><ele>244.0</ele><time>2026-04-06T11:00:43.533Z</time></trkpt><trkpt lat="43.363765" lon="11.4185033"><ele>243.0</ele><time>2026-04-06T11:00:45.536Z</time></trkpt><trkpt lat="43.3636933" lon="11.4184833"><ele>242.0</ele><time>2026-04-06T11:00:46.534Z</time></trkpt><trkpt lat="43.3635933" lon="11.4184483"><ele>241.0</ele><time>2026-04-06T11:00:47.538Z</time></trkpt><trkpt lat="43.36346" lon="11.41843"><ele>240.0</ele><time>2026-04-06T11:00:48.532Z</time></trkpt><trkpt lat="43.3633133" lon="11.4184283"><ele>240.0</ele><time>2026-04-06T11:00:49.535Z</time></trkpt><trkpt lat="43.3631467" lon="11.4184233"><ele>240.0</ele><time>2026-04-06T11:00:50.54Z</time></trkpt><trkpt lat="43.36298" lon="11.4183983"><ele>240.0</ele><time>2026-04-06T11:00:51.534Z</time></trkpt><trkpt lat="43.362825" lon="11.4183567"><ele>239.25</ele><time>2026-04-06T11:00:52.533Z</time></trkpt><trkpt lat="43.3626817" lon="11.418305"><ele>238.5</ele><time>2026-04-06T11:00:53.539Z</time></trkpt><trkpt lat="43.36254" lon="11.4182567"><ele>237.75</ele><time>2026-04-06T11:00:54.534Z</time></trkpt><trkpt lat="43.3624067" lon="11.4182333"><ele>237.0</ele><time>2026-04-06T11:00:55.534Z</time></trkpt><trkpt lat="43.36227" lon="11.4182367"><ele>235.5</ele><time>2026-04-06T11:00:56.54Z</time></trkpt><trkpt lat="43.36214" lon="11.41829"><ele>234.0</ele><time>2026-04-06T11:00:57.534Z</time></trkpt><trkpt lat="43.3620217" lon="11.418385"><ele>232.5</ele><time>2026-04-06T11:00:58.538Z</time></trkpt><trkpt lat="43.3619133" lon="11.4185417"><ele>231.0</ele><time>2026-04-06T11:00:59.535Z</time></trkpt><trkpt lat="43.3618083" lon="11.4187117"><ele>233.33333333333331</ele><time>2026-04-06T11:01:00.541Z</time></trkpt><trkpt lat="43.3617067" lon="11.418885"><ele>235.66666666666666</ele><time>2026-04-06T11:01:01.54Z</time></trkpt><trkpt lat="43.3615967" lon="11.4190183"><ele>238.0</ele><time>2026-04-06T11:01:02.534Z</time></trkpt><trkpt lat="43.361465" lon="11.4191117"><ele>236.0</ele><time>2026-04-06T11:01:03.54Z</time></trkpt><trkpt lat="43.3613117" lon="11.4191867"><ele>234.0</ele><time>2026-04-06T11:01:04.537Z</time></trkpt><trkpt lat="43.3611333" lon="11.41926"><ele>232.0</ele><time>2026-04-06T11:01:05.539Z</time></trkpt><trkpt lat="43.36093" lon="11.4193367"><ele>232.0</ele><time>2026-04-06T11:01:06.533Z</time></trkpt><trkpt lat="43.3607133" lon="11.419405"><ele>232.0</ele><time>2026-04-06T11:01:07.541Z</time></trkpt><trkpt lat="43.360495" lon="11.4194833"><ele>232.0</ele><time>2026-04-06T11:01:08.538Z</time></trkpt><trkpt lat="43.3602767" lon="11.4195633"><ele>232.0</ele><time>2026-04-06T11:01:09.537Z</time></trkpt><trkpt lat="43.360065" lon="11.4196433"><ele>232.0</ele><time>2026-04-06T11:01:10.536Z</time></trkpt><trkpt lat="43.3598667" lon="11.419715"><ele>232.0</ele><time>2026-04-06T11:01:11.542Z</time></trkpt><trkpt lat="43.3596783" lon="11.4197867"><ele>230.66666666666666</ele><time>2026-04-06T11:01:12.536Z</time></trkpt><trkpt lat="43.359505" lon="11.4198467"><ele>229.33333333333331</ele><time>2026-04-06T11:01:13.537Z</time></trkpt><trkpt lat="43.359355" lon="11.41989"><ele>228.0</ele><time>2026-04-06T11:01:14.541Z</time></trkpt><trkpt lat="43.3592183" lon="11.419915"><ele>228.0</ele><time>2026-04-06T11:01:15.539Z</time></trkpt><trkpt lat="43.359095" lon="11.4199067"><ele>228.0</ele><time>2026-04-06T11:01:16.555Z</time></trkpt><trkpt lat="43.358975" lon="11.4198517"><ele>228.0</ele><time>2026-04-06T11:01:17.535Z</time></trkpt><trkpt lat="43.358855" lon="11.4197467"><ele>228.0</ele><time>2026-04-06T11:01:18.54Z</time></trkpt><trkpt lat="43.358745" lon="11.4195917"><ele>226.0</ele><time>2026-04-06T11:01:19.537Z</time></trkpt><trkpt lat="43.35863" lon="11.41942"><ele>224.0</ele><time>2026-04-06T11:01:20.539Z</time></trkpt><trkpt lat="43.3585233" lon="11.4192367"><ele>222.0</ele><time>2026-04-06T11:01:21.536Z</time></trkpt><trkpt lat="43.3584133" lon="11.4190583"><ele>222.0</ele><time>2026-04-06T11:01:22.537Z</time></trkpt><trkpt lat="43.358305" lon="11.4188817"><ele>222.0</ele><time>2026-04-06T11:01:23.538Z</time></trkpt><trkpt lat="43.3581933" lon="11.418705"><ele>222.0</ele><time>2026-04-06T11:01:24.537Z</time></trkpt><trkpt lat="43.3580783" lon="11.4185217"><ele>221.0</ele><time>2026-04-06T11:01:25.538Z</time></trkpt><trkpt lat="43.3579617" lon="11.4183483"><ele>220.0</ele><time>2026-04-06T11:01:26.539Z</time></trkpt><trkpt lat="43.3578483" lon="11.4181733"><ele>219.0</ele><time>2026-04-06T11:01:27.536Z</time></trkpt><trkpt lat="43.3577367" lon="11.4179983"><ele>219.33333333333331</ele><time>2026-04-06T11:01:28.54Z</time></trkpt><trkpt lat="43.3576233" lon="11.4178267"><ele>219.66666666666666</ele><time>2026-04-06T11:01:29.535Z</time></trkpt><trkpt lat="43.35752" lon="11.4176583"><ele>220.0</ele><time>2026-04-06T11:01:30.537Z</time></trkpt><trkpt lat="43.357415" lon="11.4174967"><ele>220.0</ele><time>2026-04-06T11:01:31.536Z</time></trkpt><trkpt lat="43.357315" lon="11.4173383"><ele>220.0</ele><time>2026-04-06T11:01:32.535Z</time></trkpt><trkpt lat="43.3572167" lon="11.4171833"><ele>220.0</ele><time>2026-04-06T11:01:33.535Z</time></trkpt><trkpt lat="43.3571167" lon="11.4170267"><ele>219.75</ele><time>2026-04-06T11:01:34.536Z</time></trkpt><trkpt lat="43.357015" lon="11.4168717"><ele>219.5</ele><time>2026-04-06T11:01:35.541Z</time></trkpt><trkpt lat="43.3569183" lon="11.4167133"><ele>219.25</ele><time>2026-04-06T11:01:36.537Z</time></trkpt><trkpt lat="43.3568233" lon="11.416565"><ele>219.0</ele><time>2026-04-06T11:01:37.538Z</time></trkpt><trkpt lat="43.3567367" lon="11.4164267"><ele>219.39999999999998</ele><time>2026-04-06T11:01:38.538Z</time></trkpt><trkpt lat="43.35666" lon="11.4163017"><ele>219.79999999999998</ele><time>2026-04-06T11:01:39.544Z</time></trkpt><trkpt lat="43.3565933" lon="11.4161933"><ele>220.20000000000002</ele><time>2026-04-06T11:01:40.535Z</time></trkpt><trkpt lat="43.3565317" lon="11.416095"><ele>220.60000000000002</ele><time>2026-04-06T11:01:41.534Z</time></trkpt><trkpt lat="43.3564717" lon="11.4160083"><ele>221.0</ele><time>2026-04-06T11:01:42.539Z</time></trkpt><trkpt lat="43.3564067" lon="11.41593"><ele>221.20000000000002</ele><time>2026-04-06T11:01:43.542Z</time></trkpt><trkpt lat="43.3563383" lon="11.41586"><ele>221.40000000000003</ele><time>2026-04-06T11:01:44.543Z</time></trkpt><trkpt lat="43.3562417" lon="11.4158217"><ele>221.6</ele><time>2026-04-06T11:01:45.536Z</time></trkpt><trkpt lat="43.3561317" lon="11.4158217"><ele>221.8</ele><time>2026-04-06T11:01:46.536Z</time></trkpt><trkpt lat="43.3559983" lon="11.4158667"><ele>222.0</ele><time>2026-04-06T11:01:47.536Z</time></trkpt><trkpt lat="43.3558617" lon="11.4159417"><ele>222.0</ele><time>2026-04-06T11:01:48.541Z</time></trkpt><trkpt lat="43.3557317" lon="11.4160267"><ele>222.0</ele><time>2026-04-06T11:01:49.535Z</time></trkpt><trkpt lat="43.3556133" lon="11.4161117"><ele>222.0</ele><time>2026-04-06T11:01:50.536Z</time></trkpt><trkpt lat="43.3555017" lon="11.4161717"><ele>222.0</ele><time>2026-04-06T11:01:51.536Z</time></trkpt><trkpt lat="43.3553867" lon="11.4162083"><ele>223.25</ele><time>2026-04-06T11:01:52.537Z</time></trkpt><trkpt lat="43.3552667" lon="11.4162167"><ele>224.5</ele><time>2026-04-06T11:01:53.54Z</time></trkpt><trkpt lat="43.35514" lon="11.4162017"><ele>225.75</ele><time>2026-04-06T11:01:54.537Z</time></trkpt><trkpt lat="43.355005" lon="11.4161833"><ele>227.0</ele><time>2026-04-06T11:01:55.542Z</time></trkpt><trkpt lat="43.3548667" lon="11.416175"><ele>227.0</ele><time>2026-04-06T11:01:56.536Z</time></trkpt><trkpt lat="43.3547367" lon="11.4161633"><ele>227.0</ele><time>2026-04-06T11:01:57.543Z</time></trkpt><trkpt lat="43.354615" lon="11.4161467"><ele>227.0</ele><time>2026-04-06T11:01:58.539Z</time></trkpt><trkpt lat="43.3544933" lon="11.4161367"><ele>227.0</ele><time>2026-04-06T11:01:59.538Z</time></trkpt><trkpt lat="43.3543683" lon="11.416125"><ele>226.5</ele><time>2026-04-06T11:02:00.534Z</time></trkpt><trkpt lat="43.3542417" lon="11.41611"><ele>226.0</ele><time>2026-04-06T11:02:01.543Z</time></trkpt><trkpt lat="43.35411" lon="11.4160933"><ele>225.5</ele><time>2026-04-06T11:02:02.537Z</time></trkpt><trkpt lat="43.353975" lon="11.416075"><ele>225.0</ele><time>2026-04-06T11:02:03.537Z</time></trkpt><trkpt lat="43.3538417" lon="11.41606"><ele>224.5</ele><time>2026-04-06T11:02:04.541Z</time></trkpt><trkpt lat="43.3537067" lon="11.4160433"><ele>224.0</ele><time>2026-04-06T11:02:05.539Z</time></trkpt><trkpt lat="43.3535717" lon="11.4160133"><ele>223.5</ele><time>2026-04-06T11:02:06.544Z</time></trkpt><trkpt lat="43.353435" lon="11.4159767"><ele>223.0</ele><time>2026-04-06T11:02:07.546Z</time></trkpt><trkpt lat="43.3532983" lon="11.4159317"><ele>223.0</ele><time>2026-04-06T11:02:08.538Z</time></trkpt><trkpt lat="43.3531667" lon="11.41589"><ele>223.0</ele><time>2026-04-06T11:02:09.535Z</time></trkpt><trkpt lat="43.3530467" lon="11.4158583"><ele>223.0</ele><time>2026-04-06T11:02:10.542Z</time></trkpt><trkpt lat="43.352935" lon="11.4158283"><ele>223.0</ele><time>2026-04-06T11:02:11.545Z</time></trkpt><trkpt lat="43.35283" lon="11.4158"><ele>223.0</ele><time>2026-04-06T11:02:12.537Z</time></trkpt><trkpt lat="43.35273" lon="11.4157733"><ele>223.0</ele><time>2026-04-06T11:02:13.537Z</time></trkpt><trkpt lat="43.3526267" lon="11.4157433"><ele>223.0</ele><time>2026-04-06T11:02:14.534Z</time></trkpt><trkpt lat="43.3525183" lon="11.41571"><ele>223.0</ele><time>2026-04-06T11:02:15.538Z</time></trkpt><trkpt lat="43.352415" lon="11.4156817"><ele>223.0</ele><time>2026-04-06T11:02:16.536Z</time></trkpt><trkpt lat="43.35232" lon="11.4156583"><ele>222.99999999999997</ele><time>2026-04-06T11:02:17.535Z</time></trkpt><trkpt lat="43.352235" lon="11.41564"><ele>223.0</ele><time>2026-04-06T11:02:18.547Z</time></trkpt><trkpt lat="43.3521567" lon="11.4156217"><ele>223.0</ele><time>2026-04-06T11:02:19.534Z</time></trkpt><trkpt lat="43.3520817" lon="11.4156017"><ele>223.0</ele><time>2026-04-06T11:02:20.539Z</time></trkpt><trkpt lat="43.352" lon="11.41558"><ele>222.99999999999997</ele><time>2026-04-06T11:02:21.537Z</time></trkpt><trkpt lat="43.35191" lon="11.4155483"><ele>223.0</ele><time>2026-04-06T11:02:22.538Z</time></trkpt><trkpt lat="43.3518183" lon="11.4155183"><ele>222.60000000000002</ele><time>2026-04-06T11:02:23.54Z</time></trkpt><trkpt lat="43.3517317" lon="11.4154883"><ele>222.20000000000002</ele><time>2026-04-06T11:02:24.55Z</time></trkpt><trkpt lat="43.3516433" lon="11.4154617"><ele>221.8</ele><time>2026-04-06T11:02:25.535Z</time></trkpt><trkpt lat="43.3515567" lon="11.4154383"><ele>221.4</ele><time>2026-04-06T11:02:26.543Z</time></trkpt><trkpt lat="43.351465" lon="11.4154133"><ele>221.0</ele><time>2026-04-06T11:02:27.534Z</time></trkpt><trkpt lat="43.35137" lon="11.4153883"><ele>220.75</ele><time>2026-04-06T11:02:28.534Z</time></trkpt><trkpt lat="43.3512767" lon="11.415365"><ele>220.5</ele><time>2026-04-06T11:02:29.533Z</time></trkpt><trkpt lat="43.3511817" lon="11.4153383"><ele>220.25</ele><time>2026-04-06T11:02:30.534Z</time></trkpt><trkpt lat="43.3510833" lon="11.4153117"><ele>220.0</ele><time>2026-04-06T11:02:31.534Z</time></trkpt><trkpt lat="43.3508917" lon="11.41525"><ele>220.0</ele><time>2026-04-06T11:02:33.537Z</time></trkpt><trkpt lat="43.3508" lon="11.4152233"><ele>220.0</ele><time>2026-04-06T11:02:34.534Z</time></trkpt><trkpt lat="43.3507" lon="11.4151967"><ele>220.0</ele><time>2026-04-06T11:02:35.547Z</time></trkpt><trkpt lat="43.3505933" lon="11.41516"><ele>220.0</ele><time>2026-04-06T11:02:36.536Z</time></trkpt><trkpt lat="43.350485" lon="11.4151267"><ele>220.0</ele><time>2026-04-06T11:02:37.542Z</time></trkpt><trkpt lat="43.3503767" lon="11.415095"><ele>221.5</ele><time>2026-04-06T11:02:38.536Z</time></trkpt><trkpt lat="43.3502617" lon="11.415045"><ele>223.0</ele><time>2026-04-06T11:02:39.536Z</time></trkpt><trkpt lat="43.3501517" lon="11.4149633"><ele>224.5</ele><time>2026-04-06T11:02:40.534Z</time></trkpt><trkpt lat="43.3500533" lon="11.4148517"><ele>226.0</ele><time>2026-04-06T11:02:41.535Z</time></trkpt><trkpt lat="43.3499583" lon="11.41472"><ele>226.25</ele><time>2026-04-06T11:02:42.546Z</time></trkpt><trkpt lat="43.3498717" lon="11.414565"><ele>226.5</ele><time>2026-04-06T11:02:43.535Z</time></trkpt><trkpt lat="43.34978" lon="11.4144"><ele>226.75</ele><time>2026-04-06T11:02:44.539Z</time></trkpt><trkpt lat="43.349685" lon="11.4142333"><ele>227.0</ele><time>2026-04-06T11:02:45.54Z</time></trkpt><trkpt lat="43.3496" lon="11.414065"><ele>227.0</ele><time>2026-04-06T11:02:46.536Z</time></trkpt><trkpt lat="43.349525" lon="11.41389"><ele>227.0</ele><time>2026-04-06T11:02:47.536Z</time></trkpt><trkpt lat="43.34946" lon="11.413705"><ele>227.0</ele><time>2026-04-06T11:02:48.534Z</time></trkpt><trkpt lat="43.3493983" lon="11.4135117"><ele>227.0</ele><time>2026-04-06T11:02:49.533Z</time></trkpt><trkpt lat="43.3493217" lon="11.4133283"><ele>227.0</ele><time>2026-04-06T11:02:50.534Z</time></trkpt><trkpt lat="43.3492267" lon="11.4131533"><ele>227.0</ele><time>2026-04-06T11:02:51.535Z</time></trkpt><trkpt lat="43.349115" lon="11.4129833"><ele>226.33333333333334</ele><time>2026-04-06T11:02:52.537Z</time></trkpt><trkpt lat="43.3490017" lon="11.41281"><ele>225.66666666666669</ele><time>2026-04-06T11:02:53.534Z</time></trkpt><trkpt lat="43.3488933" lon="11.4126417"><ele>225.0</ele><time>2026-04-06T11:02:54.533Z</time></trkpt><trkpt lat="43.3487983" lon="11.4124617"><ele>227.33333333333331</ele><time>2026-04-06T11:02:55.542Z</time></trkpt><trkpt lat="43.348715" lon="11.4122683"><ele>229.66666666666666</ele><time>2026-04-06T11:02:56.536Z</time></trkpt><trkpt lat="43.348645" lon="11.4120633"><ele>232.0</ele><time>2026-04-06T11:02:57.54Z</time></trkpt><trkpt lat="43.3485933" lon="11.4118433"><ele>232.0</ele><time>2026-04-06T11:02:58.535Z</time></trkpt><trkpt lat="43.3485617" lon="11.4116217"><ele>232.0</ele><time>2026-04-06T11:02:59.537Z</time></trkpt><trkpt lat="43.3485417" lon="11.4114"><ele>232.0</ele><time>2026-04-06T11:03:00.537Z</time></trkpt><trkpt lat="43.3485217" lon="11.4111783"><ele>234.0</ele><time>2026-04-06T11:03:01.534Z</time></trkpt><trkpt lat="43.3484983" lon="11.4109533"><ele>236.0</ele><time>2026-04-06T11:03:02.537Z</time></trkpt><trkpt lat="43.3484667" lon="11.4107267"><ele>238.0</ele><time>2026-04-06T11:03:03.542Z</time></trkpt><trkpt lat="43.3484267" lon="11.4104983"><ele>238.66666666666666</ele><time>2026-04-06T11:03:04.536Z</time></trkpt><trkpt lat="43.3483767" lon="11.410275"><ele>239.33333333333331</ele><time>2026-04-06T11:03:05.535Z</time></trkpt><trkpt lat="43.348315" lon="11.4100567"><ele>240.0</ele><time>2026-04-06T11:03:06.543Z</time></trkpt><trkpt lat="43.3482567" lon="11.4098333"><ele>240.0</ele><time>2026-04-06T11:03:07.534Z</time></trkpt><trkpt lat="43.348195" lon="11.40961"><ele>240.0</ele><time>2026-04-06T11:03:08.541Z</time></trkpt><trkpt lat="43.3481383" lon="11.4093917"><ele>240.0</ele><time>2026-04-06T11:03:09.538Z</time></trkpt><trkpt lat="43.3480883" lon="11.409175"><ele>240.0</ele><time>2026-04-06T11:03:10.537Z</time></trkpt><trkpt lat="43.3480533" lon="11.4089617"><ele>240.0</ele><time>2026-04-06T11:03:11.54Z</time></trkpt><trkpt lat="43.3480333" lon="11.4087417"><ele>240.0</ele><time>2026-04-06T11:03:12.534Z</time></trkpt><trkpt lat="43.3480233" lon="11.40852"><ele>248.0</ele><time>2026-04-06T11:03:13.533Z</time></trkpt><trkpt lat="43.3480167" lon="11.408295"><ele>256.0</ele><time>2026-04-06T11:03:14.557Z</time></trkpt><trkpt lat="43.3480133" lon="11.408075"><ele>264.0</ele><time>2026-04-06T11:03:15.541Z</time></trkpt><trkpt lat="43.3480133" lon="11.40785"><ele>266.0</ele><time>2026-04-06T11:03:16.533Z</time></trkpt><trkpt lat="43.3480233" lon="11.4076217"><ele>268.0</ele><time>2026-04-06T11:03:17.537Z</time></trkpt><trkpt lat="43.348035" lon="11.407395"><ele>270.0</ele><time>2026-04-06T11:03:18.533Z</time></trkpt><trkpt lat="43.3480467" lon="11.4071733"><ele>263.0</ele><time>2026-04-06T11:03:19.538Z</time></trkpt><trkpt lat="43.3480633" lon="11.4069533"><ele>256.0</ele><time>2026-04-06T11:03:20.533Z</time></trkpt><trkpt lat="43.348085" lon="11.4067317"><ele>249.0</ele><time>2026-04-06T11:03:21.537Z</time></trkpt><trkpt lat="43.3481117" lon="11.4065117"><ele>251.33333333333331</ele><time>2026-04-06T11:03:22.534Z</time></trkpt><trkpt lat="43.34815" lon="11.4062983"><ele>253.66666666666666</ele><time>2026-04-06T11:03:23.544Z</time></trkpt><trkpt lat="43.3482067" lon="11.406085"><ele>256.0</ele><time>2026-04-06T11:03:24.533Z</time></trkpt><trkpt lat="43.3482717" lon="11.40588"><ele>256.0</ele><time>2026-04-06T11:03:25.536Z</time></trkpt><trkpt lat="43.3483333" lon="11.4056683"><ele>256.0</ele><time>2026-04-06T11:03:26.539Z</time></trkpt><trkpt lat="43.3483833" lon="11.4054567"><ele>256.0</ele><time>2026-04-06T11:03:27.536Z</time></trkpt><trkpt lat="43.34842" lon="11.40524"><ele>259.66666666666663</ele><time>2026-04-06T11:03:28.534Z</time></trkpt><trkpt lat="43.3484533" lon="11.405025"><ele>263.3333333333333</ele><time>2026-04-06T11:03:29.535Z</time></trkpt><trkpt lat="43.348475" lon="11.4047933"><ele>267.0</ele><time>2026-04-06T11:03:30.538Z</time></trkpt><trkpt lat="43.3485117" lon="11.4045767"><ele>267.6666666666667</ele><time>2026-04-06T11:03:31.542Z</time></trkpt><trkpt lat="43.3485717" lon="11.4043783"><ele>268.33333333333337</ele><time>2026-04-06T11:03:32.542Z</time></trkpt><trkpt lat="43.34865" lon="11.4041917"><ele>269.0</ele><time>2026-04-06T11:03:33.537Z</time></trkpt><trkpt lat="43.3487433" lon="11.404025"><ele>269.0</ele><time>2026-04-06T11:03:34.538Z</time></trkpt><trkpt lat="43.34885" lon="11.4038633"><ele>269.0</ele><time>2026-04-06T11:03:35.541Z</time></trkpt><trkpt lat="43.3489483" lon="11.403695"><ele>269.0</ele><time>2026-04-06T11:03:36.535Z</time></trkpt><trkpt lat="43.3490267" lon="11.4035217"><ele>269.75</ele><time>2026-04-06T11:03:37.538Z</time></trkpt><trkpt lat="43.3490817" lon="11.4033333"><ele>270.5</ele><time>2026-04-06T11:03:38.533Z</time></trkpt><trkpt lat="43.34912" lon="11.4031367"><ele>271.25</ele><time>2026-04-06T11:03:39.536Z</time></trkpt><trkpt lat="43.3491467" lon="11.40294"><ele>272.0</ele><time>2026-04-06T11:03:40.537Z</time></trkpt><trkpt lat="43.3491617" lon="11.4027417"><ele>273.75</ele><time>2026-04-06T11:03:41.536Z</time></trkpt><trkpt lat="43.3491817" lon="11.4025383"><ele>275.5</ele><time>2026-04-06T11:03:42.543Z</time></trkpt><trkpt lat="43.349195" lon="11.4023533"><ele>277.25</ele><time>2026-04-06T11:03:43.533Z</time></trkpt><trkpt lat="43.3492083" lon="11.4021733"><ele>279.0</ele><time>2026-04-06T11:03:44.54Z</time></trkpt><trkpt lat="43.3492333" lon="11.4020017"><ele>281.0</ele><time>2026-04-06T11:03:45.533Z</time></trkpt><trkpt lat="43.349275" lon="11.4018417"><ele>283.0</ele><time>2026-04-06T11:03:46.539Z</time></trkpt><trkpt lat="43.3493433" lon="11.40169"><ele>285.0</ele><time>2026-04-06T11:03:47.538Z</time></trkpt><trkpt lat="43.3494217" lon="11.40158"><ele>287.0</ele><time>2026-04-06T11:03:48.539Z</time></trkpt><trkpt lat="43.349525" lon="11.4015183"><ele>287.0</ele><time>2026-04-06T11:03:49.535Z</time></trkpt><trkpt lat="43.349645" lon="11.401505"><ele>287.0</ele><time>2026-04-06T11:03:50.543Z</time></trkpt><trkpt lat="43.3497567" lon="11.40154"><ele>287.0</ele><time>2026-04-06T11:03:51.535Z</time></trkpt><trkpt lat="43.3498583" lon="11.4016"><ele>287.0</ele><time>2026-04-06T11:03:52.534Z</time></trkpt><trkpt lat="43.3499467" lon="11.4016467"><ele>287.0</ele><time>2026-04-06T11:03:53.536Z</time></trkpt><trkpt lat="43.3500333" lon="11.4016467"><ele>286.0</ele><time>2026-04-06T11:03:54.555Z</time></trkpt><trkpt lat="43.350115" lon="11.4016217"><ele>285.0</ele><time>2026-04-06T11:03:55.54Z</time></trkpt><trkpt lat="43.3501833" lon="11.4015267"><ele>284.0</ele><time>2026-04-06T11:03:56.534Z</time></trkpt><trkpt lat="43.35022" lon="11.4014083"><ele>283.0</ele><time>2026-04-06T11:03:57.533Z</time></trkpt><trkpt lat="43.350215" lon="11.40128"><ele>282.0</ele><time>2026-04-06T11:03:58.536Z</time></trkpt><trkpt lat="43.350185" lon="11.401155"><ele>284.0</ele><time>2026-04-06T11:03:59.536Z</time></trkpt><trkpt lat="43.3501183" lon="11.401045"><ele>286.0</ele><time>2026-04-06T11:04:00.533Z</time></trkpt><trkpt lat="43.3500517" lon="11.4009417"><ele>288.0</ele><time>2026-04-06T11:04:01.533Z</time></trkpt><trkpt lat="43.34998" lon="11.4008383"><ele>290.0</ele><time>2026-04-06T11:04:02.538Z</time></trkpt><trkpt lat="43.3498983" lon="11.4007433"><ele>292.0</ele><time>2026-04-06T11:04:03.541Z</time></trkpt><trkpt lat="43.3498017" lon="11.4006767"><ele>292.5</ele><time>2026-04-06T11:04:04.538Z</time></trkpt><trkpt lat="43.3496933" lon="11.400625"><ele>293.0</ele><time>2026-04-06T11:04:05.541Z</time></trkpt><trkpt lat="43.3495717" lon="11.4006183"><ele>293.5</ele><time>2026-04-06T11:04:06.538Z</time></trkpt><trkpt lat="43.34944" lon="11.4006483"><ele>294.0</ele><time>2026-04-06T11:04:07.532Z</time></trkpt><trkpt lat="43.3493117" lon="11.4007033"><ele>294.0</ele><time>2026-04-06T11:04:08.538Z</time></trkpt><trkpt lat="43.349195" lon="11.4007633"><ele>294.0</ele><time>2026-04-06T11:04:09.533Z</time></trkpt><trkpt lat="43.349085" lon="11.400825"><ele>294.0</ele><time>2026-04-06T11:04:10.534Z</time></trkpt><trkpt lat="43.3489783" lon="11.4008917"><ele>294.0</ele><time>2026-04-06T11:04:11.533Z</time></trkpt><trkpt lat="43.34888" lon="11.4009567"><ele>295.2</ele><time>2026-04-06T11:04:12.533Z</time></trkpt><trkpt lat="43.3487883" lon="11.4010033"><ele>296.4</ele><time>2026-04-06T11:04:13.538Z</time></trkpt><trkpt lat="43.3487017" lon="11.4010283"><ele>297.6</ele><time>2026-04-06T11:04:14.536Z</time></trkpt><trkpt lat="43.348615" lon="11.4010167"><ele>298.8</ele><time>2026-04-06T11:04:15.543Z</time></trkpt><trkpt lat="43.3485333" lon="11.40097"><ele>300.0</ele><time>2026-04-06T11:04:16.531Z</time></trkpt><trkpt lat="43.3484533" lon="11.400885"><ele>300.0</ele><time>2026-04-06T11:04:17.542Z</time></trkpt><trkpt lat="43.34837" lon="11.400785"><ele>300.0</ele><time>2026-04-06T11:04:18.533Z</time></trkpt><trkpt lat="43.34828" lon="11.40068"><ele>300.0</ele><time>2026-04-06T11:04:19.541Z</time></trkpt><trkpt lat="43.3481883" lon="11.40058"><ele>300.0</ele><time>2026-04-06T11:04:20.538Z</time></trkpt><trkpt lat="43.348095" lon="11.4004883"><ele>301.4</ele><time>2026-04-06T11:04:21.535Z</time></trkpt><trkpt lat="43.3479983" lon="11.4004083"><ele>302.8</ele><time>2026-04-06T11:04:22.537Z</time></trkpt><trkpt lat="43.3479033" lon="11.40034"><ele>304.2</ele><time>2026-04-06T11:04:23.537Z</time></trkpt><trkpt lat="43.347805" lon="11.40028"><ele>305.6</ele><time>2026-04-06T11:04:24.535Z</time></trkpt><trkpt lat="43.34771" lon="11.4002233"><ele>307.0</ele><time>2026-04-06T11:04:25.534Z</time></trkpt><trkpt lat="43.3476233" lon="11.4001617"><ele>307.0</ele><time>2026-04-06T11:04:26.535Z</time></trkpt><trkpt lat="43.347545" lon="11.40008"><ele>307.0</ele><time>2026-04-06T11:04:27.539Z</time></trkpt><trkpt lat="43.34748" lon="11.3999817"><ele>307.0</ele><time>2026-04-06T11:04:28.548Z</time></trkpt><trkpt lat="43.34744" lon="11.3998667"><ele>307.0</ele><time>2026-04-06T11:04:29.546Z</time></trkpt><trkpt lat="43.3474167" lon="11.399745"><ele>307.0</ele><time>2026-04-06T11:04:30.535Z</time></trkpt><trkpt lat="43.3474133" lon="11.3996283"><ele>307.16666666666663</ele><time>2026-04-06T11:04:31.534Z</time></trkpt><trkpt lat="43.34745" lon="11.399515"><ele>307.3333333333333</ele><time>2026-04-06T11:04:32.536Z</time></trkpt><trkpt lat="43.3475017" lon="11.39942"><ele>307.5</ele><time>2026-04-06T11:04:33.536Z</time></trkpt><trkpt lat="43.34756" lon="11.3993383"><ele>307.6666666666667</ele><time>2026-04-06T11:04:34.54Z</time></trkpt><trkpt lat="43.347635" lon="11.39927"><ele>307.83333333333337</ele><time>2026-04-06T11:04:35.54Z</time></trkpt><trkpt lat="43.3477167" lon="11.39921"><ele>308.0</ele><time>2026-04-06T11:04:36.535Z</time></trkpt><trkpt lat="43.3478" lon="11.399155"><ele>308.0</ele><time>2026-04-06T11:04:37.54Z</time></trkpt><trkpt lat="43.3478883" lon="11.3991083"><ele>308.0</ele><time>2026-04-06T11:04:38.548Z</time></trkpt><trkpt lat="43.3479867" lon="11.3990717"><ele>308.0</ele><time>2026-04-06T11:04:39.539Z</time></trkpt><trkpt lat="43.3480817" lon="11.399045"><ele>308.0</ele><time>2026-04-06T11:04:40.536Z</time></trkpt><trkpt lat="43.3481733" lon="11.3990167"><ele>308.0</ele><time>2026-04-06T11:04:41.535Z</time></trkpt><trkpt lat="43.3482567" lon="11.398995"><ele>308.33333333333337</ele><time>2026-04-06T11:04:42.538Z</time></trkpt><trkpt lat="43.348335" lon="11.3989833"><ele>308.6666666666667</ele><time>2026-04-06T11:04:43.533Z</time></trkpt><trkpt lat="43.3484217" lon="11.3989367"><ele>309.0</ele><time>2026-04-06T11:04:45.535Z</time></trkpt><trkpt lat="43.34841" lon="11.39879"><ele>309.3333333333333</ele><time>2026-04-06T11:04:48.535Z</time></trkpt><trkpt lat="43.3483717" lon="11.39872"><ele>309.66666666666663</ele><time>2026-04-06T11:04:49.534Z</time></trkpt><trkpt lat="43.3483217" lon="11.3986433"><ele>310.0</ele><time>2026-04-06T11:04:50.535Z</time></trkpt><trkpt lat="43.3482633" lon="11.39858"><ele>309.0</ele><time>2026-04-06T11:04:51.534Z</time></trkpt><trkpt lat="43.3482" lon="11.39853"><ele>308.0</ele><time>2026-04-06T11:04:52.535Z</time></trkpt><trkpt lat="43.348135" lon="11.3984933"><ele>307.0</ele><time>2026-04-06T11:04:53.54Z</time></trkpt><trkpt lat="43.3480433" lon="11.39851"><ele>306.0</ele><time>2026-04-06T11:04:54.533Z</time></trkpt><trkpt lat="43.347945" lon="11.3985417"><ele>305.0</ele><time>2026-04-06T11:04:55.531Z</time></trkpt><trkpt lat="43.34783" lon="11.39859"><ele>303.5</ele><time>2026-04-06T11:04:56.536Z</time></trkpt><trkpt lat="43.3477167" lon="11.3986283"><ele>302.0</ele><time>2026-04-06T11:04:57.533Z</time></trkpt><trkpt lat="43.3475967" lon="11.3986633"><ele>300.5</ele><time>2026-04-06T11:04:58.545Z</time></trkpt><trkpt lat="43.3474783" lon="11.3986917"><ele>299.0</ele><time>2026-04-06T11:04:59.543Z</time></trkpt><trkpt lat="43.347365" lon="11.39871"><ele>299.0</ele><time>2026-04-06T11:05:00.535Z</time></trkpt><trkpt lat="43.3472583" lon="11.3987317"><ele>299.0</ele><time>2026-04-06T11:05:01.533Z</time></trkpt><trkpt lat="43.347155" lon="11.3987567"><ele>299.0</ele><time>2026-04-06T11:05:02.534Z</time></trkpt><trkpt lat="43.3470617" lon="11.3987667"><ele>299.0</ele><time>2026-04-06T11:05:03.535Z</time></trkpt><trkpt lat="43.3469717" lon="11.39879"><ele>299.0</ele><time>2026-04-06T11:05:04.544Z</time></trkpt><trkpt lat="43.3468867" lon="11.3988367"><ele>299.59999999999997</ele><time>2026-04-06T11:05:05.538Z</time></trkpt><trkpt lat="43.3468" lon="11.3989067"><ele>300.2</ele><time>2026-04-06T11:05:06.535Z</time></trkpt><trkpt lat="43.346715" lon="11.399"><ele>300.79999999999995</ele><time>2026-04-06T11:05:07.537Z</time></trkpt><trkpt lat="43.3466317" lon="11.399115"><ele>301.4</ele><time>2026-04-06T11:05:08.54Z</time></trkpt><trkpt lat="43.3465517" lon="11.3992333"><ele>302.0</ele><time>2026-04-06T11:05:09.533Z</time></trkpt><trkpt lat="43.3464783" lon="11.399345"><ele>302.0</ele><time>2026-04-06T11:05:10.535Z</time></trkpt><trkpt lat="43.3464083" lon="11.3994583"><ele>302.0</ele><time>2026-04-06T11:05:11.535Z</time></trkpt><trkpt lat="43.3463417" lon="11.3995733"><ele>302.0</ele><time>2026-04-06T11:05:12.536Z</time></trkpt><trkpt lat="43.346275" lon="11.3996867"><ele>302.0</ele><time>2026-04-06T11:05:13.535Z</time></trkpt><trkpt lat="43.3462083" lon="11.399795"><ele>302.0</ele><time>2026-04-06T11:05:14.537Z</time></trkpt><trkpt lat="43.346145" lon="11.3999"><ele>301.5</ele><time>2026-04-06T11:05:15.533Z</time></trkpt><trkpt lat="43.346085" lon="11.3999967"><ele>301.0</ele><time>2026-04-06T11:05:16.536Z</time></trkpt><trkpt lat="43.34603" lon="11.4000817"><ele>300.5</ele><time>2026-04-06T11:05:17.534Z</time></trkpt><trkpt lat="43.34598" lon="11.40016"><ele>300.0</ele><time>2026-04-06T11:05:18.537Z</time></trkpt><trkpt lat="43.3459267" lon="11.4002367"><ele>299.5</ele><time>2026-04-06T11:05:19.537Z</time></trkpt><trkpt lat="43.3458783" lon="11.4003217"><ele>299.0</ele><time>2026-04-06T11:05:20.548Z</time></trkpt><trkpt lat="43.3458233" lon="11.40041"><ele>299.0</ele><time>2026-04-06T11:05:21.536Z</time></trkpt><trkpt lat="43.3457667" lon="11.4005"><ele>299.0</ele><time>2026-04-06T11:05:22.533Z</time></trkpt><trkpt lat="43.345715" lon="11.40059"><ele>299.0</ele><time>2026-04-06T11:05:23.537Z</time></trkpt><trkpt lat="43.34566" lon="11.4006667"><ele>299.0</ele><time>2026-04-06T11:05:24.535Z</time></trkpt><trkpt lat="43.3456117" lon="11.4007433"><ele>299.0</ele><time>2026-04-06T11:05:25.532Z</time></trkpt><trkpt lat="43.3455667" lon="11.4008167"><ele>299.0</ele><time>2026-04-06T11:05:26.539Z</time></trkpt><trkpt lat="43.345485" lon="11.400935"><ele>299.0</ele><time>2026-04-06T11:05:28.538Z</time></trkpt><trkpt lat="43.3454383" lon="11.4009933"><ele>299.0</ele><time>2026-04-06T11:05:29.545Z</time></trkpt><trkpt lat="43.3453817" lon="11.401045"><ele>299.0</ele><time>2026-04-06T11:05:30.539Z</time></trkpt><trkpt lat="43.3453133" lon="11.4010917"><ele>299.0</ele><time>2026-04-06T11:05:31.536Z</time></trkpt><trkpt lat="43.3452383" lon="11.401135"><ele>299.0</ele><time>2026-04-06T11:05:32.535Z</time></trkpt><trkpt lat="43.34515" lon="11.401175"><ele>299.0</ele><time>2026-04-06T11:05:33.535Z</time></trkpt><trkpt lat="43.345065" lon="11.40121"><ele>299.0</ele><time>2026-04-06T11:05:34.537Z</time></trkpt><trkpt lat="43.3449767" lon="11.4012433"><ele>299.0</ele><time>2026-04-06T11:05:35.538Z</time></trkpt><trkpt lat="43.34488" lon="11.4012817"><ele>299.0</ele><time>2026-04-06T11:05:36.539Z</time></trkpt><trkpt lat="43.34479" lon="11.4013083"><ele>299.0</ele><time>2026-04-06T11:05:37.54Z</time></trkpt><trkpt lat="43.3447" lon="11.401335"><ele>299.0</ele><time>2026-04-06T11:05:38.534Z</time></trkpt><trkpt lat="43.3446067" lon="11.4013533"><ele>297.8</ele><time>2026-04-06T11:05:39.533Z</time></trkpt><trkpt lat="43.344505" lon="11.4013583"><ele>296.59999999999997</ele><time>2026-04-06T11:05:40.536Z</time></trkpt><trkpt lat="43.344405" lon="11.40135"><ele>295.4</ele><time>2026-04-06T11:05:41.54Z</time></trkpt><trkpt lat="43.3443117" lon="11.401345"><ele>294.2</ele><time>2026-04-06T11:05:42.539Z</time></trkpt><trkpt lat="43.344225" lon="11.4013367"><ele>293.0</ele><time>2026-04-06T11:05:43.534Z</time></trkpt><trkpt lat="43.3441367" lon="11.4013467"><ele>293.0</ele><time>2026-04-06T11:05:44.536Z</time></trkpt><trkpt lat="43.3440467" lon="11.401365"><ele>293.0</ele><time>2026-04-06T11:05:45.533Z</time></trkpt><trkpt lat="43.3439417" lon="11.4014033"><ele>293.0</ele><time>2026-04-06T11:05:46.537Z</time></trkpt><trkpt lat="43.3438317" lon="11.4014583"><ele>293.0</ele><time>2026-04-06T11:05:47.536Z</time></trkpt><trkpt lat="43.3437333" lon="11.4015133"><ele>293.0</ele><time>2026-04-06T11:05:48.535Z</time></trkpt><trkpt lat="43.3436433" lon="11.401565"><ele>292.83333333333337</ele><time>2026-04-06T11:05:49.534Z</time></trkpt><trkpt lat="43.3435583" lon="11.40162"><ele>292.6666666666667</ele><time>2026-04-06T11:05:50.538Z</time></trkpt><trkpt lat="43.3434783" lon="11.40167"><ele>292.5</ele><time>2026-04-06T11:05:51.536Z</time></trkpt><trkpt lat="43.3434033" lon="11.4017367"><ele>292.3333333333333</ele><time>2026-04-06T11:05:52.54Z</time></trkpt><trkpt lat="43.3433367" lon="11.4018017"><ele>292.16666666666663</ele><time>2026-04-06T11:05:53.537Z</time></trkpt><trkpt lat="43.3432783" lon="11.4018683"><ele>292.0</ele><time>2026-04-06T11:05:54.534Z</time></trkpt><trkpt lat="43.3432283" lon="11.4019483"><ele>292.0</ele><time>2026-04-06T11:05:55.532Z</time></trkpt><trkpt lat="43.3431883" lon="11.4020383"><ele>292.0</ele><time>2026-04-06T11:05:56.536Z</time></trkpt><trkpt lat="43.343155" lon="11.4021383"><ele>292.0</ele><time>2026-04-06T11:05:57.536Z</time></trkpt><trkpt lat="43.3431233" lon="11.402245"><ele>292.0</ele><time>2026-04-06T11:05:58.537Z</time></trkpt><trkpt lat="43.3430967" lon="11.40236"><ele>292.0</ele><time>2026-04-06T11:05:59.532Z</time></trkpt><trkpt lat="43.3430767" lon="11.4024733"><ele>292.0</ele><time>2026-04-06T11:06:00.538Z</time></trkpt><trkpt lat="43.3430617" lon="11.4025867"><ele>291.4</ele><time>2026-04-06T11:06:01.534Z</time></trkpt><trkpt lat="43.3430583" lon="11.402715"><ele>290.79999999999995</ele><time>2026-04-06T11:06:02.538Z</time></trkpt><trkpt lat="43.34305" lon="11.4028417"><ele>290.2</ele><time>2026-04-06T11:06:03.545Z</time></trkpt><trkpt lat="43.3430333" lon="11.4029667"><ele>289.59999999999997</ele><time>2026-04-06T11:06:04.539Z</time></trkpt><trkpt lat="43.3430017" lon="11.4030883"><ele>289.0</ele><time>2026-04-06T11:06:05.534Z</time></trkpt><trkpt lat="43.342945" lon="11.4031883"><ele>289.0</ele><time>2026-04-06T11:06:06.534Z</time></trkpt><trkpt lat="43.342875" lon="11.4032617"><ele>289.0</ele><time>2026-04-06T11:06:07.534Z</time></trkpt><trkpt lat="43.3427933" lon="11.4033083"><ele>289.0</ele><time>2026-04-06T11:06:08.54Z</time></trkpt><trkpt lat="43.34269" lon="11.4033317"><ele>289.0</ele><time>2026-04-06T11:06:09.535Z</time></trkpt><trkpt lat="43.3425933" lon="11.4033483"><ele>289.0</ele><time>2026-04-06T11:06:10.535Z</time></trkpt><trkpt lat="43.3424983" lon="11.403355"><ele>289.0</ele><time>2026-04-06T11:06:11.535Z</time></trkpt><trkpt lat="43.3424017" lon="11.403395"><ele>289.0</ele><time>2026-04-06T11:06:12.535Z</time></trkpt><trkpt lat="43.34231" lon="11.403475"><ele>289.0</ele><time>2026-04-06T11:06:13.536Z</time></trkpt><trkpt lat="43.3422233" lon="11.403555"><ele>289.0</ele><time>2026-04-06T11:06:14.536Z</time></trkpt><trkpt lat="43.3421433" lon="11.40365"><ele>289.0</ele><time>2026-04-06T11:06:15.535Z</time></trkpt><trkpt lat="43.342065" lon="11.4037433"><ele>288.0</ele><time>2026-04-06T11:06:16.536Z</time></trkpt><trkpt lat="43.341985" lon="11.40383"><ele>287.0</ele><time>2026-04-06T11:06:17.535Z</time></trkpt><trkpt lat="43.341905" lon="11.4039083"><ele>286.0</ele><time>2026-04-06T11:06:18.534Z</time></trkpt><trkpt lat="43.3418283" lon="11.40399"><ele>285.0</ele><time>2026-04-06T11:06:19.535Z</time></trkpt><trkpt lat="43.3417483" lon="11.4040717"><ele>284.0</ele><time>2026-04-06T11:06:20.545Z</time></trkpt><trkpt lat="43.3416633" lon="11.40416"><ele>284.0</ele><time>2026-04-06T11:06:21.535Z</time></trkpt><trkpt lat="43.3415817" lon="11.404245"><ele>284.0</ele><time>2026-04-06T11:06:22.537Z</time></trkpt><trkpt lat="43.3415033" lon="11.4043267"><ele>284.0</ele><time>2026-04-06T11:06:23.533Z</time></trkpt><trkpt lat="43.3414317" lon="11.40441"><ele>284.0</ele><time>2026-04-06T11:06:24.537Z</time></trkpt><trkpt lat="43.3413617" lon="11.4045067"><ele>284.0</ele><time>2026-04-06T11:06:25.539Z</time></trkpt><trkpt lat="43.3413" lon="11.404615"><ele>285.2</ele><time>2026-04-06T11:06:26.542Z</time></trkpt><trkpt lat="43.3412383" lon="11.4047283"><ele>286.4</ele><time>2026-04-06T11:06:27.541Z</time></trkpt><trkpt lat="43.3411717" lon="11.40484"><ele>287.6</ele><time>2026-04-06T11:06:28.537Z</time></trkpt><trkpt lat="43.341105" lon="11.4049417"><ele>288.8</ele><time>2026-04-06T11:06:29.534Z</time></trkpt><trkpt lat="43.3410467" lon="11.4050367"><ele>290.0</ele><time>2026-04-06T11:06:30.534Z</time></trkpt><trkpt lat="43.3409817" lon="11.4051183"><ele>290.0</ele><time>2026-04-06T11:06:31.537Z</time></trkpt><trkpt lat="43.3409167" lon="11.4051983"><ele>290.0</ele><time>2026-04-06T11:06:32.537Z</time></trkpt><trkpt lat="43.3408383" lon="11.405265"><ele>290.0</ele><time>2026-04-06T11:06:33.537Z</time></trkpt><trkpt lat="43.3407533" lon="11.4053333"><ele>290.0</ele><time>2026-04-06T11:06:34.535Z</time></trkpt><trkpt lat="43.3406533" lon="11.405395"><ele>290.0</ele><time>2026-04-06T11:06:35.539Z</time></trkpt><trkpt lat="43.34055" lon="11.4054683"><ele>290.0</ele><time>2026-04-06T11:06:36.535Z</time></trkpt><trkpt lat="43.3404417" lon="11.4055433"><ele>290.0</ele><time>2026-04-06T11:06:37.535Z</time></trkpt><trkpt lat="43.3403367" lon="11.40561"><ele>290.0</ele><time>2026-04-06T11:06:38.544Z</time></trkpt><trkpt lat="43.34023" lon="11.405675"><ele>290.0</ele><time>2026-04-06T11:06:39.541Z</time></trkpt><trkpt lat="43.3401317" lon="11.40574"><ele>290.0</ele><time>2026-04-06T11:06:40.54Z</time></trkpt><trkpt lat="43.3400383" lon="11.4058017"><ele>290.0</ele><time>2026-04-06T11:06:41.537Z</time></trkpt><trkpt lat="43.3399517" lon="11.4058567"><ele>290.0</ele><time>2026-04-06T11:06:42.534Z</time></trkpt><trkpt lat="43.3398767" lon="11.405905"><ele>290.0</ele><time>2026-04-06T11:06:43.546Z</time></trkpt><trkpt lat="43.3398067" lon="11.4059517"><ele>290.0</ele><time>2026-04-06T11:06:44.543Z</time></trkpt><trkpt lat="43.3397383" lon="11.406"><ele>290.0</ele><time>2026-04-06T11:06:45.535Z</time></trkpt><trkpt lat="43.3396767" lon="11.40605"><ele>289.5</ele><time>2026-04-06T11:06:46.532Z</time></trkpt><trkpt lat="43.3396217" lon="11.4061083"><ele>289.0</ele><time>2026-04-06T11:06:47.535Z</time></trkpt><trkpt lat="43.3395733" lon="11.40618"><ele>288.5</ele><time>2026-04-06T11:06:48.533Z</time></trkpt><trkpt lat="43.3395317" lon="11.4062633"><ele>288.0</ele><time>2026-04-06T11:06:49.532Z</time></trkpt><trkpt lat="43.33949" lon="11.406365"><ele>287.5</ele><time>2026-04-06T11:06:50.536Z</time></trkpt><trkpt lat="43.3394467" lon="11.4064783"><ele>287.0</ele><time>2026-04-06T11:06:51.538Z</time></trkpt><trkpt lat="43.3393867" lon="11.4065883"><ele>287.0</ele><time>2026-04-06T11:06:52.536Z</time></trkpt><trkpt lat="43.3393183" lon="11.40669"><ele>287.0</ele><time>2026-04-06T11:06:53.538Z</time></trkpt><trkpt lat="43.3392383" lon="11.40679"><ele>287.0</ele><time>2026-04-06T11:06:54.537Z</time></trkpt><trkpt lat="43.339155" lon="11.4068967"><ele>287.0</ele><time>2026-04-06T11:06:55.538Z</time></trkpt><trkpt lat="43.33907" lon="11.4070067"><ele>287.0</ele><time>2026-04-06T11:06:56.535Z</time></trkpt><trkpt lat="43.338985" lon="11.40712"><ele>287.0</ele><time>2026-04-06T11:06:57.539Z</time></trkpt><trkpt lat="43.3389033" lon="11.40722"><ele>287.0</ele><time>2026-04-06T11:06:58.533Z</time></trkpt><trkpt lat="43.3388267" lon="11.4073183"><ele>287.0</ele><time>2026-04-06T11:06:59.54Z</time></trkpt><trkpt lat="43.3387483" lon="11.4074117"><ele>287.0</ele><time>2026-04-06T11:07:00.546Z</time></trkpt><trkpt lat="43.3386717" lon="11.40749"><ele>287.0</ele><time>2026-04-06T11:07:01.535Z</time></trkpt><trkpt lat="43.33859" lon="11.407565"><ele>287.33333333333337</ele><time>2026-04-06T11:07:02.546Z</time></trkpt><trkpt lat="43.33851" lon="11.4076283"><ele>287.6666666666667</ele><time>2026-04-06T11:07:03.539Z</time></trkpt><trkpt lat="43.3384283" lon="11.40769"><ele>288.0</ele><time>2026-04-06T11:07:04.543Z</time></trkpt><trkpt lat="43.3383533" lon="11.4077417"><ele>288.3333333333333</ele><time>2026-04-06T11:07:05.539Z</time></trkpt><trkpt lat="43.33828" lon="11.407785"><ele>288.66666666666663</ele><time>2026-04-06T11:07:06.534Z</time></trkpt><trkpt lat="43.338215" lon="11.4078183"><ele>289.0</ele><time>2026-04-06T11:07:07.534Z</time></trkpt><trkpt lat="43.3380917" lon="11.4078267"><ele>289.3333333333333</ele><time>2026-04-06T11:07:09.538Z</time></trkpt><trkpt lat="43.3380267" lon="11.4077983"><ele>289.66666666666663</ele><time>2026-04-06T11:07:10.548Z</time></trkpt><trkpt lat="43.337955" lon="11.4077483"><ele>290.0</ele><time>2026-04-06T11:07:11.535Z</time></trkpt><trkpt lat="43.3378767" lon="11.4076717"><ele>290.3333333333333</ele><time>2026-04-06T11:07:12.534Z</time></trkpt><trkpt lat="43.337795" lon="11.4075933"><ele>290.6666666666667</ele><time>2026-04-06T11:07:13.535Z</time></trkpt><trkpt lat="43.337715" lon="11.4075117"><ele>291.0</ele><time>2026-04-06T11:07:14.541Z</time></trkpt><trkpt lat="43.3376317" lon="11.4074317"><ele>291.0</ele><time>2026-04-06T11:07:15.536Z</time></trkpt><trkpt lat="43.33755" lon="11.4073467"><ele>291.0</ele><time>2026-04-06T11:07:16.536Z</time></trkpt><trkpt lat="43.3374717" lon="11.407265"><ele>291.0</ele><time>2026-04-06T11:07:17.534Z</time></trkpt><trkpt lat="43.3374" lon="11.4071917"><ele>291.0</ele><time>2026-04-06T11:07:18.545Z</time></trkpt><trkpt lat="43.337325" lon="11.4071267"><ele>291.0</ele><time>2026-04-06T11:07:19.537Z</time></trkpt><trkpt lat="43.3372433" lon="11.407065"><ele>291.2</ele><time>2026-04-06T11:07:20.537Z</time></trkpt><trkpt lat="43.3371517" lon="11.4070117"><ele>291.40000000000003</ele><time>2026-04-06T11:07:21.542Z</time></trkpt><trkpt lat="43.337055" lon="11.406955"><ele>291.6</ele><time>2026-04-06T11:07:22.532Z</time></trkpt><trkpt lat="43.33695" lon="11.40691"><ele>291.8</ele><time>2026-04-06T11:07:23.537Z</time></trkpt><trkpt lat="43.3368483" lon="11.4068683"><ele>292.0</ele><time>2026-04-06T11:07:24.538Z</time></trkpt><trkpt lat="43.3367533" lon="11.4068267"><ele>292.0</ele><time>2026-04-06T11:07:25.543Z</time></trkpt><trkpt lat="43.33666" lon="11.4067883"><ele>292.0</ele><time>2026-04-06T11:07:26.542Z</time></trkpt><trkpt lat="43.3365717" lon="11.4067517"><ele>292.0</ele><time>2026-04-06T11:07:27.532Z</time></trkpt><trkpt lat="43.3364883" lon="11.40672"><ele>292.0</ele><time>2026-04-06T11:07:28.537Z</time></trkpt><trkpt lat="43.33641" lon="11.4066933"><ele>292.0</ele><time>2026-04-06T11:07:29.537Z</time></trkpt><trkpt lat="43.3363333" lon="11.40668"><ele>292.0</ele><time>2026-04-06T11:07:30.538Z</time></trkpt><trkpt lat="43.336255" lon="11.4066767"><ele>293.4</ele><time>2026-04-06T11:07:31.536Z</time></trkpt><trkpt lat="43.3361783" lon="11.406685"><ele>294.79999999999995</ele><time>2026-04-06T11:07:32.54Z</time></trkpt><trkpt lat="43.3361" lon="11.4067117"><ele>296.2</ele><time>2026-04-06T11:07:33.539Z</time></trkpt><trkpt lat="43.3360233" lon="11.406755"><ele>297.59999999999997</ele><time>2026-04-06T11:07:34.541Z</time></trkpt><trkpt lat="43.3359367" lon="11.4068183"><ele>299.0</ele><time>2026-04-06T11:07:35.536Z</time></trkpt><trkpt lat="43.3358367" lon="11.406915"><ele>299.0</ele><time>2026-04-06T11:07:36.535Z</time></trkpt><trkpt lat="43.3357517" lon="11.4070117"><ele>299.0</ele><time>2026-04-06T11:07:37.544Z</time></trkpt><trkpt lat="43.335675" lon="11.40711"><ele>299.0</ele><time>2026-04-06T11:07:38.54Z</time></trkpt><trkpt lat="43.335595" lon="11.407195"><ele>299.0</ele><time>2026-04-06T11:07:39.533Z</time></trkpt><trkpt lat="43.3355217" lon="11.407265"><ele>299.0</ele><time>2026-04-06T11:07:40.534Z</time></trkpt><trkpt lat="43.3354517" lon="11.4073167"><ele>298.6666666666667</ele><time>2026-04-06T11:07:41.535Z</time></trkpt><trkpt lat="43.3353917" lon="11.407355"><ele>298.33333333333337</ele><time>2026-04-06T11:07:42.538Z</time></trkpt><trkpt lat="43.33532" lon="11.4073817"><ele>298.0</ele><time>2026-04-06T11:07:43.536Z</time></trkpt><trkpt lat="43.33524" lon="11.40741"><ele>297.6666666666667</ele><time>2026-04-06T11:07:44.536Z</time></trkpt><trkpt lat="43.3351467" lon="11.4074367"><ele>297.3333333333333</ele><time>2026-04-06T11:07:45.536Z</time></trkpt><trkpt lat="43.33504" lon="11.4074767"><ele>297.0</ele><time>2026-04-06T11:07:46.538Z</time></trkpt><trkpt lat="43.33493" lon="11.4074883"><ele>297.0</ele><time>2026-04-06T11:07:47.541Z</time></trkpt><trkpt lat="43.33482" lon="11.4074967"><ele>297.0</ele><time>2026-04-06T11:07:48.538Z</time></trkpt><trkpt lat="43.33472" lon="11.407485"><ele>297.0</ele><time>2026-04-06T11:07:49.535Z</time></trkpt><trkpt lat="43.3346267" lon="11.4074867"><ele>297.0</ele><time>2026-04-06T11:07:50.534Z</time></trkpt><trkpt lat="43.33455" lon="11.4074983"><ele>297.0</ele><time>2026-04-06T11:07:51.532Z</time></trkpt><trkpt lat="43.3344833" lon="11.4075117"><ele>297.0</ele><time>2026-04-06T11:07:52.539Z</time></trkpt><trkpt lat="43.33438" lon="11.4075"><ele>295.6</ele><time>2026-04-06T11:07:54.539Z</time></trkpt><trkpt lat="43.3342983" lon="11.4074467"><ele>294.2</ele><time>2026-04-06T11:07:56.533Z</time></trkpt><trkpt lat="43.3342383" lon="11.4073433"><ele>292.8</ele><time>2026-04-06T11:07:58.539Z</time></trkpt><trkpt lat="43.3342017" lon="11.40719"><ele>291.4</ele><time>2026-04-06T11:08:00.534Z</time></trkpt><trkpt lat="43.3341917" lon="11.4070767"><ele>290.0</ele><time>2026-04-06T11:08:01.534Z</time></trkpt><trkpt lat="43.33418" lon="11.4069583"><ele>289.8</ele><time>2026-04-06T11:08:02.54Z</time></trkpt><trkpt lat="43.33417" lon="11.4068283"><ele>289.6</ele><time>2026-04-06T11:08:03.536Z</time></trkpt><trkpt lat="43.3341633" lon="11.4066933"><ele>289.4</ele><time>2026-04-06T11:08:04.534Z</time></trkpt><trkpt lat="43.3341533" lon="11.4065617"><ele>289.2</ele><time>2026-04-06T11:08:05.534Z</time></trkpt><trkpt lat="43.3341417" lon="11.4064317"><ele>289.0</ele><time>2026-04-06T11:08:06.533Z</time></trkpt><trkpt lat="43.3341333" lon="11.4063067"><ele>288.4</ele><time>2026-04-06T11:08:07.538Z</time></trkpt><trkpt lat="43.3341183" lon="11.4061833"><ele>287.79999999999995</ele><time>2026-04-06T11:08:08.547Z</time></trkpt><trkpt lat="43.3341083" lon="11.4060617"><ele>287.20000000000005</ele><time>2026-04-06T11:08:09.533Z</time></trkpt><trkpt lat="43.3341" lon="11.405945"><ele>286.6</ele><time>2026-04-06T11:08:10.533Z</time></trkpt><trkpt lat="43.33411" lon="11.40582"><ele>286.0</ele><time>2026-04-06T11:08:11.534Z</time></trkpt><trkpt lat="43.3341233" lon="11.4056883"><ele>286.0</ele><time>2026-04-06T11:08:12.535Z</time></trkpt><trkpt lat="43.3341367" lon="11.405545"><ele>286.0</ele><time>2026-04-06T11:08:13.535Z</time></trkpt><trkpt lat="43.3341483" lon="11.4053917"><ele>286.0</ele><time>2026-04-06T11:08:14.545Z</time></trkpt><trkpt lat="43.334155" lon="11.4052383"><ele>286.0</ele><time>2026-04-06T11:08:15.532Z</time></trkpt><trkpt lat="43.33416" lon="11.4050883"><ele>286.0</ele><time>2026-04-06T11:08:16.543Z</time></trkpt><trkpt lat="43.33417" lon="11.4049433"><ele>285.2</ele><time>2026-04-06T11:08:17.54Z</time></trkpt><trkpt lat="43.3341833" lon="11.4048033"><ele>284.40000000000003</ele><time>2026-04-06T11:08:18.536Z</time></trkpt><trkpt lat="43.3341917" lon="11.4046717"><ele>283.6</ele><time>2026-04-06T11:08:19.535Z</time></trkpt><trkpt lat="43.3342017" lon="11.404545"><ele>282.8</ele><time>2026-04-06T11:08:20.533Z</time></trkpt><trkpt lat="43.3342117" lon="11.4044267"><ele>282.0</ele><time>2026-04-06T11:08:21.535Z</time></trkpt><trkpt lat="43.334225" lon="11.4043167"><ele>282.0</ele><time>2026-04-06T11:08:22.537Z</time></trkpt><trkpt lat="43.334225" lon="11.404225"><ele>282.0</ele><time>2026-04-06T11:08:23.537Z</time></trkpt><trkpt lat="43.3342117" lon="11.4040983"><ele>282.0</ele><time>2026-04-06T11:08:25.553Z</time></trkpt><trkpt lat="43.334145" lon="11.4040233"><ele>282.0</ele><time>2026-04-06T11:08:27.538Z</time></trkpt><trkpt lat="43.3340333" lon="11.4040317"><ele>282.0</ele><time>2026-04-06T11:08:29.536Z</time></trkpt><trkpt lat="43.3338933" lon="11.4041017"><ele>281.6</ele><time>2026-04-06T11:08:31.539Z</time></trkpt><trkpt lat="43.3337967" lon="11.4041533"><ele>281.2</ele><time>2026-04-06T11:08:32.537Z</time></trkpt><trkpt lat="43.3336983" lon="11.4041917"><ele>280.8</ele><time>2026-04-06T11:08:33.537Z</time></trkpt><trkpt lat="43.333605" lon="11.4042367"><ele>280.4</ele><time>2026-04-06T11:08:34.533Z</time></trkpt><trkpt lat="43.333505" lon="11.404285"><ele>280.0</ele><time>2026-04-06T11:08:35.533Z</time></trkpt><trkpt lat="43.3334" lon="11.40434"><ele>280.0</ele><time>2026-04-06T11:08:36.54Z</time></trkpt><trkpt lat="43.3332933" lon="11.4043983"><ele>280.0</ele><time>2026-04-06T11:08:37.538Z</time></trkpt><trkpt lat="43.3331833" lon="11.40446"><ele>280.0</ele><time>2026-04-06T11:08:38.536Z</time></trkpt><trkpt lat="43.333065" lon="11.4045217"><ele>280.0</ele><time>2026-04-06T11:08:39.547Z</time></trkpt><trkpt lat="43.3329467" lon="11.4045783"><ele>280.25</ele><time>2026-04-06T11:08:40.534Z</time></trkpt><trkpt lat="43.33283" lon="11.4046367"><ele>280.5</ele><time>2026-04-06T11:08:41.542Z</time></trkpt><trkpt lat="43.3327183" lon="11.4046983"><ele>280.75</ele><time>2026-04-06T11:08:42.535Z</time></trkpt><trkpt lat="43.3326083" lon="11.4047667"><ele>281.0</ele><time>2026-04-06T11:08:43.54Z</time></trkpt><trkpt lat="43.3324967" lon="11.4048317"><ele>280.40000000000003</ele><time>2026-04-06T11:08:44.534Z</time></trkpt><trkpt lat="43.332395" lon="11.4048933"><ele>279.8</ele><time>2026-04-06T11:08:45.539Z</time></trkpt><trkpt lat="43.3322983" lon="11.40496"><ele>279.20000000000005</ele><time>2026-04-06T11:08:46.538Z</time></trkpt><trkpt lat="43.332195" lon="11.405015"><ele>278.6</ele><time>2026-04-06T11:08:47.54Z</time></trkpt><trkpt lat="43.3320983" lon="11.4050633"><ele>278.0</ele><time>2026-04-06T11:08:48.545Z</time></trkpt><trkpt lat="43.332005" lon="11.405115"><ele>278.0</ele><time>2026-04-06T11:08:49.533Z</time></trkpt><trkpt lat="43.3319033" lon="11.4051583"><ele>278.0</ele><time>2026-04-06T11:08:50.537Z</time></trkpt><trkpt lat="43.3317917" lon="11.4052"><ele>278.0</ele><time>2026-04-06T11:08:51.537Z</time></trkpt><trkpt lat="43.331675" lon="11.40524"><ele>278.0</ele><time>2026-04-06T11:08:52.535Z</time></trkpt><trkpt lat="43.3315483" lon="11.4052767"><ele>278.0</ele><time>2026-04-06T11:08:53.537Z</time></trkpt><trkpt lat="43.3314217" lon="11.4053033"><ele>278.0</ele><time>2026-04-06T11:08:54.533Z</time></trkpt><trkpt lat="43.3312917" lon="11.4053333"><ele>278.0</ele><time>2026-04-06T11:08:55.538Z</time></trkpt><trkpt lat="43.3311567" lon="11.40537"><ele>278.0</ele><time>2026-04-06T11:08:56.539Z</time></trkpt><trkpt lat="43.3310283" lon="11.4054117"><ele>276.8</ele><time>2026-04-06T11:08:57.535Z</time></trkpt><trkpt lat="43.330915" lon="11.405435"><ele>275.6</ele><time>2026-04-06T11:08:58.536Z</time></trkpt><trkpt lat="43.3308133" lon="11.4054617"><ele>274.4</ele><time>2026-04-06T11:08:59.545Z</time></trkpt><trkpt lat="43.330715" lon="11.4054883"><ele>273.2</ele><time>2026-04-06T11:09:00.536Z</time></trkpt><trkpt lat="43.3306217" lon="11.4055217"><ele>272.0</ele><time>2026-04-06T11:09:01.54Z</time></trkpt><trkpt lat="43.3305317" lon="11.40555"><ele>270.4</ele><time>2026-04-06T11:09:02.537Z</time></trkpt><trkpt lat="43.33044" lon="11.405585"><ele>268.79999999999995</ele><time>2026-04-06T11:09:03.543Z</time></trkpt><trkpt lat="43.3303483" lon="11.405625"><ele>267.2</ele><time>2026-04-06T11:09:04.533Z</time></trkpt><trkpt lat="43.3302583" lon="11.4056683"><ele>265.59999999999997</ele><time>2026-04-06T11:09:05.544Z</time></trkpt><trkpt lat="43.33017" lon="11.4057117"><ele>264.0</ele><time>2026-04-06T11:09:06.539Z</time></trkpt><trkpt lat="43.3300783" lon="11.405755"><ele>264.0</ele><time>2026-04-06T11:09:07.538Z</time></trkpt><trkpt lat="43.3299917" lon="11.4058033"><ele>264.0</ele><time>2026-04-06T11:09:08.534Z</time></trkpt><trkpt lat="43.3299067" lon="11.4058583"><ele>264.0</ele><time>2026-04-06T11:09:09.535Z</time></trkpt><trkpt lat="43.3298217" lon="11.405915"><ele>264.0</ele><time>2026-04-06T11:09:10.534Z</time></trkpt><trkpt lat="43.3297333" lon="11.4059833"><ele>264.0</ele><time>2026-04-06T11:09:11.537Z</time></trkpt><trkpt lat="43.3296483" lon="11.4060533"><ele>263.0</ele><time>2026-04-06T11:09:12.534Z</time></trkpt><trkpt lat="43.3295683" lon="11.406125"><ele>262.0</ele><time>2026-04-06T11:09:13.533Z</time></trkpt><trkpt lat="43.3294883" lon="11.4062083"><ele>261.0</ele><time>2026-04-06T11:09:14.535Z</time></trkpt><trkpt lat="43.32941" lon="11.4062933"><ele>260.0</ele><time>2026-04-06T11:09:15.537Z</time></trkpt><trkpt lat="43.3293333" lon="11.4063817"><ele>259.0</ele><time>2026-04-06T11:09:16.537Z</time></trkpt><trkpt lat="43.32926" lon="11.4064683"><ele>258.8</ele><time>2026-04-06T11:09:17.538Z</time></trkpt><trkpt lat="43.3291867" lon="11.4065617"><ele>258.59999999999997</ele><time>2026-04-06T11:09:18.552Z</time></trkpt><trkpt lat="43.3291083" lon="11.4066617"><ele>258.4</ele><time>2026-04-06T11:09:19.536Z</time></trkpt><trkpt lat="43.3290233" lon="11.4067633"><ele>258.2</ele><time>2026-04-06T11:09:20.546Z</time></trkpt><trkpt lat="43.32894" lon="11.4068683"><ele>258.0</ele><time>2026-04-06T11:09:21.539Z</time></trkpt><trkpt lat="43.3288533" lon="11.4069683"><ele>257.8</ele><time>2026-04-06T11:09:22.534Z</time></trkpt><trkpt lat="43.3287683" lon="11.4070667"><ele>257.6</ele><time>2026-04-06T11:09:23.54Z</time></trkpt><trkpt lat="43.328685" lon="11.4071683"><ele>257.4</ele><time>2026-04-06T11:09:24.533Z</time></trkpt><trkpt lat="43.3285983" lon="11.4072667"><ele>257.2</ele><time>2026-04-06T11:09:25.537Z</time></trkpt><trkpt lat="43.3285133" lon="11.4073683"><ele>257.0</ele><time>2026-04-06T11:09:26.539Z</time></trkpt><trkpt lat="43.3284317" lon="11.407475"><ele>256.0</ele><time>2026-04-06T11:09:27.537Z</time></trkpt><trkpt lat="43.3283467" lon="11.4075817"><ele>255.0</ele><time>2026-04-06T11:09:28.543Z</time></trkpt><trkpt lat="43.32826" lon="11.4076883"><ele>254.0</ele><time>2026-04-06T11:09:29.54Z</time></trkpt><trkpt lat="43.3281767" lon="11.4077967"><ele>253.0</ele><time>2026-04-06T11:09:30.544Z</time></trkpt><trkpt lat="43.328095" lon="11.4079017"><ele>253.0</ele><time>2026-04-06T11:09:31.538Z</time></trkpt><trkpt lat="43.3280167" lon="11.408"><ele>253.0</ele><time>2026-04-06T11:09:32.54Z</time></trkpt><trkpt lat="43.3279383" lon="11.4080983"><ele>253.0</ele><time>2026-04-06T11:09:33.533Z</time></trkpt><trkpt lat="43.3278567" lon="11.4081917"><ele>253.0</ele><time>2026-04-06T11:09:34.538Z</time></trkpt><trkpt lat="43.327775" lon="11.4082883"><ele>253.0</ele><time>2026-04-06T11:09:35.536Z</time></trkpt><trkpt lat="43.3276933" lon="11.4083783"><ele>253.0</ele><time>2026-04-06T11:09:36.54Z</time></trkpt><trkpt lat="43.32761" lon="11.40846"><ele>253.0</ele><time>2026-04-06T11:09:37.533Z</time></trkpt><trkpt lat="43.32753" lon="11.4085433"><ele>253.0</ele><time>2026-04-06T11:09:38.533Z</time></trkpt><trkpt lat="43.3274533" lon="11.40863"><ele>253.0</ele><time>2026-04-06T11:09:39.548Z</time></trkpt><trkpt lat="43.32738" lon="11.4087133"><ele>253.0</ele><time>2026-04-06T11:09:40.535Z</time></trkpt><trkpt lat="43.3273083" lon="11.4087933"><ele>251.99999999999997</ele><time>2026-04-06T11:09:41.54Z</time></trkpt><trkpt lat="43.3272383" lon="11.40887"><ele>251.0</ele><time>2026-04-06T11:09:42.535Z</time></trkpt><trkpt lat="43.327175" lon="11.408945"><ele>250.0</ele><time>2026-04-06T11:09:43.534Z</time></trkpt><trkpt lat="43.3271183" lon="11.409015"><ele>249.0</ele><time>2026-04-06T11:09:44.535Z</time></trkpt><trkpt lat="43.327065" lon="11.4090867"><ele>247.99999999999997</ele><time>2026-04-06T11:09:45.537Z</time></trkpt><trkpt lat="43.3270133" lon="11.4091617"><ele>247.0</ele><time>2026-04-06T11:09:46.537Z</time></trkpt><trkpt lat="43.3269633" lon="11.40925"><ele>246.8</ele><time>2026-04-06T11:09:47.535Z</time></trkpt><trkpt lat="43.326915" lon="11.4093533"><ele>246.6</ele><time>2026-04-06T11:09:48.534Z</time></trkpt><trkpt lat="43.326855" lon="11.4094467"><ele>246.40000000000003</ele><time>2026-04-06T11:09:49.534Z</time></trkpt><trkpt lat="43.3268" lon="11.40954"><ele>246.20000000000002</ele><time>2026-04-06T11:09:50.541Z</time></trkpt><trkpt lat="43.3267283" lon="11.4096267"><ele>246.0</ele><time>2026-04-06T11:09:51.535Z</time></trkpt><trkpt lat="43.3266533" lon="11.40971"><ele>245.5</ele><time>2026-04-06T11:09:52.547Z</time></trkpt><trkpt lat="43.3265717" lon="11.4097867"><ele>245.0</ele><time>2026-04-06T11:09:53.537Z</time></trkpt><trkpt lat="43.3265" lon="11.4098617"><ele>244.5</ele><time>2026-04-06T11:09:54.54Z</time></trkpt><trkpt lat="43.326435" lon="11.4099383"><ele>244.0</ele><time>2026-04-06T11:09:55.538Z</time></trkpt><trkpt lat="43.3263767" lon="11.4100117"><ele>243.5</ele><time>2026-04-06T11:09:56.535Z</time></trkpt><trkpt lat="43.3263233" lon="11.4100733"><ele>243.0</ele><time>2026-04-06T11:09:57.538Z</time></trkpt><trkpt lat="43.3262733" lon="11.4101333"><ele>243.0</ele><time>2026-04-06T11:09:58.535Z</time></trkpt><trkpt lat="43.3262217" lon="11.41019"><ele>243.0</ele><time>2026-04-06T11:09:59.537Z</time></trkpt><trkpt lat="43.326175" lon="11.41025"><ele>243.0</ele><time>2026-04-06T11:10:00.54Z</time></trkpt><trkpt lat="43.3260883" lon="11.4103267"><ele>243.0</ele><time>2026-04-06T11:10:02.539Z</time></trkpt><trkpt lat="43.3259783" lon="11.410285"><ele>243.0</ele><time>2026-04-06T11:10:04.535Z</time></trkpt><trkpt lat="43.32593" lon="11.4101933"><ele>243.0</ele><time>2026-04-06T11:10:05.539Z</time></trkpt><trkpt lat="43.3258933" lon="11.4100817"><ele>243.0</ele><time>2026-04-06T11:10:06.533Z</time></trkpt><trkpt lat="43.3258517" lon="11.4099867"><ele>243.0</ele><time>2026-04-06T11:10:07.533Z</time></trkpt><trkpt lat="43.3258183" lon="11.4098783"><ele>243.0</ele><time>2026-04-06T11:10:08.535Z</time></trkpt><trkpt lat="43.3258067" lon="11.4097467"><ele>243.0</ele><time>2026-04-06T11:10:09.537Z</time></trkpt><trkpt lat="43.3258167" lon="11.4095933"><ele>243.0</ele><time>2026-04-06T11:10:10.536Z</time></trkpt><trkpt lat="43.325825" lon="11.40945"><ele>241.0</ele><time>2026-04-06T11:10:11.534Z</time></trkpt><trkpt lat="43.32582" lon="11.409305"><ele>239.0</ele><time>2026-04-06T11:10:12.534Z</time></trkpt><trkpt lat="43.3258183" lon="11.40914"><ele>237.0</ele><time>2026-04-06T11:10:13.541Z</time></trkpt><trkpt lat="43.32581" lon="11.4089717"><ele>235.0</ele><time>2026-04-06T11:10:14.537Z</time></trkpt><trkpt lat="43.3257967" lon="11.4088017"><ele>234.0</ele><time>2026-04-06T11:10:15.536Z</time></trkpt><trkpt lat="43.325775" lon="11.4086317"><ele>233.0</ele><time>2026-04-06T11:10:16.535Z</time></trkpt><trkpt lat="43.3257683" lon="11.408455"><ele>232.0</ele><time>2026-04-06T11:10:17.538Z</time></trkpt><trkpt lat="43.3257517" lon="11.40828"><ele>231.0</ele><time>2026-04-06T11:10:18.534Z</time></trkpt><trkpt lat="43.3257283" lon="11.4081033"><ele>230.0</ele><time>2026-04-06T11:10:19.535Z</time></trkpt><trkpt lat="43.325715" lon="11.4079117"><ele>229.0</ele><time>2026-04-06T11:10:20.538Z</time></trkpt><trkpt lat="43.3257" lon="11.4077183"><ele>228.0</ele><time>2026-04-06T11:10:21.535Z</time></trkpt><trkpt lat="43.3256817" lon="11.407515"><ele>227.0</ele><time>2026-04-06T11:10:22.534Z</time></trkpt><trkpt lat="43.32566" lon="11.407315"><ele>226.0</ele><time>2026-04-06T11:10:23.537Z</time></trkpt><trkpt lat="43.3256367" lon="11.4071133"><ele>225.0</ele><time>2026-04-06T11:10:24.532Z</time></trkpt><trkpt lat="43.3256083" lon="11.4069183"><ele>224.0</ele><time>2026-04-06T11:10:25.537Z</time></trkpt><trkpt lat="43.325555" lon="11.4067367"><ele>223.0</ele><time>2026-04-06T11:10:26.542Z</time></trkpt><trkpt lat="43.3254833" lon="11.406565"><ele>223.0</ele><time>2026-04-06T11:10:27.54Z</time></trkpt><trkpt lat="43.3254117" lon="11.406405"><ele>223.0</ele><time>2026-04-06T11:10:28.536Z</time></trkpt><trkpt lat="43.3253383" lon="11.4062517"><ele>223.0</ele><time>2026-04-06T11:10:29.537Z</time></trkpt><trkpt lat="43.3252817" lon="11.4060933"><ele>223.0</ele><time>2026-04-06T11:10:30.534Z</time></trkpt><trkpt lat="43.3252283" lon="11.4059367"><ele>221.5</ele><time>2026-04-06T11:10:31.534Z</time></trkpt><trkpt lat="43.3251783" lon="11.4057783"><ele>220.0</ele><time>2026-04-06T11:10:32.533Z</time></trkpt><trkpt lat="43.3251317" lon="11.4056283"><ele>218.5</ele><time>2026-04-06T11:10:33.551Z</time></trkpt><trkpt lat="43.325095" lon="11.4054783"><ele>217.0</ele><time>2026-04-06T11:10:34.541Z</time></trkpt><trkpt lat="43.3250583" lon="11.4053183"><ele>216.5</ele><time>2026-04-06T11:10:35.54Z</time></trkpt><trkpt lat="43.3250433" lon="11.405125"><ele>216.0</ele><time>2026-04-06T11:10:36.538Z</time></trkpt><trkpt lat="43.3250133" lon="11.4049483"><ele>215.5</ele><time>2026-04-06T11:10:37.536Z</time></trkpt><trkpt lat="43.3249883" lon="11.4047567"><ele>215.0</ele><time>2026-04-06T11:10:38.537Z</time></trkpt><trkpt lat="43.3249767" lon="11.4045617"><ele>214.66666666666669</ele><time>2026-04-06T11:10:39.537Z</time></trkpt><trkpt lat="43.3249683" lon="11.4043567"><ele>214.33333333333331</ele><time>2026-04-06T11:10:40.536Z</time></trkpt><trkpt lat="43.3249617" lon="11.4041367"><ele>214.0</ele><time>2026-04-06T11:10:41.536Z</time></trkpt><trkpt lat="43.32496" lon="11.4038917"><ele>213.33333333333331</ele><time>2026-04-06T11:10:42.537Z</time></trkpt><trkpt lat="43.32497" lon="11.40362"><ele>212.66666666666669</ele><time>2026-04-06T11:10:43.537Z</time></trkpt><trkpt lat="43.3249917" lon="11.40332"><ele>212.0</ele><time>2026-04-06T11:10:44.536Z</time></trkpt><trkpt lat="43.3250133" lon="11.4030183"><ele>213.33333333333334</ele><time>2026-04-06T11:10:45.539Z</time></trkpt><trkpt lat="43.3250317" lon="11.402725"><ele>214.66666666666669</ele><time>2026-04-06T11:10:46.537Z</time></trkpt><trkpt lat="43.3250583" lon="11.4024417"><ele>216.0</ele><time>2026-04-06T11:10:47.54Z</time></trkpt><trkpt lat="43.3250717" lon="11.4021883"><ele>219.33333333333331</ele><time>2026-04-06T11:10:48.534Z</time></trkpt><trkpt lat="43.32508" lon="11.401955"><ele>222.66666666666666</ele><time>2026-04-06T11:10:49.538Z</time></trkpt><trkpt lat="43.32508" lon="11.4017317"><ele>226.0</ele><time>2026-04-06T11:10:50.535Z</time></trkpt><trkpt lat="43.32508" lon="11.4015133"><ele>227.25</ele><time>2026-04-06T11:10:51.533Z</time></trkpt><trkpt lat="43.325075" lon="11.4013117"><ele>228.5</ele><time>2026-04-06T11:10:52.539Z</time></trkpt><trkpt lat="43.3250683" lon="11.4011383"><ele>229.75</ele><time>2026-04-06T11:10:53.534Z</time></trkpt><trkpt lat="43.32507" lon="11.400985"><ele>231.0</ele><time>2026-04-06T11:10:54.54Z</time></trkpt><trkpt lat="43.3250783" lon="11.4008317"><ele>231.0</ele><time>2026-04-06T11:10:55.538Z</time></trkpt><trkpt lat="43.32509" lon="11.40068"><ele>231.0</ele><time>2026-04-06T11:10:56.534Z</time></trkpt><trkpt lat="43.3251167" lon="11.400515"><ele>231.0</ele><time>2026-04-06T11:10:57.54Z</time></trkpt><trkpt lat="43.3251367" lon="11.4003567"><ele>231.0</ele><time>2026-04-06T11:10:58.533Z</time></trkpt><trkpt lat="43.3251483" lon="11.40021"><ele>232.0</ele><time>2026-04-06T11:10:59.538Z</time></trkpt><trkpt lat="43.3251567" lon="11.40007"><ele>233.00000000000003</ele><time>2026-04-06T11:11:00.537Z</time></trkpt><trkpt lat="43.325155" lon="11.39993"><ele>234.00000000000003</ele><time>2026-04-06T11:11:01.543Z</time></trkpt><trkpt lat="43.32515" lon="11.399785"><ele>235.0</ele><time>2026-04-06T11:11:02.54Z</time></trkpt><trkpt lat="43.3251483" lon="11.3996333"><ele>236.0</ele><time>2026-04-06T11:11:03.537Z</time></trkpt><trkpt lat="43.3251367" lon="11.399475"><ele>237.25</ele><time>2026-04-06T11:11:04.535Z</time></trkpt><trkpt lat="43.3251283" lon="11.399315"><ele>238.5</ele><time>2026-04-06T11:11:05.535Z</time></trkpt><trkpt lat="43.3251183" lon="11.399155"><ele>239.75</ele><time>2026-04-06T11:11:06.534Z</time></trkpt><trkpt lat="43.32511" lon="11.3989967"><ele>241.0</ele><time>2026-04-06T11:11:07.538Z</time></trkpt><trkpt lat="43.3251017" lon="11.3988433"><ele>242.5</ele><time>2026-04-06T11:11:08.534Z</time></trkpt><trkpt lat="43.3250917" lon="11.3986883"><ele>244.0</ele><time>2026-04-06T11:11:09.537Z</time></trkpt><trkpt lat="43.325085" lon="11.3985267"><ele>245.5</ele><time>2026-04-06T11:11:10.532Z</time></trkpt><trkpt lat="43.3250783" lon="11.3983617"><ele>247.0</ele><time>2026-04-06T11:11:11.534Z</time></trkpt><trkpt lat="43.3250717" lon="11.3982017"><ele>247.0</ele><time>2026-04-06T11:11:12.541Z</time></trkpt><trkpt lat="43.3250667" lon="11.398045"><ele>247.0</ele><time>2026-04-06T11:11:13.539Z</time></trkpt><trkpt lat="43.3250733" lon="11.3978933"><ele>247.0</ele><time>2026-04-06T11:11:14.535Z</time></trkpt><trkpt lat="43.3251017" lon="11.3977367"><ele>247.0</ele><time>2026-04-06T11:11:15.535Z</time></trkpt><trkpt lat="43.325155" lon="11.397575"><ele>247.0</ele><time>2026-04-06T11:11:16.533Z</time></trkpt><trkpt lat="43.325215" lon="11.3974067"><ele>247.0</ele><time>2026-04-06T11:11:17.535Z</time></trkpt><trkpt lat="43.3252783" lon="11.3972283"><ele>247.0</ele><time>2026-04-06T11:11:18.544Z</time></trkpt><trkpt lat="43.325335" lon="11.39705"><ele>247.0</ele><time>2026-04-06T11:11:19.536Z</time></trkpt><trkpt lat="43.32539" lon="11.3968767"><ele>247.0</ele><time>2026-04-06T11:11:20.545Z</time></trkpt><trkpt lat="43.3254417" lon="11.3966967"><ele>247.0</ele><time>2026-04-06T11:11:21.535Z</time></trkpt><trkpt lat="43.3254967" lon="11.3965183"><ele>247.0</ele><time>2026-04-06T11:11:22.536Z</time></trkpt><trkpt lat="43.32555" lon="11.39634"><ele>247.0</ele><time>2026-04-06T11:11:23.539Z</time></trkpt><trkpt lat="43.3255983" lon="11.39617"><ele>247.75</ele><time>2026-04-06T11:11:24.549Z</time></trkpt><trkpt lat="43.3256467" lon="11.3960017"><ele>248.5</ele><time>2026-04-06T11:11:25.533Z</time></trkpt><trkpt lat="43.3256767" lon="11.3958233"><ele>249.25</ele><time>2026-04-06T11:11:26.534Z</time></trkpt><trkpt lat="43.325685" lon="11.3956267"><ele>250.0</ele><time>2026-04-06T11:11:27.536Z</time></trkpt><trkpt lat="43.3256933" lon="11.3954167"><ele>250.5</ele><time>2026-04-06T11:11:28.536Z</time></trkpt><trkpt lat="43.3256967" lon="11.39522"><ele>251.0</ele><time>2026-04-06T11:11:29.534Z</time></trkpt><trkpt lat="43.325695" lon="11.3950167"><ele>251.5</ele><time>2026-04-06T11:11:30.539Z</time></trkpt><trkpt lat="43.325685" lon="11.3948167"><ele>252.0</ele><time>2026-04-06T11:11:31.543Z</time></trkpt><trkpt lat="43.3256667" lon="11.3946133"><ele>253.0</ele><time>2026-04-06T11:11:32.54Z</time></trkpt><trkpt lat="43.32563" lon="11.394405"><ele>254.0</ele><time>2026-04-06T11:11:33.537Z</time></trkpt><trkpt lat="43.325575" lon="11.3941917"><ele>255.0</ele><time>2026-04-06T11:11:34.534Z</time></trkpt><trkpt lat="43.325515" lon="11.39397"><ele>256.6666666666667</ele><time>2026-04-06T11:11:35.539Z</time></trkpt><trkpt lat="43.3254483" lon="11.393745"><ele>258.33333333333337</ele><time>2026-04-06T11:11:36.542Z</time></trkpt><trkpt lat="43.32538" lon="11.3935183"><ele>260.0</ele><time>2026-04-06T11:11:37.539Z</time></trkpt><trkpt lat="43.3253117" lon="11.3933"><ele>260.0</ele><time>2026-04-06T11:11:38.537Z</time></trkpt><trkpt lat="43.3252517" lon="11.3930967"><ele>260.0</ele><time>2026-04-06T11:11:39.548Z</time></trkpt><trkpt lat="43.3251967" lon="11.39291"><ele>260.0</ele><time>2026-04-06T11:11:40.54Z</time></trkpt><trkpt lat="43.3251433" lon="11.3927483"><ele>260.0</ele><time>2026-04-06T11:11:41.536Z</time></trkpt><trkpt lat="43.325085" lon="11.3926133"><ele>260.8</ele><time>2026-04-06T11:11:42.539Z</time></trkpt><trkpt lat="43.3250083" lon="11.3925283"><ele>261.6</ele><time>2026-04-06T11:11:43.537Z</time></trkpt><trkpt lat="43.3249167" lon="11.3924967"><ele>262.4</ele><time>2026-04-06T11:11:44.536Z</time></trkpt><trkpt lat="43.3248033" lon="11.3925033"><ele>263.2</ele><time>2026-04-06T11:11:45.538Z</time></trkpt><trkpt lat="43.324685" lon="11.392525"><ele>264.0</ele><time>2026-04-06T11:11:46.541Z</time></trkpt><trkpt lat="43.3245683" lon="11.3925367"><ele>264.25</ele><time>2026-04-06T11:11:47.539Z</time></trkpt><trkpt lat="43.3244533" lon="11.392525"><ele>264.5</ele><time>2026-04-06T11:11:48.535Z</time></trkpt><trkpt lat="43.324335" lon="11.3924883"><ele>264.75</ele><time>2026-04-06T11:11:49.534Z</time></trkpt><trkpt lat="43.324215" lon="11.39244"><ele>265.0</ele><time>2026-04-06T11:11:50.54Z</time></trkpt><trkpt lat="43.3240883" lon="11.3923883"><ele>265.0</ele><time>2026-04-06T11:11:51.537Z</time></trkpt><trkpt lat="43.3239533" lon="11.39234"><ele>265.0</ele><time>2026-04-06T11:11:52.537Z</time></trkpt><trkpt lat="43.32382" lon="11.3923"><ele>265.0</ele><time>2026-04-06T11:11:53.538Z</time></trkpt><trkpt lat="43.3236867" lon="11.392265"><ele>265.0</ele><time>2026-04-06T11:11:54.535Z</time></trkpt><trkpt lat="43.3235567" lon="11.3922267"><ele>264.75</ele><time>2026-04-06T11:11:55.538Z</time></trkpt><trkpt lat="43.3234283" lon="11.3921983"><ele>264.5</ele><time>2026-04-06T11:11:56.542Z</time></trkpt><trkpt lat="43.3232933" lon="11.3921683"><ele>264.25</ele><time>2026-04-06T11:11:57.541Z</time></trkpt><trkpt lat="43.3231517" lon="11.39214"><ele>264.0</ele><time>2026-04-06T11:11:58.534Z</time></trkpt><trkpt lat="43.323015" lon="11.39211"><ele>262.25</ele><time>2026-04-06T11:11:59.535Z</time></trkpt><trkpt lat="43.3228783" lon="11.392075"><ele>260.5</ele><time>2026-04-06T11:12:00.546Z</time></trkpt><trkpt lat="43.3227483" lon="11.3920417"><ele>258.75</ele><time>2026-04-06T11:12:01.552Z</time></trkpt><trkpt lat="43.32262" lon="11.3920067"><ele>257.0</ele><time>2026-04-06T11:12:02.536Z</time></trkpt><trkpt lat="43.3224883" lon="11.3919683"><ele>257.0</ele><time>2026-04-06T11:12:03.536Z</time></trkpt><trkpt lat="43.322355" lon="11.3919317"><ele>257.0</ele><time>2026-04-06T11:12:04.553Z</time></trkpt><trkpt lat="43.3222117" lon="11.3919083"><ele>257.0</ele><time>2026-04-06T11:12:05.535Z</time></trkpt><trkpt lat="43.3220783" lon="11.3918667"><ele>257.0</ele><time>2026-04-06T11:12:06.549Z</time></trkpt><trkpt lat="43.3219367" lon="11.3918217"><ele>256.0</ele><time>2026-04-06T11:12:07.538Z</time></trkpt><trkpt lat="43.3217933" lon="11.39177"><ele>255.0</ele><time>2026-04-06T11:12:08.534Z</time></trkpt><trkpt lat="43.3216483" lon="11.3917183"><ele>254.0</ele><time>2026-04-06T11:12:09.534Z</time></trkpt><trkpt lat="43.32151" lon="11.391655"><ele>253.0</ele><time>2026-04-06T11:12:10.536Z</time></trkpt><trkpt lat="43.321375" lon="11.39158"><ele>252.0</ele><time>2026-04-06T11:12:11.538Z</time></trkpt><trkpt lat="43.3212467" lon="11.39149"><ele>251.0</ele><time>2026-04-06T11:12:12.538Z</time></trkpt><trkpt lat="43.3211217" lon="11.3913917"><ele>250.0</ele><time>2026-04-06T11:12:13.538Z</time></trkpt><trkpt lat="43.320995" lon="11.3912883"><ele>249.0</ele><time>2026-04-06T11:12:14.542Z</time></trkpt><trkpt lat="43.3208667" lon="11.3911933"><ele>249.0</ele><time>2026-04-06T11:12:15.539Z</time></trkpt><trkpt lat="43.32074" lon="11.391115"><ele>249.0</ele><time>2026-04-06T11:12:16.537Z</time></trkpt><trkpt lat="43.320615" lon="11.39105"><ele>249.0</ele><time>2026-04-06T11:12:17.534Z</time></trkpt><trkpt lat="43.3205033" lon="11.39099"><ele>249.0</ele><time>2026-04-06T11:12:18.533Z</time></trkpt><trkpt lat="43.3203983" lon="11.3909567"><ele>249.0</ele><time>2026-04-06T11:12:19.533Z</time></trkpt><trkpt lat="43.3203017" lon="11.3909317"><ele>249.0</ele><time>2026-04-06T11:12:20.54Z</time></trkpt><trkpt lat="43.3202167" lon="11.390895"><ele>249.0</ele><time>2026-04-06T11:12:21.535Z</time></trkpt><trkpt lat="43.3201417" lon="11.3908367"><ele>249.0</ele><time>2026-04-06T11:12:22.538Z</time></trkpt><trkpt lat="43.3200833" lon="11.39075"><ele>249.0</ele><time>2026-04-06T11:12:23.535Z</time></trkpt><trkpt lat="43.3200467" lon="11.3906383"><ele>249.0</ele><time>2026-04-06T11:12:24.533Z</time></trkpt><trkpt lat="43.32003" lon="11.3904767"><ele>248.5</ele><time>2026-04-06T11:12:25.534Z</time></trkpt><trkpt lat="43.3200133" lon="11.3902933"><ele>248.0</ele><time>2026-04-06T11:12:26.537Z</time></trkpt><trkpt lat="43.31999" lon="11.3901167"><ele>247.5</ele><time>2026-04-06T11:12:27.537Z</time></trkpt><trkpt lat="43.31995" lon="11.3899467"><ele>247.0</ele><time>2026-04-06T11:12:28.542Z</time></trkpt><trkpt lat="43.319905" lon="11.3897667"><ele>246.0</ele><time>2026-04-06T11:12:29.543Z</time></trkpt><trkpt lat="43.319855" lon="11.389585"><ele>245.0</ele><time>2026-04-06T11:12:30.544Z</time></trkpt><trkpt lat="43.3198" lon="11.389395"><ele>244.0</ele><time>2026-04-06T11:12:31.539Z</time></trkpt><trkpt lat="43.31975" lon="11.3892"><ele>243.0</ele><time>2026-04-06T11:12:32.539Z</time></trkpt><trkpt lat="43.319705" lon="11.389"><ele>239.5</ele><time>2026-04-06T11:12:33.534Z</time></trkpt><trkpt lat="43.3196667" lon="11.3888117"><ele>236.0</ele><time>2026-04-06T11:12:34.538Z</time></trkpt><trkpt lat="43.3196283" lon="11.3886333"><ele>232.5</ele><time>2026-04-06T11:12:35.542Z</time></trkpt><trkpt lat="43.3195917" lon="11.388455"><ele>229.0</ele><time>2026-04-06T11:12:36.535Z</time></trkpt><trkpt lat="43.3195617" lon="11.388285"><ele>229.0</ele><time>2026-04-06T11:12:37.541Z</time></trkpt><trkpt lat="43.319535" lon="11.3881217"><ele>229.0</ele><time>2026-04-06T11:12:38.533Z</time></trkpt><trkpt lat="43.3195083" lon="11.3879683"><ele>229.0</ele><time>2026-04-06T11:12:39.538Z</time></trkpt><trkpt lat="43.3194833" lon="11.387815"><ele>229.0</ele><time>2026-04-06T11:12:40.534Z</time></trkpt><trkpt lat="43.3194483" lon="11.3876767"><ele>229.0</ele><time>2026-04-06T11:12:41.541Z</time></trkpt><trkpt lat="43.31939" lon="11.38756"><ele>228.99999999999997</ele><time>2026-04-06T11:12:42.534Z</time></trkpt><trkpt lat="43.3193033" lon="11.3874667"><ele>228.99999999999997</ele><time>2026-04-06T11:12:43.533Z</time></trkpt><trkpt lat="43.3192083" lon="11.3873883"><ele>229.0</ele><time>2026-04-06T11:12:44.533Z</time></trkpt><trkpt lat="43.3191267" lon="11.3873117"><ele>229.0</ele><time>2026-04-06T11:12:45.535Z</time></trkpt><trkpt lat="43.3190683" lon="11.3872117"><ele>228.6</ele><time>2026-04-06T11:12:46.534Z</time></trkpt><trkpt lat="43.319045" lon="11.3870917"><ele>228.2</ele><time>2026-04-06T11:12:47.541Z</time></trkpt><trkpt lat="43.319045" lon="11.3869633"><ele>227.79999999999998</ele><time>2026-04-06T11:12:48.533Z</time></trkpt><trkpt lat="43.3190717" lon="11.38683"><ele>227.39999999999998</ele><time>2026-04-06T11:12:49.534Z</time></trkpt><trkpt lat="43.3191183" lon="11.3867033"><ele>227.0</ele><time>2026-04-06T11:12:50.539Z</time></trkpt><trkpt lat="43.3191817" lon="11.3865883"><ele>227.0</ele><time>2026-04-06T11:12:51.536Z</time></trkpt><trkpt lat="43.3192567" lon="11.38649"><ele>227.0</ele><time>2026-04-06T11:12:52.532Z</time></trkpt><trkpt lat="43.3193517" lon="11.38641"><ele>227.0</ele><time>2026-04-06T11:12:53.532Z</time></trkpt><trkpt lat="43.3194567" lon="11.3863383"><ele>227.0</ele><time>2026-04-06T11:12:54.533Z</time></trkpt><trkpt lat="43.319565" lon="11.3862717"><ele>226.2</ele><time>2026-04-06T11:12:55.531Z</time></trkpt><trkpt lat="43.31967" lon="11.3862083"><ele>225.39999999999998</ele><time>2026-04-06T11:12:56.538Z</time></trkpt><trkpt lat="43.3197717" lon="11.3861583"><ele>224.60000000000002</ele><time>2026-04-06T11:12:57.541Z</time></trkpt><trkpt lat="43.3198683" lon="11.3861017"><ele>223.8</ele><time>2026-04-06T11:12:58.534Z</time></trkpt><trkpt lat="43.3199583" lon="11.38603"><ele>223.0</ele><time>2026-04-06T11:12:59.539Z</time></trkpt><trkpt lat="43.3200317" lon="11.385945"><ele>222.83333333333331</ele><time>2026-04-06T11:13:00.543Z</time></trkpt><trkpt lat="43.3200783" lon="11.3858383"><ele>222.66666666666666</ele><time>2026-04-06T11:13:01.535Z</time></trkpt><trkpt lat="43.3201067" lon="11.38573"><ele>222.5</ele><time>2026-04-06T11:13:02.536Z</time></trkpt><trkpt lat="43.3201217" lon="11.3856167"><ele>222.33333333333331</ele><time>2026-04-06T11:13:03.535Z</time></trkpt><trkpt lat="43.3201267" lon="11.3854933"><ele>222.16666666666666</ele><time>2026-04-06T11:13:04.541Z</time></trkpt><trkpt lat="43.3201167" lon="11.385365"><ele>222.0</ele><time>2026-04-06T11:13:05.535Z</time></trkpt><trkpt lat="43.32012" lon="11.38524"><ele>221.0</ele><time>2026-04-06T11:13:06.541Z</time></trkpt><trkpt lat="43.3201383" lon="11.3851117"><ele>220.0</ele><time>2026-04-06T11:13:07.535Z</time></trkpt><trkpt lat="43.3201733" lon="11.384985"><ele>219.0</ele><time>2026-04-06T11:13:08.535Z</time></trkpt><trkpt lat="43.320225" lon="11.3848567"><ele>218.0</ele><time>2026-04-06T11:13:09.534Z</time></trkpt><trkpt lat="43.3202917" lon="11.3847317"><ele>217.0</ele><time>2026-04-06T11:13:10.542Z</time></trkpt><trkpt lat="43.3203683" lon="11.3846217"><ele>216.2</ele><time>2026-04-06T11:13:11.535Z</time></trkpt><trkpt lat="43.3204483" lon="11.3845183"><ele>215.39999999999998</ele><time>2026-04-06T11:13:12.544Z</time></trkpt><trkpt lat="43.3205317" lon="11.3844183"><ele>214.60000000000002</ele><time>2026-04-06T11:13:13.535Z</time></trkpt><trkpt lat="43.3206167" lon="11.38432"><ele>213.8</ele><time>2026-04-06T11:13:14.534Z</time></trkpt><trkpt lat="43.3206917" lon="11.3842133"><ele>213.0</ele><time>2026-04-06T11:13:15.541Z</time></trkpt><trkpt lat="43.3207483" lon="11.38411"><ele>212.5</ele><time>2026-04-06T11:13:16.543Z</time></trkpt><trkpt lat="43.3207717" lon="11.3839933"><ele>212.0</ele><time>2026-04-06T11:13:17.533Z</time></trkpt><trkpt lat="43.320785" lon="11.38388"><ele>211.5</ele><time>2026-04-06T11:13:18.543Z</time></trkpt><trkpt lat="43.320765" lon="11.38376"><ele>211.0</ele><time>2026-04-06T11:13:19.534Z</time></trkpt><trkpt lat="43.320735" lon="11.3836533"><ele>210.5</ele><time>2026-04-06T11:13:20.535Z</time></trkpt><trkpt lat="43.3207083" lon="11.3835483"><ele>210.0</ele><time>2026-04-06T11:13:21.535Z</time></trkpt><trkpt lat="43.32068" lon="11.3834433"><ele>208.66666666666666</ele><time>2026-04-06T11:13:22.534Z</time></trkpt><trkpt lat="43.32065" lon="11.3833433"><ele>207.33333333333331</ele><time>2026-04-06T11:13:23.534Z</time></trkpt><trkpt lat="43.3206333" lon="11.383235"><ele>206.0</ele><time>2026-04-06T11:13:24.539Z</time></trkpt><trkpt lat="43.3206167" lon="11.3831183"><ele>204.66666666666666</ele><time>2026-04-06T11:13:25.539Z</time></trkpt><trkpt lat="43.320605" lon="11.3829867"><ele>203.33333333333331</ele><time>2026-04-06T11:13:26.539Z</time></trkpt><trkpt lat="43.32059" lon="11.3828467"><ele>202.0</ele><time>2026-04-06T11:13:27.532Z</time></trkpt><trkpt lat="43.3205667" lon="11.3826967"><ele>201.25</ele><time>2026-04-06T11:13:28.535Z</time></trkpt><trkpt lat="43.3205417" lon="11.38254"><ele>200.5</ele><time>2026-04-06T11:13:29.539Z</time></trkpt><trkpt lat="43.320515" lon="11.382375"><ele>199.75</ele><time>2026-04-06T11:13:30.534Z</time></trkpt><trkpt lat="43.3204883" lon="11.3822067"><ele>199.0</ele><time>2026-04-06T11:13:31.536Z</time></trkpt><trkpt lat="43.3204633" lon="11.382035"><ele>198.75</ele><time>2026-04-06T11:13:32.538Z</time></trkpt><trkpt lat="43.3204383" lon="11.3818583"><ele>198.5</ele><time>2026-04-06T11:13:33.535Z</time></trkpt><trkpt lat="43.3204083" lon="11.3816783"><ele>198.25</ele><time>2026-04-06T11:13:34.544Z</time></trkpt><trkpt lat="43.3203783" lon="11.3815"><ele>198.0</ele><time>2026-04-06T11:13:35.535Z</time></trkpt><trkpt lat="43.320345" lon="11.3813367"><ele>197.75</ele><time>2026-04-06T11:13:36.533Z</time></trkpt><trkpt lat="43.32032" lon="11.381175"><ele>197.5</ele><time>2026-04-06T11:13:37.532Z</time></trkpt><trkpt lat="43.320305" lon="11.3810133"><ele>197.25</ele><time>2026-04-06T11:13:38.535Z</time></trkpt><trkpt lat="43.32031" lon="11.3808483"><ele>197.0</ele><time>2026-04-06T11:13:39.535Z</time></trkpt><trkpt lat="43.3203267" lon="11.3806733"><ele>197.0</ele><time>2026-04-06T11:13:40.534Z</time></trkpt><trkpt lat="43.320345" lon="11.3804917"><ele>197.0</ele><time>2026-04-06T11:13:41.533Z</time></trkpt><trkpt lat="43.320365" lon="11.38031"><ele>197.0</ele><time>2026-04-06T11:13:42.54Z</time></trkpt><trkpt lat="43.3203833" lon="11.3801233"><ele>197.0</ele><time>2026-04-06T11:13:43.534Z</time></trkpt><trkpt lat="43.3204117" lon="11.37993"><ele>197.0</ele><time>2026-04-06T11:13:44.536Z</time></trkpt><trkpt lat="43.3204383" lon="11.3797217"><ele>197.0</ele><time>2026-04-06T11:13:45.541Z</time></trkpt><trkpt lat="43.3204667" lon="11.3795033"><ele>197.0</ele><time>2026-04-06T11:13:46.538Z</time></trkpt><trkpt lat="43.3204967" lon="11.3792983"><ele>198.0</ele><time>2026-04-06T11:13:47.541Z</time></trkpt><trkpt lat="43.320525" lon="11.3790883"><ele>199.0</ele><time>2026-04-06T11:13:48.534Z</time></trkpt><trkpt lat="43.32055" lon="11.3788783"><ele>200.0</ele><time>2026-04-06T11:13:49.537Z</time></trkpt><trkpt lat="43.32057" lon="11.3786567"><ele>202.0</ele><time>2026-04-06T11:13:50.54Z</time></trkpt><trkpt lat="43.3205767" lon="11.3784183"><ele>204.0</ele><time>2026-04-06T11:13:51.534Z</time></trkpt><trkpt lat="43.3205667" lon="11.3781733"><ele>206.0</ele><time>2026-04-06T11:13:52.533Z</time></trkpt><trkpt lat="43.32054" lon="11.37794"><ele>208.66666666666669</ele><time>2026-04-06T11:13:53.538Z</time></trkpt><trkpt lat="43.320515" lon="11.377715"><ele>211.33333333333331</ele><time>2026-04-06T11:13:54.535Z</time></trkpt><trkpt lat="43.320485" lon="11.3774967"><ele>214.0</ele><time>2026-04-06T11:13:55.535Z</time></trkpt><trkpt lat="43.320455" lon="11.3772817"><ele>217.33333333333331</ele><time>2026-04-06T11:13:56.539Z</time></trkpt><trkpt lat="43.32043" lon="11.377065"><ele>220.66666666666669</ele><time>2026-04-06T11:13:57.535Z</time></trkpt><trkpt lat="43.3204217" lon="11.376845"><ele>224.0</ele><time>2026-04-06T11:13:58.536Z</time></trkpt><trkpt lat="43.320435" lon="11.3766233"><ele>224.0</ele><time>2026-04-06T11:13:59.535Z</time></trkpt><trkpt lat="43.3204383" lon="11.3764067"><ele>224.0</ele><time>2026-04-06T11:14:00.536Z</time></trkpt><trkpt lat="43.3204583" lon="11.3761917"><ele>224.0</ele><time>2026-04-06T11:14:01.533Z</time></trkpt><trkpt lat="43.3204767" lon="11.37599"><ele>223.25</ele><time>2026-04-06T11:14:02.536Z</time></trkpt><trkpt lat="43.3204867" lon="11.3758083"><ele>222.5</ele><time>2026-04-06T11:14:03.535Z</time></trkpt><trkpt lat="43.3204867" lon="11.3756483"><ele>221.75</ele><time>2026-04-06T11:14:04.538Z</time></trkpt><trkpt lat="43.320445" lon="11.3754867"><ele>221.0</ele><time>2026-04-06T11:14:05.541Z</time></trkpt><trkpt lat="43.3203783" lon="11.3753467"><ele>221.0</ele><time>2026-04-06T11:14:06.541Z</time></trkpt><trkpt lat="43.3203033" lon="11.3752117"><ele>221.00000000000003</ele><time>2026-04-06T11:14:07.537Z</time></trkpt><trkpt lat="43.3202483" lon="11.3750833"><ele>221.00000000000003</ele><time>2026-04-06T11:14:08.538Z</time></trkpt><trkpt lat="43.3202283" lon="11.3749567"><ele>221.0</ele><time>2026-04-06T11:14:09.535Z</time></trkpt><trkpt lat="43.3202383" lon="11.3748217"><ele>221.0</ele><time>2026-04-06T11:14:10.538Z</time></trkpt><trkpt lat="43.3202667" lon="11.37468"><ele>221.0</ele><time>2026-04-06T11:14:11.535Z</time></trkpt><trkpt lat="43.3203033" lon="11.374535"><ele>221.0</ele><time>2026-04-06T11:14:12.537Z</time></trkpt><trkpt lat="43.320355" lon="11.3743783"><ele>221.0</ele><time>2026-04-06T11:14:13.534Z</time></trkpt><trkpt lat="43.3204" lon="11.374205"><ele>221.0</ele><time>2026-04-06T11:14:14.539Z</time></trkpt><trkpt lat="43.3204533" lon="11.37403"><ele>222.5</ele><time>2026-04-06T11:14:15.536Z</time></trkpt><trkpt lat="43.3205067" lon="11.3738467"><ele>224.0</ele><time>2026-04-06T11:14:16.539Z</time></trkpt><trkpt lat="43.3205717" lon="11.37368"><ele>225.5</ele><time>2026-04-06T11:14:17.535Z</time></trkpt><trkpt lat="43.320625" lon="11.3735333"><ele>227.0</ele><time>2026-04-06T11:14:18.537Z</time></trkpt><trkpt lat="43.3206783" lon="11.3734017"><ele>227.39999999999998</ele><time>2026-04-06T11:14:19.539Z</time></trkpt><trkpt lat="43.3207417" lon="11.3732867"><ele>227.79999999999998</ele><time>2026-04-06T11:14:20.536Z</time></trkpt><trkpt lat="43.320795" lon="11.3731683"><ele>228.2</ele><time>2026-04-06T11:14:21.534Z</time></trkpt><trkpt lat="43.32085" lon="11.3730483"><ele>228.6</ele><time>2026-04-06T11:14:22.533Z</time></trkpt><trkpt lat="43.3209117" lon="11.3729367"><ele>229.0</ele><time>2026-04-06T11:14:23.537Z</time></trkpt><trkpt lat="43.320975" lon="11.372825"><ele>231.25</ele><time>2026-04-06T11:14:24.548Z</time></trkpt><trkpt lat="43.3210167" lon="11.3726867"><ele>233.5</ele><time>2026-04-06T11:14:25.534Z</time></trkpt><trkpt lat="43.3210433" lon="11.3725367"><ele>235.75</ele><time>2026-04-06T11:14:26.536Z</time></trkpt><trkpt lat="43.32107" lon="11.3723783"><ele>238.0</ele><time>2026-04-06T11:14:27.535Z</time></trkpt><trkpt lat="43.3211" lon="11.372215"><ele>240.25</ele><time>2026-04-06T11:14:28.537Z</time></trkpt><trkpt lat="43.3211233" lon="11.3720467"><ele>242.5</ele><time>2026-04-06T11:14:29.536Z</time></trkpt><trkpt lat="43.3211467" lon="11.3718783"><ele>244.75</ele><time>2026-04-06T11:14:30.534Z</time></trkpt><trkpt lat="43.3211633" lon="11.371705"><ele>247.0</ele><time>2026-04-06T11:14:31.535Z</time></trkpt><trkpt lat="43.321175" lon="11.3715233"><ele>248.25</ele><time>2026-04-06T11:14:32.537Z</time></trkpt><trkpt lat="43.3211917" lon="11.37134"><ele>249.5</ele><time>2026-04-06T11:14:33.537Z</time></trkpt><trkpt lat="43.32122" lon="11.3711633"><ele>250.75</ele><time>2026-04-06T11:14:34.536Z</time></trkpt><trkpt lat="43.3212567" lon="11.3709917"><ele>252.0</ele><time>2026-04-06T11:14:35.538Z</time></trkpt><trkpt lat="43.321305" lon="11.3708283"><ele>252.0</ele><time>2026-04-06T11:14:36.541Z</time></trkpt><trkpt lat="43.3213617" lon="11.37067"><ele>252.0</ele><time>2026-04-06T11:14:37.536Z</time></trkpt><trkpt lat="43.3214283" lon="11.3705117"><ele>252.0</ele><time>2026-04-06T11:14:38.535Z</time></trkpt><trkpt lat="43.3215033" lon="11.3703567"><ele>252.0</ele><time>2026-04-06T11:14:39.535Z</time></trkpt><trkpt lat="43.3215867" lon="11.3702033"><ele>252.0</ele><time>2026-04-06T11:14:40.537Z</time></trkpt><trkpt lat="43.3216683" lon="11.37005"><ele>252.0</ele><time>2026-04-06T11:14:41.536Z</time></trkpt><trkpt lat="43.3217433" lon="11.3698983"><ele>252.0</ele><time>2026-04-06T11:14:42.535Z</time></trkpt><trkpt lat="43.3218117" lon="11.369745"><ele>252.0</ele><time>2026-04-06T11:14:43.536Z</time></trkpt><trkpt lat="43.3218833" lon="11.369605"><ele>253.8</ele><time>2026-04-06T11:14:44.54Z</time></trkpt><trkpt lat="43.3219433" lon="11.369485"><ele>255.6</ele><time>2026-04-06T11:14:45.545Z</time></trkpt><trkpt lat="43.32199" lon="11.3693867"><ele>257.40000000000003</ele><time>2026-04-06T11:14:46.538Z</time></trkpt><trkpt lat="43.3220233" lon="11.3692917"><ele>259.2</ele><time>2026-04-06T11:14:47.536Z</time></trkpt><trkpt lat="43.3220233" lon="11.369195"><ele>261.0</ele><time>2026-04-06T11:14:48.539Z</time></trkpt><trkpt lat="43.321925" lon="11.3691167"><ele>261.0</ele><time>2026-04-06T11:14:50.535Z</time></trkpt><trkpt lat="43.32184" lon="11.3691783"><ele>261.0</ele><time>2026-04-06T11:14:51.534Z</time></trkpt><trkpt lat="43.3217633" lon="11.3692567"><ele>261.0</ele><time>2026-04-06T11:14:52.537Z</time></trkpt><trkpt lat="43.3216933" lon="11.36933"><ele>261.0</ele><time>2026-04-06T11:14:53.536Z</time></trkpt><trkpt lat="43.3216167" lon="11.36939"><ele>261.0</ele><time>2026-04-06T11:14:54.535Z</time></trkpt><trkpt lat="43.3215317" lon="11.369415"><ele>261.0</ele><time>2026-04-06T11:14:55.535Z</time></trkpt><trkpt lat="43.3214417" lon="11.3694067"><ele>261.0</ele><time>2026-04-06T11:14:56.539Z</time></trkpt><trkpt lat="43.3213583" lon="11.3693433"><ele>261.0</ele><time>2026-04-06T11:14:57.536Z</time></trkpt><trkpt lat="43.3212767" lon="11.3692467"><ele>261.0</ele><time>2026-04-06T11:14:58.539Z</time></trkpt><trkpt lat="43.3212" lon="11.369165"><ele>261.0</ele><time>2026-04-06T11:14:59.535Z</time></trkpt><trkpt lat="43.321125" lon="11.3690867"><ele>261.3333333333333</ele><time>2026-04-06T11:15:00.536Z</time></trkpt><trkpt lat="43.3210567" lon="11.36901"><ele>261.6666666666667</ele><time>2026-04-06T11:15:01.534Z</time></trkpt><trkpt lat="43.3209933" lon="11.3689417"><ele>262.0</ele><time>2026-04-06T11:15:02.548Z</time></trkpt><trkpt lat="43.3209533" lon="11.3688717"><ele>262.33333333333337</ele><time>2026-04-06T11:15:03.535Z</time></trkpt><trkpt lat="43.32094" lon="11.3686933"><ele>262.6666666666667</ele><time>2026-04-06T11:15:05.536Z</time></trkpt><trkpt lat="43.3209467" lon="11.3685867"><ele>263.0</ele><time>2026-04-06T11:15:06.535Z</time></trkpt><trkpt lat="43.320975" lon="11.3684617"><ele>263.0</ele><time>2026-04-06T11:15:07.534Z</time></trkpt><trkpt lat="43.32102" lon="11.3683183"><ele>263.0</ele><time>2026-04-06T11:15:08.534Z</time></trkpt><trkpt lat="43.3210383" lon="11.3681683"><ele>263.0</ele><time>2026-04-06T11:15:09.533Z</time></trkpt><trkpt lat="43.3210483" lon="11.3680033"><ele>263.0</ele><time>2026-04-06T11:15:10.543Z</time></trkpt><trkpt lat="43.3210667" lon="11.36784"><ele>264.0</ele><time>2026-04-06T11:15:11.535Z</time></trkpt><trkpt lat="43.32108" lon="11.3676583"><ele>265.0</ele><time>2026-04-06T11:15:12.541Z</time></trkpt><trkpt lat="43.3210933" lon="11.3674733"><ele>266.0</ele><time>2026-04-06T11:15:13.536Z</time></trkpt><trkpt lat="43.3210983" lon="11.3672883"><ele>267.0</ele><time>2026-04-06T11:15:14.533Z</time></trkpt><trkpt lat="43.3211067" lon="11.367115"><ele>268.0</ele><time>2026-04-06T11:15:15.536Z</time></trkpt><trkpt lat="43.32111" lon="11.3669483"><ele>269.0</ele><time>2026-04-06T11:15:16.533Z</time></trkpt><trkpt lat="43.32111" lon="11.3667817"><ele>270.0</ele><time>2026-04-06T11:15:17.536Z</time></trkpt><trkpt lat="43.3211017" lon="11.3666167"><ele>271.0</ele><time>2026-04-06T11:15:18.538Z</time></trkpt><trkpt lat="43.3210767" lon="11.366455"><ele>271.0</ele><time>2026-04-06T11:15:19.535Z</time></trkpt><trkpt lat="43.32105" lon="11.36629"><ele>271.0</ele><time>2026-04-06T11:15:20.534Z</time></trkpt><trkpt lat="43.3210267" lon="11.3661283"><ele>271.0</ele><time>2026-04-06T11:15:21.534Z</time></trkpt><trkpt lat="43.3209983" lon="11.3659633"><ele>271.0</ele><time>2026-04-06T11:15:22.536Z</time></trkpt><trkpt lat="43.320965" lon="11.36579"><ele>271.0</ele><time>2026-04-06T11:15:23.533Z</time></trkpt><trkpt lat="43.32092" lon="11.36562"><ele>271.0</ele><time>2026-04-06T11:15:24.533Z</time></trkpt><trkpt lat="43.320865" lon="11.3654533"><ele>271.0</ele><time>2026-04-06T11:15:25.537Z</time></trkpt><trkpt lat="43.32081" lon="11.3652883"><ele>271.0</ele><time>2026-04-06T11:15:26.533Z</time></trkpt><trkpt lat="43.3207483" lon="11.3651283"><ele>271.25</ele><time>2026-04-06T11:15:27.534Z</time></trkpt><trkpt lat="43.320685" lon="11.3649733"><ele>271.5</ele><time>2026-04-06T11:15:28.534Z</time></trkpt><trkpt lat="43.3206117" lon="11.36483"><ele>271.75</ele><time>2026-04-06T11:15:29.546Z</time></trkpt><trkpt lat="43.3205367" lon="11.3646883"><ele>272.0</ele><time>2026-04-06T11:15:30.539Z</time></trkpt><trkpt lat="43.3204617" lon="11.3645467"><ele>272.5</ele><time>2026-04-06T11:15:31.538Z</time></trkpt><trkpt lat="43.320375" lon="11.36441"><ele>273.0</ele><time>2026-04-06T11:15:32.536Z</time></trkpt><trkpt lat="43.3202933" lon="11.3642767"><ele>273.5</ele><time>2026-04-06T11:15:33.543Z</time></trkpt><trkpt lat="43.32021" lon="11.3641417"><ele>274.0</ele><time>2026-04-06T11:15:34.538Z</time></trkpt><trkpt lat="43.3201283" lon="11.363995"><ele>272.5</ele><time>2026-04-06T11:15:35.536Z</time></trkpt><trkpt lat="43.3200417" lon="11.3638483"><ele>271.0</ele><time>2026-04-06T11:15:36.539Z</time></trkpt><trkpt lat="43.3199517" lon="11.363715"><ele>269.5</ele><time>2026-04-06T11:15:37.537Z</time></trkpt><trkpt lat="43.3198633" lon="11.36359"><ele>268.0</ele><time>2026-04-06T11:15:38.536Z</time></trkpt><trkpt lat="43.3197733" lon="11.3634717"><ele>268.5</ele><time>2026-04-06T11:15:39.535Z</time></trkpt><trkpt lat="43.3196817" lon="11.36336"><ele>269.0</ele><time>2026-04-06T11:15:40.537Z</time></trkpt><trkpt lat="43.3196" lon="11.3632417"><ele>269.5</ele><time>2026-04-06T11:15:41.537Z</time></trkpt><trkpt lat="43.31953" lon="11.3631167"><ele>270.0</ele><time>2026-04-06T11:15:42.535Z</time></trkpt><trkpt lat="43.3194683" lon="11.362985"><ele>270.0</ele><time>2026-04-06T11:15:43.537Z</time></trkpt><trkpt lat="43.3194167" lon="11.3628483"><ele>270.0</ele><time>2026-04-06T11:15:44.54Z</time></trkpt><trkpt lat="43.3193733" lon="11.362705"><ele>270.0</ele><time>2026-04-06T11:15:45.538Z</time></trkpt><trkpt lat="43.319325" lon="11.36256"><ele>270.0</ele><time>2026-04-06T11:15:46.535Z</time></trkpt><trkpt lat="43.3192567" lon="11.36243"><ele>270.0</ele><time>2026-04-06T11:15:47.539Z</time></trkpt><trkpt lat="43.319175" lon="11.3623017"><ele>270.0</ele><time>2026-04-06T11:15:48.535Z</time></trkpt><trkpt lat="43.3190883" lon="11.3621767"><ele>270.0</ele><time>2026-04-06T11:15:49.539Z</time></trkpt><trkpt lat="43.319005" lon="11.3620567"><ele>270.0</ele><time>2026-04-06T11:15:50.533Z</time></trkpt><trkpt lat="43.318925" lon="11.3619317"><ele>269.0</ele><time>2026-04-06T11:15:51.541Z</time></trkpt><trkpt lat="43.3188517" lon="11.3617933"><ele>268.0</ele><time>2026-04-06T11:15:52.539Z</time></trkpt><trkpt lat="43.3187783" lon="11.3616467"><ele>267.0</ele><time>2026-04-06T11:15:53.536Z</time></trkpt><trkpt lat="43.3187067" lon="11.3614983"><ele>266.0</ele><time>2026-04-06T11:15:54.536Z</time></trkpt><trkpt lat="43.3186433" lon="11.3613433"><ele>264.0</ele><time>2026-04-06T11:15:55.533Z</time></trkpt><trkpt lat="43.31859" lon="11.36118"><ele>262.0</ele><time>2026-04-06T11:15:56.536Z</time></trkpt><trkpt lat="43.3185333" lon="11.361015"><ele>260.0</ele><time>2026-04-06T11:15:57.538Z</time></trkpt><trkpt lat="43.31847" lon="11.36085"><ele>258.0</ele><time>2026-04-06T11:15:58.536Z</time></trkpt><trkpt lat="43.3183983" lon="11.3606933"><ele>258.0</ele><time>2026-04-06T11:15:59.534Z</time></trkpt><trkpt lat="43.31833" lon="11.3605383"><ele>258.0</ele><time>2026-04-06T11:16:00.532Z</time></trkpt><trkpt lat="43.3182667" lon="11.3603833"><ele>258.0</ele><time>2026-04-06T11:16:01.536Z</time></trkpt><trkpt lat="43.318195" lon="11.360235"><ele>258.0</ele><time>2026-04-06T11:16:02.538Z</time></trkpt><trkpt lat="43.3181117" lon="11.3600933"><ele>256.25</ele><time>2026-04-06T11:16:03.538Z</time></trkpt><trkpt lat="43.31803" lon="11.3599517"><ele>254.5</ele><time>2026-04-06T11:16:04.542Z</time></trkpt><trkpt lat="43.3179483" lon="11.3598167"><ele>252.75</ele><time>2026-04-06T11:16:05.54Z</time></trkpt><trkpt lat="43.3178767" lon="11.3596767"><ele>251.0</ele><time>2026-04-06T11:16:06.535Z</time></trkpt><trkpt lat="43.3178167" lon="11.35951"><ele>248.5</ele><time>2026-04-06T11:16:07.532Z</time></trkpt><trkpt lat="43.317775" lon="11.3593283"><ele>246.0</ele><time>2026-04-06T11:16:08.534Z</time></trkpt><trkpt lat="43.3177417" lon="11.3591433"><ele>243.5</ele><time>2026-04-06T11:16:09.54Z</time></trkpt><trkpt lat="43.3177083" lon="11.358965"><ele>241.0</ele><time>2026-04-06T11:16:10.541Z</time></trkpt><trkpt lat="43.3176633" lon="11.3588033"><ele>240.0</ele><time>2026-04-06T11:16:11.54Z</time></trkpt><trkpt lat="43.3176017" lon="11.35866"><ele>239.0</ele><time>2026-04-06T11:16:12.536Z</time></trkpt><trkpt lat="43.3175217" lon="11.35853"><ele>238.0</ele><time>2026-04-06T11:16:13.539Z</time></trkpt><trkpt lat="43.3174233" lon="11.3584167"><ele>237.0</ele><time>2026-04-06T11:16:14.542Z</time></trkpt><trkpt lat="43.31731" lon="11.3583317"><ele>235.25</ele><time>2026-04-06T11:16:15.533Z</time></trkpt><trkpt lat="43.3171867" lon="11.3582883"><ele>233.5</ele><time>2026-04-06T11:16:16.533Z</time></trkpt><trkpt lat="43.3170517" lon="11.3582783"><ele>231.75</ele><time>2026-04-06T11:16:17.54Z</time></trkpt><trkpt lat="43.3169283" lon="11.3582717"><ele>230.0</ele><time>2026-04-06T11:16:18.535Z</time></trkpt><trkpt lat="43.3168167" lon="11.35825"><ele>230.0</ele><time>2026-04-06T11:16:19.538Z</time></trkpt><trkpt lat="43.3167183" lon="11.3581917"><ele>230.0</ele><time>2026-04-06T11:16:20.535Z</time></trkpt><trkpt lat="43.316625" lon="11.3581033"><ele>230.0</ele><time>2026-04-06T11:16:21.54Z</time></trkpt><trkpt lat="43.3165333" lon="11.35799"><ele>230.0</ele><time>2026-04-06T11:16:22.538Z</time></trkpt><trkpt lat="43.3164467" lon="11.35785"><ele>229.25</ele><time>2026-04-06T11:16:23.539Z</time></trkpt><trkpt lat="43.31636" lon="11.35771"><ele>228.5</ele><time>2026-04-06T11:16:24.543Z</time></trkpt><trkpt lat="43.316275" lon="11.3575633"><ele>227.75</ele><time>2026-04-06T11:16:25.536Z</time></trkpt><trkpt lat="43.3161983" lon="11.357415"><ele>227.0</ele><time>2026-04-06T11:16:26.536Z</time></trkpt><trkpt lat="43.3161333" lon="11.3572617"><ele>226.75</ele><time>2026-04-06T11:16:27.533Z</time></trkpt><trkpt lat="43.3160917" lon="11.3570967"><ele>226.5</ele><time>2026-04-06T11:16:28.536Z</time></trkpt><trkpt lat="43.3160633" lon="11.3569333"><ele>226.25</ele><time>2026-04-06T11:16:29.539Z</time></trkpt><trkpt lat="43.316045" lon="11.3567767"><ele>226.0</ele><time>2026-04-06T11:16:30.538Z</time></trkpt><trkpt lat="43.316035" lon="11.356625"><ele>225.99999999999997</ele><time>2026-04-06T11:16:31.533Z</time></trkpt><trkpt lat="43.3160267" lon="11.35648"><ele>226.0</ele><time>2026-04-06T11:16:32.534Z</time></trkpt><trkpt lat="43.3160217" lon="11.356365"><ele>226.0</ele><time>2026-04-06T11:16:33.537Z</time></trkpt><trkpt lat="43.316025" lon="11.3562767"><ele>226.0</ele><time>2026-04-06T11:16:34.541Z</time></trkpt><trkpt lat="43.3160417" lon="11.35617"><ele>225.99999999999997</ele><time>2026-04-06T11:16:36.535Z</time></trkpt><trkpt lat="43.3160775" lon="11.3560942"><ele>226.0</ele><time>2026-04-06T11:16:38.537Z</time></trkpt><trkpt lat="43.316109" lon="11.3560103"><ele>225.83333333333331</ele><time>2026-04-06T11:16:41.597Z</time></trkpt><trkpt lat="43.3161783" lon="11.3559617"><ele>225.66666666666666</ele><time>2026-04-06T11:16:43.539Z</time></trkpt><trkpt lat="43.3162417" lon="11.3558383"><ele>225.5</ele><time>2026-04-06T11:16:51.535Z</time></trkpt><trkpt lat="43.3163033" lon="11.3557117"><ele>225.33333333333331</ele><time>2026-04-06T11:16:53.538Z</time></trkpt><trkpt lat="43.3163417" lon="11.3556283"><ele>225.16666666666666</ele><time>2026-04-06T11:16:54.541Z</time></trkpt><trkpt lat="43.3163767" lon="11.35554"><ele>225.0</ele><time>2026-04-06T11:16:55.535Z</time></trkpt><trkpt lat="43.3163633" lon="11.3553717"><ele>225.00000000000003</ele><time>2026-04-06T11:16:57.535Z</time></trkpt><trkpt lat="43.31633" lon="11.3552933"><ele>225.0</ele><time>2026-04-06T11:16:58.536Z</time></trkpt><trkpt lat="43.3162733" lon="11.3552417"><ele>225.00000000000003</ele><time>2026-04-06T11:16:59.539Z</time></trkpt><trkpt lat="43.316195" lon="11.3552717"><ele>225.00000000000003</ele><time>2026-04-06T11:17:00.534Z</time></trkpt><trkpt lat="43.316125" lon="11.3553183"><ele>225.0</ele><time>2026-04-06T11:17:01.536Z</time></trkpt><trkpt lat="43.316075" lon="11.3553967"><ele>225.00000000000003</ele><time>2026-04-06T11:17:02.534Z</time></trkpt><trkpt lat="43.3160383" lon="11.355475"><ele>225.00000000000003</ele><time>2026-04-06T11:17:03.538Z</time></trkpt><trkpt lat="43.316015" lon="11.35559"><ele>225.0</ele><time>2026-04-06T11:17:04.541Z</time></trkpt><trkpt lat="43.3159833" lon="11.3557217"><ele>225.0</ele><time>2026-04-06T11:17:05.535Z</time></trkpt><trkpt lat="43.3159367" lon="11.3558533"><ele>225.0</ele><time>2026-04-06T11:17:06.532Z</time></trkpt><trkpt lat="43.3158783" lon="11.3559533"><ele>225.0</ele><time>2026-04-06T11:17:07.533Z</time></trkpt><trkpt lat="43.315825" lon="11.35603"><ele>225.0</ele><time>2026-04-06T11:17:08.54Z</time></trkpt><trkpt lat="43.3157467" lon="11.3561317"><ele>225.0</ele><time>2026-04-06T11:17:10.537Z</time></trkpt><trkpt lat="43.3156783" lon="11.3560717"><ele>225.0</ele><time>2026-04-06T11:17:13.537Z</time></trkpt><trkpt lat="43.3156167" lon="11.355965"><ele>225.0</ele><time>2026-04-06T11:17:15.541Z</time></trkpt><trkpt lat="43.31556" lon="11.355915"><ele>225.0</ele><time>2026-04-06T11:17:16.535Z</time></trkpt><trkpt lat="43.3155" lon="11.355885"><ele>225.0</ele><time>2026-04-06T11:17:17.542Z</time></trkpt><trkpt lat="43.3154267" lon="11.3558483"><ele>225.0</ele><time>2026-04-06T11:17:18.536Z</time></trkpt><trkpt lat="43.3153533" lon="11.355825"><ele>225.66666666666666</ele><time>2026-04-06T11:17:19.547Z</time></trkpt><trkpt lat="43.315275" lon="11.355815"><ele>226.33333333333331</ele><time>2026-04-06T11:17:20.538Z</time></trkpt><trkpt lat="43.315205" lon="11.3558367"><ele>227.0</ele><time>2026-04-06T11:17:21.538Z</time></trkpt><trkpt lat="43.3151383" lon="11.355885"><ele>227.66666666666666</ele><time>2026-04-06T11:17:22.535Z</time></trkpt><trkpt lat="43.31506" lon="11.3559367"><ele>228.33333333333331</ele><time>2026-04-06T11:17:23.546Z</time></trkpt><trkpt lat="43.3149767" lon="11.356005"><ele>229.0</ele><time>2026-04-06T11:17:24.539Z</time></trkpt><trkpt lat="43.3148883" lon="11.3560717"><ele>228.99999999999997</ele><time>2026-04-06T11:17:25.545Z</time></trkpt><trkpt lat="43.3148067" lon="11.356145"><ele>229.0</ele><time>2026-04-06T11:17:26.534Z</time></trkpt><trkpt lat="43.31473" lon="11.3562167"><ele>229.0</ele><time>2026-04-06T11:17:27.538Z</time></trkpt><trkpt lat="43.314665" lon="11.3562783"><ele>229.0</ele><time>2026-04-06T11:17:28.533Z</time></trkpt><trkpt lat="43.31461" lon="11.3563433"><ele>228.99999999999997</ele><time>2026-04-06T11:17:29.537Z</time></trkpt><trkpt lat="43.3145517" lon="11.3563767"><ele>229.0</ele><time>2026-04-06T11:17:30.536Z</time></trkpt><trkpt lat="43.3144567" lon="11.35633"><ele>231.79999999999998</ele><time>2026-04-06T11:17:32.548Z</time></trkpt><trkpt lat="43.3144717" lon="11.35616"><ele>234.59999999999997</ele><time>2026-04-06T11:17:34.534Z</time></trkpt><trkpt lat="43.3145067" lon="11.3560583"><ele>237.4</ele><time>2026-04-06T11:17:35.54Z</time></trkpt><trkpt lat="43.3145333" lon="11.3559517"><ele>240.2</ele><time>2026-04-06T11:17:36.537Z</time></trkpt><trkpt lat="43.3145483" lon="11.355825"><ele>243.0</ele><time>2026-04-06T11:17:37.544Z</time></trkpt><trkpt lat="43.314585" lon="11.35566"><ele>245.75</ele><time>2026-04-06T11:17:38.541Z</time></trkpt><trkpt lat="43.31462" lon="11.355485"><ele>248.5</ele><time>2026-04-06T11:17:39.533Z</time></trkpt><trkpt lat="43.31465" lon="11.3553033"><ele>251.25</ele><time>2026-04-06T11:17:40.534Z</time></trkpt><trkpt lat="43.314665" lon="11.35513"><ele>254.0</ele><time>2026-04-06T11:17:41.534Z</time></trkpt><trkpt lat="43.31467" lon="11.3549683"><ele>254.0</ele><time>2026-04-06T11:17:42.535Z</time></trkpt><trkpt lat="43.31467" lon="11.3548183"><ele>253.99999999999997</ele><time>2026-04-06T11:17:43.534Z</time></trkpt><trkpt lat="43.314655" lon="11.35468"><ele>253.99999999999997</ele><time>2026-04-06T11:17:44.536Z</time></trkpt><trkpt lat="43.3146217" lon="11.3545467"><ele>254.0</ele><time>2026-04-06T11:17:45.534Z</time></trkpt><trkpt lat="43.3145817" lon="11.3544233"><ele>254.0</ele><time>2026-04-06T11:17:46.537Z</time></trkpt><trkpt lat="43.31451" lon="11.3543167"><ele>254.25</ele><time>2026-04-06T11:17:47.536Z</time></trkpt><trkpt lat="43.31443" lon="11.3542067"><ele>254.5</ele><time>2026-04-06T11:17:48.538Z</time></trkpt><trkpt lat="43.3143567" lon="11.3540817"><ele>254.75</ele><time>2026-04-06T11:17:49.538Z</time></trkpt><trkpt lat="43.3142983" lon="11.3539467"><ele>255.0</ele><time>2026-04-06T11:17:50.535Z</time></trkpt><trkpt lat="43.314255" lon="11.3538033"><ele>255.0</ele><time>2026-04-06T11:17:51.54Z</time></trkpt><trkpt lat="43.31418" lon="11.35368"><ele>255.0</ele><time>2026-04-06T11:17:52.541Z</time></trkpt><trkpt lat="43.3140817" lon="11.3535767"><ele>255.0</ele><time>2026-04-06T11:17:53.538Z</time></trkpt><trkpt lat="43.3139817" lon="11.353465"><ele>255.0</ele><time>2026-04-06T11:17:54.543Z</time></trkpt><trkpt lat="43.3138833" lon="11.3533567"><ele>258.5</ele><time>2026-04-06T11:17:55.541Z</time></trkpt><trkpt lat="43.3137967" lon="11.353245"><ele>262.0</ele><time>2026-04-06T11:17:56.541Z</time></trkpt><trkpt lat="43.3137033" lon="11.3531367"><ele>265.5</ele><time>2026-04-06T11:17:57.542Z</time></trkpt><trkpt lat="43.3136133" lon="11.35303"><ele>269.0</ele><time>2026-04-06T11:17:58.535Z</time></trkpt><trkpt lat="43.31352" lon="11.3529183"><ele>269.0</ele><time>2026-04-06T11:17:59.534Z</time></trkpt><trkpt lat="43.31343" lon="11.3527967"><ele>269.0</ele><time>2026-04-06T11:18:00.533Z</time></trkpt><trkpt lat="43.31335" lon="11.352665"><ele>269.0</ele><time>2026-04-06T11:18:01.536Z</time></trkpt><trkpt lat="43.3132733" lon="11.352535"><ele>269.0</ele><time>2026-04-06T11:18:02.538Z</time></trkpt><trkpt lat="43.3132017" lon="11.3524133"><ele>269.0</ele><time>2026-04-06T11:18:03.538Z</time></trkpt><trkpt lat="43.31314" lon="11.3523"><ele>269.0</ele><time>2026-04-06T11:18:04.539Z</time></trkpt><trkpt lat="43.3130817" lon="11.3521983"><ele>269.0</ele><time>2026-04-06T11:18:05.547Z</time></trkpt><trkpt lat="43.31302" lon="11.3520967"><ele>269.0</ele><time>2026-04-06T11:18:06.537Z</time></trkpt><trkpt lat="43.3129633" lon="11.351975"><ele>269.0</ele><time>2026-04-06T11:18:07.537Z</time></trkpt><trkpt lat="43.3129133" lon="11.351835"><ele>270.75</ele><time>2026-04-06T11:18:08.534Z</time></trkpt><trkpt lat="43.3128683" lon="11.3516817"><ele>272.5</ele><time>2026-04-06T11:18:09.535Z</time></trkpt><trkpt lat="43.3128317" lon="11.351525"><ele>274.25</ele><time>2026-04-06T11:18:10.552Z</time></trkpt><trkpt lat="43.312805" lon="11.3513717"><ele>276.0</ele><time>2026-04-06T11:18:11.544Z</time></trkpt><trkpt lat="43.3127883" lon="11.351225"><ele>276.6</ele><time>2026-04-06T11:18:12.629Z</time></trkpt><trkpt lat="43.312775" lon="11.3510733"><ele>277.20000000000005</ele><time>2026-04-06T11:18:13.533Z</time></trkpt><trkpt lat="43.3127483" lon="11.35093"><ele>277.79999999999995</ele><time>2026-04-06T11:18:14.534Z</time></trkpt><trkpt lat="43.312715" lon="11.350785"><ele>278.4</ele><time>2026-04-06T11:18:15.537Z</time></trkpt><trkpt lat="43.31267" lon="11.350645"><ele>279.0</ele><time>2026-04-06T11:18:16.537Z</time></trkpt><trkpt lat="43.3126167" lon="11.3505117"><ele>279.0</ele><time>2026-04-06T11:18:17.539Z</time></trkpt><trkpt lat="43.312565" lon="11.3503867"><ele>279.0</ele><time>2026-04-06T11:18:18.621Z</time></trkpt><trkpt lat="43.312515" lon="11.3502633"><ele>279.0</ele><time>2026-04-06T11:18:19.536Z</time></trkpt><trkpt lat="43.312485" lon="11.3501433"><ele>279.0</ele><time>2026-04-06T11:18:20.54Z</time></trkpt><trkpt lat="43.3124667" lon="11.3500333"><ele>279.0</ele><time>2026-04-06T11:18:21.54Z</time></trkpt><trkpt lat="43.312465" lon="11.3499267"><ele>278.99999999999994</ele><time>2026-04-06T11:18:22.536Z</time></trkpt><trkpt lat="43.3124733" lon="11.3498333"><ele>279.0</ele><time>2026-04-06T11:18:23.543Z</time></trkpt><trkpt lat="43.3124867" lon="11.3497417"><ele>279.0</ele><time>2026-04-06T11:18:24.534Z</time></trkpt><trkpt lat="43.3125117" lon="11.3496567"><ele>279.0</ele><time>2026-04-06T11:18:25.533Z</time></trkpt><trkpt lat="43.31255" lon="11.3495683"><ele>279.0</ele><time>2026-04-06T11:18:26.538Z</time></trkpt><trkpt lat="43.312595" lon="11.349475"><ele>278.99999999999994</ele><time>2026-04-06T11:18:27.535Z</time></trkpt><trkpt lat="43.31263" lon="11.349375"><ele>279.0</ele><time>2026-04-06T11:18:28.535Z</time></trkpt><trkpt lat="43.3126617" lon="11.3492683"><ele>278.1666666666667</ele><time>2026-04-06T11:18:29.533Z</time></trkpt><trkpt lat="43.3126967" lon="11.3491717"><ele>277.3333333333333</ele><time>2026-04-06T11:18:30.537Z</time></trkpt><trkpt lat="43.3127283" lon="11.34908"><ele>276.5</ele><time>2026-04-06T11:18:31.543Z</time></trkpt><trkpt lat="43.3127233" lon="11.34897"><ele>275.66666666666663</ele><time>2026-04-06T11:18:32.535Z</time></trkpt><trkpt lat="43.3127017" lon="11.34886"><ele>274.8333333333333</ele><time>2026-04-06T11:18:33.542Z</time></trkpt><trkpt lat="43.3127" lon="11.348745"><ele>274.0</ele><time>2026-04-06T11:18:34.537Z</time></trkpt><trkpt lat="43.31267" lon="11.3486217"><ele>273.2</ele><time>2026-04-06T11:18:35.535Z</time></trkpt><trkpt lat="43.3126183" lon="11.3484967"><ele>272.4</ele><time>2026-04-06T11:18:36.544Z</time></trkpt><trkpt lat="43.3125567" lon="11.3483883"><ele>271.6</ele><time>2026-04-06T11:18:37.537Z</time></trkpt><trkpt lat="43.3124917" lon="11.3482867"><ele>270.8</ele><time>2026-04-06T11:18:38.536Z</time></trkpt><trkpt lat="43.3124317" lon="11.3481883"><ele>270.0</ele><time>2026-04-06T11:18:39.534Z</time></trkpt><trkpt lat="43.312375" lon="11.348105"><ele>269.0</ele><time>2026-04-06T11:18:40.535Z</time></trkpt><trkpt lat="43.31232" lon="11.347995"><ele>268.0</ele><time>2026-04-06T11:18:42.54Z</time></trkpt><trkpt lat="43.3122517" lon="11.348025"><ele>267.0</ele><time>2026-04-06T11:18:45.543Z</time></trkpt><trkpt lat="43.3122054" lon="11.3481051"><ele>266.0</ele><time>2026-04-06T11:18:48.594Z</time></trkpt><trkpt lat="43.31217" lon="11.3482271"><ele>265.0</ele><time>2026-04-06T11:18:49.579Z</time></trkpt><trkpt lat="43.3120967" lon="11.348365"><ele>265.0</ele><time>2026-04-06T11:18:50.538Z</time></trkpt><trkpt lat="43.31206" lon="11.3484683"><ele>265.0</ele><time>2026-04-06T11:18:51.537Z</time></trkpt><trkpt lat="43.3120233" lon="11.3486167"><ele>265.0</ele><time>2026-04-06T11:18:52.535Z</time></trkpt><trkpt lat="43.311995" lon="11.3487667"><ele>265.0</ele><time>2026-04-06T11:18:53.54Z</time></trkpt><trkpt lat="43.3119617" lon="11.348925"><ele>265.0</ele><time>2026-04-06T11:18:54.539Z</time></trkpt><trkpt lat="43.31192" lon="11.3490817"><ele>264.25</ele><time>2026-04-06T11:18:55.533Z</time></trkpt><trkpt lat="43.3118683" lon="11.3492283"><ele>263.5</ele><time>2026-04-06T11:18:56.533Z</time></trkpt><trkpt lat="43.3118133" lon="11.349365"><ele>262.75</ele><time>2026-04-06T11:18:57.536Z</time></trkpt><trkpt lat="43.311745" lon="11.3494883"><ele>262.0</ele><time>2026-04-06T11:18:58.545Z</time></trkpt><trkpt lat="43.3116633" lon="11.349605"><ele>262.0</ele><time>2026-04-06T11:18:59.537Z</time></trkpt><trkpt lat="43.3115733" lon="11.3496983"><ele>262.0</ele><time>2026-04-06T11:19:00.542Z</time></trkpt><trkpt lat="43.3114767" lon="11.34978"><ele>262.0</ele><time>2026-04-06T11:19:01.538Z</time></trkpt><trkpt lat="43.3113683" lon="11.3498317"><ele>262.0</ele><time>2026-04-06T11:19:02.544Z</time></trkpt><trkpt lat="43.3112633" lon="11.3498733"><ele>262.0</ele><time>2026-04-06T11:19:03.534Z</time></trkpt><trkpt lat="43.3111617" lon="11.3499183"><ele>262.0</ele><time>2026-04-06T11:19:04.534Z</time></trkpt><trkpt lat="43.311055" lon="11.34995"><ele>262.0</ele><time>2026-04-06T11:19:05.538Z</time></trkpt><trkpt lat="43.3109567" lon="11.3499867"><ele>262.0</ele><time>2026-04-06T11:19:06.536Z</time></trkpt><trkpt lat="43.3108633" lon="11.3500267"><ele>262.0</ele><time>2026-04-06T11:19:07.536Z</time></trkpt><trkpt lat="43.3107733" lon="11.3500583"><ele>262.0</ele><time>2026-04-06T11:19:08.534Z</time></trkpt><trkpt lat="43.3106867" lon="11.3500917"><ele>262.0</ele><time>2026-04-06T11:19:09.535Z</time></trkpt><trkpt lat="43.3106083" lon="11.3501217"><ele>262.0</ele><time>2026-04-06T11:19:10.533Z</time></trkpt><trkpt lat="43.3105383" lon="11.350165"><ele>262.0</ele><time>2026-04-06T11:19:11.535Z</time></trkpt><trkpt lat="43.3104717" lon="11.3502167"><ele>262.0</ele><time>2026-04-06T11:19:12.535Z</time></trkpt><trkpt lat="43.31039" lon="11.3502667"><ele>262.0</ele><time>2026-04-06T11:19:13.534Z</time></trkpt><trkpt lat="43.3103117" lon="11.3503183"><ele>262.0</ele><time>2026-04-06T11:19:14.537Z</time></trkpt><trkpt lat="43.3102283" lon="11.3503933"><ele>262.0</ele><time>2026-04-06T11:19:15.539Z</time></trkpt><trkpt lat="43.31017" lon="11.35051"><ele>262.0</ele><time>2026-04-06T11:19:16.534Z</time></trkpt><trkpt lat="43.3101133" lon="11.3506033"><ele>262.0</ele><time>2026-04-06T11:19:17.54Z</time></trkpt><trkpt lat="43.31005" lon="11.3506833"><ele>262.0</ele><time>2026-04-06T11:19:18.534Z</time></trkpt><trkpt lat="43.309995" lon="11.3507617"><ele>261.8333333333333</ele><time>2026-04-06T11:19:19.536Z</time></trkpt><trkpt lat="43.3099417" lon="11.350845"><ele>261.66666666666663</ele><time>2026-04-06T11:19:20.533Z</time></trkpt><trkpt lat="43.30989" lon="11.3509267"><ele>261.5</ele><time>2026-04-06T11:19:21.537Z</time></trkpt><trkpt lat="43.3098367" lon="11.3510217"><ele>261.3333333333333</ele><time>2026-04-06T11:19:22.535Z</time></trkpt><trkpt lat="43.3097833" lon="11.3511067"><ele>261.1666666666667</ele><time>2026-04-06T11:19:23.535Z</time></trkpt><trkpt lat="43.30973" lon="11.3512167"><ele>261.0</ele><time>2026-04-06T11:19:24.536Z</time></trkpt><trkpt lat="43.3096783" lon="11.3513383"><ele>261.8</ele><time>2026-04-06T11:19:25.543Z</time></trkpt><trkpt lat="43.30964" lon="11.35147"><ele>262.6</ele><time>2026-04-06T11:19:26.537Z</time></trkpt><trkpt lat="43.3096017" lon="11.3516067"><ele>263.4</ele><time>2026-04-06T11:19:27.536Z</time></trkpt><trkpt lat="43.3095683" lon="11.3517483"><ele>264.2</ele><time>2026-04-06T11:19:28.533Z</time></trkpt><trkpt lat="43.30954" lon="11.351895"><ele>265.0</ele><time>2026-04-06T11:19:29.534Z</time></trkpt><trkpt lat="43.3095158" lon="11.3520397"><ele>265.0</ele><time>2026-04-06T11:19:30.539Z</time></trkpt><trkpt lat="43.3094966" lon="11.3521827"><ele>265.0</ele><time>2026-04-06T11:19:31.54Z</time></trkpt><trkpt lat="43.3094694" lon="11.3523235"><ele>265.0</ele><time>2026-04-06T11:19:32.539Z</time></trkpt><trkpt lat="43.3094417" lon="11.3524663"><ele>265.0</ele><time>2026-04-06T11:19:33.539Z</time></trkpt><trkpt lat="43.309417" lon="11.3526119"><ele>265.0</ele><time>2026-04-06T11:19:34.535Z</time></trkpt><trkpt lat="43.3093898" lon="11.3527554"><ele>265.0</ele><time>2026-04-06T11:19:35.537Z</time></trkpt><trkpt lat="43.3093663" lon="11.3528985"><ele>265.0</ele><time>2026-04-06T11:19:36.536Z</time></trkpt><trkpt lat="43.3093458" lon="11.3530399"><ele>265.0</ele><time>2026-04-06T11:19:37.533Z</time></trkpt><trkpt lat="43.3093238" lon="11.3531788"><ele>265.0</ele><time>2026-04-06T11:19:38.535Z</time></trkpt><trkpt lat="43.3093062" lon="11.3533101"><ele>265.0</ele><time>2026-04-06T11:19:39.536Z</time></trkpt><trkpt lat="43.3092877" lon="11.3534352"><ele>265.0</ele><time>2026-04-06T11:19:40.536Z</time></trkpt><trkpt lat="43.3092612" lon="11.3535639"><ele>265.0</ele><time>2026-04-06T11:19:41.545Z</time></trkpt><trkpt lat="43.3092518" lon="11.3537058"><ele>265.0</ele><time>2026-04-06T11:19:42.533Z</time></trkpt><trkpt lat="43.3092463" lon="11.3538643"><ele>265.0</ele><time>2026-04-06T11:19:43.535Z</time></trkpt><trkpt lat="43.3092368" lon="11.3540304"><ele>265.0</ele><time>2026-04-06T11:19:44.537Z</time></trkpt><trkpt lat="43.3092245" lon="11.3541959"><ele>264.6</ele><time>2026-04-06T11:19:45.539Z</time></trkpt><trkpt lat="43.3092097" lon="11.3543544"><ele>264.2</ele><time>2026-04-06T11:19:46.534Z</time></trkpt><trkpt lat="43.309197" lon="11.3545064"><ele>263.8</ele><time>2026-04-06T11:19:47.533Z</time></trkpt><trkpt lat="43.309189" lon="11.354655"><ele>263.4</ele><time>2026-04-06T11:19:48.539Z</time></trkpt><trkpt lat="43.309194" lon="11.3547963"><ele>263.0</ele><time>2026-04-06T11:19:49.546Z</time></trkpt><trkpt lat="43.3092044" lon="11.3549292"><ele>263.0</ele><time>2026-04-06T11:19:50.536Z</time></trkpt><trkpt lat="43.3092276" lon="11.3550589"><ele>263.0</ele><time>2026-04-06T11:19:51.535Z</time></trkpt><trkpt lat="43.3092551" lon="11.3551971"><ele>263.0</ele><time>2026-04-06T11:19:52.532Z</time></trkpt><trkpt lat="43.3092825" lon="11.3553451"><ele>263.0</ele><time>2026-04-06T11:19:53.535Z</time></trkpt><trkpt lat="43.3093121" lon="11.355498"><ele>263.0</ele><time>2026-04-06T11:19:54.541Z</time></trkpt><trkpt lat="43.3093478" lon="11.3556477"><ele>262.6</ele><time>2026-04-06T11:19:55.539Z</time></trkpt><trkpt lat="43.3093838" lon="11.3558006"><ele>262.20000000000005</ele><time>2026-04-06T11:19:56.551Z</time></trkpt><trkpt lat="43.3094215" lon="11.3559475"><ele>261.8</ele><time>2026-04-06T11:19:57.538Z</time></trkpt><trkpt lat="43.3094574" lon="11.3560894"><ele>261.40000000000003</ele><time>2026-04-06T11:19:58.536Z</time></trkpt><trkpt lat="43.3094939" lon="11.3562312"><ele>261.0</ele><time>2026-04-06T11:19:59.538Z</time></trkpt><trkpt lat="43.309515" lon="11.3563816"><ele>259.5</ele><time>2026-04-06T11:20:00.539Z</time></trkpt><trkpt lat="43.3095095" lon="11.3565404"><ele>258.0</ele><time>2026-04-06T11:20:01.546Z</time></trkpt><trkpt lat="43.3094786" lon="11.356701"><ele>256.5</ele><time>2026-04-06T11:20:02.545Z</time></trkpt><trkpt lat="43.309435" lon="11.356855"><ele>255.0</ele><time>2026-04-06T11:20:03.539Z</time></trkpt><trkpt lat="43.309395" lon="11.357"><ele>255.0</ele><time>2026-04-06T11:20:04.539Z</time></trkpt><trkpt lat="43.3093467" lon="11.357145"><ele>255.0</ele><time>2026-04-06T11:20:05.539Z</time></trkpt><trkpt lat="43.3092933" lon="11.3572817"><ele>255.0</ele><time>2026-04-06T11:20:06.55Z</time></trkpt><trkpt lat="43.30922" lon="11.3573967"><ele>255.0</ele><time>2026-04-06T11:20:07.537Z</time></trkpt><trkpt lat="43.30913" lon="11.35751"><ele>254.5</ele><time>2026-04-06T11:20:08.539Z</time></trkpt><trkpt lat="43.3090267" lon="11.35762"><ele>254.0</ele><time>2026-04-06T11:20:09.544Z</time></trkpt><trkpt lat="43.3089233" lon="11.357725"><ele>253.5</ele><time>2026-04-06T11:20:10.537Z</time></trkpt><trkpt lat="43.3088183" lon="11.35783"><ele>253.0</ele><time>2026-04-06T11:20:11.535Z</time></trkpt><trkpt lat="43.308715" lon="11.3579417"><ele>251.5</ele><time>2026-04-06T11:20:12.538Z</time></trkpt><trkpt lat="43.30861" lon="11.3580533"><ele>250.0</ele><time>2026-04-06T11:20:13.543Z</time></trkpt><trkpt lat="43.3084967" lon="11.35815"><ele>248.5</ele><time>2026-04-06T11:20:14.535Z</time></trkpt><trkpt lat="43.3083767" lon="11.3582467"><ele>247.0</ele><time>2026-04-06T11:20:15.54Z</time></trkpt><trkpt lat="43.3082583" lon="11.3583483"><ele>247.0</ele><time>2026-04-06T11:20:16.534Z</time></trkpt><trkpt lat="43.3081417" lon="11.3584383"><ele>247.0</ele><time>2026-04-06T11:20:17.534Z</time></trkpt><trkpt lat="43.3080317" lon="11.358545"><ele>247.0</ele><time>2026-04-06T11:20:18.539Z</time></trkpt><trkpt lat="43.3079183" lon="11.358655"><ele>247.0</ele><time>2026-04-06T11:20:19.535Z</time></trkpt><trkpt lat="43.3078017" lon="11.3587817"><ele>244.0</ele><time>2026-04-06T11:20:20.533Z</time></trkpt><trkpt lat="43.3076883" lon="11.35892"><ele>241.0</ele><time>2026-04-06T11:20:21.536Z</time></trkpt><trkpt lat="43.3075717" lon="11.3590567"><ele>238.0</ele><time>2026-04-06T11:20:22.534Z</time></trkpt><trkpt lat="43.30745" lon="11.35919"><ele>238.0</ele><time>2026-04-06T11:20:23.532Z</time></trkpt><trkpt lat="43.3073183" lon="11.3593417"><ele>238.0</ele><time>2026-04-06T11:20:24.537Z</time></trkpt><trkpt lat="43.3072" lon="11.3594767"><ele>238.0</ele><time>2026-04-06T11:20:25.535Z</time></trkpt><trkpt lat="43.3070917" lon="11.3596133"><ele>238.75</ele><time>2026-04-06T11:20:26.539Z</time></trkpt><trkpt lat="43.306995" lon="11.3597333"><ele>239.5</ele><time>2026-04-06T11:20:27.538Z</time></trkpt><trkpt lat="43.3069017" lon="11.3598483"><ele>240.25</ele><time>2026-04-06T11:20:28.537Z</time></trkpt><trkpt lat="43.3068217" lon="11.3599517"><ele>241.0</ele><time>2026-04-06T11:20:29.536Z</time></trkpt><trkpt lat="43.306755" lon="11.36005"><ele>241.0</ele><time>2026-04-06T11:20:30.542Z</time></trkpt><trkpt lat="43.3066967" lon="11.3601417"><ele>241.00000000000003</ele><time>2026-04-06T11:20:31.547Z</time></trkpt><trkpt lat="43.3066317" lon="11.360225"><ele>241.00000000000003</ele><time>2026-04-06T11:20:32.54Z</time></trkpt><trkpt lat="43.3065717" lon="11.3603267"><ele>241.0</ele><time>2026-04-06T11:20:33.536Z</time></trkpt><trkpt lat="43.3065133" lon="11.36043"><ele>241.0</ele><time>2026-04-06T11:20:34.536Z</time></trkpt><trkpt lat="43.3064417" lon="11.3605217"><ele>242.83333333333331</ele><time>2026-04-06T11:20:35.542Z</time></trkpt><trkpt lat="43.306385" lon="11.360625"><ele>244.66666666666666</ele><time>2026-04-06T11:20:36.538Z</time></trkpt><trkpt lat="43.3063133" lon="11.3607117"><ele>246.5</ele><time>2026-04-06T11:20:37.544Z</time></trkpt><trkpt lat="43.3062488" lon="11.360799"><ele>248.33333333333331</ele><time>2026-04-06T11:20:38.543Z</time></trkpt><trkpt lat="43.3061984" lon="11.3608812"><ele>250.16666666666666</ele><time>2026-04-06T11:20:39.534Z</time></trkpt><trkpt lat="43.3061517" lon="11.3609747"><ele>252.0</ele><time>2026-04-06T11:20:40.537Z</time></trkpt><trkpt lat="43.3061094" lon="11.3610685"><ele>252.0</ele><time>2026-04-06T11:20:41.533Z</time></trkpt><trkpt lat="43.3060733" lon="11.3611621"><ele>252.0</ele><time>2026-04-06T11:20:42.537Z</time></trkpt><trkpt lat="43.3060323" lon="11.3612499"><ele>252.0</ele><time>2026-04-06T11:20:43.535Z</time></trkpt><trkpt lat="43.3059917" lon="11.3613354"><ele>252.0</ele><time>2026-04-06T11:20:44.536Z</time></trkpt><trkpt lat="43.3059429" lon="11.361413"><ele>252.0</ele><time>2026-04-06T11:20:45.536Z</time></trkpt><trkpt lat="43.3058836" lon="11.3614875"><ele>252.0</ele><time>2026-04-06T11:20:46.533Z</time></trkpt><trkpt lat="43.3058209" lon="11.361557"><ele>251.16666666666666</ele><time>2026-04-06T11:20:47.532Z</time></trkpt><trkpt lat="43.3057501" lon="11.3616232"><ele>250.33333333333331</ele><time>2026-04-06T11:20:48.538Z</time></trkpt><trkpt lat="43.3056739" lon="11.3616763"><ele>249.5</ele><time>2026-04-06T11:20:49.536Z</time></trkpt><trkpt lat="43.3055917" lon="11.3617105"><ele>248.66666666666666</ele><time>2026-04-06T11:20:50.533Z</time></trkpt><trkpt lat="43.3054997" lon="11.3617293"><ele>247.83333333333331</ele><time>2026-04-06T11:20:51.533Z</time></trkpt><trkpt lat="43.3054067" lon="11.3617446"><ele>247.0</ele><time>2026-04-06T11:20:52.535Z</time></trkpt><trkpt lat="43.3053135" lon="11.3617629"><ele>246.99999999999997</ele><time>2026-04-06T11:20:53.536Z</time></trkpt><trkpt lat="43.3052267" lon="11.3617783"><ele>247.0</ele><time>2026-04-06T11:20:54.535Z</time></trkpt><trkpt lat="43.3051447" lon="11.3617947"><ele>247.0</ele><time>2026-04-06T11:20:55.536Z</time></trkpt><trkpt lat="43.3050686" lon="11.3618058"><ele>247.0</ele><time>2026-04-06T11:20:56.538Z</time></trkpt><trkpt lat="43.3049984" lon="11.3618211"><ele>246.99999999999997</ele><time>2026-04-06T11:20:57.538Z</time></trkpt><trkpt lat="43.3049292" lon="11.3618349"><ele>247.0</ele><time>2026-04-06T11:20:58.536Z</time></trkpt><trkpt lat="43.3048584" lon="11.3618494"><ele>246.99999999999997</ele><time>2026-04-06T11:20:59.534Z</time></trkpt><trkpt lat="43.304783" lon="11.3618633"><ele>247.0</ele><time>2026-04-06T11:21:00.54Z</time></trkpt><trkpt lat="43.3047035" lon="11.3618698"><ele>247.0</ele><time>2026-04-06T11:21:01.542Z</time></trkpt><trkpt lat="43.3046201" lon="11.3618768"><ele>247.0</ele><time>2026-04-06T11:21:02.539Z</time></trkpt><trkpt lat="43.3045352" lon="11.361887"><ele>246.99999999999997</ele><time>2026-04-06T11:21:03.54Z</time></trkpt><trkpt lat="43.304449" lon="11.3619044"><ele>247.0</ele><time>2026-04-06T11:21:04.534Z</time></trkpt><trkpt lat="43.3043583" lon="11.3619411"><ele>246.8</ele><time>2026-04-06T11:21:05.533Z</time></trkpt><trkpt lat="43.3042668" lon="11.3620003"><ele>246.6</ele><time>2026-04-06T11:21:06.539Z</time></trkpt><trkpt lat="43.3041739" lon="11.3620563"><ele>246.40000000000003</ele><time>2026-04-06T11:21:07.535Z</time></trkpt><trkpt lat="43.3040832" lon="11.3621172"><ele>246.20000000000002</ele><time>2026-04-06T11:21:08.536Z</time></trkpt><trkpt lat="43.3039933" lon="11.36218"><ele>246.0</ele><time>2026-04-06T11:21:09.536Z</time></trkpt><trkpt lat="43.3039033" lon="11.3622467"><ele>246.0</ele><time>2026-04-06T11:21:10.539Z</time></trkpt><trkpt lat="43.3038167" lon="11.3623133"><ele>246.00000000000003</ele><time>2026-04-06T11:21:11.535Z</time></trkpt><trkpt lat="43.303735" lon="11.362385"><ele>246.00000000000003</ele><time>2026-04-06T11:21:12.538Z</time></trkpt><trkpt lat="43.3036533" lon="11.36246"><ele>246.0</ele><time>2026-04-06T11:21:13.539Z</time></trkpt><trkpt lat="43.3035817" lon="11.3625417"><ele>246.0</ele><time>2026-04-06T11:21:14.552Z</time></trkpt><trkpt lat="43.3035133" lon="11.3626333"><ele>246.0</ele><time>2026-04-06T11:21:15.532Z</time></trkpt><trkpt lat="43.30346" lon="11.362735"><ele>246.00000000000003</ele><time>2026-04-06T11:21:16.536Z</time></trkpt><trkpt lat="43.3034267" lon="11.3628683"><ele>246.00000000000003</ele><time>2026-04-06T11:21:17.536Z</time></trkpt><trkpt lat="43.3034017" lon="11.3630083"><ele>246.0</ele><time>2026-04-06T11:21:18.535Z</time></trkpt><trkpt lat="43.30338" lon="11.3631417"><ele>246.0</ele><time>2026-04-06T11:21:19.534Z</time></trkpt><trkpt lat="43.3033667" lon="11.36326"><ele>246.0</ele><time>2026-04-06T11:21:20.534Z</time></trkpt><trkpt lat="43.303345" lon="11.36337"><ele>246.0</ele><time>2026-04-06T11:21:21.535Z</time></trkpt><trkpt lat="43.3033367" lon="11.3634833"><ele>246.0</ele><time>2026-04-06T11:21:22.538Z</time></trkpt><trkpt lat="43.3033133" lon="11.3635967"><ele>246.0</ele><time>2026-04-06T11:21:23.534Z</time></trkpt><trkpt lat="43.3032767" lon="11.3637117"><ele>246.0</ele><time>2026-04-06T11:21:24.534Z</time></trkpt><trkpt lat="43.3032233" lon="11.36381"><ele>246.0</ele><time>2026-04-06T11:21:25.536Z</time></trkpt><trkpt lat="43.30316" lon="11.3638833"><ele>246.0</ele><time>2026-04-06T11:21:26.536Z</time></trkpt><trkpt lat="43.3030933" lon="11.3639467"><ele>246.0</ele><time>2026-04-06T11:21:27.537Z</time></trkpt><trkpt lat="43.3030117" lon="11.3639833"><ele>246.0</ele><time>2026-04-06T11:21:28.533Z</time></trkpt><trkpt lat="43.3029133" lon="11.3639883"><ele>246.0</ele><time>2026-04-06T11:21:29.54Z</time></trkpt><trkpt lat="43.3028283" lon="11.3639917"><ele>246.0</ele><time>2026-04-06T11:21:30.542Z</time></trkpt><trkpt lat="43.302745" lon="11.3639967"><ele>246.0</ele><time>2026-04-06T11:21:31.533Z</time></trkpt><trkpt lat="43.3026567" lon="11.36401"><ele>244.8</ele><time>2026-04-06T11:21:32.54Z</time></trkpt><trkpt lat="43.3025683" lon="11.364045"><ele>243.60000000000002</ele><time>2026-04-06T11:21:33.532Z</time></trkpt><trkpt lat="43.302475" lon="11.3640917"><ele>242.4</ele><time>2026-04-06T11:21:34.534Z</time></trkpt><trkpt lat="43.3023783" lon="11.3641333"><ele>241.2</ele><time>2026-04-06T11:21:35.536Z</time></trkpt><trkpt lat="43.30228" lon="11.3641817"><ele>240.0</ele><time>2026-04-06T11:21:36.54Z</time></trkpt><trkpt lat="43.302185" lon="11.3642317"><ele>240.0</ele><time>2026-04-06T11:21:37.537Z</time></trkpt><trkpt lat="43.30209" lon="11.3643033"><ele>240.0</ele><time>2026-04-06T11:21:38.534Z</time></trkpt><trkpt lat="43.302005" lon="11.36438"><ele>240.0</ele><time>2026-04-06T11:21:39.543Z</time></trkpt><trkpt lat="43.3019333" lon="11.364465"><ele>240.0</ele><time>2026-04-06T11:21:40.537Z</time></trkpt><trkpt lat="43.3018683" lon="11.3645633"><ele>240.0</ele><time>2026-04-06T11:21:41.536Z</time></trkpt><trkpt lat="43.301815" lon="11.3646817"><ele>240.6</ele><time>2026-04-06T11:21:42.535Z</time></trkpt><trkpt lat="43.3017767" lon="11.3648083"><ele>241.2</ele><time>2026-04-06T11:21:43.541Z</time></trkpt><trkpt lat="43.301745" lon="11.3649417"><ele>241.8</ele><time>2026-04-06T11:21:44.542Z</time></trkpt><trkpt lat="43.3017017" lon="11.365065"><ele>242.4</ele><time>2026-04-06T11:21:45.54Z</time></trkpt><trkpt lat="43.301645" lon="11.365175"><ele>243.0</ele><time>2026-04-06T11:21:46.534Z</time></trkpt><trkpt lat="43.3015717" lon="11.3652667"><ele>243.0</ele><time>2026-04-06T11:21:47.533Z</time></trkpt><trkpt lat="43.3014783" lon="11.3653383"><ele>243.0</ele><time>2026-04-06T11:21:48.533Z</time></trkpt><trkpt lat="43.30138" lon="11.3654067"><ele>243.0</ele><time>2026-04-06T11:21:49.534Z</time></trkpt><trkpt lat="43.3012767" lon="11.3654617"><ele>243.0</ele><time>2026-04-06T11:21:50.539Z</time></trkpt><trkpt lat="43.301175" lon="11.36552"><ele>243.0</ele><time>2026-04-06T11:21:51.535Z</time></trkpt><trkpt lat="43.3010817" lon="11.3655833"><ele>242.60000000000002</ele><time>2026-04-06T11:21:52.534Z</time></trkpt><trkpt lat="43.3009883" lon="11.3656333"><ele>242.20000000000002</ele><time>2026-04-06T11:21:53.538Z</time></trkpt><trkpt lat="43.3008983" lon="11.3656783"><ele>241.8</ele><time>2026-04-06T11:21:54.534Z</time></trkpt><trkpt lat="43.3008117" lon="11.3657233"><ele>241.4</ele><time>2026-04-06T11:21:55.542Z</time></trkpt><trkpt lat="43.3007167" lon="11.36574"><ele>241.0</ele><time>2026-04-06T11:21:56.538Z</time></trkpt><trkpt lat="43.3006217" lon="11.365735"><ele>241.60000000000002</ele><time>2026-04-06T11:21:57.537Z</time></trkpt><trkpt lat="43.300525" lon="11.3657433"><ele>242.20000000000002</ele><time>2026-04-06T11:21:58.535Z</time></trkpt><trkpt lat="43.3004267" lon="11.3657533"><ele>242.79999999999998</ele><time>2026-04-06T11:21:59.54Z</time></trkpt><trkpt lat="43.3003317" lon="11.36575"><ele>243.39999999999998</ele><time>2026-04-06T11:22:00.535Z</time></trkpt><trkpt lat="43.3002383" lon="11.3657667"><ele>244.0</ele><time>2026-04-06T11:22:01.537Z</time></trkpt><trkpt lat="43.3001467" lon="11.36579"><ele>244.0</ele><time>2026-04-06T11:22:02.544Z</time></trkpt><trkpt lat="43.3000583" lon="11.365855"><ele>243.99999999999997</ele><time>2026-04-06T11:22:03.533Z</time></trkpt><trkpt lat="43.2999783" lon="11.365925"><ele>243.99999999999997</ele><time>2026-04-06T11:22:04.534Z</time></trkpt><trkpt lat="43.299905" lon="11.3659967"><ele>244.0</ele><time>2026-04-06T11:22:05.54Z</time></trkpt><trkpt lat="43.2998383" lon="11.3660533"><ele>244.0</ele><time>2026-04-06T11:22:06.534Z</time></trkpt><trkpt lat="43.299775" lon="11.3661383"><ele>242.6</ele><time>2026-04-06T11:22:07.534Z</time></trkpt><trkpt lat="43.2996983" lon="11.366225"><ele>241.2</ele><time>2026-04-06T11:22:08.537Z</time></trkpt><trkpt lat="43.2996233" lon="11.36633"><ele>239.79999999999998</ele><time>2026-04-06T11:22:09.534Z</time></trkpt><trkpt lat="43.29954" lon="11.36643"><ele>238.39999999999998</ele><time>2026-04-06T11:22:10.537Z</time></trkpt><trkpt lat="43.299455" lon="11.3665317"><ele>237.0</ele><time>2026-04-06T11:22:11.539Z</time></trkpt><trkpt lat="43.299365" lon="11.36663"><ele>237.0</ele><time>2026-04-06T11:22:12.535Z</time></trkpt><trkpt lat="43.2992783" lon="11.3667467"><ele>237.0</ele><time>2026-04-06T11:22:13.535Z</time></trkpt><trkpt lat="43.2992" lon="11.3668633"><ele>237.0</ele><time>2026-04-06T11:22:14.536Z</time></trkpt><trkpt lat="43.299125" lon="11.36698"><ele>237.0</ele><time>2026-04-06T11:22:15.534Z</time></trkpt><trkpt lat="43.29906" lon="11.36711"><ele>237.5</ele><time>2026-04-06T11:22:16.537Z</time></trkpt><trkpt lat="43.2989983" lon="11.3672467"><ele>238.0</ele><time>2026-04-06T11:22:17.534Z</time></trkpt><trkpt lat="43.2989417" lon="11.367395"><ele>238.5</ele><time>2026-04-06T11:22:18.542Z</time></trkpt><trkpt lat="43.2988833" lon="11.3675433"><ele>239.0</ele><time>2026-04-06T11:22:19.534Z</time></trkpt><trkpt lat="43.2988267" lon="11.3676917"><ele>238.0</ele><time>2026-04-06T11:22:20.54Z</time></trkpt><trkpt lat="43.2987733" lon="11.3678367"><ele>237.0</ele><time>2026-04-06T11:22:21.535Z</time></trkpt><trkpt lat="43.29871" lon="11.3679733"><ele>236.0</ele><time>2026-04-06T11:22:22.532Z</time></trkpt><trkpt lat="43.298645" lon="11.368105"><ele>235.0</ele><time>2026-04-06T11:22:23.535Z</time></trkpt><trkpt lat="43.2985833" lon="11.3682283"><ele>235.0</ele><time>2026-04-06T11:22:24.534Z</time></trkpt><trkpt lat="43.2985167" lon="11.3683317"><ele>235.0</ele><time>2026-04-06T11:22:25.537Z</time></trkpt><trkpt lat="43.29844" lon="11.368415"><ele>235.0</ele><time>2026-04-06T11:22:26.538Z</time></trkpt><trkpt lat="43.2983567" lon="11.3684717"><ele>235.0</ele><time>2026-04-06T11:22:27.534Z</time></trkpt><trkpt lat="43.2982783" lon="11.3685117"><ele>235.0</ele><time>2026-04-06T11:22:28.541Z</time></trkpt><trkpt lat="43.2981983" lon="11.36854"><ele>234.99999999999997</ele><time>2026-04-06T11:22:29.54Z</time></trkpt><trkpt lat="43.29813" lon="11.368565"><ele>235.0</ele><time>2026-04-06T11:22:30.537Z</time></trkpt><trkpt lat="43.2980633" lon="11.3685733"><ele>235.0</ele><time>2026-04-06T11:22:31.534Z</time></trkpt><trkpt lat="43.2979917" lon="11.36858"><ele>235.0</ele><time>2026-04-06T11:22:32.535Z</time></trkpt><trkpt lat="43.29791" lon="11.368565"><ele>234.99999999999997</ele><time>2026-04-06T11:22:33.535Z</time></trkpt><trkpt lat="43.2978267" lon="11.3685333"><ele>235.0</ele><time>2026-04-06T11:22:34.54Z</time></trkpt><trkpt lat="43.29774" lon="11.3684917"><ele>234.99999999999997</ele><time>2026-04-06T11:22:35.538Z</time></trkpt><trkpt lat="43.2976567" lon="11.3684517"><ele>235.0</ele><time>2026-04-06T11:22:36.535Z</time></trkpt><trkpt lat="43.2975767" lon="11.3684"><ele>235.0</ele><time>2026-04-06T11:22:37.534Z</time></trkpt><trkpt lat="43.297495" lon="11.3683517"><ele>235.0</ele><time>2026-04-06T11:22:38.533Z</time></trkpt><trkpt lat="43.2974117" lon="11.3683"><ele>234.99999999999997</ele><time>2026-04-06T11:22:39.535Z</time></trkpt><trkpt lat="43.2973267" lon="11.3682683"><ele>235.0</ele><time>2026-04-06T11:22:40.558Z</time></trkpt><trkpt lat="43.297245" lon="11.36824"><ele>235.0</ele><time>2026-04-06T11:22:41.539Z</time></trkpt><trkpt lat="43.2971617" lon="11.3682117"><ele>235.0</ele><time>2026-04-06T11:22:42.533Z</time></trkpt><trkpt lat="43.2970717" lon="11.3681967"><ele>235.0</ele><time>2026-04-06T11:22:43.534Z</time></trkpt><trkpt lat="43.29698" lon="11.3681533"><ele>235.0</ele><time>2026-04-06T11:22:44.539Z</time></trkpt><trkpt lat="43.2968633" lon="11.3681117"><ele>235.0</ele><time>2026-04-06T11:22:45.535Z</time></trkpt><trkpt lat="43.296735" lon="11.36808"><ele>235.0</ele><time>2026-04-06T11:22:46.54Z</time></trkpt><trkpt lat="43.2966083" lon="11.368065"><ele>235.0</ele><time>2026-04-06T11:22:47.534Z</time></trkpt><trkpt lat="43.2964833" lon="11.3680717"><ele>235.0</ele><time>2026-04-06T11:22:48.538Z</time></trkpt><trkpt lat="43.2963583" lon="11.3680733"><ele>235.0</ele><time>2026-04-06T11:22:49.539Z</time></trkpt><trkpt lat="43.296235" lon="11.3681"><ele>237.5</ele><time>2026-04-06T11:22:50.543Z</time></trkpt><trkpt lat="43.2961167" lon="11.3681433"><ele>240.0</ele><time>2026-04-06T11:22:51.547Z</time></trkpt><trkpt lat="43.2960017" lon="11.3681933"><ele>242.5</ele><time>2026-04-06T11:22:52.545Z</time></trkpt><trkpt lat="43.2958967" lon="11.3682517"><ele>245.0</ele><time>2026-04-06T11:22:53.536Z</time></trkpt><trkpt lat="43.2958033" lon="11.3682917"><ele>245.00000000000003</ele><time>2026-04-06T11:22:54.54Z</time></trkpt><trkpt lat="43.2957233" lon="11.3683267"><ele>245.0</ele><time>2026-04-06T11:22:55.542Z</time></trkpt><trkpt lat="43.29565" lon="11.3683367"><ele>245.0</ele><time>2026-04-06T11:22:56.54Z</time></trkpt><trkpt lat="43.295575" lon="11.3683517"><ele>245.0</ele><time>2026-04-06T11:22:57.533Z</time></trkpt><trkpt lat="43.2954883" lon="11.3683633"><ele>245.00000000000003</ele><time>2026-04-06T11:22:58.536Z</time></trkpt><trkpt lat="43.2954033" lon="11.36837"><ele>245.0</ele><time>2026-04-06T11:22:59.537Z</time></trkpt><trkpt lat="43.29532" lon="11.368375"><ele>243.6</ele><time>2026-04-06T11:23:00.54Z</time></trkpt><trkpt lat="43.2952367" lon="11.368415"><ele>242.2</ele><time>2026-04-06T11:23:01.533Z</time></trkpt><trkpt lat="43.29515" lon="11.3684517"><ele>240.8</ele><time>2026-04-06T11:23:02.534Z</time></trkpt><trkpt lat="43.2950683" lon="11.3685183"><ele>239.4</ele><time>2026-04-06T11:23:03.542Z</time></trkpt><trkpt lat="43.2949867" lon="11.3685967"><ele>238.0</ele><time>2026-04-06T11:23:04.538Z</time></trkpt><trkpt lat="43.29492" lon="11.368695"><ele>238.0</ele><time>2026-04-06T11:23:05.537Z</time></trkpt><trkpt lat="43.2948667" lon="11.368815"><ele>238.0</ele><time>2026-04-06T11:23:06.535Z</time></trkpt><trkpt lat="43.29482" lon="11.36893"><ele>238.0</ele><time>2026-04-06T11:23:07.538Z</time></trkpt><trkpt lat="43.29476" lon="11.3690317"><ele>238.0</ele><time>2026-04-06T11:23:08.534Z</time></trkpt><trkpt lat="43.2946917" lon="11.3691183"><ele>238.0</ele><time>2026-04-06T11:23:09.536Z</time></trkpt><trkpt lat="43.29461" lon="11.36919"><ele>236.0</ele><time>2026-04-06T11:23:10.535Z</time></trkpt><trkpt lat="43.2945167" lon="11.3692683"><ele>234.0</ele><time>2026-04-06T11:23:11.536Z</time></trkpt><trkpt lat="43.2944167" lon="11.36934"><ele>232.0</ele><time>2026-04-06T11:23:12.535Z</time></trkpt><trkpt lat="43.294305" lon="11.36942"><ele>230.0</ele><time>2026-04-06T11:23:13.537Z</time></trkpt><trkpt lat="43.2941867" lon="11.369505"><ele>230.0</ele><time>2026-04-06T11:23:14.536Z</time></trkpt><trkpt lat="43.294065" lon="11.3695817"><ele>230.0</ele><time>2026-04-06T11:23:15.536Z</time></trkpt><trkpt lat="43.29394" lon="11.3696683"><ele>230.0</ele><time>2026-04-06T11:23:16.541Z</time></trkpt><trkpt lat="43.293815" lon="11.369745"><ele>230.0</ele><time>2026-04-06T11:23:17.54Z</time></trkpt><trkpt lat="43.2936933" lon="11.3698133"><ele>228.75</ele><time>2026-04-06T11:23:18.54Z</time></trkpt><trkpt lat="43.2935717" lon="11.3698767"><ele>227.5</ele><time>2026-04-06T11:23:19.537Z</time></trkpt><trkpt lat="43.2934467" lon="11.3699433"><ele>226.25</ele><time>2026-04-06T11:23:20.542Z</time></trkpt><trkpt lat="43.293315" lon="11.3699933"><ele>225.0</ele><time>2026-04-06T11:23:21.533Z</time></trkpt><trkpt lat="43.2931783" lon="11.3700483"><ele>224.0</ele><time>2026-04-06T11:23:22.54Z</time></trkpt><trkpt lat="43.293035" lon="11.3700883"><ele>223.0</ele><time>2026-04-06T11:23:23.536Z</time></trkpt><trkpt lat="43.2928767" lon="11.370115"><ele>222.0</ele><time>2026-04-06T11:23:24.552Z</time></trkpt><trkpt lat="43.29271" lon="11.3701183"><ele>222.0</ele><time>2026-04-06T11:23:25.538Z</time></trkpt><trkpt lat="43.292555" lon="11.3701117"><ele>222.0</ele><time>2026-04-06T11:23:26.539Z</time></trkpt><trkpt lat="43.2924117" lon="11.3701017"><ele>222.0</ele><time>2026-04-06T11:23:27.537Z</time></trkpt><trkpt lat="43.29227" lon="11.37009"><ele>222.0</ele><time>2026-04-06T11:23:28.538Z</time></trkpt><trkpt lat="43.292125" lon="11.3700917"><ele>222.33333333333331</ele><time>2026-04-06T11:23:29.539Z</time></trkpt><trkpt lat="43.291975" lon="11.3701033"><ele>222.66666666666666</ele><time>2026-04-06T11:23:30.54Z</time></trkpt><trkpt lat="43.2918233" lon="11.3701283"><ele>223.0</ele><time>2026-04-06T11:23:31.541Z</time></trkpt><trkpt lat="43.2916733" lon="11.3701767"><ele>223.0</ele><time>2026-04-06T11:23:32.539Z</time></trkpt><trkpt lat="43.291535" lon="11.37024"><ele>223.0</ele><time>2026-04-06T11:23:33.535Z</time></trkpt><trkpt lat="43.2914133" lon="11.3703133"><ele>223.0</ele><time>2026-04-06T11:23:34.535Z</time></trkpt><trkpt lat="43.2913" lon="11.370395"><ele>223.0</ele><time>2026-04-06T11:23:35.536Z</time></trkpt><trkpt lat="43.2911933" lon="11.370475"><ele>223.4</ele><time>2026-04-06T11:23:36.535Z</time></trkpt><trkpt lat="43.2910867" lon="11.3705417"><ele>223.8</ele><time>2026-04-06T11:23:37.537Z</time></trkpt><trkpt lat="43.2909867" lon="11.3705933"><ele>224.2</ele><time>2026-04-06T11:23:38.538Z</time></trkpt><trkpt lat="43.2908933" lon="11.3706267"><ele>224.6</ele><time>2026-04-06T11:23:39.54Z</time></trkpt><trkpt lat="43.2908083" lon="11.3706567"><ele>225.0</ele><time>2026-04-06T11:23:40.533Z</time></trkpt><trkpt lat="43.290735" lon="11.3706967"><ele>225.00000000000003</ele><time>2026-04-06T11:23:41.535Z</time></trkpt><trkpt lat="43.290665" lon="11.3707367"><ele>225.0</ele><time>2026-04-06T11:23:42.541Z</time></trkpt><trkpt lat="43.2906033" lon="11.3707733"><ele>225.00000000000003</ele><time>2026-04-06T11:23:43.546Z</time></trkpt><trkpt lat="43.29055" lon="11.37082"><ele>225.00000000000003</ele><time>2026-04-06T11:23:44.534Z</time></trkpt><trkpt lat="43.290495" lon="11.3708683"><ele>225.0</ele><time>2026-04-06T11:23:45.533Z</time></trkpt><trkpt lat="43.29045" lon="11.3709417"><ele>225.00000000000003</ele><time>2026-04-06T11:23:46.542Z</time></trkpt><trkpt lat="43.2903983" lon="11.371005"><ele>225.00000000000003</ele><time>2026-04-06T11:23:47.534Z</time></trkpt><trkpt lat="43.2903667" lon="11.3710967"><ele>225.0</ele><time>2026-04-06T11:23:48.537Z</time></trkpt><trkpt lat="43.2903417" lon="11.37118"><ele>225.0</ele><time>2026-04-06T11:23:49.534Z</time></trkpt><trkpt lat="43.2903017" lon="11.3712583"><ele>225.0</ele><time>2026-04-06T11:23:50.535Z</time></trkpt><trkpt lat="43.2902533" lon="11.3713283"><ele>225.0</ele><time>2026-04-06T11:23:51.538Z</time></trkpt><trkpt lat="43.2902017" lon="11.37139"><ele>225.0</ele><time>2026-04-06T11:23:52.534Z</time></trkpt><trkpt lat="43.2900983" lon="11.3714817"><ele>225.0</ele><time>2026-04-06T11:23:54.536Z</time></trkpt><trkpt lat="43.2899983" lon="11.371535"><ele>225.0</ele><time>2026-04-06T11:23:56.534Z</time></trkpt><trkpt lat="43.2899267" lon="11.3716417"><ele>225.0</ele><time>2026-04-06T11:23:58.551Z</time></trkpt><trkpt lat="43.2898967" lon="11.371775"><ele>225.0</ele><time>2026-04-06T11:24:00.533Z</time></trkpt><trkpt lat="43.289905" lon="11.3718933"><ele>225.0</ele><time>2026-04-06T11:24:02.544Z</time></trkpt><trkpt lat="43.2898833" lon="11.372015"><ele>225.0</ele><time>2026-04-06T11:24:04.534Z</time></trkpt><trkpt lat="43.2898283" lon="11.3721083"><ele>223.6</ele><time>2026-04-06T11:24:06.544Z</time></trkpt><trkpt lat="43.28973" lon="11.3721767"><ele>222.2</ele><time>2026-04-06T11:24:08.533Z</time></trkpt><trkpt lat="43.28964" lon="11.3722367"><ele>220.8</ele><time>2026-04-06T11:24:10.532Z</time></trkpt><trkpt lat="43.289545" lon="11.3722933"><ele>219.4</ele><time>2026-04-06T11:24:12.537Z</time></trkpt><trkpt lat="43.2894517" lon="11.3723533"><ele>218.0</ele><time>2026-04-06T11:24:14.538Z</time></trkpt><trkpt lat="43.2893517" lon="11.3724083"><ele>217.83333333333334</ele><time>2026-04-06T11:24:16.534Z</time></trkpt><trkpt lat="43.289265" lon="11.372455"><ele>217.66666666666669</ele><time>2026-04-06T11:24:18.534Z</time></trkpt><trkpt lat="43.2891917" lon="11.3724867"><ele>217.5</ele><time>2026-04-06T11:24:20.536Z</time></trkpt><trkpt lat="43.2891433" lon="11.3725433"><ele>217.33333333333331</ele><time>2026-04-06T11:24:22.539Z</time></trkpt><trkpt lat="43.2891133" lon="11.3726383"><ele>217.16666666666666</ele><time>2026-04-06T11:24:24.537Z</time></trkpt><trkpt lat="43.2891017" lon="11.37275"><ele>217.0</ele><time>2026-04-06T11:24:26.535Z</time></trkpt><trkpt lat="43.2890917" lon="11.37286"><ele>216.99999999999997</ele><time>2026-04-06T11:24:28.535Z</time></trkpt><trkpt lat="43.2890967" lon="11.3729683"><ele>217.0</ele><time>2026-04-06T11:24:30.54Z</time></trkpt><trkpt lat="43.289095" lon="11.37308"><ele>217.0</ele><time>2026-04-06T11:24:32.537Z</time></trkpt><trkpt lat="43.28909" lon="11.3732"><ele>217.0</ele><time>2026-04-06T11:24:34.532Z</time></trkpt><trkpt lat="43.2890883" lon="11.3733167"><ele>216.99999999999997</ele><time>2026-04-06T11:24:36.538Z</time></trkpt><trkpt lat="43.2890867" lon="11.3734367"><ele>217.0</ele><time>2026-04-06T11:24:38.547Z</time></trkpt><trkpt lat="43.2890783" lon="11.3735583"><ele>215.83333333333331</ele><time>2026-04-06T11:24:40.539Z</time></trkpt><trkpt lat="43.2890783" lon="11.3736833"><ele>214.66666666666666</ele><time>2026-04-06T11:24:42.538Z</time></trkpt><trkpt lat="43.2890767" lon="11.3737967"><ele>213.5</ele><time>2026-04-06T11:24:44.541Z</time></trkpt><trkpt lat="43.2890817" lon="11.373905"><ele>212.33333333333331</ele><time>2026-04-06T11:24:46.539Z</time></trkpt><trkpt lat="43.289085" lon="11.3740167"><ele>211.16666666666666</ele><time>2026-04-06T11:24:48.535Z</time></trkpt><trkpt lat="43.2890867" lon="11.3741483"><ele>210.0</ele><time>2026-04-06T11:24:50.539Z</time></trkpt><trkpt lat="43.28909" lon="11.3742967"><ele>208.66666666666666</ele><time>2026-04-06T11:24:52.545Z</time></trkpt><trkpt lat="43.289095" lon="11.3744583"><ele>207.33333333333331</ele><time>2026-04-06T11:24:54.533Z</time></trkpt><trkpt lat="43.2890967" lon="11.374545"><ele>206.0</ele><time>2026-04-06T11:24:55.534Z</time></trkpt><trkpt lat="43.2891" lon="11.3746367"><ele>204.66666666666666</ele><time>2026-04-06T11:24:56.538Z</time></trkpt><trkpt lat="43.2891017" lon="11.3747333"><ele>203.33333333333331</ele><time>2026-04-06T11:24:57.535Z</time></trkpt><trkpt lat="43.289105" lon="11.3748283"><ele>202.0</ele><time>2026-04-06T11:24:58.533Z</time></trkpt><trkpt lat="43.28911" lon="11.374925"><ele>200.66666666666666</ele><time>2026-04-06T11:24:59.537Z</time></trkpt><trkpt lat="43.2891117" lon="11.375025"><ele>199.33333333333331</ele><time>2026-04-06T11:25:00.537Z</time></trkpt><trkpt lat="43.2891133" lon="11.3751317"><ele>198.0</ele><time>2026-04-06T11:25:01.537Z</time></trkpt><trkpt lat="43.2891217" lon="11.3752383"><ele>196.66666666666669</ele><time>2026-04-06T11:25:02.535Z</time></trkpt><trkpt lat="43.2891267" lon="11.3753383"><ele>195.33333333333334</ele><time>2026-04-06T11:25:03.534Z</time></trkpt><trkpt lat="43.2891367" lon="11.37543"><ele>194.0</ele><time>2026-04-06T11:25:04.531Z</time></trkpt><trkpt lat="43.2891467" lon="11.375595"><ele>192.85714285714286</ele><time>2026-04-06T11:25:06.538Z</time></trkpt><trkpt lat="43.28915" lon="11.3756833"><ele>191.71428571428572</ele><time>2026-04-06T11:25:07.534Z</time></trkpt><trkpt lat="43.289155" lon="11.3757883"><ele>190.57142857142858</ele><time>2026-04-06T11:25:08.535Z</time></trkpt><trkpt lat="43.2891483" lon="11.3758933"><ele>189.42857142857144</ele><time>2026-04-06T11:25:09.536Z</time></trkpt><trkpt lat="43.28915" lon="11.375995"><ele>188.28571428571428</ele><time>2026-04-06T11:25:10.549Z</time></trkpt><trkpt lat="43.28915" lon="11.3760967"><ele>187.14285714285717</ele><time>2026-04-06T11:25:11.536Z</time></trkpt><trkpt lat="43.28915" lon="11.3762067"><ele>186.0</ele><time>2026-04-06T11:25:12.534Z</time></trkpt><trkpt lat="43.2891567" lon="11.3763317"><ele>185.4</ele><time>2026-04-06T11:25:13.533Z</time></trkpt><trkpt lat="43.289165" lon="11.3764633"><ele>184.8</ele><time>2026-04-06T11:25:14.538Z</time></trkpt><trkpt lat="43.2891733" lon="11.3765917"><ele>184.20000000000002</ele><time>2026-04-06T11:25:15.538Z</time></trkpt><trkpt lat="43.2891833" lon="11.3767183"><ele>183.60000000000002</ele><time>2026-04-06T11:25:16.536Z</time></trkpt><trkpt lat="43.2891967" lon="11.376845"><ele>183.0</ele><time>2026-04-06T11:25:17.536Z</time></trkpt><trkpt lat="43.2892067" lon="11.376965"><ele>183.0</ele><time>2026-04-06T11:25:18.537Z</time></trkpt><trkpt lat="43.2892183" lon="11.377075"><ele>183.0</ele><time>2026-04-06T11:25:19.535Z</time></trkpt><trkpt lat="43.2892283" lon="11.37718"><ele>183.0</ele><time>2026-04-06T11:25:20.546Z</time></trkpt><trkpt lat="43.2892367" lon="11.37728"><ele>183.0</ele><time>2026-04-06T11:25:21.539Z</time></trkpt><trkpt lat="43.2892467" lon="11.3773833"><ele>183.0</ele><time>2026-04-06T11:25:22.534Z</time></trkpt><trkpt lat="43.2892567" lon="11.3774783"><ele>183.0</ele><time>2026-04-06T11:25:23.532Z</time></trkpt><trkpt lat="43.2892583" lon="11.377575"><ele>183.0</ele><time>2026-04-06T11:25:24.536Z</time></trkpt><trkpt lat="43.2892517" lon="11.3776617"><ele>183.0</ele><time>2026-04-06T11:25:25.537Z</time></trkpt><trkpt lat="43.2892117" lon="11.377795"><ele>183.0</ele><time>2026-04-06T11:25:27.535Z</time></trkpt><trkpt lat="43.2891367" lon="11.377885"><ele>183.0</ele><time>2026-04-06T11:25:29.537Z</time></trkpt><trkpt lat="43.2890817" lon="11.377935"><ele>183.0</ele><time>2026-04-06T11:25:30.538Z</time></trkpt><trkpt lat="43.289005" lon="11.3779817"><ele>183.0</ele><time>2026-04-06T11:25:31.536Z</time></trkpt><trkpt lat="43.288925" lon="11.3780183"><ele>183.0</ele><time>2026-04-06T11:25:32.539Z</time></trkpt><trkpt lat="43.2888417" lon="11.3780583"><ele>185.5</ele><time>2026-04-06T11:25:33.537Z</time></trkpt><trkpt lat="43.288765" lon="11.37811"><ele>188.0</ele><time>2026-04-06T11:25:34.541Z</time></trkpt><trkpt lat="43.2886833" lon="11.3781683"><ele>190.5</ele><time>2026-04-06T11:25:35.541Z</time></trkpt><trkpt lat="43.288605" lon="11.3782167"><ele>193.0</ele><time>2026-04-06T11:25:36.537Z</time></trkpt><trkpt lat="43.28853" lon="11.378265"><ele>195.5</ele><time>2026-04-06T11:25:37.534Z</time></trkpt><trkpt lat="43.2884617" lon="11.37831"><ele>198.0</ele><time>2026-04-06T11:25:38.536Z</time></trkpt><trkpt lat="43.2884033" lon="11.3783617"><ele>198.0</ele><time>2026-04-06T11:25:39.538Z</time></trkpt><trkpt lat="43.2883433" lon="11.378425"><ele>198.0</ele><time>2026-04-06T11:25:40.54Z</time></trkpt><trkpt lat="43.2882867" lon="11.3784867"><ele>198.0</ele><time>2026-04-06T11:25:41.543Z</time></trkpt><trkpt lat="43.2882383" lon="11.378555"><ele>198.0</ele><time>2026-04-06T11:25:42.535Z</time></trkpt><trkpt lat="43.2881583" lon="11.3786733"><ele>198.0</ele><time>2026-04-06T11:25:44.538Z</time></trkpt><trkpt lat="43.2880917" lon="11.37878"><ele>198.0</ele><time>2026-04-06T11:25:46.535Z</time></trkpt><trkpt lat="43.2880433" lon="11.378905"><ele>198.33333333333334</ele><time>2026-04-06T11:25:48.539Z</time></trkpt><trkpt lat="43.2880333" lon="11.3790483"><ele>198.66666666666669</ele><time>2026-04-06T11:25:50.542Z</time></trkpt><trkpt lat="43.28804" lon="11.3791783"><ele>199.0</ele><time>2026-04-06T11:25:52.537Z</time></trkpt><trkpt lat="43.288035" lon="11.37929"><ele>199.33333333333334</ele><time>2026-04-06T11:25:54.537Z</time></trkpt><trkpt lat="43.2880333" lon="11.3793933"><ele>199.66666666666669</ele><time>2026-04-06T11:25:56.535Z</time></trkpt><trkpt lat="43.288005" lon="11.3795017"><ele>200.0</ele><time>2026-04-06T11:26:00.539Z</time></trkpt><trkpt lat="43.2879317" lon="11.3795967"><ele>200.0</ele><time>2026-04-06T11:26:02.534Z</time></trkpt><trkpt lat="43.2878567" lon="11.379645"><ele>200.0</ele><time>2026-04-06T11:26:03.542Z</time></trkpt><trkpt lat="43.2877717" lon="11.37969"><ele>200.0</ele><time>2026-04-06T11:26:04.539Z</time></trkpt><trkpt lat="43.287655" lon="11.379735"><ele>200.0</ele><time>2026-04-06T11:26:05.535Z</time></trkpt><trkpt lat="43.2874933" lon="11.3797983"><ele>199.33333333333334</ele><time>2026-04-06T11:26:06.535Z</time></trkpt><trkpt lat="43.2873433" lon="11.37986"><ele>198.66666666666669</ele><time>2026-04-06T11:26:07.538Z</time></trkpt><trkpt lat="43.2871917" lon="11.379895"><ele>198.0</ele><time>2026-04-06T11:26:08.537Z</time></trkpt><trkpt lat="43.2870517" lon="11.379905"><ele>197.25</ele><time>2026-04-06T11:26:09.536Z</time></trkpt><trkpt lat="43.2869133" lon="11.3798917"><ele>196.5</ele><time>2026-04-06T11:26:10.534Z</time></trkpt><trkpt lat="43.286775" lon="11.3798617"><ele>195.75</ele><time>2026-04-06T11:26:11.536Z</time></trkpt><trkpt lat="43.286635" lon="11.3798167"><ele>195.0</ele><time>2026-04-06T11:26:12.541Z</time></trkpt><trkpt lat="43.2864917" lon="11.379765"><ele>194.33333333333331</ele><time>2026-04-06T11:26:13.537Z</time></trkpt><trkpt lat="43.2863467" lon="11.3796983"><ele>193.66666666666666</ele><time>2026-04-06T11:26:14.537Z</time></trkpt><trkpt lat="43.2861983" lon="11.3796033"><ele>193.0</ele><time>2026-04-06T11:26:15.537Z</time></trkpt><trkpt lat="43.2860467" lon="11.379505"><ele>193.33333333333331</ele><time>2026-04-06T11:26:16.535Z</time></trkpt><trkpt lat="43.285895" lon="11.3793983"><ele>193.66666666666669</ele><time>2026-04-06T11:26:17.537Z</time></trkpt><trkpt lat="43.2857467" lon="11.3792933"><ele>194.0</ele><time>2026-04-06T11:26:18.537Z</time></trkpt><trkpt lat="43.285595" lon="11.3791867"><ele>194.0</ele><time>2026-04-06T11:26:19.541Z</time></trkpt><trkpt lat="43.2854317" lon="11.3791"><ele>194.0</ele><time>2026-04-06T11:26:20.534Z</time></trkpt><trkpt lat="43.2852517" lon="11.3790367"><ele>194.0</ele><time>2026-04-06T11:26:21.542Z</time></trkpt><trkpt lat="43.2850567" lon="11.3790033"><ele>194.0</ele><time>2026-04-06T11:26:22.535Z</time></trkpt><trkpt lat="43.2848583" lon="11.3789833"><ele>194.0</ele><time>2026-04-06T11:26:23.537Z</time></trkpt><trkpt lat="43.284675" lon="11.3789683"><ele>194.0</ele><time>2026-04-06T11:26:24.538Z</time></trkpt><trkpt lat="43.2845133" lon="11.37894"><ele>193.75</ele><time>2026-04-06T11:26:25.536Z</time></trkpt><trkpt lat="43.284365" lon="11.3789083"><ele>193.5</ele><time>2026-04-06T11:26:26.535Z</time></trkpt><trkpt lat="43.2842333" lon="11.3788433"><ele>193.25</ele><time>2026-04-06T11:26:27.537Z</time></trkpt><trkpt lat="43.2841117" lon="11.378735"><ele>193.0</ele><time>2026-04-06T11:26:28.54Z</time></trkpt><trkpt lat="43.284005" lon="11.37858"><ele>189.0</ele><time>2026-04-06T11:26:29.538Z</time></trkpt><trkpt lat="43.283915" lon="11.378405"><ele>185.0</ele><time>2026-04-06T11:26:30.536Z</time></trkpt><trkpt lat="43.283835" lon="11.3782217"><ele>181.0</ele><time>2026-04-06T11:26:31.533Z</time></trkpt><trkpt lat="43.2837367" lon="11.3780617"><ele>180.33333333333334</ele><time>2026-04-06T11:26:32.538Z</time></trkpt><trkpt lat="43.2836183" lon="11.377935"><ele>179.66666666666666</ele><time>2026-04-06T11:26:33.538Z</time></trkpt><trkpt lat="43.2834783" lon="11.3778383"><ele>179.0</ele><time>2026-04-06T11:26:34.539Z</time></trkpt><trkpt lat="43.28332" lon="11.3777867"><ele>179.0</ele><time>2026-04-06T11:26:35.536Z</time></trkpt><trkpt lat="43.2831533" lon="11.3777833"><ele>179.0</ele><time>2026-04-06T11:26:36.534Z</time></trkpt><trkpt lat="43.282985" lon="11.3778167"><ele>179.0</ele><time>2026-04-06T11:26:37.535Z</time></trkpt><trkpt lat="43.28283" lon="11.3778683"><ele>178.75</ele><time>2026-04-06T11:26:38.54Z</time></trkpt><trkpt lat="43.2826767" lon="11.377915"><ele>178.5</ele><time>2026-04-06T11:26:39.539Z</time></trkpt><trkpt lat="43.2825317" lon="11.377935"><ele>178.25</ele><time>2026-04-06T11:26:40.533Z</time></trkpt><trkpt lat="43.2823967" lon="11.3779117"><ele>178.0</ele><time>2026-04-06T11:26:41.532Z</time></trkpt><trkpt lat="43.2822683" lon="11.3778467"><ele>177.75</ele><time>2026-04-06T11:26:42.539Z</time></trkpt><trkpt lat="43.2821533" lon="11.37774"><ele>177.5</ele><time>2026-04-06T11:26:43.537Z</time></trkpt><trkpt lat="43.28206" lon="11.377595"><ele>177.25</ele><time>2026-04-06T11:26:44.542Z</time></trkpt><trkpt lat="43.2819883" lon="11.3774183"><ele>177.0</ele><time>2026-04-06T11:26:45.539Z</time></trkpt><trkpt lat="43.2819367" lon="11.3772283"><ele>176.6</ele><time>2026-04-06T11:26:46.533Z</time></trkpt><trkpt lat="43.2819" lon="11.3770483"><ele>176.2</ele><time>2026-04-06T11:26:47.539Z</time></trkpt><trkpt lat="43.28187" lon="11.3768967"><ele>175.8</ele><time>2026-04-06T11:26:48.536Z</time></trkpt><trkpt lat="43.2818567" lon="11.37677"><ele>175.4</ele><time>2026-04-06T11:26:49.535Z</time></trkpt><trkpt lat="43.2818667" lon="11.37665"><ele>175.0</ele><time>2026-04-06T11:26:50.537Z</time></trkpt><trkpt lat="43.281905" lon="11.37653"><ele>175.0</ele><time>2026-04-06T11:26:51.538Z</time></trkpt><trkpt lat="43.2819417" lon="11.3764067"><ele>175.0</ele><time>2026-04-06T11:26:52.537Z</time></trkpt><trkpt lat="43.2819517" lon="11.3762783"><ele>175.0</ele><time>2026-04-06T11:26:53.537Z</time></trkpt><trkpt lat="43.281935" lon="11.3761583"><ele>175.0</ele><time>2026-04-06T11:26:54.541Z</time></trkpt><trkpt lat="43.2818733" lon="11.3760567"><ele>175.0</ele><time>2026-04-06T11:26:55.537Z</time></trkpt><trkpt lat="43.2817867" lon="11.37597"><ele>175.4</ele><time>2026-04-06T11:26:56.537Z</time></trkpt><trkpt lat="43.2817017" lon="11.3758933"><ele>175.8</ele><time>2026-04-06T11:26:57.541Z</time></trkpt><trkpt lat="43.2816367" lon="11.37579"><ele>176.2</ele><time>2026-04-06T11:26:58.538Z</time></trkpt><trkpt lat="43.2815917" lon="11.3756617"><ele>176.6</ele><time>2026-04-06T11:26:59.534Z</time></trkpt><trkpt lat="43.2815633" lon="11.3755117"><ele>177.0</ele><time>2026-04-06T11:27:00.537Z</time></trkpt><trkpt lat="43.28155" lon="11.3753383"><ele>178.66666666666666</ele><time>2026-04-06T11:27:01.538Z</time></trkpt><trkpt lat="43.281545" lon="11.375155"><ele>180.33333333333331</ele><time>2026-04-06T11:27:02.539Z</time></trkpt><trkpt lat="43.2815633" lon="11.3749433"><ele>182.0</ele><time>2026-04-06T11:27:03.537Z</time></trkpt><trkpt lat="43.2816033" lon="11.3747233"><ele>184.33333333333331</ele><time>2026-04-06T11:27:04.537Z</time></trkpt><trkpt lat="43.28167" lon="11.3744967"><ele>186.66666666666666</ele><time>2026-04-06T11:27:05.534Z</time></trkpt><trkpt lat="43.2817667" lon="11.3742683"><ele>189.0</ele><time>2026-04-06T11:27:06.536Z</time></trkpt><trkpt lat="43.281875" lon="11.3740383"><ele>190.33333333333331</ele><time>2026-04-06T11:27:07.545Z</time></trkpt><trkpt lat="43.2819867" lon="11.3738217"><ele>191.66666666666666</ele><time>2026-04-06T11:27:08.537Z</time></trkpt><trkpt lat="43.282085" lon="11.3736133"><ele>193.0</ele><time>2026-04-06T11:27:09.536Z</time></trkpt><trkpt lat="43.28216" lon="11.3733983"><ele>193.0</ele><time>2026-04-06T11:27:10.537Z</time></trkpt><trkpt lat="43.2822083" lon="11.3731683"><ele>193.0</ele><time>2026-04-06T11:27:11.538Z</time></trkpt><trkpt lat="43.2822367" lon="11.37292"><ele>193.0</ele><time>2026-04-06T11:27:12.538Z</time></trkpt><trkpt lat="43.282275" lon="11.3726667"><ele>193.66666666666666</ele><time>2026-04-06T11:27:13.54Z</time></trkpt><trkpt lat="43.2822967" lon="11.3723917"><ele>194.33333333333331</ele><time>2026-04-06T11:27:14.542Z</time></trkpt><trkpt lat="43.2823167" lon="11.3721067"><ele>195.0</ele><time>2026-04-06T11:27:15.54Z</time></trkpt><trkpt lat="43.2823383" lon="11.3718217"><ele>196.33333333333331</ele><time>2026-04-06T11:27:16.544Z</time></trkpt><trkpt lat="43.2823567" lon="11.37155"><ele>197.66666666666666</ele><time>2026-04-06T11:27:17.539Z</time></trkpt><trkpt lat="43.2823783" lon="11.371285"><ele>199.0</ele><time>2026-04-06T11:27:18.535Z</time></trkpt><trkpt lat="43.2824017" lon="11.3710233"><ele>199.66666666666666</ele><time>2026-04-06T11:27:19.538Z</time></trkpt><trkpt lat="43.2824317" lon="11.370765"><ele>200.33333333333331</ele><time>2026-04-06T11:27:20.535Z</time></trkpt><trkpt lat="43.2824683" lon="11.370505"><ele>201.0</ele><time>2026-04-06T11:27:21.54Z</time></trkpt><trkpt lat="43.2825283" lon="11.3702533"><ele>202.0</ele><time>2026-04-06T11:27:22.536Z</time></trkpt><trkpt lat="43.2826083" lon="11.3700133"><ele>203.0</ele><time>2026-04-06T11:27:23.552Z</time></trkpt><trkpt lat="43.2827083" lon="11.3697733"><ele>204.0</ele><time>2026-04-06T11:27:24.54Z</time></trkpt><trkpt lat="43.28282" lon="11.369545"><ele>204.0</ele><time>2026-04-06T11:27:25.532Z</time></trkpt><trkpt lat="43.2829383" lon="11.3693167"><ele>204.0</ele><time>2026-04-06T11:27:26.542Z</time></trkpt><trkpt lat="43.283055" lon="11.369095"><ele>204.0</ele><time>2026-04-06T11:27:27.539Z</time></trkpt><trkpt lat="43.2831633" lon="11.3688817"><ele>205.33333333333331</ele><time>2026-04-06T11:27:28.533Z</time></trkpt><trkpt lat="43.2832567" lon="11.368665"><ele>206.66666666666666</ele><time>2026-04-06T11:27:29.541Z</time></trkpt><trkpt lat="43.2833367" lon="11.3684517"><ele>208.0</ele><time>2026-04-06T11:27:30.545Z</time></trkpt><trkpt lat="43.2833917" lon="11.3682367"><ele>208.0</ele><time>2026-04-06T11:27:31.537Z</time></trkpt><trkpt lat="43.283435" lon="11.3680183"><ele>208.0</ele><time>2026-04-06T11:27:32.545Z</time></trkpt><trkpt lat="43.28346" lon="11.3677833"><ele>208.0</ele><time>2026-04-06T11:27:33.544Z</time></trkpt><trkpt lat="43.2834667" lon="11.3675417"><ele>208.0</ele><time>2026-04-06T11:27:34.535Z</time></trkpt><trkpt lat="43.2834483" lon="11.3673017"><ele>208.0</ele><time>2026-04-06T11:27:35.536Z</time></trkpt><trkpt lat="43.283405" lon="11.3670583"><ele>208.0</ele><time>2026-04-06T11:27:36.536Z</time></trkpt><trkpt lat="43.2833383" lon="11.3668283"><ele>209.0</ele><time>2026-04-06T11:27:37.541Z</time></trkpt><trkpt lat="43.2832567" lon="11.3666183"><ele>210.0</ele><time>2026-04-06T11:27:38.539Z</time></trkpt><trkpt lat="43.283155" lon="11.3664233"><ele>211.0</ele><time>2026-04-06T11:27:39.535Z</time></trkpt><trkpt lat="43.2830367" lon="11.3662333"><ele>212.33333333333331</ele><time>2026-04-06T11:27:40.534Z</time></trkpt><trkpt lat="43.2829067" lon="11.3660533"><ele>213.66666666666669</ele><time>2026-04-06T11:27:41.552Z</time></trkpt><trkpt lat="43.282765" lon="11.36588"><ele>215.0</ele><time>2026-04-06T11:27:42.538Z</time></trkpt><trkpt lat="43.2826167" lon="11.3657167"><ele>215.0</ele><time>2026-04-06T11:27:43.534Z</time></trkpt><trkpt lat="43.2824783" lon="11.3655517"><ele>215.0</ele><time>2026-04-06T11:27:44.54Z</time></trkpt><trkpt lat="43.28235" lon="11.3653817"><ele>215.0</ele><time>2026-04-06T11:27:45.533Z</time></trkpt><trkpt lat="43.2822533" lon="11.3651883"><ele>215.0</ele><time>2026-04-06T11:27:46.535Z</time></trkpt><trkpt lat="43.2821883" lon="11.364985"><ele>215.0</ele><time>2026-04-06T11:27:47.535Z</time></trkpt><trkpt lat="43.2821633" lon="11.3647633"><ele>215.0</ele><time>2026-04-06T11:27:48.537Z</time></trkpt><trkpt lat="43.2821667" lon="11.3645283"><ele>213.66666666666669</ele><time>2026-04-06T11:27:49.538Z</time></trkpt><trkpt lat="43.2821917" lon="11.36429"><ele>212.33333333333331</ele><time>2026-04-06T11:27:50.534Z</time></trkpt><trkpt lat="43.2822417" lon="11.3640467"><ele>211.0</ele><time>2026-04-06T11:27:51.551Z</time></trkpt><trkpt lat="43.2823083" lon="11.3638033"><ele>214.0</ele><time>2026-04-06T11:27:52.536Z</time></trkpt><trkpt lat="43.2824017" lon="11.3635583"><ele>217.0</ele><time>2026-04-06T11:27:53.543Z</time></trkpt><trkpt lat="43.282515" lon="11.363305"><ele>220.0</ele><time>2026-04-06T11:27:54.54Z</time></trkpt><trkpt lat="43.282635" lon="11.3630583"><ele>217.33333333333331</ele><time>2026-04-06T11:27:55.536Z</time></trkpt><trkpt lat="43.282755" lon="11.36282"><ele>214.66666666666669</ele><time>2026-04-06T11:27:56.539Z</time></trkpt><trkpt lat="43.2828733" lon="11.3625883"><ele>212.0</ele><time>2026-04-06T11:27:57.542Z</time></trkpt><trkpt lat="43.2829767" lon="11.36235"><ele>210.33333333333334</ele><time>2026-04-06T11:27:58.536Z</time></trkpt><trkpt lat="43.283075" lon="11.3621117"><ele>208.66666666666669</ele><time>2026-04-06T11:27:59.541Z</time></trkpt><trkpt lat="43.28316" lon="11.3618783"><ele>207.0</ele><time>2026-04-06T11:28:00.546Z</time></trkpt><trkpt lat="43.283235" lon="11.36165"><ele>212.33333333333331</ele><time>2026-04-06T11:28:01.544Z</time></trkpt><trkpt lat="43.2832917" lon="11.3614167"><ele>217.66666666666666</ele><time>2026-04-06T11:28:02.536Z</time></trkpt><trkpt lat="43.28334" lon="11.361175"><ele>223.0</ele><time>2026-04-06T11:28:03.535Z</time></trkpt><trkpt lat="43.283385" lon="11.3609317"><ele>223.0</ele><time>2026-04-06T11:28:04.543Z</time></trkpt><trkpt lat="43.2834317" lon="11.3606867"><ele>223.0</ele><time>2026-04-06T11:28:05.537Z</time></trkpt><trkpt lat="43.2834917" lon="11.3604467"><ele>223.0</ele><time>2026-04-06T11:28:06.537Z</time></trkpt><trkpt lat="43.28356" lon="11.3602033"><ele>221.0</ele><time>2026-04-06T11:28:07.538Z</time></trkpt><trkpt lat="43.2836267" lon="11.3599583"><ele>219.0</ele><time>2026-04-06T11:28:08.532Z</time></trkpt><trkpt lat="43.2836983" lon="11.3597167"><ele>217.0</ele><time>2026-04-06T11:28:09.542Z</time></trkpt><trkpt lat="43.28377" lon="11.3594817"><ele>216.33333333333331</ele><time>2026-04-06T11:28:10.545Z</time></trkpt><trkpt lat="43.2838367" lon="11.359245"><ele>215.66666666666669</ele><time>2026-04-06T11:28:11.536Z</time></trkpt><trkpt lat="43.2839" lon="11.3590067"><ele>215.0</ele><time>2026-04-06T11:28:12.536Z</time></trkpt><trkpt lat="43.283965" lon="11.358775"><ele>219.66666666666669</ele><time>2026-04-06T11:28:13.542Z</time></trkpt><trkpt lat="43.2840267" lon="11.35855"><ele>224.33333333333331</ele><time>2026-04-06T11:28:14.54Z</time></trkpt><trkpt lat="43.2840867" lon="11.3583283"><ele>229.0</ele><time>2026-04-06T11:28:15.537Z</time></trkpt><trkpt lat="43.2841417" lon="11.35811"><ele>228.66666666666666</ele><time>2026-04-06T11:28:16.543Z</time></trkpt><trkpt lat="43.2841883" lon="11.3578917"><ele>228.33333333333331</ele><time>2026-04-06T11:28:17.545Z</time></trkpt><trkpt lat="43.2842267" lon="11.3576683"><ele>228.0</ele><time>2026-04-06T11:28:18.541Z</time></trkpt><trkpt lat="43.2842717" lon="11.3574417"><ele>228.0</ele><time>2026-04-06T11:28:19.538Z</time></trkpt><trkpt lat="43.28432" lon="11.3572367"><ele>228.0</ele><time>2026-04-06T11:28:20.538Z</time></trkpt><trkpt lat="43.28438" lon="11.357035"><ele>228.0</ele><time>2026-04-06T11:28:21.537Z</time></trkpt><trkpt lat="43.2844483" lon="11.356835"><ele>227.66666666666669</ele><time>2026-04-06T11:28:22.537Z</time></trkpt><trkpt lat="43.28451" lon="11.3566283"><ele>227.33333333333334</ele><time>2026-04-06T11:28:23.624Z</time></trkpt><trkpt lat="43.284575" lon="11.3564233"><ele>227.0</ele><time>2026-04-06T11:28:24.541Z</time></trkpt><trkpt lat="43.2846405" lon="11.3562203"><ele>226.66666666666669</ele><time>2026-04-06T11:28:25.54Z</time></trkpt><trkpt lat="43.2847097" lon="11.3560197"><ele>226.33333333333331</ele><time>2026-04-06T11:28:26.539Z</time></trkpt><trkpt lat="43.2847815" lon="11.3558199"><ele>226.0</ele><time>2026-04-06T11:28:27.543Z</time></trkpt><trkpt lat="43.2848505" lon="11.3556219"><ele>228.5</ele><time>2026-04-06T11:28:28.54Z</time></trkpt><trkpt lat="43.2849204" lon="11.3554284"><ele>231.0</ele><time>2026-04-06T11:28:29.535Z</time></trkpt><trkpt lat="43.2849844" lon="11.3552437"><ele>233.5</ele><time>2026-04-06T11:28:30.542Z</time></trkpt><trkpt lat="43.285037" lon="11.3550721"><ele>236.0</ele><time>2026-04-06T11:28:31.535Z</time></trkpt><trkpt lat="43.2850794" lon="11.3549089"><ele>236.0</ele><time>2026-04-06T11:28:32.537Z</time></trkpt><trkpt lat="43.2850875" lon="11.3547385"><ele>236.0</ele><time>2026-04-06T11:28:33.544Z</time></trkpt><trkpt lat="43.2850676" lon="11.3545605"><ele>236.0</ele><time>2026-04-06T11:28:34.543Z</time></trkpt><trkpt lat="43.2850253" lon="11.3543803"><ele>236.0</ele><time>2026-04-06T11:28:35.543Z</time></trkpt><trkpt lat="43.2849454" lon="11.3542055"><ele>236.0</ele><time>2026-04-06T11:28:36.536Z</time></trkpt><trkpt lat="43.2848426" lon="11.3540417"><ele>236.0</ele><time>2026-04-06T11:28:37.537Z</time></trkpt><trkpt lat="43.284745" lon="11.3538999"><ele>236.0</ele><time>2026-04-06T11:28:38.538Z</time></trkpt><trkpt lat="43.2846611" lon="11.3537763"><ele>236.0</ele><time>2026-04-06T11:28:39.54Z</time></trkpt><trkpt lat="43.2845906" lon="11.3536662"><ele>236.0</ele><time>2026-04-06T11:28:40.544Z</time></trkpt><trkpt lat="43.2845318" lon="11.3535657"><ele>236.00000000000003</ele><time>2026-04-06T11:28:41.536Z</time></trkpt><trkpt lat="43.2844841" lon="11.3534814"><ele>236.00000000000003</ele><time>2026-04-06T11:28:42.536Z</time></trkpt><trkpt lat="43.2844239" lon="11.353374"><ele>236.0</ele><time>2026-04-06T11:28:44.541Z</time></trkpt><trkpt lat="43.2843433" lon="11.3533633"><ele>236.0</ele><time>2026-04-06T11:28:58.553Z</time></trkpt><trkpt lat="43.284205" lon="11.3534367"><ele>236.0</ele><time>2026-04-06T11:29:00.544Z</time></trkpt><trkpt lat="43.28411" lon="11.3534983"><ele>236.0</ele><time>2026-04-06T11:29:01.537Z</time></trkpt><trkpt lat="43.283995" lon="11.35356"><ele>236.0</ele><time>2026-04-06T11:29:02.544Z</time></trkpt><trkpt lat="43.283865" lon="11.35361"><ele>236.0</ele><time>2026-04-06T11:29:03.534Z</time></trkpt><trkpt lat="43.283725" lon="11.35365"><ele>236.66666666666669</ele><time>2026-04-06T11:29:04.533Z</time></trkpt><trkpt lat="43.283575" lon="11.35367"><ele>237.33333333333331</ele><time>2026-04-06T11:29:05.549Z</time></trkpt><trkpt lat="43.283415" lon="11.3536783"><ele>238.0</ele><time>2026-04-06T11:29:06.537Z</time></trkpt><trkpt lat="43.2832517" lon="11.3536783"><ele>238.0</ele><time>2026-04-06T11:29:07.538Z</time></trkpt><trkpt lat="43.2830983" lon="11.3536567"><ele>238.0</ele><time>2026-04-06T11:29:08.536Z</time></trkpt><trkpt lat="43.28295" lon="11.3536333"><ele>238.0</ele><time>2026-04-06T11:29:09.537Z</time></trkpt><trkpt lat="43.2828083" lon="11.3536133"><ele>238.0</ele><time>2026-04-06T11:29:10.538Z</time></trkpt><trkpt lat="43.28267" lon="11.3535867"><ele>238.0</ele><time>2026-04-06T11:29:11.533Z</time></trkpt><trkpt lat="43.2825417" lon="11.3535667"><ele>238.0</ele><time>2026-04-06T11:29:12.543Z</time></trkpt><trkpt lat="43.2824133" lon="11.353535"><ele>238.0</ele><time>2026-04-06T11:29:13.546Z</time></trkpt><trkpt lat="43.2822867" lon="11.353505"><ele>238.0</ele><time>2026-04-06T11:29:14.913Z</time></trkpt><trkpt lat="43.2820267" lon="11.353435"><ele>238.0</ele><time>2026-04-06T11:29:16.547Z</time></trkpt><trkpt lat="43.2818883" lon="11.3534033"><ele>238.0</ele><time>2026-04-06T11:29:17.533Z</time></trkpt><trkpt lat="43.2817467" lon="11.35338"><ele>238.0</ele><time>2026-04-06T11:29:18.535Z</time></trkpt><trkpt lat="43.2816033" lon="11.3533483"><ele>238.0</ele><time>2026-04-06T11:29:19.533Z</time></trkpt><trkpt lat="43.281465" lon="11.353315"><ele>238.0</ele><time>2026-04-06T11:29:20.538Z</time></trkpt><trkpt lat="43.2813333" lon="11.353275"><ele>238.0</ele><time>2026-04-06T11:29:21.539Z</time></trkpt><trkpt lat="43.28121" lon="11.3532317"><ele>238.0</ele><time>2026-04-06T11:29:22.545Z</time></trkpt><trkpt lat="43.281095" lon="11.35319"><ele>238.0</ele><time>2026-04-06T11:29:23.537Z</time></trkpt><trkpt lat="43.2809867" lon="11.3531567"><ele>238.0</ele><time>2026-04-06T11:29:24.54Z</time></trkpt><trkpt lat="43.2808767" lon="11.35312"><ele>238.0</ele><time>2026-04-06T11:29:25.538Z</time></trkpt><trkpt lat="43.2807583" lon="11.3530767"><ele>238.0</ele><time>2026-04-06T11:29:26.537Z</time></trkpt><trkpt lat="43.2806367" lon="11.3530367"><ele>238.0</ele><time>2026-04-06T11:29:27.537Z</time></trkpt><trkpt lat="43.2805117" lon="11.352995"><ele>236.0</ele><time>2026-04-06T11:29:28.535Z</time></trkpt><trkpt lat="43.2803783" lon="11.3529483"><ele>234.0</ele><time>2026-04-06T11:29:29.534Z</time></trkpt><trkpt lat="43.2802333" lon="11.3529"><ele>232.0</ele><time>2026-04-06T11:29:30.536Z</time></trkpt><trkpt lat="43.2800783" lon="11.3528517"><ele>230.0</ele><time>2026-04-06T11:29:31.537Z</time></trkpt><trkpt lat="43.27992" lon="11.3528083"><ele>229.0</ele><time>2026-04-06T11:29:32.538Z</time></trkpt><trkpt lat="43.279765" lon="11.3527617"><ele>228.0</ele><time>2026-04-06T11:29:33.538Z</time></trkpt><trkpt lat="43.2796033" lon="11.3527267"><ele>227.0</ele><time>2026-04-06T11:29:34.537Z</time></trkpt><trkpt lat="43.27944" lon="11.3526933"><ele>227.0</ele><time>2026-04-06T11:29:35.534Z</time></trkpt><trkpt lat="43.2792817" lon="11.3526717"><ele>227.0</ele><time>2026-04-06T11:29:36.536Z</time></trkpt><trkpt lat="43.27913" lon="11.352665"><ele>227.0</ele><time>2026-04-06T11:29:37.536Z</time></trkpt><trkpt lat="43.2789817" lon="11.35265"><ele>227.0</ele><time>2026-04-06T11:29:38.539Z</time></trkpt><trkpt lat="43.2788317" lon="11.352665"><ele>227.0</ele><time>2026-04-06T11:29:39.536Z</time></trkpt><trkpt lat="43.27868" lon="11.3527117"><ele>227.0</ele><time>2026-04-06T11:29:40.537Z</time></trkpt><trkpt lat="43.2785333" lon="11.352785"><ele>227.0</ele><time>2026-04-06T11:29:41.534Z</time></trkpt><trkpt lat="43.2783983" lon="11.3528667"><ele>227.0</ele><time>2026-04-06T11:29:42.54Z</time></trkpt><trkpt lat="43.2782667" lon="11.3529467"><ele>227.0</ele><time>2026-04-06T11:29:43.541Z</time></trkpt><trkpt lat="43.2781333" lon="11.3530267"><ele>227.0</ele><time>2026-04-06T11:29:44.538Z</time></trkpt><trkpt lat="43.2780067" lon="11.3531117"><ele>228.0</ele><time>2026-04-06T11:29:45.54Z</time></trkpt><trkpt lat="43.2778817" lon="11.353195"><ele>229.0</ele><time>2026-04-06T11:29:46.538Z</time></trkpt><trkpt lat="43.2777567" lon="11.3532733"><ele>230.0</ele><time>2026-04-06T11:29:47.539Z</time></trkpt><trkpt lat="43.2776267" lon="11.3533517"><ele>231.0</ele><time>2026-04-06T11:29:48.543Z</time></trkpt><trkpt lat="43.2774883" lon="11.3534267"><ele>231.0</ele><time>2026-04-06T11:29:49.54Z</time></trkpt><trkpt lat="43.277355" lon="11.3535033"><ele>231.0</ele><time>2026-04-06T11:29:50.536Z</time></trkpt><trkpt lat="43.2772217" lon="11.353575"><ele>231.0</ele><time>2026-04-06T11:29:51.536Z</time></trkpt><trkpt lat="43.2770817" lon="11.3536283"><ele>231.0</ele><time>2026-04-06T11:29:52.535Z</time></trkpt><trkpt lat="43.2769383" lon="11.353675"><ele>231.33333333333331</ele><time>2026-04-06T11:29:53.537Z</time></trkpt><trkpt lat="43.2767883" lon="11.353715"><ele>231.66666666666666</ele><time>2026-04-06T11:29:54.537Z</time></trkpt><trkpt lat="43.2766317" lon="11.3537533"><ele>232.0</ele><time>2026-04-06T11:29:55.536Z</time></trkpt><trkpt lat="43.276475" lon="11.3537867"><ele>230.33333333333331</ele><time>2026-04-06T11:29:56.54Z</time></trkpt><trkpt lat="43.27632" lon="11.3538167"><ele>228.66666666666669</ele><time>2026-04-06T11:29:57.543Z</time></trkpt><trkpt lat="43.2761667" lon="11.3538433"><ele>227.0</ele><time>2026-04-06T11:29:58.535Z</time></trkpt><trkpt lat="43.276015" lon="11.35387"><ele>225.66666666666669</ele><time>2026-04-06T11:29:59.536Z</time></trkpt><trkpt lat="43.2758617" lon="11.3538967"><ele>224.33333333333331</ele><time>2026-04-06T11:30:00.543Z</time></trkpt><trkpt lat="43.2757083" lon="11.3539317"><ele>223.0</ele><time>2026-04-06T11:30:01.537Z</time></trkpt><trkpt lat="43.2755533" lon="11.3539667"><ele>222.66666666666666</ele><time>2026-04-06T11:30:02.541Z</time></trkpt><trkpt lat="43.275395" lon="11.353995"><ele>222.33333333333331</ele><time>2026-04-06T11:30:03.537Z</time></trkpt><trkpt lat="43.2752317" lon="11.3540267"><ele>222.0</ele><time>2026-04-06T11:30:04.533Z</time></trkpt><trkpt lat="43.2750683" lon="11.3540617"><ele>222.0</ele><time>2026-04-06T11:30:05.538Z</time></trkpt><trkpt lat="43.2749033" lon="11.3541033"><ele>222.0</ele><time>2026-04-06T11:30:06.536Z</time></trkpt><trkpt lat="43.2747433" lon="11.3541633"><ele>222.0</ele><time>2026-04-06T11:30:07.537Z</time></trkpt><trkpt lat="43.2745883" lon="11.3542683"><ele>223.0</ele><time>2026-04-06T11:30:08.537Z</time></trkpt><trkpt lat="43.274445" lon="11.3544017"><ele>224.0</ele><time>2026-04-06T11:30:09.538Z</time></trkpt><trkpt lat="43.2743217" lon="11.3545517"><ele>225.0</ele><time>2026-04-06T11:30:10.536Z</time></trkpt><trkpt lat="43.2742117" lon="11.3546983"><ele>224.25</ele><time>2026-04-06T11:30:11.539Z</time></trkpt><trkpt lat="43.2741083" lon="11.3548433"><ele>223.5</ele><time>2026-04-06T11:30:12.539Z</time></trkpt><trkpt lat="43.2740067" lon="11.3549867"><ele>222.75</ele><time>2026-04-06T11:30:13.542Z</time></trkpt><trkpt lat="43.273905" lon="11.3551167"><ele>222.0</ele><time>2026-04-06T11:30:14.536Z</time></trkpt><trkpt lat="43.2737967" lon="11.3552367"><ele>222.25</ele><time>2026-04-06T11:30:15.532Z</time></trkpt><trkpt lat="43.2736867" lon="11.3553517"><ele>222.5</ele><time>2026-04-06T11:30:16.532Z</time></trkpt><trkpt lat="43.2735783" lon="11.3554683"><ele>222.75</ele><time>2026-04-06T11:30:17.541Z</time></trkpt><trkpt lat="43.27347" lon="11.3555883"><ele>223.0</ele><time>2026-04-06T11:30:18.549Z</time></trkpt><trkpt lat="43.2733617" lon="11.3557133"><ele>223.0</ele><time>2026-04-06T11:30:19.537Z</time></trkpt><trkpt lat="43.2732517" lon="11.3558233"><ele>223.0</ele><time>2026-04-06T11:30:20.535Z</time></trkpt><trkpt lat="43.273155" lon="11.3559517"><ele>223.0</ele><time>2026-04-06T11:30:21.535Z</time></trkpt><trkpt lat="43.2730483" lon="11.3560617"><ele>223.0</ele><time>2026-04-06T11:30:22.539Z</time></trkpt><trkpt lat="43.2729467" lon="11.3561767"><ele>224.0</ele><time>2026-04-06T11:30:23.539Z</time></trkpt><trkpt lat="43.272845" lon="11.3562883"><ele>225.0</ele><time>2026-04-06T11:30:24.534Z</time></trkpt><trkpt lat="43.272745" lon="11.3564067"><ele>226.0</ele><time>2026-04-06T11:30:25.533Z</time></trkpt><trkpt lat="43.2726483" lon="11.3565183"><ele>227.0</ele><time>2026-04-06T11:30:26.539Z</time></trkpt><trkpt lat="43.272555" lon="11.35662"><ele>227.0</ele><time>2026-04-06T11:30:27.542Z</time></trkpt><trkpt lat="43.2724667" lon="11.35672"><ele>227.0</ele><time>2026-04-06T11:30:28.534Z</time></trkpt><trkpt lat="43.27238" lon="11.356825"><ele>227.0</ele><time>2026-04-06T11:30:29.534Z</time></trkpt><trkpt lat="43.27229" lon="11.35693"><ele>227.0</ele><time>2026-04-06T11:30:30.538Z</time></trkpt><trkpt lat="43.2722017" lon="11.3570383"><ele>226.2</ele><time>2026-04-06T11:30:31.541Z</time></trkpt><trkpt lat="43.27212" lon="11.3571483"><ele>225.39999999999998</ele><time>2026-04-06T11:30:32.543Z</time></trkpt><trkpt lat="43.27204" lon="11.3572417"><ele>224.60000000000002</ele><time>2026-04-06T11:30:33.54Z</time></trkpt><trkpt lat="43.2719667" lon="11.35732"><ele>223.8</ele><time>2026-04-06T11:30:34.532Z</time></trkpt><trkpt lat="43.2719067" lon="11.3573783"><ele>223.0</ele><time>2026-04-06T11:30:35.532Z</time></trkpt><trkpt lat="43.2717917" lon="11.3574033"><ele>223.0</ele><time>2026-04-06T11:30:37.538Z</time></trkpt><trkpt lat="43.27168" lon="11.3573233"><ele>223.0</ele><time>2026-04-06T11:30:39.537Z</time></trkpt><trkpt lat="43.2716183" lon="11.3572533"><ele>223.0</ele><time>2026-04-06T11:30:40.537Z</time></trkpt><trkpt lat="43.27155" lon="11.3571633"><ele>223.0</ele><time>2026-04-06T11:30:41.536Z</time></trkpt><trkpt lat="43.2714733" lon="11.3570833"><ele>223.0</ele><time>2026-04-06T11:30:42.544Z</time></trkpt><trkpt lat="43.2713967" lon="11.3570067"><ele>222.8</ele><time>2026-04-06T11:30:43.542Z</time></trkpt><trkpt lat="43.2713183" lon="11.3569317"><ele>222.60000000000002</ele><time>2026-04-06T11:30:44.536Z</time></trkpt><trkpt lat="43.27124" lon="11.3568483"><ele>222.39999999999998</ele><time>2026-04-06T11:30:45.543Z</time></trkpt><trkpt lat="43.2711617" lon="11.3567733"><ele>222.2</ele><time>2026-04-06T11:30:46.539Z</time></trkpt><trkpt lat="43.2710833" lon="11.356695"><ele>222.0</ele><time>2026-04-06T11:30:47.538Z</time></trkpt><trkpt lat="43.27101" lon="11.3566167"><ele>222.0</ele><time>2026-04-06T11:30:48.535Z</time></trkpt><trkpt lat="43.2709367" lon="11.3565367"><ele>222.0</ele><time>2026-04-06T11:30:49.534Z</time></trkpt><trkpt lat="43.270865" lon="11.3564583"><ele>222.0</ele><time>2026-04-06T11:30:50.535Z</time></trkpt><trkpt lat="43.2707933" lon="11.3563883"><ele>222.0</ele><time>2026-04-06T11:30:51.542Z</time></trkpt><trkpt lat="43.2707317" lon="11.3563167"><ele>222.0</ele><time>2026-04-06T11:30:52.535Z</time></trkpt><trkpt lat="43.2706683" lon="11.3562533"><ele>222.0</ele><time>2026-04-06T11:30:53.538Z</time></trkpt><trkpt lat="43.2706117" lon="11.3561933"><ele>220.0</ele><time>2026-04-06T11:30:54.533Z</time></trkpt><trkpt lat="43.2705583" lon="11.35614"><ele>218.0</ele><time>2026-04-06T11:30:55.534Z</time></trkpt><trkpt lat="43.2705058" lon="11.3560818"><ele>216.0</ele><time>2026-04-06T11:30:56.534Z</time></trkpt><trkpt lat="43.2704513" lon="11.356027"><ele>214.0</ele><time>2026-04-06T11:30:57.539Z</time></trkpt><trkpt lat="43.2703481" lon="11.3559384"><ele>212.0</ele><time>2026-04-06T11:30:59.535Z</time></trkpt><trkpt lat="43.2702294" lon="11.3559101"><ele>210.0</ele><time>2026-04-06T11:31:01.539Z</time></trkpt><trkpt lat="43.2701587" lon="11.3559064"><ele>210.0</ele><time>2026-04-06T11:31:02.536Z</time></trkpt><trkpt lat="43.2700864" lon="11.3559069"><ele>210.0</ele><time>2026-04-06T11:31:03.534Z</time></trkpt><trkpt lat="43.2700182" lon="11.3559117"><ele>210.0</ele><time>2026-04-06T11:31:04.536Z</time></trkpt><trkpt lat="43.2698968" lon="11.3559288"><ele>210.0</ele><time>2026-04-06T11:31:06.539Z</time></trkpt><trkpt lat="43.2697842" lon="11.3559503"><ele>210.0</ele><time>2026-04-06T11:31:08.538Z</time></trkpt><trkpt lat="43.2696697" lon="11.3559939"><ele>208.4</ele><time>2026-04-06T11:31:10.535Z</time></trkpt><trkpt lat="43.2695557" lon="11.3560607"><ele>206.8</ele><time>2026-04-06T11:31:12.536Z</time></trkpt><trkpt lat="43.2694496" lon="11.3561495"><ele>205.2</ele><time>2026-04-06T11:31:14.543Z</time></trkpt><trkpt lat="43.2693464" lon="11.3562482"><ele>203.6</ele><time>2026-04-06T11:31:16.536Z</time></trkpt><trkpt lat="43.2692936" lon="11.3563103"><ele>202.0</ele><time>2026-04-06T11:31:17.535Z</time></trkpt><trkpt lat="43.2692413" lon="11.3563799"><ele>202.0</ele><time>2026-04-06T11:31:18.533Z</time></trkpt><trkpt lat="43.269193" lon="11.3564527"><ele>202.0</ele><time>2026-04-06T11:31:19.536Z</time></trkpt><trkpt lat="43.2691471" lon="11.3565271"><ele>202.0</ele><time>2026-04-06T11:31:20.538Z</time></trkpt><trkpt lat="43.2691064" lon="11.356604"><ele>202.0</ele><time>2026-04-06T11:31:21.538Z</time></trkpt><trkpt lat="43.2690658" lon="11.3566879"><ele>202.0</ele><time>2026-04-06T11:31:22.534Z</time></trkpt><trkpt lat="43.2690323" lon="11.356783"><ele>202.0</ele><time>2026-04-06T11:31:23.534Z</time></trkpt><trkpt lat="43.2690037" lon="11.3568819"><ele>202.0</ele><time>2026-04-06T11:31:24.536Z</time></trkpt><trkpt lat="43.2689772" lon="11.3569799"><ele>202.0</ele><time>2026-04-06T11:31:25.54Z</time></trkpt><trkpt lat="43.2689546" lon="11.3570711"><ele>202.0</ele><time>2026-04-06T11:31:26.539Z</time></trkpt><trkpt lat="43.2689391" lon="11.3571576"><ele>202.0</ele><time>2026-04-06T11:31:27.533Z</time></trkpt><trkpt lat="43.2689301" lon="11.3572533"><ele>202.0</ele><time>2026-04-06T11:31:28.532Z</time></trkpt><trkpt lat="43.2689293" lon="11.3573587"><ele>202.0</ele><time>2026-04-06T11:31:29.534Z</time></trkpt><trkpt lat="43.2689248" lon="11.3574614"><ele>202.0</ele><time>2026-04-06T11:31:30.54Z</time></trkpt><trkpt lat="43.2689219" lon="11.3575603"><ele>202.0</ele><time>2026-04-06T11:31:31.535Z</time></trkpt><trkpt lat="43.2689214" lon="11.3576584"><ele>199.83333333333331</ele><time>2026-04-06T11:31:32.538Z</time></trkpt><trkpt lat="43.2689165" lon="11.3577579"><ele>197.66666666666666</ele><time>2026-04-06T11:31:33.538Z</time></trkpt><trkpt lat="43.2689154" lon="11.3578612"><ele>195.5</ele><time>2026-04-06T11:31:34.535Z</time></trkpt><trkpt lat="43.2689099" lon="11.3579693"><ele>193.33333333333331</ele><time>2026-04-06T11:31:35.541Z</time></trkpt><trkpt lat="43.2689008" lon="11.3580805"><ele>191.16666666666666</ele><time>2026-04-06T11:31:36.539Z</time></trkpt><trkpt lat="43.2688957" lon="11.3581957"><ele>189.0</ele><time>2026-04-06T11:31:37.534Z</time></trkpt><trkpt lat="43.2688874" lon="11.3583115"><ele>189.0</ele><time>2026-04-06T11:31:38.534Z</time></trkpt><trkpt lat="43.2688743" lon="11.3584228"><ele>189.0</ele><time>2026-04-06T11:31:39.54Z</time></trkpt><trkpt lat="43.2688554" lon="11.3585286"><ele>189.0</ele><time>2026-04-06T11:31:40.548Z</time></trkpt><trkpt lat="43.2688308" lon="11.3586338"><ele>189.0</ele><time>2026-04-06T11:31:41.534Z</time></trkpt><trkpt lat="43.2687995" lon="11.3587362"><ele>189.0</ele><time>2026-04-06T11:31:42.538Z</time></trkpt><trkpt lat="43.2687641" lon="11.3588292"><ele>189.0</ele><time>2026-04-06T11:31:43.537Z</time></trkpt><trkpt lat="43.2687178" lon="11.3589143"><ele>189.16666666666666</ele><time>2026-04-06T11:31:44.543Z</time></trkpt><trkpt lat="43.268671" lon="11.3589949"><ele>189.33333333333334</ele><time>2026-04-06T11:31:45.538Z</time></trkpt><trkpt lat="43.2686136" lon="11.3590716"><ele>189.5</ele><time>2026-04-06T11:31:46.539Z</time></trkpt><trkpt lat="43.2685498" lon="11.3591394"><ele>189.66666666666669</ele><time>2026-04-06T11:31:47.536Z</time></trkpt><trkpt lat="43.2684827" lon="11.3592008"><ele>189.83333333333334</ele><time>2026-04-06T11:31:48.537Z</time></trkpt><trkpt lat="43.2684125" lon="11.3592527"><ele>190.0</ele><time>2026-04-06T11:31:49.536Z</time></trkpt><trkpt lat="43.268339" lon="11.3592983"><ele>190.0</ele><time>2026-04-06T11:31:50.536Z</time></trkpt><trkpt lat="43.2682645" lon="11.3593373"><ele>190.0</ele><time>2026-04-06T11:31:51.534Z</time></trkpt><trkpt lat="43.2681859" lon="11.3593675"><ele>190.0</ele><time>2026-04-06T11:31:52.534Z</time></trkpt><trkpt lat="43.2681014" lon="11.3593891"><ele>190.0</ele><time>2026-04-06T11:31:53.535Z</time></trkpt><trkpt lat="43.2680126" lon="11.3593991"><ele>190.0</ele><time>2026-04-06T11:31:54.541Z</time></trkpt><trkpt lat="43.2679184" lon="11.3593946"><ele>190.0</ele><time>2026-04-06T11:31:55.533Z</time></trkpt><trkpt lat="43.267824" lon="11.359379"><ele>189.2</ele><time>2026-04-06T11:31:56.535Z</time></trkpt><trkpt lat="43.2677287" lon="11.3593527"><ele>188.4</ele><time>2026-04-06T11:31:57.536Z</time></trkpt><trkpt lat="43.2676293" lon="11.3593203"><ele>187.60000000000002</ele><time>2026-04-06T11:31:58.533Z</time></trkpt><trkpt lat="43.267529" lon="11.3592814"><ele>186.8</ele><time>2026-04-06T11:31:59.535Z</time></trkpt><trkpt lat="43.2674317" lon="11.3592327"><ele>186.0</ele><time>2026-04-06T11:32:00.536Z</time></trkpt><trkpt lat="43.2673381" lon="11.359186"><ele>185.75</ele><time>2026-04-06T11:32:01.535Z</time></trkpt><trkpt lat="43.2672421" lon="11.3591388"><ele>185.5</ele><time>2026-04-06T11:32:02.535Z</time></trkpt><trkpt lat="43.2671367" lon="11.3590917"><ele>185.25</ele><time>2026-04-06T11:32:03.539Z</time></trkpt><trkpt lat="43.2670233" lon="11.3590517"><ele>185.0</ele><time>2026-04-06T11:32:04.538Z</time></trkpt><trkpt lat="43.2669067" lon="11.3590117"><ele>185.0</ele><time>2026-04-06T11:32:05.542Z</time></trkpt><trkpt lat="43.2667933" lon="11.3589667"><ele>185.0</ele><time>2026-04-06T11:32:06.538Z</time></trkpt><trkpt lat="43.2666733" lon="11.3589183"><ele>185.0</ele><time>2026-04-06T11:32:07.538Z</time></trkpt><trkpt lat="43.2665417" lon="11.3588567"><ele>185.0</ele><time>2026-04-06T11:32:08.54Z</time></trkpt><trkpt lat="43.2664117" lon="11.3588017"><ele>185.0</ele><time>2026-04-06T11:32:09.536Z</time></trkpt><trkpt lat="43.2662917" lon="11.3587583"><ele>185.0</ele><time>2026-04-06T11:32:10.533Z</time></trkpt><trkpt lat="43.2661817" lon="11.358715"><ele>185.0</ele><time>2026-04-06T11:32:11.532Z</time></trkpt><trkpt lat="43.2660733" lon="11.358675"><ele>185.0</ele><time>2026-04-06T11:32:12.537Z</time></trkpt><trkpt lat="43.26597" lon="11.3586333"><ele>185.0</ele><time>2026-04-06T11:32:13.536Z</time></trkpt><trkpt lat="43.26587" lon="11.3585883"><ele>185.0</ele><time>2026-04-06T11:32:14.535Z</time></trkpt><trkpt lat="43.2657667" lon="11.3585417"><ele>185.0</ele><time>2026-04-06T11:32:15.536Z</time></trkpt><trkpt lat="43.2656583" lon="11.3585"><ele>185.0</ele><time>2026-04-06T11:32:16.54Z</time></trkpt><trkpt lat="43.2655583" lon="11.3584533"><ele>185.0</ele><time>2026-04-06T11:32:17.542Z</time></trkpt><trkpt lat="43.265455" lon="11.3584017"><ele>184.8</ele><time>2026-04-06T11:32:18.537Z</time></trkpt><trkpt lat="43.2653583" lon="11.35836"><ele>184.6</ele><time>2026-04-06T11:32:19.533Z</time></trkpt><trkpt lat="43.2652617" lon="11.35832"><ele>184.39999999999998</ele><time>2026-04-06T11:32:20.543Z</time></trkpt><trkpt lat="43.2651683" lon="11.35828"><ele>184.2</ele><time>2026-04-06T11:32:21.541Z</time></trkpt><trkpt lat="43.2650783" lon="11.358245"><ele>184.0</ele><time>2026-04-06T11:32:22.542Z</time></trkpt><trkpt lat="43.2649933" lon="11.3582267"><ele>184.0</ele><time>2026-04-06T11:32:23.541Z</time></trkpt><trkpt lat="43.264915" lon="11.3582067"><ele>184.0</ele><time>2026-04-06T11:32:24.537Z</time></trkpt><trkpt lat="43.2648417" lon="11.358205"><ele>184.0</ele><time>2026-04-06T11:32:25.536Z</time></trkpt><trkpt lat="43.2647733" lon="11.358225"><ele>184.0</ele><time>2026-04-06T11:32:26.535Z</time></trkpt><trkpt lat="43.264705" lon="11.3582583"><ele>184.0</ele><time>2026-04-06T11:32:27.539Z</time></trkpt><trkpt lat="43.26464" lon="11.3583117"><ele>184.0</ele><time>2026-04-06T11:32:28.535Z</time></trkpt><trkpt lat="43.2645767" lon="11.358375"><ele>184.0</ele><time>2026-04-06T11:32:29.536Z</time></trkpt><trkpt lat="43.2645183" lon="11.3584483"><ele>184.0</ele><time>2026-04-06T11:32:30.537Z</time></trkpt><trkpt lat="43.2644717" lon="11.3585367"><ele>184.0</ele><time>2026-04-06T11:32:31.536Z</time></trkpt><trkpt lat="43.2644283" lon="11.3586317"><ele>184.0</ele><time>2026-04-06T11:32:32.533Z</time></trkpt><trkpt lat="43.26438" lon="11.3587317"><ele>184.0</ele><time>2026-04-06T11:32:33.617Z</time></trkpt><trkpt lat="43.2643267" lon="11.35882"><ele>184.0</ele><time>2026-04-06T11:32:34.544Z</time></trkpt><trkpt lat="43.2642717" lon="11.35891"><ele>184.0</ele><time>2026-04-06T11:32:35.55Z</time></trkpt><trkpt lat="43.2642167" lon="11.3589983"><ele>184.0</ele><time>2026-04-06T11:32:36.533Z</time></trkpt><trkpt lat="43.26416" lon="11.35908"><ele>184.0</ele><time>2026-04-06T11:32:37.537Z</time></trkpt><trkpt lat="43.2640983" lon="11.35916"><ele>184.0</ele><time>2026-04-06T11:32:38.54Z</time></trkpt><trkpt lat="43.26402" lon="11.35924"><ele>184.0</ele><time>2026-04-06T11:32:39.536Z</time></trkpt><trkpt lat="43.2639217" lon="11.3593167"><ele>184.0</ele><time>2026-04-06T11:32:40.536Z</time></trkpt><trkpt lat="43.2638183" lon="11.35939"><ele>183.75</ele><time>2026-04-06T11:32:41.539Z</time></trkpt><trkpt lat="43.2637167" lon="11.3594633"><ele>183.5</ele><time>2026-04-06T11:32:42.536Z</time></trkpt><trkpt lat="43.2636167" lon="11.359535"><ele>183.25</ele><time>2026-04-06T11:32:43.542Z</time></trkpt><trkpt lat="43.2635183" lon="11.3596167"><ele>183.0</ele><time>2026-04-06T11:32:44.54Z</time></trkpt><trkpt lat="43.26342" lon="11.3597167"><ele>182.75</ele><time>2026-04-06T11:32:45.541Z</time></trkpt><trkpt lat="43.26332" lon="11.359815"><ele>182.5</ele><time>2026-04-06T11:32:46.535Z</time></trkpt><trkpt lat="43.26322" lon="11.3599283"><ele>182.25</ele><time>2026-04-06T11:32:47.539Z</time></trkpt><trkpt lat="43.2631183" lon="11.3600383"><ele>182.0</ele><time>2026-04-06T11:32:48.54Z</time></trkpt><trkpt lat="43.2630217" lon="11.3601383"><ele>182.25</ele><time>2026-04-06T11:32:49.54Z</time></trkpt><trkpt lat="43.262925" lon="11.360245"><ele>182.5</ele><time>2026-04-06T11:32:50.534Z</time></trkpt><trkpt lat="43.2628183" lon="11.3603483"><ele>182.75</ele><time>2026-04-06T11:32:51.534Z</time></trkpt><trkpt lat="43.2627183" lon="11.3604617"><ele>183.0</ele><time>2026-04-06T11:32:52.537Z</time></trkpt><trkpt lat="43.2626217" lon="11.3605767"><ele>183.0</ele><time>2026-04-06T11:32:53.538Z</time></trkpt><trkpt lat="43.2625333" lon="11.3606933"><ele>183.0</ele><time>2026-04-06T11:32:54.535Z</time></trkpt><trkpt lat="43.2624467" lon="11.3607967"><ele>183.0</ele><time>2026-04-06T11:32:55.538Z</time></trkpt><trkpt lat="43.2623667" lon="11.360905"><ele>183.0</ele><time>2026-04-06T11:32:56.534Z</time></trkpt><trkpt lat="43.262285" lon="11.3610033"><ele>182.75</ele><time>2026-04-06T11:32:57.545Z</time></trkpt><trkpt lat="43.2622033" lon="11.3611"><ele>182.5</ele><time>2026-04-06T11:32:58.539Z</time></trkpt><trkpt lat="43.2621233" lon="11.361195"><ele>182.25</ele><time>2026-04-06T11:32:59.539Z</time></trkpt><trkpt lat="43.2620283" lon="11.36129"><ele>182.0</ele><time>2026-04-06T11:33:00.535Z</time></trkpt><trkpt lat="43.2619267" lon="11.3613817"><ele>182.0</ele><time>2026-04-06T11:33:01.536Z</time></trkpt><trkpt lat="43.2618217" lon="11.3614617"><ele>182.0</ele><time>2026-04-06T11:33:02.54Z</time></trkpt><trkpt lat="43.2617183" lon="11.3615433"><ele>182.0</ele><time>2026-04-06T11:33:03.538Z</time></trkpt><trkpt lat="43.2616183" lon="11.3616133"><ele>182.0</ele><time>2026-04-06T11:33:04.536Z</time></trkpt><trkpt lat="43.2615167" lon="11.3616833"><ele>182.0</ele><time>2026-04-06T11:33:05.539Z</time></trkpt><trkpt lat="43.26141" lon="11.3617483"><ele>182.0</ele><time>2026-04-06T11:33:06.54Z</time></trkpt><trkpt lat="43.2613017" lon="11.3618133"><ele>182.0</ele><time>2026-04-06T11:33:07.537Z</time></trkpt><trkpt lat="43.261195" lon="11.3618733"><ele>182.0</ele><time>2026-04-06T11:33:08.541Z</time></trkpt><trkpt lat="43.2610833" lon="11.36192"><ele>182.0</ele><time>2026-04-06T11:33:09.534Z</time></trkpt><trkpt lat="43.2609683" lon="11.3619533"><ele>182.0</ele><time>2026-04-06T11:33:10.535Z</time></trkpt><trkpt lat="43.26085" lon="11.3619767"><ele>182.0</ele><time>2026-04-06T11:33:11.539Z</time></trkpt><trkpt lat="43.26073" lon="11.3619833"><ele>182.0</ele><time>2026-04-06T11:33:12.539Z</time></trkpt><trkpt lat="43.260605" lon="11.3619717"><ele>182.75</ele><time>2026-04-06T11:33:13.537Z</time></trkpt><trkpt lat="43.260475" lon="11.36195"><ele>183.5</ele><time>2026-04-06T11:33:14.537Z</time></trkpt><trkpt lat="43.2603483" lon="11.3619167"><ele>184.25</ele><time>2026-04-06T11:33:15.534Z</time></trkpt><trkpt lat="43.26023" lon="11.3618883"><ele>185.0</ele><time>2026-04-06T11:33:16.534Z</time></trkpt><trkpt lat="43.260115" lon="11.3618583"><ele>185.0</ele><time>2026-04-06T11:33:17.536Z</time></trkpt><trkpt lat="43.2600017" lon="11.36183"><ele>185.0</ele><time>2026-04-06T11:33:18.539Z</time></trkpt><trkpt lat="43.259885" lon="11.361795"><ele>185.0</ele><time>2026-04-06T11:33:19.536Z</time></trkpt><trkpt lat="43.25977" lon="11.36176"><ele>185.0</ele><time>2026-04-06T11:33:20.534Z</time></trkpt><trkpt lat="43.2596517" lon="11.3617183"><ele>187.0</ele><time>2026-04-06T11:33:21.54Z</time></trkpt><trkpt lat="43.259535" lon="11.3616667"><ele>189.0</ele><time>2026-04-06T11:33:22.539Z</time></trkpt><trkpt lat="43.2594117" lon="11.3616033"><ele>191.0</ele><time>2026-04-06T11:33:23.539Z</time></trkpt><trkpt lat="43.2592867" lon="11.3615433"><ele>193.0</ele><time>2026-04-06T11:33:24.54Z</time></trkpt><trkpt lat="43.2591717" lon="11.3614817"><ele>193.0</ele><time>2026-04-06T11:33:25.538Z</time></trkpt><trkpt lat="43.25906" lon="11.3614233"><ele>193.0</ele><time>2026-04-06T11:33:26.543Z</time></trkpt><trkpt lat="43.2589533" lon="11.3613517"><ele>193.0</ele><time>2026-04-06T11:33:27.537Z</time></trkpt><trkpt lat="43.258845" lon="11.36127"><ele>193.0</ele><time>2026-04-06T11:33:28.534Z</time></trkpt><trkpt lat="43.2587317" lon="11.36118"><ele>193.5</ele><time>2026-04-06T11:33:29.542Z</time></trkpt><trkpt lat="43.25862" lon="11.3610833"><ele>194.0</ele><time>2026-04-06T11:33:30.547Z</time></trkpt><trkpt lat="43.2585033" lon="11.36098"><ele>194.5</ele><time>2026-04-06T11:33:31.534Z</time></trkpt><trkpt lat="43.2583933" lon="11.3608833"><ele>195.0</ele><time>2026-04-06T11:33:32.547Z</time></trkpt><trkpt lat="43.258295" lon="11.3607917"><ele>195.0</ele><time>2026-04-06T11:33:33.536Z</time></trkpt><trkpt lat="43.2582033" lon="11.36071"><ele>195.0</ele><time>2026-04-06T11:33:34.536Z</time></trkpt><trkpt lat="43.2581233" lon="11.3606283"><ele>195.0</ele><time>2026-04-06T11:33:35.54Z</time></trkpt><trkpt lat="43.2580433" lon="11.3605517"><ele>195.0</ele><time>2026-04-06T11:33:36.537Z</time></trkpt><trkpt lat="43.25796" lon="11.360485"><ele>195.0</ele><time>2026-04-06T11:33:37.539Z</time></trkpt><trkpt lat="43.25787" lon="11.3604233"><ele>195.0</ele><time>2026-04-06T11:33:38.536Z</time></trkpt><trkpt lat="43.2577667" lon="11.3603733"><ele>195.0</ele><time>2026-04-06T11:33:39.538Z</time></trkpt><trkpt lat="43.25766" lon="11.3603233"><ele>195.0</ele><time>2026-04-06T11:33:40.54Z</time></trkpt><trkpt lat="43.2575633" lon="11.36027"><ele>195.0</ele><time>2026-04-06T11:33:41.534Z</time></trkpt><trkpt lat="43.2574667" lon="11.3602167"><ele>195.0</ele><time>2026-04-06T11:33:42.539Z</time></trkpt><trkpt lat="43.2573717" lon="11.3601683"><ele>195.8</ele><time>2026-04-06T11:33:43.539Z</time></trkpt><trkpt lat="43.25727" lon="11.3601267"><ele>196.6</ele><time>2026-04-06T11:33:44.542Z</time></trkpt><trkpt lat="43.2571633" lon="11.3601083"><ele>197.39999999999998</ele><time>2026-04-06T11:33:45.536Z</time></trkpt><trkpt lat="43.2570633" lon="11.3601017"><ele>198.2</ele><time>2026-04-06T11:33:46.538Z</time></trkpt><trkpt lat="43.2569717" lon="11.3600917"><ele>199.0</ele><time>2026-04-06T11:33:47.537Z</time></trkpt><trkpt lat="43.2568733" lon="11.3600917"><ele>199.0</ele><time>2026-04-06T11:33:48.536Z</time></trkpt><trkpt lat="43.25677" lon="11.360095"><ele>199.0</ele><time>2026-04-06T11:33:49.533Z</time></trkpt><trkpt lat="43.2566633" lon="11.3601083"><ele>199.0</ele><time>2026-04-06T11:33:50.541Z</time></trkpt><trkpt lat="43.256555" lon="11.3601333"><ele>199.0</ele><time>2026-04-06T11:33:51.536Z</time></trkpt><trkpt lat="43.256445" lon="11.3601617"><ele>199.0</ele><time>2026-04-06T11:33:52.534Z</time></trkpt><trkpt lat="43.2563367" lon="11.360185"><ele>199.79999999999998</ele><time>2026-04-06T11:33:53.537Z</time></trkpt><trkpt lat="43.25624" lon="11.3602"><ele>200.6</ele><time>2026-04-06T11:33:54.534Z</time></trkpt><trkpt lat="43.2561467" lon="11.3602283"><ele>201.4</ele><time>2026-04-06T11:33:55.532Z</time></trkpt><trkpt lat="43.256055" lon="11.360285"><ele>202.2</ele><time>2026-04-06T11:33:56.54Z</time></trkpt><trkpt lat="43.2559583" lon="11.3603567"><ele>203.0</ele><time>2026-04-06T11:33:57.536Z</time></trkpt><trkpt lat="43.255855" lon="11.3604367"><ele>203.0</ele><time>2026-04-06T11:33:58.537Z</time></trkpt><trkpt lat="43.2557383" lon="11.3605217"><ele>203.0</ele><time>2026-04-06T11:33:59.533Z</time></trkpt><trkpt lat="43.2556183" lon="11.3606083"><ele>203.0</ele><time>2026-04-06T11:34:00.542Z</time></trkpt><trkpt lat="43.2555" lon="11.36069"><ele>203.0</ele><time>2026-04-06T11:34:01.535Z</time></trkpt><trkpt lat="43.2553867" lon="11.3607733"><ele>205.75</ele><time>2026-04-06T11:34:02.535Z</time></trkpt><trkpt lat="43.255285" lon="11.3608767"><ele>208.5</ele><time>2026-04-06T11:34:03.537Z</time></trkpt><trkpt lat="43.2551817" lon="11.3610017"><ele>211.25</ele><time>2026-04-06T11:34:04.533Z</time></trkpt><trkpt lat="43.2550817" lon="11.3611417"><ele>214.0</ele><time>2026-04-06T11:34:05.535Z</time></trkpt><trkpt lat="43.2549917" lon="11.3612883"><ele>214.0</ele><time>2026-04-06T11:34:06.541Z</time></trkpt><trkpt lat="43.2549133" lon="11.3614267"><ele>214.0</ele><time>2026-04-06T11:34:07.537Z</time></trkpt><trkpt lat="43.2548433" lon="11.36156"><ele>214.0</ele><time>2026-04-06T11:34:08.54Z</time></trkpt><trkpt lat="43.25478" lon="11.361685"><ele>214.0</ele><time>2026-04-06T11:34:09.538Z</time></trkpt><trkpt lat="43.25471" lon="11.3618033"><ele>215.2</ele><time>2026-04-06T11:34:10.535Z</time></trkpt><trkpt lat="43.2546433" lon="11.3619167"><ele>216.39999999999998</ele><time>2026-04-06T11:34:11.541Z</time></trkpt><trkpt lat="43.2545667" lon="11.36202"><ele>217.6</ele><time>2026-04-06T11:34:12.535Z</time></trkpt><trkpt lat="43.254475" lon="11.3621083"><ele>218.8</ele><time>2026-04-06T11:34:13.54Z</time></trkpt><trkpt lat="43.2543833" lon="11.3621883"><ele>220.0</ele><time>2026-04-06T11:34:14.533Z</time></trkpt><trkpt lat="43.2542883" lon="11.3622533"><ele>220.0</ele><time>2026-04-06T11:34:15.536Z</time></trkpt><trkpt lat="43.25419" lon="11.3623"><ele>220.0</ele><time>2026-04-06T11:34:16.536Z</time></trkpt><trkpt lat="43.2540867" lon="11.3623333"><ele>220.0</ele><time>2026-04-06T11:34:17.538Z</time></trkpt><trkpt lat="43.253975" lon="11.3623567"><ele>220.0</ele><time>2026-04-06T11:34:18.546Z</time></trkpt><trkpt lat="43.2538617" lon="11.3623767"><ele>220.0</ele><time>2026-04-06T11:34:19.536Z</time></trkpt><trkpt lat="43.2537399" lon="11.362397"><ele>221.25</ele><time>2026-04-06T11:34:20.546Z</time></trkpt><trkpt lat="43.2536114" lon="11.3624214"><ele>222.5</ele><time>2026-04-06T11:34:21.541Z</time></trkpt><trkpt lat="43.2534787" lon="11.3624547"><ele>223.75</ele><time>2026-04-06T11:34:22.535Z</time></trkpt><trkpt lat="43.2533473" lon="11.3624877"><ele>225.0</ele><time>2026-04-06T11:34:23.533Z</time></trkpt><trkpt lat="43.2532285" lon="11.3625264"><ele>225.6</ele><time>2026-04-06T11:34:24.537Z</time></trkpt><trkpt lat="43.2531218" lon="11.3625665"><ele>226.2</ele><time>2026-04-06T11:34:25.54Z</time></trkpt><trkpt lat="43.2530181" lon="11.3626168"><ele>226.8</ele><time>2026-04-06T11:34:26.537Z</time></trkpt><trkpt lat="43.2529164" lon="11.3626755"><ele>227.4</ele><time>2026-04-06T11:34:27.534Z</time></trkpt><trkpt lat="43.2528155" lon="11.3627339"><ele>228.0</ele><time>2026-04-06T11:34:28.539Z</time></trkpt><trkpt lat="43.2527093" lon="11.3627972"><ele>228.0</ele><time>2026-04-06T11:34:29.539Z</time></trkpt><trkpt lat="43.2525968" lon="11.3628565"><ele>228.0</ele><time>2026-04-06T11:34:30.542Z</time></trkpt><trkpt lat="43.2524961" lon="11.3629256"><ele>228.0</ele><time>2026-04-06T11:34:31.537Z</time></trkpt><trkpt lat="43.2524083" lon="11.3630019"><ele>228.0</ele><time>2026-04-06T11:34:32.532Z</time></trkpt><trkpt lat="43.252325" lon="11.363091"><ele>228.0</ele><time>2026-04-06T11:34:33.537Z</time></trkpt><trkpt lat="43.2522446" lon="11.363186"><ele>229.0</ele><time>2026-04-06T11:34:34.538Z</time></trkpt><trkpt lat="43.2521701" lon="11.363279"><ele>230.0</ele><time>2026-04-06T11:34:35.537Z</time></trkpt><trkpt lat="43.2520958" lon="11.3633602"><ele>231.0</ele><time>2026-04-06T11:34:36.54Z</time></trkpt><trkpt lat="43.2520201" lon="11.3634289"><ele>232.0</ele><time>2026-04-06T11:34:37.534Z</time></trkpt><trkpt lat="43.2519386" lon="11.3634948"><ele>233.0</ele><time>2026-04-06T11:34:38.536Z</time></trkpt><trkpt lat="43.2518582" lon="11.3635484"><ele>233.00000000000003</ele><time>2026-04-06T11:34:39.538Z</time></trkpt><trkpt lat="43.2517751" lon="11.3635937"><ele>233.0</ele><time>2026-04-06T11:34:40.54Z</time></trkpt><trkpt lat="43.2516941" lon="11.3636268"><ele>233.0</ele><time>2026-04-06T11:34:41.535Z</time></trkpt><trkpt lat="43.2516124" lon="11.3636442"><ele>233.0</ele><time>2026-04-06T11:34:42.532Z</time></trkpt><trkpt lat="43.2515263" lon="11.3636491"><ele>233.00000000000003</ele><time>2026-04-06T11:34:43.533Z</time></trkpt><trkpt lat="43.2514386" lon="11.3636408"><ele>233.0</ele><time>2026-04-06T11:34:44.539Z</time></trkpt><trkpt lat="43.2513504" lon="11.3636163"><ele>231.4</ele><time>2026-04-06T11:34:45.54Z</time></trkpt><trkpt lat="43.251264" lon="11.3635818"><ele>229.8</ele><time>2026-04-06T11:34:46.535Z</time></trkpt><trkpt lat="43.251174" lon="11.363543"><ele>228.2</ele><time>2026-04-06T11:34:47.538Z</time></trkpt><trkpt lat="43.2510757" lon="11.3635043"><ele>226.6</ele><time>2026-04-06T11:34:48.54Z</time></trkpt><trkpt lat="43.2509788" lon="11.3634588"><ele>225.0</ele><time>2026-04-06T11:34:49.538Z</time></trkpt><trkpt lat="43.2508801" lon="11.3634125"><ele>225.0</ele><time>2026-04-06T11:34:50.537Z</time></trkpt><trkpt lat="43.2507767" lon="11.3633698"><ele>225.0</ele><time>2026-04-06T11:34:51.554Z</time></trkpt><trkpt lat="43.2506727" lon="11.36333"><ele>225.0</ele><time>2026-04-06T11:34:52.536Z</time></trkpt><trkpt lat="43.2505679" lon="11.3633029"><ele>225.0</ele><time>2026-04-06T11:34:53.534Z</time></trkpt><trkpt lat="43.2504669" lon="11.3632819"><ele>225.0</ele><time>2026-04-06T11:34:54.534Z</time></trkpt><trkpt lat="43.2503693" lon="11.363262"><ele>224.6</ele><time>2026-04-06T11:34:55.542Z</time></trkpt><trkpt lat="43.2502702" lon="11.3632424"><ele>224.2</ele><time>2026-04-06T11:34:56.536Z</time></trkpt><trkpt lat="43.2501632" lon="11.363209"><ele>223.8</ele><time>2026-04-06T11:34:57.536Z</time></trkpt><trkpt lat="43.2500495" lon="11.3631761"><ele>223.4</ele><time>2026-04-06T11:34:58.537Z</time></trkpt><trkpt lat="43.2499412" lon="11.3631496"><ele>223.0</ele><time>2026-04-06T11:34:59.538Z</time></trkpt><trkpt lat="43.2498431" lon="11.3631249"><ele>223.71428571428572</ele><time>2026-04-06T11:35:00.548Z</time></trkpt><trkpt lat="43.249756" lon="11.3631065"><ele>224.42857142857142</ele><time>2026-04-06T11:35:01.548Z</time></trkpt><trkpt lat="43.2496753" lon="11.3630925"><ele>225.14285714285714</ele><time>2026-04-06T11:35:02.538Z</time></trkpt><trkpt lat="43.2496002" lon="11.3630908"><ele>225.85714285714283</ele><time>2026-04-06T11:35:03.537Z</time></trkpt><trkpt lat="43.2495301" lon="11.3631007"><ele>226.57142857142856</ele><time>2026-04-06T11:35:04.538Z</time></trkpt><trkpt lat="43.2494665" lon="11.3631189"><ele>227.28571428571428</ele><time>2026-04-06T11:35:05.534Z</time></trkpt><trkpt lat="43.2494052" lon="11.363145"><ele>228.0</ele><time>2026-04-06T11:35:06.536Z</time></trkpt><trkpt lat="43.2492875" lon="11.3632054"><ele>228.0</ele><time>2026-04-06T11:35:08.536Z</time></trkpt><trkpt lat="43.2492254" lon="11.3632507"><ele>228.0</ele><time>2026-04-06T11:35:09.534Z</time></trkpt><trkpt lat="43.2491604" lon="11.3632983"><ele>228.0</ele><time>2026-04-06T11:35:10.537Z</time></trkpt><trkpt lat="43.2490902" lon="11.3633559"><ele>228.0</ele><time>2026-04-06T11:35:11.535Z</time></trkpt><trkpt lat="43.2490153" lon="11.3634306"><ele>228.0</ele><time>2026-04-06T11:35:12.533Z</time></trkpt><trkpt lat="43.2489393" lon="11.3635166"><ele>228.0</ele><time>2026-04-06T11:35:13.538Z</time></trkpt><trkpt lat="43.2488628" lon="11.3636264"><ele>228.0</ele><time>2026-04-06T11:35:14.536Z</time></trkpt><trkpt lat="43.2487716" lon="11.3637547"><ele>228.0</ele><time>2026-04-06T11:35:15.536Z</time></trkpt><trkpt lat="43.2486784" lon="11.3638862"><ele>228.0</ele><time>2026-04-06T11:35:16.535Z</time></trkpt><trkpt lat="43.248591" lon="11.364006"><ele>228.0</ele><time>2026-04-06T11:35:17.538Z</time></trkpt><trkpt lat="43.2485145" lon="11.3641089"><ele>227.83333333333334</ele><time>2026-04-06T11:35:18.544Z</time></trkpt><trkpt lat="43.2484461" lon="11.3642002"><ele>227.66666666666669</ele><time>2026-04-06T11:35:19.542Z</time></trkpt><trkpt lat="43.2483852" lon="11.3642848"><ele>227.5</ele><time>2026-04-06T11:35:20.544Z</time></trkpt><trkpt lat="43.2483349" lon="11.3643721"><ele>227.33333333333334</ele><time>2026-04-06T11:35:21.537Z</time></trkpt><trkpt lat="43.2482962" lon="11.3644681"><ele>227.16666666666669</ele><time>2026-04-06T11:35:22.534Z</time></trkpt><trkpt lat="43.2482736" lon="11.3645764"><ele>227.0</ele><time>2026-04-06T11:35:23.536Z</time></trkpt><trkpt lat="43.2482579" lon="11.3646929"><ele>226.66666666666669</ele><time>2026-04-06T11:35:24.538Z</time></trkpt><trkpt lat="43.2482482" lon="11.3648115"><ele>226.33333333333334</ele><time>2026-04-06T11:35:25.545Z</time></trkpt><trkpt lat="43.2482502" lon="11.3649302"><ele>226.0</ele><time>2026-04-06T11:35:26.537Z</time></trkpt><trkpt lat="43.2482499" lon="11.3650464"><ele>225.66666666666669</ele><time>2026-04-06T11:35:27.541Z</time></trkpt><trkpt lat="43.2482405" lon="11.3651578"><ele>225.33333333333334</ele><time>2026-04-06T11:35:28.538Z</time></trkpt><trkpt lat="43.2482235" lon="11.3652682"><ele>225.0</ele><time>2026-04-06T11:35:29.544Z</time></trkpt><trkpt lat="43.2481979" lon="11.3653704"><ele>225.0</ele><time>2026-04-06T11:35:30.537Z</time></trkpt><trkpt lat="43.2481655" lon="11.3654693"><ele>225.0</ele><time>2026-04-06T11:35:31.54Z</time></trkpt><trkpt lat="43.2481264" lon="11.3655735"><ele>225.0</ele><time>2026-04-06T11:35:32.533Z</time></trkpt><trkpt lat="43.2480707" lon="11.3656638"><ele>225.0</ele><time>2026-04-06T11:35:33.539Z</time></trkpt><trkpt lat="43.248005" lon="11.365749"><ele>225.0</ele><time>2026-04-06T11:35:34.537Z</time></trkpt><trkpt lat="43.2479321" lon="11.3658344"><ele>225.0</ele><time>2026-04-06T11:35:35.535Z</time></trkpt><trkpt lat="43.2478513" lon="11.3659136"><ele>224.5</ele><time>2026-04-06T11:35:36.539Z</time></trkpt><trkpt lat="43.2477586" lon="11.3659855"><ele>224.0</ele><time>2026-04-06T11:35:37.536Z</time></trkpt><trkpt lat="43.2476522" lon="11.3660381"><ele>223.5</ele><time>2026-04-06T11:35:38.54Z</time></trkpt><trkpt lat="43.2475275" lon="11.3660744"><ele>223.0</ele><time>2026-04-06T11:35:39.538Z</time></trkpt><trkpt lat="43.2473807" lon="11.3661108"><ele>222.33333333333331</ele><time>2026-04-06T11:35:40.534Z</time></trkpt><trkpt lat="43.2472196" lon="11.3661535"><ele>221.66666666666669</ele><time>2026-04-06T11:35:41.536Z</time></trkpt><trkpt lat="43.2470585" lon="11.3662044"><ele>221.0</ele><time>2026-04-06T11:35:42.536Z</time></trkpt><trkpt lat="43.2469068" lon="11.3662572"><ele>221.0</ele><time>2026-04-06T11:35:43.542Z</time></trkpt><trkpt lat="43.2467654" lon="11.36631"><ele>221.0</ele><time>2026-04-06T11:35:44.538Z</time></trkpt><trkpt lat="43.2466328" lon="11.3663659"><ele>221.0</ele><time>2026-04-06T11:35:45.536Z</time></trkpt><trkpt lat="43.2465119" lon="11.3664223"><ele>221.0</ele><time>2026-04-06T11:35:46.533Z</time></trkpt><trkpt lat="43.2463988" lon="11.3664817"><ele>221.75</ele><time>2026-04-06T11:35:47.536Z</time></trkpt><trkpt lat="43.2462941" lon="11.3665558"><ele>222.5</ele><time>2026-04-06T11:35:48.536Z</time></trkpt><trkpt lat="43.2461973" lon="11.3666407"><ele>223.25</ele><time>2026-04-06T11:35:49.539Z</time></trkpt><trkpt lat="43.246106" lon="11.3667403"><ele>224.0</ele><time>2026-04-06T11:35:50.543Z</time></trkpt><trkpt lat="43.2460133" lon="11.3668418"><ele>224.0</ele><time>2026-04-06T11:35:51.533Z</time></trkpt><trkpt lat="43.24592" lon="11.3669452"><ele>224.0</ele><time>2026-04-06T11:35:52.54Z</time></trkpt><trkpt lat="43.2458242" lon="11.3670474"><ele>224.0</ele><time>2026-04-06T11:35:53.536Z</time></trkpt><trkpt lat="43.2457242" lon="11.3671443"><ele>224.0</ele><time>2026-04-06T11:35:54.534Z</time></trkpt><trkpt lat="43.2456163" lon="11.3672369"><ele>223.0</ele><time>2026-04-06T11:35:55.537Z</time></trkpt><trkpt lat="43.2454935" lon="11.3673228"><ele>222.0</ele><time>2026-04-06T11:35:56.543Z</time></trkpt><trkpt lat="43.2453555" lon="11.3673945"><ele>221.0</ele><time>2026-04-06T11:35:57.537Z</time></trkpt><trkpt lat="43.2452058" lon="11.3674564"><ele>220.0</ele><time>2026-04-06T11:35:58.538Z</time></trkpt><trkpt lat="43.2450416" lon="11.36751"><ele>220.0</ele><time>2026-04-06T11:35:59.539Z</time></trkpt><trkpt lat="43.2448725" lon="11.3675619"><ele>220.0</ele><time>2026-04-06T11:36:00.536Z</time></trkpt><trkpt lat="43.2447081" lon="11.3676087"><ele>220.0</ele><time>2026-04-06T11:36:01.54Z</time></trkpt><trkpt lat="43.2445578" lon="11.3676535"><ele>220.75</ele><time>2026-04-06T11:36:02.539Z</time></trkpt><trkpt lat="43.2444148" lon="11.3676964"><ele>221.5</ele><time>2026-04-06T11:36:03.537Z</time></trkpt><trkpt lat="43.2442751" lon="11.3677468"><ele>222.25</ele><time>2026-04-06T11:36:04.535Z</time></trkpt><trkpt lat="43.2441454" lon="11.3677926"><ele>223.0</ele><time>2026-04-06T11:36:05.535Z</time></trkpt><trkpt lat="43.2440251" lon="11.3678335"><ele>223.75</ele><time>2026-04-06T11:36:06.538Z</time></trkpt><trkpt lat="43.2439146" lon="11.367871"><ele>224.5</ele><time>2026-04-06T11:36:07.539Z</time></trkpt><trkpt lat="43.2438072" lon="11.3679085"><ele>225.25</ele><time>2026-04-06T11:36:08.539Z</time></trkpt><trkpt lat="43.2436959" lon="11.3679382"><ele>226.0</ele><time>2026-04-06T11:36:09.536Z</time></trkpt><trkpt lat="43.2435858" lon="11.3679627"><ele>226.0</ele><time>2026-04-06T11:36:10.536Z</time></trkpt><trkpt lat="43.2434828" lon="11.3679881"><ele>226.00000000000003</ele><time>2026-04-06T11:36:11.534Z</time></trkpt><trkpt lat="43.2433815" lon="11.3680044"><ele>226.00000000000003</ele><time>2026-04-06T11:36:12.539Z</time></trkpt><trkpt lat="43.2432804" lon="11.3680091"><ele>226.0</ele><time>2026-04-06T11:36:13.539Z</time></trkpt><trkpt lat="43.2431822" lon="11.3680246"><ele>226.0</ele><time>2026-04-06T11:36:14.536Z</time></trkpt><trkpt lat="43.2430872" lon="11.3680565"><ele>225.20000000000002</ele><time>2026-04-06T11:36:15.536Z</time></trkpt><trkpt lat="43.242994" lon="11.3680889"><ele>224.40000000000003</ele><time>2026-04-06T11:36:16.533Z</time></trkpt><trkpt lat="43.2429023" lon="11.36813"><ele>223.6</ele><time>2026-04-06T11:36:17.538Z</time></trkpt><trkpt lat="43.2428139" lon="11.3681794"><ele>222.8</ele><time>2026-04-06T11:36:18.536Z</time></trkpt><trkpt lat="43.2427249" lon="11.3682398"><ele>222.0</ele><time>2026-04-06T11:36:19.534Z</time></trkpt><trkpt lat="43.2426366" lon="11.3683115"><ele>222.0</ele><time>2026-04-06T11:36:20.537Z</time></trkpt><trkpt lat="43.2425498" lon="11.3683988"><ele>222.0</ele><time>2026-04-06T11:36:21.536Z</time></trkpt><trkpt lat="43.2424658" lon="11.3685001"><ele>222.0</ele><time>2026-04-06T11:36:22.538Z</time></trkpt><trkpt lat="43.2423799" lon="11.3686108"><ele>222.0</ele><time>2026-04-06T11:36:23.534Z</time></trkpt><trkpt lat="43.2422874" lon="11.3687302"><ele>222.25</ele><time>2026-04-06T11:36:24.538Z</time></trkpt><trkpt lat="43.2421857" lon="11.3688553"><ele>222.5</ele><time>2026-04-06T11:36:25.535Z</time></trkpt><trkpt lat="43.2420833" lon="11.3689845"><ele>222.75</ele><time>2026-04-06T11:36:26.54Z</time></trkpt><trkpt lat="43.241986" lon="11.3691037"><ele>223.0</ele><time>2026-04-06T11:36:27.538Z</time></trkpt><trkpt lat="43.2419003" lon="11.3692194"><ele>222.25</ele><time>2026-04-06T11:36:28.535Z</time></trkpt><trkpt lat="43.2418186" lon="11.3693282"><ele>221.5</ele><time>2026-04-06T11:36:29.535Z</time></trkpt><trkpt lat="43.2417348" lon="11.3694267"><ele>220.75</ele><time>2026-04-06T11:36:30.54Z</time></trkpt><trkpt lat="43.2416492" lon="11.3695302"><ele>220.0</ele><time>2026-04-06T11:36:31.536Z</time></trkpt><trkpt lat="43.2415602" lon="11.3696325"><ele>219.25</ele><time>2026-04-06T11:36:32.537Z</time></trkpt><trkpt lat="43.2414727" lon="11.3697375"><ele>218.5</ele><time>2026-04-06T11:36:33.537Z</time></trkpt><trkpt lat="43.2413842" lon="11.3698357"><ele>217.75</ele><time>2026-04-06T11:36:34.534Z</time></trkpt><trkpt lat="43.2412932" lon="11.3699295"><ele>217.0</ele><time>2026-04-06T11:36:35.536Z</time></trkpt><trkpt lat="43.2412027" lon="11.3700182"><ele>216.6</ele><time>2026-04-06T11:36:36.537Z</time></trkpt><trkpt lat="43.2411138" lon="11.3701059"><ele>216.2</ele><time>2026-04-06T11:36:37.54Z</time></trkpt><trkpt lat="43.2410268" lon="11.3701919"><ele>215.8</ele><time>2026-04-06T11:36:38.537Z</time></trkpt><trkpt lat="43.2409362" lon="11.3702713"><ele>215.4</ele><time>2026-04-06T11:36:39.535Z</time></trkpt><trkpt lat="43.2408433" lon="11.3703482"><ele>215.0</ele><time>2026-04-06T11:36:40.533Z</time></trkpt><trkpt lat="43.2407481" lon="11.3704295"><ele>215.0</ele><time>2026-04-06T11:36:41.545Z</time></trkpt><trkpt lat="43.2406586" lon="11.3705193"><ele>215.0</ele><time>2026-04-06T11:36:42.536Z</time></trkpt><trkpt lat="43.2405741" lon="11.3706228"><ele>215.0</ele><time>2026-04-06T11:36:43.537Z</time></trkpt><trkpt lat="43.2404945" lon="11.3707385"><ele>215.0</ele><time>2026-04-06T11:36:44.542Z</time></trkpt><trkpt lat="43.2404168" lon="11.3708632"><ele>214.75</ele><time>2026-04-06T11:36:45.534Z</time></trkpt><trkpt lat="43.2403341" lon="11.3709925"><ele>214.5</ele><time>2026-04-06T11:36:46.539Z</time></trkpt><trkpt lat="43.2402497" lon="11.3711331"><ele>214.25</ele><time>2026-04-06T11:36:47.539Z</time></trkpt><trkpt lat="43.240169" lon="11.3712739"><ele>214.0</ele><time>2026-04-06T11:36:48.537Z</time></trkpt><trkpt lat="43.2400934" lon="11.3714078"><ele>214.0</ele><time>2026-04-06T11:36:49.535Z</time></trkpt><trkpt lat="43.2400215" lon="11.3715411"><ele>214.0</ele><time>2026-04-06T11:36:50.534Z</time></trkpt><trkpt lat="43.2399488" lon="11.3716745"><ele>214.0</ele><time>2026-04-06T11:36:51.538Z</time></trkpt><trkpt lat="43.2398803" lon="11.3718081"><ele>214.0</ele><time>2026-04-06T11:36:52.538Z</time></trkpt><trkpt lat="43.2398174" lon="11.3719424"><ele>213.79999999999998</ele><time>2026-04-06T11:36:53.538Z</time></trkpt><trkpt lat="43.2397575" lon="11.3720672"><ele>213.59999999999997</ele><time>2026-04-06T11:36:54.539Z</time></trkpt><trkpt lat="43.2397052" lon="11.3721837"><ele>213.4</ele><time>2026-04-06T11:36:55.533Z</time></trkpt><trkpt lat="43.2396566" lon="11.3722924"><ele>213.2</ele><time>2026-04-06T11:36:56.54Z</time></trkpt><trkpt lat="43.2396128" lon="11.3723917"><ele>213.0</ele><time>2026-04-06T11:36:57.537Z</time></trkpt><trkpt lat="43.2395709" lon="11.3724789"><ele>213.0</ele><time>2026-04-06T11:36:58.537Z</time></trkpt><trkpt lat="43.2395244" lon="11.3725559"><ele>213.0</ele><time>2026-04-06T11:36:59.533Z</time></trkpt><trkpt lat="43.2394733" lon="11.3726205"><ele>213.0</ele><time>2026-04-06T11:37:00.537Z</time></trkpt><trkpt lat="43.239412" lon="11.3726643"><ele>213.0</ele><time>2026-04-06T11:37:01.539Z</time></trkpt><trkpt lat="43.2393395" lon="11.372689"><ele>213.0</ele><time>2026-04-06T11:37:02.55Z</time></trkpt><trkpt lat="43.2392534" lon="11.3727039"><ele>213.0</ele><time>2026-04-06T11:37:03.537Z</time></trkpt><trkpt lat="43.2391458" lon="11.3727067"><ele>213.0</ele><time>2026-04-06T11:37:04.534Z</time></trkpt><trkpt lat="43.2390315" lon="11.3727"><ele>213.0</ele><time>2026-04-06T11:37:05.537Z</time></trkpt><trkpt lat="43.2389237" lon="11.3727029"><ele>213.0</ele><time>2026-04-06T11:37:06.536Z</time></trkpt><trkpt lat="43.2388176" lon="11.3727214"><ele>213.0</ele><time>2026-04-06T11:37:07.553Z</time></trkpt><trkpt lat="43.238713" lon="11.3727538"><ele>213.0</ele><time>2026-04-06T11:37:08.538Z</time></trkpt><trkpt lat="43.2386132" lon="11.3728042"><ele>213.0</ele><time>2026-04-06T11:37:09.54Z</time></trkpt><trkpt lat="43.238522" lon="11.3728532"><ele>213.0</ele><time>2026-04-06T11:37:10.537Z</time></trkpt><trkpt lat="43.2384401" lon="11.372901"><ele>213.0</ele><time>2026-04-06T11:37:11.535Z</time></trkpt><trkpt lat="43.2383694" lon="11.3729548"><ele>213.0</ele><time>2026-04-06T11:37:12.536Z</time></trkpt><trkpt lat="43.2383088" lon="11.3730183"><ele>213.0</ele><time>2026-04-06T11:37:13.535Z</time></trkpt><trkpt lat="43.2382598" lon="11.3730958"><ele>213.0</ele><time>2026-04-06T11:37:14.618Z</time></trkpt><trkpt lat="43.2382268" lon="11.3731796"><ele>211.4</ele><time>2026-04-06T11:37:15.534Z</time></trkpt><trkpt lat="43.2382011" lon="11.373293"><ele>209.8</ele><time>2026-04-06T11:37:16.538Z</time></trkpt><trkpt lat="43.2381916" lon="11.3734314"><ele>208.2</ele><time>2026-04-06T11:37:17.535Z</time></trkpt><trkpt lat="43.2382024" lon="11.3735917"><ele>206.6</ele><time>2026-04-06T11:37:18.535Z</time></trkpt><trkpt lat="43.2382196" lon="11.373758"><ele>205.0</ele><time>2026-04-06T11:37:19.535Z</time></trkpt><trkpt lat="43.2382363" lon="11.3739166"><ele>204.8</ele><time>2026-04-06T11:37:20.538Z</time></trkpt><trkpt lat="43.2382493" lon="11.3740707"><ele>204.6</ele><time>2026-04-06T11:37:21.541Z</time></trkpt><trkpt lat="43.2382585" lon="11.3742258"><ele>204.39999999999998</ele><time>2026-04-06T11:37:22.549Z</time></trkpt><trkpt lat="43.2382681" lon="11.3743772"><ele>204.2</ele><time>2026-04-06T11:37:23.535Z</time></trkpt><trkpt lat="43.2382724" lon="11.3745198"><ele>204.0</ele><time>2026-04-06T11:37:24.54Z</time></trkpt><trkpt lat="43.2382713" lon="11.3746491"><ele>204.0</ele><time>2026-04-06T11:37:25.538Z</time></trkpt><trkpt lat="43.2382634" lon="11.3747687"><ele>204.0</ele><time>2026-04-06T11:37:26.537Z</time></trkpt><trkpt lat="43.2382532" lon="11.3748855"><ele>204.0</ele><time>2026-04-06T11:37:27.54Z</time></trkpt><trkpt lat="43.2382371" lon="11.3749859"><ele>204.0</ele><time>2026-04-06T11:37:28.534Z</time></trkpt><trkpt lat="43.2381999" lon="11.3750669"><ele>204.0</ele><time>2026-04-06T11:37:29.533Z</time></trkpt><trkpt lat="43.2381532" lon="11.375132"><ele>204.0</ele><time>2026-04-06T11:37:30.539Z</time></trkpt><trkpt lat="43.2380965" lon="11.3751908"><ele>204.0</ele><time>2026-04-06T11:37:31.534Z</time></trkpt><trkpt lat="43.238031" lon="11.3752496"><ele>204.0</ele><time>2026-04-06T11:37:32.533Z</time></trkpt><trkpt lat="43.2379595" lon="11.3753094"><ele>204.0</ele><time>2026-04-06T11:37:33.538Z</time></trkpt><trkpt lat="43.237882" lon="11.3753698"><ele>204.0</ele><time>2026-04-06T11:37:34.542Z</time></trkpt><trkpt lat="43.2378053" lon="11.3754302"><ele>204.0</ele><time>2026-04-06T11:37:35.538Z</time></trkpt><trkpt lat="43.2377346" lon="11.3755068"><ele>204.0</ele><time>2026-04-06T11:37:36.537Z</time></trkpt><trkpt lat="43.2376621" lon="11.3755813"><ele>203.0</ele><time>2026-04-06T11:37:37.537Z</time></trkpt><trkpt lat="43.2375859" lon="11.3756591"><ele>202.0</ele><time>2026-04-06T11:37:38.536Z</time></trkpt><trkpt lat="43.2375069" lon="11.3757466"><ele>201.0</ele><time>2026-04-06T11:37:39.536Z</time></trkpt><trkpt lat="43.2374289" lon="11.3758335"><ele>200.0</ele><time>2026-04-06T11:37:40.54Z</time></trkpt><trkpt lat="43.2373509" lon="11.3759167"><ele>199.0</ele><time>2026-04-06T11:37:41.536Z</time></trkpt><trkpt lat="43.2372697" lon="11.376"><ele>198.49999999999997</ele><time>2026-04-06T11:37:42.538Z</time></trkpt><trkpt lat="43.2371948" lon="11.3760832"><ele>198.0</ele><time>2026-04-06T11:37:43.533Z</time></trkpt><trkpt lat="43.2371241" lon="11.3761655"><ele>197.5</ele><time>2026-04-06T11:37:44.546Z</time></trkpt><trkpt lat="43.2370594" lon="11.3762423"><ele>197.0</ele><time>2026-04-06T11:37:45.539Z</time></trkpt><trkpt lat="43.2369907" lon="11.3763038"><ele>196.49999999999997</ele><time>2026-04-06T11:37:46.535Z</time></trkpt><trkpt lat="43.2369184" lon="11.3763497"><ele>196.0</ele><time>2026-04-06T11:37:47.534Z</time></trkpt><trkpt lat="43.2368296" lon="11.3763762"><ele>196.0</ele><time>2026-04-06T11:37:48.539Z</time></trkpt><trkpt lat="43.23673" lon="11.3763763"><ele>196.0</ele><time>2026-04-06T11:37:49.539Z</time></trkpt><trkpt lat="43.2366354" lon="11.3763627"><ele>196.0</ele><time>2026-04-06T11:37:50.539Z</time></trkpt><trkpt lat="43.236551" lon="11.3763309"><ele>196.0</ele><time>2026-04-06T11:37:51.536Z</time></trkpt><trkpt lat="43.2364718" lon="11.3762908"><ele>196.0</ele><time>2026-04-06T11:37:52.535Z</time></trkpt><trkpt lat="43.2364005" lon="11.3762319"><ele>194.33333333333331</ele><time>2026-04-06T11:37:53.535Z</time></trkpt><trkpt lat="43.2363383" lon="11.3761611"><ele>192.66666666666666</ele><time>2026-04-06T11:37:54.537Z</time></trkpt><trkpt lat="43.2362876" lon="11.3760722"><ele>191.0</ele><time>2026-04-06T11:37:55.54Z</time></trkpt><trkpt lat="43.2362447" lon="11.3759763"><ele>189.33333333333331</ele><time>2026-04-06T11:37:56.537Z</time></trkpt><trkpt lat="43.2362169" lon="11.3758734"><ele>187.66666666666666</ele><time>2026-04-06T11:37:57.535Z</time></trkpt><trkpt lat="43.2361944" lon="11.375768"><ele>186.0</ele><time>2026-04-06T11:37:58.532Z</time></trkpt><trkpt lat="43.23618" lon="11.3756589"><ele>186.0</ele><time>2026-04-06T11:37:59.535Z</time></trkpt><trkpt lat="43.2361726" lon="11.3755495"><ele>186.0</ele><time>2026-04-06T11:38:00.538Z</time></trkpt><trkpt lat="43.2361765" lon="11.3754368"><ele>186.0</ele><time>2026-04-06T11:38:01.536Z</time></trkpt><trkpt lat="43.2361883" lon="11.375322"><ele>186.0</ele><time>2026-04-06T11:38:02.542Z</time></trkpt><trkpt lat="43.2362095" lon="11.375214"><ele>186.0</ele><time>2026-04-06T11:38:03.541Z</time></trkpt><trkpt lat="43.2362412" lon="11.3751137"><ele>186.0</ele><time>2026-04-06T11:38:04.54Z</time></trkpt><trkpt lat="43.2362826" lon="11.3750253"><ele>185.33333333333334</ele><time>2026-04-06T11:38:05.54Z</time></trkpt><trkpt lat="43.2363316" lon="11.3749414"><ele>184.66666666666666</ele><time>2026-04-06T11:38:06.535Z</time></trkpt><trkpt lat="43.2363755" lon="11.3748459"><ele>184.0</ele><time>2026-04-06T11:38:07.532Z</time></trkpt><trkpt lat="43.2364137" lon="11.3747421"><ele>183.33333333333331</ele><time>2026-04-06T11:38:08.537Z</time></trkpt><trkpt lat="43.2364428" lon="11.3746277"><ele>182.66666666666666</ele><time>2026-04-06T11:38:09.539Z</time></trkpt><trkpt lat="43.236467" lon="11.3745086"><ele>182.0</ele><time>2026-04-06T11:38:10.536Z</time></trkpt><trkpt lat="43.2364933" lon="11.3743868"><ele>182.83333333333331</ele><time>2026-04-06T11:38:11.538Z</time></trkpt><trkpt lat="43.2365113" lon="11.3742671"><ele>183.66666666666666</ele><time>2026-04-06T11:38:12.534Z</time></trkpt><trkpt lat="43.236531" lon="11.3741502"><ele>184.5</ele><time>2026-04-06T11:38:13.536Z</time></trkpt><trkpt lat="43.2365443" lon="11.3740382"><ele>185.33333333333334</ele><time>2026-04-06T11:38:14.539Z</time></trkpt><trkpt lat="43.236545" lon="11.3739278"><ele>186.16666666666669</ele><time>2026-04-06T11:38:15.537Z</time></trkpt><trkpt lat="43.2365393" lon="11.3738251"><ele>187.0</ele><time>2026-04-06T11:38:16.537Z</time></trkpt><trkpt lat="43.2365208" lon="11.3737275"><ele>187.0</ele><time>2026-04-06T11:38:17.533Z</time></trkpt><trkpt lat="43.2364905" lon="11.3736369"><ele>187.0</ele><time>2026-04-06T11:38:18.535Z</time></trkpt><trkpt lat="43.2364436" lon="11.3735575"><ele>187.0</ele><time>2026-04-06T11:38:19.539Z</time></trkpt><trkpt lat="43.236385" lon="11.3734919"><ele>187.0</ele><time>2026-04-06T11:38:20.538Z</time></trkpt><trkpt lat="43.2363126" lon="11.3734397"><ele>187.0</ele><time>2026-04-06T11:38:21.534Z</time></trkpt><trkpt lat="43.2362405" lon="11.3734011"><ele>187.0</ele><time>2026-04-06T11:38:22.534Z</time></trkpt><trkpt lat="43.2361606" lon="11.3733777"><ele>185.75</ele><time>2026-04-06T11:38:23.541Z</time></trkpt><trkpt lat="43.2360627" lon="11.373371"><ele>184.5</ele><time>2026-04-06T11:38:24.541Z</time></trkpt><trkpt lat="43.2359516" lon="11.3733817"><ele>183.25</ele><time>2026-04-06T11:38:25.537Z</time></trkpt><trkpt lat="43.2358335" lon="11.3734045"><ele>182.0</ele><time>2026-04-06T11:38:26.539Z</time></trkpt><trkpt lat="43.2357051" lon="11.3734213"><ele>180.75</ele><time>2026-04-06T11:38:27.543Z</time></trkpt><trkpt lat="43.2355652" lon="11.3734368"><ele>179.5</ele><time>2026-04-06T11:38:28.536Z</time></trkpt><trkpt lat="43.2354195" lon="11.3734538"><ele>178.25</ele><time>2026-04-06T11:38:29.541Z</time></trkpt><trkpt lat="43.2352705" lon="11.3734699"><ele>177.0</ele><time>2026-04-06T11:38:30.535Z</time></trkpt><trkpt lat="43.2351168" lon="11.3734841"><ele>177.0</ele><time>2026-04-06T11:38:31.537Z</time></trkpt><trkpt lat="43.2349615" lon="11.3735074"><ele>177.0</ele><time>2026-04-06T11:38:32.538Z</time></trkpt><trkpt lat="43.2348056" lon="11.3735317"><ele>177.0</ele><time>2026-04-06T11:38:33.537Z</time></trkpt><trkpt lat="43.2346523" lon="11.3735469"><ele>177.25</ele><time>2026-04-06T11:38:34.539Z</time></trkpt><trkpt lat="43.2345038" lon="11.3735588"><ele>177.5</ele><time>2026-04-06T11:38:35.54Z</time></trkpt><trkpt lat="43.2343646" lon="11.3735704"><ele>177.75</ele><time>2026-04-06T11:38:36.536Z</time></trkpt><trkpt lat="43.2342371" lon="11.3735804"><ele>178.0</ele><time>2026-04-06T11:38:37.54Z</time></trkpt><trkpt lat="43.2341192" lon="11.3735892"><ele>178.0</ele><time>2026-04-06T11:38:38.538Z</time></trkpt><trkpt lat="43.2340048" lon="11.3735954"><ele>178.0</ele><time>2026-04-06T11:38:39.539Z</time></trkpt><trkpt lat="43.2338941" lon="11.3736013"><ele>178.0</ele><time>2026-04-06T11:38:40.537Z</time></trkpt><trkpt lat="43.2337834" lon="11.3736225"><ele>178.0</ele><time>2026-04-06T11:38:41.535Z</time></trkpt><trkpt lat="43.2336694" lon="11.3736683"><ele>178.25</ele><time>2026-04-06T11:38:42.533Z</time></trkpt><trkpt lat="43.2335512" lon="11.3737369"><ele>178.5</ele><time>2026-04-06T11:38:43.542Z</time></trkpt><trkpt lat="43.233428" lon="11.3738243"><ele>178.75</ele><time>2026-04-06T11:38:44.541Z</time></trkpt><trkpt lat="43.2332923" lon="11.373925"><ele>179.0</ele><time>2026-04-06T11:38:45.542Z</time></trkpt><trkpt lat="43.2331435" lon="11.3740259"><ele>179.0</ele><time>2026-04-06T11:38:46.54Z</time></trkpt><trkpt lat="43.2329979" lon="11.3741235"><ele>179.0</ele><time>2026-04-06T11:38:47.538Z</time></trkpt><trkpt lat="43.2328611" lon="11.3742204"><ele>179.0</ele><time>2026-04-06T11:38:48.539Z</time></trkpt><trkpt lat="43.2327226" lon="11.3743227"><ele>179.0</ele><time>2026-04-06T11:38:49.536Z</time></trkpt><trkpt lat="43.2325804" lon="11.3744254"><ele>179.0</ele><time>2026-04-06T11:38:50.545Z</time></trkpt><trkpt lat="43.2324353" lon="11.374523"><ele>179.0</ele><time>2026-04-06T11:38:51.541Z</time></trkpt><trkpt lat="43.2322846" lon="11.3746233"><ele>179.0</ele><time>2026-04-06T11:38:52.54Z</time></trkpt><trkpt lat="43.2321325" lon="11.3747248"><ele>179.0</ele><time>2026-04-06T11:38:53.535Z</time></trkpt><trkpt lat="43.2319797" lon="11.3748321"><ele>179.0</ele><time>2026-04-06T11:38:54.538Z</time></trkpt><trkpt lat="43.2318273" lon="11.3749421"><ele>179.0</ele><time>2026-04-06T11:38:55.536Z</time></trkpt><trkpt lat="43.2316706" lon="11.375052"><ele>179.0</ele><time>2026-04-06T11:38:56.534Z</time></trkpt><trkpt lat="43.2315158" lon="11.3751604"><ele>179.0</ele><time>2026-04-06T11:38:57.539Z</time></trkpt><trkpt lat="43.2313699" lon="11.375267"><ele>179.0</ele><time>2026-04-06T11:38:58.537Z</time></trkpt><trkpt lat="43.2312333" lon="11.3753696"><ele>179.0</ele><time>2026-04-06T11:38:59.536Z</time></trkpt><trkpt lat="43.2311027" lon="11.3754707"><ele>179.0</ele><time>2026-04-06T11:39:00.534Z</time></trkpt><trkpt lat="43.2309696" lon="11.3755713"><ele>179.0</ele><time>2026-04-06T11:39:01.533Z</time></trkpt><trkpt lat="43.2308363" lon="11.3756709"><ele>179.0</ele><time>2026-04-06T11:39:02.543Z</time></trkpt><trkpt lat="43.2307026" lon="11.3757723"><ele>179.0</ele><time>2026-04-06T11:39:03.539Z</time></trkpt><trkpt lat="43.2305618" lon="11.3758722"><ele>180.66666666666666</ele><time>2026-04-06T11:39:04.539Z</time></trkpt><trkpt lat="43.230425" lon="11.3759758"><ele>182.33333333333334</ele><time>2026-04-06T11:39:05.534Z</time></trkpt><trkpt lat="43.2302941" lon="11.3760732"><ele>184.0</ele><time>2026-04-06T11:39:06.539Z</time></trkpt><trkpt lat="43.2301668" lon="11.3761706"><ele>184.0</ele><time>2026-04-06T11:39:07.544Z</time></trkpt><trkpt lat="43.2300397" lon="11.3762619"><ele>184.0</ele><time>2026-04-06T11:39:08.553Z</time></trkpt><trkpt lat="43.2299199" lon="11.3763529"><ele>184.0</ele><time>2026-04-06T11:39:09.544Z</time></trkpt><trkpt lat="43.229806" lon="11.3764369"><ele>184.0</ele><time>2026-04-06T11:39:10.541Z</time></trkpt><trkpt lat="43.2296968" lon="11.3765244"><ele>184.5</ele><time>2026-04-06T11:39:11.533Z</time></trkpt><trkpt lat="43.2295921" lon="11.376614"><ele>185.0</ele><time>2026-04-06T11:39:12.54Z</time></trkpt><trkpt lat="43.2294901" lon="11.3767034"><ele>185.5</ele><time>2026-04-06T11:39:13.539Z</time></trkpt><trkpt lat="43.2293825" lon="11.3767893"><ele>186.0</ele><time>2026-04-06T11:39:14.534Z</time></trkpt><trkpt lat="43.2292753" lon="11.3768786"><ele>186.0</ele><time>2026-04-06T11:39:15.537Z</time></trkpt><trkpt lat="43.2291699" lon="11.3769637"><ele>186.0</ele><time>2026-04-06T11:39:16.535Z</time></trkpt><trkpt lat="43.2290646" lon="11.3770385"><ele>186.0</ele><time>2026-04-06T11:39:17.542Z</time></trkpt><trkpt lat="43.2289618" lon="11.377111"><ele>186.0</ele><time>2026-04-06T11:39:18.537Z</time></trkpt><trkpt lat="43.2288513" lon="11.3771722"><ele>184.0</ele><time>2026-04-06T11:39:19.546Z</time></trkpt><trkpt lat="43.2287393" lon="11.3772215"><ele>182.0</ele><time>2026-04-06T11:39:20.535Z</time></trkpt><trkpt lat="43.2286199" lon="11.3772616"><ele>180.0</ele><time>2026-04-06T11:39:21.533Z</time></trkpt><trkpt lat="43.2284929" lon="11.3772912"><ele>178.0</ele><time>2026-04-06T11:39:22.543Z</time></trkpt><trkpt lat="43.2283599" lon="11.377303"><ele>178.0</ele><time>2026-04-06T11:39:23.541Z</time></trkpt><trkpt lat="43.2282253" lon="11.3773081"><ele>178.0</ele><time>2026-04-06T11:39:24.537Z</time></trkpt><trkpt lat="43.2280914" lon="11.3773195"><ele>178.0</ele><time>2026-04-06T11:39:25.533Z</time></trkpt><trkpt lat="43.2279618" lon="11.3773282"><ele>178.0</ele><time>2026-04-06T11:39:26.538Z</time></trkpt><trkpt lat="43.2278414" lon="11.3773429"><ele>178.0</ele><time>2026-04-06T11:39:27.542Z</time></trkpt><trkpt lat="43.2277233" lon="11.3773588"><ele>178.0</ele><time>2026-04-06T11:39:28.538Z</time></trkpt><trkpt lat="43.2276027" lon="11.3773645"><ele>178.0</ele><time>2026-04-06T11:39:29.534Z</time></trkpt><trkpt lat="43.2274863" lon="11.3773594"><ele>178.0</ele><time>2026-04-06T11:39:30.534Z</time></trkpt><trkpt lat="43.2273702" lon="11.3773375"><ele>177.75</ele><time>2026-04-06T11:39:31.538Z</time></trkpt><trkpt lat="43.2272551" lon="11.3772928"><ele>177.5</ele><time>2026-04-06T11:39:32.539Z</time></trkpt><trkpt lat="43.2271377" lon="11.3772395"><ele>177.25</ele><time>2026-04-06T11:39:33.537Z</time></trkpt><trkpt lat="43.2270236" lon="11.3771738"><ele>177.0</ele><time>2026-04-06T11:39:34.534Z</time></trkpt><trkpt lat="43.226912" lon="11.3771023"><ele>178.0</ele><time>2026-04-06T11:39:35.533Z</time></trkpt><trkpt lat="43.2268037" lon="11.3770245"><ele>179.0</ele><time>2026-04-06T11:39:36.536Z</time></trkpt><trkpt lat="43.2266962" lon="11.3769388"><ele>180.0</ele><time>2026-04-06T11:39:37.537Z</time></trkpt><trkpt lat="43.2265952" lon="11.3768372"><ele>181.0</ele><time>2026-04-06T11:39:38.536Z</time></trkpt><trkpt lat="43.2264957" lon="11.3767271"><ele>180.5</ele><time>2026-04-06T11:39:39.534Z</time></trkpt><trkpt lat="43.2264025" lon="11.3766071"><ele>180.0</ele><time>2026-04-06T11:39:40.532Z</time></trkpt><trkpt lat="43.2263199" lon="11.3764767"><ele>179.5</ele><time>2026-04-06T11:39:41.532Z</time></trkpt><trkpt lat="43.2262451" lon="11.3763388"><ele>179.0</ele><time>2026-04-06T11:39:42.542Z</time></trkpt><trkpt lat="43.2261864" lon="11.3761895"><ele>179.0</ele><time>2026-04-06T11:39:43.537Z</time></trkpt><trkpt lat="43.2261305" lon="11.3760334"><ele>179.0</ele><time>2026-04-06T11:39:44.534Z</time></trkpt><trkpt lat="43.2260859" lon="11.3758758"><ele>179.0</ele><time>2026-04-06T11:39:45.536Z</time></trkpt><trkpt lat="43.2260501" lon="11.3757225"><ele>179.0</ele><time>2026-04-06T11:39:46.536Z</time></trkpt><trkpt lat="43.2260204" lon="11.3755671"><ele>178.75</ele><time>2026-04-06T11:39:47.535Z</time></trkpt><trkpt lat="43.2260057" lon="11.3754058"><ele>178.5</ele><time>2026-04-06T11:39:48.534Z</time></trkpt><trkpt lat="43.2260038" lon="11.3752385"><ele>178.25</ele><time>2026-04-06T11:39:49.538Z</time></trkpt><trkpt lat="43.2260156" lon="11.3750695"><ele>178.0</ele><time>2026-04-06T11:39:50.538Z</time></trkpt><trkpt lat="43.2260329" lon="11.3748885"><ele>178.0</ele><time>2026-04-06T11:39:51.535Z</time></trkpt><trkpt lat="43.226051" lon="11.3747059"><ele>178.0</ele><time>2026-04-06T11:39:52.537Z</time></trkpt><trkpt lat="43.2260683" lon="11.374528"><ele>178.0</ele><time>2026-04-06T11:39:53.534Z</time></trkpt><trkpt lat="43.2260886" lon="11.3743561"><ele>178.0</ele><time>2026-04-06T11:39:54.538Z</time></trkpt><trkpt lat="43.2260979" lon="11.3741862"><ele>178.0</ele><time>2026-04-06T11:39:55.545Z</time></trkpt><trkpt lat="43.2261011" lon="11.3740172"><ele>178.0</ele><time>2026-04-06T11:39:56.544Z</time></trkpt><trkpt lat="43.2261016" lon="11.3738503"><ele>178.0</ele><time>2026-04-06T11:39:57.538Z</time></trkpt><trkpt lat="43.2260908" lon="11.373685"><ele>178.0</ele><time>2026-04-06T11:39:58.54Z</time></trkpt><trkpt lat="43.226069" lon="11.3735198"><ele>178.0</ele><time>2026-04-06T11:39:59.533Z</time></trkpt><trkpt lat="43.2260336" lon="11.3733614"><ele>178.0</ele><time>2026-04-06T11:40:00.539Z</time></trkpt><trkpt lat="43.2259892" lon="11.3732105"><ele>178.0</ele><time>2026-04-06T11:40:01.539Z</time></trkpt><trkpt lat="43.2259443" lon="11.3730583"><ele>178.0</ele><time>2026-04-06T11:40:02.538Z</time></trkpt><trkpt lat="43.2259012" lon="11.3729085"><ele>178.8</ele><time>2026-04-06T11:40:03.535Z</time></trkpt><trkpt lat="43.2258576" lon="11.3727658"><ele>179.60000000000002</ele><time>2026-04-06T11:40:04.534Z</time></trkpt><trkpt lat="43.2258165" lon="11.3726318"><ele>180.39999999999998</ele><time>2026-04-06T11:40:05.535Z</time></trkpt><trkpt lat="43.2257755" lon="11.3725147"><ele>181.2</ele><time>2026-04-06T11:40:06.538Z</time></trkpt><trkpt lat="43.225737" lon="11.3724136"><ele>182.0</ele><time>2026-04-06T11:40:07.536Z</time></trkpt><trkpt lat="43.2257013" lon="11.372324"><ele>182.0</ele><time>2026-04-06T11:40:08.533Z</time></trkpt><trkpt lat="43.2256633" lon="11.3722461"><ele>182.0</ele><time>2026-04-06T11:40:09.536Z</time></trkpt><trkpt lat="43.225563" lon="11.3721502"><ele>182.0</ele><time>2026-04-06T11:40:11.538Z</time></trkpt><trkpt lat="43.2254434" lon="11.3721409"><ele>182.0</ele><time>2026-04-06T11:40:13.537Z</time></trkpt><trkpt lat="43.2253467" lon="11.3722264"><ele>182.0</ele><time>2026-04-06T11:40:15.537Z</time></trkpt><trkpt lat="43.225305" lon="11.3722957"><ele>181.71428571428572</ele><time>2026-04-06T11:40:16.534Z</time></trkpt><trkpt lat="43.2252727" lon="11.3723801"><ele>181.42857142857144</ele><time>2026-04-06T11:40:17.535Z</time></trkpt><trkpt lat="43.2252417" lon="11.3724661"><ele>181.14285714285714</ele><time>2026-04-06T11:40:18.534Z</time></trkpt><trkpt lat="43.2252073" lon="11.3725558"><ele>180.85714285714286</ele><time>2026-04-06T11:40:19.538Z</time></trkpt><trkpt lat="43.2251706" lon="11.3726474"><ele>180.57142857142858</ele><time>2026-04-06T11:40:20.534Z</time></trkpt><trkpt lat="43.2251317" lon="11.3727403"><ele>180.28571428571428</ele><time>2026-04-06T11:40:21.538Z</time></trkpt><trkpt lat="43.2250924" lon="11.3728332"><ele>180.0</ele><time>2026-04-06T11:40:22.535Z</time></trkpt><trkpt lat="43.2250526" lon="11.3729266"><ele>180.0</ele><time>2026-04-06T11:40:23.534Z</time></trkpt><trkpt lat="43.2250112" lon="11.3730147"><ele>180.0</ele><time>2026-04-06T11:40:24.536Z</time></trkpt><trkpt lat="43.2249718" lon="11.3731003"><ele>180.0</ele><time>2026-04-06T11:40:25.539Z</time></trkpt><trkpt lat="43.2249301" lon="11.3731783"><ele>180.0</ele><time>2026-04-06T11:40:26.535Z</time></trkpt><trkpt lat="43.2248868" lon="11.373252"><ele>180.0</ele><time>2026-04-06T11:40:27.535Z</time></trkpt><trkpt lat="43.2248407" lon="11.3733222"><ele>180.0</ele><time>2026-04-06T11:40:28.534Z</time></trkpt><trkpt lat="43.2247872" lon="11.373386"><ele>180.0</ele><time>2026-04-06T11:40:29.56Z</time></trkpt><trkpt lat="43.2247261" lon="11.373434"><ele>181.33333333333334</ele><time>2026-04-06T11:40:30.54Z</time></trkpt><trkpt lat="43.2246539" lon="11.3734734"><ele>182.66666666666666</ele><time>2026-04-06T11:40:31.537Z</time></trkpt><trkpt lat="43.224569" lon="11.3735006"><ele>184.0</ele><time>2026-04-06T11:40:32.538Z</time></trkpt><trkpt lat="43.2244778" lon="11.3735183"><ele>185.33333333333331</ele><time>2026-04-06T11:40:33.541Z</time></trkpt><trkpt lat="43.2243873" lon="11.3735163"><ele>186.66666666666666</ele><time>2026-04-06T11:40:34.536Z</time></trkpt><trkpt lat="43.2242984" lon="11.3735057"><ele>188.0</ele><time>2026-04-06T11:40:35.541Z</time></trkpt><trkpt lat="43.2242119" lon="11.3734872"><ele>188.0</ele><time>2026-04-06T11:40:36.535Z</time></trkpt><trkpt lat="43.2241211" lon="11.3734485"><ele>188.0</ele><time>2026-04-06T11:40:37.534Z</time></trkpt><trkpt lat="43.2240317" lon="11.3733988"><ele>188.0</ele><time>2026-04-06T11:40:38.537Z</time></trkpt><trkpt lat="43.2239511" lon="11.3733427"><ele>188.0</ele><time>2026-04-06T11:40:39.535Z</time></trkpt><trkpt lat="43.2238802" lon="11.3732756"><ele>188.0</ele><time>2026-04-06T11:40:40.539Z</time></trkpt><trkpt lat="43.2238112" lon="11.3732006"><ele>191.60000000000002</ele><time>2026-04-06T11:40:41.536Z</time></trkpt><trkpt lat="43.2237498" lon="11.3731133"><ele>195.20000000000002</ele><time>2026-04-06T11:40:42.534Z</time></trkpt><trkpt lat="43.2236976" lon="11.3730096"><ele>198.8</ele><time>2026-04-06T11:40:43.535Z</time></trkpt><trkpt lat="43.2236548" lon="11.3728936"><ele>202.4</ele><time>2026-04-06T11:40:44.534Z</time></trkpt><trkpt lat="43.2236205" lon="11.3727797"><ele>206.0</ele><time>2026-04-06T11:40:45.533Z</time></trkpt><trkpt lat="43.223594" lon="11.3726638"><ele>206.00000000000003</ele><time>2026-04-06T11:40:46.54Z</time></trkpt><trkpt lat="43.2235845" lon="11.3725431"><ele>206.0</ele><time>2026-04-06T11:40:47.534Z</time></trkpt><trkpt lat="43.2235884" lon="11.3724258"><ele>206.0</ele><time>2026-04-06T11:40:48.542Z</time></trkpt><trkpt lat="43.2235982" lon="11.3723178"><ele>206.0</ele><time>2026-04-06T11:40:49.536Z</time></trkpt><trkpt lat="43.2236116" lon="11.3722119"><ele>206.00000000000003</ele><time>2026-04-06T11:40:50.54Z</time></trkpt><trkpt lat="43.2236285" lon="11.3721144"><ele>206.0</ele><time>2026-04-06T11:40:51.537Z</time></trkpt><trkpt lat="43.2236413" lon="11.3720161"><ele>206.00000000000003</ele><time>2026-04-06T11:40:52.537Z</time></trkpt><trkpt lat="43.2236443" lon="11.3719137"><ele>206.0</ele><time>2026-04-06T11:40:53.541Z</time></trkpt><trkpt lat="43.2236345" lon="11.3718057"><ele>206.0</ele><time>2026-04-06T11:40:54.534Z</time></trkpt><trkpt lat="43.2236132" lon="11.371697"><ele>206.0</ele><time>2026-04-06T11:40:55.536Z</time></trkpt><trkpt lat="43.2235818" lon="11.3715835"><ele>206.00000000000003</ele><time>2026-04-06T11:40:56.537Z</time></trkpt><trkpt lat="43.2235428" lon="11.3714796"><ele>206.0</ele><time>2026-04-06T11:40:57.535Z</time></trkpt><trkpt lat="43.2234868" lon="11.3713827"><ele>205.42857142857142</ele><time>2026-04-06T11:40:58.533Z</time></trkpt><trkpt lat="43.2234237" lon="11.3713022"><ele>204.85714285714286</ele><time>2026-04-06T11:40:59.538Z</time></trkpt><trkpt lat="43.2233589" lon="11.3712338"><ele>204.28571428571428</ele><time>2026-04-06T11:41:00.536Z</time></trkpt><trkpt lat="43.2232965" lon="11.3711831"><ele>203.71428571428572</ele><time>2026-04-06T11:41:01.536Z</time></trkpt><trkpt lat="43.2232276" lon="11.3711545"><ele>203.14285714285714</ele><time>2026-04-06T11:41:02.534Z</time></trkpt><trkpt lat="43.223161" lon="11.371149"><ele>202.57142857142856</ele><time>2026-04-06T11:41:03.535Z</time></trkpt><trkpt lat="43.2230955" lon="11.371159"><ele>202.0</ele><time>2026-04-06T11:41:04.539Z</time></trkpt><trkpt lat="43.2230263" lon="11.371198"><ele>201.83333333333331</ele><time>2026-04-06T11:41:05.533Z</time></trkpt><trkpt lat="43.2229566" lon="11.3712486"><ele>201.66666666666666</ele><time>2026-04-06T11:41:06.537Z</time></trkpt><trkpt lat="43.2228966" lon="11.3713144"><ele>201.5</ele><time>2026-04-06T11:41:07.532Z</time></trkpt><trkpt lat="43.2228386" lon="11.3713979"><ele>201.33333333333331</ele><time>2026-04-06T11:41:08.536Z</time></trkpt><trkpt lat="43.2227875" lon="11.3714912"><ele>201.16666666666666</ele><time>2026-04-06T11:41:09.54Z</time></trkpt><trkpt lat="43.2227419" lon="11.3715836"><ele>201.0</ele><time>2026-04-06T11:41:10.538Z</time></trkpt><trkpt lat="43.2226965" lon="11.3716644"><ele>202.16666666666666</ele><time>2026-04-06T11:41:11.545Z</time></trkpt><trkpt lat="43.2226527" lon="11.3717378"><ele>203.33333333333331</ele><time>2026-04-06T11:41:12.534Z</time></trkpt><trkpt lat="43.2226068" lon="11.3718169"><ele>204.5</ele><time>2026-04-06T11:41:13.535Z</time></trkpt><trkpt lat="43.2225551" lon="11.3719026"><ele>205.66666666666666</ele><time>2026-04-06T11:41:14.535Z</time></trkpt><trkpt lat="43.222499" lon="11.3719977"><ele>206.83333333333331</ele><time>2026-04-06T11:41:15.535Z</time></trkpt><trkpt lat="43.22244" lon="11.3720904"><ele>208.0</ele><time>2026-04-06T11:41:16.536Z</time></trkpt><trkpt lat="43.2223764" lon="11.3721722"><ele>210.16666666666666</ele><time>2026-04-06T11:41:17.549Z</time></trkpt><trkpt lat="43.2223118" lon="11.3722452"><ele>212.33333333333331</ele><time>2026-04-06T11:41:18.536Z</time></trkpt><trkpt lat="43.2222462" lon="11.3723193"><ele>214.5</ele><time>2026-04-06T11:41:19.538Z</time></trkpt><trkpt lat="43.2221807" lon="11.3723948"><ele>216.66666666666669</ele><time>2026-04-06T11:41:20.538Z</time></trkpt><trkpt lat="43.2221164" lon="11.3724664"><ele>218.83333333333334</ele><time>2026-04-06T11:41:21.536Z</time></trkpt><trkpt lat="43.222047" lon="11.3725287"><ele>221.0</ele><time>2026-04-06T11:41:22.534Z</time></trkpt><trkpt lat="43.2219688" lon="11.372579"><ele>221.0</ele><time>2026-04-06T11:41:23.535Z</time></trkpt><trkpt lat="43.2218919" lon="11.3726219"><ele>221.00000000000003</ele><time>2026-04-06T11:41:24.54Z</time></trkpt><trkpt lat="43.2218082" lon="11.3726541"><ele>221.00000000000003</ele><time>2026-04-06T11:41:25.541Z</time></trkpt><trkpt lat="43.2217183" lon="11.3726753"><ele>221.0</ele><time>2026-04-06T11:41:26.537Z</time></trkpt><trkpt lat="43.221625" lon="11.3726969"><ele>221.0</ele><time>2026-04-06T11:41:27.546Z</time></trkpt><trkpt lat="43.2215231" lon="11.3727179"><ele>222.20000000000002</ele><time>2026-04-06T11:41:28.537Z</time></trkpt><trkpt lat="43.2214133" lon="11.3727428"><ele>223.40000000000003</ele><time>2026-04-06T11:41:29.537Z</time></trkpt><trkpt lat="43.2213049" lon="11.3727724"><ele>224.6</ele><time>2026-04-06T11:41:30.538Z</time></trkpt><trkpt lat="43.2212014" lon="11.3727921"><ele>225.8</ele><time>2026-04-06T11:41:31.537Z</time></trkpt><trkpt lat="43.2210922" lon="11.3728171"><ele>227.0</ele><time>2026-04-06T11:41:32.537Z</time></trkpt><trkpt lat="43.2209778" lon="11.3728433"><ele>227.0</ele><time>2026-04-06T11:41:33.539Z</time></trkpt><trkpt lat="43.2208572" lon="11.3728648"><ele>227.0</ele><time>2026-04-06T11:41:34.537Z</time></trkpt><trkpt lat="43.2207288" lon="11.3728904"><ele>227.0</ele><time>2026-04-06T11:41:35.536Z</time></trkpt><trkpt lat="43.2206001" lon="11.3729199"><ele>227.0</ele><time>2026-04-06T11:41:36.535Z</time></trkpt><trkpt lat="43.2204762" lon="11.3729446"><ele>228.0</ele><time>2026-04-06T11:41:37.538Z</time></trkpt><trkpt lat="43.2203528" lon="11.3729642"><ele>229.0</ele><time>2026-04-06T11:41:38.542Z</time></trkpt><trkpt lat="43.2202333" lon="11.3729867"><ele>230.0</ele><time>2026-04-06T11:41:39.546Z</time></trkpt><trkpt lat="43.2201183" lon="11.3730167"><ele>231.0</ele><time>2026-04-06T11:41:40.535Z</time></trkpt><trkpt lat="43.22" lon="11.3730367"><ele>231.0</ele><time>2026-04-06T11:41:41.546Z</time></trkpt><trkpt lat="43.2198867" lon="11.37306"><ele>231.00000000000003</ele><time>2026-04-06T11:41:42.54Z</time></trkpt><trkpt lat="43.219775" lon="11.3730783"><ele>231.00000000000003</ele><time>2026-04-06T11:41:43.54Z</time></trkpt><trkpt lat="43.2196633" lon="11.3730783"><ele>231.0</ele><time>2026-04-06T11:41:44.538Z</time></trkpt><trkpt lat="43.2195567" lon="11.37308"><ele>231.0</ele><time>2026-04-06T11:41:45.538Z</time></trkpt><trkpt lat="43.2194483" lon="11.3730767"><ele>233.60000000000002</ele><time>2026-04-06T11:41:46.536Z</time></trkpt><trkpt lat="43.2193467" lon="11.37307"><ele>236.20000000000002</ele><time>2026-04-06T11:41:47.54Z</time></trkpt><trkpt lat="43.2192483" lon="11.3730617"><ele>238.79999999999998</ele><time>2026-04-06T11:41:48.54Z</time></trkpt><trkpt lat="43.2191483" lon="11.373035"><ele>241.39999999999998</ele><time>2026-04-06T11:41:49.539Z</time></trkpt><trkpt lat="43.2190567" lon="11.3730167"><ele>244.0</ele><time>2026-04-06T11:41:50.536Z</time></trkpt><trkpt lat="43.2189667" lon="11.372995"><ele>245.6</ele><time>2026-04-06T11:41:51.54Z</time></trkpt><trkpt lat="43.2188717" lon="11.3729717"><ele>247.2</ele><time>2026-04-06T11:41:52.536Z</time></trkpt><trkpt lat="43.2187683" lon="11.3729233"><ele>248.79999999999998</ele><time>2026-04-06T11:41:53.536Z</time></trkpt><trkpt lat="43.2186583" lon="11.3728783"><ele>250.39999999999998</ele><time>2026-04-06T11:41:54.54Z</time></trkpt><trkpt lat="43.2185467" lon="11.3728233"><ele>252.0</ele><time>2026-04-06T11:41:55.537Z</time></trkpt><trkpt lat="43.218435" lon="11.3727767"><ele>252.0</ele><time>2026-04-06T11:41:56.539Z</time></trkpt><trkpt lat="43.2183233" lon="11.372725"><ele>252.0</ele><time>2026-04-06T11:41:57.538Z</time></trkpt><trkpt lat="43.21821" lon="11.372675"><ele>252.0</ele><time>2026-04-06T11:41:58.539Z</time></trkpt><trkpt lat="43.2181017" lon="11.3726283"><ele>252.0</ele><time>2026-04-06T11:41:59.538Z</time></trkpt><trkpt lat="43.2179967" lon="11.3725717"><ele>250.0</ele><time>2026-04-06T11:42:00.538Z</time></trkpt><trkpt lat="43.21789" lon="11.3725267"><ele>248.0</ele><time>2026-04-06T11:42:01.544Z</time></trkpt><trkpt lat="43.21779" lon="11.3724833"><ele>246.0</ele><time>2026-04-06T11:42:02.54Z</time></trkpt><trkpt lat="43.2176967" lon="11.37244"><ele>244.0</ele><time>2026-04-06T11:42:03.545Z</time></trkpt><trkpt lat="43.21761" lon="11.37237"><ele>242.0</ele><time>2026-04-06T11:42:04.535Z</time></trkpt><trkpt lat="43.217515" lon="11.3723167"><ele>242.0</ele><time>2026-04-06T11:42:05.538Z</time></trkpt><trkpt lat="43.2174217" lon="11.372275"><ele>242.0</ele><time>2026-04-06T11:42:06.536Z</time></trkpt><trkpt lat="43.2173283" lon="11.3722283"><ele>242.0</ele><time>2026-04-06T11:42:07.543Z</time></trkpt><trkpt lat="43.217225" lon="11.3721633"><ele>242.0</ele><time>2026-04-06T11:42:08.543Z</time></trkpt><trkpt lat="43.217105" lon="11.3720967"><ele>242.0</ele><time>2026-04-06T11:42:09.536Z</time></trkpt><trkpt lat="43.2169717" lon="11.3720183"><ele>240.66666666666669</ele><time>2026-04-06T11:42:10.538Z</time></trkpt><trkpt lat="43.2168233" lon="11.3719433"><ele>239.33333333333331</ele><time>2026-04-06T11:42:11.535Z</time></trkpt><trkpt lat="43.2166767" lon="11.37187"><ele>238.0</ele><time>2026-04-06T11:42:12.536Z</time></trkpt><trkpt lat="43.2165417" lon="11.371795"><ele>239.5</ele><time>2026-04-06T11:42:13.543Z</time></trkpt><trkpt lat="43.21641" lon="11.3717333"><ele>241.0</ele><time>2026-04-06T11:42:14.541Z</time></trkpt><trkpt lat="43.21629" lon="11.3716783"><ele>242.5</ele><time>2026-04-06T11:42:15.535Z</time></trkpt><trkpt lat="43.2161833" lon="11.3716133"><ele>244.0</ele><time>2026-04-06T11:42:16.533Z</time></trkpt><trkpt lat="43.2160833" lon="11.371565"><ele>244.0</ele><time>2026-04-06T11:42:17.541Z</time></trkpt><trkpt lat="43.21598" lon="11.3715117"><ele>243.99999999999997</ele><time>2026-04-06T11:42:18.538Z</time></trkpt><trkpt lat="43.2158767" lon="11.3714567"><ele>243.99999999999997</ele><time>2026-04-06T11:42:19.538Z</time></trkpt><trkpt lat="43.2157817" lon="11.3713817"><ele>244.0</ele><time>2026-04-06T11:42:20.536Z</time></trkpt><trkpt lat="43.2156917" lon="11.3712917"><ele>244.0</ele><time>2026-04-06T11:42:21.556Z</time></trkpt><trkpt lat="43.2155933" lon="11.3711933"><ele>243.0</ele><time>2026-04-06T11:42:22.538Z</time></trkpt><trkpt lat="43.2154967" lon="11.37109"><ele>242.0</ele><time>2026-04-06T11:42:23.536Z</time></trkpt><trkpt lat="43.2153967" lon="11.3709933"><ele>241.0</ele><time>2026-04-06T11:42:24.54Z</time></trkpt><trkpt lat="43.2152917" lon="11.3709067"><ele>240.0</ele><time>2026-04-06T11:42:25.538Z</time></trkpt><trkpt lat="43.21518" lon="11.3708333"><ele>240.0</ele><time>2026-04-06T11:42:26.54Z</time></trkpt><trkpt lat="43.2150733" lon="11.3707683"><ele>240.0</ele><time>2026-04-06T11:42:27.537Z</time></trkpt><trkpt lat="43.21496" lon="11.370725"><ele>240.0</ele><time>2026-04-06T11:42:28.537Z</time></trkpt><trkpt lat="43.2148483" lon="11.3706967"><ele>240.0</ele><time>2026-04-06T11:42:29.534Z</time></trkpt><trkpt lat="43.2147367" lon="11.3707"><ele>237.0</ele><time>2026-04-06T11:42:30.534Z</time></trkpt><trkpt lat="43.214625" lon="11.37073"><ele>234.0</ele><time>2026-04-06T11:42:31.543Z</time></trkpt><trkpt lat="43.2145117" lon="11.3707867"><ele>231.0</ele><time>2026-04-06T11:42:32.538Z</time></trkpt><trkpt lat="43.214405" lon="11.3708633"><ele>228.0</ele><time>2026-04-06T11:42:33.537Z</time></trkpt><trkpt lat="43.214295" lon="11.3709367"><ele>228.0</ele><time>2026-04-06T11:42:34.534Z</time></trkpt><trkpt lat="43.2141867" lon="11.3710033"><ele>228.0</ele><time>2026-04-06T11:42:35.533Z</time></trkpt><trkpt lat="43.2140767" lon="11.3710733"><ele>228.0</ele><time>2026-04-06T11:42:36.545Z</time></trkpt><trkpt lat="43.21397" lon="11.3711433"><ele>228.0</ele><time>2026-04-06T11:42:37.539Z</time></trkpt><trkpt lat="43.213865" lon="11.37122"><ele>226.8</ele><time>2026-04-06T11:42:38.54Z</time></trkpt><trkpt lat="43.21377" lon="11.3712883"><ele>225.60000000000002</ele><time>2026-04-06T11:42:39.535Z</time></trkpt><trkpt lat="43.2136717" lon="11.3713417"><ele>224.39999999999998</ele><time>2026-04-06T11:42:40.534Z</time></trkpt><trkpt lat="43.2135683" lon="11.37138"><ele>223.2</ele><time>2026-04-06T11:42:41.537Z</time></trkpt><trkpt lat="43.2134717" lon="11.3713933"><ele>222.0</ele><time>2026-04-06T11:42:42.537Z</time></trkpt><trkpt lat="43.2133817" lon="11.37137"><ele>222.0</ele><time>2026-04-06T11:42:43.534Z</time></trkpt><trkpt lat="43.2132967" lon="11.3713017"><ele>222.0</ele><time>2026-04-06T11:42:44.623Z</time></trkpt><trkpt lat="43.2132233" lon="11.371195"><ele>222.0</ele><time>2026-04-06T11:42:45.534Z</time></trkpt><trkpt lat="43.2131667" lon="11.3710967"><ele>222.0</ele><time>2026-04-06T11:42:46.539Z</time></trkpt><trkpt lat="43.2131217" lon="11.3710283"><ele>222.0</ele><time>2026-04-06T11:42:47.539Z</time></trkpt><trkpt lat="43.2130733" lon="11.3709283"><ele>222.0</ele><time>2026-04-06T11:42:49.534Z</time></trkpt><trkpt lat="43.2130283" lon="11.370835"><ele>222.0</ele><time>2026-04-06T11:42:51.541Z</time></trkpt><trkpt lat="43.2129767" lon="11.370725"><ele>222.0</ele><time>2026-04-06T11:42:53.534Z</time></trkpt><trkpt lat="43.21293" lon="11.370605"><ele>222.0</ele><time>2026-04-06T11:42:55.535Z</time></trkpt><trkpt lat="43.212865" lon="11.37046"><ele>222.0</ele><time>2026-04-06T11:42:57.539Z</time></trkpt><trkpt lat="43.21283" lon="11.3703783"><ele>222.83333333333334</ele><time>2026-04-06T11:42:58.538Z</time></trkpt><trkpt lat="43.2127917" lon="11.37029"><ele>223.66666666666669</ele><time>2026-04-06T11:42:59.536Z</time></trkpt><trkpt lat="43.2127483" lon="11.3702033"><ele>224.5</ele><time>2026-04-06T11:43:00.534Z</time></trkpt><trkpt lat="43.2127" lon="11.370115"><ele>225.33333333333334</ele><time>2026-04-06T11:43:01.536Z</time></trkpt><trkpt lat="43.2126483" lon="11.370025"><ele>226.16666666666669</ele><time>2026-04-06T11:43:02.539Z</time></trkpt><trkpt lat="43.2125983" lon="11.369935"><ele>227.0</ele><time>2026-04-06T11:43:03.535Z</time></trkpt><trkpt lat="43.2125517" lon="11.3698533"><ele>227.00000000000003</ele><time>2026-04-06T11:43:04.539Z</time></trkpt><trkpt lat="43.2125" lon="11.3697767"><ele>227.0</ele><time>2026-04-06T11:43:05.542Z</time></trkpt><trkpt lat="43.212445" lon="11.3697067"><ele>227.0</ele><time>2026-04-06T11:43:06.541Z</time></trkpt><trkpt lat="43.2123917" lon="11.3696367"><ele>227.0</ele><time>2026-04-06T11:43:07.536Z</time></trkpt><trkpt lat="43.2123467" lon="11.3695567"><ele>227.00000000000003</ele><time>2026-04-06T11:43:08.536Z</time></trkpt><trkpt lat="43.2122967" lon="11.3694733"><ele>227.0</ele><time>2026-04-06T11:43:09.537Z</time></trkpt><trkpt lat="43.2122467" lon="11.369395"><ele>228.0</ele><time>2026-04-06T11:43:10.541Z</time></trkpt><trkpt lat="43.212195" lon="11.3693217"><ele>229.00000000000003</ele><time>2026-04-06T11:43:11.536Z</time></trkpt><trkpt lat="43.2121467" lon="11.3692583"><ele>230.0</ele><time>2026-04-06T11:43:12.538Z</time></trkpt><trkpt lat="43.2120967" lon="11.3692033"><ele>231.0</ele><time>2026-04-06T11:43:13.537Z</time></trkpt><trkpt lat="43.2120483" lon="11.369145"><ele>232.00000000000003</ele><time>2026-04-06T11:43:14.535Z</time></trkpt><trkpt lat="43.2119933" lon="11.3690867"><ele>233.0</ele><time>2026-04-06T11:43:15.538Z</time></trkpt><trkpt lat="43.2119317" lon="11.3690333"><ele>234.0</ele><time>2026-04-06T11:43:16.541Z</time></trkpt><trkpt lat="43.2118567" lon="11.3689867"><ele>234.0</ele><time>2026-04-06T11:43:17.539Z</time></trkpt><trkpt lat="43.2117783" lon="11.3689367"><ele>234.0</ele><time>2026-04-06T11:43:18.545Z</time></trkpt><trkpt lat="43.2116983" lon="11.368885"><ele>234.0</ele><time>2026-04-06T11:43:19.533Z</time></trkpt><trkpt lat="43.2116183" lon="11.3688383"><ele>234.0</ele><time>2026-04-06T11:43:20.539Z</time></trkpt><trkpt lat="43.211535" lon="11.3687933"><ele>234.0</ele><time>2026-04-06T11:43:21.538Z</time></trkpt><trkpt lat="43.2114467" lon="11.3687567"><ele>234.0</ele><time>2026-04-06T11:43:22.536Z</time></trkpt><trkpt lat="43.2113533" lon="11.3687233"><ele>233.79999999999998</ele><time>2026-04-06T11:43:23.535Z</time></trkpt><trkpt lat="43.2112567" lon="11.3686967"><ele>233.59999999999997</ele><time>2026-04-06T11:43:24.539Z</time></trkpt><trkpt lat="43.2111517" lon="11.368655"><ele>233.4</ele><time>2026-04-06T11:43:25.54Z</time></trkpt><trkpt lat="43.21104" lon="11.3686167"><ele>233.2</ele><time>2026-04-06T11:43:26.539Z</time></trkpt><trkpt lat="43.2109283" lon="11.3685833"><ele>233.0</ele><time>2026-04-06T11:43:27.537Z</time></trkpt><trkpt lat="43.21082" lon="11.3685483"><ele>233.0</ele><time>2026-04-06T11:43:28.535Z</time></trkpt><trkpt lat="43.2107183" lon="11.3685117"><ele>233.0</ele><time>2026-04-06T11:43:29.536Z</time></trkpt><trkpt lat="43.21062" lon="11.3684717"><ele>233.0</ele><time>2026-04-06T11:43:30.537Z</time></trkpt><trkpt lat="43.2105267" lon="11.36844"><ele>233.0</ele><time>2026-04-06T11:43:31.536Z</time></trkpt><trkpt lat="43.2104383" lon="11.3684133"><ele>233.0</ele><time>2026-04-06T11:43:32.534Z</time></trkpt><trkpt lat="43.2103517" lon="11.3683817"><ele>232.66666666666669</ele><time>2026-04-06T11:43:33.537Z</time></trkpt><trkpt lat="43.210265" lon="11.3683467"><ele>232.33333333333334</ele><time>2026-04-06T11:43:34.541Z</time></trkpt><trkpt lat="43.2101833" lon="11.3683167"><ele>232.0</ele><time>2026-04-06T11:43:35.535Z</time></trkpt><trkpt lat="43.210105" lon="11.3682883"><ele>231.66666666666669</ele><time>2026-04-06T11:43:36.543Z</time></trkpt><trkpt lat="43.2100333" lon="11.3682617"><ele>231.33333333333334</ele><time>2026-04-06T11:43:37.535Z</time></trkpt><trkpt lat="43.2099717" lon="11.3682433"><ele>231.0</ele><time>2026-04-06T11:43:38.533Z</time></trkpt><trkpt lat="43.20991" lon="11.36822"><ele>231.0</ele><time>2026-04-06T11:43:39.534Z</time></trkpt><trkpt lat="43.2098467" lon="11.368205"><ele>231.0</ele><time>2026-04-06T11:43:40.534Z</time></trkpt><trkpt lat="43.20978" lon="11.3681983"><ele>231.0</ele><time>2026-04-06T11:43:41.536Z</time></trkpt><trkpt lat="43.2097167" lon="11.3682017"><ele>231.0</ele><time>2026-04-06T11:43:42.534Z</time></trkpt><trkpt lat="43.2096067" lon="11.3682667"><ele>231.0</ele><time>2026-04-06T11:43:44.535Z</time></trkpt><trkpt lat="43.2095617" lon="11.3683283"><ele>231.0</ele><time>2026-04-06T11:43:45.542Z</time></trkpt><trkpt lat="43.2095133" lon="11.3683967"><ele>231.0</ele><time>2026-04-06T11:43:46.536Z</time></trkpt><trkpt lat="43.2094633" lon="11.3684833"><ele>232.33333333333334</ele><time>2026-04-06T11:43:47.536Z</time></trkpt><trkpt lat="43.2094083" lon="11.368565"><ele>233.66666666666669</ele><time>2026-04-06T11:43:48.535Z</time></trkpt><trkpt lat="43.2093517" lon="11.3686483"><ele>235.0</ele><time>2026-04-06T11:43:49.537Z</time></trkpt><trkpt lat="43.2093" lon="11.36873"><ele>236.33333333333334</ele><time>2026-04-06T11:43:50.541Z</time></trkpt><trkpt lat="43.2092433" lon="11.3688067"><ele>237.66666666666669</ele><time>2026-04-06T11:43:51.536Z</time></trkpt><trkpt lat="43.2091933" lon="11.3688883"><ele>239.0</ele><time>2026-04-06T11:43:52.536Z</time></trkpt><trkpt lat="43.2091417" lon="11.368975"><ele>239.00000000000003</ele><time>2026-04-06T11:43:53.535Z</time></trkpt><trkpt lat="43.2090817" lon="11.36906"><ele>239.0</ele><time>2026-04-06T11:43:54.542Z</time></trkpt><trkpt lat="43.2090167" lon="11.3691433"><ele>239.0</ele><time>2026-04-06T11:43:55.542Z</time></trkpt><trkpt lat="43.2089567" lon="11.3692317"><ele>239.0</ele><time>2026-04-06T11:43:56.535Z</time></trkpt><trkpt lat="43.2089017" lon="11.369325"><ele>239.00000000000003</ele><time>2026-04-06T11:43:57.539Z</time></trkpt><trkpt lat="43.208845" lon="11.3694117"><ele>239.0</ele><time>2026-04-06T11:43:58.537Z</time></trkpt><trkpt lat="43.208785" lon="11.36951"><ele>241.79999999999998</ele><time>2026-04-06T11:43:59.535Z</time></trkpt><trkpt lat="43.208715" lon="11.369615"><ele>244.59999999999997</ele><time>2026-04-06T11:44:00.539Z</time></trkpt><trkpt lat="43.2086383" lon="11.3697133"><ele>247.4</ele><time>2026-04-06T11:44:01.54Z</time></trkpt><trkpt lat="43.2085667" lon="11.3698067"><ele>250.2</ele><time>2026-04-06T11:44:02.538Z</time></trkpt><trkpt lat="43.2085" lon="11.3699083"><ele>253.0</ele><time>2026-04-06T11:44:03.542Z</time></trkpt><trkpt lat="43.2084333" lon="11.3700167"><ele>253.0</ele><time>2026-04-06T11:44:04.54Z</time></trkpt><trkpt lat="43.2083667" lon="11.3701117"><ele>253.0</ele><time>2026-04-06T11:44:05.542Z</time></trkpt><trkpt lat="43.2082917" lon="11.3702083"><ele>253.0</ele><time>2026-04-06T11:44:06.535Z</time></trkpt><trkpt lat="43.20821" lon="11.370305"><ele>253.0</ele><time>2026-04-06T11:44:07.535Z</time></trkpt><trkpt lat="43.2081317" lon="11.3704033"><ele>253.0</ele><time>2026-04-06T11:44:08.535Z</time></trkpt><trkpt lat="43.2080567" lon="11.370495"><ele>256.4</ele><time>2026-04-06T11:44:09.534Z</time></trkpt><trkpt lat="43.20798" lon="11.3706"><ele>259.8</ele><time>2026-04-06T11:44:10.539Z</time></trkpt><trkpt lat="43.2079067" lon="11.3707117"><ele>263.2</ele><time>2026-04-06T11:44:11.538Z</time></trkpt><trkpt lat="43.2078333" lon="11.37082"><ele>266.6</ele><time>2026-04-06T11:44:12.538Z</time></trkpt><trkpt lat="43.2077683" lon="11.370905"><ele>270.0</ele><time>2026-04-06T11:44:13.534Z</time></trkpt><trkpt lat="43.2077017" lon="11.37099"><ele>270.0</ele><time>2026-04-06T11:44:14.541Z</time></trkpt><trkpt lat="43.2076317" lon="11.371085"><ele>270.0</ele><time>2026-04-06T11:44:15.535Z</time></trkpt><trkpt lat="43.2075583" lon="11.3711767"><ele>270.0</ele><time>2026-04-06T11:44:16.538Z</time></trkpt><trkpt lat="43.207485" lon="11.3712867"><ele>270.0</ele><time>2026-04-06T11:44:17.536Z</time></trkpt><trkpt lat="43.2074167" lon="11.3713783"><ele>270.0</ele><time>2026-04-06T11:44:18.541Z</time></trkpt><trkpt lat="43.2073467" lon="11.3714717"><ele>273.4</ele><time>2026-04-06T11:44:19.541Z</time></trkpt><trkpt lat="43.2072833" lon="11.3715633"><ele>276.8</ele><time>2026-04-06T11:44:20.54Z</time></trkpt><trkpt lat="43.2072217" lon="11.3716667"><ele>280.2</ele><time>2026-04-06T11:44:21.532Z</time></trkpt><trkpt lat="43.2071567" lon="11.3717733"><ele>283.6</ele><time>2026-04-06T11:44:22.533Z</time></trkpt><trkpt lat="43.2070983" lon="11.3718917"><ele>287.0</ele><time>2026-04-06T11:44:23.534Z</time></trkpt><trkpt lat="43.2070433" lon="11.371995"><ele>287.0</ele><time>2026-04-06T11:44:24.542Z</time></trkpt><trkpt lat="43.2069967" lon="11.3721"><ele>287.0</ele><time>2026-04-06T11:44:25.536Z</time></trkpt><trkpt lat="43.20695" lon="11.3722017"><ele>287.0</ele><time>2026-04-06T11:44:26.539Z</time></trkpt><trkpt lat="43.206905" lon="11.3723"><ele>287.0</ele><time>2026-04-06T11:44:27.536Z</time></trkpt><trkpt lat="43.2068533" lon="11.3723967"><ele>287.0</ele><time>2026-04-06T11:44:28.536Z</time></trkpt><trkpt lat="43.2067933" lon="11.3724933"><ele>287.0</ele><time>2026-04-06T11:44:29.54Z</time></trkpt><trkpt lat="43.2067283" lon="11.3725933"><ele>287.4</ele><time>2026-04-06T11:44:30.54Z</time></trkpt><trkpt lat="43.2066533" lon="11.3726867"><ele>287.79999999999995</ele><time>2026-04-06T11:44:31.538Z</time></trkpt><trkpt lat="43.2065767" lon="11.3727667"><ele>288.2</ele><time>2026-04-06T11:44:32.534Z</time></trkpt><trkpt lat="43.2065" lon="11.372845"><ele>288.59999999999997</ele><time>2026-04-06T11:44:33.538Z</time></trkpt><trkpt lat="43.2064133" lon="11.3729183"><ele>289.0</ele><time>2026-04-06T11:44:34.538Z</time></trkpt><trkpt lat="43.20632" lon="11.37299"><ele>284.59999999999997</ele><time>2026-04-06T11:44:35.542Z</time></trkpt><trkpt lat="43.2062283" lon="11.3730567"><ele>280.2</ele><time>2026-04-06T11:44:36.534Z</time></trkpt><trkpt lat="43.206135" lon="11.3731167"><ele>275.79999999999995</ele><time>2026-04-06T11:44:37.54Z</time></trkpt><trkpt lat="43.2060467" lon="11.3731767"><ele>271.4</ele><time>2026-04-06T11:44:38.539Z</time></trkpt><trkpt lat="43.2059667" lon="11.37324"><ele>267.0</ele><time>2026-04-06T11:44:39.54Z</time></trkpt><trkpt lat="43.2058883" lon="11.3732967"><ele>267.0</ele><time>2026-04-06T11:44:40.539Z</time></trkpt><trkpt lat="43.2058133" lon="11.3733533"><ele>267.0</ele><time>2026-04-06T11:44:41.535Z</time></trkpt><trkpt lat="43.20575" lon="11.3734267"><ele>267.0</ele><time>2026-04-06T11:44:42.538Z</time></trkpt><trkpt lat="43.20569" lon="11.3734933"><ele>267.0</ele><time>2026-04-06T11:44:43.544Z</time></trkpt><trkpt lat="43.205635" lon="11.373555"><ele>267.0</ele><time>2026-04-06T11:44:44.534Z</time></trkpt><trkpt lat="43.20554" lon="11.37365"><ele>267.0</ele><time>2026-04-06T11:44:46.534Z</time></trkpt><trkpt lat="43.2054367" lon="11.3737233"><ele>267.1666666666667</ele><time>2026-04-06T11:44:48.538Z</time></trkpt><trkpt lat="43.20532" lon="11.37378"><ele>267.3333333333333</ele><time>2026-04-06T11:44:50.55Z</time></trkpt><trkpt lat="43.205255" lon="11.3738017"><ele>267.5</ele><time>2026-04-06T11:44:51.533Z</time></trkpt><trkpt lat="43.20519" lon="11.3738083"><ele>267.66666666666663</ele><time>2026-04-06T11:44:52.533Z</time></trkpt><trkpt lat="43.2051217" lon="11.3738017"><ele>267.8333333333333</ele><time>2026-04-06T11:44:53.541Z</time></trkpt><trkpt lat="43.2050517" lon="11.3737883"><ele>268.0</ele><time>2026-04-06T11:44:54.54Z</time></trkpt><trkpt lat="43.2049867" lon="11.373775"><ele>268.0</ele><time>2026-04-06T11:44:55.536Z</time></trkpt><trkpt lat="43.2049133" lon="11.37377"><ele>268.0</ele><time>2026-04-06T11:44:56.535Z</time></trkpt><trkpt lat="43.2048267" lon="11.373765"><ele>268.0</ele><time>2026-04-06T11:44:57.542Z</time></trkpt><trkpt lat="43.204745" lon="11.3737833"><ele>268.0</ele><time>2026-04-06T11:44:58.541Z</time></trkpt><trkpt lat="43.2046633" lon="11.3738"><ele>268.0</ele><time>2026-04-06T11:44:59.538Z</time></trkpt><trkpt lat="43.2045867" lon="11.3738317"><ele>268.0</ele><time>2026-04-06T11:45:00.538Z</time></trkpt><trkpt lat="43.2045117" lon="11.3738483"><ele>266.3333333333333</ele><time>2026-04-06T11:45:01.539Z</time></trkpt><trkpt lat="43.2044367" lon="11.3738767"><ele>264.66666666666663</ele><time>2026-04-06T11:45:02.54Z</time></trkpt><trkpt lat="43.20436" lon="11.3739017"><ele>263.0</ele><time>2026-04-06T11:45:03.545Z</time></trkpt><trkpt lat="43.204275" lon="11.3739233"><ele>261.3333333333333</ele><time>2026-04-06T11:45:04.535Z</time></trkpt><trkpt lat="43.2041833" lon="11.3739583"><ele>259.6666666666667</ele><time>2026-04-06T11:45:05.542Z</time></trkpt><trkpt lat="43.2040833" lon="11.3739933"><ele>258.0</ele><time>2026-04-06T11:45:06.542Z</time></trkpt><trkpt lat="43.2039817" lon="11.3740217"><ele>258.0</ele><time>2026-04-06T11:45:07.539Z</time></trkpt><trkpt lat="43.203885" lon="11.3740467"><ele>258.0</ele><time>2026-04-06T11:45:08.543Z</time></trkpt><trkpt lat="43.2037967" lon="11.3740833"><ele>258.0</ele><time>2026-04-06T11:45:09.537Z</time></trkpt><trkpt lat="43.2037117" lon="11.3741383"><ele>258.0</ele><time>2026-04-06T11:45:10.538Z</time></trkpt><trkpt lat="43.2036233" lon="11.3742083"><ele>258.0</ele><time>2026-04-06T11:45:11.536Z</time></trkpt><trkpt lat="43.2035333" lon="11.37428"><ele>258.0</ele><time>2026-04-06T11:45:12.54Z</time></trkpt><trkpt lat="43.2034517" lon="11.374355"><ele>258.0</ele><time>2026-04-06T11:45:13.535Z</time></trkpt><trkpt lat="43.2033617" lon="11.374425"><ele>258.0</ele><time>2026-04-06T11:45:14.539Z</time></trkpt><trkpt lat="43.20326" lon="11.3744833"><ele>258.0</ele><time>2026-04-06T11:45:15.541Z</time></trkpt><trkpt lat="43.2031533" lon="11.3745183"><ele>258.0</ele><time>2026-04-06T11:45:16.532Z</time></trkpt><trkpt lat="43.2030517" lon="11.374545"><ele>259.75</ele><time>2026-04-06T11:45:17.533Z</time></trkpt><trkpt lat="43.2029483" lon="11.3745733"><ele>261.5</ele><time>2026-04-06T11:45:18.537Z</time></trkpt><trkpt lat="43.2028333" lon="11.3746"><ele>263.25</ele><time>2026-04-06T11:45:19.536Z</time></trkpt><trkpt lat="43.2027167" lon="11.3746333"><ele>265.0</ele><time>2026-04-06T11:45:20.537Z</time></trkpt><trkpt lat="43.202595" lon="11.3746617"><ele>265.25</ele><time>2026-04-06T11:45:21.537Z</time></trkpt><trkpt lat="43.2024717" lon="11.3747017"><ele>265.5</ele><time>2026-04-06T11:45:22.538Z</time></trkpt><trkpt lat="43.2023533" lon="11.3747217"><ele>265.75</ele><time>2026-04-06T11:45:23.537Z</time></trkpt><trkpt lat="43.2022417" lon="11.37475"><ele>266.0</ele><time>2026-04-06T11:45:24.542Z</time></trkpt><trkpt lat="43.202135" lon="11.37478"><ele>266.0</ele><time>2026-04-06T11:45:25.534Z</time></trkpt><trkpt lat="43.2020347" lon="11.3748073"><ele>266.0</ele><time>2026-04-06T11:45:26.535Z</time></trkpt><trkpt lat="43.2019351" lon="11.3748421"><ele>266.0</ele><time>2026-04-06T11:45:27.536Z</time></trkpt><trkpt lat="43.2018386" lon="11.3748811"><ele>266.0</ele><time>2026-04-06T11:45:28.552Z</time></trkpt><trkpt lat="43.2017486" lon="11.3749301"><ele>266.0</ele><time>2026-04-06T11:45:29.533Z</time></trkpt><trkpt lat="43.2016613" lon="11.3749853"><ele>266.0</ele><time>2026-04-06T11:45:30.539Z</time></trkpt><trkpt lat="43.2015757" lon="11.3750485"><ele>266.0</ele><time>2026-04-06T11:45:31.537Z</time></trkpt><trkpt lat="43.2014817" lon="11.3751193"><ele>266.0</ele><time>2026-04-06T11:45:32.537Z</time></trkpt><trkpt lat="43.2013793" lon="11.3751887"><ele>266.0</ele><time>2026-04-06T11:45:33.543Z</time></trkpt><trkpt lat="43.201282" lon="11.3752601"><ele>266.0</ele><time>2026-04-06T11:45:34.535Z</time></trkpt><trkpt lat="43.2011975" lon="11.3753186"><ele>266.83333333333337</ele><time>2026-04-06T11:45:35.534Z</time></trkpt><trkpt lat="43.2011234" lon="11.3753693"><ele>267.6666666666667</ele><time>2026-04-06T11:45:36.54Z</time></trkpt><trkpt lat="43.2010637" lon="11.3754047"><ele>268.5</ele><time>2026-04-06T11:45:37.54Z</time></trkpt><trkpt lat="43.2009527" lon="11.375423"><ele>269.3333333333333</ele><time>2026-04-06T11:45:39.535Z</time></trkpt><trkpt lat="43.2008433" lon="11.3753824"><ele>270.16666666666663</ele><time>2026-04-06T11:45:41.536Z</time></trkpt><trkpt lat="43.200786" lon="11.3753466"><ele>271.0</ele><time>2026-04-06T11:45:42.537Z</time></trkpt><trkpt lat="43.2007261" lon="11.3753093"><ele>268.5</ele><time>2026-04-06T11:45:43.537Z</time></trkpt><trkpt lat="43.2006611" lon="11.3752794"><ele>266.0</ele><time>2026-04-06T11:45:44.536Z</time></trkpt><trkpt lat="43.2005958" lon="11.37525"><ele>263.5</ele><time>2026-04-06T11:45:45.535Z</time></trkpt><trkpt lat="43.2005346" lon="11.3752201"><ele>261.0</ele><time>2026-04-06T11:45:46.534Z</time></trkpt><trkpt lat="43.2004273" lon="11.3751476"><ele>258.5</ele><time>2026-04-06T11:45:48.536Z</time></trkpt><trkpt lat="43.2003264" lon="11.375084"><ele>256.0</ele><time>2026-04-06T11:45:50.534Z</time></trkpt><trkpt lat="43.2002227" lon="11.3750285"><ele>256.0</ele><time>2026-04-06T11:45:52.539Z</time></trkpt><trkpt lat="43.2001254" lon="11.3750216"><ele>256.0</ele><time>2026-04-06T11:45:54.541Z</time></trkpt><trkpt lat="43.200037" lon="11.3750765"><ele>256.0</ele><time>2026-04-06T11:45:56.537Z</time></trkpt><trkpt lat="43.1999524" lon="11.3752182"><ele>256.0</ele><time>2026-04-06T11:45:58.537Z</time></trkpt><trkpt lat="43.1998983" lon="11.3753383"><ele>256.0</ele><time>2026-04-06T11:45:59.545Z</time></trkpt><trkpt lat="43.1998467" lon="11.3754533"><ele>253.99999999999997</ele><time>2026-04-06T11:46:00.538Z</time></trkpt><trkpt lat="43.1997917" lon="11.37555"><ele>252.0</ele><time>2026-04-06T11:46:01.538Z</time></trkpt><trkpt lat="43.1997317" lon="11.3756267"><ele>250.0</ele><time>2026-04-06T11:46:02.534Z</time></trkpt><trkpt lat="43.1996717" lon="11.3757017"><ele>248.0</ele><time>2026-04-06T11:46:03.537Z</time></trkpt><trkpt lat="43.1996083" lon="11.3757733"><ele>245.99999999999997</ele><time>2026-04-06T11:46:04.535Z</time></trkpt><trkpt lat="43.1995367" lon="11.3758417"><ele>244.0</ele><time>2026-04-06T11:46:05.538Z</time></trkpt><trkpt lat="43.19947" lon="11.3759133"><ele>243.99999999999997</ele><time>2026-04-06T11:46:06.535Z</time></trkpt><trkpt lat="43.1994033" lon="11.3759883"><ele>244.0</ele><time>2026-04-06T11:46:07.541Z</time></trkpt><trkpt lat="43.19934" lon="11.3760583"><ele>244.0</ele><time>2026-04-06T11:46:08.533Z</time></trkpt><trkpt lat="43.1992667" lon="11.3761233"><ele>244.0</ele><time>2026-04-06T11:46:09.535Z</time></trkpt><trkpt lat="43.199185" lon="11.3761733"><ele>243.99999999999997</ele><time>2026-04-06T11:46:10.536Z</time></trkpt><trkpt lat="43.1991017" lon="11.376215"><ele>244.0</ele><time>2026-04-06T11:46:11.539Z</time></trkpt><trkpt lat="43.1990117" lon="11.3762433"><ele>242.39999999999998</ele><time>2026-04-06T11:46:12.537Z</time></trkpt><trkpt lat="43.1989217" lon="11.376265"><ele>240.79999999999998</ele><time>2026-04-06T11:46:13.535Z</time></trkpt><trkpt lat="43.1988317" lon="11.3762867"><ele>239.20000000000002</ele><time>2026-04-06T11:46:14.539Z</time></trkpt><trkpt lat="43.1987383" lon="11.3763033"><ele>237.60000000000002</ele><time>2026-04-06T11:46:15.54Z</time></trkpt><trkpt lat="43.1986467" lon="11.37632"><ele>236.0</ele><time>2026-04-06T11:46:16.537Z</time></trkpt><trkpt lat="43.1985583" lon="11.376345"><ele>236.0</ele><time>2026-04-06T11:46:17.537Z</time></trkpt><trkpt lat="43.1984733" lon="11.3763767"><ele>236.00000000000003</ele><time>2026-04-06T11:46:18.534Z</time></trkpt><trkpt lat="43.19839" lon="11.37643"><ele>236.00000000000003</ele><time>2026-04-06T11:46:19.534Z</time></trkpt><trkpt lat="43.1982967" lon="11.3765033"><ele>236.0</ele><time>2026-04-06T11:46:20.544Z</time></trkpt><trkpt lat="43.198205" lon="11.3765967"><ele>236.0</ele><time>2026-04-06T11:46:21.539Z</time></trkpt><trkpt lat="43.1981183" lon="11.3766833"><ele>236.0</ele><time>2026-04-06T11:46:22.534Z</time></trkpt><trkpt lat="43.19803" lon="11.376765"><ele>236.0</ele><time>2026-04-06T11:46:23.534Z</time></trkpt><trkpt lat="43.1979367" lon="11.3768533"><ele>236.0</ele><time>2026-04-06T11:46:24.541Z</time></trkpt><trkpt lat="43.19783" lon="11.3769483"><ele>236.0</ele><time>2026-04-06T11:46:25.535Z</time></trkpt><trkpt lat="43.1977167" lon="11.3770417"><ele>236.0</ele><time>2026-04-06T11:46:26.538Z</time></trkpt><trkpt lat="43.197605" lon="11.3771233"><ele>236.0</ele><time>2026-04-06T11:46:27.538Z</time></trkpt><trkpt lat="43.1974967" lon="11.3771967"><ele>236.0</ele><time>2026-04-06T11:46:28.534Z</time></trkpt><trkpt lat="43.1973967" lon="11.377265"><ele>236.0</ele><time>2026-04-06T11:46:29.533Z</time></trkpt><trkpt lat="43.1973017" lon="11.3773267"><ele>235.20000000000002</ele><time>2026-04-06T11:46:30.538Z</time></trkpt><trkpt lat="43.1972083" lon="11.3773833"><ele>234.40000000000003</ele><time>2026-04-06T11:46:31.535Z</time></trkpt><trkpt lat="43.1971183" lon="11.3774383"><ele>233.6</ele><time>2026-04-06T11:46:32.535Z</time></trkpt><trkpt lat="43.1970333" lon="11.377495"><ele>232.8</ele><time>2026-04-06T11:46:33.534Z</time></trkpt><trkpt lat="43.1969484" lon="11.377561"><ele>232.0</ele><time>2026-04-06T11:46:34.533Z</time></trkpt><trkpt lat="43.1968624" lon="11.3776356"><ele>232.0</ele><time>2026-04-06T11:46:35.54Z</time></trkpt><trkpt lat="43.1967705" lon="11.3777074"><ele>232.0</ele><time>2026-04-06T11:46:36.538Z</time></trkpt><trkpt lat="43.1966764" lon="11.3777833"><ele>232.0</ele><time>2026-04-06T11:46:37.536Z</time></trkpt><trkpt lat="43.1965735" lon="11.3778605"><ele>232.0</ele><time>2026-04-06T11:46:38.534Z</time></trkpt><trkpt lat="43.1964611" lon="11.3779369"><ele>231.5</ele><time>2026-04-06T11:46:39.622Z</time></trkpt><trkpt lat="43.1963497" lon="11.3780105"><ele>231.0</ele><time>2026-04-06T11:46:40.534Z</time></trkpt><trkpt lat="43.1962256" lon="11.3780948"><ele>230.5</ele><time>2026-04-06T11:46:41.537Z</time></trkpt><trkpt lat="43.1961014" lon="11.3781797"><ele>230.0</ele><time>2026-04-06T11:46:42.535Z</time></trkpt><trkpt lat="43.1959746" lon="11.378263"><ele>230.0</ele><time>2026-04-06T11:46:43.534Z</time></trkpt><trkpt lat="43.1958477" lon="11.378334"><ele>230.0</ele><time>2026-04-06T11:46:44.537Z</time></trkpt><trkpt lat="43.1957253" lon="11.3783882"><ele>230.0</ele><time>2026-04-06T11:46:45.536Z</time></trkpt><trkpt lat="43.1956158" lon="11.3784315"><ele>230.0</ele><time>2026-04-06T11:46:46.536Z</time></trkpt><trkpt lat="43.1955129" lon="11.3784714"><ele>230.0</ele><time>2026-04-06T11:46:47.536Z</time></trkpt><trkpt lat="43.195419" lon="11.3785174"><ele>230.0</ele><time>2026-04-06T11:46:48.534Z</time></trkpt><trkpt lat="43.1953313" lon="11.3785742"><ele>230.0</ele><time>2026-04-06T11:46:49.533Z</time></trkpt><trkpt lat="43.1952483" lon="11.3786362"><ele>230.0</ele><time>2026-04-06T11:46:50.54Z</time></trkpt><trkpt lat="43.1951693" lon="11.3787143"><ele>230.0</ele><time>2026-04-06T11:46:51.535Z</time></trkpt><trkpt lat="43.1950896" lon="11.3788178"><ele>230.75</ele><time>2026-04-06T11:46:52.534Z</time></trkpt><trkpt lat="43.1950069" lon="11.3789384"><ele>231.5</ele><time>2026-04-06T11:46:53.533Z</time></trkpt><trkpt lat="43.1949234" lon="11.3790639"><ele>232.25</ele><time>2026-04-06T11:46:54.54Z</time></trkpt><trkpt lat="43.1948468" lon="11.3791867"><ele>233.0</ele><time>2026-04-06T11:46:55.538Z</time></trkpt><trkpt lat="43.1947839" lon="11.379301"><ele>231.5</ele><time>2026-04-06T11:46:56.537Z</time></trkpt><trkpt lat="43.1947242" lon="11.3794105"><ele>230.0</ele><time>2026-04-06T11:46:57.534Z</time></trkpt><trkpt lat="43.1946746" lon="11.3795363"><ele>228.5</ele><time>2026-04-06T11:46:58.533Z</time></trkpt><trkpt lat="43.1946332" lon="11.3796894"><ele>227.0</ele><time>2026-04-06T11:46:59.534Z</time></trkpt><trkpt lat="43.194596" lon="11.3798653"><ele>227.0</ele><time>2026-04-06T11:47:00.54Z</time></trkpt><trkpt lat="43.1945647" lon="11.38006"><ele>227.0</ele><time>2026-04-06T11:47:01.553Z</time></trkpt><trkpt lat="43.194539" lon="11.3802516"><ele>227.0</ele><time>2026-04-06T11:47:02.536Z</time></trkpt><trkpt lat="43.1945179" lon="11.3804367"><ele>227.0</ele><time>2026-04-06T11:47:03.533Z</time></trkpt><trkpt lat="43.1945004" lon="11.3806079"><ele>227.25</ele><time>2026-04-06T11:47:04.539Z</time></trkpt><trkpt lat="43.1944799" lon="11.3807669"><ele>227.5</ele><time>2026-04-06T11:47:05.538Z</time></trkpt><trkpt lat="43.1944548" lon="11.3809139"><ele>227.75</ele><time>2026-04-06T11:47:06.535Z</time></trkpt><trkpt lat="43.1944183" lon="11.3810583"><ele>228.0</ele><time>2026-04-06T11:47:07.535Z</time></trkpt><trkpt lat="43.1943717" lon="11.38121"><ele>228.0</ele><time>2026-04-06T11:47:08.535Z</time></trkpt><trkpt lat="43.1943183" lon="11.3813617"><ele>228.0</ele><time>2026-04-06T11:47:09.536Z</time></trkpt><trkpt lat="43.1942717" lon="11.3815083"><ele>228.0</ele><time>2026-04-06T11:47:10.532Z</time></trkpt><trkpt lat="43.1942267" lon="11.3816517"><ele>228.0</ele><time>2026-04-06T11:47:11.535Z</time></trkpt><trkpt lat="43.19418" lon="11.3817983"><ele>228.0</ele><time>2026-04-06T11:47:12.536Z</time></trkpt><trkpt lat="43.1941267" lon="11.38195"><ele>228.0</ele><time>2026-04-06T11:47:13.537Z</time></trkpt><trkpt lat="43.1940717" lon="11.38211"><ele>228.0</ele><time>2026-04-06T11:47:14.542Z</time></trkpt><trkpt lat="43.1940083" lon="11.3822833"><ele>228.0</ele><time>2026-04-06T11:47:15.538Z</time></trkpt><trkpt lat="43.193945" lon="11.3824583"><ele>227.5</ele><time>2026-04-06T11:47:16.538Z</time></trkpt><trkpt lat="43.1938833" lon="11.3826283"><ele>227.0</ele><time>2026-04-06T11:47:17.535Z</time></trkpt><trkpt lat="43.193825" lon="11.3827917"><ele>226.5</ele><time>2026-04-06T11:47:18.533Z</time></trkpt><trkpt lat="43.1937717" lon="11.382935"><ele>226.0</ele><time>2026-04-06T11:47:19.54Z</time></trkpt><trkpt lat="43.1937217" lon="11.3830683"><ele>226.0</ele><time>2026-04-06T11:47:20.537Z</time></trkpt><trkpt lat="43.1936733" lon="11.3831933"><ele>226.00000000000003</ele><time>2026-04-06T11:47:21.534Z</time></trkpt><trkpt lat="43.19362" lon="11.383305"><ele>226.00000000000003</ele><time>2026-04-06T11:47:22.533Z</time></trkpt><trkpt lat="43.1935583" lon="11.3833983"><ele>226.0</ele><time>2026-04-06T11:47:23.537Z</time></trkpt><trkpt lat="43.19348" lon="11.3834833"><ele>226.0</ele><time>2026-04-06T11:47:24.538Z</time></trkpt><trkpt lat="43.1933883" lon="11.3835433"><ele>226.0</ele><time>2026-04-06T11:47:25.537Z</time></trkpt><trkpt lat="43.1932983" lon="11.3835983"><ele>226.00000000000003</ele><time>2026-04-06T11:47:26.535Z</time></trkpt><trkpt lat="43.1932" lon="11.38364"><ele>226.00000000000003</ele><time>2026-04-06T11:47:27.533Z</time></trkpt><trkpt lat="43.1931083" lon="11.3836767"><ele>226.0</ele><time>2026-04-06T11:47:28.538Z</time></trkpt><trkpt lat="43.1930267" lon="11.3837117"><ele>226.0</ele><time>2026-04-06T11:47:29.534Z</time></trkpt><trkpt lat="43.192945" lon="11.3837533"><ele>225.66666666666666</ele><time>2026-04-06T11:47:30.538Z</time></trkpt><trkpt lat="43.1928717" lon="11.3837833"><ele>225.33333333333331</ele><time>2026-04-06T11:47:31.536Z</time></trkpt><trkpt lat="43.19281" lon="11.3838133"><ele>225.0</ele><time>2026-04-06T11:47:32.534Z</time></trkpt><trkpt lat="43.19269" lon="11.3838633"><ele>224.66666666666669</ele><time>2026-04-06T11:47:34.538Z</time></trkpt><trkpt lat="43.1926283" lon="11.38389"><ele>224.33333333333334</ele><time>2026-04-06T11:47:35.537Z</time></trkpt><trkpt lat="43.19256" lon="11.383915"><ele>224.0</ele><time>2026-04-06T11:47:36.535Z</time></trkpt><trkpt lat="43.1924767" lon="11.3839417"><ele>224.0</ele><time>2026-04-06T11:47:37.534Z</time></trkpt><trkpt lat="43.19238" lon="11.3839667"><ele>223.99999999999997</ele><time>2026-04-06T11:47:38.542Z</time></trkpt><trkpt lat="43.1922783" lon="11.3839667"><ele>223.99999999999997</ele><time>2026-04-06T11:47:39.537Z</time></trkpt><trkpt lat="43.19217" lon="11.3839583"><ele>224.0</ele><time>2026-04-06T11:47:40.536Z</time></trkpt><trkpt lat="43.192065" lon="11.38395"><ele>224.0</ele><time>2026-04-06T11:47:41.534Z</time></trkpt><trkpt lat="43.19197" lon="11.3839383"><ele>224.2</ele><time>2026-04-06T11:47:42.537Z</time></trkpt><trkpt lat="43.19188" lon="11.3839467"><ele>224.39999999999998</ele><time>2026-04-06T11:47:43.542Z</time></trkpt><trkpt lat="43.1917867" lon="11.3839783"><ele>224.6</ele><time>2026-04-06T11:47:44.538Z</time></trkpt><trkpt lat="43.1916983" lon="11.3840517"><ele>224.8</ele><time>2026-04-06T11:47:45.536Z</time></trkpt><trkpt lat="43.1916117" lon="11.3841517"><ele>225.0</ele><time>2026-04-06T11:47:46.539Z</time></trkpt><trkpt lat="43.1915167" lon="11.3842783"><ele>225.75</ele><time>2026-04-06T11:47:47.542Z</time></trkpt><trkpt lat="43.1914217" lon="11.3844167"><ele>226.5</ele><time>2026-04-06T11:47:48.536Z</time></trkpt><trkpt lat="43.1913283" lon="11.3845517"><ele>227.25</ele><time>2026-04-06T11:47:49.545Z</time></trkpt><trkpt lat="43.1912383" lon="11.3846817"><ele>228.0</ele><time>2026-04-06T11:47:50.54Z</time></trkpt><trkpt lat="43.1911433" lon="11.3848017"><ele>228.0</ele><time>2026-04-06T11:47:51.537Z</time></trkpt><trkpt lat="43.1910467" lon="11.3849117"><ele>228.0</ele><time>2026-04-06T11:47:52.533Z</time></trkpt><trkpt lat="43.1909517" lon="11.3850283"><ele>228.0</ele><time>2026-04-06T11:47:53.538Z</time></trkpt><trkpt lat="43.1908433" lon="11.3851233"><ele>228.0</ele><time>2026-04-06T11:47:54.538Z</time></trkpt><trkpt lat="43.1907283" lon="11.38522"><ele>229.0</ele><time>2026-04-06T11:47:55.536Z</time></trkpt><trkpt lat="43.19061" lon="11.3852983"><ele>230.0</ele><time>2026-04-06T11:47:56.546Z</time></trkpt><trkpt lat="43.1904867" lon="11.3853733"><ele>231.0</ele><time>2026-04-06T11:47:57.535Z</time></trkpt><trkpt lat="43.1903683" lon="11.3854383"><ele>232.0</ele><time>2026-04-06T11:47:58.537Z</time></trkpt><trkpt lat="43.1902533" lon="11.3855017"><ele>229.5</ele><time>2026-04-06T11:47:59.535Z</time></trkpt><trkpt lat="43.1901333" lon="11.3855433"><ele>227.0</ele><time>2026-04-06T11:48:00.536Z</time></trkpt><trkpt lat="43.1900167" lon="11.385575"><ele>224.5</ele><time>2026-04-06T11:48:01.54Z</time></trkpt><trkpt lat="43.1898967" lon="11.3855967"><ele>222.0</ele><time>2026-04-06T11:48:02.535Z</time></trkpt><trkpt lat="43.1897783" lon="11.3856217"><ele>221.25</ele><time>2026-04-06T11:48:03.54Z</time></trkpt><trkpt lat="43.1896583" lon="11.38565"><ele>220.5</ele><time>2026-04-06T11:48:04.535Z</time></trkpt><trkpt lat="43.1895383" lon="11.3857"><ele>219.75</ele><time>2026-04-06T11:48:05.542Z</time></trkpt><trkpt lat="43.1894183" lon="11.385745"><ele>219.0</ele><time>2026-04-06T11:48:06.533Z</time></trkpt><trkpt lat="43.1893" lon="11.3857833"><ele>219.0</ele><time>2026-04-06T11:48:07.547Z</time></trkpt><trkpt lat="43.1891833" lon="11.3858233"><ele>219.0</ele><time>2026-04-06T11:48:08.535Z</time></trkpt><trkpt lat="43.189065" lon="11.385865"><ele>219.0</ele><time>2026-04-06T11:48:09.537Z</time></trkpt><trkpt lat="43.188955" lon="11.3859133"><ele>219.0</ele><time>2026-04-06T11:48:10.536Z</time></trkpt><trkpt lat="43.1888567" lon="11.38595"><ele>220.16666666666666</ele><time>2026-04-06T11:48:11.533Z</time></trkpt><trkpt lat="43.188765" lon="11.385975"><ele>221.33333333333331</ele><time>2026-04-06T11:48:12.538Z</time></trkpt><trkpt lat="43.18868" lon="11.3859817"><ele>222.5</ele><time>2026-04-06T11:48:13.537Z</time></trkpt><trkpt lat="43.1885967" lon="11.385965"><ele>223.66666666666666</ele><time>2026-04-06T11:48:14.537Z</time></trkpt><trkpt lat="43.1885183" lon="11.3859367"><ele>224.83333333333331</ele><time>2026-04-06T11:48:15.542Z</time></trkpt><trkpt lat="43.1884417" lon="11.3858867"><ele>226.0</ele><time>2026-04-06T11:48:16.534Z</time></trkpt><trkpt lat="43.1883667" lon="11.3858333"><ele>225.99999999999997</ele><time>2026-04-06T11:48:17.538Z</time></trkpt><trkpt lat="43.1882983" lon="11.3857767"><ele>226.0</ele><time>2026-04-06T11:48:18.542Z</time></trkpt><trkpt lat="43.1882317" lon="11.38572"><ele>226.0</ele><time>2026-04-06T11:48:19.536Z</time></trkpt><trkpt lat="43.18816" lon="11.38566"><ele>226.0</ele><time>2026-04-06T11:48:20.539Z</time></trkpt><trkpt lat="43.1880783" lon="11.3855967"><ele>225.99999999999997</ele><time>2026-04-06T11:48:21.535Z</time></trkpt><trkpt lat="43.1879883" lon="11.3855333"><ele>226.0</ele><time>2026-04-06T11:48:22.538Z</time></trkpt><trkpt lat="43.1878933" lon="11.3854717"><ele>228.8</ele><time>2026-04-06T11:48:23.536Z</time></trkpt><trkpt lat="43.1877967" lon="11.3854167"><ele>231.60000000000002</ele><time>2026-04-06T11:48:24.535Z</time></trkpt><trkpt lat="43.187705" lon="11.385365"><ele>234.4</ele><time>2026-04-06T11:48:25.54Z</time></trkpt><trkpt lat="43.1876183" lon="11.3853217"><ele>237.2</ele><time>2026-04-06T11:48:26.536Z</time></trkpt><trkpt lat="43.18753" lon="11.3852867"><ele>240.0</ele><time>2026-04-06T11:48:27.534Z</time></trkpt><trkpt lat="43.1874367" lon="11.3852617"><ele>240.0</ele><time>2026-04-06T11:48:28.539Z</time></trkpt><trkpt lat="43.187345" lon="11.385255"><ele>240.0</ele><time>2026-04-06T11:48:29.536Z</time></trkpt><trkpt lat="43.1872517" lon="11.3852567"><ele>240.0</ele><time>2026-04-06T11:48:30.535Z</time></trkpt><trkpt lat="43.1871517" lon="11.3852633"><ele>240.0</ele><time>2026-04-06T11:48:31.542Z</time></trkpt><trkpt lat="43.1870433" lon="11.38528"><ele>240.0</ele><time>2026-04-06T11:48:32.536Z</time></trkpt><trkpt lat="43.1869333" lon="11.3852983"><ele>242.0</ele><time>2026-04-06T11:48:33.536Z</time></trkpt><trkpt lat="43.186815" lon="11.3853233"><ele>244.0</ele><time>2026-04-06T11:48:34.535Z</time></trkpt><trkpt lat="43.1867" lon="11.3853533"><ele>246.0</ele><time>2026-04-06T11:48:35.536Z</time></trkpt><trkpt lat="43.1865883" lon="11.385385"><ele>248.0</ele><time>2026-04-06T11:48:36.536Z</time></trkpt><trkpt lat="43.1864833" lon="11.38541"><ele>249.60000000000002</ele><time>2026-04-06T11:48:37.54Z</time></trkpt><trkpt lat="43.1863817" lon="11.38543"><ele>251.20000000000002</ele><time>2026-04-06T11:48:38.537Z</time></trkpt><trkpt lat="43.18628" lon="11.3854367"><ele>252.8</ele><time>2026-04-06T11:48:39.539Z</time></trkpt><trkpt lat="43.1861833" lon="11.38544"><ele>254.4</ele><time>2026-04-06T11:48:40.541Z</time></trkpt><trkpt lat="43.1860917" lon="11.3854383"><ele>256.0</ele><time>2026-04-06T11:48:41.543Z</time></trkpt><trkpt lat="43.1859967" lon="11.3854317"><ele>255.99999999999997</ele><time>2026-04-06T11:48:42.539Z</time></trkpt><trkpt lat="43.1858933" lon="11.38543"><ele>256.0</ele><time>2026-04-06T11:48:43.539Z</time></trkpt><trkpt lat="43.1857983" lon="11.38543"><ele>256.0</ele><time>2026-04-06T11:48:44.535Z</time></trkpt><trkpt lat="43.1857167" lon="11.38543"><ele>256.0</ele><time>2026-04-06T11:48:45.534Z</time></trkpt><trkpt lat="43.1856417" lon="11.3854233"><ele>255.99999999999997</ele><time>2026-04-06T11:48:46.534Z</time></trkpt><trkpt lat="43.1855733" lon="11.3854133"><ele>256.0</ele><time>2026-04-06T11:48:47.536Z</time></trkpt><trkpt lat="43.18551" lon="11.3853933"><ele>257.8333333333333</ele><time>2026-04-06T11:48:48.536Z</time></trkpt><trkpt lat="43.18544" lon="11.3853683"><ele>259.66666666666663</ele><time>2026-04-06T11:48:49.533Z</time></trkpt><trkpt lat="43.1853583" lon="11.38532"><ele>261.5</ele><time>2026-04-06T11:48:50.535Z</time></trkpt><trkpt lat="43.185285" lon="11.3852517"><ele>263.3333333333333</ele><time>2026-04-06T11:48:51.542Z</time></trkpt><trkpt lat="43.185225" lon="11.3851767"><ele>265.1666666666667</ele><time>2026-04-06T11:48:52.537Z</time></trkpt><trkpt lat="43.185165" lon="11.38509"><ele>267.0</ele><time>2026-04-06T11:48:53.535Z</time></trkpt><trkpt lat="43.1850983" lon="11.384995"><ele>267.0</ele><time>2026-04-06T11:48:54.535Z</time></trkpt><trkpt lat="43.1850333" lon="11.384885"><ele>267.0</ele><time>2026-04-06T11:48:55.536Z</time></trkpt><trkpt lat="43.18497" lon="11.3847767"><ele>267.0</ele><time>2026-04-06T11:48:56.537Z</time></trkpt><trkpt lat="43.18491" lon="11.3846767"><ele>267.0</ele><time>2026-04-06T11:48:57.538Z</time></trkpt><trkpt lat="43.1848467" lon="11.3845767"><ele>267.0</ele><time>2026-04-06T11:48:58.533Z</time></trkpt><trkpt lat="43.1847767" lon="11.3844867"><ele>268.6</ele><time>2026-04-06T11:48:59.534Z</time></trkpt><trkpt lat="43.1847017" lon="11.3843933"><ele>270.2</ele><time>2026-04-06T11:49:00.535Z</time></trkpt><trkpt lat="43.1846233" lon="11.3843083"><ele>271.8</ele><time>2026-04-06T11:49:01.536Z</time></trkpt><trkpt lat="43.1845483" lon="11.3842317"><ele>273.4</ele><time>2026-04-06T11:49:02.541Z</time></trkpt><trkpt lat="43.18448" lon="11.384165"><ele>275.0</ele><time>2026-04-06T11:49:03.539Z</time></trkpt><trkpt lat="43.1844067" lon="11.3840933"><ele>275.0</ele><time>2026-04-06T11:49:04.538Z</time></trkpt><trkpt lat="43.1843217" lon="11.3840217"><ele>275.0</ele><time>2026-04-06T11:49:05.546Z</time></trkpt><trkpt lat="43.1842267" lon="11.383955"><ele>275.0</ele><time>2026-04-06T11:49:06.542Z</time></trkpt><trkpt lat="43.18413" lon="11.3839033"><ele>275.0</ele><time>2026-04-06T11:49:07.539Z</time></trkpt><trkpt lat="43.18404" lon="11.3838617"><ele>275.0</ele><time>2026-04-06T11:49:08.539Z</time></trkpt><trkpt lat="43.1839533" lon="11.3838267"><ele>274.83333333333337</ele><time>2026-04-06T11:49:09.535Z</time></trkpt><trkpt lat="43.1838683" lon="11.3837967"><ele>274.6666666666667</ele><time>2026-04-06T11:49:10.534Z</time></trkpt><trkpt lat="43.1837817" lon="11.3837683"><ele>274.5</ele><time>2026-04-06T11:49:11.535Z</time></trkpt><trkpt lat="43.183695" lon="11.3837383"><ele>274.3333333333333</ele><time>2026-04-06T11:49:12.536Z</time></trkpt><trkpt lat="43.183615" lon="11.3837117"><ele>274.16666666666663</ele><time>2026-04-06T11:49:13.537Z</time></trkpt><trkpt lat="43.18353" lon="11.383685"><ele>274.0</ele><time>2026-04-06T11:49:14.535Z</time></trkpt><trkpt lat="43.1834517" lon="11.3836533"><ele>274.0</ele><time>2026-04-06T11:49:15.534Z</time></trkpt><trkpt lat="43.18338" lon="11.3836267"><ele>274.0</ele><time>2026-04-06T11:49:16.536Z</time></trkpt><trkpt lat="43.1833117" lon="11.383605"><ele>274.0</ele><time>2026-04-06T11:49:17.536Z</time></trkpt><trkpt lat="43.1832417" lon="11.38358"><ele>274.0</ele><time>2026-04-06T11:49:18.536Z</time></trkpt><trkpt lat="43.183165" lon="11.383555"><ele>274.0</ele><time>2026-04-06T11:49:19.535Z</time></trkpt><trkpt lat="43.1830867" lon="11.3835233"><ele>274.0</ele><time>2026-04-06T11:49:20.538Z</time></trkpt><trkpt lat="43.1830017" lon="11.38349"><ele>273.4</ele><time>2026-04-06T11:49:21.541Z</time></trkpt><trkpt lat="43.182915" lon="11.3834533"><ele>272.79999999999995</ele><time>2026-04-06T11:49:22.535Z</time></trkpt><trkpt lat="43.1828267" lon="11.3834167"><ele>272.20000000000005</ele><time>2026-04-06T11:49:23.536Z</time></trkpt><trkpt lat="43.1827433" lon="11.3833767"><ele>271.6</ele><time>2026-04-06T11:49:24.535Z</time></trkpt><trkpt lat="43.1826533" lon="11.3833367"><ele>271.0</ele><time>2026-04-06T11:49:25.536Z</time></trkpt><trkpt lat="43.1825567" lon="11.3832967"><ele>271.0</ele><time>2026-04-06T11:49:26.541Z</time></trkpt><trkpt lat="43.1824583" lon="11.3832533"><ele>271.0</ele><time>2026-04-06T11:49:27.541Z</time></trkpt><trkpt lat="43.1823533" lon="11.3832067"><ele>271.0</ele><time>2026-04-06T11:49:28.534Z</time></trkpt><trkpt lat="43.1822283" lon="11.3831633"><ele>271.0</ele><time>2026-04-06T11:49:29.537Z</time></trkpt><trkpt lat="43.1821033" lon="11.38312"><ele>270.6</ele><time>2026-04-06T11:49:30.542Z</time></trkpt><trkpt lat="43.181985" lon="11.3830833"><ele>270.20000000000005</ele><time>2026-04-06T11:49:31.544Z</time></trkpt><trkpt lat="43.1818733" lon="11.3830483"><ele>269.79999999999995</ele><time>2026-04-06T11:49:32.54Z</time></trkpt><trkpt lat="43.1817683" lon="11.3830233"><ele>269.4</ele><time>2026-04-06T11:49:33.533Z</time></trkpt><trkpt lat="43.1816633" lon="11.3829967"><ele>269.0</ele><time>2026-04-06T11:49:34.538Z</time></trkpt><trkpt lat="43.181555" lon="11.38298"><ele>268.4</ele><time>2026-04-06T11:49:35.535Z</time></trkpt><trkpt lat="43.18145" lon="11.3829567"><ele>267.79999999999995</ele><time>2026-04-06T11:49:36.542Z</time></trkpt><trkpt lat="43.1813483" lon="11.382925"><ele>267.20000000000005</ele><time>2026-04-06T11:49:37.537Z</time></trkpt><trkpt lat="43.1812483" lon="11.3828917"><ele>266.6</ele><time>2026-04-06T11:49:38.536Z</time></trkpt><trkpt lat="43.18116" lon="11.3828517"><ele>266.0</ele><time>2026-04-06T11:49:39.534Z</time></trkpt><trkpt lat="43.18108" lon="11.3828067"><ele>266.0</ele><time>2026-04-06T11:49:40.538Z</time></trkpt><trkpt lat="43.1810117" lon="11.3827633"><ele>266.0</ele><time>2026-04-06T11:49:41.538Z</time></trkpt><trkpt lat="43.18092" lon="11.382695"><ele>266.0</ele><time>2026-04-06T11:49:43.537Z</time></trkpt><trkpt lat="43.1808067" lon="11.3827"><ele>266.0</ele><time>2026-04-06T11:49:46.537Z</time></trkpt><trkpt lat="43.1807317" lon="11.382735"><ele>266.0</ele><time>2026-04-06T11:49:47.537Z</time></trkpt><trkpt lat="43.1806483" lon="11.3828017"><ele>266.0</ele><time>2026-04-06T11:49:48.533Z</time></trkpt><trkpt lat="43.1805417" lon="11.3829067"><ele>266.0</ele><time>2026-04-06T11:49:49.533Z</time></trkpt><trkpt lat="43.180425" lon="11.3830283"><ele>266.0</ele><time>2026-04-06T11:49:50.541Z</time></trkpt><trkpt lat="43.180295" lon="11.3831533"><ele>266.0</ele><time>2026-04-06T11:49:51.539Z</time></trkpt><trkpt lat="43.1801433" lon="11.3832767"><ele>266.0</ele><time>2026-04-06T11:49:52.536Z</time></trkpt><trkpt lat="43.17997" lon="11.3834"><ele>266.0</ele><time>2026-04-06T11:49:53.543Z</time></trkpt><trkpt lat="43.1797933" lon="11.3835033"><ele>266.0</ele><time>2026-04-06T11:49:54.537Z</time></trkpt><trkpt lat="43.179615" lon="11.3836017"><ele>265.0</ele><time>2026-04-06T11:49:55.539Z</time></trkpt><trkpt lat="43.1794383" lon="11.3836967"><ele>264.0</ele><time>2026-04-06T11:49:56.538Z</time></trkpt><trkpt lat="43.1792617" lon="11.3837917"><ele>263.0</ele><time>2026-04-06T11:49:57.538Z</time></trkpt><trkpt lat="43.1791017" lon="11.38388"><ele>265.0</ele><time>2026-04-06T11:49:58.542Z</time></trkpt><trkpt lat="43.1789533" lon="11.38397"><ele>267.0</ele><time>2026-04-06T11:49:59.539Z</time></trkpt><trkpt lat="43.1788233" lon="11.3840633"><ele>269.0</ele><time>2026-04-06T11:50:00.541Z</time></trkpt><trkpt lat="43.1787067" lon="11.384175"><ele>269.0</ele><time>2026-04-06T11:50:01.54Z</time></trkpt><trkpt lat="43.178605" lon="11.3843033"><ele>269.0</ele><time>2026-04-06T11:50:02.542Z</time></trkpt><trkpt lat="43.1784983" lon="11.3844417"><ele>269.0</ele><time>2026-04-06T11:50:03.537Z</time></trkpt><trkpt lat="43.1783917" lon="11.3845817"><ele>269.0</ele><time>2026-04-06T11:50:04.542Z</time></trkpt><trkpt lat="43.1782783" lon="11.3847167"><ele>269.0</ele><time>2026-04-06T11:50:05.542Z</time></trkpt><trkpt lat="43.1781567" lon="11.3848467"><ele>269.0</ele><time>2026-04-06T11:50:06.542Z</time></trkpt><trkpt lat="43.1780233" lon="11.3849733"><ele>269.0</ele><time>2026-04-06T11:50:07.536Z</time></trkpt><trkpt lat="43.17788" lon="11.38509"><ele>269.0</ele><time>2026-04-06T11:50:08.535Z</time></trkpt><trkpt lat="43.1777267" lon="11.3852033"><ele>269.0</ele><time>2026-04-06T11:50:09.539Z</time></trkpt><trkpt lat="43.177575" lon="11.3853333"><ele>269.0</ele><time>2026-04-06T11:50:10.536Z</time></trkpt><trkpt lat="43.1774283" lon="11.3854917"><ele>270.6666666666667</ele><time>2026-04-06T11:50:11.535Z</time></trkpt><trkpt lat="43.1773033" lon="11.3856667"><ele>272.3333333333333</ele><time>2026-04-06T11:50:12.533Z</time></trkpt><trkpt lat="43.1771983" lon="11.3858717"><ele>274.0</ele><time>2026-04-06T11:50:13.541Z</time></trkpt><trkpt lat="43.1770983" lon="11.3861"><ele>273.3333333333333</ele><time>2026-04-06T11:50:14.54Z</time></trkpt><trkpt lat="43.1769917" lon="11.386345"><ele>272.6666666666667</ele><time>2026-04-06T11:50:15.534Z</time></trkpt><trkpt lat="43.17688" lon="11.3866133"><ele>272.0</ele><time>2026-04-06T11:50:16.534Z</time></trkpt><trkpt lat="43.17677" lon="11.3868767"><ele>272.0</ele><time>2026-04-06T11:50:17.535Z</time></trkpt><trkpt lat="43.1766717" lon="11.3871333"><ele>272.0</ele><time>2026-04-06T11:50:18.533Z</time></trkpt><trkpt lat="43.1765733" lon="11.38737"><ele>272.0</ele><time>2026-04-06T11:50:19.53Z</time></trkpt><trkpt lat="43.1764717" lon="11.38759"><ele>272.6666666666667</ele><time>2026-04-06T11:50:20.54Z</time></trkpt><trkpt lat="43.1763617" lon="11.3877983"><ele>273.3333333333333</ele><time>2026-04-06T11:50:21.549Z</time></trkpt><trkpt lat="43.176235" lon="11.3879833"><ele>274.0</ele><time>2026-04-06T11:50:22.532Z</time></trkpt><trkpt lat="43.1760917" lon="11.3881433"><ele>274.0</ele><time>2026-04-06T11:50:23.552Z</time></trkpt><trkpt lat="43.175935" lon="11.3882783"><ele>274.0</ele><time>2026-04-06T11:50:24.54Z</time></trkpt><trkpt lat="43.175765" lon="11.388385"><ele>274.0</ele><time>2026-04-06T11:50:25.535Z</time></trkpt><trkpt lat="43.175595" lon="11.3884617"><ele>273.66666666666663</ele><time>2026-04-06T11:50:26.537Z</time></trkpt><trkpt lat="43.1754333" lon="11.3885283"><ele>273.3333333333333</ele><time>2026-04-06T11:50:27.536Z</time></trkpt><trkpt lat="43.1752783" lon="11.3885933"><ele>273.0</ele><time>2026-04-06T11:50:28.535Z</time></trkpt><trkpt lat="43.1751233" lon="11.3886617"><ele>273.0</ele><time>2026-04-06T11:50:29.539Z</time></trkpt><trkpt lat="43.1749633" lon="11.3887267"><ele>273.0</ele><time>2026-04-06T11:50:30.538Z</time></trkpt><trkpt lat="43.1747983" lon="11.3887983"><ele>273.0</ele><time>2026-04-06T11:50:31.544Z</time></trkpt><trkpt lat="43.1746317" lon="11.38887"><ele>275.0</ele><time>2026-04-06T11:50:32.535Z</time></trkpt><trkpt lat="43.1744667" lon="11.3889333"><ele>277.0</ele><time>2026-04-06T11:50:33.539Z</time></trkpt><trkpt lat="43.1743" lon="11.3890067"><ele>279.0</ele><time>2026-04-06T11:50:34.541Z</time></trkpt><trkpt lat="43.1741383" lon="11.3890983"><ele>282.0</ele><time>2026-04-06T11:50:35.539Z</time></trkpt><trkpt lat="43.173995" lon="11.389205"><ele>285.0</ele><time>2026-04-06T11:50:36.537Z</time></trkpt><trkpt lat="43.1738717" lon="11.3893233"><ele>288.0</ele><time>2026-04-06T11:50:37.533Z</time></trkpt><trkpt lat="43.173775" lon="11.3894417"><ele>291.0</ele><time>2026-04-06T11:50:38.539Z</time></trkpt><trkpt lat="43.1736967" lon="11.3895567"><ele>291.0</ele><time>2026-04-06T11:50:39.537Z</time></trkpt><trkpt lat="43.1736333" lon="11.38966"><ele>291.0</ele><time>2026-04-06T11:50:40.534Z</time></trkpt><trkpt lat="43.1735783" lon="11.3897533"><ele>291.0</ele><time>2026-04-06T11:50:41.536Z</time></trkpt><trkpt lat="43.1735233" lon="11.389845"><ele>291.0</ele><time>2026-04-06T11:50:42.532Z</time></trkpt><trkpt lat="43.173465" lon="11.3899417"><ele>291.0</ele><time>2026-04-06T11:50:43.535Z</time></trkpt><trkpt lat="43.1734017" lon="11.3900517"><ele>289.75</ele><time>2026-04-06T11:50:44.541Z</time></trkpt><trkpt lat="43.1733317" lon="11.390175"><ele>288.5</ele><time>2026-04-06T11:50:45.542Z</time></trkpt><trkpt lat="43.17325" lon="11.3903017"><ele>287.25</ele><time>2026-04-06T11:50:46.533Z</time></trkpt><trkpt lat="43.1731617" lon="11.39043"><ele>286.0</ele><time>2026-04-06T11:50:47.533Z</time></trkpt><trkpt lat="43.1730617" lon="11.39055"><ele>289.0</ele><time>2026-04-06T11:50:48.535Z</time></trkpt><trkpt lat="43.1729533" lon="11.390655"><ele>292.0</ele><time>2026-04-06T11:50:49.535Z</time></trkpt><trkpt lat="43.17283" lon="11.3907383"><ele>295.0</ele><time>2026-04-06T11:50:50.534Z</time></trkpt><trkpt lat="43.1726967" lon="11.3908117"><ele>298.0</ele><time>2026-04-06T11:50:51.537Z</time></trkpt><trkpt lat="43.17255" lon="11.3908817"><ele>298.0</ele><time>2026-04-06T11:50:52.542Z</time></trkpt><trkpt lat="43.1724033" lon="11.3909583"><ele>298.0</ele><time>2026-04-06T11:50:53.539Z</time></trkpt><trkpt lat="43.1722683" lon="11.39102"><ele>298.0</ele><time>2026-04-06T11:50:54.542Z</time></trkpt><trkpt lat="43.17215" lon="11.3910783"><ele>298.0</ele><time>2026-04-06T11:50:55.537Z</time></trkpt><trkpt lat="43.1720417" lon="11.3911317"><ele>299.75</ele><time>2026-04-06T11:50:56.537Z</time></trkpt><trkpt lat="43.171935" lon="11.3911867"><ele>301.5</ele><time>2026-04-06T11:50:57.534Z</time></trkpt><trkpt lat="43.17183" lon="11.3912383"><ele>303.25</ele><time>2026-04-06T11:50:58.537Z</time></trkpt><trkpt lat="43.171725" lon="11.391285"><ele>305.0</ele><time>2026-04-06T11:50:59.539Z</time></trkpt><trkpt lat="43.1716133" lon="11.391315"><ele>304.25</ele><time>2026-04-06T11:51:00.534Z</time></trkpt><trkpt lat="43.1714917" lon="11.39134"><ele>303.5</ele><time>2026-04-06T11:51:01.546Z</time></trkpt><trkpt lat="43.1713717" lon="11.3913483"><ele>302.75</ele><time>2026-04-06T11:51:02.548Z</time></trkpt><trkpt lat="43.171255" lon="11.391345"><ele>302.0</ele><time>2026-04-06T11:51:03.543Z</time></trkpt><trkpt lat="43.1711383" lon="11.391305"><ele>302.0</ele><time>2026-04-06T11:51:04.536Z</time></trkpt><trkpt lat="43.1710283" lon="11.39125"><ele>302.0</ele><time>2026-04-06T11:51:05.536Z</time></trkpt><trkpt lat="43.170925" lon="11.39119"><ele>302.0</ele><time>2026-04-06T11:51:06.536Z</time></trkpt><trkpt lat="43.1708283" lon="11.3911333"><ele>302.0</ele><time>2026-04-06T11:51:07.532Z</time></trkpt><trkpt lat="43.17074" lon="11.3910833"><ele>302.0</ele><time>2026-04-06T11:51:08.539Z</time></trkpt><trkpt lat="43.17066" lon="11.3910383"><ele>302.0</ele><time>2026-04-06T11:51:09.535Z</time></trkpt><trkpt lat="43.1705933" lon="11.390995"><ele>302.0</ele><time>2026-04-06T11:51:10.534Z</time></trkpt><trkpt lat="43.170505" lon="11.39094"><ele>302.0</ele><time>2026-04-06T11:51:12.533Z</time></trkpt><trkpt lat="43.1704267" lon="11.39087"><ele>302.0</ele><time>2026-04-06T11:51:15.54Z</time></trkpt><trkpt lat="43.1703767" lon="11.3907967"><ele>302.0</ele><time>2026-04-06T11:51:19.54Z</time></trkpt><trkpt lat="43.1703667" lon="11.3908933"><ele>302.0</ele><time>2026-04-06T11:58:06.542Z</time></trkpt><trkpt lat="43.1703867" lon="11.3909833"><ele>302.00000000000006</ele><time>2026-04-06T11:58:10.543Z</time></trkpt><trkpt lat="43.1703233" lon="11.390945"><ele>302.0</ele><time>2026-04-06T11:58:28.538Z</time></trkpt><trkpt lat="43.1703033" lon="11.39086"><ele>302.0</ele><time>2026-04-06T11:58:32.539Z</time></trkpt><trkpt lat="43.1703667" lon="11.390825"><ele>302.0</ele><time>2026-04-06T11:58:38.536Z</time></trkpt><trkpt lat="43.1702717" lon="11.3908283"><ele>302.0</ele><time>2026-04-06T11:58:50.534Z</time></trkpt><trkpt lat="43.17021" lon="11.3908083"><ele>302.00000000000006</ele><time>2026-04-06T11:58:53.533Z</time></trkpt><trkpt lat="43.17013" lon="11.39081"><ele>302.0</ele><time>2026-04-06T11:58:57.537Z</time></trkpt><trkpt lat="43.1700583" lon="11.3908083"><ele>302.0</ele><time>2026-04-06T11:59:00.536Z</time></trkpt><trkpt lat="43.1703049" lon="11.3910713"><ele>302.0</ele><time>2026-04-06T11:59:09.76Z</time></trkpt><trkpt lat="43.1702033" lon="11.3908817"><ele>302.0</ele><time>2026-04-06T11:59:16.539Z</time></trkpt><trkpt lat="43.170265" lon="11.3910133"><ele>302.0</ele><time>2026-04-06T11:59:19.536Z</time></trkpt></trkseg><trkseg><trkpt lat="43.1703828" lon="11.3908392"><ele>302.0</ele><time>2026-04-06T13:06:38.876Z</time></trkpt><trkpt lat="43.17029" lon="11.3907533"><ele>302.0</ele><time>2026-04-06T13:08:48.826Z</time></trkpt><trkpt lat="43.170225" lon="11.3907067"><ele>302.0</ele><time>2026-04-06T13:08:49.829Z</time></trkpt><trkpt lat="43.170155" lon="11.3906517"><ele>302.0</ele><time>2026-04-06T13:08:50.824Z</time></trkpt><trkpt lat="43.1700867" lon="11.3906033"><ele>302.0</ele><time>2026-04-06T13:08:51.836Z</time></trkpt><trkpt lat="43.1700067" lon="11.3905517"><ele>302.0</ele><time>2026-04-06T13:08:52.836Z</time></trkpt><trkpt lat="43.1699217" lon="11.390485"><ele>299.6</ele><time>2026-04-06T13:08:53.823Z</time></trkpt><trkpt lat="43.1698367" lon="11.3904133"><ele>297.2</ele><time>2026-04-06T13:08:54.823Z</time></trkpt><trkpt lat="43.1697483" lon="11.3903417"><ele>294.8</ele><time>2026-04-06T13:08:55.829Z</time></trkpt><trkpt lat="43.1696633" lon="11.3902783"><ele>292.4</ele><time>2026-04-06T13:08:56.836Z</time></trkpt><trkpt lat="43.169575" lon="11.390215"><ele>290.0</ele><time>2026-04-06T13:08:57.826Z</time></trkpt><trkpt lat="43.1694767" lon="11.390165"><ele>290.0</ele><time>2026-04-06T13:08:58.829Z</time></trkpt><trkpt lat="43.169365" lon="11.3901167"><ele>290.0</ele><time>2026-04-06T13:08:59.841Z</time></trkpt><trkpt lat="43.16925" lon="11.3900783"><ele>290.0</ele><time>2026-04-06T13:09:00.832Z</time></trkpt><trkpt lat="43.1691333" lon="11.3900417"><ele>290.0</ele><time>2026-04-06T13:09:01.831Z</time></trkpt><trkpt lat="43.1690133" lon="11.390015"><ele>287.25</ele><time>2026-04-06T13:09:02.832Z</time></trkpt><trkpt lat="43.1688917" lon="11.39"><ele>284.5</ele><time>2026-04-06T13:09:03.827Z</time></trkpt><trkpt lat="43.1687783" lon="11.38999"><ele>281.75</ele><time>2026-04-06T13:09:04.841Z</time></trkpt><trkpt lat="43.16866" lon="11.3899767"><ele>279.0</ele><time>2026-04-06T13:09:05.826Z</time></trkpt><trkpt lat="43.1685367" lon="11.389965"><ele>279.0</ele><time>2026-04-06T13:09:06.823Z</time></trkpt><trkpt lat="43.168405" lon="11.3899517"><ele>279.0</ele><time>2026-04-06T13:09:07.828Z</time></trkpt><trkpt lat="43.1682733" lon="11.389935"><ele>279.0</ele><time>2026-04-06T13:09:08.828Z</time></trkpt><trkpt lat="43.1681367" lon="11.38992"><ele>279.0</ele><time>2026-04-06T13:09:09.825Z</time></trkpt><trkpt lat="43.168" lon="11.3899133"><ele>277.75</ele><time>2026-04-06T13:09:10.824Z</time></trkpt><trkpt lat="43.1678617" lon="11.3899033"><ele>276.5</ele><time>2026-04-06T13:09:11.831Z</time></trkpt><trkpt lat="43.1677267" lon="11.3898967"><ele>275.25</ele><time>2026-04-06T13:09:12.825Z</time></trkpt><trkpt lat="43.1675917" lon="11.3898883"><ele>274.0</ele><time>2026-04-06T13:09:13.863Z</time></trkpt><trkpt lat="43.1673233" lon="11.38987"><ele>274.0</ele><time>2026-04-06T13:09:15.824Z</time></trkpt><trkpt lat="43.1671917" lon="11.389865"><ele>274.0</ele><time>2026-04-06T13:09:16.828Z</time></trkpt><trkpt lat="43.1670633" lon="11.3898683"><ele>274.0</ele><time>2026-04-06T13:09:17.839Z</time></trkpt><trkpt lat="43.1669383" lon="11.389885"><ele>274.0</ele><time>2026-04-06T13:09:18.838Z</time></trkpt><trkpt lat="43.1668183" lon="11.3899267"><ele>274.0</ele><time>2026-04-06T13:09:19.824Z</time></trkpt><trkpt lat="43.166705" lon="11.38999"><ele>274.0</ele><time>2026-04-06T13:09:20.833Z</time></trkpt><trkpt lat="43.1666033" lon="11.39007"><ele>274.0</ele><time>2026-04-06T13:09:21.828Z</time></trkpt><trkpt lat="43.1665117" lon="11.3901567"><ele>274.0</ele><time>2026-04-06T13:09:22.831Z</time></trkpt><trkpt lat="43.1664383" lon="11.3902583"><ele>274.59999999999997</ele><time>2026-04-06T13:09:23.829Z</time></trkpt><trkpt lat="43.1663767" lon="11.3903567"><ele>275.2</ele><time>2026-04-06T13:09:24.83Z</time></trkpt><trkpt lat="43.1663083" lon="11.39045"><ele>275.79999999999995</ele><time>2026-04-06T13:09:25.823Z</time></trkpt><trkpt lat="43.1662267" lon="11.39053"><ele>276.4</ele><time>2026-04-06T13:09:26.827Z</time></trkpt><trkpt lat="43.1661417" lon="11.3906083"><ele>277.0</ele><time>2026-04-06T13:09:27.826Z</time></trkpt><trkpt lat="43.1660483" lon="11.39068"><ele>276.25</ele><time>2026-04-06T13:09:28.826Z</time></trkpt><trkpt lat="43.1659483" lon="11.39074"><ele>275.5</ele><time>2026-04-06T13:09:29.836Z</time></trkpt><trkpt lat="43.16584" lon="11.3907933"><ele>274.75</ele><time>2026-04-06T13:09:30.831Z</time></trkpt><trkpt lat="43.1657283" lon="11.3908433"><ele>274.0</ele><time>2026-04-06T13:09:31.828Z</time></trkpt><trkpt lat="43.1656067" lon="11.3908867"><ele>274.0</ele><time>2026-04-06T13:09:32.828Z</time></trkpt><trkpt lat="43.1654817" lon="11.390925"><ele>274.0</ele><time>2026-04-06T13:09:33.825Z</time></trkpt><trkpt lat="43.165355" lon="11.3909583"><ele>274.0</ele><time>2026-04-06T13:09:34.835Z</time></trkpt><trkpt lat="43.1652283" lon="11.39099"><ele>274.0</ele><time>2026-04-06T13:09:35.83Z</time></trkpt><trkpt lat="43.1650983" lon="11.39103"><ele>274.0</ele><time>2026-04-06T13:09:36.829Z</time></trkpt><trkpt lat="43.1649683" lon="11.3910633"><ele>274.0</ele><time>2026-04-06T13:09:37.831Z</time></trkpt><trkpt lat="43.1648433" lon="11.3910933"><ele>274.0</ele><time>2026-04-06T13:09:38.826Z</time></trkpt><trkpt lat="43.1647233" lon="11.391125"><ele>274.0</ele><time>2026-04-06T13:09:39.833Z</time></trkpt><trkpt lat="43.1646" lon="11.3911567"><ele>274.25</ele><time>2026-04-06T13:09:40.826Z</time></trkpt><trkpt lat="43.16447" lon="11.39119"><ele>274.5</ele><time>2026-04-06T13:09:41.825Z</time></trkpt><trkpt lat="43.1643333" lon="11.3912217"><ele>274.75</ele><time>2026-04-06T13:09:42.833Z</time></trkpt><trkpt lat="43.1641917" lon="11.3912567"><ele>275.0</ele><time>2026-04-06T13:09:43.826Z</time></trkpt><trkpt lat="43.164045" lon="11.391295"><ele>275.5</ele><time>2026-04-06T13:09:44.825Z</time></trkpt><trkpt lat="43.1639" lon="11.3913333"><ele>276.0</ele><time>2026-04-06T13:09:45.825Z</time></trkpt><trkpt lat="43.1637533" lon="11.39137"><ele>276.5</ele><time>2026-04-06T13:09:46.828Z</time></trkpt><trkpt lat="43.163615" lon="11.391405"><ele>277.0</ele><time>2026-04-06T13:09:47.837Z</time></trkpt><trkpt lat="43.1634867" lon="11.3914383"><ele>277.0</ele><time>2026-04-06T13:09:48.826Z</time></trkpt><trkpt lat="43.1633733" lon="11.39147"><ele>277.0</ele><time>2026-04-06T13:09:49.83Z</time></trkpt><trkpt lat="43.1632783" lon="11.39149"><ele>277.0</ele><time>2026-04-06T13:09:50.831Z</time></trkpt><trkpt lat="43.1631983" lon="11.3915017"><ele>277.0</ele><time>2026-04-06T13:09:51.827Z</time></trkpt><trkpt lat="43.16313" lon="11.3915067"><ele>277.0</ele><time>2026-04-06T13:09:52.824Z</time></trkpt><trkpt lat="43.163065" lon="11.3915133"><ele>277.0</ele><time>2026-04-06T13:09:53.829Z</time></trkpt><trkpt lat="43.1629817" lon="11.3915167"><ele>278.0</ele><time>2026-04-06T13:09:55.828Z</time></trkpt><trkpt lat="43.16287" lon="11.3915567"><ele>279.0</ele><time>2026-04-06T13:10:34.826Z</time></trkpt><trkpt lat="43.1627883" lon="11.3915717"><ele>280.0</ele><time>2026-04-06T13:10:35.826Z</time></trkpt><trkpt lat="43.1627033" lon="11.3915833"><ele>281.0</ele><time>2026-04-06T13:10:36.825Z</time></trkpt><trkpt lat="43.1626133" lon="11.3915917"><ele>282.0</ele><time>2026-04-06T13:10:37.831Z</time></trkpt><trkpt lat="43.1625167" lon="11.391605"><ele>282.0</ele><time>2026-04-06T13:10:38.827Z</time></trkpt><trkpt lat="43.1624217" lon="11.3916183"><ele>282.0</ele><time>2026-04-06T13:10:39.826Z</time></trkpt><trkpt lat="43.1623283" lon="11.39163"><ele>282.0</ele><time>2026-04-06T13:10:40.827Z</time></trkpt><trkpt lat="43.1622317" lon="11.3916467"><ele>282.0</ele><time>2026-04-06T13:10:41.823Z</time></trkpt><trkpt lat="43.1621317" lon="11.3916667"><ele>282.0</ele><time>2026-04-06T13:10:42.825Z</time></trkpt><trkpt lat="43.1620333" lon="11.3916917"><ele>282.8</ele><time>2026-04-06T13:10:43.83Z</time></trkpt><trkpt lat="43.161945" lon="11.391735"><ele>283.6</ele><time>2026-04-06T13:10:44.827Z</time></trkpt><trkpt lat="43.1618617" lon="11.3918017"><ele>284.40000000000003</ele><time>2026-04-06T13:10:45.826Z</time></trkpt><trkpt lat="43.1617883" lon="11.3918933"><ele>285.2</ele><time>2026-04-06T13:10:46.824Z</time></trkpt><trkpt lat="43.1617283" lon="11.39202"><ele>286.0</ele><time>2026-04-06T13:10:47.829Z</time></trkpt><trkpt lat="43.16168" lon="11.3921533"><ele>285.0</ele><time>2026-04-06T13:10:48.832Z</time></trkpt><trkpt lat="43.1616367" lon="11.392295"><ele>284.0</ele><time>2026-04-06T13:10:49.828Z</time></trkpt><trkpt lat="43.161595" lon="11.3924467"><ele>283.0</ele><time>2026-04-06T13:10:50.844Z</time></trkpt><trkpt lat="43.1615467" lon="11.3926033"><ele>282.0</ele><time>2026-04-06T13:10:51.824Z</time></trkpt><trkpt lat="43.1614767" lon="11.3927533"><ele>281.25</ele><time>2026-04-06T13:10:52.823Z</time></trkpt><trkpt lat="43.16139" lon="11.39288"><ele>280.5</ele><time>2026-04-06T13:10:53.828Z</time></trkpt><trkpt lat="43.161285" lon="11.3929867"><ele>279.75</ele><time>2026-04-06T13:10:54.832Z</time></trkpt><trkpt lat="43.16117" lon="11.3930667"><ele>279.0</ele><time>2026-04-06T13:10:55.827Z</time></trkpt><trkpt lat="43.1610517" lon="11.393135"><ele>279.0</ele><time>2026-04-06T13:10:56.825Z</time></trkpt><trkpt lat="43.1609267" lon="11.3931983"><ele>279.0</ele><time>2026-04-06T13:10:57.83Z</time></trkpt><trkpt lat="43.1608" lon="11.3932633"><ele>279.0</ele><time>2026-04-06T13:10:58.826Z</time></trkpt><trkpt lat="43.160675" lon="11.39332"><ele>279.0</ele><time>2026-04-06T13:10:59.825Z</time></trkpt><trkpt lat="43.16055" lon="11.3933717"><ele>278.5</ele><time>2026-04-06T13:11:00.825Z</time></trkpt><trkpt lat="43.16042" lon="11.3934267"><ele>278.0</ele><time>2026-04-06T13:11:01.828Z</time></trkpt><trkpt lat="43.1602917" lon="11.3934817"><ele>277.5</ele><time>2026-04-06T13:11:02.83Z</time></trkpt><trkpt lat="43.1601617" lon="11.3935383"><ele>277.0</ele><time>2026-04-06T13:11:03.828Z</time></trkpt><trkpt lat="43.1600283" lon="11.3936033"><ele>277.0</ele><time>2026-04-06T13:11:04.824Z</time></trkpt><trkpt lat="43.159895" lon="11.3936717"><ele>277.0</ele><time>2026-04-06T13:11:05.827Z</time></trkpt><trkpt lat="43.1597617" lon="11.3937533"><ele>277.0</ele><time>2026-04-06T13:11:06.826Z</time></trkpt><trkpt lat="43.15963" lon="11.3938433"><ele>277.0</ele><time>2026-04-06T13:11:07.824Z</time></trkpt><trkpt lat="43.1595033" lon="11.3939467"><ele>276.75</ele><time>2026-04-06T13:11:08.83Z</time></trkpt><trkpt lat="43.1593817" lon="11.3940617"><ele>276.5</ele><time>2026-04-06T13:11:09.831Z</time></trkpt><trkpt lat="43.15927" lon="11.3941867"><ele>276.25</ele><time>2026-04-06T13:11:10.826Z</time></trkpt><trkpt lat="43.1591583" lon="11.3943217"><ele>276.0</ele><time>2026-04-06T13:11:11.826Z</time></trkpt><trkpt lat="43.159055" lon="11.3944667"><ele>276.75</ele><time>2026-04-06T13:11:12.828Z</time></trkpt><trkpt lat="43.15896" lon="11.3946233"><ele>277.5</ele><time>2026-04-06T13:11:13.831Z</time></trkpt><trkpt lat="43.158875" lon="11.39479"><ele>278.25</ele><time>2026-04-06T13:11:14.826Z</time></trkpt><trkpt lat="43.1588" lon="11.3949717"><ele>279.0</ele><time>2026-04-06T13:11:15.826Z</time></trkpt><trkpt lat="43.158745" lon="11.3951567"><ele>279.0</ele><time>2026-04-06T13:11:16.823Z</time></trkpt><trkpt lat="43.158705" lon="11.3953567"><ele>279.0</ele><time>2026-04-06T13:11:17.833Z</time></trkpt><trkpt lat="43.1586783" lon="11.3955617"><ele>279.0</ele><time>2026-04-06T13:11:18.835Z</time></trkpt><trkpt lat="43.1586633" lon="11.3957717"><ele>279.0</ele><time>2026-04-06T13:11:19.827Z</time></trkpt><trkpt lat="43.1586567" lon="11.395985"><ele>279.0</ele><time>2026-04-06T13:11:20.826Z</time></trkpt><trkpt lat="43.1586533" lon="11.3961983"><ele>279.0</ele><time>2026-04-06T13:11:21.833Z</time></trkpt><trkpt lat="43.1586517" lon="11.39641"><ele>279.3333333333333</ele><time>2026-04-06T13:11:22.832Z</time></trkpt><trkpt lat="43.158655" lon="11.3966217"><ele>279.66666666666663</ele><time>2026-04-06T13:11:23.83Z</time></trkpt><trkpt lat="43.1586533" lon="11.396835"><ele>280.0</ele><time>2026-04-06T13:11:24.834Z</time></trkpt><trkpt lat="43.1586517" lon="11.3970483"><ele>280.0</ele><time>2026-04-06T13:11:25.838Z</time></trkpt><trkpt lat="43.1586483" lon="11.3972633"><ele>280.0</ele><time>2026-04-06T13:11:26.827Z</time></trkpt><trkpt lat="43.1586533" lon="11.39748"><ele>280.0</ele><time>2026-04-06T13:11:27.832Z</time></trkpt><trkpt lat="43.15867" lon="11.3976917"><ele>280.0</ele><time>2026-04-06T13:11:28.825Z</time></trkpt><trkpt lat="43.158695" lon="11.3978983"><ele>280.0</ele><time>2026-04-06T13:11:29.842Z</time></trkpt><trkpt lat="43.1587267" lon="11.398105"><ele>280.0</ele><time>2026-04-06T13:11:30.827Z</time></trkpt><trkpt lat="43.158765" lon="11.3983117"><ele>280.66666666666663</ele><time>2026-04-06T13:11:31.839Z</time></trkpt><trkpt lat="43.1588117" lon="11.398515"><ele>281.3333333333333</ele><time>2026-04-06T13:11:32.828Z</time></trkpt><trkpt lat="43.15885" lon="11.3987167"><ele>282.0</ele><time>2026-04-06T13:11:33.829Z</time></trkpt><trkpt lat="43.1588833" lon="11.3989167"><ele>282.5</ele><time>2026-04-06T13:11:34.826Z</time></trkpt><trkpt lat="43.1588933" lon="11.3991067"><ele>283.0</ele><time>2026-04-06T13:11:35.824Z</time></trkpt><trkpt lat="43.1588817" lon="11.3992783"><ele>283.5</ele><time>2026-04-06T13:11:36.831Z</time></trkpt><trkpt lat="43.1588467" lon="11.39943"><ele>284.0</ele><time>2026-04-06T13:11:37.83Z</time></trkpt><trkpt lat="43.1587733" lon="11.39955"><ele>284.0</ele><time>2026-04-06T13:11:38.828Z</time></trkpt><trkpt lat="43.1586867" lon="11.3996267"><ele>284.0</ele><time>2026-04-06T13:11:39.823Z</time></trkpt><trkpt lat="43.158575" lon="11.3996533"><ele>284.0</ele><time>2026-04-06T13:11:40.828Z</time></trkpt><trkpt lat="43.1584583" lon="11.39965"><ele>284.0</ele><time>2026-04-06T13:11:41.827Z</time></trkpt><trkpt lat="43.1583333" lon="11.3996383"><ele>284.0</ele><time>2026-04-06T13:11:42.828Z</time></trkpt><trkpt lat="43.15821" lon="11.3996317"><ele>284.0</ele><time>2026-04-06T13:11:43.83Z</time></trkpt><trkpt lat="43.1580833" lon="11.3996567"><ele>284.0</ele><time>2026-04-06T13:11:44.832Z</time></trkpt><trkpt lat="43.1579567" lon="11.3997083"><ele>284.0</ele><time>2026-04-06T13:11:45.824Z</time></trkpt><trkpt lat="43.157835" lon="11.3997883"><ele>285.5</ele><time>2026-04-06T13:11:46.835Z</time></trkpt><trkpt lat="43.1577183" lon="11.3998867"><ele>287.0</ele><time>2026-04-06T13:11:47.831Z</time></trkpt><trkpt lat="43.1576" lon="11.399995"><ele>288.5</ele><time>2026-04-06T13:11:48.826Z</time></trkpt><trkpt lat="43.1574767" lon="11.4000883"><ele>290.0</ele><time>2026-04-06T13:11:49.824Z</time></trkpt><trkpt lat="43.1573483" lon="11.400155"><ele>291.0</ele><time>2026-04-06T13:11:50.825Z</time></trkpt><trkpt lat="43.1572217" lon="11.4001867"><ele>292.0</ele><time>2026-04-06T13:11:51.831Z</time></trkpt><trkpt lat="43.15709" lon="11.40018"><ele>293.0</ele><time>2026-04-06T13:11:52.828Z</time></trkpt><trkpt lat="43.1569567" lon="11.4001417"><ele>294.0</ele><time>2026-04-06T13:11:53.827Z</time></trkpt><trkpt lat="43.1568217" lon="11.4000917"><ele>294.0</ele><time>2026-04-06T13:11:54.826Z</time></trkpt><trkpt lat="43.1566833" lon="11.4000417"><ele>294.0</ele><time>2026-04-06T13:11:55.825Z</time></trkpt><trkpt lat="43.1565533" lon="11.40001"><ele>294.0</ele><time>2026-04-06T13:11:56.841Z</time></trkpt><trkpt lat="43.1564417" lon="11.4000217"><ele>294.0</ele><time>2026-04-06T13:11:57.829Z</time></trkpt><trkpt lat="43.1563533" lon="11.4000667"><ele>296.59999999999997</ele><time>2026-04-06T13:11:58.826Z</time></trkpt><trkpt lat="43.15628" lon="11.4001417"><ele>299.2</ele><time>2026-04-06T13:11:59.824Z</time></trkpt><trkpt lat="43.156245" lon="11.4002617"><ele>301.79999999999995</ele><time>2026-04-06T13:12:00.833Z</time></trkpt><trkpt lat="43.1562517" lon="11.400415"><ele>304.4</ele><time>2026-04-06T13:12:01.832Z</time></trkpt><trkpt lat="43.156305" lon="11.4005867"><ele>307.0</ele><time>2026-04-06T13:12:02.829Z</time></trkpt><trkpt lat="43.1563933" lon="11.40076"><ele>307.25</ele><time>2026-04-06T13:12:03.845Z</time></trkpt><trkpt lat="43.1564733" lon="11.4009283"><ele>307.5</ele><time>2026-04-06T13:12:04.827Z</time></trkpt><trkpt lat="43.1565467" lon="11.4011017"><ele>307.75</ele><time>2026-04-06T13:12:05.831Z</time></trkpt><trkpt lat="43.1566217" lon="11.4012667"><ele>308.0</ele><time>2026-04-06T13:12:06.832Z</time></trkpt><trkpt lat="43.156675" lon="11.4014333"><ele>302.25</ele><time>2026-04-06T13:12:07.824Z</time></trkpt><trkpt lat="43.156705" lon="11.4016"><ele>296.5</ele><time>2026-04-06T13:12:08.826Z</time></trkpt><trkpt lat="43.1567033" lon="11.4017783"><ele>290.75</ele><time>2026-04-06T13:12:09.826Z</time></trkpt><trkpt lat="43.156675" lon="11.4019683"><ele>285.0</ele><time>2026-04-06T13:12:10.828Z</time></trkpt><trkpt lat="43.1566367" lon="11.402165"><ele>284.3333333333333</ele><time>2026-04-06T13:12:11.833Z</time></trkpt><trkpt lat="43.1566017" lon="11.4023667"><ele>283.66666666666663</ele><time>2026-04-06T13:12:12.827Z</time></trkpt><trkpt lat="43.1565683" lon="11.402575"><ele>283.0</ele><time>2026-04-06T13:12:13.823Z</time></trkpt><trkpt lat="43.1565383" lon="11.40278"><ele>288.0</ele><time>2026-04-06T13:12:14.825Z</time></trkpt><trkpt lat="43.156515" lon="11.4029867"><ele>293.0</ele><time>2026-04-06T13:12:15.834Z</time></trkpt><trkpt lat="43.15649" lon="11.403195"><ele>298.0</ele><time>2026-04-06T13:12:16.827Z</time></trkpt><trkpt lat="43.1564667" lon="11.4034033"><ele>298.0</ele><time>2026-04-06T13:12:17.824Z</time></trkpt><trkpt lat="43.1564483" lon="11.4036067"><ele>298.0</ele><time>2026-04-06T13:12:18.824Z</time></trkpt><trkpt lat="43.1564283" lon="11.4038033"><ele>298.0</ele><time>2026-04-06T13:12:19.835Z</time></trkpt><trkpt lat="43.1564117" lon="11.403985"><ele>298.0</ele><time>2026-04-06T13:12:20.827Z</time></trkpt><trkpt lat="43.1563817" lon="11.4041533"><ele>296.5</ele><time>2026-04-06T13:12:21.823Z</time></trkpt><trkpt lat="43.15633" lon="11.4043"><ele>295.0</ele><time>2026-04-06T13:12:22.828Z</time></trkpt><trkpt lat="43.1562533" lon="11.404435"><ele>293.5</ele><time>2026-04-06T13:12:23.831Z</time></trkpt><trkpt lat="43.1561633" lon="11.40456"><ele>292.0</ele><time>2026-04-06T13:12:24.825Z</time></trkpt><trkpt lat="43.1560617" lon="11.4046767"><ele>290.25</ele><time>2026-04-06T13:12:25.823Z</time></trkpt><trkpt lat="43.1559467" lon="11.40477"><ele>288.5</ele><time>2026-04-06T13:12:26.833Z</time></trkpt><trkpt lat="43.15582" lon="11.40484"><ele>286.75</ele><time>2026-04-06T13:12:27.823Z</time></trkpt><trkpt lat="43.1556867" lon="11.4048867"><ele>285.0</ele><time>2026-04-06T13:12:28.824Z</time></trkpt><trkpt lat="43.15555" lon="11.4049067"><ele>285.0</ele><time>2026-04-06T13:12:29.827Z</time></trkpt><trkpt lat="43.15541" lon="11.404925"><ele>285.0</ele><time>2026-04-06T13:12:30.826Z</time></trkpt><trkpt lat="43.1552717" lon="11.4049633"><ele>285.0</ele><time>2026-04-06T13:12:31.826Z</time></trkpt><trkpt lat="43.1551367" lon="11.4050133"><ele>285.0</ele><time>2026-04-06T13:12:32.829Z</time></trkpt><trkpt lat="43.155" lon="11.405065"><ele>287.25</ele><time>2026-04-06T13:12:33.823Z</time></trkpt><trkpt lat="43.1548617" lon="11.405125"><ele>289.5</ele><time>2026-04-06T13:12:34.828Z</time></trkpt><trkpt lat="43.15472" lon="11.4051833"><ele>291.75</ele><time>2026-04-06T13:12:35.829Z</time></trkpt><trkpt lat="43.1545867" lon="11.405245"><ele>294.0</ele><time>2026-04-06T13:12:36.829Z</time></trkpt><trkpt lat="43.15446" lon="11.405325"><ele>294.0</ele><time>2026-04-06T13:12:37.824Z</time></trkpt><trkpt lat="43.1543367" lon="11.4054217"><ele>294.0</ele><time>2026-04-06T13:12:38.824Z</time></trkpt><trkpt lat="43.1542233" lon="11.4055133"><ele>294.0</ele><time>2026-04-06T13:12:39.828Z</time></trkpt><trkpt lat="43.1541033" lon="11.40559"><ele>294.0</ele><time>2026-04-06T13:12:40.847Z</time></trkpt><trkpt lat="43.153975" lon="11.4056517"><ele>292.0</ele><time>2026-04-06T13:12:41.84Z</time></trkpt><trkpt lat="43.1538367" lon="11.40569"><ele>290.0</ele><time>2026-04-06T13:12:42.824Z</time></trkpt><trkpt lat="43.1536967" lon="11.405705"><ele>288.0</ele><time>2026-04-06T13:12:43.827Z</time></trkpt><trkpt lat="43.1535567" lon="11.40572"><ele>286.0</ele><time>2026-04-06T13:12:44.824Z</time></trkpt><trkpt lat="43.15342" lon="11.4057567"><ele>286.0</ele><time>2026-04-06T13:12:45.828Z</time></trkpt><trkpt lat="43.1532867" lon="11.4058183"><ele>286.0</ele><time>2026-04-06T13:12:46.831Z</time></trkpt><trkpt lat="43.1531533" lon="11.4059133"><ele>286.0</ele><time>2026-04-06T13:12:47.825Z</time></trkpt><trkpt lat="43.15303" lon="11.4060233"><ele>286.0</ele><time>2026-04-06T13:12:48.826Z</time></trkpt><trkpt lat="43.1529083" lon="11.406145"><ele>285.25</ele><time>2026-04-06T13:12:49.829Z</time></trkpt><trkpt lat="43.1527817" lon="11.4062583"><ele>284.5</ele><time>2026-04-06T13:12:50.834Z</time></trkpt><trkpt lat="43.1526517" lon="11.4063617"><ele>283.75</ele><time>2026-04-06T13:12:51.825Z</time></trkpt><trkpt lat="43.1525233" lon="11.406455"><ele>283.0</ele><time>2026-04-06T13:12:52.824Z</time></trkpt><trkpt lat="43.1523883" lon="11.40653"><ele>283.0</ele><time>2026-04-06T13:12:53.823Z</time></trkpt><trkpt lat="43.15225" lon="11.4065783"><ele>283.0</ele><time>2026-04-06T13:12:54.831Z</time></trkpt><trkpt lat="43.1521017" lon="11.4066083"><ele>283.0</ele><time>2026-04-06T13:12:55.826Z</time></trkpt><trkpt lat="43.1519517" lon="11.4066283"><ele>283.0</ele><time>2026-04-06T13:12:56.826Z</time></trkpt><trkpt lat="43.1517983" lon="11.4066383"><ele>283.0</ele><time>2026-04-06T13:12:57.823Z</time></trkpt><trkpt lat="43.1516417" lon="11.4066517"><ele>283.0</ele><time>2026-04-06T13:12:58.827Z</time></trkpt><trkpt lat="43.151485" lon="11.4066767"><ele>283.0</ele><time>2026-04-06T13:12:59.827Z</time></trkpt><trkpt lat="43.15133" lon="11.406715"><ele>284.0</ele><time>2026-04-06T13:13:00.826Z</time></trkpt><trkpt lat="43.1511767" lon="11.406765"><ele>285.0</ele><time>2026-04-06T13:13:01.825Z</time></trkpt><trkpt lat="43.1510233" lon="11.4068067"><ele>286.0</ele><time>2026-04-06T13:13:02.825Z</time></trkpt><trkpt lat="43.1508667" lon="11.4068267"><ele>286.0</ele><time>2026-04-06T13:13:03.827Z</time></trkpt><trkpt lat="43.15071" lon="11.4068217"><ele>286.0</ele><time>2026-04-06T13:13:04.831Z</time></trkpt><trkpt lat="43.1505583" lon="11.4068017"><ele>286.0</ele><time>2026-04-06T13:13:05.827Z</time></trkpt><trkpt lat="43.1504167" lon="11.4067667"><ele>284.75</ele><time>2026-04-06T13:13:06.825Z</time></trkpt><trkpt lat="43.1502833" lon="11.4067167"><ele>283.5</ele><time>2026-04-06T13:13:07.824Z</time></trkpt><trkpt lat="43.1501617" lon="11.4066333"><ele>282.25</ele><time>2026-04-06T13:13:08.825Z</time></trkpt><trkpt lat="43.1500567" lon="11.4065233"><ele>281.0</ele><time>2026-04-06T13:13:09.831Z</time></trkpt><trkpt lat="43.1499633" lon="11.4064067"><ele>284.5</ele><time>2026-04-06T13:13:10.827Z</time></trkpt><trkpt lat="43.1498667" lon="11.4063133"><ele>288.0</ele><time>2026-04-06T13:13:11.824Z</time></trkpt><trkpt lat="43.1497617" lon="11.40625"><ele>291.5</ele><time>2026-04-06T13:13:12.824Z</time></trkpt><trkpt lat="43.14965" lon="11.40623"><ele>295.0</ele><time>2026-04-06T13:13:13.833Z</time></trkpt><trkpt lat="43.1495367" lon="11.4062583"><ele>292.5</ele><time>2026-04-06T13:13:14.828Z</time></trkpt><trkpt lat="43.1494267" lon="11.4063383"><ele>290.0</ele><time>2026-04-06T13:13:15.831Z</time></trkpt><trkpt lat="43.1493333" lon="11.40645"><ele>287.5</ele><time>2026-04-06T13:13:16.827Z</time></trkpt><trkpt lat="43.1492417" lon="11.4065683"><ele>285.0</ele><time>2026-04-06T13:13:17.827Z</time></trkpt><trkpt lat="43.1491417" lon="11.406655"><ele>286.0</ele><time>2026-04-06T13:13:18.828Z</time></trkpt><trkpt lat="43.14903" lon="11.4067117"><ele>287.0</ele><time>2026-04-06T13:13:19.826Z</time></trkpt><trkpt lat="43.1489033" lon="11.406745"><ele>288.0</ele><time>2026-04-06T13:13:20.826Z</time></trkpt><trkpt lat="43.148775" lon="11.40678"><ele>289.0</ele><time>2026-04-06T13:13:21.826Z</time></trkpt><trkpt lat="43.148655" lon="11.4068217"><ele>289.0</ele><time>2026-04-06T13:13:22.83Z</time></trkpt><trkpt lat="43.148535" lon="11.4068933"><ele>289.0</ele><time>2026-04-06T13:13:23.836Z</time></trkpt><trkpt lat="43.1484183" lon="11.4069933"><ele>289.0</ele><time>2026-04-06T13:13:24.83Z</time></trkpt><trkpt lat="43.1483133" lon="11.407135"><ele>289.0</ele><time>2026-04-06T13:13:25.824Z</time></trkpt><trkpt lat="43.14823" lon="11.4072983"><ele>289.75</ele><time>2026-04-06T13:13:26.823Z</time></trkpt><trkpt lat="43.14816" lon="11.407465"><ele>290.5</ele><time>2026-04-06T13:13:27.83Z</time></trkpt><trkpt lat="43.148085" lon="11.4076317"><ele>291.25</ele><time>2026-04-06T13:13:28.827Z</time></trkpt><trkpt lat="43.148015" lon="11.407805"><ele>292.0</ele><time>2026-04-06T13:13:29.827Z</time></trkpt><trkpt lat="43.147955" lon="11.4079933"><ele>290.0</ele><time>2026-04-06T13:13:30.827Z</time></trkpt><trkpt lat="43.1479083" lon="11.4081967"><ele>288.0</ele><time>2026-04-06T13:13:31.826Z</time></trkpt><trkpt lat="43.147875" lon="11.4084133"><ele>286.0</ele><time>2026-04-06T13:13:32.837Z</time></trkpt><trkpt lat="43.1478567" lon="11.408635"><ele>284.0</ele><time>2026-04-06T13:13:33.823Z</time></trkpt><trkpt lat="43.1478367" lon="11.4088567"><ele>282.0</ele><time>2026-04-06T13:13:34.829Z</time></trkpt><trkpt lat="43.147815" lon="11.409075"><ele>280.0</ele><time>2026-04-06T13:13:35.829Z</time></trkpt><trkpt lat="43.147785" lon="11.4092917"><ele>280.0</ele><time>2026-04-06T13:13:36.824Z</time></trkpt><trkpt lat="43.147755" lon="11.409505"><ele>280.0</ele><time>2026-04-06T13:13:37.823Z</time></trkpt><trkpt lat="43.147725" lon="11.4097083"><ele>280.0</ele><time>2026-04-06T13:13:38.828Z</time></trkpt><trkpt lat="43.14769" lon="11.4099033"><ele>278.25</ele><time>2026-04-06T13:13:39.827Z</time></trkpt><trkpt lat="43.1476417" lon="11.4100883"><ele>276.5</ele><time>2026-04-06T13:13:40.826Z</time></trkpt><trkpt lat="43.147575" lon="11.4102533"><ele>274.75</ele><time>2026-04-06T13:13:41.83Z</time></trkpt><trkpt lat="43.1474783" lon="11.4104"><ele>273.0</ele><time>2026-04-06T13:13:42.833Z</time></trkpt><trkpt lat="43.1473667" lon="11.4105283"><ele>271.25</ele><time>2026-04-06T13:13:43.831Z</time></trkpt><trkpt lat="43.1472417" lon="11.4106317"><ele>269.5</ele><time>2026-04-06T13:13:44.825Z</time></trkpt><trkpt lat="43.1471067" lon="11.41072"><ele>267.75</ele><time>2026-04-06T13:13:45.826Z</time></trkpt><trkpt lat="43.1469667" lon="11.4108067"><ele>266.0</ele><time>2026-04-06T13:13:46.823Z</time></trkpt><trkpt lat="43.1468333" lon="11.4109117"><ele>266.0</ele><time>2026-04-06T13:13:47.824Z</time></trkpt><trkpt lat="43.14671" lon="11.41104"><ele>266.0</ele><time>2026-04-06T13:13:48.826Z</time></trkpt><trkpt lat="43.1465967" lon="11.41119"><ele>266.0</ele><time>2026-04-06T13:13:49.825Z</time></trkpt><trkpt lat="43.1464917" lon="11.4113533"><ele>264.33333333333337</ele><time>2026-04-06T13:13:50.831Z</time></trkpt><trkpt lat="43.14639" lon="11.41152"><ele>262.6666666666667</ele><time>2026-04-06T13:13:51.823Z</time></trkpt><trkpt lat="43.14629" lon="11.4116833"><ele>261.0</ele><time>2026-04-06T13:13:52.833Z</time></trkpt><trkpt lat="43.1461967" lon="11.411845"><ele>261.0</ele><time>2026-04-06T13:13:53.824Z</time></trkpt><trkpt lat="43.1461117" lon="11.4120083"><ele>261.0</ele><time>2026-04-06T13:13:54.829Z</time></trkpt><trkpt lat="43.1460333" lon="11.4121783"><ele>261.0</ele><time>2026-04-06T13:13:55.824Z</time></trkpt><trkpt lat="43.1459683" lon="11.41236"><ele>261.0</ele><time>2026-04-06T13:13:56.824Z</time></trkpt><trkpt lat="43.1459183" lon="11.412555"><ele>258.3333333333333</ele><time>2026-04-06T13:13:57.823Z</time></trkpt><trkpt lat="43.1458717" lon="11.4127567"><ele>255.66666666666666</ele><time>2026-04-06T13:13:58.827Z</time></trkpt><trkpt lat="43.145825" lon="11.4129567"><ele>253.0</ele><time>2026-04-06T13:13:59.824Z</time></trkpt><trkpt lat="43.14577" lon="11.4131483"><ele>250.66666666666666</ele><time>2026-04-06T13:14:00.827Z</time></trkpt><trkpt lat="43.1457" lon="11.4133283"><ele>248.33333333333331</ele><time>2026-04-06T13:14:01.826Z</time></trkpt><trkpt lat="43.1456083" lon="11.4135"><ele>246.0</ele><time>2026-04-06T13:14:02.824Z</time></trkpt><trkpt lat="43.1455033" lon="11.413655"><ele>246.0</ele><time>2026-04-06T13:14:03.823Z</time></trkpt><trkpt lat="43.1454033" lon="11.4138033"><ele>246.0</ele><time>2026-04-06T13:14:04.83Z</time></trkpt><trkpt lat="43.1453183" lon="11.4139467"><ele>246.0</ele><time>2026-04-06T13:14:05.825Z</time></trkpt><trkpt lat="43.1452533" lon="11.4140917"><ele>246.0</ele><time>2026-04-06T13:14:06.823Z</time></trkpt><trkpt lat="43.1452083" lon="11.414255"><ele>245.0</ele><time>2026-04-06T13:14:07.836Z</time></trkpt><trkpt lat="43.1451883" lon="11.414435"><ele>244.0</ele><time>2026-04-06T13:14:08.827Z</time></trkpt><trkpt lat="43.1452017" lon="11.4146217"><ele>243.0</ele><time>2026-04-06T13:14:09.827Z</time></trkpt><trkpt lat="43.1452533" lon="11.4147983"><ele>242.0</ele><time>2026-04-06T13:14:10.825Z</time></trkpt><trkpt lat="43.1453467" lon="11.4149617"><ele>240.0</ele><time>2026-04-06T13:14:11.825Z</time></trkpt><trkpt lat="43.14545" lon="11.415115"><ele>238.0</ele><time>2026-04-06T13:14:12.825Z</time></trkpt><trkpt lat="43.1455583" lon="11.4152633"><ele>236.0</ele><time>2026-04-06T13:14:13.832Z</time></trkpt><trkpt lat="43.145645" lon="11.4154217"><ele>236.75</ele><time>2026-04-06T13:14:14.827Z</time></trkpt><trkpt lat="43.1457067" lon="11.4155917"><ele>237.5</ele><time>2026-04-06T13:14:15.833Z</time></trkpt><trkpt lat="43.1457433" lon="11.4157783"><ele>238.25</ele><time>2026-04-06T13:14:16.823Z</time></trkpt><trkpt lat="43.145755" lon="11.4159767"><ele>239.0</ele><time>2026-04-06T13:14:17.824Z</time></trkpt><trkpt lat="43.14575" lon="11.4161783"><ele>238.0</ele><time>2026-04-06T13:14:18.835Z</time></trkpt><trkpt lat="43.1457333" lon="11.4163867"><ele>237.0</ele><time>2026-04-06T13:14:19.828Z</time></trkpt><trkpt lat="43.1457167" lon="11.416595"><ele>236.0</ele><time>2026-04-06T13:14:20.824Z</time></trkpt><trkpt lat="43.1456967" lon="11.4168033"><ele>231.33333333333334</ele><time>2026-04-06T13:14:21.824Z</time></trkpt><trkpt lat="43.145665" lon="11.4170117"><ele>226.66666666666669</ele><time>2026-04-06T13:14:22.831Z</time></trkpt><trkpt lat="43.1456217" lon="11.417215"><ele>222.0</ele><time>2026-04-06T13:14:23.829Z</time></trkpt><trkpt lat="43.14557" lon="11.4174117"><ele>220.75</ele><time>2026-04-06T13:14:24.829Z</time></trkpt><trkpt lat="43.1455133" lon="11.4176017"><ele>219.5</ele><time>2026-04-06T13:14:25.823Z</time></trkpt><trkpt lat="43.1454583" lon="11.4177867"><ele>218.25</ele><time>2026-04-06T13:14:26.829Z</time></trkpt><trkpt lat="43.1454083" lon="11.4179733"><ele>217.0</ele><time>2026-04-06T13:14:27.828Z</time></trkpt><trkpt lat="43.14537" lon="11.4181683"><ele>216.25</ele><time>2026-04-06T13:14:28.831Z</time></trkpt><trkpt lat="43.1453467" lon="11.4183667"><ele>215.5</ele><time>2026-04-06T13:14:29.824Z</time></trkpt><trkpt lat="43.1453333" lon="11.4185567"><ele>214.75</ele><time>2026-04-06T13:14:30.825Z</time></trkpt><trkpt lat="43.145325" lon="11.41874"><ele>214.0</ele><time>2026-04-06T13:14:31.825Z</time></trkpt><trkpt lat="43.145315" lon="11.418925"><ele>213.75</ele><time>2026-04-06T13:14:32.828Z</time></trkpt><trkpt lat="43.1453017" lon="11.4191083"><ele>213.5</ele><time>2026-04-06T13:14:33.828Z</time></trkpt><trkpt lat="43.145285" lon="11.4192867"><ele>213.25</ele><time>2026-04-06T13:14:34.831Z</time></trkpt><trkpt lat="43.145255" lon="11.41946"><ele>213.0</ele><time>2026-04-06T13:14:35.825Z</time></trkpt><trkpt lat="43.14522" lon="11.4196317"><ele>212.25</ele><time>2026-04-06T13:14:36.83Z</time></trkpt><trkpt lat="43.145185" lon="11.4198017"><ele>211.5</ele><time>2026-04-06T13:14:37.83Z</time></trkpt><trkpt lat="43.1451583" lon="11.419975"><ele>210.75</ele><time>2026-04-06T13:14:38.855Z</time></trkpt><trkpt lat="43.1451383" lon="11.4201433"><ele>210.0</ele><time>2026-04-06T13:14:39.827Z</time></trkpt><trkpt lat="43.145125" lon="11.4203067"><ele>210.0</ele><time>2026-04-06T13:14:40.826Z</time></trkpt><trkpt lat="43.145125" lon="11.4204633"><ele>210.0</ele><time>2026-04-06T13:14:41.823Z</time></trkpt><trkpt lat="43.1451317" lon="11.4206167"><ele>210.0</ele><time>2026-04-06T13:14:42.831Z</time></trkpt><trkpt lat="43.145135" lon="11.4207633"><ele>210.0</ele><time>2026-04-06T13:14:43.829Z</time></trkpt><trkpt lat="43.1451367" lon="11.4209067"><ele>210.0</ele><time>2026-04-06T13:14:44.837Z</time></trkpt><trkpt lat="43.145145" lon="11.4210467"><ele>209.4</ele><time>2026-04-06T13:14:45.825Z</time></trkpt><trkpt lat="43.1451633" lon="11.4211767"><ele>208.8</ele><time>2026-04-06T13:14:46.823Z</time></trkpt><trkpt lat="43.14519" lon="11.4212983"><ele>208.2</ele><time>2026-04-06T13:14:47.829Z</time></trkpt><trkpt lat="43.14522" lon="11.4214167"><ele>207.6</ele><time>2026-04-06T13:14:48.824Z</time></trkpt><trkpt lat="43.1452483" lon="11.421535"><ele>207.0</ele><time>2026-04-06T13:14:49.823Z</time></trkpt><trkpt lat="43.1452783" lon="11.4216517"><ele>206.75</ele><time>2026-04-06T13:14:50.823Z</time></trkpt><trkpt lat="43.145315" lon="11.4217767"><ele>206.5</ele><time>2026-04-06T13:14:51.824Z</time></trkpt><trkpt lat="43.14536" lon="11.421915"><ele>206.25</ele><time>2026-04-06T13:14:52.829Z</time></trkpt><trkpt lat="43.1454067" lon="11.422065"><ele>206.0</ele><time>2026-04-06T13:14:53.824Z</time></trkpt><trkpt lat="43.1454633" lon="11.4222283"><ele>206.75</ele><time>2026-04-06T13:14:54.824Z</time></trkpt><trkpt lat="43.1455267" lon="11.4223967"><ele>207.5</ele><time>2026-04-06T13:14:55.831Z</time></trkpt><trkpt lat="43.14559" lon="11.42256"><ele>208.25</ele><time>2026-04-06T13:14:56.83Z</time></trkpt><trkpt lat="43.1456467" lon="11.422715"><ele>209.0</ele><time>2026-04-06T13:14:57.83Z</time></trkpt><trkpt lat="43.1457017" lon="11.4228633"><ele>208.5</ele><time>2026-04-06T13:14:58.826Z</time></trkpt><trkpt lat="43.1457567" lon="11.42301"><ele>208.0</ele><time>2026-04-06T13:14:59.83Z</time></trkpt><trkpt lat="43.1458133" lon="11.4231567"><ele>207.5</ele><time>2026-04-06T13:15:00.828Z</time></trkpt><trkpt lat="43.1458633" lon="11.423295"><ele>207.0</ele><time>2026-04-06T13:15:01.826Z</time></trkpt><trkpt lat="43.1459017" lon="11.42343"><ele>207.0</ele><time>2026-04-06T13:15:02.824Z</time></trkpt><trkpt lat="43.1459283" lon="11.4235583"><ele>207.0</ele><time>2026-04-06T13:15:03.824Z</time></trkpt><trkpt lat="43.145945" lon="11.42368"><ele>207.0</ele><time>2026-04-06T13:15:04.826Z</time></trkpt><trkpt lat="43.1459533" lon="11.4237933"><ele>207.0</ele><time>2026-04-06T13:15:05.825Z</time></trkpt><trkpt lat="43.1459483" lon="11.4238983"><ele>207.0</ele><time>2026-04-06T13:15:06.826Z</time></trkpt><trkpt lat="43.1459383" lon="11.4240067"><ele>207.0</ele><time>2026-04-06T13:15:07.826Z</time></trkpt><trkpt lat="43.1459117" lon="11.4241183"><ele>206.8</ele><time>2026-04-06T13:15:08.836Z</time></trkpt><trkpt lat="43.145875" lon="11.42423"><ele>206.6</ele><time>2026-04-06T13:15:09.827Z</time></trkpt><trkpt lat="43.1458283" lon="11.4243483"><ele>206.4</ele><time>2026-04-06T13:15:10.826Z</time></trkpt><trkpt lat="43.1457733" lon="11.4244667"><ele>206.20000000000002</ele><time>2026-04-06T13:15:11.834Z</time></trkpt><trkpt lat="43.1457167" lon="11.4245767"><ele>206.0</ele><time>2026-04-06T13:15:12.824Z</time></trkpt><trkpt lat="43.1456583" lon="11.4246733"><ele>208.33333333333334</ele><time>2026-04-06T13:15:13.827Z</time></trkpt><trkpt lat="43.1456033" lon="11.4247633"><ele>210.66666666666669</ele><time>2026-04-06T13:15:14.83Z</time></trkpt><trkpt lat="43.14556" lon="11.424845"><ele>213.0</ele><time>2026-04-06T13:15:15.826Z</time></trkpt><trkpt lat="43.1455317" lon="11.4249283"><ele>215.33333333333331</ele><time>2026-04-06T13:15:16.826Z</time></trkpt><trkpt lat="43.1455167" lon="11.4250133"><ele>217.66666666666666</ele><time>2026-04-06T13:15:17.828Z</time></trkpt><trkpt lat="43.14554" lon="11.425155"><ele>220.0</ele><time>2026-04-06T13:15:19.824Z</time></trkpt><trkpt lat="43.1456267" lon="11.4252633"><ele>219.99999999999997</ele><time>2026-04-06T13:15:21.829Z</time></trkpt><trkpt lat="43.14569" lon="11.4253133"><ele>220.0</ele><time>2026-04-06T13:15:22.833Z</time></trkpt><trkpt lat="43.1457617" lon="11.4253617"><ele>220.0</ele><time>2026-04-06T13:15:23.824Z</time></trkpt><trkpt lat="43.1458383" lon="11.4254067"><ele>220.0</ele><time>2026-04-06T13:15:24.834Z</time></trkpt><trkpt lat="43.145915" lon="11.42545"><ele>219.99999999999997</ele><time>2026-04-06T13:15:25.828Z</time></trkpt><trkpt lat="43.1459917" lon="11.4255067"><ele>220.0</ele><time>2026-04-06T13:15:26.831Z</time></trkpt><trkpt lat="43.14607" lon="11.42557"><ele>218.6</ele><time>2026-04-06T13:15:27.828Z</time></trkpt><trkpt lat="43.1461467" lon="11.4256467"><ele>217.2</ele><time>2026-04-06T13:15:28.824Z</time></trkpt><trkpt lat="43.146225" lon="11.425735"><ele>215.8</ele><time>2026-04-06T13:15:29.823Z</time></trkpt><trkpt lat="43.1463083" lon="11.4258283"><ele>214.4</ele><time>2026-04-06T13:15:30.83Z</time></trkpt><trkpt lat="43.1464" lon="11.4259267"><ele>213.0</ele><time>2026-04-06T13:15:31.829Z</time></trkpt><trkpt lat="43.146495" lon="11.4260233"><ele>212.8</ele><time>2026-04-06T13:15:32.824Z</time></trkpt><trkpt lat="43.14659" lon="11.42612"><ele>212.60000000000002</ele><time>2026-04-06T13:15:33.826Z</time></trkpt><trkpt lat="43.1466817" lon="11.426205"><ele>212.39999999999998</ele><time>2026-04-06T13:15:34.832Z</time></trkpt><trkpt lat="43.14677" lon="11.4262817"><ele>212.2</ele><time>2026-04-06T13:15:35.824Z</time></trkpt><trkpt lat="43.14686" lon="11.4263483"><ele>212.0</ele><time>2026-04-06T13:15:36.826Z</time></trkpt><trkpt lat="43.1469517" lon="11.42641"><ele>212.0</ele><time>2026-04-06T13:15:37.826Z</time></trkpt><trkpt lat="43.1470417" lon="11.4264817"><ele>212.0</ele><time>2026-04-06T13:15:38.831Z</time></trkpt><trkpt lat="43.147125" lon="11.4265633"><ele>212.0</ele><time>2026-04-06T13:15:39.832Z</time></trkpt><trkpt lat="43.1472067" lon="11.426655"><ele>212.0</ele><time>2026-04-06T13:15:40.826Z</time></trkpt><trkpt lat="43.1472867" lon="11.4267567"><ele>212.0</ele><time>2026-04-06T13:15:41.828Z</time></trkpt><trkpt lat="43.147365" lon="11.426855"><ele>211.2</ele><time>2026-04-06T13:15:42.828Z</time></trkpt><trkpt lat="43.14744" lon="11.4269433"><ele>210.39999999999998</ele><time>2026-04-06T13:15:43.835Z</time></trkpt><trkpt lat="43.1475167" lon="11.42702"><ele>209.60000000000002</ele><time>2026-04-06T13:15:44.824Z</time></trkpt><trkpt lat="43.1475983" lon="11.42709"><ele>208.8</ele><time>2026-04-06T13:15:45.829Z</time></trkpt><trkpt lat="43.1476883" lon="11.4271467"><ele>208.0</ele><time>2026-04-06T13:15:46.831Z</time></trkpt><trkpt lat="43.1477867" lon="11.4271833"><ele>208.0</ele><time>2026-04-06T13:15:47.828Z</time></trkpt><trkpt lat="43.1478833" lon="11.4272133"><ele>208.0</ele><time>2026-04-06T13:15:48.833Z</time></trkpt><trkpt lat="43.1479767" lon="11.4272467"><ele>208.0</ele><time>2026-04-06T13:15:49.827Z</time></trkpt><trkpt lat="43.1480683" lon="11.427275"><ele>208.0</ele><time>2026-04-06T13:15:50.829Z</time></trkpt><trkpt lat="43.1481617" lon="11.42731"><ele>208.0</ele><time>2026-04-06T13:15:51.824Z</time></trkpt><trkpt lat="43.148255" lon="11.4273533"><ele>207.4</ele><time>2026-04-06T13:15:52.825Z</time></trkpt><trkpt lat="43.14835" lon="11.4273967"><ele>206.8</ele><time>2026-04-06T13:15:53.834Z</time></trkpt><trkpt lat="43.1484383" lon="11.4274417"><ele>206.2</ele><time>2026-04-06T13:15:54.83Z</time></trkpt><trkpt lat="43.1485283" lon="11.42749"><ele>205.6</ele><time>2026-04-06T13:15:55.827Z</time></trkpt><trkpt lat="43.1486217" lon="11.4275417"><ele>205.0</ele><time>2026-04-06T13:15:56.825Z</time></trkpt><trkpt lat="43.1487117" lon="11.4276017"><ele>205.0</ele><time>2026-04-06T13:15:57.824Z</time></trkpt><trkpt lat="43.1488083" lon="11.42766"><ele>205.0</ele><time>2026-04-06T13:15:58.824Z</time></trkpt><trkpt lat="43.1489033" lon="11.4277117"><ele>205.0</ele><time>2026-04-06T13:15:59.83Z</time></trkpt><trkpt lat="43.1489967" lon="11.4277633"><ele>205.0</ele><time>2026-04-06T13:16:00.831Z</time></trkpt><trkpt lat="43.1490883" lon="11.42782"><ele>205.0</ele><time>2026-04-06T13:16:01.829Z</time></trkpt><trkpt lat="43.149175" lon="11.4278767"><ele>204.8</ele><time>2026-04-06T13:16:02.829Z</time></trkpt><trkpt lat="43.14926" lon="11.4279417"><ele>204.6</ele><time>2026-04-06T13:16:03.826Z</time></trkpt><trkpt lat="43.149345" lon="11.4280217"><ele>204.39999999999998</ele><time>2026-04-06T13:16:04.825Z</time></trkpt><trkpt lat="43.1494283" lon="11.42811"><ele>204.2</ele><time>2026-04-06T13:16:05.828Z</time></trkpt><trkpt lat="43.149515" lon="11.4281967"><ele>204.0</ele><time>2026-04-06T13:16:06.826Z</time></trkpt><trkpt lat="43.1495983" lon="11.4282817"><ele>202.79999999999998</ele><time>2026-04-06T13:16:07.826Z</time></trkpt><trkpt lat="43.1496833" lon="11.428365"><ele>201.6</ele><time>2026-04-06T13:16:08.823Z</time></trkpt><trkpt lat="43.1497667" lon="11.4284483"><ele>200.4</ele><time>2026-04-06T13:16:09.825Z</time></trkpt><trkpt lat="43.14985" lon="11.42853"><ele>199.2</ele><time>2026-04-06T13:16:10.829Z</time></trkpt><trkpt lat="43.149925" lon="11.4286167"><ele>198.0</ele><time>2026-04-06T13:16:11.825Z</time></trkpt><trkpt lat="43.1499983" lon="11.42871"><ele>198.0</ele><time>2026-04-06T13:16:12.823Z</time></trkpt><trkpt lat="43.1500667" lon="11.4288083"><ele>198.0</ele><time>2026-04-06T13:16:13.826Z</time></trkpt><trkpt lat="43.1501283" lon="11.428915"><ele>198.0</ele><time>2026-04-06T13:16:14.832Z</time></trkpt><trkpt lat="43.150185" lon="11.4290217"><ele>198.0</ele><time>2026-04-06T13:16:15.831Z</time></trkpt><trkpt lat="43.150235" lon="11.4291233"><ele>198.0</ele><time>2026-04-06T13:16:16.826Z</time></trkpt><trkpt lat="43.15029" lon="11.4292183"><ele>196.5</ele><time>2026-04-06T13:16:17.823Z</time></trkpt><trkpt lat="43.1503467" lon="11.4293067"><ele>195.0</ele><time>2026-04-06T13:16:18.834Z</time></trkpt><trkpt lat="43.1504083" lon="11.4293867"><ele>193.5</ele><time>2026-04-06T13:16:19.832Z</time></trkpt><trkpt lat="43.1504667" lon="11.4294683"><ele>192.0</ele><time>2026-04-06T13:16:20.829Z</time></trkpt><trkpt lat="43.1505267" lon="11.4295467"><ele>190.5</ele><time>2026-04-06T13:16:21.825Z</time></trkpt><trkpt lat="43.1505833" lon="11.4296183"><ele>189.0</ele><time>2026-04-06T13:16:22.824Z</time></trkpt><trkpt lat="43.1506483" lon="11.42969"><ele>189.16666666666666</ele><time>2026-04-06T13:16:23.832Z</time></trkpt><trkpt lat="43.1507167" lon="11.4297583"><ele>189.33333333333334</ele><time>2026-04-06T13:16:24.823Z</time></trkpt><trkpt lat="43.1507933" lon="11.429825"><ele>189.5</ele><time>2026-04-06T13:16:25.829Z</time></trkpt><trkpt lat="43.1508683" lon="11.4298933"><ele>189.66666666666669</ele><time>2026-04-06T13:16:26.828Z</time></trkpt><trkpt lat="43.1509367" lon="11.429965"><ele>189.83333333333334</ele><time>2026-04-06T13:16:27.828Z</time></trkpt><trkpt lat="43.1509983" lon="11.4300417"><ele>190.0</ele><time>2026-04-06T13:16:28.823Z</time></trkpt><trkpt lat="43.151055" lon="11.430125"><ele>190.0</ele><time>2026-04-06T13:16:29.825Z</time></trkpt><trkpt lat="43.1511" lon="11.4302217"><ele>190.0</ele><time>2026-04-06T13:16:30.823Z</time></trkpt><trkpt lat="43.1511283" lon="11.4303267"><ele>190.0</ele><time>2026-04-06T13:16:31.825Z</time></trkpt><trkpt lat="43.1511433" lon="11.4304383"><ele>190.0</ele><time>2026-04-06T13:16:32.824Z</time></trkpt><trkpt lat="43.1511517" lon="11.4305483"><ele>190.0</ele><time>2026-04-06T13:16:33.835Z</time></trkpt><trkpt lat="43.1511367" lon="11.4306717"><ele>190.0</ele><time>2026-04-06T13:16:34.829Z</time></trkpt><trkpt lat="43.151135" lon="11.4307983"><ele>188.6</ele><time>2026-04-06T13:16:35.829Z</time></trkpt><trkpt lat="43.1511333" lon="11.4309317"><ele>187.2</ele><time>2026-04-06T13:16:36.824Z</time></trkpt><trkpt lat="43.1511217" lon="11.431065"><ele>185.8</ele><time>2026-04-06T13:16:37.824Z</time></trkpt><trkpt lat="43.15111" lon="11.4311967"><ele>184.4</ele><time>2026-04-06T13:16:38.83Z</time></trkpt><trkpt lat="43.1511" lon="11.4313267"><ele>183.0</ele><time>2026-04-06T13:16:39.828Z</time></trkpt><trkpt lat="43.1510933" lon="11.4314517"><ele>182.0</ele><time>2026-04-06T13:16:40.824Z</time></trkpt><trkpt lat="43.1510983" lon="11.4315683"><ele>181.0</ele><time>2026-04-06T13:16:41.825Z</time></trkpt><trkpt lat="43.151105" lon="11.4316783"><ele>180.0</ele><time>2026-04-06T13:16:42.823Z</time></trkpt><trkpt lat="43.15112" lon="11.4317933"><ele>179.0</ele><time>2026-04-06T13:16:43.824Z</time></trkpt><trkpt lat="43.151135" lon="11.4319083"><ele>178.0</ele><time>2026-04-06T13:16:44.836Z</time></trkpt><trkpt lat="43.151145" lon="11.4320333"><ele>177.0</ele><time>2026-04-06T13:16:45.827Z</time></trkpt><trkpt lat="43.151145" lon="11.43216"><ele>176.5</ele><time>2026-04-06T13:16:46.824Z</time></trkpt><trkpt lat="43.1511367" lon="11.4322867"><ele>176.0</ele><time>2026-04-06T13:16:47.823Z</time></trkpt><trkpt lat="43.1511183" lon="11.43241"><ele>175.5</ele><time>2026-04-06T13:16:48.826Z</time></trkpt><trkpt lat="43.1511083" lon="11.43253"><ele>175.0</ele><time>2026-04-06T13:16:49.83Z</time></trkpt><trkpt lat="43.1511117" lon="11.4326467"><ele>174.5</ele><time>2026-04-06T13:16:50.826Z</time></trkpt><trkpt lat="43.151135" lon="11.4327567"><ele>174.0</ele><time>2026-04-06T13:16:51.825Z</time></trkpt><trkpt lat="43.1511717" lon="11.4328617"><ele>174.0</ele><time>2026-04-06T13:16:52.829Z</time></trkpt><trkpt lat="43.1512233" lon="11.4329633"><ele>174.0</ele><time>2026-04-06T13:16:53.827Z</time></trkpt><trkpt lat="43.1512833" lon="11.4330583"><ele>174.0</ele><time>2026-04-06T13:16:54.827Z</time></trkpt><trkpt lat="43.1513533" lon="11.4331483"><ele>174.0</ele><time>2026-04-06T13:16:55.828Z</time></trkpt><trkpt lat="43.1514233" lon="11.4332367"><ele>174.0</ele><time>2026-04-06T13:16:56.832Z</time></trkpt><trkpt lat="43.1514967" lon="11.4333167"><ele>174.66666666666666</ele><time>2026-04-06T13:16:57.827Z</time></trkpt><trkpt lat="43.151565" lon="11.4333917"><ele>175.33333333333334</ele><time>2026-04-06T13:16:58.823Z</time></trkpt><trkpt lat="43.1516317" lon="11.4334533"><ele>176.0</ele><time>2026-04-06T13:16:59.83Z</time></trkpt><trkpt lat="43.1517017" lon="11.4335"><ele>176.66666666666669</ele><time>2026-04-06T13:17:00.826Z</time></trkpt><trkpt lat="43.151775" lon="11.43353"><ele>177.33333333333334</ele><time>2026-04-06T13:17:01.825Z</time></trkpt><trkpt lat="43.1518517" lon="11.4335467"><ele>178.0</ele><time>2026-04-06T13:17:02.832Z</time></trkpt><trkpt lat="43.151925" lon="11.4335517"><ele>177.99999999999997</ele><time>2026-04-06T13:17:03.831Z</time></trkpt><trkpt lat="43.1519917" lon="11.4335433"><ele>178.0</ele><time>2026-04-06T13:17:04.829Z</time></trkpt><trkpt lat="43.1520583" lon="11.43351"><ele>178.0</ele><time>2026-04-06T13:17:05.825Z</time></trkpt><trkpt lat="43.1521217" lon="11.433465"><ele>178.0</ele><time>2026-04-06T13:17:06.824Z</time></trkpt><trkpt lat="43.15218" lon="11.4334"><ele>178.0</ele><time>2026-04-06T13:17:07.825Z</time></trkpt><trkpt lat="43.1522383" lon="11.433335"><ele>177.99999999999997</ele><time>2026-04-06T13:17:08.833Z</time></trkpt><trkpt lat="43.1522967" lon="11.4332667"><ele>178.0</ele><time>2026-04-06T13:17:09.827Z</time></trkpt><trkpt lat="43.152355" lon="11.4331983"><ele>178.33333333333334</ele><time>2026-04-06T13:17:10.836Z</time></trkpt><trkpt lat="43.1524033" lon="11.4331267"><ele>178.66666666666669</ele><time>2026-04-06T13:17:11.827Z</time></trkpt><trkpt lat="43.1524567" lon="11.4330583"><ele>179.0</ele><time>2026-04-06T13:17:12.838Z</time></trkpt><trkpt lat="43.1525067" lon="11.4330017"><ele>179.33333333333334</ele><time>2026-04-06T13:17:13.827Z</time></trkpt><trkpt lat="43.1525983" lon="11.4329567"><ele>179.66666666666666</ele><time>2026-04-06T13:17:15.827Z</time></trkpt><trkpt lat="43.1526917" lon="11.4329883"><ele>180.0</ele><time>2026-04-06T13:17:17.829Z</time></trkpt><trkpt lat="43.1527467" lon="11.4331117"><ele>178.2</ele><time>2026-04-06T13:17:19.827Z</time></trkpt><trkpt lat="43.1527433" lon="11.4332733"><ele>176.4</ele><time>2026-04-06T13:17:21.829Z</time></trkpt><trkpt lat="43.15269" lon="11.43342"><ele>174.60000000000002</ele><time>2026-04-06T13:17:23.828Z</time></trkpt><trkpt lat="43.1526433" lon="11.4334983"><ele>172.8</ele><time>2026-04-06T13:17:24.831Z</time></trkpt><trkpt lat="43.1525767" lon="11.4335667"><ele>171.0</ele><time>2026-04-06T13:17:25.823Z</time></trkpt><trkpt lat="43.1525117" lon="11.4336367"><ele>171.0</ele><time>2026-04-06T13:17:26.827Z</time></trkpt><trkpt lat="43.1524483" lon="11.43372"><ele>171.0</ele><time>2026-04-06T13:17:27.831Z</time></trkpt><trkpt lat="43.1523817" lon="11.4338083"><ele>171.0</ele><time>2026-04-06T13:17:28.826Z</time></trkpt><trkpt lat="43.1523033" lon="11.4339033"><ele>171.0</ele><time>2026-04-06T13:17:29.825Z</time></trkpt><trkpt lat="43.15223" lon="11.4339933"><ele>171.0</ele><time>2026-04-06T13:17:30.827Z</time></trkpt><trkpt lat="43.15216" lon="11.4340833"><ele>170.4</ele><time>2026-04-06T13:17:31.826Z</time></trkpt><trkpt lat="43.15209" lon="11.4341733"><ele>169.8</ele><time>2026-04-06T13:17:32.829Z</time></trkpt><trkpt lat="43.1520133" lon="11.4342667"><ele>169.20000000000002</ele><time>2026-04-06T13:17:33.83Z</time></trkpt><trkpt lat="43.15194" lon="11.4343567"><ele>168.60000000000002</ele><time>2026-04-06T13:17:34.826Z</time></trkpt><trkpt lat="43.151865" lon="11.434445"><ele>168.0</ele><time>2026-04-06T13:17:35.827Z</time></trkpt><trkpt lat="43.15179" lon="11.4345317"><ele>168.0</ele><time>2026-04-06T13:17:36.827Z</time></trkpt><trkpt lat="43.1517217" lon="11.4346133"><ele>168.0</ele><time>2026-04-06T13:17:37.826Z</time></trkpt><trkpt lat="43.15166" lon="11.4347"><ele>168.0</ele><time>2026-04-06T13:17:38.827Z</time></trkpt><trkpt lat="43.1516117" lon="11.4348"><ele>168.0</ele><time>2026-04-06T13:17:39.837Z</time></trkpt><trkpt lat="43.15158" lon="11.43491"><ele>168.0</ele><time>2026-04-06T13:17:40.833Z</time></trkpt><trkpt lat="43.1515617" lon="11.435025"><ele>168.0</ele><time>2026-04-06T13:17:41.831Z</time></trkpt><trkpt lat="43.1515483" lon="11.4351417"><ele>166.20000000000002</ele><time>2026-04-06T13:17:42.833Z</time></trkpt><trkpt lat="43.1515533" lon="11.4352683"><ele>164.4</ele><time>2026-04-06T13:17:43.827Z</time></trkpt><trkpt lat="43.1515683" lon="11.4353917"><ele>162.60000000000002</ele><time>2026-04-06T13:17:44.825Z</time></trkpt><trkpt lat="43.151585" lon="11.4355167"><ele>160.8</ele><time>2026-04-06T13:17:45.825Z</time></trkpt><trkpt lat="43.15161" lon="11.4356433"><ele>159.0</ele><time>2026-04-06T13:17:46.826Z</time></trkpt><trkpt lat="43.1516317" lon="11.4357733"><ele>158.6</ele><time>2026-04-06T13:17:47.827Z</time></trkpt><trkpt lat="43.1516483" lon="11.4359067"><ele>158.2</ele><time>2026-04-06T13:17:48.826Z</time></trkpt><trkpt lat="43.1516667" lon="11.4360383"><ele>157.79999999999998</ele><time>2026-04-06T13:17:49.829Z</time></trkpt><trkpt lat="43.151685" lon="11.4361667"><ele>157.4</ele><time>2026-04-06T13:17:50.826Z</time></trkpt><trkpt lat="43.1517033" lon="11.4362983"><ele>157.0</ele><time>2026-04-06T13:17:51.829Z</time></trkpt><trkpt lat="43.151725" lon="11.4364317"><ele>156.6</ele><time>2026-04-06T13:17:52.829Z</time></trkpt><trkpt lat="43.15175" lon="11.4365667"><ele>156.2</ele><time>2026-04-06T13:17:53.823Z</time></trkpt><trkpt lat="43.1517667" lon="11.436705"><ele>155.8</ele><time>2026-04-06T13:17:54.823Z</time></trkpt><trkpt lat="43.1517867" lon="11.436845"><ele>155.4</ele><time>2026-04-06T13:17:55.825Z</time></trkpt><trkpt lat="43.1518083" lon="11.4369817"><ele>155.0</ele><time>2026-04-06T13:17:56.827Z</time></trkpt><trkpt lat="43.1518267" lon="11.4371133"><ele>155.2</ele><time>2026-04-06T13:17:57.828Z</time></trkpt><trkpt lat="43.151845" lon="11.4372467"><ele>155.4</ele><time>2026-04-06T13:17:58.824Z</time></trkpt><trkpt lat="43.151865" lon="11.43738"><ele>155.6</ele><time>2026-04-06T13:17:59.829Z</time></trkpt><trkpt lat="43.151885" lon="11.4375133"><ele>155.8</ele><time>2026-04-06T13:18:00.83Z</time></trkpt><trkpt lat="43.1519017" lon="11.4376517"><ele>156.0</ele><time>2026-04-06T13:18:01.824Z</time></trkpt><trkpt lat="43.1519217" lon="11.4377883"><ele>156.0</ele><time>2026-04-06T13:18:02.828Z</time></trkpt><trkpt lat="43.1519433" lon="11.4379217"><ele>156.0</ele><time>2026-04-06T13:18:03.826Z</time></trkpt><trkpt lat="43.151965" lon="11.4380433"><ele>156.0</ele><time>2026-04-06T13:18:04.825Z</time></trkpt><trkpt lat="43.1519817" lon="11.4381683"><ele>156.0</ele><time>2026-04-06T13:18:05.824Z</time></trkpt><trkpt lat="43.151985" lon="11.4382933"><ele>156.0</ele><time>2026-04-06T13:18:06.828Z</time></trkpt><trkpt lat="43.1519767" lon="11.4384183"><ele>157.0</ele><time>2026-04-06T13:18:07.828Z</time></trkpt><trkpt lat="43.151965" lon="11.4385433"><ele>158.0</ele><time>2026-04-06T13:18:08.825Z</time></trkpt><trkpt lat="43.1519333" lon="11.4386667"><ele>159.0</ele><time>2026-04-06T13:18:09.829Z</time></trkpt><trkpt lat="43.1518817" lon="11.43878"><ele>160.0</ele><time>2026-04-06T13:18:10.828Z</time></trkpt><trkpt lat="43.15182" lon="11.438885"><ele>161.0</ele><time>2026-04-06T13:18:11.832Z</time></trkpt><trkpt lat="43.1517567" lon="11.4389867"><ele>161.60000000000002</ele><time>2026-04-06T13:18:12.83Z</time></trkpt><trkpt lat="43.1516967" lon="11.439095"><ele>162.2</ele><time>2026-04-06T13:18:13.826Z</time></trkpt><trkpt lat="43.151635" lon="11.4392033"><ele>162.8</ele><time>2026-04-06T13:18:14.828Z</time></trkpt><trkpt lat="43.1515733" lon="11.4393167"><ele>163.39999999999998</ele><time>2026-04-06T13:18:15.824Z</time></trkpt><trkpt lat="43.1515033" lon="11.439425"><ele>164.0</ele><time>2026-04-06T13:18:16.823Z</time></trkpt><trkpt lat="43.1514383" lon="11.4395417"><ele>163.5</ele><time>2026-04-06T13:18:17.824Z</time></trkpt><trkpt lat="43.1513733" lon="11.4396683"><ele>163.0</ele><time>2026-04-06T13:18:18.825Z</time></trkpt><trkpt lat="43.1513083" lon="11.4397967"><ele>162.5</ele><time>2026-04-06T13:18:19.824Z</time></trkpt><trkpt lat="43.1512383" lon="11.439925"><ele>162.0</ele><time>2026-04-06T13:18:20.825Z</time></trkpt><trkpt lat="43.1511817" lon="11.44006"><ele>162.0</ele><time>2026-04-06T13:18:21.83Z</time></trkpt><trkpt lat="43.15113" lon="11.4401883"><ele>162.0</ele><time>2026-04-06T13:18:22.826Z</time></trkpt><trkpt lat="43.15108" lon="11.440315"><ele>162.0</ele><time>2026-04-06T13:18:23.825Z</time></trkpt><trkpt lat="43.1510333" lon="11.4404333"><ele>162.0</ele><time>2026-04-06T13:18:24.834Z</time></trkpt><trkpt lat="43.150985" lon="11.440545"><ele>162.0</ele><time>2026-04-06T13:18:25.838Z</time></trkpt><trkpt lat="43.1509317" lon="11.4406467"><ele>162.2</ele><time>2026-04-06T13:18:26.829Z</time></trkpt><trkpt lat="43.1508667" lon="11.4407367"><ele>162.39999999999998</ele><time>2026-04-06T13:18:27.827Z</time></trkpt><trkpt lat="43.1507883" lon="11.440815"><ele>162.60000000000002</ele><time>2026-04-06T13:18:28.825Z</time></trkpt><trkpt lat="43.1507017" lon="11.4408933"><ele>162.8</ele><time>2026-04-06T13:18:29.825Z</time></trkpt><trkpt lat="43.1506167" lon="11.4409767"><ele>163.0</ele><time>2026-04-06T13:18:30.83Z</time></trkpt><trkpt lat="43.15052" lon="11.4410517"><ele>163.0</ele><time>2026-04-06T13:18:31.834Z</time></trkpt><trkpt lat="43.15042" lon="11.441125"><ele>163.0</ele><time>2026-04-06T13:18:32.824Z</time></trkpt><trkpt lat="43.1503167" lon="11.4412067"><ele>163.0</ele><time>2026-04-06T13:18:33.827Z</time></trkpt><trkpt lat="43.1502133" lon="11.44129"><ele>163.0</ele><time>2026-04-06T13:18:34.826Z</time></trkpt><trkpt lat="43.1501117" lon="11.441375"><ele>163.0</ele><time>2026-04-06T13:18:35.833Z</time></trkpt><trkpt lat="43.1500083" lon="11.44146"><ele>163.0</ele><time>2026-04-06T13:18:36.825Z</time></trkpt><trkpt lat="43.14991" lon="11.4415483"><ele>163.0</ele><time>2026-04-06T13:18:37.828Z</time></trkpt><trkpt lat="43.1498083" lon="11.44163"><ele>163.0</ele><time>2026-04-06T13:18:38.825Z</time></trkpt><trkpt lat="43.149705" lon="11.4417067"><ele>163.0</ele><time>2026-04-06T13:18:39.826Z</time></trkpt><trkpt lat="43.1496067" lon="11.4417933"><ele>163.0</ele><time>2026-04-06T13:18:40.828Z</time></trkpt><trkpt lat="43.14951" lon="11.441875"><ele>163.0</ele><time>2026-04-06T13:18:41.826Z</time></trkpt><trkpt lat="43.14941" lon="11.4419567"><ele>163.0</ele><time>2026-04-06T13:18:42.828Z</time></trkpt><trkpt lat="43.1493117" lon="11.4420383"><ele>163.0</ele><time>2026-04-06T13:18:43.825Z</time></trkpt><trkpt lat="43.14921" lon="11.4421167"><ele>163.0</ele><time>2026-04-06T13:18:44.827Z</time></trkpt><trkpt lat="43.14911" lon="11.4421983"><ele>163.0</ele><time>2026-04-06T13:18:45.824Z</time></trkpt><trkpt lat="43.1490117" lon="11.44228"><ele>163.0</ele><time>2026-04-06T13:18:46.826Z</time></trkpt><trkpt lat="43.1489183" lon="11.442355"><ele>163.2</ele><time>2026-04-06T13:18:47.828Z</time></trkpt><trkpt lat="43.1488283" lon="11.4424317"><ele>163.4</ele><time>2026-04-06T13:18:48.826Z</time></trkpt><trkpt lat="43.1487417" lon="11.4425267"><ele>163.6</ele><time>2026-04-06T13:18:49.824Z</time></trkpt><trkpt lat="43.1486583" lon="11.4426317"><ele>163.79999999999998</ele><time>2026-04-06T13:18:50.827Z</time></trkpt><trkpt lat="43.1485767" lon="11.4427433"><ele>164.0</ele><time>2026-04-06T13:18:51.823Z</time></trkpt><trkpt lat="43.1484983" lon="11.4428567"><ele>163.79999999999998</ele><time>2026-04-06T13:18:52.83Z</time></trkpt><trkpt lat="43.1484233" lon="11.4429717"><ele>163.6</ele><time>2026-04-06T13:18:53.831Z</time></trkpt><trkpt lat="43.1483483" lon="11.44308"><ele>163.4</ele><time>2026-04-06T13:18:54.825Z</time></trkpt><trkpt lat="43.148275" lon="11.443185"><ele>163.2</ele><time>2026-04-06T13:18:55.824Z</time></trkpt><trkpt lat="43.148205" lon="11.4432817"><ele>163.0</ele><time>2026-04-06T13:18:56.827Z</time></trkpt><trkpt lat="43.14814" lon="11.4433717"><ele>163.0</ele><time>2026-04-06T13:18:57.831Z</time></trkpt><trkpt lat="43.1480883" lon="11.443465"><ele>163.0</ele><time>2026-04-06T13:18:58.824Z</time></trkpt><trkpt lat="43.1480483" lon="11.4435667"><ele>163.0</ele><time>2026-04-06T13:18:59.826Z</time></trkpt><trkpt lat="43.1480217" lon="11.4436683"><ele>163.0</ele><time>2026-04-06T13:19:00.828Z</time></trkpt><trkpt lat="43.1480133" lon="11.4437717"><ele>163.0</ele><time>2026-04-06T13:19:01.829Z</time></trkpt><trkpt lat="43.1480317" lon="11.4438767"><ele>163.0</ele><time>2026-04-06T13:19:02.829Z</time></trkpt><trkpt lat="43.1480683" lon="11.443985"><ele>163.16666666666669</ele><time>2026-04-06T13:19:03.829Z</time></trkpt><trkpt lat="43.148105" lon="11.4440967"><ele>163.33333333333334</ele><time>2026-04-06T13:19:04.831Z</time></trkpt><trkpt lat="43.14815" lon="11.4442017"><ele>163.5</ele><time>2026-04-06T13:19:05.83Z</time></trkpt><trkpt lat="43.1481817" lon="11.444305"><ele>163.66666666666666</ele><time>2026-04-06T13:19:06.832Z</time></trkpt><trkpt lat="43.148195" lon="11.444405"><ele>163.83333333333331</ele><time>2026-04-06T13:19:07.834Z</time></trkpt><trkpt lat="43.148195" lon="11.4445083"><ele>164.0</ele><time>2026-04-06T13:19:08.824Z</time></trkpt><trkpt lat="43.1481883" lon="11.444605"><ele>165.16666666666666</ele><time>2026-04-06T13:19:09.831Z</time></trkpt><trkpt lat="43.1481683" lon="11.4446883"><ele>166.33333333333331</ele><time>2026-04-06T13:19:10.833Z</time></trkpt><trkpt lat="43.1481133" lon="11.4447533"><ele>167.5</ele><time>2026-04-06T13:19:11.835Z</time></trkpt><trkpt lat="43.1480533" lon="11.4447983"><ele>168.66666666666666</ele><time>2026-04-06T13:19:12.825Z</time></trkpt><trkpt lat="43.1479317" lon="11.444845"><ele>169.83333333333334</ele><time>2026-04-06T13:19:14.824Z</time></trkpt><trkpt lat="43.1478433" lon="11.444825"><ele>171.0</ele><time>2026-04-06T13:19:15.83Z</time></trkpt><trkpt lat="43.1477533" lon="11.444795"><ele>171.0</ele><time>2026-04-06T13:19:16.824Z</time></trkpt><trkpt lat="43.1476667" lon="11.444745"><ele>171.0</ele><time>2026-04-06T13:19:17.825Z</time></trkpt><trkpt lat="43.1475783" lon="11.4446933"><ele>171.0</ele><time>2026-04-06T13:19:18.833Z</time></trkpt><trkpt lat="43.14749" lon="11.444645"><ele>171.0</ele><time>2026-04-06T13:19:19.839Z</time></trkpt><trkpt lat="43.1474017" lon="11.44461"><ele>171.0</ele><time>2026-04-06T13:19:20.829Z</time></trkpt><trkpt lat="43.1473033" lon="11.4445867"><ele>169.20000000000002</ele><time>2026-04-06T13:19:21.824Z</time></trkpt><trkpt lat="43.1472017" lon="11.4445633"><ele>167.4</ele><time>2026-04-06T13:19:22.831Z</time></trkpt><trkpt lat="43.1471" lon="11.4445467"><ele>165.6</ele><time>2026-04-06T13:19:23.83Z</time></trkpt><trkpt lat="43.146995" lon="11.44454"><ele>163.8</ele><time>2026-04-06T13:19:24.829Z</time></trkpt><trkpt lat="43.14689" lon="11.444535"><ele>162.0</ele><time>2026-04-06T13:19:25.833Z</time></trkpt><trkpt lat="43.1467883" lon="11.4445383"><ele>162.0</ele><time>2026-04-06T13:19:26.827Z</time></trkpt><trkpt lat="43.146685" lon="11.44455"><ele>162.0</ele><time>2026-04-06T13:19:27.824Z</time></trkpt><trkpt lat="43.1465917" lon="11.4445583"><ele>162.0</ele><time>2026-04-06T13:19:28.833Z</time></trkpt><trkpt lat="43.1465017" lon="11.4445817"><ele>162.0</ele><time>2026-04-06T13:19:29.825Z</time></trkpt><trkpt lat="43.14642" lon="11.4446067"><ele>162.0</ele><time>2026-04-06T13:19:30.823Z</time></trkpt><trkpt lat="43.1463483" lon="11.44465"><ele>162.0</ele><time>2026-04-06T13:19:31.825Z</time></trkpt><trkpt lat="43.1462883" lon="11.4447117"><ele>162.0</ele><time>2026-04-06T13:19:32.824Z</time></trkpt><trkpt lat="43.1462317" lon="11.4447867"><ele>162.0</ele><time>2026-04-06T13:19:33.824Z</time></trkpt><trkpt lat="43.1461833" lon="11.4448833"><ele>162.0</ele><time>2026-04-06T13:19:34.823Z</time></trkpt><trkpt lat="43.146145" lon="11.4449983"><ele>162.0</ele><time>2026-04-06T13:19:35.829Z</time></trkpt><trkpt lat="43.1461167" lon="11.445115"><ele>162.0</ele><time>2026-04-06T13:19:36.824Z</time></trkpt><trkpt lat="43.1461017" lon="11.44523"><ele>162.0</ele><time>2026-04-06T13:19:37.825Z</time></trkpt><trkpt lat="43.1460983" lon="11.445345"><ele>162.0</ele><time>2026-04-06T13:19:38.831Z</time></trkpt><trkpt lat="43.1461133" lon="11.44546"><ele>162.0</ele><time>2026-04-06T13:19:39.823Z</time></trkpt><trkpt lat="43.1461417" lon="11.44557"><ele>162.0</ele><time>2026-04-06T13:19:40.825Z</time></trkpt><trkpt lat="43.1461717" lon="11.4456817"><ele>162.0</ele><time>2026-04-06T13:19:41.823Z</time></trkpt><trkpt lat="43.1462033" lon="11.4457933"><ele>162.0</ele><time>2026-04-06T13:19:42.836Z</time></trkpt><trkpt lat="43.1462283" lon="11.44591"><ele>161.83333333333334</ele><time>2026-04-06T13:19:43.825Z</time></trkpt><trkpt lat="43.1462567" lon="11.4460167"><ele>161.66666666666666</ele><time>2026-04-06T13:19:44.834Z</time></trkpt><trkpt lat="43.146285" lon="11.4461233"><ele>161.5</ele><time>2026-04-06T13:19:45.828Z</time></trkpt><trkpt lat="43.1463083" lon="11.4462217"><ele>161.33333333333331</ele><time>2026-04-06T13:19:46.824Z</time></trkpt><trkpt lat="43.146335" lon="11.4463217"><ele>161.16666666666666</ele><time>2026-04-06T13:19:47.824Z</time></trkpt><trkpt lat="43.1463633" lon="11.446415"><ele>161.0</ele><time>2026-04-06T13:19:48.825Z</time></trkpt><trkpt lat="43.14639" lon="11.446505"><ele>161.83333333333331</ele><time>2026-04-06T13:19:49.835Z</time></trkpt><trkpt lat="43.1464117" lon="11.4465867"><ele>162.66666666666666</ele><time>2026-04-06T13:19:50.825Z</time></trkpt><trkpt lat="43.1464317" lon="11.4467467"><ele>163.5</ele><time>2026-04-06T13:19:52.823Z</time></trkpt><trkpt lat="43.1463883" lon="11.4468833"><ele>164.33333333333334</ele><time>2026-04-06T13:19:54.831Z</time></trkpt><trkpt lat="43.1463317" lon="11.4469217"><ele>165.16666666666669</ele><time>2026-04-06T13:19:55.825Z</time></trkpt><trkpt lat="43.146265" lon="11.44694"><ele>166.0</ele><time>2026-04-06T13:19:56.825Z</time></trkpt><trkpt lat="43.1461967" lon="11.4469317"><ele>166.0</ele><time>2026-04-06T13:19:57.824Z</time></trkpt><trkpt lat="43.14612" lon="11.4469133"><ele>166.0</ele><time>2026-04-06T13:19:58.833Z</time></trkpt><trkpt lat="43.1460417" lon="11.4468933"><ele>166.0</ele><time>2026-04-06T13:19:59.824Z</time></trkpt><trkpt lat="43.1459667" lon="11.4468883"><ele>166.0</ele><time>2026-04-06T13:20:00.825Z</time></trkpt><trkpt lat="43.145875" lon="11.4468833"><ele>166.0</ele><time>2026-04-06T13:20:01.825Z</time></trkpt><trkpt lat="43.1457833" lon="11.4468733"><ele>166.0</ele><time>2026-04-06T13:20:02.827Z</time></trkpt><trkpt lat="43.1456917" lon="11.446865"><ele>165.20000000000002</ele><time>2026-04-06T13:20:03.825Z</time></trkpt><trkpt lat="43.1455983" lon="11.4468533"><ele>164.4</ele><time>2026-04-06T13:20:04.825Z</time></trkpt><trkpt lat="43.1455033" lon="11.4468883"><ele>163.6</ele><time>2026-04-06T13:20:05.83Z</time></trkpt><trkpt lat="43.14541" lon="11.446935"><ele>162.8</ele><time>2026-04-06T13:20:06.822Z</time></trkpt><trkpt lat="43.1453267" lon="11.4470117"><ele>162.0</ele><time>2026-04-06T13:20:07.828Z</time></trkpt><trkpt lat="43.145255" lon="11.4470967"><ele>163.0</ele><time>2026-04-06T13:20:08.828Z</time></trkpt><trkpt lat="43.1451867" lon="11.4471767"><ele>164.0</ele><time>2026-04-06T13:20:09.828Z</time></trkpt><trkpt lat="43.1451217" lon="11.4472517"><ele>165.0</ele><time>2026-04-06T13:20:10.824Z</time></trkpt><trkpt lat="43.1450667" lon="11.4473283"><ele>166.0</ele><time>2026-04-06T13:20:11.825Z</time></trkpt><trkpt lat="43.1450133" lon="11.4473967"><ele>167.0</ele><time>2026-04-06T13:20:12.827Z</time></trkpt><trkpt lat="43.144965" lon="11.4474667"><ele>168.0</ele><time>2026-04-06T13:20:13.827Z</time></trkpt><trkpt lat="43.144935" lon="11.4475467"><ele>168.0</ele><time>2026-04-06T13:20:14.827Z</time></trkpt><trkpt lat="43.1449167" lon="11.4476383"><ele>168.0</ele><time>2026-04-06T13:20:15.826Z</time></trkpt><trkpt lat="43.1449033" lon="11.447735"><ele>168.0</ele><time>2026-04-06T13:20:16.824Z</time></trkpt><trkpt lat="43.14489" lon="11.4478267"><ele>168.0</ele><time>2026-04-06T13:20:17.827Z</time></trkpt><trkpt lat="43.1448833" lon="11.4479167"><ele>168.0</ele><time>2026-04-06T13:20:18.826Z</time></trkpt><trkpt lat="43.1448833" lon="11.4480183"><ele>168.0</ele><time>2026-04-06T13:20:19.824Z</time></trkpt><trkpt lat="43.1448833" lon="11.4481183"><ele>168.0</ele><time>2026-04-06T13:20:20.823Z</time></trkpt><trkpt lat="43.144885" lon="11.448215"><ele>167.85714285714286</ele><time>2026-04-06T13:20:21.825Z</time></trkpt><trkpt lat="43.144875" lon="11.44831"><ele>167.71428571428572</ele><time>2026-04-06T13:20:22.829Z</time></trkpt><trkpt lat="43.1448467" lon="11.4483967"><ele>167.57142857142856</ele><time>2026-04-06T13:20:23.832Z</time></trkpt><trkpt lat="43.144805" lon="11.448475"><ele>167.42857142857144</ele><time>2026-04-06T13:20:24.824Z</time></trkpt><trkpt lat="43.14475" lon="11.44854"><ele>167.28571428571428</ele><time>2026-04-06T13:20:25.837Z</time></trkpt><trkpt lat="43.1446883" lon="11.4485917"><ele>167.14285714285714</ele><time>2026-04-06T13:20:26.824Z</time></trkpt><trkpt lat="43.1446133" lon="11.448615"><ele>167.0</ele><time>2026-04-06T13:20:27.835Z</time></trkpt><trkpt lat="43.14454" lon="11.4486333"><ele>167.0</ele><time>2026-04-06T13:20:28.828Z</time></trkpt><trkpt lat="43.1444617" lon="11.4486367"><ele>167.0</ele><time>2026-04-06T13:20:29.828Z</time></trkpt><trkpt lat="43.1443883" lon="11.44862"><ele>167.0</ele><time>2026-04-06T13:20:30.827Z</time></trkpt><trkpt lat="43.1443117" lon="11.4485933"><ele>167.0</ele><time>2026-04-06T13:20:31.825Z</time></trkpt><trkpt lat="43.14424" lon="11.4485683"><ele>167.0</ele><time>2026-04-06T13:20:32.829Z</time></trkpt><trkpt lat="43.14417" lon="11.4485467"><ele>167.0</ele><time>2026-04-06T13:20:33.826Z</time></trkpt><trkpt lat="43.1440967" lon="11.4485033"><ele>167.83333333333331</ele><time>2026-04-06T13:20:34.841Z</time></trkpt><trkpt lat="43.1440217" lon="11.4484617"><ele>168.66666666666666</ele><time>2026-04-06T13:20:35.827Z</time></trkpt><trkpt lat="43.1439433" lon="11.4484217"><ele>169.5</ele><time>2026-04-06T13:20:36.83Z</time></trkpt><trkpt lat="43.1438633" lon="11.4483667"><ele>170.33333333333334</ele><time>2026-04-06T13:20:37.828Z</time></trkpt><trkpt lat="43.1437833" lon="11.448305"><ele>171.16666666666669</ele><time>2026-04-06T13:20:38.827Z</time></trkpt><trkpt lat="43.1437033" lon="11.4482483"><ele>172.0</ele><time>2026-04-06T13:20:39.828Z</time></trkpt><trkpt lat="43.1436183" lon="11.4481833"><ele>172.0</ele><time>2026-04-06T13:20:40.826Z</time></trkpt><trkpt lat="43.1435333" lon="11.4481217"><ele>172.0</ele><time>2026-04-06T13:20:41.829Z</time></trkpt><trkpt lat="43.1434467" lon="11.448065"><ele>172.0</ele><time>2026-04-06T13:20:42.834Z</time></trkpt><trkpt lat="43.143365" lon="11.4479967"><ele>172.0</ele><time>2026-04-06T13:20:43.825Z</time></trkpt><trkpt lat="43.1432817" lon="11.4479333"><ele>172.0</ele><time>2026-04-06T13:20:44.825Z</time></trkpt><trkpt lat="43.1432033" lon="11.4478717"><ele>170.5</ele><time>2026-04-06T13:20:45.826Z</time></trkpt><trkpt lat="43.143125" lon="11.4478183"><ele>169.0</ele><time>2026-04-06T13:20:46.831Z</time></trkpt><trkpt lat="43.14305" lon="11.4477683"><ele>167.5</ele><time>2026-04-06T13:20:47.833Z</time></trkpt><trkpt lat="43.14297" lon="11.4477367"><ele>166.0</ele><time>2026-04-06T13:20:48.827Z</time></trkpt><trkpt lat="43.1428917" lon="11.4477067"><ele>164.5</ele><time>2026-04-06T13:20:49.827Z</time></trkpt><trkpt lat="43.1428133" lon="11.4476867"><ele>163.0</ele><time>2026-04-06T13:20:50.825Z</time></trkpt><trkpt lat="43.1427283" lon="11.4476767"><ele>163.0</ele><time>2026-04-06T13:20:51.826Z</time></trkpt><trkpt lat="43.1426417" lon="11.4476833"><ele>163.0</ele><time>2026-04-06T13:20:52.828Z</time></trkpt><trkpt lat="43.1425517" lon="11.4476983"><ele>163.0</ele><time>2026-04-06T13:20:53.836Z</time></trkpt><trkpt lat="43.1424633" lon="11.447715"><ele>163.0</ele><time>2026-04-06T13:20:54.825Z</time></trkpt><trkpt lat="43.1423733" lon="11.4477367"><ele>163.0</ele><time>2026-04-06T13:20:55.823Z</time></trkpt><trkpt lat="43.1422817" lon="11.4477633"><ele>162.75</ele><time>2026-04-06T13:20:56.828Z</time></trkpt><trkpt lat="43.1421917" lon="11.4477917"><ele>162.5</ele><time>2026-04-06T13:20:57.851Z</time></trkpt><trkpt lat="43.1421017" lon="11.4478167"><ele>162.25</ele><time>2026-04-06T13:20:58.824Z</time></trkpt><trkpt lat="43.14185" lon="11.4479183"><ele>162.0</ele><time>2026-04-06T13:21:01.83Z</time></trkpt><trkpt lat="43.14177" lon="11.4479517"><ele>163.5</ele><time>2026-04-06T13:21:02.829Z</time></trkpt><trkpt lat="43.14169" lon="11.4479833"><ele>165.0</ele><time>2026-04-06T13:21:03.831Z</time></trkpt><trkpt lat="43.1416133" lon="11.4480117"><ele>166.5</ele><time>2026-04-06T13:21:04.826Z</time></trkpt><trkpt lat="43.1415283" lon="11.4480383"><ele>168.0</ele><time>2026-04-06T13:21:05.828Z</time></trkpt><trkpt lat="43.1414383" lon="11.4480583"><ele>169.5</ele><time>2026-04-06T13:21:06.835Z</time></trkpt><trkpt lat="43.1413417" lon="11.44808"><ele>171.0</ele><time>2026-04-06T13:21:07.835Z</time></trkpt><trkpt lat="43.1412267" lon="11.44809"><ele>171.0</ele><time>2026-04-06T13:21:08.833Z</time></trkpt><trkpt lat="43.1411083" lon="11.44811"><ele>171.0</ele><time>2026-04-06T13:21:09.822Z</time></trkpt><trkpt lat="43.141" lon="11.4481333"><ele>171.0</ele><time>2026-04-06T13:21:10.83Z</time></trkpt><trkpt lat="43.1408983" lon="11.4481517"><ele>171.0</ele><time>2026-04-06T13:21:11.823Z</time></trkpt><trkpt lat="43.1408033" lon="11.4481683"><ele>171.0</ele><time>2026-04-06T13:21:12.83Z</time></trkpt><trkpt lat="43.1407133" lon="11.448185"><ele>170.4</ele><time>2026-04-06T13:21:13.829Z</time></trkpt><trkpt lat="43.1406233" lon="11.4481933"><ele>169.8</ele><time>2026-04-06T13:21:14.824Z</time></trkpt><trkpt lat="43.1405283" lon="11.4481933"><ele>169.20000000000002</ele><time>2026-04-06T13:21:15.824Z</time></trkpt><trkpt lat="43.1404317" lon="11.4481733"><ele>168.60000000000002</ele><time>2026-04-06T13:21:16.831Z</time></trkpt><trkpt lat="43.1403367" lon="11.448145"><ele>168.0</ele><time>2026-04-06T13:21:17.83Z</time></trkpt><trkpt lat="43.140245" lon="11.4481033"><ele>168.0</ele><time>2026-04-06T13:21:18.829Z</time></trkpt><trkpt lat="43.140155" lon="11.448065"><ele>168.0</ele><time>2026-04-06T13:21:19.827Z</time></trkpt><trkpt lat="43.14007" lon="11.4480167"><ele>168.0</ele><time>2026-04-06T13:21:20.829Z</time></trkpt><trkpt lat="43.1399967" lon="11.447975"><ele>168.0</ele><time>2026-04-06T13:21:21.832Z</time></trkpt><trkpt lat="43.13993" lon="11.4479367"><ele>168.0</ele><time>2026-04-06T13:21:22.828Z</time></trkpt><trkpt lat="43.13987" lon="11.44789"><ele>168.0</ele><time>2026-04-06T13:21:23.824Z</time></trkpt><trkpt lat="43.13981" lon="11.44785"><ele>166.85714285714286</ele><time>2026-04-06T13:21:24.823Z</time></trkpt><trkpt lat="43.1397483" lon="11.4478183"><ele>165.71428571428572</ele><time>2026-04-06T13:21:25.823Z</time></trkpt><trkpt lat="43.13968" lon="11.44781"><ele>164.57142857142856</ele><time>2026-04-06T13:21:26.83Z</time></trkpt><trkpt lat="43.1396133" lon="11.4478133"><ele>163.42857142857144</ele><time>2026-04-06T13:21:27.826Z</time></trkpt><trkpt lat="43.1395433" lon="11.4478383"><ele>162.28571428571428</ele><time>2026-04-06T13:21:28.825Z</time></trkpt><trkpt lat="43.1394783" lon="11.4478733"><ele>161.14285714285714</ele><time>2026-04-06T13:21:29.825Z</time></trkpt><trkpt lat="43.13942" lon="11.44791"><ele>160.0</ele><time>2026-04-06T13:21:30.829Z</time></trkpt><trkpt lat="43.1393717" lon="11.44798"><ele>160.0</ele><time>2026-04-06T13:21:31.831Z</time></trkpt><trkpt lat="43.139335" lon="11.4480733"><ele>160.0</ele><time>2026-04-06T13:21:32.827Z</time></trkpt><trkpt lat="43.1393133" lon="11.4481767"><ele>160.0</ele><time>2026-04-06T13:21:33.824Z</time></trkpt><trkpt lat="43.1393" lon="11.44829"><ele>160.0</ele><time>2026-04-06T13:21:34.823Z</time></trkpt><trkpt lat="43.1392883" lon="11.44841"><ele>160.0</ele><time>2026-04-06T13:21:35.829Z</time></trkpt><trkpt lat="43.13928" lon="11.448535"><ele>160.0</ele><time>2026-04-06T13:21:36.831Z</time></trkpt><trkpt lat="43.139275" lon="11.4486633"><ele>160.0</ele><time>2026-04-06T13:21:37.823Z</time></trkpt><trkpt lat="43.13927" lon="11.4488033"><ele>160.0</ele><time>2026-04-06T13:21:38.827Z</time></trkpt><trkpt lat="43.1392667" lon="11.44894"><ele>160.0</ele><time>2026-04-06T13:21:39.83Z</time></trkpt><trkpt lat="43.139265" lon="11.449065"><ele>160.0</ele><time>2026-04-06T13:21:40.826Z</time></trkpt><trkpt lat="43.139265" lon="11.4491767"><ele>160.0</ele><time>2026-04-06T13:21:41.833Z</time></trkpt><trkpt lat="43.139265" lon="11.4492833"><ele>160.0</ele><time>2026-04-06T13:21:42.825Z</time></trkpt><trkpt lat="43.1392667" lon="11.4493833"><ele>160.0</ele><time>2026-04-06T13:21:43.824Z</time></trkpt><trkpt lat="43.1392667" lon="11.4494833"><ele>160.0</ele><time>2026-04-06T13:21:44.829Z</time></trkpt><trkpt lat="43.1392633" lon="11.449585"><ele>160.0</ele><time>2026-04-06T13:21:45.828Z</time></trkpt><trkpt lat="43.1392617" lon="11.4496883"><ele>160.0</ele><time>2026-04-06T13:21:46.829Z</time></trkpt><trkpt lat="43.1392617" lon="11.44979"><ele>160.0</ele><time>2026-04-06T13:21:47.832Z</time></trkpt><trkpt lat="43.1392633" lon="11.44989"><ele>160.0</ele><time>2026-04-06T13:21:48.832Z</time></trkpt><trkpt lat="43.1392683" lon="11.4499883"><ele>160.0</ele><time>2026-04-06T13:21:49.832Z</time></trkpt><trkpt lat="43.1392717" lon="11.4500833"><ele>160.0</ele><time>2026-04-06T13:21:50.828Z</time></trkpt><trkpt lat="43.1392783" lon="11.45018"><ele>160.0</ele><time>2026-04-06T13:21:51.83Z</time></trkpt><trkpt lat="43.13929" lon="11.4502783"><ele>160.0</ele><time>2026-04-06T13:21:52.829Z</time></trkpt><trkpt lat="43.1392967" lon="11.450375"><ele>160.0</ele><time>2026-04-06T13:21:53.83Z</time></trkpt><trkpt lat="43.1392983" lon="11.4504767"><ele>160.0</ele><time>2026-04-06T13:21:54.823Z</time></trkpt><trkpt lat="43.1392967" lon="11.45058"><ele>160.0</ele><time>2026-04-06T13:21:55.827Z</time></trkpt><trkpt lat="43.1392833" lon="11.4506817"><ele>160.28571428571428</ele><time>2026-04-06T13:21:56.831Z</time></trkpt><trkpt lat="43.13927" lon="11.4507733"><ele>160.57142857142858</ele><time>2026-04-06T13:21:57.826Z</time></trkpt><trkpt lat="43.1392467" lon="11.4508617"><ele>160.85714285714286</ele><time>2026-04-06T13:21:58.825Z</time></trkpt><trkpt lat="43.13922" lon="11.4509467"><ele>161.14285714285714</ele><time>2026-04-06T13:21:59.824Z</time></trkpt><trkpt lat="43.13919" lon="11.4510267"><ele>161.42857142857142</ele><time>2026-04-06T13:22:00.826Z</time></trkpt><trkpt lat="43.1391517" lon="11.45111"><ele>161.71428571428572</ele><time>2026-04-06T13:22:01.828Z</time></trkpt><trkpt lat="43.139105" lon="11.4511967"><ele>162.0</ele><time>2026-04-06T13:22:02.831Z</time></trkpt><trkpt lat="43.1390567" lon="11.4512767"><ele>160.83333333333334</ele><time>2026-04-06T13:22:03.826Z</time></trkpt><trkpt lat="43.13901" lon="11.4513567"><ele>159.66666666666666</ele><time>2026-04-06T13:22:04.824Z</time></trkpt><trkpt lat="43.1389667" lon="11.45144"><ele>158.5</ele><time>2026-04-06T13:22:05.829Z</time></trkpt><trkpt lat="43.1389233" lon="11.4515267"><ele>157.33333333333331</ele><time>2026-04-06T13:22:06.825Z</time></trkpt><trkpt lat="43.1388767" lon="11.4516183"><ele>156.16666666666666</ele><time>2026-04-06T13:22:07.823Z</time></trkpt><trkpt lat="43.1388267" lon="11.4517117"><ele>155.0</ele><time>2026-04-06T13:22:08.823Z</time></trkpt><trkpt lat="43.1387767" lon="11.4518"><ele>155.0</ele><time>2026-04-06T13:22:09.823Z</time></trkpt><trkpt lat="43.1387267" lon="11.4518833"><ele>155.0</ele><time>2026-04-06T13:22:10.825Z</time></trkpt><trkpt lat="43.1386783" lon="11.4519633"><ele>155.0</ele><time>2026-04-06T13:22:11.823Z</time></trkpt><trkpt lat="43.13863" lon="11.45204"><ele>155.0</ele><time>2026-04-06T13:22:12.826Z</time></trkpt><trkpt lat="43.13858" lon="11.45211"><ele>155.0</ele><time>2026-04-06T13:22:13.832Z</time></trkpt><trkpt lat="43.1385317" lon="11.45218"><ele>155.0</ele><time>2026-04-06T13:22:14.834Z</time></trkpt><trkpt lat="43.138485" lon="11.45225"><ele>155.0</ele><time>2026-04-06T13:22:15.835Z</time></trkpt><trkpt lat="43.1384333" lon="11.4523167"><ele>154.66666666666666</ele><time>2026-04-06T13:22:16.832Z</time></trkpt><trkpt lat="43.1383833" lon="11.4523817"><ele>154.33333333333331</ele><time>2026-04-06T13:22:17.833Z</time></trkpt><trkpt lat="43.1383317" lon="11.4524483"><ele>154.0</ele><time>2026-04-06T13:22:18.831Z</time></trkpt><trkpt lat="43.1382783" lon="11.452515"><ele>153.66666666666666</ele><time>2026-04-06T13:22:19.83Z</time></trkpt><trkpt lat="43.1382217" lon="11.452575"><ele>153.33333333333334</ele><time>2026-04-06T13:22:20.83Z</time></trkpt><trkpt lat="43.1381633" lon="11.4526233"><ele>153.0</ele><time>2026-04-06T13:22:21.83Z</time></trkpt><trkpt lat="43.1380667" lon="11.4527"><ele>153.0</ele><time>2026-04-06T13:22:23.833Z</time></trkpt><trkpt lat="43.1379717" lon="11.452735"><ele>153.0</ele><time>2026-04-06T13:22:53.829Z</time></trkpt><trkpt lat="43.1379067" lon="11.452775"><ele>153.0</ele><time>2026-04-06T13:22:54.835Z</time></trkpt><trkpt lat="43.13782" lon="11.4528317"><ele>153.0</ele><time>2026-04-06T13:22:55.825Z</time></trkpt><trkpt lat="43.1377333" lon="11.4528967"><ele>153.0</ele><time>2026-04-06T13:22:56.826Z</time></trkpt><trkpt lat="43.1376467" lon="11.4529567"><ele>153.0</ele><time>2026-04-06T13:22:57.828Z</time></trkpt><trkpt lat="43.13757" lon="11.453005"><ele>153.0</ele><time>2026-04-06T13:22:58.829Z</time></trkpt><trkpt lat="43.1374883" lon="11.45306"><ele>153.0</ele><time>2026-04-06T13:22:59.826Z</time></trkpt><trkpt lat="43.1374067" lon="11.4531117"><ele>153.0</ele><time>2026-04-06T13:23:00.825Z</time></trkpt><trkpt lat="43.1373267" lon="11.453175"><ele>153.0</ele><time>2026-04-06T13:23:01.831Z</time></trkpt><trkpt lat="43.1372367" lon="11.4532633"><ele>153.0</ele><time>2026-04-06T13:23:02.829Z</time></trkpt><trkpt lat="43.1371383" lon="11.4533617"><ele>153.0</ele><time>2026-04-06T13:23:03.827Z</time></trkpt><trkpt lat="43.1370467" lon="11.4534533"><ele>153.0</ele><time>2026-04-06T13:23:04.828Z</time></trkpt><trkpt lat="43.13696" lon="11.4535383"><ele>153.0</ele><time>2026-04-06T13:23:05.835Z</time></trkpt><trkpt lat="43.1368767" lon="11.4536233"><ele>153.0</ele><time>2026-04-06T13:23:06.828Z</time></trkpt><trkpt lat="43.136795" lon="11.4537083"><ele>152.6</ele><time>2026-04-06T13:23:07.823Z</time></trkpt><trkpt lat="43.136715" lon="11.4537967"><ele>152.20000000000002</ele><time>2026-04-06T13:23:08.835Z</time></trkpt><trkpt lat="43.1366367" lon="11.4538917"><ele>151.8</ele><time>2026-04-06T13:23:09.828Z</time></trkpt><trkpt lat="43.1365617" lon="11.45399"><ele>151.4</ele><time>2026-04-06T13:23:10.828Z</time></trkpt><trkpt lat="43.1364883" lon="11.4540933"><ele>151.0</ele><time>2026-04-06T13:23:11.834Z</time></trkpt><trkpt lat="43.13642" lon="11.4542"><ele>151.0</ele><time>2026-04-06T13:23:12.825Z</time></trkpt><trkpt lat="43.1363517" lon="11.4543117"><ele>151.0</ele><time>2026-04-06T13:23:13.83Z</time></trkpt><trkpt lat="43.1362833" lon="11.4544317"><ele>151.0</ele><time>2026-04-06T13:23:14.828Z</time></trkpt><trkpt lat="43.1362183" lon="11.4545567"><ele>151.0</ele><time>2026-04-06T13:23:15.828Z</time></trkpt><trkpt lat="43.1361533" lon="11.4546917"><ele>151.0</ele><time>2026-04-06T13:23:16.831Z</time></trkpt><trkpt lat="43.1360883" lon="11.454835"><ele>152.25</ele><time>2026-04-06T13:23:17.825Z</time></trkpt><trkpt lat="43.1360217" lon="11.454975"><ele>153.5</ele><time>2026-04-06T13:23:18.834Z</time></trkpt><trkpt lat="43.13596" lon="11.45511"><ele>154.75</ele><time>2026-04-06T13:23:19.831Z</time></trkpt><trkpt lat="43.1359" lon="11.45524"><ele>156.0</ele><time>2026-04-06T13:23:20.831Z</time></trkpt><trkpt lat="43.1358367" lon="11.4553583"><ele>155.2</ele><time>2026-04-06T13:23:21.83Z</time></trkpt><trkpt lat="43.135765" lon="11.4554717"><ele>154.39999999999998</ele><time>2026-04-06T13:23:22.83Z</time></trkpt><trkpt lat="43.1356917" lon="11.4555783"><ele>153.6</ele><time>2026-04-06T13:23:23.834Z</time></trkpt><trkpt lat="43.1356067" lon="11.45568"><ele>152.79999999999998</ele><time>2026-04-06T13:23:24.829Z</time></trkpt><trkpt lat="43.1355167" lon="11.4557783"><ele>152.0</ele><time>2026-04-06T13:23:25.828Z</time></trkpt><trkpt lat="43.1354217" lon="11.455875"><ele>152.0</ele><time>2026-04-06T13:23:26.835Z</time></trkpt><trkpt lat="43.135325" lon="11.4559717"><ele>152.0</ele><time>2026-04-06T13:23:27.826Z</time></trkpt><trkpt lat="43.1352317" lon="11.4560717"><ele>152.0</ele><time>2026-04-06T13:23:28.828Z</time></trkpt><trkpt lat="43.1351367" lon="11.4561667"><ele>152.0</ele><time>2026-04-06T13:23:29.825Z</time></trkpt><trkpt lat="43.135045" lon="11.4562617"><ele>152.0</ele><time>2026-04-06T13:23:30.824Z</time></trkpt><trkpt lat="43.1349533" lon="11.45635"><ele>152.0</ele><time>2026-04-06T13:23:31.824Z</time></trkpt><trkpt lat="43.1348667" lon="11.4564417"><ele>152.0</ele><time>2026-04-06T13:23:32.832Z</time></trkpt><trkpt lat="43.1347783" lon="11.4565367"><ele>152.0</ele><time>2026-04-06T13:23:33.83Z</time></trkpt><trkpt lat="43.134685" lon="11.4566317"><ele>152.0</ele><time>2026-04-06T13:23:34.828Z</time></trkpt><trkpt lat="43.1345917" lon="11.4567233"><ele>152.0</ele><time>2026-04-06T13:23:35.826Z</time></trkpt><trkpt lat="43.1344967" lon="11.45682"><ele>152.0</ele><time>2026-04-06T13:23:36.826Z</time></trkpt><trkpt lat="43.1344" lon="11.456915"><ele>152.0</ele><time>2026-04-06T13:23:37.831Z</time></trkpt><trkpt lat="43.1343033" lon="11.4570117"><ele>152.0</ele><time>2026-04-06T13:23:38.83Z</time></trkpt><trkpt lat="43.1342033" lon="11.45711"><ele>152.0</ele><time>2026-04-06T13:23:39.825Z</time></trkpt><trkpt lat="43.1341033" lon="11.4572067"><ele>152.0</ele><time>2026-04-06T13:23:40.827Z</time></trkpt><trkpt lat="43.134005" lon="11.457305"><ele>152.0</ele><time>2026-04-06T13:23:41.833Z</time></trkpt><trkpt lat="43.133905" lon="11.4574033"><ele>151.5</ele><time>2026-04-06T13:23:42.828Z</time></trkpt><trkpt lat="43.133805" lon="11.4575017"><ele>151.0</ele><time>2026-04-06T13:23:43.825Z</time></trkpt><trkpt lat="43.1337033" lon="11.4576017"><ele>150.5</ele><time>2026-04-06T13:23:44.825Z</time></trkpt><trkpt lat="43.1336067" lon="11.4576933"><ele>150.0</ele><time>2026-04-06T13:23:45.824Z</time></trkpt><trkpt lat="43.133515" lon="11.457775"><ele>150.0</ele><time>2026-04-06T13:23:46.825Z</time></trkpt><trkpt lat="43.1334233" lon="11.457855"><ele>150.0</ele><time>2026-04-06T13:23:47.824Z</time></trkpt><trkpt lat="43.1333367" lon="11.4579283"><ele>150.0</ele><time>2026-04-06T13:23:48.828Z</time></trkpt><trkpt lat="43.1332583" lon="11.4579967"><ele>150.0</ele><time>2026-04-06T13:23:49.829Z</time></trkpt><trkpt lat="43.1331933" lon="11.4580617"><ele>150.0</ele><time>2026-04-06T13:23:50.824Z</time></trkpt><trkpt lat="43.1331333" lon="11.45813"><ele>149.5</ele><time>2026-04-06T13:23:51.835Z</time></trkpt><trkpt lat="43.13308" lon="11.4581983"><ele>149.0</ele><time>2026-04-06T13:23:52.828Z</time></trkpt><trkpt lat="43.1330283" lon="11.4582633"><ele>148.5</ele><time>2026-04-06T13:23:53.825Z</time></trkpt><trkpt lat="43.1329767" lon="11.45833"><ele>148.0</ele><time>2026-04-06T13:23:54.826Z</time></trkpt><trkpt lat="43.132925" lon="11.4583933"><ele>147.5</ele><time>2026-04-06T13:23:55.825Z</time></trkpt><trkpt lat="43.132875" lon="11.4584567"><ele>147.0</ele><time>2026-04-06T13:23:56.83Z</time></trkpt><trkpt lat="43.1327983" lon="11.4585583"><ele>147.0</ele><time>2026-04-06T13:23:58.823Z</time></trkpt><trkpt lat="43.1327417" lon="11.4586367"><ele>147.0</ele><time>2026-04-06T13:24:00.824Z</time></trkpt><trkpt lat="43.1326867" lon="11.4587133"><ele>147.0</ele><time>2026-04-06T13:24:02.828Z</time></trkpt><trkpt lat="43.132635" lon="11.4588117"><ele>147.0</ele><time>2026-04-06T13:24:04.826Z</time></trkpt><trkpt lat="43.1325917" lon="11.4589083"><ele>147.0</ele><time>2026-04-06T13:24:06.823Z</time></trkpt><trkpt lat="43.1325533" lon="11.4590033"><ele>147.0</ele><time>2026-04-06T13:24:08.824Z</time></trkpt><trkpt lat="43.1325267" lon="11.4590967"><ele>146.71428571428572</ele><time>2026-04-06T13:24:10.825Z</time></trkpt><trkpt lat="43.132505" lon="11.4591967"><ele>146.42857142857144</ele><time>2026-04-06T13:24:12.828Z</time></trkpt><trkpt lat="43.1324783" lon="11.459305"><ele>146.14285714285714</ele><time>2026-04-06T13:24:14.828Z</time></trkpt><trkpt lat="43.132455" lon="11.4594033"><ele>145.85714285714286</ele><time>2026-04-06T13:24:16.832Z</time></trkpt><trkpt lat="43.1324317" lon="11.4594917"><ele>145.57142857142858</ele><time>2026-04-06T13:24:18.826Z</time></trkpt><trkpt lat="43.1324133" lon="11.4595783"><ele>145.28571428571428</ele><time>2026-04-06T13:24:20.825Z</time></trkpt><trkpt lat="43.1323933" lon="11.459675"><ele>145.0</ele><time>2026-04-06T13:24:22.827Z</time></trkpt><trkpt lat="43.1323667" lon="11.45978"><ele>145.0</ele><time>2026-04-06T13:24:24.824Z</time></trkpt><trkpt lat="43.1323383" lon="11.45989"><ele>145.0</ele><time>2026-04-06T13:24:26.83Z</time></trkpt><trkpt lat="43.1323083" lon="11.4600183"><ele>145.0</ele><time>2026-04-06T13:24:28.826Z</time></trkpt><trkpt lat="43.132275" lon="11.4601467"><ele>145.0</ele><time>2026-04-06T13:24:30.834Z</time></trkpt><trkpt lat="43.1322467" lon="11.460265"><ele>145.0</ele><time>2026-04-06T13:24:32.831Z</time></trkpt><trkpt lat="43.13222" lon="11.4603733"><ele>145.2</ele><time>2026-04-06T13:24:34.826Z</time></trkpt><trkpt lat="43.1321867" lon="11.4604833"><ele>145.4</ele><time>2026-04-06T13:24:36.827Z</time></trkpt><trkpt lat="43.132145" lon="11.4606067"><ele>145.6</ele><time>2026-04-06T13:24:38.832Z</time></trkpt><trkpt lat="43.1321133" lon="11.4607417"><ele>145.8</ele><time>2026-04-06T13:24:40.829Z</time></trkpt><trkpt lat="43.1321017" lon="11.4608717"><ele>146.0</ele><time>2026-04-06T13:24:42.829Z</time></trkpt><trkpt lat="43.1321067" lon="11.461035"><ele>146.0</ele><time>2026-04-06T13:24:44.826Z</time></trkpt><trkpt lat="43.132115" lon="11.4611283"><ele>146.0</ele><time>2026-04-06T13:24:45.825Z</time></trkpt><trkpt lat="43.1321217" lon="11.46123"><ele>146.0</ele><time>2026-04-06T13:24:46.831Z</time></trkpt><trkpt lat="43.1321233" lon="11.4613333"><ele>146.0</ele><time>2026-04-06T13:24:47.827Z</time></trkpt><trkpt lat="43.1321317" lon="11.4614367"><ele>146.0</ele><time>2026-04-06T13:24:48.825Z</time></trkpt><trkpt lat="43.1321383" lon="11.46153"><ele>146.0</ele><time>2026-04-06T13:24:49.823Z</time></trkpt><trkpt lat="43.132145" lon="11.4616667"><ele>146.0</ele><time>2026-04-06T13:24:51.827Z</time></trkpt><trkpt lat="43.132095" lon="11.4617567"><ele>146.0</ele><time>2026-04-06T13:24:55.828Z</time></trkpt><trkpt lat="43.1320317" lon="11.4617683"><ele>146.0</ele><time>2026-04-06T13:24:58.827Z</time></trkpt><trkpt lat="43.1319633" lon="11.4617033"><ele>146.0</ele><time>2026-04-06T13:25:02.831Z</time></trkpt><trkpt lat="43.1286233" lon="11.4557683"><ele>153.25</ele><time>2026-04-06T13:26:50.832Z</time></trkpt><trkpt lat="43.12854" lon="11.45565"><ele>160.5</ele><time>2026-04-06T13:26:51.834Z</time></trkpt><trkpt lat="43.1284517" lon="11.4555517"><ele>167.75</ele><time>2026-04-06T13:26:52.828Z</time></trkpt><trkpt lat="43.1283467" lon="11.4554633"><ele>175.0</ele><time>2026-04-06T13:26:53.828Z</time></trkpt><trkpt lat="43.1282317" lon="11.4553933"><ele>179.5</ele><time>2026-04-06T13:26:54.83Z</time></trkpt><trkpt lat="43.1281083" lon="11.4553317"><ele>184.0</ele><time>2026-04-06T13:26:55.824Z</time></trkpt><trkpt lat="43.127985" lon="11.455275"><ele>188.5</ele><time>2026-04-06T13:26:56.824Z</time></trkpt><trkpt lat="43.1278633" lon="11.4552283"><ele>193.0</ele><time>2026-04-06T13:26:57.831Z</time></trkpt><trkpt lat="43.1277483" lon="11.4551767"><ele>193.0</ele><time>2026-04-06T13:26:58.831Z</time></trkpt><trkpt lat="43.12763" lon="11.45513"><ele>193.0</ele><time>2026-04-06T13:26:59.829Z</time></trkpt><trkpt lat="43.1275167" lon="11.4550867"><ele>193.0</ele><time>2026-04-06T13:27:00.824Z</time></trkpt><trkpt lat="43.12741" lon="11.455035"><ele>193.0</ele><time>2026-04-06T13:27:01.84Z</time></trkpt><trkpt lat="43.1273067" lon="11.454975"><ele>195.2</ele><time>2026-04-06T13:27:02.836Z</time></trkpt><trkpt lat="43.127205" lon="11.4548983"><ele>197.4</ele><time>2026-04-06T13:27:03.831Z</time></trkpt><trkpt lat="43.1271183" lon="11.4548033"><ele>199.6</ele><time>2026-04-06T13:27:04.837Z</time></trkpt><trkpt lat="43.1270467" lon="11.454705"><ele>201.79999999999998</ele><time>2026-04-06T13:27:05.824Z</time></trkpt><trkpt lat="43.126985" lon="11.4546017"><ele>204.0</ele><time>2026-04-06T13:27:06.829Z</time></trkpt><trkpt lat="43.1269317" lon="11.4544933"><ele>206.25</ele><time>2026-04-06T13:27:07.832Z</time></trkpt><trkpt lat="43.1268833" lon="11.4543817"><ele>208.5</ele><time>2026-04-06T13:27:08.826Z</time></trkpt><trkpt lat="43.1268433" lon="11.4542683"><ele>210.75</ele><time>2026-04-06T13:27:09.832Z</time></trkpt><trkpt lat="43.12679" lon="11.4540133"><ele>213.0</ele><time>2026-04-06T13:27:11.829Z</time></trkpt><trkpt lat="43.126775" lon="11.45387"><ele>214.5</ele><time>2026-04-06T13:27:12.832Z</time></trkpt><trkpt lat="43.1267667" lon="11.4537183"><ele>216.0</ele><time>2026-04-06T13:27:13.835Z</time></trkpt><trkpt lat="43.12676" lon="11.4535583"><ele>217.5</ele><time>2026-04-06T13:27:14.827Z</time></trkpt><trkpt lat="43.1267533" lon="11.4533917"><ele>219.0</ele><time>2026-04-06T13:27:15.825Z</time></trkpt><trkpt lat="43.1267483" lon="11.453215"><ele>219.0</ele><time>2026-04-06T13:27:16.825Z</time></trkpt><trkpt lat="43.1267467" lon="11.453035"><ele>219.0</ele><time>2026-04-06T13:27:17.825Z</time></trkpt><trkpt lat="43.12675" lon="11.452855"><ele>219.0</ele><time>2026-04-06T13:27:18.825Z</time></trkpt><trkpt lat="43.12675" lon="11.45269"><ele>219.0</ele><time>2026-04-06T13:27:19.828Z</time></trkpt><trkpt lat="43.1267533" lon="11.4525317"><ele>219.75</ele><time>2026-04-06T13:27:20.828Z</time></trkpt><trkpt lat="43.1267483" lon="11.4523683"><ele>220.5</ele><time>2026-04-06T13:27:21.837Z</time></trkpt><trkpt lat="43.1267367" lon="11.45219"><ele>221.25</ele><time>2026-04-06T13:27:22.829Z</time></trkpt><trkpt lat="43.1267183" lon="11.45199"><ele>222.0</ele><time>2026-04-06T13:27:23.842Z</time></trkpt><trkpt lat="43.1266933" lon="11.4517617"><ele>223.0</ele><time>2026-04-06T13:27:24.829Z</time></trkpt><trkpt lat="43.126665" lon="11.4515167"><ele>224.0</ele><time>2026-04-06T13:27:25.833Z</time></trkpt><trkpt lat="43.1266217" lon="11.45127"><ele>225.0</ele><time>2026-04-06T13:27:26.831Z</time></trkpt><trkpt lat="43.1265567" lon="11.4510167"><ele>225.0</ele><time>2026-04-06T13:27:27.829Z</time></trkpt><trkpt lat="43.1264767" lon="11.4507617"><ele>225.0</ele><time>2026-04-06T13:27:28.831Z</time></trkpt><trkpt lat="43.12639" lon="11.4505183"><ele>225.0</ele><time>2026-04-06T13:27:29.825Z</time></trkpt><trkpt lat="43.12632" lon="11.450295"><ele>227.0</ele><time>2026-04-06T13:27:30.823Z</time></trkpt><trkpt lat="43.1262033" lon="11.4499167"><ele>229.0</ele><time>2026-04-06T13:27:32.826Z</time></trkpt><trkpt lat="43.12615" lon="11.44975"><ele>231.0</ele><time>2026-04-06T13:27:33.825Z</time></trkpt><trkpt lat="43.126095" lon="11.44959"><ele>233.0</ele><time>2026-04-06T13:27:34.824Z</time></trkpt><trkpt lat="43.1260233" lon="11.44945"><ele>235.0</ele><time>2026-04-06T13:27:35.824Z</time></trkpt><trkpt lat="43.1259333" lon="11.4493283"><ele>237.0</ele><time>2026-04-06T13:27:36.83Z</time></trkpt><trkpt lat="43.12582" lon="11.4492333"><ele>239.0</ele><time>2026-04-06T13:27:37.829Z</time></trkpt><trkpt lat="43.1256967" lon="11.44916"><ele>239.0</ele><time>2026-04-06T13:27:38.83Z</time></trkpt><trkpt lat="43.1255717" lon="11.4491083"><ele>239.0</ele><time>2026-04-06T13:27:39.823Z</time></trkpt><trkpt lat="43.125455" lon="11.4490617"><ele>239.0</ele><time>2026-04-06T13:27:40.827Z</time></trkpt><trkpt lat="43.1253417" lon="11.4490183"><ele>239.0</ele><time>2026-04-06T13:27:41.825Z</time></trkpt><trkpt lat="43.1252367" lon="11.4489833"><ele>239.00000000000003</ele><time>2026-04-06T13:27:42.83Z</time></trkpt><trkpt lat="43.12514" lon="11.448945"><ele>239.0</ele><time>2026-04-06T13:27:43.829Z</time></trkpt><trkpt lat="43.1250483" lon="11.44891"><ele>239.0</ele><time>2026-04-06T13:27:44.83Z</time></trkpt><trkpt lat="43.1249633" lon="11.44887"><ele>239.0</ele><time>2026-04-06T13:27:45.83Z</time></trkpt><trkpt lat="43.124885" lon="11.4488233"><ele>239.00000000000003</ele><time>2026-04-06T13:27:46.828Z</time></trkpt><trkpt lat="43.12482" lon="11.44878"><ele>239.0</ele><time>2026-04-06T13:27:47.831Z</time></trkpt><trkpt lat="43.1247317" lon="11.44871"><ele>239.2</ele><time>2026-04-06T13:27:49.823Z</time></trkpt><trkpt lat="43.124655" lon="11.4486917"><ele>239.39999999999998</ele><time>2026-04-06T13:27:52.829Z</time></trkpt><trkpt lat="43.1245617" lon="11.44884"><ele>239.6</ele><time>2026-04-06T13:28:10.83Z</time></trkpt><trkpt lat="43.1245067" lon="11.4489383"><ele>239.8</ele><time>2026-04-06T13:28:12.83Z</time></trkpt><trkpt lat="43.1244317" lon="11.449025"><ele>240.0</ele><time>2026-04-06T13:28:14.831Z</time></trkpt><trkpt lat="43.1242733" lon="11.4491967"><ele>239.4</ele><time>2026-04-06T13:28:18.825Z</time></trkpt><trkpt lat="43.1241617" lon="11.44924"><ele>238.8</ele><time>2026-04-06T13:28:20.828Z</time></trkpt><trkpt lat="43.1240833" lon="11.4492417"><ele>238.2</ele><time>2026-04-06T13:28:21.833Z</time></trkpt><trkpt lat="43.124" lon="11.449235"><ele>237.6</ele><time>2026-04-06T13:28:22.825Z</time></trkpt><trkpt lat="43.1239117" lon="11.44921"><ele>237.0</ele><time>2026-04-06T13:28:23.836Z</time></trkpt><trkpt lat="43.123825" lon="11.44918"><ele>236.5</ele><time>2026-04-06T13:28:24.833Z</time></trkpt><trkpt lat="43.123735" lon="11.4491483"><ele>236.0</ele><time>2026-04-06T13:28:25.828Z</time></trkpt><trkpt lat="43.1236467" lon="11.4491167"><ele>235.5</ele><time>2026-04-06T13:28:26.832Z</time></trkpt><trkpt lat="43.12356" lon="11.4490867"><ele>235.0</ele><time>2026-04-06T13:28:27.829Z</time></trkpt><trkpt lat="43.1234733" lon="11.449055"><ele>234.5</ele><time>2026-04-06T13:28:28.827Z</time></trkpt><trkpt lat="43.12339" lon="11.449025"><ele>234.0</ele><time>2026-04-06T13:28:29.826Z</time></trkpt><trkpt lat="43.123305" lon="11.4489967"><ele>233.5</ele><time>2026-04-06T13:28:30.828Z</time></trkpt><trkpt lat="43.1232217" lon="11.448965"><ele>233.0</ele><time>2026-04-06T13:28:31.825Z</time></trkpt><trkpt lat="43.1231367" lon="11.4489333"><ele>232.5</ele><time>2026-04-06T13:28:32.834Z</time></trkpt><trkpt lat="43.1230517" lon="11.4489117"><ele>232.0</ele><time>2026-04-06T13:28:33.826Z</time></trkpt><trkpt lat="43.1229683" lon="11.4488867"><ele>231.5</ele><time>2026-04-06T13:28:34.824Z</time></trkpt><trkpt lat="43.1228867" lon="11.44886"><ele>231.0</ele><time>2026-04-06T13:28:35.826Z</time></trkpt><trkpt lat="43.1225183" lon="11.448725"><ele>230.8</ele><time>2026-04-06T13:29:42.828Z</time></trkpt><trkpt lat="43.1224267" lon="11.4487033"><ele>230.60000000000002</ele><time>2026-04-06T13:29:43.825Z</time></trkpt><trkpt lat="43.1223183" lon="11.4486667"><ele>230.4</ele><time>2026-04-06T13:29:44.825Z</time></trkpt><trkpt lat="43.122205" lon="11.4486267"><ele>230.2</ele><time>2026-04-06T13:29:45.824Z</time></trkpt><trkpt lat="43.12209" lon="11.448585"><ele>230.0</ele><time>2026-04-06T13:29:46.824Z</time></trkpt><trkpt lat="43.1219783" lon="11.448545"><ele>228.5</ele><time>2026-04-06T13:29:47.824Z</time></trkpt><trkpt lat="43.1218633" lon="11.4485017"><ele>227.0</ele><time>2026-04-06T13:29:48.827Z</time></trkpt><trkpt lat="43.121745" lon="11.4484583"><ele>225.5</ele><time>2026-04-06T13:29:49.828Z</time></trkpt><trkpt lat="43.1216317" lon="11.4484117"><ele>224.0</ele><time>2026-04-06T13:29:50.825Z</time></trkpt><trkpt lat="43.1215267" lon="11.4483433"><ele>222.25</ele><time>2026-04-06T13:29:51.824Z</time></trkpt><trkpt lat="43.1214333" lon="11.44824"><ele>220.5</ele><time>2026-04-06T13:29:52.83Z</time></trkpt><trkpt lat="43.1213467" lon="11.4481"><ele>218.75</ele><time>2026-04-06T13:29:53.826Z</time></trkpt><trkpt lat="43.12127" lon="11.447925"><ele>217.0</ele><time>2026-04-06T13:29:54.828Z</time></trkpt><trkpt lat="43.1212017" lon="11.4477417"><ele>217.0</ele><time>2026-04-06T13:29:55.827Z</time></trkpt><trkpt lat="43.12114" lon="11.4475683"><ele>217.0</ele><time>2026-04-06T13:29:56.829Z</time></trkpt><trkpt lat="43.1210867" lon="11.4473983"><ele>217.0</ele><time>2026-04-06T13:29:57.828Z</time></trkpt><trkpt lat="43.121035" lon="11.4472333"><ele>217.0</ele><time>2026-04-06T13:29:58.834Z</time></trkpt><trkpt lat="43.1209833" lon="11.4470717"><ele>216.0</ele><time>2026-04-06T13:29:59.823Z</time></trkpt><trkpt lat="43.120935" lon="11.4469167"><ele>215.0</ele><time>2026-04-06T13:30:00.828Z</time></trkpt><trkpt lat="43.120885" lon="11.4467617"><ele>214.0</ele><time>2026-04-06T13:30:01.831Z</time></trkpt><trkpt lat="43.120835" lon="11.4466033"><ele>213.0</ele><time>2026-04-06T13:30:02.827Z</time></trkpt><trkpt lat="43.1207883" lon="11.4464533"><ele>213.0</ele><time>2026-04-06T13:30:03.825Z</time></trkpt><trkpt lat="43.12075" lon="11.4463183"><ele>213.0</ele><time>2026-04-06T13:30:04.828Z</time></trkpt><trkpt lat="43.1207217" lon="11.44619"><ele>213.0</ele><time>2026-04-06T13:30:05.827Z</time></trkpt><trkpt lat="43.1206967" lon="11.446065"><ele>213.0</ele><time>2026-04-06T13:30:06.831Z</time></trkpt><trkpt lat="43.1206917" lon="11.4459367"><ele>213.0</ele><time>2026-04-06T13:30:07.824Z</time></trkpt><trkpt lat="43.1207017" lon="11.445805"><ele>212.60000000000002</ele><time>2026-04-06T13:30:08.827Z</time></trkpt><trkpt lat="43.12073" lon="11.4456717"><ele>212.20000000000002</ele><time>2026-04-06T13:30:09.824Z</time></trkpt><trkpt lat="43.120765" lon="11.4455367"><ele>211.8</ele><time>2026-04-06T13:30:10.824Z</time></trkpt><trkpt lat="43.12081" lon="11.445405"><ele>211.4</ele><time>2026-04-06T13:30:11.827Z</time></trkpt><trkpt lat="43.1208483" lon="11.4452717"><ele>211.0</ele><time>2026-04-06T13:30:12.829Z</time></trkpt><trkpt lat="43.1208733" lon="11.445135"><ele>211.0</ele><time>2026-04-06T13:30:13.827Z</time></trkpt><trkpt lat="43.1208833" lon="11.4449967"><ele>211.0</ele><time>2026-04-06T13:30:14.825Z</time></trkpt><trkpt lat="43.12086" lon="11.4448617"><ele>211.0</ele><time>2026-04-06T13:30:15.828Z</time></trkpt><trkpt lat="43.1208183" lon="11.4447417"><ele>211.0</ele><time>2026-04-06T13:30:16.824Z</time></trkpt><trkpt lat="43.120755" lon="11.4446417"><ele>211.0</ele><time>2026-04-06T13:30:17.825Z</time></trkpt><trkpt lat="43.1206683" lon="11.44454"><ele>209.25</ele><time>2026-04-06T13:30:18.825Z</time></trkpt><trkpt lat="43.120565" lon="11.4444483"><ele>207.5</ele><time>2026-04-06T13:30:19.827Z</time></trkpt><trkpt lat="43.1204467" lon="11.4443633"><ele>205.75</ele><time>2026-04-06T13:30:20.827Z</time></trkpt><trkpt lat="43.1203183" lon="11.444275"><ele>204.0</ele><time>2026-04-06T13:30:21.83Z</time></trkpt><trkpt lat="43.12018" lon="11.44419"><ele>204.0</ele><time>2026-04-06T13:30:22.825Z</time></trkpt><trkpt lat="43.12004" lon="11.444105"><ele>204.0</ele><time>2026-04-06T13:30:23.826Z</time></trkpt><trkpt lat="43.1199017" lon="11.4440167"><ele>204.0</ele><time>2026-04-06T13:30:24.83Z</time></trkpt><trkpt lat="43.1197667" lon="11.4439317"><ele>202.0</ele><time>2026-04-06T13:30:25.832Z</time></trkpt><trkpt lat="43.11964" lon="11.44384"><ele>200.0</ele><time>2026-04-06T13:30:26.834Z</time></trkpt><trkpt lat="43.1195183" lon="11.4437433"><ele>198.0</ele><time>2026-04-06T13:30:27.829Z</time></trkpt><trkpt lat="43.1194" lon="11.443655"><ele>196.0</ele><time>2026-04-06T13:30:28.827Z</time></trkpt><trkpt lat="43.1192817" lon="11.44357"><ele>194.75</ele><time>2026-04-06T13:30:29.831Z</time></trkpt><trkpt lat="43.1191683" lon="11.44348"><ele>193.5</ele><time>2026-04-06T13:30:30.824Z</time></trkpt><trkpt lat="43.1190583" lon="11.4433867"><ele>192.25</ele><time>2026-04-06T13:30:31.825Z</time></trkpt><trkpt lat="43.1189567" lon="11.4432933"><ele>191.0</ele><time>2026-04-06T13:30:32.826Z</time></trkpt><trkpt lat="43.11887" lon="11.44319"><ele>190.20000000000002</ele><time>2026-04-06T13:30:33.826Z</time></trkpt><trkpt lat="43.1187967" lon="11.4430983"><ele>189.4</ele><time>2026-04-06T13:30:34.826Z</time></trkpt><trkpt lat="43.1187283" lon="11.44301"><ele>188.6</ele><time>2026-04-06T13:30:35.827Z</time></trkpt><trkpt lat="43.118665" lon="11.4429267"><ele>187.8</ele><time>2026-04-06T13:30:36.827Z</time></trkpt><trkpt lat="43.1186017" lon="11.442845"><ele>187.0</ele><time>2026-04-06T13:30:37.828Z</time></trkpt><trkpt lat="43.1185333" lon="11.4427683"><ele>184.8</ele><time>2026-04-06T13:30:38.831Z</time></trkpt><trkpt lat="43.1184667" lon="11.442695"><ele>182.6</ele><time>2026-04-06T13:30:39.832Z</time></trkpt><trkpt lat="43.118395" lon="11.4426283"><ele>180.4</ele><time>2026-04-06T13:30:40.828Z</time></trkpt><trkpt lat="43.1183217" lon="11.4425567"><ele>178.20000000000002</ele><time>2026-04-06T13:30:41.827Z</time></trkpt><trkpt lat="43.1182417" lon="11.4424817"><ele>176.0</ele><time>2026-04-06T13:30:42.824Z</time></trkpt><trkpt lat="43.1181583" lon="11.4424083"><ele>176.0</ele><time>2026-04-06T13:30:43.83Z</time></trkpt><trkpt lat="43.1180767" lon="11.4423433"><ele>176.0</ele><time>2026-04-06T13:30:44.828Z</time></trkpt><trkpt lat="43.1179983" lon="11.44228"><ele>176.0</ele><time>2026-04-06T13:30:45.83Z</time></trkpt><trkpt lat="43.1179233" lon="11.4422267"><ele>176.0</ele><time>2026-04-06T13:30:46.824Z</time></trkpt><trkpt lat="43.1178617" lon="11.4421767"><ele>176.0</ele><time>2026-04-06T13:30:47.833Z</time></trkpt><trkpt lat="43.1177983" lon="11.44213"><ele>176.0</ele><time>2026-04-06T13:30:48.827Z</time></trkpt><trkpt lat="43.1177417" lon="11.4420833"><ele>174.16666666666666</ele><time>2026-04-06T13:30:49.828Z</time></trkpt><trkpt lat="43.1176867" lon="11.4420367"><ele>172.33333333333331</ele><time>2026-04-06T13:30:50.825Z</time></trkpt><trkpt lat="43.1175683" lon="11.4419733"><ele>170.5</ele><time>2026-04-06T13:30:52.826Z</time></trkpt><trkpt lat="43.1175" lon="11.44196"><ele>168.66666666666666</ele><time>2026-04-06T13:30:53.827Z</time></trkpt><trkpt lat="43.11743" lon="11.4419683"><ele>166.83333333333334</ele><time>2026-04-06T13:30:54.835Z</time></trkpt><trkpt lat="43.1173583" lon="11.4419933"><ele>165.0</ele><time>2026-04-06T13:30:55.828Z</time></trkpt><trkpt lat="43.1172883" lon="11.44202"><ele>165.42857142857144</ele><time>2026-04-06T13:30:56.829Z</time></trkpt><trkpt lat="43.1172183" lon="11.4420517"><ele>165.85714285714286</ele><time>2026-04-06T13:30:57.843Z</time></trkpt><trkpt lat="43.11715" lon="11.442095"><ele>166.28571428571428</ele><time>2026-04-06T13:30:58.832Z</time></trkpt><trkpt lat="43.1170867" lon="11.4421383"><ele>166.71428571428572</ele><time>2026-04-06T13:30:59.826Z</time></trkpt><trkpt lat="43.1170183" lon="11.4421767"><ele>167.14285714285714</ele><time>2026-04-06T13:31:00.835Z</time></trkpt><trkpt lat="43.116945" lon="11.4422133"><ele>167.57142857142858</ele><time>2026-04-06T13:31:01.827Z</time></trkpt><trkpt lat="43.1168717" lon="11.4422433"><ele>168.0</ele><time>2026-04-06T13:31:02.832Z</time></trkpt><trkpt lat="43.116795" lon="11.4422617"><ele>168.0</ele><time>2026-04-06T13:31:03.837Z</time></trkpt><trkpt lat="43.11672" lon="11.4422733"><ele>168.0</ele><time>2026-04-06T13:31:04.827Z</time></trkpt><trkpt lat="43.116645" lon="11.4422633"><ele>168.0</ele><time>2026-04-06T13:31:05.83Z</time></trkpt><trkpt lat="43.1165717" lon="11.442225"><ele>168.0</ele><time>2026-04-06T13:31:06.838Z</time></trkpt><trkpt lat="43.1165017" lon="11.442175"><ele>168.0</ele><time>2026-04-06T13:31:07.831Z</time></trkpt><trkpt lat="43.1164333" lon="11.4421033"><ele>168.0</ele><time>2026-04-06T13:31:08.83Z</time></trkpt><trkpt lat="43.1163617" lon="11.442025"><ele>166.5</ele><time>2026-04-06T13:31:09.838Z</time></trkpt><trkpt lat="43.1163" lon="11.44194"><ele>165.0</ele><time>2026-04-06T13:31:10.829Z</time></trkpt><trkpt lat="43.1162333" lon="11.44186"><ele>163.5</ele><time>2026-04-06T13:31:11.829Z</time></trkpt><trkpt lat="43.1161683" lon="11.4417833"><ele>162.0</ele><time>2026-04-06T13:31:12.832Z</time></trkpt><trkpt lat="43.116105" lon="11.4417083"><ele>160.5</ele><time>2026-04-06T13:31:13.831Z</time></trkpt><trkpt lat="43.1160417" lon="11.44164"><ele>159.0</ele><time>2026-04-06T13:31:14.829Z</time></trkpt><trkpt lat="43.1159833" lon="11.441575"><ele>159.0</ele><time>2026-04-06T13:31:15.831Z</time></trkpt><trkpt lat="43.1159267" lon="11.441515"><ele>159.0</ele><time>2026-04-06T13:31:16.827Z</time></trkpt><trkpt lat="43.1158667" lon="11.4414483"><ele>159.0</ele><time>2026-04-06T13:31:17.826Z</time></trkpt><trkpt lat="43.11581" lon="11.4413783"><ele>159.0</ele><time>2026-04-06T13:31:18.826Z</time></trkpt><trkpt lat="43.1157417" lon="11.4413167"><ele>159.0</ele><time>2026-04-06T13:31:19.829Z</time></trkpt><trkpt lat="43.1156667" lon="11.441275"><ele>159.0</ele><time>2026-04-06T13:31:20.83Z</time></trkpt><trkpt lat="43.115585" lon="11.44125"><ele>157.6</ele><time>2026-04-06T13:31:21.826Z</time></trkpt><trkpt lat="43.115505" lon="11.44124"><ele>156.2</ele><time>2026-04-06T13:31:22.824Z</time></trkpt><trkpt lat="43.11542" lon="11.4412467"><ele>154.79999999999998</ele><time>2026-04-06T13:31:23.829Z</time></trkpt><trkpt lat="43.1153267" lon="11.441265"><ele>153.4</ele><time>2026-04-06T13:31:24.828Z</time></trkpt><trkpt lat="43.1152317" lon="11.4412867"><ele>152.0</ele><time>2026-04-06T13:31:25.828Z</time></trkpt><trkpt lat="43.1151333" lon="11.4413017"><ele>152.0</ele><time>2026-04-06T13:31:26.83Z</time></trkpt><trkpt lat="43.1150283" lon="11.441325"><ele>152.0</ele><time>2026-04-06T13:31:27.827Z</time></trkpt><trkpt lat="43.1149067" lon="11.441345"><ele>152.0</ele><time>2026-04-06T13:31:28.824Z</time></trkpt><trkpt lat="43.1147833" lon="11.4413583"><ele>152.0</ele><time>2026-04-06T13:31:29.828Z</time></trkpt><trkpt lat="43.1146583" lon="11.4413683"><ele>149.25</ele><time>2026-04-06T13:31:30.828Z</time></trkpt><trkpt lat="43.114525" lon="11.4413767"><ele>146.5</ele><time>2026-04-06T13:31:31.827Z</time></trkpt><trkpt lat="43.1143933" lon="11.4413817"><ele>143.75</ele><time>2026-04-06T13:31:32.827Z</time></trkpt><trkpt lat="43.1142717" lon="11.4413883"><ele>141.0</ele><time>2026-04-06T13:31:33.827Z</time></trkpt><trkpt lat="43.114155" lon="11.4413933"><ele>140.25</ele><time>2026-04-06T13:31:34.826Z</time></trkpt><trkpt lat="43.11404" lon="11.441395"><ele>139.5</ele><time>2026-04-06T13:31:35.831Z</time></trkpt><trkpt lat="43.1139217" lon="11.441405"><ele>138.75</ele><time>2026-04-06T13:31:36.829Z</time></trkpt><trkpt lat="43.1138017" lon="11.4414133"><ele>138.0</ele><time>2026-04-06T13:31:37.825Z</time></trkpt><trkpt lat="43.1136833" lon="11.4414233"><ele>138.0</ele><time>2026-04-06T13:31:38.829Z</time></trkpt><trkpt lat="43.1135667" lon="11.4414367"><ele>138.0</ele><time>2026-04-06T13:31:39.831Z</time></trkpt><trkpt lat="43.1134517" lon="11.4414467"><ele>138.0</ele><time>2026-04-06T13:31:40.826Z</time></trkpt><trkpt lat="43.1133367" lon="11.44146"><ele>138.0</ele><time>2026-04-06T13:31:41.828Z</time></trkpt><trkpt lat="43.11322" lon="11.441475"><ele>137.75</ele><time>2026-04-06T13:31:42.833Z</time></trkpt><trkpt lat="43.1131" lon="11.4414833"><ele>137.5</ele><time>2026-04-06T13:31:43.824Z</time></trkpt><trkpt lat="43.1129817" lon="11.4414967"><ele>137.25</ele><time>2026-04-06T13:31:44.825Z</time></trkpt><trkpt lat="43.11286" lon="11.4415117"><ele>137.0</ele><time>2026-04-06T13:31:45.823Z</time></trkpt><trkpt lat="43.112735" lon="11.44153"><ele>137.0</ele><time>2026-04-06T13:31:46.829Z</time></trkpt><trkpt lat="43.1126017" lon="11.4415467"><ele>137.0</ele><time>2026-04-06T13:31:47.828Z</time></trkpt><trkpt lat="43.1124683" lon="11.44156"><ele>137.0</ele><time>2026-04-06T13:31:48.828Z</time></trkpt><trkpt lat="43.11234" lon="11.44157"><ele>137.0</ele><time>2026-04-06T13:31:49.825Z</time></trkpt><trkpt lat="43.1122167" lon="11.4415767"><ele>136.75</ele><time>2026-04-06T13:31:50.825Z</time></trkpt><trkpt lat="43.1120933" lon="11.4415867"><ele>136.5</ele><time>2026-04-06T13:31:51.835Z</time></trkpt><trkpt lat="43.111965" lon="11.441595"><ele>136.25</ele><time>2026-04-06T13:31:52.828Z</time></trkpt><trkpt lat="43.111835" lon="11.4416083"><ele>136.0</ele><time>2026-04-06T13:31:53.828Z</time></trkpt><trkpt lat="43.11171" lon="11.4416233"><ele>136.0</ele><time>2026-04-06T13:31:54.823Z</time></trkpt><trkpt lat="43.1115817" lon="11.4416383"><ele>136.0</ele><time>2026-04-06T13:31:55.831Z</time></trkpt><trkpt lat="43.111445" lon="11.4416583"><ele>136.0</ele><time>2026-04-06T13:31:56.834Z</time></trkpt><trkpt lat="43.111305" lon="11.44168"><ele>136.0</ele><time>2026-04-06T13:31:57.829Z</time></trkpt><trkpt lat="43.111165" lon="11.4416983"><ele>135.75</ele><time>2026-04-06T13:31:58.824Z</time></trkpt><trkpt lat="43.1110283" lon="11.4417133"><ele>135.5</ele><time>2026-04-06T13:31:59.827Z</time></trkpt><trkpt lat="43.1108967" lon="11.4417317"><ele>135.25</ele><time>2026-04-06T13:32:00.827Z</time></trkpt><trkpt lat="43.1107683" lon="11.4417467"><ele>135.0</ele><time>2026-04-06T13:32:01.83Z</time></trkpt><trkpt lat="43.1106433" lon="11.44176"><ele>134.5</ele><time>2026-04-06T13:32:02.831Z</time></trkpt><trkpt lat="43.1105167" lon="11.4417683"><ele>134.0</ele><time>2026-04-06T13:32:03.828Z</time></trkpt><trkpt lat="43.1103883" lon="11.4417733"><ele>133.5</ele><time>2026-04-06T13:32:04.83Z</time></trkpt><trkpt lat="43.1102567" lon="11.44179"><ele>133.0</ele><time>2026-04-06T13:32:05.828Z</time></trkpt><trkpt lat="43.1101217" lon="11.4418133"><ele>133.0</ele><time>2026-04-06T13:32:06.826Z</time></trkpt><trkpt lat="43.1099883" lon="11.4418533"><ele>133.0</ele><time>2026-04-06T13:32:07.83Z</time></trkpt><trkpt lat="43.109855" lon="11.4418967"><ele>133.0</ele><time>2026-04-06T13:32:08.828Z</time></trkpt><trkpt lat="43.109725" lon="11.441945"><ele>133.0</ele><time>2026-04-06T13:32:09.825Z</time></trkpt><trkpt lat="43.109595" lon="11.441995"><ele>133.0</ele><time>2026-04-06T13:32:10.827Z</time></trkpt><trkpt lat="43.1094617" lon="11.4420483"><ele>133.0</ele><time>2026-04-06T13:32:11.825Z</time></trkpt><trkpt lat="43.1093267" lon="11.4421017"><ele>133.0</ele><time>2026-04-06T13:32:12.826Z</time></trkpt><trkpt lat="43.1091883" lon="11.4421483"><ele>133.0</ele><time>2026-04-06T13:32:13.823Z</time></trkpt><trkpt lat="43.109045" lon="11.4421883"><ele>133.0</ele><time>2026-04-06T13:32:14.828Z</time></trkpt><trkpt lat="43.1089017" lon="11.4422267"><ele>133.0</ele><time>2026-04-06T13:32:15.825Z</time></trkpt><trkpt lat="43.1087567" lon="11.442265"><ele>133.0</ele><time>2026-04-06T13:32:16.827Z</time></trkpt><trkpt lat="43.108605" lon="11.4422983"><ele>133.0</ele><time>2026-04-06T13:32:17.827Z</time></trkpt><trkpt lat="43.1084583" lon="11.4423333"><ele>133.0</ele><time>2026-04-06T13:32:18.827Z</time></trkpt><trkpt lat="43.1083183" lon="11.4423633"><ele>133.0</ele><time>2026-04-06T13:32:19.827Z</time></trkpt><trkpt lat="43.108185" lon="11.4423967"><ele>133.0</ele><time>2026-04-06T13:32:20.824Z</time></trkpt><trkpt lat="43.10806" lon="11.44243"><ele>133.0</ele><time>2026-04-06T13:32:21.827Z</time></trkpt><trkpt lat="43.1079433" lon="11.4424583"><ele>133.20000000000002</ele><time>2026-04-06T13:32:22.824Z</time></trkpt><trkpt lat="43.107835" lon="11.44248"><ele>133.4</ele><time>2026-04-06T13:32:23.829Z</time></trkpt><trkpt lat="43.107735" lon="11.442495"><ele>133.60000000000002</ele><time>2026-04-06T13:32:24.824Z</time></trkpt><trkpt lat="43.1076417" lon="11.4425067"><ele>133.8</ele><time>2026-04-06T13:32:25.824Z</time></trkpt><trkpt lat="43.1075533" lon="11.4425"><ele>134.0</ele><time>2026-04-06T13:32:26.831Z</time></trkpt><trkpt lat="43.10747" lon="11.4424717"><ele>133.4</ele><time>2026-04-06T13:32:27.826Z</time></trkpt><trkpt lat="43.10739" lon="11.442415"><ele>132.8</ele><time>2026-04-06T13:32:28.828Z</time></trkpt><trkpt lat="43.1073183" lon="11.4423367"><ele>132.2</ele><time>2026-04-06T13:32:29.829Z</time></trkpt><trkpt lat="43.10725" lon="11.4422483"><ele>131.6</ele><time>2026-04-06T13:32:30.828Z</time></trkpt><trkpt lat="43.107185" lon="11.4421517"><ele>131.0</ele><time>2026-04-06T13:32:31.825Z</time></trkpt><trkpt lat="43.1071217" lon="11.4420517"><ele>131.0</ele><time>2026-04-06T13:32:32.83Z</time></trkpt><trkpt lat="43.1070583" lon="11.4419517"><ele>131.0</ele><time>2026-04-06T13:32:33.824Z</time></trkpt><trkpt lat="43.1069933" lon="11.441855"><ele>131.0</ele><time>2026-04-06T13:32:34.827Z</time></trkpt><trkpt lat="43.1069267" lon="11.4417583"><ele>131.0</ele><time>2026-04-06T13:32:35.828Z</time></trkpt><trkpt lat="43.106855" lon="11.44166"><ele>131.0</ele><time>2026-04-06T13:32:36.83Z</time></trkpt><trkpt lat="43.10678" lon="11.4415567"><ele>131.0</ele><time>2026-04-06T13:32:37.827Z</time></trkpt><trkpt lat="43.106705" lon="11.4414483"><ele>131.0</ele><time>2026-04-06T13:32:38.827Z</time></trkpt><trkpt lat="43.1066283" lon="11.4413333"><ele>131.0</ele><time>2026-04-06T13:32:39.829Z</time></trkpt><trkpt lat="43.1065483" lon="11.4412117"><ele>131.0</ele><time>2026-04-06T13:32:40.827Z</time></trkpt><trkpt lat="43.1064667" lon="11.44109"><ele>131.0</ele><time>2026-04-06T13:32:41.827Z</time></trkpt><trkpt lat="43.10638" lon="11.4409667"><ele>131.0</ele><time>2026-04-06T13:32:42.826Z</time></trkpt><trkpt lat="43.1062983" lon="11.44084"><ele>131.0</ele><time>2026-04-06T13:32:43.826Z</time></trkpt><trkpt lat="43.1062133" lon="11.440715"><ele>131.0</ele><time>2026-04-06T13:32:44.825Z</time></trkpt><trkpt lat="43.10613" lon="11.4405883"><ele>131.0</ele><time>2026-04-06T13:32:45.83Z</time></trkpt><trkpt lat="43.1060517" lon="11.44047"><ele>131.0</ele><time>2026-04-06T13:32:46.836Z</time></trkpt><trkpt lat="43.1059783" lon="11.4403617"><ele>131.0</ele><time>2026-04-06T13:32:47.827Z</time></trkpt><trkpt lat="43.1059083" lon="11.440265"><ele>131.0</ele><time>2026-04-06T13:32:48.827Z</time></trkpt><trkpt lat="43.105835" lon="11.4401683"><ele>131.0</ele><time>2026-04-06T13:32:49.825Z</time></trkpt><trkpt lat="43.1057567" lon="11.4400733"><ele>130.75</ele><time>2026-04-06T13:32:50.827Z</time></trkpt><trkpt lat="43.1056717" lon="11.4399717"><ele>130.5</ele><time>2026-04-06T13:32:51.827Z</time></trkpt><trkpt lat="43.105585" lon="11.439865"><ele>130.25</ele><time>2026-04-06T13:32:52.827Z</time></trkpt><trkpt lat="43.1054983" lon="11.4397533"><ele>130.0</ele><time>2026-04-06T13:32:53.83Z</time></trkpt><trkpt lat="43.105415" lon="11.4396433"><ele>129.75</ele><time>2026-04-06T13:32:54.825Z</time></trkpt><trkpt lat="43.105335" lon="11.4395317"><ele>129.5</ele><time>2026-04-06T13:32:55.827Z</time></trkpt><trkpt lat="43.105255" lon="11.4394133"><ele>129.25</ele><time>2026-04-06T13:32:56.831Z</time></trkpt><trkpt lat="43.1051817" lon="11.43929"><ele>129.0</ele><time>2026-04-06T13:32:57.828Z</time></trkpt><trkpt lat="43.1051017" lon="11.4391617"><ele>129.0</ele><time>2026-04-06T13:32:58.828Z</time></trkpt><trkpt lat="43.1050283" lon="11.4390367"><ele>129.0</ele><time>2026-04-06T13:32:59.826Z</time></trkpt><trkpt lat="43.10495" lon="11.4389133"><ele>129.0</ele><time>2026-04-06T13:33:00.832Z</time></trkpt><trkpt lat="43.1048667" lon="11.4387833"><ele>129.0</ele><time>2026-04-06T13:33:01.833Z</time></trkpt><trkpt lat="43.1047817" lon="11.4386517"><ele>129.5</ele><time>2026-04-06T13:33:02.83Z</time></trkpt><trkpt lat="43.1046917" lon="11.4385183"><ele>130.0</ele><time>2026-04-06T13:33:03.828Z</time></trkpt><trkpt lat="43.1046017" lon="11.438385"><ele>130.5</ele><time>2026-04-06T13:33:04.826Z</time></trkpt><trkpt lat="43.1045067" lon="11.4382467"><ele>131.0</ele><time>2026-04-06T13:33:05.825Z</time></trkpt><trkpt lat="43.1044067" lon="11.4381083"><ele>131.0</ele><time>2026-04-06T13:33:06.829Z</time></trkpt><trkpt lat="43.1043133" lon="11.4379767"><ele>131.0</ele><time>2026-04-06T13:33:07.828Z</time></trkpt><trkpt lat="43.1042233" lon="11.43785"><ele>131.0</ele><time>2026-04-06T13:33:08.826Z</time></trkpt><trkpt lat="43.104135" lon="11.43773"><ele>131.0</ele><time>2026-04-06T13:33:09.826Z</time></trkpt><trkpt lat="43.1040483" lon="11.4376117"><ele>131.25</ele><time>2026-04-06T13:33:10.827Z</time></trkpt><trkpt lat="43.1039617" lon="11.4374983"><ele>131.5</ele><time>2026-04-06T13:33:11.843Z</time></trkpt><trkpt lat="43.1038817" lon="11.4373917"><ele>131.75</ele><time>2026-04-06T13:33:12.823Z</time></trkpt><trkpt lat="43.103805" lon="11.437285"><ele>132.0</ele><time>2026-04-06T13:33:13.829Z</time></trkpt><trkpt lat="43.1037267" lon="11.4371767"><ele>132.5</ele><time>2026-04-06T13:33:14.837Z</time></trkpt><trkpt lat="43.1036467" lon="11.437065"><ele>133.0</ele><time>2026-04-06T13:33:15.828Z</time></trkpt><trkpt lat="43.1035667" lon="11.4369567"><ele>133.5</ele><time>2026-04-06T13:33:16.825Z</time></trkpt><trkpt lat="43.103485" lon="11.43684"><ele>134.0</ele><time>2026-04-06T13:33:17.833Z</time></trkpt><trkpt lat="43.1034083" lon="11.4367317"><ele>134.0</ele><time>2026-04-06T13:33:18.823Z</time></trkpt><trkpt lat="43.1033383" lon="11.4366383"><ele>134.0</ele><time>2026-04-06T13:33:19.832Z</time></trkpt><trkpt lat="43.1032717" lon="11.4365433"><ele>134.0</ele><time>2026-04-06T13:33:20.827Z</time></trkpt><trkpt lat="43.1031983" lon="11.436445"><ele>134.0</ele><time>2026-04-06T13:33:21.824Z</time></trkpt><trkpt lat="43.10312" lon="11.43634"><ele>134.0</ele><time>2026-04-06T13:33:22.828Z</time></trkpt><trkpt lat="43.1030383" lon="11.4362283"><ele>134.5</ele><time>2026-04-06T13:33:23.832Z</time></trkpt><trkpt lat="43.102955" lon="11.436115"><ele>135.0</ele><time>2026-04-06T13:33:24.824Z</time></trkpt><trkpt lat="43.1028683" lon="11.435995"><ele>135.5</ele><time>2026-04-06T13:33:25.824Z</time></trkpt><trkpt lat="43.1027833" lon="11.4358783"><ele>136.0</ele><time>2026-04-06T13:33:26.839Z</time></trkpt><trkpt lat="43.1027" lon="11.4357633"><ele>136.0</ele><time>2026-04-06T13:33:27.826Z</time></trkpt><trkpt lat="43.1026183" lon="11.4356433"><ele>136.0</ele><time>2026-04-06T13:33:28.831Z</time></trkpt><trkpt lat="43.102535" lon="11.43552"><ele>136.0</ele><time>2026-04-06T13:33:29.829Z</time></trkpt><trkpt lat="43.102455" lon="11.4354"><ele>136.0</ele><time>2026-04-06T13:33:30.852Z</time></trkpt><trkpt lat="43.1023817" lon="11.4352883"><ele>136.6</ele><time>2026-04-06T13:33:31.826Z</time></trkpt><trkpt lat="43.1023167" lon="11.435185"><ele>137.2</ele><time>2026-04-06T13:33:32.841Z</time></trkpt><trkpt lat="43.1022617" lon="11.4350833"><ele>137.8</ele><time>2026-04-06T13:33:33.834Z</time></trkpt><trkpt lat="43.1022167" lon="11.4349817"><ele>138.4</ele><time>2026-04-06T13:33:34.83Z</time></trkpt><trkpt lat="43.102185" lon="11.4348717"><ele>139.0</ele><time>2026-04-06T13:33:35.835Z</time></trkpt><trkpt lat="43.102165" lon="11.4347567"><ele>140.2</ele><time>2026-04-06T13:33:36.828Z</time></trkpt><trkpt lat="43.1021617" lon="11.4346283"><ele>141.4</ele><time>2026-04-06T13:33:37.823Z</time></trkpt><trkpt lat="43.1021717" lon="11.434485"><ele>142.6</ele><time>2026-04-06T13:33:38.834Z</time></trkpt><trkpt lat="43.10219" lon="11.43433"><ele>143.8</ele><time>2026-04-06T13:33:39.83Z</time></trkpt><trkpt lat="43.102215" lon="11.4341867"><ele>145.0</ele><time>2026-04-06T13:33:40.825Z</time></trkpt><trkpt lat="43.1022367" lon="11.4340633"><ele>145.0</ele><time>2026-04-06T13:33:41.832Z</time></trkpt><trkpt lat="43.10226" lon="11.433945"><ele>145.0</ele><time>2026-04-06T13:33:42.838Z</time></trkpt><trkpt lat="43.1022767" lon="11.4338283"><ele>145.0</ele><time>2026-04-06T13:33:43.83Z</time></trkpt><trkpt lat="43.1022983" lon="11.43371"><ele>145.0</ele><time>2026-04-06T13:33:44.833Z</time></trkpt><trkpt lat="43.102315" lon="11.43359"><ele>145.0</ele><time>2026-04-06T13:33:45.828Z</time></trkpt><trkpt lat="43.10232" lon="11.4334683"><ele>145.0</ele><time>2026-04-06T13:33:46.829Z</time></trkpt><trkpt lat="43.1023167" lon="11.4333433"><ele>145.2</ele><time>2026-04-06T13:33:47.825Z</time></trkpt><trkpt lat="43.1023017" lon="11.4332167"><ele>145.4</ele><time>2026-04-06T13:33:48.83Z</time></trkpt><trkpt lat="43.102275" lon="11.4330867"><ele>145.6</ele><time>2026-04-06T13:33:49.83Z</time></trkpt><trkpt lat="43.1022433" lon="11.4329583"><ele>145.8</ele><time>2026-04-06T13:33:50.828Z</time></trkpt><trkpt lat="43.1022017" lon="11.4328417"><ele>146.0</ele><time>2026-04-06T13:33:51.826Z</time></trkpt><trkpt lat="43.1021567" lon="11.4327317"><ele>146.0</ele><time>2026-04-06T13:33:52.827Z</time></trkpt><trkpt lat="43.1020983" lon="11.4326433"><ele>146.0</ele><time>2026-04-06T13:33:53.844Z</time></trkpt><trkpt lat="43.1020333" lon="11.432565"><ele>146.0</ele><time>2026-04-06T13:33:54.824Z</time></trkpt><trkpt lat="43.101955" lon="11.4325017"><ele>146.0</ele><time>2026-04-06T13:33:55.826Z</time></trkpt><trkpt lat="43.101865" lon="11.4324617"><ele>146.0</ele><time>2026-04-06T13:33:56.828Z</time></trkpt><trkpt lat="43.1017533" lon="11.4324433"><ele>146.0</ele><time>2026-04-06T13:33:57.828Z</time></trkpt><trkpt lat="43.1016483" lon="11.4324417"><ele>146.0</ele><time>2026-04-06T13:33:58.824Z</time></trkpt><trkpt lat="43.1015433" lon="11.4324333"><ele>146.0</ele><time>2026-04-06T13:33:59.829Z</time></trkpt><trkpt lat="43.1014383" lon="11.4324267"><ele>146.0</ele><time>2026-04-06T13:34:00.831Z</time></trkpt><trkpt lat="43.10133" lon="11.4324183"><ele>146.0</ele><time>2026-04-06T13:34:01.836Z</time></trkpt><trkpt lat="43.1012267" lon="11.43241"><ele>147.2</ele><time>2026-04-06T13:34:02.827Z</time></trkpt><trkpt lat="43.1011233" lon="11.4324033"><ele>148.39999999999998</ele><time>2026-04-06T13:34:03.828Z</time></trkpt><trkpt lat="43.1010233" lon="11.43239"><ele>149.6</ele><time>2026-04-06T13:34:04.824Z</time></trkpt><trkpt lat="43.100925" lon="11.4323817"><ele>150.79999999999998</ele><time>2026-04-06T13:34:05.831Z</time></trkpt><trkpt lat="43.1008317" lon="11.43237"><ele>152.0</ele><time>2026-04-06T13:34:06.824Z</time></trkpt><trkpt lat="43.1007367" lon="11.432365"><ele>153.5</ele><time>2026-04-06T13:34:07.829Z</time></trkpt><trkpt lat="43.100535" lon="11.4323583"><ele>155.0</ele><time>2026-04-06T13:34:09.825Z</time></trkpt><trkpt lat="43.1004317" lon="11.43235"><ele>156.5</ele><time>2026-04-06T13:34:10.826Z</time></trkpt><trkpt lat="43.1003267" lon="11.43234"><ele>158.0</ele><time>2026-04-06T13:34:11.83Z</time></trkpt><trkpt lat="43.10022" lon="11.43233"><ele>158.0</ele><time>2026-04-06T13:34:12.83Z</time></trkpt><trkpt lat="43.100105" lon="11.432315"><ele>158.0</ele><time>2026-04-06T13:34:13.828Z</time></trkpt><trkpt lat="43.09999" lon="11.4323017"><ele>158.0</ele><time>2026-04-06T13:34:14.826Z</time></trkpt><trkpt lat="43.099875" lon="11.4322933"><ele>158.0</ele><time>2026-04-06T13:34:15.828Z</time></trkpt><trkpt lat="43.0997633" lon="11.4322783"><ele>158.60000000000002</ele><time>2026-04-06T13:34:16.824Z</time></trkpt><trkpt lat="43.099655" lon="11.4322633"><ele>159.20000000000002</ele><time>2026-04-06T13:34:17.829Z</time></trkpt><trkpt lat="43.099545" lon="11.4322483"><ele>159.8</ele><time>2026-04-06T13:34:18.829Z</time></trkpt><trkpt lat="43.0994333" lon="11.4322383"><ele>160.4</ele><time>2026-04-06T13:34:19.835Z</time></trkpt><trkpt lat="43.099325" lon="11.4322333"><ele>161.0</ele><time>2026-04-06T13:34:20.828Z</time></trkpt><trkpt lat="43.0992233" lon="11.43223"><ele>161.0</ele><time>2026-04-06T13:34:21.829Z</time></trkpt><trkpt lat="43.0991267" lon="11.4322267"><ele>161.0</ele><time>2026-04-06T13:34:22.83Z</time></trkpt><trkpt lat="43.099035" lon="11.43222"><ele>161.0</ele><time>2026-04-06T13:34:23.827Z</time></trkpt><trkpt lat="43.0989483" lon="11.43221"><ele>161.0</ele><time>2026-04-06T13:34:24.825Z</time></trkpt><trkpt lat="43.0988583" lon="11.4322"><ele>161.0</ele><time>2026-04-06T13:34:25.826Z</time></trkpt><trkpt lat="43.0987633" lon="11.4321817"><ele>160.20000000000002</ele><time>2026-04-06T13:34:26.834Z</time></trkpt><trkpt lat="43.0986733" lon="11.4321533"><ele>159.4</ele><time>2026-04-06T13:34:27.84Z</time></trkpt><trkpt lat="43.098585" lon="11.4321117"><ele>158.6</ele><time>2026-04-06T13:34:28.835Z</time></trkpt><trkpt lat="43.0984967" lon="11.4320617"><ele>157.8</ele><time>2026-04-06T13:34:29.846Z</time></trkpt><trkpt lat="43.0984117" lon="11.431995"><ele>157.0</ele><time>2026-04-06T13:34:30.837Z</time></trkpt><trkpt lat="43.0983233" lon="11.4319217"><ele>158.5</ele><time>2026-04-06T13:34:31.829Z</time></trkpt><trkpt lat="43.098145" lon="11.431765"><ele>160.0</ele><time>2026-04-06T13:34:33.83Z</time></trkpt><trkpt lat="43.098055" lon="11.4316817"><ele>161.5</ele><time>2026-04-06T13:34:34.828Z</time></trkpt><trkpt lat="43.0979617" lon="11.4316033"><ele>163.0</ele><time>2026-04-06T13:34:35.826Z</time></trkpt><trkpt lat="43.0978717" lon="11.4315367"><ele>163.0</ele><time>2026-04-06T13:34:36.824Z</time></trkpt><trkpt lat="43.0977967" lon="11.43147"><ele>163.0</ele><time>2026-04-06T13:34:37.825Z</time></trkpt><trkpt lat="43.0977283" lon="11.4314133"><ele>163.0</ele><time>2026-04-06T13:34:38.826Z</time></trkpt><trkpt lat="43.0976667" lon="11.4313583"><ele>163.0</ele><time>2026-04-06T13:34:39.826Z</time></trkpt><trkpt lat="43.09761" lon="11.4313083"><ele>163.0</ele><time>2026-04-06T13:34:40.828Z</time></trkpt><trkpt lat="43.0975533" lon="11.4312617"><ele>163.0</ele><time>2026-04-06T13:34:41.828Z</time></trkpt><trkpt lat="43.0974967" lon="11.43121"><ele>163.0</ele><time>2026-04-06T13:34:42.826Z</time></trkpt><trkpt lat="43.09744" lon="11.4311517"><ele>163.66666666666669</ele><time>2026-04-06T13:34:43.827Z</time></trkpt><trkpt lat="43.09738" lon="11.4310883"><ele>164.33333333333334</ele><time>2026-04-06T13:34:44.829Z</time></trkpt><trkpt lat="43.0973217" lon="11.43103"><ele>165.0</ele><time>2026-04-06T13:34:45.828Z</time></trkpt><trkpt lat="43.09723" lon="11.4309533"><ele>165.66666666666666</ele><time>2026-04-06T13:34:47.828Z</time></trkpt><trkpt lat="43.0971533" lon="11.4308967"><ele>166.33333333333331</ele><time>2026-04-06T13:34:49.826Z</time></trkpt><trkpt lat="43.0970733" lon="11.4308333"><ele>167.0</ele><time>2026-04-06T13:34:51.833Z</time></trkpt><trkpt lat="43.0969883" lon="11.4307567"><ele>167.0</ele><time>2026-04-06T13:34:53.83Z</time></trkpt><trkpt lat="43.0968867" lon="11.43067"><ele>167.0</ele><time>2026-04-06T13:34:55.826Z</time></trkpt><trkpt lat="43.096825" lon="11.4306183"><ele>167.0</ele><time>2026-04-06T13:34:56.827Z</time></trkpt><trkpt lat="43.0967733" lon="11.43055"><ele>167.0</ele><time>2026-04-06T13:34:57.825Z</time></trkpt><trkpt lat="43.096715" lon="11.4304767"><ele>167.0</ele><time>2026-04-06T13:34:58.824Z</time></trkpt><trkpt lat="43.0966567" lon="11.4304033"><ele>167.0</ele><time>2026-04-06T13:34:59.825Z</time></trkpt><trkpt lat="43.0965933" lon="11.4303283"><ele>167.8</ele><time>2026-04-06T13:35:00.826Z</time></trkpt><trkpt lat="43.0965217" lon="11.4302467"><ele>168.6</ele><time>2026-04-06T13:35:01.824Z</time></trkpt><trkpt lat="43.0964467" lon="11.4301583"><ele>169.4</ele><time>2026-04-06T13:35:02.828Z</time></trkpt><trkpt lat="43.0963767" lon="11.4300717"><ele>170.20000000000002</ele><time>2026-04-06T13:35:03.829Z</time></trkpt><trkpt lat="43.096305" lon="11.4299783"><ele>171.0</ele><time>2026-04-06T13:35:04.825Z</time></trkpt><trkpt lat="43.09623" lon="11.4298867"><ele>171.0</ele><time>2026-04-06T13:35:05.826Z</time></trkpt><trkpt lat="43.09616" lon="11.429795"><ele>171.0</ele><time>2026-04-06T13:35:06.829Z</time></trkpt><trkpt lat="43.0960867" lon="11.4297067"><ele>171.0</ele><time>2026-04-06T13:35:07.833Z</time></trkpt><trkpt lat="43.09601" lon="11.42962"><ele>171.0</ele><time>2026-04-06T13:35:08.827Z</time></trkpt><trkpt lat="43.0959267" lon="11.4295467"><ele>171.0</ele><time>2026-04-06T13:35:09.829Z</time></trkpt><trkpt lat="43.0958383" lon="11.4294817"><ele>172.60000000000002</ele><time>2026-04-06T13:35:10.826Z</time></trkpt><trkpt lat="43.0957467" lon="11.4294183"><ele>174.2</ele><time>2026-04-06T13:35:11.824Z</time></trkpt><trkpt lat="43.095655" lon="11.429355"><ele>175.8</ele><time>2026-04-06T13:35:12.825Z</time></trkpt><trkpt lat="43.0955683" lon="11.4292917"><ele>177.39999999999998</ele><time>2026-04-06T13:35:13.827Z</time></trkpt><trkpt lat="43.095485" lon="11.429235"><ele>179.0</ele><time>2026-04-06T13:35:14.828Z</time></trkpt><trkpt lat="43.0954033" lon="11.4291733"><ele>179.0</ele><time>2026-04-06T13:35:15.829Z</time></trkpt><trkpt lat="43.0953233" lon="11.4291133"><ele>179.0</ele><time>2026-04-06T13:35:16.826Z</time></trkpt><trkpt lat="43.0952367" lon="11.4290583"><ele>179.0</ele><time>2026-04-06T13:35:17.825Z</time></trkpt><trkpt lat="43.0951567" lon="11.429"><ele>179.0</ele><time>2026-04-06T13:35:18.827Z</time></trkpt><trkpt lat="43.0950767" lon="11.4289483"><ele>179.0</ele><time>2026-04-06T13:35:19.829Z</time></trkpt><trkpt lat="43.0949983" lon="11.42889"><ele>179.5</ele><time>2026-04-06T13:35:20.83Z</time></trkpt><trkpt lat="43.09492" lon="11.4288333"><ele>180.0</ele><time>2026-04-06T13:35:21.826Z</time></trkpt><trkpt lat="43.0948483" lon="11.4287783"><ele>180.5</ele><time>2026-04-06T13:35:22.824Z</time></trkpt><trkpt lat="43.0947667" lon="11.4287183"><ele>181.0</ele><time>2026-04-06T13:35:23.832Z</time></trkpt><trkpt lat="43.0946867" lon="11.42866"><ele>181.5</ele><time>2026-04-06T13:35:24.835Z</time></trkpt><trkpt lat="43.094605" lon="11.4286083"><ele>182.0</ele><time>2026-04-06T13:35:25.832Z</time></trkpt><trkpt lat="43.094525" lon="11.4285567"><ele>182.66666666666666</ele><time>2026-04-06T13:35:26.832Z</time></trkpt><trkpt lat="43.09446" lon="11.4285083"><ele>183.33333333333331</ele><time>2026-04-06T13:35:27.828Z</time></trkpt><trkpt lat="43.0943617" lon="11.4284333"><ele>184.0</ele><time>2026-04-06T13:35:29.824Z</time></trkpt><trkpt lat="43.0942967" lon="11.42838"><ele>184.66666666666666</ele><time>2026-04-06T13:35:31.826Z</time></trkpt><trkpt lat="43.0942133" lon="11.4283233"><ele>185.33333333333334</ele><time>2026-04-06T13:35:51.825Z</time></trkpt><trkpt lat="43.09415" lon="11.4282783"><ele>186.0</ele><time>2026-04-06T13:35:52.831Z</time></trkpt><trkpt lat="43.0940633" lon="11.42822"><ele>186.5</ele><time>2026-04-06T13:35:53.825Z</time></trkpt><trkpt lat="43.0939683" lon="11.428155"><ele>187.0</ele><time>2026-04-06T13:35:54.827Z</time></trkpt><trkpt lat="43.0938583" lon="11.4280817"><ele>187.5</ele><time>2026-04-06T13:35:55.828Z</time></trkpt><trkpt lat="43.0937417" lon="11.4280017"><ele>188.0</ele><time>2026-04-06T13:35:56.824Z</time></trkpt><trkpt lat="43.0936167" lon="11.4279133"><ele>189.0</ele><time>2026-04-06T13:35:57.825Z</time></trkpt><trkpt lat="43.0934783" lon="11.42782"><ele>190.0</ele><time>2026-04-06T13:35:58.824Z</time></trkpt><trkpt lat="43.09334" lon="11.4277167"><ele>191.0</ele><time>2026-04-06T13:35:59.825Z</time></trkpt><trkpt lat="43.0931933" lon="11.427605"><ele>192.0</ele><time>2026-04-06T13:36:00.825Z</time></trkpt><trkpt lat="43.0930483" lon="11.42749"><ele>193.0</ele><time>2026-04-06T13:36:01.826Z</time></trkpt><trkpt lat="43.0929117" lon="11.42738"><ele>194.0</ele><time>2026-04-06T13:36:02.831Z</time></trkpt><trkpt lat="43.0927767" lon="11.42727"><ele>194.0</ele><time>2026-04-06T13:36:03.825Z</time></trkpt><trkpt lat="43.09264" lon="11.4271667"><ele>194.0</ele><time>2026-04-06T13:36:04.827Z</time></trkpt><trkpt lat="43.0925033" lon="11.42706"><ele>194.0</ele><time>2026-04-06T13:36:05.83Z</time></trkpt><trkpt lat="43.0923633" lon="11.426955"><ele>195.5</ele><time>2026-04-06T13:36:06.823Z</time></trkpt><trkpt lat="43.0922267" lon="11.426855"><ele>197.0</ele><time>2026-04-06T13:36:07.824Z</time></trkpt><trkpt lat="43.0920933" lon="11.426755"><ele>198.5</ele><time>2026-04-06T13:36:08.828Z</time></trkpt><trkpt lat="43.0919717" lon="11.426665"><ele>200.0</ele><time>2026-04-06T13:36:09.825Z</time></trkpt><trkpt lat="43.0918533" lon="11.4265733"><ele>200.0</ele><time>2026-04-06T13:36:10.827Z</time></trkpt><trkpt lat="43.0917333" lon="11.4265483"><ele>200.0</ele><time>2026-04-06T13:36:11.829Z</time></trkpt><trkpt lat="43.0916317" lon="11.4264683"><ele>200.0</ele><time>2026-04-06T13:36:12.826Z</time></trkpt><trkpt lat="43.0915333" lon="11.4263967"><ele>200.0</ele><time>2026-04-06T13:36:13.83Z</time></trkpt><trkpt lat="43.0914467" lon="11.42633"><ele>200.0</ele><time>2026-04-06T13:36:14.824Z</time></trkpt><trkpt lat="43.0913617" lon="11.42626"><ele>200.6</ele><time>2026-04-06T13:36:15.824Z</time></trkpt><trkpt lat="43.0912833" lon="11.4261783"><ele>201.2</ele><time>2026-04-06T13:36:16.824Z</time></trkpt><trkpt lat="43.0911983" lon="11.4261117"><ele>201.8</ele><time>2026-04-06T13:36:17.825Z</time></trkpt><trkpt lat="43.0911133" lon="11.4260517"><ele>202.4</ele><time>2026-04-06T13:36:18.829Z</time></trkpt><trkpt lat="43.0910283" lon="11.426"><ele>203.0</ele><time>2026-04-06T13:36:19.829Z</time></trkpt><trkpt lat="43.0909317" lon="11.4259583"><ele>203.0</ele><time>2026-04-06T13:36:20.823Z</time></trkpt><trkpt lat="43.0908317" lon="11.4259283"><ele>203.0</ele><time>2026-04-06T13:36:21.874Z</time></trkpt><trkpt lat="43.0907367" lon="11.4259067"><ele>203.0</ele><time>2026-04-06T13:36:22.832Z</time></trkpt><trkpt lat="43.0906367" lon="11.4258833"><ele>203.0</ele><time>2026-04-06T13:36:23.826Z</time></trkpt><trkpt lat="43.090535" lon="11.42586"><ele>203.0</ele><time>2026-04-06T13:36:24.825Z</time></trkpt><trkpt lat="43.0904233" lon="11.4258383"><ele>204.5</ele><time>2026-04-06T13:36:25.827Z</time></trkpt><trkpt lat="43.0903067" lon="11.425805"><ele>206.0</ele><time>2026-04-06T13:36:26.827Z</time></trkpt><trkpt lat="43.090185" lon="11.4257733"><ele>207.5</ele><time>2026-04-06T13:36:27.826Z</time></trkpt><trkpt lat="43.090055" lon="11.4257467"><ele>209.0</ele><time>2026-04-06T13:36:28.842Z</time></trkpt><trkpt lat="43.089925" lon="11.42571"><ele>210.25</ele><time>2026-04-06T13:36:29.824Z</time></trkpt><trkpt lat="43.0897883" lon="11.4256767"><ele>211.5</ele><time>2026-04-06T13:36:30.822Z</time></trkpt><trkpt lat="43.089655" lon="11.4256333"><ele>212.75</ele><time>2026-04-06T13:36:31.823Z</time></trkpt><trkpt lat="43.089525" lon="11.42559"><ele>214.0</ele><time>2026-04-06T13:36:32.83Z</time></trkpt><trkpt lat="43.0894" lon="11.4255467"><ele>214.0</ele><time>2026-04-06T13:36:33.829Z</time></trkpt><trkpt lat="43.0892867" lon="11.4255083"><ele>213.99999999999997</ele><time>2026-04-06T13:36:34.826Z</time></trkpt><trkpt lat="43.0891833" lon="11.4254917"><ele>213.99999999999997</ele><time>2026-04-06T13:36:35.831Z</time></trkpt><trkpt lat="43.0890933" lon="11.4254583"><ele>214.0</ele><time>2026-04-06T13:36:36.826Z</time></trkpt><trkpt lat="43.0890233" lon="11.4254017"><ele>214.0</ele><time>2026-04-06T13:36:37.827Z</time></trkpt><trkpt lat="43.088975" lon="11.4253167"><ele>218.33333333333331</ele><time>2026-04-06T13:36:38.828Z</time></trkpt><trkpt lat="43.088945" lon="11.4252167"><ele>222.66666666666666</ele><time>2026-04-06T13:36:39.823Z</time></trkpt><trkpt lat="43.088935" lon="11.425105"><ele>227.0</ele><time>2026-04-06T13:36:40.825Z</time></trkpt><trkpt lat="43.08893" lon="11.42498"><ele>231.33333333333331</ele><time>2026-04-06T13:36:41.823Z</time></trkpt><trkpt lat="43.0889333" lon="11.4248717"><ele>235.66666666666666</ele><time>2026-04-06T13:36:42.827Z</time></trkpt><trkpt lat="43.0889383" lon="11.42477"><ele>240.0</ele><time>2026-04-06T13:36:43.826Z</time></trkpt><trkpt lat="43.0889583" lon="11.42468"><ele>242.28571428571428</ele><time>2026-04-06T13:36:44.832Z</time></trkpt><trkpt lat="43.0889767" lon="11.4245833"><ele>244.57142857142856</ele><time>2026-04-06T13:36:45.826Z</time></trkpt><trkpt lat="43.0889933" lon="11.424485"><ele>246.85714285714283</ele><time>2026-04-06T13:36:46.832Z</time></trkpt><trkpt lat="43.0890133" lon="11.4243883"><ele>249.14285714285714</ele><time>2026-04-06T13:36:47.824Z</time></trkpt><trkpt lat="43.0890383" lon="11.4242933"><ele>251.4285714285714</ele><time>2026-04-06T13:36:48.829Z</time></trkpt><trkpt lat="43.0890633" lon="11.4241983"><ele>253.7142857142857</ele><time>2026-04-06T13:36:49.825Z</time></trkpt><trkpt lat="43.0890767" lon="11.4241"><ele>256.0</ele><time>2026-04-06T13:36:50.824Z</time></trkpt><trkpt lat="43.0890867" lon="11.4239933"><ele>252.99999999999997</ele><time>2026-04-06T13:36:51.825Z</time></trkpt><trkpt lat="43.0891217" lon="11.423895"><ele>250.0</ele><time>2026-04-06T13:36:52.827Z</time></trkpt><trkpt lat="43.0891417" lon="11.4237917"><ele>247.0</ele><time>2026-04-06T13:36:53.826Z</time></trkpt><trkpt lat="43.0891583" lon="11.4236867"><ele>244.0</ele><time>2026-04-06T13:36:54.825Z</time></trkpt><trkpt lat="43.0891733" lon="11.423585"><ele>240.99999999999997</ele><time>2026-04-06T13:36:55.825Z</time></trkpt><trkpt lat="43.0891783" lon="11.4234767"><ele>238.0</ele><time>2026-04-06T13:36:56.834Z</time></trkpt><trkpt lat="43.08917" lon="11.4233717"><ele>237.99999999999997</ele><time>2026-04-06T13:36:57.829Z</time></trkpt><trkpt lat="43.0891533" lon="11.4232717"><ele>238.0</ele><time>2026-04-06T13:36:58.831Z</time></trkpt><trkpt lat="43.0891233" lon="11.4231717"><ele>238.0</ele><time>2026-04-06T13:36:59.831Z</time></trkpt><trkpt lat="43.0890833" lon="11.4230633"><ele>238.0</ele><time>2026-04-06T13:37:00.825Z</time></trkpt><trkpt lat="43.0890433" lon="11.422955"><ele>237.99999999999997</ele><time>2026-04-06T13:37:01.828Z</time></trkpt><trkpt lat="43.0890067" lon="11.422855"><ele>238.0</ele><time>2026-04-06T13:37:02.83Z</time></trkpt><trkpt lat="43.088975" lon="11.4227767"><ele>242.16666666666666</ele><time>2026-04-06T13:37:03.826Z</time></trkpt><trkpt lat="43.0889117" lon="11.4226267"><ele>246.33333333333331</ele><time>2026-04-06T13:37:05.827Z</time></trkpt><trkpt lat="43.0888733" lon="11.4225383"><ele>250.5</ele><time>2026-04-06T13:37:06.83Z</time></trkpt><trkpt lat="43.0888317" lon="11.4224333"><ele>254.66666666666669</ele><time>2026-04-06T13:37:07.828Z</time></trkpt><trkpt lat="43.0887933" lon="11.4223283"><ele>258.83333333333337</ele><time>2026-04-06T13:37:08.826Z</time></trkpt><trkpt lat="43.0887617" lon="11.4222383"><ele>263.0</ele><time>2026-04-06T13:37:09.827Z</time></trkpt><trkpt lat="43.08873" lon="11.4221533"><ele>262.0</ele><time>2026-04-06T13:37:10.829Z</time></trkpt><trkpt lat="43.0886983" lon="11.42207"><ele>261.0</ele><time>2026-04-06T13:37:11.826Z</time></trkpt><trkpt lat="43.0886667" lon="11.4219883"><ele>260.0</ele><time>2026-04-06T13:37:12.828Z</time></trkpt><trkpt lat="43.0886267" lon="11.42192"><ele>259.0</ele><time>2026-04-06T13:37:13.828Z</time></trkpt><trkpt lat="43.0885367" lon="11.421815"><ele>258.0</ele><time>2026-04-06T13:37:15.828Z</time></trkpt><trkpt lat="43.0884317" lon="11.4217467"><ele>257.0</ele><time>2026-04-06T13:37:17.829Z</time></trkpt><trkpt lat="43.0883283" lon="11.4217383"><ele>260.6666666666667</ele><time>2026-04-06T13:37:19.824Z</time></trkpt><trkpt lat="43.0882417" lon="11.4217833"><ele>264.33333333333337</ele><time>2026-04-06T13:37:21.828Z</time></trkpt><trkpt lat="43.08817" lon="11.42191"><ele>268.0</ele><time>2026-04-06T13:37:23.826Z</time></trkpt><trkpt lat="43.088135" lon="11.4220033"><ele>271.6666666666667</ele><time>2026-04-06T13:37:24.824Z</time></trkpt><trkpt lat="43.0881033" lon="11.4220983"><ele>275.3333333333333</ele><time>2026-04-06T13:37:25.822Z</time></trkpt><trkpt lat="43.0880783" lon="11.422195"><ele>279.0</ele><time>2026-04-06T13:37:26.827Z</time></trkpt><trkpt lat="43.0880533" lon="11.422295"><ele>279.5</ele><time>2026-04-06T13:37:27.826Z</time></trkpt><trkpt lat="43.08803" lon="11.4223983"><ele>280.0</ele><time>2026-04-06T13:37:28.825Z</time></trkpt><trkpt lat="43.0880067" lon="11.4224983"><ele>280.5</ele><time>2026-04-06T13:37:29.824Z</time></trkpt><trkpt lat="43.087985" lon="11.4225967"><ele>281.0</ele><time>2026-04-06T13:37:30.828Z</time></trkpt><trkpt lat="43.08796" lon="11.422695"><ele>281.5</ele><time>2026-04-06T13:37:31.828Z</time></trkpt><trkpt lat="43.0879383" lon="11.4227933"><ele>282.0</ele><time>2026-04-06T13:37:32.826Z</time></trkpt><trkpt lat="43.0879083" lon="11.4229"><ele>282.1666666666667</ele><time>2026-04-06T13:37:33.827Z</time></trkpt><trkpt lat="43.08788" lon="11.4230117"><ele>282.3333333333333</ele><time>2026-04-06T13:37:34.822Z</time></trkpt><trkpt lat="43.0878467" lon="11.4231217"><ele>282.5</ele><time>2026-04-06T13:37:35.826Z</time></trkpt><trkpt lat="43.08781" lon="11.4232283"><ele>282.66666666666663</ele><time>2026-04-06T13:37:36.827Z</time></trkpt><trkpt lat="43.0877783" lon="11.4233183"><ele>282.8333333333333</ele><time>2026-04-06T13:37:37.828Z</time></trkpt><trkpt lat="43.0877267" lon="11.4234417"><ele>283.0</ele><time>2026-04-06T13:37:39.824Z</time></trkpt><trkpt lat="43.0876833" lon="11.4235083"><ele>283.0</ele><time>2026-04-06T13:37:41.826Z</time></trkpt><trkpt lat="43.087605" lon="11.42353"><ele>283.0</ele><time>2026-04-06T13:37:43.825Z</time></trkpt><trkpt lat="43.0875283" lon="11.42348"><ele>283.0</ele><time>2026-04-06T13:37:45.831Z</time></trkpt><trkpt lat="43.08747" lon="11.423365"><ele>283.0</ele><time>2026-04-06T13:37:47.828Z</time></trkpt><trkpt lat="43.08744" lon="11.423235"><ele>283.0</ele><time>2026-04-06T13:37:49.825Z</time></trkpt><trkpt lat="43.0874333" lon="11.4230967"><ele>287.5</ele><time>2026-04-06T13:37:51.828Z</time></trkpt><trkpt lat="43.0874133" lon="11.4229467"><ele>292.0</ele><time>2026-04-06T13:37:53.824Z</time></trkpt><trkpt lat="43.0873933" lon="11.422805"><ele>296.5</ele><time>2026-04-06T13:37:55.83Z</time></trkpt><trkpt lat="43.0873633" lon="11.422715"><ele>301.0</ele><time>2026-04-06T13:37:57.824Z</time></trkpt><trkpt lat="43.0873117" lon="11.42265"><ele>305.5</ele><time>2026-04-06T13:37:59.83Z</time></trkpt><trkpt lat="43.0872433" lon="11.422635"><ele>310.0</ele><time>2026-04-06T13:38:01.826Z</time></trkpt><trkpt lat="43.0871817" lon="11.4227033"><ele>310.0</ele><time>2026-04-06T13:38:03.828Z</time></trkpt><trkpt lat="43.087145" lon="11.4228483"><ele>310.0</ele><time>2026-04-06T13:38:05.829Z</time></trkpt><trkpt lat="43.0871133" lon="11.4230067"><ele>310.0</ele><time>2026-04-06T13:38:07.825Z</time></trkpt><trkpt lat="43.0870733" lon="11.4231717"><ele>310.0</ele><time>2026-04-06T13:38:09.828Z</time></trkpt><trkpt lat="43.0870533" lon="11.4232733"><ele>310.0</ele><time>2026-04-06T13:38:10.829Z</time></trkpt><trkpt lat="43.0870333" lon="11.4233717"><ele>310.0</ele><time>2026-04-06T13:38:11.829Z</time></trkpt><trkpt lat="43.0870183" lon="11.4234617"><ele>310.0</ele><time>2026-04-06T13:38:12.825Z</time></trkpt><trkpt lat="43.0869967" lon="11.4235433"><ele>310.0</ele><time>2026-04-06T13:38:13.824Z</time></trkpt><trkpt lat="43.0869483" lon="11.42369"><ele>310.0</ele><time>2026-04-06T13:38:15.828Z</time></trkpt><trkpt lat="43.0868883" lon="11.4238033"><ele>310.0</ele><time>2026-04-06T13:38:17.825Z</time></trkpt><trkpt lat="43.086795" lon="11.423875"><ele>311.6</ele><time>2026-04-06T13:38:19.827Z</time></trkpt><trkpt lat="43.0866867" lon="11.4238883"><ele>313.2</ele><time>2026-04-06T13:38:21.827Z</time></trkpt><trkpt lat="43.0865833" lon="11.4238517"><ele>314.8</ele><time>2026-04-06T13:38:23.825Z</time></trkpt><trkpt lat="43.0864983" lon="11.4237917"><ele>316.4</ele><time>2026-04-06T13:38:25.829Z</time></trkpt><trkpt lat="43.086425" lon="11.423715"><ele>318.0</ele><time>2026-04-06T13:38:27.824Z</time></trkpt><trkpt lat="43.086385" lon="11.423605"><ele>320.0</ele><time>2026-04-06T13:38:29.83Z</time></trkpt><trkpt lat="43.086395" lon="11.4234733"><ele>322.0</ele><time>2026-04-06T13:38:31.827Z</time></trkpt><trkpt lat="43.0864467" lon="11.4233383"><ele>324.0</ele><time>2026-04-06T13:38:33.831Z</time></trkpt><trkpt lat="43.086495" lon="11.4232067"><ele>326.0</ele><time>2026-04-06T13:38:35.828Z</time></trkpt><trkpt lat="43.0865267" lon="11.4230817"><ele>328.0</ele><time>2026-04-06T13:38:37.826Z</time></trkpt><trkpt lat="43.086535" lon="11.4229367"><ele>328.0</ele><time>2026-04-06T13:38:39.829Z</time></trkpt><trkpt lat="43.0865217" lon="11.4228033"><ele>328.0</ele><time>2026-04-06T13:38:41.826Z</time></trkpt><trkpt lat="43.0864833" lon="11.4227033"><ele>328.0</ele><time>2026-04-06T13:38:43.826Z</time></trkpt><trkpt lat="43.0864167" lon="11.422635"><ele>328.0</ele><time>2026-04-06T13:38:45.828Z</time></trkpt><trkpt lat="43.0863467" lon="11.4226067"><ele>328.0</ele><time>2026-04-06T13:38:47.823Z</time></trkpt><trkpt lat="43.0862567" lon="11.4226617"><ele>328.0</ele><time>2026-04-06T13:38:49.826Z</time></trkpt><trkpt lat="43.086175" lon="11.422765"><ele>328.0</ele><time>2026-04-06T13:38:51.824Z</time></trkpt><trkpt lat="43.0861067" lon="11.422895"><ele>328.0</ele><time>2026-04-06T13:38:53.824Z</time></trkpt><trkpt lat="43.08604" lon="11.4230317"><ele>328.0</ele><time>2026-04-06T13:38:55.826Z</time></trkpt><trkpt lat="43.0859733" lon="11.4231733"><ele>328.0</ele><time>2026-04-06T13:38:57.827Z</time></trkpt><trkpt lat="43.085875" lon="11.4232717"><ele>328.16666666666663</ele><time>2026-04-06T13:38:59.827Z</time></trkpt><trkpt lat="43.0858083" lon="11.42329"><ele>328.3333333333333</ele><time>2026-04-06T13:39:00.826Z</time></trkpt><trkpt lat="43.08574" lon="11.4232667"><ele>328.5</ele><time>2026-04-06T13:39:01.823Z</time></trkpt><trkpt lat="43.085665" lon="11.4231983"><ele>328.6666666666667</ele><time>2026-04-06T13:39:02.825Z</time></trkpt><trkpt lat="43.0856033" lon="11.423105"><ele>328.83333333333337</ele><time>2026-04-06T13:39:03.828Z</time></trkpt><trkpt lat="43.085555" lon="11.42299"><ele>329.0</ele><time>2026-04-06T13:39:04.83Z</time></trkpt><trkpt lat="43.085515" lon="11.4228667"><ele>333.0</ele><time>2026-04-06T13:39:05.83Z</time></trkpt><trkpt lat="43.0854783" lon="11.422735"><ele>337.0</ele><time>2026-04-06T13:39:06.824Z</time></trkpt><trkpt lat="43.0854417" lon="11.422585"><ele>341.0</ele><time>2026-04-06T13:39:07.83Z</time></trkpt><trkpt lat="43.0854033" lon="11.422435"><ele>345.0</ele><time>2026-04-06T13:39:08.828Z</time></trkpt><trkpt lat="43.085365" lon="11.4223"><ele>349.0</ele><time>2026-04-06T13:39:09.829Z</time></trkpt><trkpt lat="43.0853233" lon="11.42218"><ele>346.4</ele><time>2026-04-06T13:39:10.829Z</time></trkpt><trkpt lat="43.0852783" lon="11.4220683"><ele>343.79999999999995</ele><time>2026-04-06T13:39:11.825Z</time></trkpt><trkpt lat="43.08522" lon="11.4219717"><ele>341.20000000000005</ele><time>2026-04-06T13:39:12.831Z</time></trkpt><trkpt lat="43.0851467" lon="11.4218867"><ele>338.6</ele><time>2026-04-06T13:39:13.829Z</time></trkpt><trkpt lat="43.08508" lon="11.42181"><ele>336.0</ele><time>2026-04-06T13:39:14.827Z</time></trkpt><trkpt lat="43.08501" lon="11.4217483"><ele>337.8</ele><time>2026-04-06T13:39:15.827Z</time></trkpt><trkpt lat="43.08492" lon="11.4217067"><ele>339.6</ele><time>2026-04-06T13:39:16.823Z</time></trkpt><trkpt lat="43.0848333" lon="11.42167"><ele>341.4</ele><time>2026-04-06T13:39:17.835Z</time></trkpt><trkpt lat="43.0847483" lon="11.4216367"><ele>343.2</ele><time>2026-04-06T13:39:18.829Z</time></trkpt><trkpt lat="43.0846617" lon="11.4216017"><ele>345.0</ele><time>2026-04-06T13:39:19.828Z</time></trkpt><trkpt lat="43.0845733" lon="11.42157"><ele>345.0</ele><time>2026-04-06T13:39:20.826Z</time></trkpt><trkpt lat="43.0844817" lon="11.4215267"><ele>345.0</ele><time>2026-04-06T13:39:21.825Z</time></trkpt><trkpt lat="43.0843817" lon="11.421465"><ele>345.0</ele><time>2026-04-06T13:39:22.828Z</time></trkpt><trkpt lat="43.084275" lon="11.4213933"><ele>345.0</ele><time>2026-04-06T13:39:23.825Z</time></trkpt><trkpt lat="43.0841617" lon="11.4213033"><ele>345.5</ele><time>2026-04-06T13:39:24.827Z</time></trkpt><trkpt lat="43.0840467" lon="11.4212117"><ele>346.0</ele><time>2026-04-06T13:39:25.825Z</time></trkpt><trkpt lat="43.0839383" lon="11.4211233"><ele>346.5</ele><time>2026-04-06T13:39:26.827Z</time></trkpt><trkpt lat="43.0838367" lon="11.4210483"><ele>347.0</ele><time>2026-04-06T13:39:27.826Z</time></trkpt><trkpt lat="43.0837267" lon="11.4209833"><ele>347.0</ele><time>2026-04-06T13:39:28.828Z</time></trkpt><trkpt lat="43.08361" lon="11.4209317"><ele>347.0</ele><time>2026-04-06T13:39:29.827Z</time></trkpt><trkpt lat="43.08348" lon="11.4208833"><ele>347.0</ele><time>2026-04-06T13:39:30.827Z</time></trkpt><trkpt lat="43.0833417" lon="11.420845"><ele>347.0</ele><time>2026-04-06T13:39:31.823Z</time></trkpt><trkpt lat="43.083205" lon="11.4208067"><ele>349.0</ele><time>2026-04-06T13:39:32.833Z</time></trkpt><trkpt lat="43.083075" lon="11.420765"><ele>351.0</ele><time>2026-04-06T13:39:33.827Z</time></trkpt><trkpt lat="43.08296" lon="11.4207217"><ele>353.0</ele><time>2026-04-06T13:39:34.825Z</time></trkpt><trkpt lat="43.0828517" lon="11.42068"><ele>355.0</ele><time>2026-04-06T13:39:35.824Z</time></trkpt><trkpt lat="43.082745" lon="11.4206483"><ele>355.0</ele><time>2026-04-06T13:39:36.829Z</time></trkpt><trkpt lat="43.08264" lon="11.4206167"><ele>355.0</ele><time>2026-04-06T13:39:37.829Z</time></trkpt><trkpt lat="43.0825283" lon="11.42059"><ele>355.0</ele><time>2026-04-06T13:39:38.827Z</time></trkpt><trkpt lat="43.08241" lon="11.420565"><ele>355.0</ele><time>2026-04-06T13:39:39.827Z</time></trkpt><trkpt lat="43.0822867" lon="11.420545"><ele>354.75</ele><time>2026-04-06T13:39:40.825Z</time></trkpt><trkpt lat="43.0821533" lon="11.4205383"><ele>354.5</ele><time>2026-04-06T13:39:41.827Z</time></trkpt><trkpt lat="43.0820233" lon="11.4205133"><ele>354.25</ele><time>2026-04-06T13:39:42.831Z</time></trkpt><trkpt lat="43.0819017" lon="11.420505"><ele>354.0</ele><time>2026-04-06T13:39:43.827Z</time></trkpt><trkpt lat="43.081785" lon="11.4204717"><ele>355.25</ele><time>2026-04-06T13:39:44.825Z</time></trkpt><trkpt lat="43.08166" lon="11.420345"><ele>356.5</ele><time>2026-04-06T13:39:45.823Z</time></trkpt><trkpt lat="43.0815517" lon="11.42026"><ele>357.75</ele><time>2026-04-06T13:39:46.829Z</time></trkpt><trkpt lat="43.0814483" lon="11.4201333"><ele>359.0</ele><time>2026-04-06T13:39:47.828Z</time></trkpt><trkpt lat="43.081355" lon="11.4199967"><ele>360.4</ele><time>2026-04-06T13:39:48.828Z</time></trkpt><trkpt lat="43.08128" lon="11.41987"><ele>361.79999999999995</ele><time>2026-04-06T13:39:49.826Z</time></trkpt><trkpt lat="43.0812183" lon="11.4197583"><ele>363.20000000000005</ele><time>2026-04-06T13:39:50.825Z</time></trkpt><trkpt lat="43.081145" lon="11.4196583"><ele>364.6</ele><time>2026-04-06T13:39:51.827Z</time></trkpt><trkpt lat="43.0810633" lon="11.4195683"><ele>366.0</ele><time>2026-04-06T13:39:52.829Z</time></trkpt><trkpt lat="43.0809717" lon="11.4194967"><ele>366.0</ele><time>2026-04-06T13:39:53.828Z</time></trkpt><trkpt lat="43.080875" lon="11.4194583"><ele>366.0</ele><time>2026-04-06T13:39:54.828Z</time></trkpt><trkpt lat="43.080785" lon="11.4194367"><ele>366.0</ele><time>2026-04-06T13:39:55.825Z</time></trkpt><trkpt lat="43.0807033" lon="11.4194167"><ele>366.0</ele><time>2026-04-06T13:39:56.827Z</time></trkpt><trkpt lat="43.0806217" lon="11.4194017"><ele>366.0</ele><time>2026-04-06T13:39:57.832Z</time></trkpt><trkpt lat="43.080545" lon="11.4193917"><ele>366.0</ele><time>2026-04-06T13:39:58.831Z</time></trkpt><trkpt lat="43.080475" lon="11.41938"><ele>368.7142857142857</ele><time>2026-04-06T13:39:59.827Z</time></trkpt><trkpt lat="43.08041" lon="11.4193617"><ele>371.42857142857144</ele><time>2026-04-06T13:40:00.825Z</time></trkpt><trkpt lat="43.080345" lon="11.4193233"><ele>374.1428571428571</ele><time>2026-04-06T13:40:01.825Z</time></trkpt><trkpt lat="43.080285" lon="11.4192775"><ele>376.8571428571429</ele><time>2026-04-06T13:40:02.828Z</time></trkpt><trkpt lat="43.0802352" lon="11.4192114"><ele>379.57142857142856</ele><time>2026-04-06T13:40:03.828Z</time></trkpt><trkpt lat="43.0801907" lon="11.4191313"><ele>382.2857142857143</ele><time>2026-04-06T13:40:04.824Z</time></trkpt><trkpt lat="43.0801549" lon="11.4190409"><ele>385.0</ele><time>2026-04-06T13:40:05.825Z</time></trkpt><trkpt lat="43.0801227" lon="11.4189545"><ele>385.00000000000006</ele><time>2026-04-06T13:40:06.831Z</time></trkpt><trkpt lat="43.0800839" lon="11.4188814"><ele>385.0</ele><time>2026-04-06T13:40:07.828Z</time></trkpt><trkpt lat="43.0800306" lon="11.418813"><ele>385.0</ele><time>2026-04-06T13:40:08.824Z</time></trkpt><trkpt lat="43.0799657" lon="11.4187457"><ele>385.0</ele><time>2026-04-06T13:40:09.825Z</time></trkpt><trkpt lat="43.0798921" lon="11.4186829"><ele>385.00000000000006</ele><time>2026-04-06T13:40:10.823Z</time></trkpt><trkpt lat="43.0798173" lon="11.4186315"><ele>385.0</ele><time>2026-04-06T13:40:11.831Z</time></trkpt><trkpt lat="43.0797431" lon="11.4185902"><ele>387.00000000000006</ele><time>2026-04-06T13:40:12.828Z</time></trkpt><trkpt lat="43.0796653" lon="11.4185571"><ele>389.0</ele><time>2026-04-06T13:40:13.828Z</time></trkpt><trkpt lat="43.0795852" lon="11.4185255"><ele>391.0</ele><time>2026-04-06T13:40:14.824Z</time></trkpt><trkpt lat="43.0795013" lon="11.4184914"><ele>393.0</ele><time>2026-04-06T13:40:15.833Z</time></trkpt><trkpt lat="43.0794158" lon="11.4184518"><ele>395.00000000000006</ele><time>2026-04-06T13:40:16.831Z</time></trkpt><trkpt lat="43.0793291" lon="11.4184074"><ele>397.0</ele><time>2026-04-06T13:40:17.828Z</time></trkpt><trkpt lat="43.0792475" lon="11.418359"><ele>397.00000000000006</ele><time>2026-04-06T13:40:18.826Z</time></trkpt><trkpt lat="43.0791732" lon="11.418306"><ele>397.0</ele><time>2026-04-06T13:40:19.824Z</time></trkpt><trkpt lat="43.0791067" lon="11.418249"><ele>397.0</ele><time>2026-04-06T13:40:20.827Z</time></trkpt><trkpt lat="43.0790467" lon="11.4181862"><ele>397.0</ele><time>2026-04-06T13:40:21.829Z</time></trkpt><trkpt lat="43.0789831" lon="11.4181279"><ele>397.00000000000006</ele><time>2026-04-06T13:40:22.828Z</time></trkpt><trkpt lat="43.0789197" lon="11.4180764"><ele>397.0</ele><time>2026-04-06T13:40:23.827Z</time></trkpt><trkpt lat="43.0788515" lon="11.4180396"><ele>396.6666666666667</ele><time>2026-04-06T13:40:24.83Z</time></trkpt><trkpt lat="43.0787764" lon="11.4180136"><ele>396.33333333333337</ele><time>2026-04-06T13:40:25.83Z</time></trkpt><trkpt lat="43.0786904" lon="11.4179961"><ele>396.0</ele><time>2026-04-06T13:40:26.827Z</time></trkpt><trkpt lat="43.0786019" lon="11.4179871"><ele>395.66666666666663</ele><time>2026-04-06T13:40:27.826Z</time></trkpt><trkpt lat="43.0785171" lon="11.4179853"><ele>395.3333333333333</ele><time>2026-04-06T13:40:28.826Z</time></trkpt><trkpt lat="43.0784318" lon="11.4179807"><ele>395.0</ele><time>2026-04-06T13:40:29.824Z</time></trkpt><trkpt lat="43.0783426" lon="11.4179731"><ele>397.3333333333333</ele><time>2026-04-06T13:40:30.827Z</time></trkpt><trkpt lat="43.0782517" lon="11.4179602"><ele>399.66666666666663</ele><time>2026-04-06T13:40:31.827Z</time></trkpt><trkpt lat="43.0781644" lon="11.4179415"><ele>402.0</ele><time>2026-04-06T13:40:32.83Z</time></trkpt><trkpt lat="43.0780813" lon="11.4179253"><ele>404.33333333333337</ele><time>2026-04-06T13:40:33.827Z</time></trkpt><trkpt lat="43.0780014" lon="11.4179127"><ele>406.6666666666667</ele><time>2026-04-06T13:40:34.826Z</time></trkpt><trkpt lat="43.0779207" lon="11.4179075"><ele>409.0</ele><time>2026-04-06T13:40:35.825Z</time></trkpt><trkpt lat="43.0778404" lon="11.4179107"><ele>409.00000000000006</ele><time>2026-04-06T13:40:36.825Z</time></trkpt><trkpt lat="43.077763" lon="11.4179171"><ele>409.0</ele><time>2026-04-06T13:40:37.827Z</time></trkpt><trkpt lat="43.0776878" lon="11.4179311"><ele>409.0</ele><time>2026-04-06T13:40:38.827Z</time></trkpt><trkpt lat="43.0776141" lon="11.4179427"><ele>409.0</ele><time>2026-04-06T13:40:39.826Z</time></trkpt><trkpt lat="43.077537" lon="11.4179428"><ele>409.00000000000006</ele><time>2026-04-06T13:40:40.828Z</time></trkpt><trkpt lat="43.0774601" lon="11.4179189"><ele>409.0</ele><time>2026-04-06T13:40:41.83Z</time></trkpt><trkpt lat="43.0773844" lon="11.4178866"><ele>412.00000000000006</ele><time>2026-04-06T13:40:42.829Z</time></trkpt><trkpt lat="43.0773069" lon="11.4178367"><ele>415.0</ele><time>2026-04-06T13:40:43.826Z</time></trkpt><trkpt lat="43.0772391" lon="11.4177803"><ele>418.0</ele><time>2026-04-06T13:40:44.824Z</time></trkpt><trkpt lat="43.0771783" lon="11.4177237"><ele>421.0</ele><time>2026-04-06T13:40:45.833Z</time></trkpt><trkpt lat="43.0771117" lon="11.4176589"><ele>424.00000000000006</ele><time>2026-04-06T13:40:46.83Z</time></trkpt><trkpt lat="43.0770562" lon="11.4176084"><ele>427.0</ele><time>2026-04-06T13:40:47.825Z</time></trkpt><trkpt lat="43.0769993" lon="11.4175621"><ele>427.00000000000006</ele><time>2026-04-06T13:40:48.826Z</time></trkpt><trkpt lat="43.0769432" lon="11.4175111"><ele>427.0</ele><time>2026-04-06T13:40:49.827Z</time></trkpt><trkpt lat="43.0768559" lon="11.4173884"><ele>427.0</ele><time>2026-04-06T13:40:51.828Z</time></trkpt><trkpt lat="43.0768146" lon="11.4173104"><ele>427.0</ele><time>2026-04-06T13:40:52.826Z</time></trkpt><trkpt lat="43.0767824" lon="11.4172269"><ele>427.00000000000006</ele><time>2026-04-06T13:40:53.828Z</time></trkpt><trkpt lat="43.0767599" lon="11.4171433"><ele>427.0</ele><time>2026-04-06T13:40:54.829Z</time></trkpt><trkpt lat="43.0767247" lon="11.4170618"><ele>427.50000000000006</ele><time>2026-04-06T13:40:55.827Z</time></trkpt><trkpt lat="43.0766303" lon="11.4169611"><ele>428.0</ele><time>2026-04-06T13:40:57.825Z</time></trkpt><trkpt lat="43.0765723" lon="11.4169252"><ele>428.5</ele><time>2026-04-06T13:40:58.825Z</time></trkpt><trkpt lat="43.0765051" lon="11.4168953"><ele>429.0</ele><time>2026-04-06T13:40:59.827Z</time></trkpt><trkpt lat="43.0764375" lon="11.4168695"><ele>429.50000000000006</ele><time>2026-04-06T13:41:00.827Z</time></trkpt><trkpt lat="43.0763705" lon="11.4168496"><ele>430.0</ele><time>2026-04-06T13:41:01.83Z</time></trkpt><trkpt lat="43.0763076" lon="11.4168244"><ele>430.0</ele><time>2026-04-06T13:41:02.826Z</time></trkpt><trkpt lat="43.0762443" lon="11.4167928"><ele>430.0</ele><time>2026-04-06T13:41:03.825Z</time></trkpt><trkpt lat="43.0761822" lon="11.4167606"><ele>430.0</ele><time>2026-04-06T13:41:04.827Z</time></trkpt><trkpt lat="43.0761206" lon="11.4167285"><ele>430.0</ele><time>2026-04-06T13:41:05.829Z</time></trkpt><trkpt lat="43.0760603" lon="11.4166908"><ele>430.0</ele><time>2026-04-06T13:41:06.828Z</time></trkpt><trkpt lat="43.0759976" lon="11.4166505"><ele>430.0</ele><time>2026-04-06T13:41:07.827Z</time></trkpt><trkpt lat="43.0759317" lon="11.4166033"><ele>430.0</ele><time>2026-04-06T13:41:08.826Z</time></trkpt><trkpt lat="43.07586" lon="11.4165467"><ele>430.00000000000006</ele><time>2026-04-06T13:41:09.825Z</time></trkpt><trkpt lat="43.0757833" lon="11.4164883"><ele>430.0</ele><time>2026-04-06T13:41:10.825Z</time></trkpt><trkpt lat="43.0757083" lon="11.4164267"><ele>430.0</ele><time>2026-04-06T13:41:11.828Z</time></trkpt><trkpt lat="43.0756333" lon="11.4163617"><ele>430.0</ele><time>2026-04-06T13:41:12.827Z</time></trkpt><trkpt lat="43.0755567" lon="11.4162967"><ele>430.00000000000006</ele><time>2026-04-06T13:41:13.824Z</time></trkpt><trkpt lat="43.0754767" lon="11.4162317"><ele>430.0</ele><time>2026-04-06T13:41:14.834Z</time></trkpt><trkpt lat="43.0753883" lon="11.4161717"><ele>431.0</ele><time>2026-04-06T13:41:15.827Z</time></trkpt><trkpt lat="43.0753017" lon="11.416115"><ele>432.0</ele><time>2026-04-06T13:41:16.825Z</time></trkpt><trkpt lat="43.075215" lon="11.4160617"><ele>433.0</ele><time>2026-04-06T13:41:17.828Z</time></trkpt><trkpt lat="43.075135" lon="11.41601"><ele>434.0</ele><time>2026-04-06T13:41:18.825Z</time></trkpt><trkpt lat="43.0750533" lon="11.4159633"><ele>435.0</ele><time>2026-04-06T13:41:19.827Z</time></trkpt><trkpt lat="43.0749717" lon="11.4159183"><ele>435.7142857142857</ele><time>2026-04-06T13:41:20.829Z</time></trkpt><trkpt lat="43.074895" lon="11.4158783"><ele>436.42857142857144</ele><time>2026-04-06T13:41:21.825Z</time></trkpt><trkpt lat="43.0748183" lon="11.4158417"><ele>437.1428571428571</ele><time>2026-04-06T13:41:22.838Z</time></trkpt><trkpt lat="43.0747517" lon="11.4158167"><ele>437.8571428571429</ele><time>2026-04-06T13:41:23.829Z</time></trkpt><trkpt lat="43.0746867" lon="11.4157983"><ele>438.57142857142856</ele><time>2026-04-06T13:41:24.827Z</time></trkpt><trkpt lat="43.0746167" lon="11.4157767"><ele>439.2857142857143</ele><time>2026-04-06T13:41:25.83Z</time></trkpt><trkpt lat="43.0745467" lon="11.4157633"><ele>440.0</ele><time>2026-04-06T13:41:26.827Z</time></trkpt><trkpt lat="43.0744383" lon="11.4157067"><ele>440.0</ele><time>2026-04-06T13:41:28.827Z</time></trkpt><trkpt lat="43.0743717" lon="11.4156017"><ele>440.0</ele><time>2026-04-06T13:41:30.825Z</time></trkpt><trkpt lat="43.074335" lon="11.4154683"><ele>440.0</ele><time>2026-04-06T13:41:32.826Z</time></trkpt><trkpt lat="43.0743267" lon="11.4153"><ele>440.0</ele><time>2026-04-06T13:41:34.83Z</time></trkpt><trkpt lat="43.0743233" lon="11.4151267"><ele>441.66666666666663</ele><time>2026-04-06T13:41:36.833Z</time></trkpt><trkpt lat="43.0743117" lon="11.4150283"><ele>443.3333333333333</ele><time>2026-04-06T13:41:37.824Z</time></trkpt><trkpt lat="43.0742917" lon="11.41492"><ele>445.0</ele><time>2026-04-06T13:41:38.829Z</time></trkpt><trkpt lat="43.0742717" lon="11.41482"><ele>446.66666666666663</ele><time>2026-04-06T13:41:39.829Z</time></trkpt><trkpt lat="43.0742317" lon="11.4146733"><ele>448.3333333333333</ele><time>2026-04-06T13:41:41.829Z</time></trkpt><trkpt lat="43.074175" lon="11.414555"><ele>450.0</ele><time>2026-04-06T13:41:43.826Z</time></trkpt><trkpt lat="43.074095" lon="11.414465"><ele>453.0</ele><time>2026-04-06T13:41:45.828Z</time></trkpt><trkpt lat="43.07399" lon="11.414395"><ele>456.0</ele><time>2026-04-06T13:41:47.825Z</time></trkpt><trkpt lat="43.07392" lon="11.4143883"><ele>459.0</ele><time>2026-04-06T13:41:48.829Z</time></trkpt><trkpt lat="43.073835" lon="11.4143767"><ele>462.0</ele><time>2026-04-06T13:41:49.827Z</time></trkpt><trkpt lat="43.07375" lon="11.4143667"><ele>465.0</ele><time>2026-04-06T13:41:50.835Z</time></trkpt><trkpt lat="43.0736733" lon="11.4143617"><ele>468.0</ele><time>2026-04-06T13:41:51.827Z</time></trkpt><trkpt lat="43.073595" lon="11.4143517"><ele>468.0</ele><time>2026-04-06T13:41:52.829Z</time></trkpt><trkpt lat="43.0735217" lon="11.4143417"><ele>468.0</ele><time>2026-04-06T13:41:53.827Z</time></trkpt><trkpt lat="43.0734" lon="11.414315"><ele>468.0</ele><time>2026-04-06T13:41:55.827Z</time></trkpt><trkpt lat="43.0733367" lon="11.4143"><ele>468.0</ele><time>2026-04-06T13:41:56.825Z</time></trkpt><trkpt lat="43.0732217" lon="11.4142767"><ele>468.0</ele><time>2026-04-06T13:41:58.829Z</time></trkpt><trkpt lat="43.07315" lon="11.4142733"><ele>468.0</ele><time>2026-04-06T13:41:59.828Z</time></trkpt><trkpt lat="43.0730667" lon="11.4142767"><ele>469.5</ele><time>2026-04-06T13:42:00.827Z</time></trkpt><trkpt lat="43.0729733" lon="11.4142817"><ele>471.0</ele><time>2026-04-06T13:42:01.834Z</time></trkpt><trkpt lat="43.0728883" lon="11.4142883"><ele>472.5</ele><time>2026-04-06T13:42:02.828Z</time></trkpt><trkpt lat="43.0728083" lon="11.41429"><ele>474.0</ele><time>2026-04-06T13:42:03.832Z</time></trkpt><trkpt lat="43.0727283" lon="11.4142867"><ele>475.5</ele><time>2026-04-06T13:42:04.83Z</time></trkpt><trkpt lat="43.0726483" lon="11.4142717"><ele>477.0</ele><time>2026-04-06T13:42:05.827Z</time></trkpt><trkpt lat="43.072575" lon="11.4142483"><ele>477.0</ele><time>2026-04-06T13:42:06.827Z</time></trkpt><trkpt lat="43.0725033" lon="11.4142167"><ele>477.0</ele><time>2026-04-06T13:42:07.83Z</time></trkpt><trkpt lat="43.0724333" lon="11.414185"><ele>477.0</ele><time>2026-04-06T13:42:08.827Z</time></trkpt><trkpt lat="43.0723717" lon="11.4141467"><ele>477.0</ele><time>2026-04-06T13:42:09.827Z</time></trkpt><trkpt lat="43.0723117" lon="11.4141083"><ele>477.0</ele><time>2026-04-06T13:42:10.828Z</time></trkpt><trkpt lat="43.0722033" lon="11.41405"><ele>477.0</ele><time>2026-04-06T13:42:12.833Z</time></trkpt><trkpt lat="43.0721" lon="11.4139867"><ele>476.6</ele><time>2026-04-06T13:42:14.83Z</time></trkpt><trkpt lat="43.071985" lon="11.413925"><ele>476.20000000000005</ele><time>2026-04-06T13:42:16.824Z</time></trkpt><trkpt lat="43.0718717" lon="11.413881"><ele>475.8</ele><time>2026-04-06T13:42:18.841Z</time></trkpt><trkpt lat="43.0717543" lon="11.4138048"><ele>475.4</ele><time>2026-04-06T13:42:20.826Z</time></trkpt><trkpt lat="43.0716957" lon="11.4137583"><ele>475.0</ele><time>2026-04-06T13:42:21.829Z</time></trkpt><trkpt lat="43.07164" lon="11.4137093"><ele>476.5714285714286</ele><time>2026-04-06T13:42:22.828Z</time></trkpt><trkpt lat="43.0715825" lon="11.413659"><ele>478.1428571428572</ele><time>2026-04-06T13:42:23.828Z</time></trkpt><trkpt lat="43.0715218" lon="11.4136115"><ele>479.7142857142857</ele><time>2026-04-06T13:42:24.827Z</time></trkpt><trkpt lat="43.071456" lon="11.4135809"><ele>481.28571428571433</ele><time>2026-04-06T13:42:25.828Z</time></trkpt><trkpt lat="43.0713875" lon="11.4135597"><ele>482.8571428571429</ele><time>2026-04-06T13:42:26.828Z</time></trkpt><trkpt lat="43.0713118" lon="11.4135584"><ele>484.42857142857144</ele><time>2026-04-06T13:42:27.826Z</time></trkpt><trkpt lat="43.0712359" lon="11.4135704"><ele>486.0</ele><time>2026-04-06T13:42:28.831Z</time></trkpt><trkpt lat="43.0711626" lon="11.4135845"><ele>486.0</ele><time>2026-04-06T13:42:29.829Z</time></trkpt><trkpt lat="43.0710884" lon="11.4135913"><ele>486.0</ele><time>2026-04-06T13:42:30.826Z</time></trkpt><trkpt lat="43.071013" lon="11.413584"><ele>486.0</ele><time>2026-04-06T13:42:31.824Z</time></trkpt><trkpt lat="43.0709389" lon="11.4135584"><ele>486.0</ele><time>2026-04-06T13:42:32.827Z</time></trkpt><trkpt lat="43.0708696" lon="11.4135084"><ele>486.0</ele><time>2026-04-06T13:42:33.83Z</time></trkpt><trkpt lat="43.0708033" lon="11.4134391"><ele>486.0</ele><time>2026-04-06T13:42:34.831Z</time></trkpt><trkpt lat="43.0707316" lon="11.4133544"><ele>487.8</ele><time>2026-04-06T13:42:35.825Z</time></trkpt><trkpt lat="43.0706517" lon="11.4132562"><ele>489.6</ele><time>2026-04-06T13:42:36.832Z</time></trkpt><trkpt lat="43.0705789" lon="11.4131604"><ele>491.4</ele><time>2026-04-06T13:42:37.833Z</time></trkpt><trkpt lat="43.070518" lon="11.413082"><ele>493.2</ele><time>2026-04-06T13:42:38.83Z</time></trkpt><trkpt lat="43.0704675" lon="11.4130217"><ele>495.0</ele><time>2026-04-06T13:42:39.83Z</time></trkpt><trkpt lat="43.0703658" lon="11.4129406"><ele>495.0</ele><time>2026-04-06T13:42:41.823Z</time></trkpt><trkpt lat="43.0702632" lon="11.4129145"><ele>495.0</ele><time>2026-04-06T13:42:43.827Z</time></trkpt><trkpt lat="43.0701637" lon="11.4129838"><ele>495.0</ele><time>2026-04-06T13:42:45.825Z</time></trkpt><trkpt lat="43.0701205" lon="11.4130545"><ele>495.0</ele><time>2026-04-06T13:42:46.827Z</time></trkpt><trkpt lat="43.0700806" lon="11.413148"><ele>495.0</ele><time>2026-04-06T13:42:47.835Z</time></trkpt><trkpt lat="43.0700452" lon="11.4132471"><ele>495.0</ele><time>2026-04-06T13:42:48.827Z</time></trkpt><trkpt lat="43.0700144" lon="11.4133468"><ele>495.0</ele><time>2026-04-06T13:42:49.824Z</time></trkpt><trkpt lat="43.0699933" lon="11.4134467"><ele>495.0</ele><time>2026-04-06T13:42:50.826Z</time></trkpt><trkpt lat="43.0699817" lon="11.4135417"><ele>495.0</ele><time>2026-04-06T13:42:51.831Z</time></trkpt><trkpt lat="43.0699783" lon="11.4136433"><ele>495.0</ele><time>2026-04-06T13:42:52.828Z</time></trkpt><trkpt lat="43.0699817" lon="11.4137483"><ele>495.0</ele><time>2026-04-06T13:42:53.833Z</time></trkpt><trkpt lat="43.069985" lon="11.4138617"><ele>495.0</ele><time>2026-04-06T13:42:54.827Z</time></trkpt><trkpt lat="43.0699917" lon="11.4139783"><ele>494.8333333333333</ele><time>2026-04-06T13:42:55.828Z</time></trkpt><trkpt lat="43.0699967" lon="11.4140883"><ele>494.66666666666663</ele><time>2026-04-06T13:42:56.827Z</time></trkpt><trkpt lat="43.0699983" lon="11.4141933"><ele>494.5</ele><time>2026-04-06T13:42:57.832Z</time></trkpt><trkpt lat="43.0699967" lon="11.4143"><ele>494.3333333333333</ele><time>2026-04-06T13:42:58.826Z</time></trkpt><trkpt lat="43.0699833" lon="11.4144067"><ele>494.16666666666663</ele><time>2026-04-06T13:42:59.825Z</time></trkpt><trkpt lat="43.0699617" lon="11.41451"><ele>494.0</ele><time>2026-04-06T13:43:00.827Z</time></trkpt><trkpt lat="43.0699367" lon="11.41461"><ele>494.8333333333333</ele><time>2026-04-06T13:43:01.827Z</time></trkpt><trkpt lat="43.0699033" lon="11.414705"><ele>495.66666666666663</ele><time>2026-04-06T13:43:02.83Z</time></trkpt><trkpt lat="43.069865" lon="11.4147967"><ele>496.5</ele><time>2026-04-06T13:43:03.826Z</time></trkpt><trkpt lat="43.069815" lon="11.41488"><ele>497.33333333333337</ele><time>2026-04-06T13:43:04.827Z</time></trkpt><trkpt lat="43.069755" lon="11.4149583"><ele>498.1666666666667</ele><time>2026-04-06T13:43:05.826Z</time></trkpt><trkpt lat="43.06969" lon="11.4150183"><ele>499.0</ele><time>2026-04-06T13:43:06.828Z</time></trkpt><trkpt lat="43.069625" lon="11.4150733"><ele>499.00000000000006</ele><time>2026-04-06T13:43:07.843Z</time></trkpt><trkpt lat="43.06956" lon="11.4151233"><ele>499.0</ele><time>2026-04-06T13:43:08.828Z</time></trkpt><trkpt lat="43.06949" lon="11.4151717"><ele>499.0</ele><time>2026-04-06T13:43:09.827Z</time></trkpt><trkpt lat="43.0694183" lon="11.41523"><ele>499.0</ele><time>2026-04-06T13:43:10.826Z</time></trkpt><trkpt lat="43.0693483" lon="11.4152983"><ele>499.00000000000006</ele><time>2026-04-06T13:43:11.827Z</time></trkpt><trkpt lat="43.06928" lon="11.4153683"><ele>499.0</ele><time>2026-04-06T13:43:12.827Z</time></trkpt><trkpt lat="43.0692133" lon="11.4154333"><ele>499.00000000000006</ele><time>2026-04-06T13:43:13.826Z</time></trkpt><trkpt lat="43.0691417" lon="11.4154817"><ele>499.0</ele><time>2026-04-06T13:43:14.824Z</time></trkpt><trkpt lat="43.069065" lon="11.4155233"><ele>499.0</ele><time>2026-04-06T13:43:15.823Z</time></trkpt><trkpt lat="43.0689867" lon="11.41555"><ele>499.0</ele><time>2026-04-06T13:43:16.832Z</time></trkpt><trkpt lat="43.0689017" lon="11.4155717"><ele>499.00000000000006</ele><time>2026-04-06T13:43:17.827Z</time></trkpt><trkpt lat="43.0688183" lon="11.4155917"><ele>499.0</ele><time>2026-04-06T13:43:18.827Z</time></trkpt><trkpt lat="43.068735" lon="11.415615"><ele>497.1666666666667</ele><time>2026-04-06T13:43:19.824Z</time></trkpt><trkpt lat="43.0686533" lon="11.4156467"><ele>495.33333333333337</ele><time>2026-04-06T13:43:20.825Z</time></trkpt><trkpt lat="43.0685717" lon="11.415695"><ele>493.5</ele><time>2026-04-06T13:43:21.825Z</time></trkpt><trkpt lat="43.0684967" lon="11.4157567"><ele>491.66666666666663</ele><time>2026-04-06T13:43:22.829Z</time></trkpt><trkpt lat="43.0684233" lon="11.415835"><ele>489.8333333333333</ele><time>2026-04-06T13:43:23.828Z</time></trkpt><trkpt lat="43.068355" lon="11.415925"><ele>488.0</ele><time>2026-04-06T13:43:24.824Z</time></trkpt><trkpt lat="43.0682833" lon="11.4160133"><ele>487.79999999999995</ele><time>2026-04-06T13:43:25.829Z</time></trkpt><trkpt lat="43.0682083" lon="11.4160917"><ele>487.59999999999997</ele><time>2026-04-06T13:43:26.831Z</time></trkpt><trkpt lat="43.0681283" lon="11.4161667"><ele>487.40000000000003</ele><time>2026-04-06T13:43:27.825Z</time></trkpt><trkpt lat="43.0680433" lon="11.41624"><ele>487.20000000000005</ele><time>2026-04-06T13:43:28.827Z</time></trkpt><trkpt lat="43.0679667" lon="11.4163033"><ele>487.0</ele><time>2026-04-06T13:43:29.827Z</time></trkpt><trkpt lat="43.067895" lon="11.4163583"><ele>488.6666666666667</ele><time>2026-04-06T13:43:30.829Z</time></trkpt><trkpt lat="43.0678317" lon="11.4164067"><ele>490.33333333333337</ele><time>2026-04-06T13:43:31.826Z</time></trkpt><trkpt lat="43.06775" lon="11.4165233"><ele>492.0</ele><time>2026-04-06T13:43:33.825Z</time></trkpt><trkpt lat="43.0677183" lon="11.4166033"><ele>493.66666666666663</ele><time>2026-04-06T13:43:34.825Z</time></trkpt><trkpt lat="43.06769" lon="11.4167"><ele>495.3333333333333</ele><time>2026-04-06T13:43:35.833Z</time></trkpt><trkpt lat="43.067665" lon="11.4167933"><ele>497.0</ele><time>2026-04-06T13:43:36.834Z</time></trkpt><trkpt lat="43.067635" lon="11.4168917"><ele>496.99999999999994</ele><time>2026-04-06T13:43:37.829Z</time></trkpt><trkpt lat="43.067595" lon="11.4169983"><ele>497.0</ele><time>2026-04-06T13:43:38.826Z</time></trkpt><trkpt lat="43.0675483" lon="11.4171033"><ele>497.0</ele><time>2026-04-06T13:43:39.827Z</time></trkpt><trkpt lat="43.067495" lon="11.4172017"><ele>497.0</ele><time>2026-04-06T13:43:40.833Z</time></trkpt><trkpt lat="43.0674383" lon="11.417295"><ele>496.99999999999994</ele><time>2026-04-06T13:43:41.831Z</time></trkpt><trkpt lat="43.0673783" lon="11.417375"><ele>497.0</ele><time>2026-04-06T13:43:42.829Z</time></trkpt><trkpt lat="43.0673167" lon="11.4174433"><ele>498.16666666666663</ele><time>2026-04-06T13:43:43.827Z</time></trkpt><trkpt lat="43.0672567" lon="11.4175"><ele>499.3333333333333</ele><time>2026-04-06T13:43:44.83Z</time></trkpt><trkpt lat="43.0671833" lon="11.4175417"><ele>500.5</ele><time>2026-04-06T13:43:45.83Z</time></trkpt><trkpt lat="43.0671067" lon="11.4175783"><ele>501.66666666666663</ele><time>2026-04-06T13:43:46.828Z</time></trkpt><trkpt lat="43.067025" lon="11.41761"><ele>502.8333333333333</ele><time>2026-04-06T13:43:47.83Z</time></trkpt><trkpt lat="43.0669517" lon="11.4176483"><ele>504.0</ele><time>2026-04-06T13:43:48.826Z</time></trkpt><trkpt lat="43.0668817" lon="11.4176933"><ele>504.0</ele><time>2026-04-06T13:43:49.824Z</time></trkpt><trkpt lat="43.0668217" lon="11.4177567"><ele>504.0</ele><time>2026-04-06T13:43:50.832Z</time></trkpt><trkpt lat="43.0667733" lon="11.4178267"><ele>504.0</ele><time>2026-04-06T13:43:51.828Z</time></trkpt><trkpt lat="43.0667317" lon="11.4179083"><ele>504.0</ele><time>2026-04-06T13:43:52.836Z</time></trkpt><trkpt lat="43.0666933" lon="11.41801"><ele>504.0</ele><time>2026-04-06T13:43:53.826Z</time></trkpt><trkpt lat="43.0666583" lon="11.41812"><ele>504.0</ele><time>2026-04-06T13:43:54.836Z</time></trkpt><trkpt lat="43.0666267" lon="11.418235"><ele>501.3333333333333</ele><time>2026-04-06T13:43:55.833Z</time></trkpt><trkpt lat="43.0666017" lon="11.41835"><ele>498.66666666666663</ele><time>2026-04-06T13:43:56.827Z</time></trkpt><trkpt lat="43.0665817" lon="11.4184633"><ele>496.0</ele><time>2026-04-06T13:43:57.826Z</time></trkpt><trkpt lat="43.0665667" lon="11.4185767"><ele>493.3333333333333</ele><time>2026-04-06T13:43:58.824Z</time></trkpt><trkpt lat="43.0665583" lon="11.4187033"><ele>490.66666666666663</ele><time>2026-04-06T13:43:59.824Z</time></trkpt><trkpt lat="43.0665517" lon="11.4188317"><ele>488.0</ele><time>2026-04-06T13:44:00.829Z</time></trkpt><trkpt lat="43.06655" lon="11.4189567"><ele>487.49999999999994</ele><time>2026-04-06T13:44:01.826Z</time></trkpt><trkpt lat="43.0665533" lon="11.419075"><ele>487.0</ele><time>2026-04-06T13:44:02.823Z</time></trkpt><trkpt lat="43.0665567" lon="11.4191983"><ele>486.5</ele><time>2026-04-06T13:44:03.826Z</time></trkpt><trkpt lat="43.0665633" lon="11.4193267"><ele>486.0</ele><time>2026-04-06T13:44:04.822Z</time></trkpt><trkpt lat="43.06657" lon="11.4194517"><ele>485.49999999999994</ele><time>2026-04-06T13:44:05.825Z</time></trkpt><trkpt lat="43.0665717" lon="11.4195667"><ele>485.0</ele><time>2026-04-06T13:44:06.826Z</time></trkpt><trkpt lat="43.066575" lon="11.4196783"><ele>484.99999999999994</ele><time>2026-04-06T13:44:07.823Z</time></trkpt><trkpt lat="43.0665683" lon="11.4197867"><ele>485.0</ele><time>2026-04-06T13:44:08.834Z</time></trkpt><trkpt lat="43.0665583" lon="11.4198867"><ele>485.0</ele><time>2026-04-06T13:44:09.829Z</time></trkpt><trkpt lat="43.066545" lon="11.4199883"><ele>485.0</ele><time>2026-04-06T13:44:10.83Z</time></trkpt><trkpt lat="43.0665083" lon="11.4200783"><ele>484.99999999999994</ele><time>2026-04-06T13:44:11.827Z</time></trkpt><trkpt lat="43.06647" lon="11.4201483"><ele>485.0</ele><time>2026-04-06T13:44:12.824Z</time></trkpt><trkpt lat="43.0664067" lon="11.4202217"><ele>485.0</ele><time>2026-04-06T13:44:14.828Z</time></trkpt><trkpt lat="43.0663083" lon="11.42034"><ele>485.0</ele><time>2026-04-06T13:45:26.836Z</time></trkpt><trkpt lat="43.0663067" lon="11.420435"><ele>485.0</ele><time>2026-04-06T13:46:21.828Z</time></trkpt><trkpt lat="43.0662667" lon="11.4205433"><ele>485.0</ele><time>2026-04-06T13:46:23.827Z</time></trkpt><trkpt lat="43.0662233" lon="11.4206283"><ele>485.0</ele><time>2026-04-06T13:46:25.824Z</time></trkpt><trkpt lat="43.0661633" lon="11.42074"><ele>486.4</ele><time>2026-04-06T13:46:27.827Z</time></trkpt><trkpt lat="43.0660967" lon="11.4208633"><ele>487.8</ele><time>2026-04-06T13:46:28.825Z</time></trkpt><trkpt lat="43.06604" lon="11.4209867"><ele>489.20000000000005</ele><time>2026-04-06T13:46:29.826Z</time></trkpt><trkpt lat="43.0659783" lon="11.4210933"><ele>490.6</ele><time>2026-04-06T13:46:30.826Z</time></trkpt><trkpt lat="43.0659183" lon="11.4212117"><ele>492.0</ele><time>2026-04-06T13:46:31.825Z</time></trkpt><trkpt lat="43.06586" lon="11.42132"><ele>492.8333333333333</ele><time>2026-04-06T13:46:32.825Z</time></trkpt><trkpt lat="43.0658017" lon="11.4214267"><ele>493.66666666666663</ele><time>2026-04-06T13:46:33.824Z</time></trkpt><trkpt lat="43.0657483" lon="11.421525"><ele>494.5</ele><time>2026-04-06T13:46:34.823Z</time></trkpt><trkpt lat="43.0657" lon="11.42162"><ele>495.3333333333333</ele><time>2026-04-06T13:46:35.824Z</time></trkpt><trkpt lat="43.0656567" lon="11.421715"><ele>496.16666666666663</ele><time>2026-04-06T13:46:36.828Z</time></trkpt><trkpt lat="43.0656067" lon="11.4217917"><ele>497.0</ele><time>2026-04-06T13:46:37.825Z</time></trkpt><trkpt lat="43.065545" lon="11.4218517"><ele>496.49999999999994</ele><time>2026-04-06T13:46:38.823Z</time></trkpt><trkpt lat="43.0654767" lon="11.4219283"><ele>496.0</ele><time>2026-04-06T13:46:39.828Z</time></trkpt><trkpt lat="43.06541" lon="11.4219917"><ele>495.5</ele><time>2026-04-06T13:46:40.827Z</time></trkpt><trkpt lat="43.0653483" lon="11.42206"><ele>495.0</ele><time>2026-04-06T13:46:41.832Z</time></trkpt><trkpt lat="43.065285" lon="11.42212"><ele>494.49999999999994</ele><time>2026-04-06T13:46:42.827Z</time></trkpt><trkpt lat="43.06522" lon="11.4221733"><ele>494.0</ele><time>2026-04-06T13:46:43.824Z</time></trkpt><trkpt lat="43.0651467" lon="11.4222133"><ele>493.99999999999994</ele><time>2026-04-06T13:46:44.824Z</time></trkpt><trkpt lat="43.0650733" lon="11.4222233"><ele>494.0</ele><time>2026-04-06T13:46:45.827Z</time></trkpt><trkpt lat="43.0649967" lon="11.422215"><ele>494.0</ele><time>2026-04-06T13:46:46.826Z</time></trkpt><trkpt lat="43.06492" lon="11.4222267"><ele>494.0</ele><time>2026-04-06T13:46:47.825Z</time></trkpt><trkpt lat="43.0648417" lon="11.4222367"><ele>493.99999999999994</ele><time>2026-04-06T13:46:48.827Z</time></trkpt><trkpt lat="43.0647567" lon="11.4222483"><ele>494.0</ele><time>2026-04-06T13:46:49.826Z</time></trkpt><trkpt lat="43.0646717" lon="11.4222583"><ele>492.66666666666663</ele><time>2026-04-06T13:46:50.827Z</time></trkpt><trkpt lat="43.0645867" lon="11.422255"><ele>491.3333333333333</ele><time>2026-04-06T13:46:51.828Z</time></trkpt><trkpt lat="43.0644983" lon="11.4222317"><ele>490.0</ele><time>2026-04-06T13:46:52.824Z</time></trkpt><trkpt lat="43.0644217" lon="11.4222"><ele>488.66666666666663</ele><time>2026-04-06T13:46:53.823Z</time></trkpt><trkpt lat="43.0643433" lon="11.4221583"><ele>487.3333333333333</ele><time>2026-04-06T13:46:54.825Z</time></trkpt><trkpt lat="43.0642817" lon="11.42212"><ele>486.0</ele><time>2026-04-06T13:46:55.826Z</time></trkpt><trkpt lat="43.0642183" lon="11.422075"><ele>484.8333333333333</ele><time>2026-04-06T13:46:56.829Z</time></trkpt><trkpt lat="43.0641583" lon="11.4220367"><ele>483.66666666666663</ele><time>2026-04-06T13:46:57.827Z</time></trkpt><trkpt lat="43.06404" lon="11.4219767"><ele>482.5</ele><time>2026-04-06T13:46:59.827Z</time></trkpt><trkpt lat="43.0639733" lon="11.42196"><ele>481.3333333333333</ele><time>2026-04-06T13:47:00.827Z</time></trkpt><trkpt lat="43.0639083" lon="11.4219533"><ele>480.16666666666663</ele><time>2026-04-06T13:47:01.827Z</time></trkpt><trkpt lat="43.063835" lon="11.4219717"><ele>479.0</ele><time>2026-04-06T13:47:02.827Z</time></trkpt><trkpt lat="43.063765" lon="11.421985"><ele>477.6</ele><time>2026-04-06T13:47:03.826Z</time></trkpt><trkpt lat="43.0636467" lon="11.42202"><ele>476.2</ele><time>2026-04-06T13:47:05.83Z</time></trkpt><trkpt lat="43.063565" lon="11.42206"><ele>474.80000000000007</ele><time>2026-04-06T13:47:07.826Z</time></trkpt><trkpt lat="43.0635067" lon="11.4221317"><ele>473.40000000000003</ele><time>2026-04-06T13:47:09.828Z</time></trkpt><trkpt lat="43.0634783" lon="11.42226"><ele>472.0</ele><time>2026-04-06T13:47:11.839Z</time></trkpt><trkpt lat="43.063495" lon="11.4223933"><ele>472.0</ele><time>2026-04-06T13:47:13.825Z</time></trkpt><trkpt lat="43.063525" lon="11.422535"><ele>472.00000000000006</ele><time>2026-04-06T13:47:15.825Z</time></trkpt><trkpt lat="43.0635467" lon="11.4226983"><ele>472.00000000000006</ele><time>2026-04-06T13:47:17.827Z</time></trkpt><trkpt lat="43.0635333" lon="11.4228733"><ele>472.0</ele><time>2026-04-06T13:47:19.829Z</time></trkpt><trkpt lat="43.0635183" lon="11.4229683"><ele>472.0</ele><time>2026-04-06T13:47:20.829Z</time></trkpt><trkpt lat="43.0634817" lon="11.4230583"><ele>471.50000000000006</ele><time>2026-04-06T13:47:21.828Z</time></trkpt><trkpt lat="43.06344" lon="11.423145"><ele>471.0</ele><time>2026-04-06T13:47:22.828Z</time></trkpt><trkpt lat="43.0634017" lon="11.4232283"><ele>470.5</ele><time>2026-04-06T13:47:23.826Z</time></trkpt><trkpt lat="43.06337" lon="11.4233067"><ele>470.0</ele><time>2026-04-06T13:47:24.829Z</time></trkpt><trkpt lat="43.0633333" lon="11.4234633"><ele>469.50000000000006</ele><time>2026-04-06T13:47:26.826Z</time></trkpt><trkpt lat="43.0633267" lon="11.42355"><ele>469.0</ele><time>2026-04-06T13:47:27.823Z</time></trkpt><trkpt lat="43.0633367" lon="11.4237017"><ele>468.2</ele><time>2026-04-06T13:47:29.829Z</time></trkpt><trkpt lat="43.0633617" lon="11.4238517"><ele>467.4</ele><time>2026-04-06T13:47:31.826Z</time></trkpt><trkpt lat="43.063385" lon="11.4240033"><ele>466.6</ele><time>2026-04-06T13:47:33.826Z</time></trkpt><trkpt lat="43.0633667" lon="11.4241567"><ele>465.8</ele><time>2026-04-06T13:47:35.831Z</time></trkpt><trkpt lat="43.0633433" lon="11.4242383"><ele>465.0</ele><time>2026-04-06T13:47:36.828Z</time></trkpt><trkpt lat="43.063315" lon="11.42433"><ele>465.0</ele><time>2026-04-06T13:47:37.825Z</time></trkpt><trkpt lat="43.0632867" lon="11.4244283"><ele>465.0</ele><time>2026-04-06T13:47:38.833Z</time></trkpt><trkpt lat="43.063265" lon="11.4245317"><ele>465.0</ele><time>2026-04-06T13:47:39.824Z</time></trkpt><trkpt lat="43.06325" lon="11.4246433"><ele>465.0</ele><time>2026-04-06T13:47:40.828Z</time></trkpt><trkpt lat="43.063235" lon="11.4247583"><ele>465.0</ele><time>2026-04-06T13:47:41.825Z</time></trkpt><trkpt lat="43.0632215" lon="11.424872"><ele>465.0</ele><time>2026-04-06T13:47:42.823Z</time></trkpt><trkpt lat="43.0632039" lon="11.4249813"><ele>465.1666666666667</ele><time>2026-04-06T13:47:43.827Z</time></trkpt><trkpt lat="43.0631705" lon="11.4250825"><ele>465.33333333333337</ele><time>2026-04-06T13:47:44.827Z</time></trkpt><trkpt lat="43.0631296" lon="11.4251819"><ele>465.5</ele><time>2026-04-06T13:47:45.827Z</time></trkpt><trkpt lat="43.0630801" lon="11.4252816"><ele>465.6666666666667</ele><time>2026-04-06T13:47:46.829Z</time></trkpt><trkpt lat="43.0630249" lon="11.4253747"><ele>465.83333333333337</ele><time>2026-04-06T13:47:47.825Z</time></trkpt><trkpt lat="43.0629726" lon="11.4254641"><ele>466.0</ele><time>2026-04-06T13:47:48.828Z</time></trkpt><trkpt lat="43.0629197" lon="11.4255564"><ele>466.00000000000006</ele><time>2026-04-06T13:47:49.828Z</time></trkpt><trkpt lat="43.0628723" lon="11.4256606"><ele>466.0</ele><time>2026-04-06T13:47:50.825Z</time></trkpt><trkpt lat="43.0628375" lon="11.4257784"><ele>466.0</ele><time>2026-04-06T13:47:51.826Z</time></trkpt><trkpt lat="43.0628191" lon="11.4258952"><ele>466.0</ele><time>2026-04-06T13:47:52.825Z</time></trkpt><trkpt lat="43.0628097" lon="11.4259986"><ele>466.00000000000006</ele><time>2026-04-06T13:47:53.831Z</time></trkpt><trkpt lat="43.0628051" lon="11.426099"><ele>466.0</ele><time>2026-04-06T13:47:54.83Z</time></trkpt><trkpt lat="43.0628046" lon="11.4262149"><ele>466.6666666666667</ele><time>2026-04-06T13:47:55.832Z</time></trkpt><trkpt lat="43.0628175" lon="11.4263467"><ele>467.33333333333337</ele><time>2026-04-06T13:47:56.826Z</time></trkpt><trkpt lat="43.0628315" lon="11.4264767"><ele>468.0</ele><time>2026-04-06T13:47:57.824Z</time></trkpt><trkpt lat="43.0628473" lon="11.4265965"><ele>468.66666666666663</ele><time>2026-04-06T13:47:58.83Z</time></trkpt><trkpt lat="43.0628629" lon="11.4267087"><ele>469.3333333333333</ele><time>2026-04-06T13:47:59.829Z</time></trkpt><trkpt lat="43.0628728" lon="11.426808"><ele>470.0</ele><time>2026-04-06T13:48:00.828Z</time></trkpt><trkpt lat="43.0628807" lon="11.4268971"><ele>469.99999999999994</ele><time>2026-04-06T13:48:01.828Z</time></trkpt><trkpt lat="43.0628629" lon="11.4270665"><ele>470.0</ele><time>2026-04-06T13:48:03.83Z</time></trkpt><trkpt lat="43.0628375" lon="11.4271532"><ele>470.0</ele><time>2026-04-06T13:48:04.828Z</time></trkpt><trkpt lat="43.0627967" lon="11.4272378"><ele>470.0</ele><time>2026-04-06T13:48:05.829Z</time></trkpt><trkpt lat="43.0627546" lon="11.4273202"><ele>469.99999999999994</ele><time>2026-04-06T13:48:06.824Z</time></trkpt><trkpt lat="43.0627028" lon="11.4273837"><ele>470.0</ele><time>2026-04-06T13:48:07.824Z</time></trkpt><trkpt lat="43.0626328" lon="11.4274192"><ele>470.0</ele><time>2026-04-06T13:48:08.829Z</time></trkpt><trkpt lat="43.0625594" lon="11.4274556"><ele>470.0</ele><time>2026-04-06T13:48:09.83Z</time></trkpt><trkpt lat="43.0624735" lon="11.4274904"><ele>470.0</ele><time>2026-04-06T13:48:10.827Z</time></trkpt><trkpt lat="43.0623803" lon="11.4275356"><ele>470.0</ele><time>2026-04-06T13:48:11.825Z</time></trkpt><trkpt lat="43.0622796" lon="11.4275769"><ele>470.0</ele><time>2026-04-06T13:48:12.825Z</time></trkpt><trkpt lat="43.0621823" lon="11.4276098"><ele>470.0</ele><time>2026-04-06T13:48:13.823Z</time></trkpt><trkpt lat="43.0620911" lon="11.4276329"><ele>470.0</ele><time>2026-04-06T13:48:14.832Z</time></trkpt><trkpt lat="43.0620033" lon="11.4276383"><ele>470.0</ele><time>2026-04-06T13:48:15.824Z</time></trkpt><trkpt lat="43.061915" lon="11.4276183"><ele>470.0</ele><time>2026-04-06T13:48:16.827Z</time></trkpt><trkpt lat="43.0618217" lon="11.427585"><ele>470.0</ele><time>2026-04-06T13:48:17.825Z</time></trkpt><trkpt lat="43.0617333" lon="11.4275333"><ele>469.99999999999994</ele><time>2026-04-06T13:48:18.827Z</time></trkpt><trkpt lat="43.0616517" lon="11.4274717"><ele>470.0</ele><time>2026-04-06T13:48:19.827Z</time></trkpt><trkpt lat="43.061575" lon="11.427425"><ele>470.0</ele><time>2026-04-06T13:48:20.826Z</time></trkpt><trkpt lat="43.06149" lon="11.4274033"><ele>470.0</ele><time>2026-04-06T13:48:21.825Z</time></trkpt><trkpt lat="43.0614017" lon="11.4273917"><ele>469.99999999999994</ele><time>2026-04-06T13:48:22.83Z</time></trkpt><trkpt lat="43.0613083" lon="11.4273933"><ele>470.0</ele><time>2026-04-06T13:48:23.829Z</time></trkpt><trkpt lat="43.06121" lon="11.4274233"><ele>470.16666666666663</ele><time>2026-04-06T13:48:24.829Z</time></trkpt><trkpt lat="43.0611217" lon="11.4274583"><ele>470.3333333333333</ele><time>2026-04-06T13:48:25.824Z</time></trkpt><trkpt lat="43.0610417" lon="11.4274867"><ele>470.5</ele><time>2026-04-06T13:48:26.824Z</time></trkpt><trkpt lat="43.0609733" lon="11.4275083"><ele>470.66666666666663</ele><time>2026-04-06T13:48:27.828Z</time></trkpt><trkpt lat="43.0609" lon="11.4275167"><ele>470.8333333333333</ele><time>2026-04-06T13:48:28.827Z</time></trkpt><trkpt lat="43.06083" lon="11.4275067"><ele>471.0</ele><time>2026-04-06T13:48:29.826Z</time></trkpt><trkpt lat="43.06076" lon="11.4274733"><ele>472.6</ele><time>2026-04-06T13:48:30.829Z</time></trkpt><trkpt lat="43.060685" lon="11.42743"><ele>474.20000000000005</ele><time>2026-04-06T13:48:31.827Z</time></trkpt><trkpt lat="43.0606133" lon="11.4273783"><ele>475.79999999999995</ele><time>2026-04-06T13:48:32.837Z</time></trkpt><trkpt lat="43.0605483" lon="11.4273283"><ele>477.4</ele><time>2026-04-06T13:48:33.828Z</time></trkpt><trkpt lat="43.06044" lon="11.4272717"><ele>479.0</ele><time>2026-04-06T13:48:35.825Z</time></trkpt><trkpt lat="43.0603483" lon="11.427315"><ele>479.0</ele><time>2026-04-06T13:48:37.831Z</time></trkpt><trkpt lat="43.0602917" lon="11.4274467"><ele>479.0</ele><time>2026-04-06T13:48:39.829Z</time></trkpt><trkpt lat="43.0602633" lon="11.42761"><ele>479.0</ele><time>2026-04-06T13:48:41.823Z</time></trkpt><trkpt lat="43.0602083" lon="11.4277383"><ele>479.0</ele><time>2026-04-06T13:48:43.83Z</time></trkpt><trkpt lat="43.06011" lon="11.427835"><ele>479.0</ele><time>2026-04-06T13:48:45.824Z</time></trkpt><trkpt lat="43.06001" lon="11.42791"><ele>479.0</ele><time>2026-04-06T13:48:47.83Z</time></trkpt><trkpt lat="43.0598967" lon="11.42794"><ele>479.0</ele><time>2026-04-06T13:48:49.823Z</time></trkpt><trkpt lat="43.05979" lon="11.4278983"><ele>479.0</ele><time>2026-04-06T13:48:51.823Z</time></trkpt><trkpt lat="43.05969" lon="11.427785"><ele>479.71428571428567</ele><time>2026-04-06T13:48:53.83Z</time></trkpt><trkpt lat="43.0596383" lon="11.4277033"><ele>480.42857142857144</ele><time>2026-04-06T13:48:54.827Z</time></trkpt><trkpt lat="43.0595933" lon="11.427625"><ele>481.1428571428571</ele><time>2026-04-06T13:48:55.825Z</time></trkpt><trkpt lat="43.0595467" lon="11.4275483"><ele>481.85714285714283</ele><time>2026-04-06T13:48:56.826Z</time></trkpt><trkpt lat="43.0594983" lon="11.42748"><ele>482.57142857142856</ele><time>2026-04-06T13:48:57.832Z</time></trkpt><trkpt lat="43.0594483" lon="11.427415"><ele>483.2857142857143</ele><time>2026-04-06T13:48:58.826Z</time></trkpt><trkpt lat="43.059395" lon="11.4273583"><ele>484.0</ele><time>2026-04-06T13:48:59.827Z</time></trkpt><trkpt lat="43.0592883" lon="11.42727"><ele>484.0</ele><time>2026-04-06T13:49:01.827Z</time></trkpt><trkpt lat="43.0591733" lon="11.4272333"><ele>484.0</ele><time>2026-04-06T13:49:03.827Z</time></trkpt><trkpt lat="43.0590767" lon="11.4273"><ele>484.0</ele><time>2026-04-06T13:49:05.827Z</time></trkpt><trkpt lat="43.05903" lon="11.4274383"><ele>484.0</ele><time>2026-04-06T13:49:07.829Z</time></trkpt><trkpt lat="43.059045" lon="11.4276017"><ele>484.00000000000006</ele><time>2026-04-06T13:49:09.825Z</time></trkpt><trkpt lat="43.059075" lon="11.4277033"><ele>484.0</ele><time>2026-04-06T13:49:10.825Z</time></trkpt><trkpt lat="43.0591117" lon="11.4278083"><ele>484.0</ele><time>2026-04-06T13:49:11.829Z</time></trkpt><trkpt lat="43.0591433" lon="11.4279083"><ele>484.0</ele><time>2026-04-06T13:49:12.826Z</time></trkpt><trkpt lat="43.059165" lon="11.4279983"><ele>484.00000000000006</ele><time>2026-04-06T13:49:13.826Z</time></trkpt><trkpt lat="43.0591783" lon="11.428085"><ele>484.0</ele><time>2026-04-06T13:49:14.826Z</time></trkpt><trkpt lat="43.0591667" lon="11.4282417"><ele>485.1666666666667</ele><time>2026-04-06T13:49:16.834Z</time></trkpt><trkpt lat="43.059085" lon="11.428345"><ele>486.33333333333337</ele><time>2026-04-06T13:49:18.827Z</time></trkpt><trkpt lat="43.0590133" lon="11.4283767"><ele>487.5</ele><time>2026-04-06T13:49:19.826Z</time></trkpt><trkpt lat="43.058945" lon="11.4284133"><ele>488.66666666666663</ele><time>2026-04-06T13:49:20.83Z</time></trkpt><trkpt lat="43.0588733" lon="11.4284533"><ele>489.8333333333333</ele><time>2026-04-06T13:49:21.83Z</time></trkpt><trkpt lat="43.058805" lon="11.428515"><ele>491.0</ele><time>2026-04-06T13:49:22.831Z</time></trkpt><trkpt lat="43.0587283" lon="11.42861"><ele>491.0</ele><time>2026-04-06T13:49:23.828Z</time></trkpt><trkpt lat="43.058665" lon="11.4287033"><ele>491.0</ele><time>2026-04-06T13:49:24.824Z</time></trkpt><trkpt lat="43.0586167" lon="11.4288167"><ele>491.0</ele><time>2026-04-06T13:49:25.828Z</time></trkpt><trkpt lat="43.0585767" lon="11.4289383"><ele>491.0</ele><time>2026-04-06T13:49:26.83Z</time></trkpt><trkpt lat="43.0585317" lon="11.429055"><ele>491.0</ele><time>2026-04-06T13:49:27.828Z</time></trkpt><trkpt lat="43.05849" lon="11.4291767"><ele>490.0</ele><time>2026-04-06T13:49:28.823Z</time></trkpt><trkpt lat="43.0584433" lon="11.4293"><ele>489.0</ele><time>2026-04-06T13:49:29.825Z</time></trkpt><trkpt lat="43.0584033" lon="11.42944"><ele>488.0</ele><time>2026-04-06T13:49:30.824Z</time></trkpt><trkpt lat="43.0583617" lon="11.4295917"><ele>487.0</ele><time>2026-04-06T13:49:31.834Z</time></trkpt><trkpt lat="43.05833" lon="11.429735"><ele>486.0</ele><time>2026-04-06T13:49:32.825Z</time></trkpt><trkpt lat="43.058305" lon="11.429855"><ele>486.0</ele><time>2026-04-06T13:49:33.827Z</time></trkpt><trkpt lat="43.05829" lon="11.4299633"><ele>486.0</ele><time>2026-04-06T13:49:34.825Z</time></trkpt><trkpt lat="43.0582683" lon="11.430065"><ele>486.0</ele><time>2026-04-06T13:49:35.823Z</time></trkpt><trkpt lat="43.0582583" lon="11.430175"><ele>486.0</ele><time>2026-04-06T13:49:36.833Z</time></trkpt><trkpt lat="43.05826" lon="11.4302883"><ele>486.0</ele><time>2026-04-06T13:49:37.829Z</time></trkpt><trkpt lat="43.0582667" lon="11.4304017"><ele>486.0</ele><time>2026-04-06T13:49:38.827Z</time></trkpt><trkpt lat="43.0582733" lon="11.4305117"><ele>485.1428571428571</ele><time>2026-04-06T13:49:39.825Z</time></trkpt><trkpt lat="43.058275" lon="11.430615"><ele>484.28571428571433</ele><time>2026-04-06T13:49:40.823Z</time></trkpt><trkpt lat="43.05827" lon="11.4307133"><ele>483.42857142857144</ele><time>2026-04-06T13:49:41.831Z</time></trkpt><trkpt lat="43.0582533" lon="11.4308067"><ele>482.57142857142856</ele><time>2026-04-06T13:49:42.828Z</time></trkpt><trkpt lat="43.05822" lon="11.4308917"><ele>481.71428571428567</ele><time>2026-04-06T13:49:43.825Z</time></trkpt><trkpt lat="43.05818" lon="11.43097"><ele>480.8571428571429</ele><time>2026-04-06T13:49:44.826Z</time></trkpt><trkpt lat="43.0581233" lon="11.4310267"><ele>480.0</ele><time>2026-04-06T13:49:45.836Z</time></trkpt><trkpt lat="43.058065" lon="11.431085"><ele>480.0</ele><time>2026-04-06T13:49:46.829Z</time></trkpt><trkpt lat="43.0579867" lon="11.4311333"><ele>480.0</ele><time>2026-04-06T13:49:47.827Z</time></trkpt><trkpt lat="43.057915" lon="11.4311883"><ele>480.0</ele><time>2026-04-06T13:49:48.827Z</time></trkpt><trkpt lat="43.0578383" lon="11.4312467"><ele>480.0</ele><time>2026-04-06T13:49:49.824Z</time></trkpt><trkpt lat="43.05776" lon="11.4313"><ele>480.0</ele><time>2026-04-06T13:49:50.831Z</time></trkpt><trkpt lat="43.057675" lon="11.4313583"><ele>480.0</ele><time>2026-04-06T13:49:51.827Z</time></trkpt><trkpt lat="43.057595" lon="11.4314167"><ele>481.6</ele><time>2026-04-06T13:49:52.827Z</time></trkpt><trkpt lat="43.057515" lon="11.4314917"><ele>483.2</ele><time>2026-04-06T13:49:53.824Z</time></trkpt><trkpt lat="43.0574433" lon="11.4315833"><ele>484.79999999999995</ele><time>2026-04-06T13:49:54.829Z</time></trkpt><trkpt lat="43.0573717" lon="11.4316733"><ele>486.4</ele><time>2026-04-06T13:49:55.828Z</time></trkpt><trkpt lat="43.0572967" lon="11.4317683"><ele>488.0</ele><time>2026-04-06T13:49:56.83Z</time></trkpt><trkpt lat="43.0572183" lon="11.431875"><ele>488.2</ele><time>2026-04-06T13:49:57.831Z</time></trkpt><trkpt lat="43.0571567" lon="11.4319783"><ele>488.4</ele><time>2026-04-06T13:49:58.827Z</time></trkpt><trkpt lat="43.0571033" lon="11.4320817"><ele>488.59999999999997</ele><time>2026-04-06T13:49:59.831Z</time></trkpt><trkpt lat="43.0570467" lon="11.4321867"><ele>488.79999999999995</ele><time>2026-04-06T13:50:00.83Z</time></trkpt><trkpt lat="43.05699" lon="11.4322983"><ele>489.0</ele><time>2026-04-06T13:50:01.826Z</time></trkpt><trkpt lat="43.0569233" lon="11.4324083"><ele>489.2</ele><time>2026-04-06T13:50:02.829Z</time></trkpt><trkpt lat="43.056855" lon="11.432515"><ele>489.4</ele><time>2026-04-06T13:50:03.826Z</time></trkpt><trkpt lat="43.0567867" lon="11.4326183"><ele>489.6</ele><time>2026-04-06T13:50:04.825Z</time></trkpt><trkpt lat="43.0567067" lon="11.4327083"><ele>489.8</ele><time>2026-04-06T13:50:05.828Z</time></trkpt><trkpt lat="43.0566267" lon="11.4327967"><ele>490.0</ele><time>2026-04-06T13:50:06.83Z</time></trkpt><trkpt lat="43.056565" lon="11.4328983"><ele>491.1666666666667</ele><time>2026-04-06T13:50:07.825Z</time></trkpt><trkpt lat="43.0565117" lon="11.432995"><ele>492.33333333333337</ele><time>2026-04-06T13:50:08.826Z</time></trkpt><trkpt lat="43.0564533" lon="11.433075"><ele>493.5</ele><time>2026-04-06T13:50:09.823Z</time></trkpt><trkpt lat="43.056385" lon="11.43314"><ele>494.66666666666663</ele><time>2026-04-06T13:50:10.828Z</time></trkpt><trkpt lat="43.0563133" lon="11.4332"><ele>495.8333333333333</ele><time>2026-04-06T13:50:11.83Z</time></trkpt><trkpt lat="43.0562417" lon="11.43323"><ele>497.0</ele><time>2026-04-06T13:50:12.825Z</time></trkpt><trkpt lat="43.0561733" lon="11.4332633"><ele>496.99999999999994</ele><time>2026-04-06T13:50:13.825Z</time></trkpt><trkpt lat="43.0560983" lon="11.4332983"><ele>497.0</ele><time>2026-04-06T13:50:14.825Z</time></trkpt><trkpt lat="43.0560167" lon="11.4333367"><ele>497.0</ele><time>2026-04-06T13:50:15.829Z</time></trkpt><trkpt lat="43.0559333" lon="11.4333717"><ele>497.0</ele><time>2026-04-06T13:50:16.825Z</time></trkpt><trkpt lat="43.0558583" lon="11.4333983"><ele>496.99999999999994</ele><time>2026-04-06T13:50:17.824Z</time></trkpt><trkpt lat="43.0557933" lon="11.4334233"><ele>497.0</ele><time>2026-04-06T13:50:18.827Z</time></trkpt><trkpt lat="43.0556817" lon="11.4334667"><ele>496.8333333333333</ele><time>2026-04-06T13:50:20.831Z</time></trkpt><trkpt lat="43.0556" lon="11.4335133"><ele>496.66666666666663</ele><time>2026-04-06T13:50:22.832Z</time></trkpt><trkpt lat="43.055535" lon="11.4335617"><ele>496.5</ele><time>2026-04-06T13:50:24.83Z</time></trkpt><trkpt lat="43.0554733" lon="11.4336183"><ele>496.33333333333337</ele><time>2026-04-06T13:50:26.83Z</time></trkpt><trkpt lat="43.0553833" lon="11.4336667"><ele>496.1666666666667</ele><time>2026-04-06T13:50:28.825Z</time></trkpt><trkpt lat="43.0552883" lon="11.4336983"><ele>496.0</ele><time>2026-04-06T13:50:30.826Z</time></trkpt><trkpt lat="43.05518" lon="11.4337167"><ele>496.00000000000006</ele><time>2026-04-06T13:50:32.824Z</time></trkpt><trkpt lat="43.055055" lon="11.433755"><ele>496.0</ele><time>2026-04-06T13:50:34.825Z</time></trkpt><trkpt lat="43.05499" lon="11.4337867"><ele>496.0</ele><time>2026-04-06T13:50:35.828Z</time></trkpt><trkpt lat="43.0549183" lon="11.4338233"><ele>496.0</ele><time>2026-04-06T13:50:36.831Z</time></trkpt><trkpt lat="43.0548483" lon="11.4338667"><ele>496.00000000000006</ele><time>2026-04-06T13:50:37.828Z</time></trkpt><trkpt lat="43.0547817" lon="11.4339167"><ele>496.0</ele><time>2026-04-06T13:50:38.829Z</time></trkpt><trkpt lat="43.0547183" lon="11.43396"><ele>494.33333333333337</ele><time>2026-04-06T13:50:39.832Z</time></trkpt><trkpt lat="43.0546533" lon="11.4339983"><ele>492.6666666666667</ele><time>2026-04-06T13:50:40.829Z</time></trkpt><trkpt lat="43.0545833" lon="11.434035"><ele>491.0</ele><time>2026-04-06T13:50:41.827Z</time></trkpt><trkpt lat="43.0545133" lon="11.4340767"><ele>489.33333333333337</ele><time>2026-04-06T13:50:42.83Z</time></trkpt><trkpt lat="43.0544383" lon="11.4341167"><ele>487.6666666666667</ele><time>2026-04-06T13:50:43.829Z</time></trkpt><trkpt lat="43.0543667" lon="11.4341583"><ele>486.0</ele><time>2026-04-06T13:50:44.829Z</time></trkpt><trkpt lat="43.0542867" lon="11.4341917"><ele>486.0</ele><time>2026-04-06T13:50:45.825Z</time></trkpt><trkpt lat="43.0542117" lon="11.434225"><ele>486.0</ele><time>2026-04-06T13:50:46.825Z</time></trkpt><trkpt lat="43.054135" lon="11.4342517"><ele>486.0</ele><time>2026-04-06T13:50:47.826Z</time></trkpt><trkpt lat="43.0540633" lon="11.4342733"><ele>486.0</ele><time>2026-04-06T13:50:48.825Z</time></trkpt><trkpt lat="43.053995" lon="11.4342867"><ele>486.0</ele><time>2026-04-06T13:50:49.832Z</time></trkpt><trkpt lat="43.053925" lon="11.4342967"><ele>486.0</ele><time>2026-04-06T13:50:50.837Z</time></trkpt><trkpt lat="43.0538583" lon="11.4343167"><ele>486.0</ele><time>2026-04-06T13:50:51.828Z</time></trkpt><trkpt lat="43.0537917" lon="11.4343317"><ele>485.6666666666667</ele><time>2026-04-06T13:50:52.827Z</time></trkpt><trkpt lat="43.053725" lon="11.43435"><ele>485.33333333333337</ele><time>2026-04-06T13:50:53.825Z</time></trkpt><trkpt lat="43.053665" lon="11.4343833"><ele>485.0</ele><time>2026-04-06T13:50:54.829Z</time></trkpt><trkpt lat="43.0536133" lon="11.43444"><ele>484.6666666666667</ele><time>2026-04-06T13:50:55.829Z</time></trkpt><trkpt lat="43.0535167" lon="11.4345383"><ele>484.33333333333337</ele><time>2026-04-06T13:50:57.825Z</time></trkpt><trkpt lat="43.0534733" lon="11.4346033"><ele>484.0</ele><time>2026-04-06T13:50:58.828Z</time></trkpt><trkpt lat="43.0534217" lon="11.4346667"><ele>482.83333333333337</ele><time>2026-04-06T13:50:59.831Z</time></trkpt><trkpt lat="43.05337" lon="11.434735"><ele>481.6666666666667</ele><time>2026-04-06T13:51:00.83Z</time></trkpt><trkpt lat="43.0533267" lon="11.4348183"><ele>480.5</ele><time>2026-04-06T13:51:01.825Z</time></trkpt><trkpt lat="43.053285" lon="11.4349233"><ele>479.33333333333337</ele><time>2026-04-06T13:51:02.829Z</time></trkpt><trkpt lat="43.0532517" lon="11.4350233"><ele>478.1666666666667</ele><time>2026-04-06T13:51:03.831Z</time></trkpt><trkpt lat="43.0532133" lon="11.4351183"><ele>477.0</ele><time>2026-04-06T13:51:04.826Z</time></trkpt><trkpt lat="43.0531783" lon="11.4352267"><ele>477.0</ele><time>2026-04-06T13:51:05.828Z</time></trkpt><trkpt lat="43.053145" lon="11.4353367"><ele>477.00000000000006</ele><time>2026-04-06T13:51:06.829Z</time></trkpt><trkpt lat="43.0531117" lon="11.43545"><ele>477.00000000000006</ele><time>2026-04-06T13:51:07.825Z</time></trkpt><trkpt lat="43.0530917" lon="11.43557"><ele>477.0</ele><time>2026-04-06T13:51:08.828Z</time></trkpt><trkpt lat="43.0530683" lon="11.4356933"><ele>477.0</ele><time>2026-04-06T13:51:09.828Z</time></trkpt><trkpt lat="43.05305" lon="11.4358217"><ele>475.5</ele><time>2026-04-06T13:51:10.826Z</time></trkpt><trkpt lat="43.0530433" lon="11.4359517"><ele>474.0</ele><time>2026-04-06T13:51:11.824Z</time></trkpt><trkpt lat="43.0530333" lon="11.43607"><ele>472.5</ele><time>2026-04-06T13:51:12.825Z</time></trkpt><trkpt lat="43.053015" lon="11.4361833"><ele>471.0</ele><time>2026-04-06T13:51:13.825Z</time></trkpt><trkpt lat="43.052995" lon="11.4362933"><ele>469.5</ele><time>2026-04-06T13:51:14.825Z</time></trkpt><trkpt lat="43.0529667" lon="11.4363967"><ele>468.0</ele><time>2026-04-06T13:51:15.825Z</time></trkpt><trkpt lat="43.0529433" lon="11.436495"><ele>468.0</ele><time>2026-04-06T13:51:16.826Z</time></trkpt><trkpt lat="43.0529017" lon="11.4365833"><ele>468.0</ele><time>2026-04-06T13:51:17.836Z</time></trkpt><trkpt lat="43.0528417" lon="11.436655"><ele>468.0</ele><time>2026-04-06T13:51:18.829Z</time></trkpt><trkpt lat="43.0527783" lon="11.436725"><ele>468.0</ele><time>2026-04-06T13:51:19.828Z</time></trkpt><trkpt lat="43.0527083" lon="11.4367717"><ele>468.0</ele><time>2026-04-06T13:51:20.827Z</time></trkpt><trkpt lat="43.05264" lon="11.436805"><ele>468.0</ele><time>2026-04-06T13:51:21.827Z</time></trkpt><trkpt lat="43.0525633" lon="11.4368233"><ele>468.0</ele><time>2026-04-06T13:51:22.83Z</time></trkpt><trkpt lat="43.0524883" lon="11.436815"><ele>468.0</ele><time>2026-04-06T13:51:23.832Z</time></trkpt><trkpt lat="43.0524183" lon="11.43679"><ele>468.0</ele><time>2026-04-06T13:51:24.826Z</time></trkpt><trkpt lat="43.052345" lon="11.4367717"><ele>468.0</ele><time>2026-04-06T13:51:25.827Z</time></trkpt><trkpt lat="43.0522683" lon="11.4367667"><ele>468.0</ele><time>2026-04-06T13:51:26.826Z</time></trkpt><trkpt lat="43.052185" lon="11.4367733"><ele>468.0</ele><time>2026-04-06T13:51:27.828Z</time></trkpt><trkpt lat="43.0520933" lon="11.4367817"><ele>468.1666666666667</ele><time>2026-04-06T13:51:28.831Z</time></trkpt><trkpt lat="43.0519933" lon="11.436805"><ele>468.33333333333337</ele><time>2026-04-06T13:51:29.825Z</time></trkpt><trkpt lat="43.0519033" lon="11.4368383"><ele>468.5</ele><time>2026-04-06T13:51:30.827Z</time></trkpt><trkpt lat="43.051825" lon="11.43686"><ele>468.6666666666667</ele><time>2026-04-06T13:51:31.823Z</time></trkpt><trkpt lat="43.05175" lon="11.4368833"><ele>468.83333333333337</ele><time>2026-04-06T13:51:32.825Z</time></trkpt><trkpt lat="43.0516783" lon="11.436905"><ele>469.0</ele><time>2026-04-06T13:51:33.826Z</time></trkpt><trkpt lat="43.0516167" lon="11.4369433"><ele>469.1666666666667</ele><time>2026-04-06T13:51:34.825Z</time></trkpt><trkpt lat="43.0515633" lon="11.437"><ele>469.33333333333337</ele><time>2026-04-06T13:51:35.827Z</time></trkpt><trkpt lat="43.0515133" lon="11.4370667"><ele>469.5</ele><time>2026-04-06T13:51:36.827Z</time></trkpt><trkpt lat="43.051455" lon="11.4371433"><ele>469.66666666666663</ele><time>2026-04-06T13:51:37.826Z</time></trkpt><trkpt lat="43.0514" lon="11.4372417"><ele>469.8333333333333</ele><time>2026-04-06T13:51:38.828Z</time></trkpt><trkpt lat="43.0513417" lon="11.4373433"><ele>470.0</ele><time>2026-04-06T13:51:39.831Z</time></trkpt><trkpt lat="43.0512683" lon="11.4374317"><ele>470.0</ele><time>2026-04-06T13:51:40.826Z</time></trkpt><trkpt lat="43.05118" lon="11.4375233"><ele>470.0</ele><time>2026-04-06T13:51:41.825Z</time></trkpt><trkpt lat="43.0510833" lon="11.4376133"><ele>470.0</ele><time>2026-04-06T13:51:42.827Z</time></trkpt><trkpt lat="43.0509817" lon="11.437685"><ele>470.0</ele><time>2026-04-06T13:51:43.827Z</time></trkpt><trkpt lat="43.0508817" lon="11.4377467"><ele>469.99999999999994</ele><time>2026-04-06T13:51:44.827Z</time></trkpt><trkpt lat="43.0507933" lon="11.4378017"><ele>470.0</ele><time>2026-04-06T13:51:45.826Z</time></trkpt><trkpt lat="43.0507183" lon="11.437855"><ele>470.0</ele><time>2026-04-06T13:51:46.823Z</time></trkpt><trkpt lat="43.050655" lon="11.4379083"><ele>470.0</ele><time>2026-04-06T13:51:47.83Z</time></trkpt><trkpt lat="43.0505967" lon="11.437965"><ele>469.99999999999994</ele><time>2026-04-06T13:51:48.827Z</time></trkpt><trkpt lat="43.0505467" lon="11.4380333"><ele>470.0</ele><time>2026-04-06T13:51:49.826Z</time></trkpt><trkpt lat="43.0505067" lon="11.4381167"><ele>471.99999999999994</ele><time>2026-04-06T13:51:50.826Z</time></trkpt><trkpt lat="43.05048" lon="11.4382067"><ele>474.0</ele><time>2026-04-06T13:51:51.827Z</time></trkpt><trkpt lat="43.0504633" lon="11.4383033"><ele>476.0</ele><time>2026-04-06T13:51:52.828Z</time></trkpt><trkpt lat="43.0504483" lon="11.4384083"><ele>478.0</ele><time>2026-04-06T13:51:53.825Z</time></trkpt><trkpt lat="43.0504233" lon="11.4385167"><ele>479.99999999999994</ele><time>2026-04-06T13:51:54.827Z</time></trkpt><trkpt lat="43.0503983" lon="11.4386233"><ele>482.0</ele><time>2026-04-06T13:51:55.831Z</time></trkpt><trkpt lat="43.0503783" lon="11.4387283"><ele>482.8333333333333</ele><time>2026-04-06T13:51:56.828Z</time></trkpt><trkpt lat="43.0503783" lon="11.43883"><ele>483.66666666666663</ele><time>2026-04-06T13:51:57.83Z</time></trkpt><trkpt lat="43.0503983" lon="11.4389267"><ele>484.5</ele><time>2026-04-06T13:51:58.832Z</time></trkpt><trkpt lat="43.0504417" lon="11.4390217"><ele>485.33333333333337</ele><time>2026-04-06T13:51:59.826Z</time></trkpt><trkpt lat="43.05049" lon="11.4391233"><ele>486.1666666666667</ele><time>2026-04-06T13:52:00.823Z</time></trkpt><trkpt lat="43.05054" lon="11.4392167"><ele>487.0</ele><time>2026-04-06T13:52:01.822Z</time></trkpt><trkpt lat="43.050585" lon="11.4393033"><ele>487.00000000000006</ele><time>2026-04-06T13:52:02.825Z</time></trkpt><trkpt lat="43.050625" lon="11.4393917"><ele>487.0</ele><time>2026-04-06T13:52:03.827Z</time></trkpt><trkpt lat="43.0506617" lon="11.43949"><ele>487.0</ele><time>2026-04-06T13:52:04.827Z</time></trkpt><trkpt lat="43.050685" lon="11.4395983"><ele>487.0</ele><time>2026-04-06T13:52:05.828Z</time></trkpt><trkpt lat="43.050705" lon="11.4397067"><ele>487.00000000000006</ele><time>2026-04-06T13:52:06.824Z</time></trkpt><trkpt lat="43.050705" lon="11.4398167"><ele>487.0</ele><time>2026-04-06T13:52:07.829Z</time></trkpt><trkpt lat="43.0506933" lon="11.43993"><ele>486.00000000000006</ele><time>2026-04-06T13:52:08.828Z</time></trkpt><trkpt lat="43.050675" lon="11.440045"><ele>485.0</ele><time>2026-04-06T13:52:09.824Z</time></trkpt><trkpt lat="43.05065" lon="11.4401567"><ele>484.0</ele><time>2026-04-06T13:52:10.825Z</time></trkpt><trkpt lat="43.050615" lon="11.44026"><ele>483.0</ele><time>2026-04-06T13:52:11.832Z</time></trkpt><trkpt lat="43.0505817" lon="11.4403517"><ele>482.00000000000006</ele><time>2026-04-06T13:52:12.831Z</time></trkpt><trkpt lat="43.0505333" lon="11.4404283"><ele>481.0</ele><time>2026-04-06T13:52:13.829Z</time></trkpt><trkpt lat="43.0504767" lon="11.440495"><ele>478.6666666666667</ele><time>2026-04-06T13:52:14.827Z</time></trkpt><trkpt lat="43.0504133" lon="11.4405533"><ele>476.33333333333337</ele><time>2026-04-06T13:52:15.823Z</time></trkpt><trkpt lat="43.0503467" lon="11.4406117"><ele>474.0</ele><time>2026-04-06T13:52:16.826Z</time></trkpt><trkpt lat="43.0502733" lon="11.4406767"><ele>471.66666666666663</ele><time>2026-04-06T13:52:17.828Z</time></trkpt><trkpt lat="43.050205" lon="11.440755"><ele>469.3333333333333</ele><time>2026-04-06T13:52:18.824Z</time></trkpt><trkpt lat="43.0501383" lon="11.4408467"><ele>467.0</ele><time>2026-04-06T13:52:19.824Z</time></trkpt><trkpt lat="43.0500933" lon="11.4409517"><ele>467.0</ele><time>2026-04-06T13:52:20.825Z</time></trkpt><trkpt lat="43.0500733" lon="11.4410733"><ele>467.00000000000006</ele><time>2026-04-06T13:52:21.828Z</time></trkpt><trkpt lat="43.0500617" lon="11.4411867"><ele>467.00000000000006</ele><time>2026-04-06T13:52:22.83Z</time></trkpt><trkpt lat="43.0500567" lon="11.4413"><ele>467.0</ele><time>2026-04-06T13:52:23.83Z</time></trkpt><trkpt lat="43.05006" lon="11.4414333"><ele>467.0</ele><time>2026-04-06T13:52:24.825Z</time></trkpt><trkpt lat="43.0500683" lon="11.4415783"><ele>466.40000000000003</ele><time>2026-04-06T13:52:25.826Z</time></trkpt><trkpt lat="43.0500717" lon="11.44172"><ele>465.80000000000007</ele><time>2026-04-06T13:52:26.826Z</time></trkpt><trkpt lat="43.050075" lon="11.441855"><ele>465.2</ele><time>2026-04-06T13:52:27.829Z</time></trkpt><trkpt lat="43.05008" lon="11.4420033"><ele>464.6</ele><time>2026-04-06T13:52:28.825Z</time></trkpt><trkpt lat="43.0500867" lon="11.4421633"><ele>464.0</ele><time>2026-04-06T13:52:29.824Z</time></trkpt><trkpt lat="43.0500883" lon="11.4423217"><ele>464.0</ele><time>2026-04-06T13:52:30.824Z</time></trkpt><trkpt lat="43.0500883" lon="11.4424717"><ele>464.0</ele><time>2026-04-06T13:52:31.825Z</time></trkpt><trkpt lat="43.0500917" lon="11.44261"><ele>464.0</ele><time>2026-04-06T13:52:32.826Z</time></trkpt><trkpt lat="43.0500983" lon="11.442735"><ele>464.0</ele><time>2026-04-06T13:52:33.83Z</time></trkpt><trkpt lat="43.0501067" lon="11.4428517"><ele>464.0</ele><time>2026-04-06T13:52:34.827Z</time></trkpt><trkpt lat="43.0501233" lon="11.44296"><ele>465.16666666666663</ele><time>2026-04-06T13:52:35.825Z</time></trkpt><trkpt lat="43.0501317" lon="11.4430633"><ele>466.3333333333333</ele><time>2026-04-06T13:52:36.824Z</time></trkpt><trkpt lat="43.0501333" lon="11.443175"><ele>467.5</ele><time>2026-04-06T13:52:37.825Z</time></trkpt><trkpt lat="43.050135" lon="11.443295"><ele>468.66666666666663</ele><time>2026-04-06T13:52:38.824Z</time></trkpt><trkpt lat="43.0501283" lon="11.4434217"><ele>469.8333333333333</ele><time>2026-04-06T13:52:39.827Z</time></trkpt><trkpt lat="43.0501067" lon="11.44355"><ele>471.0</ele><time>2026-04-06T13:52:40.831Z</time></trkpt><trkpt lat="43.050085" lon="11.4436933"><ele>470.8</ele><time>2026-04-06T13:52:41.839Z</time></trkpt><trkpt lat="43.0500517" lon="11.44384"><ele>470.6</ele><time>2026-04-06T13:52:42.83Z</time></trkpt><trkpt lat="43.0500233" lon="11.44398"><ele>470.4</ele><time>2026-04-06T13:52:43.829Z</time></trkpt><trkpt lat="43.0499917" lon="11.4441117"><ele>470.2</ele><time>2026-04-06T13:52:44.825Z</time></trkpt><trkpt lat="43.0499617" lon="11.44424"><ele>470.0</ele><time>2026-04-06T13:52:45.83Z</time></trkpt><trkpt lat="43.0499333" lon="11.4443667"><ele>470.0</ele><time>2026-04-06T13:52:46.825Z</time></trkpt><trkpt lat="43.0499317" lon="11.4445033"><ele>470.0</ele><time>2026-04-06T13:52:47.829Z</time></trkpt><trkpt lat="43.0499333" lon="11.4446383"><ele>470.0</ele><time>2026-04-06T13:52:48.827Z</time></trkpt><trkpt lat="43.0499283" lon="11.4447583"><ele>470.0</ele><time>2026-04-06T13:52:49.831Z</time></trkpt><trkpt lat="43.0499233" lon="11.4448717"><ele>470.0</ele><time>2026-04-06T13:52:50.83Z</time></trkpt><trkpt lat="43.0499233" lon="11.4449833"><ele>468.49999999999994</ele><time>2026-04-06T13:52:51.827Z</time></trkpt><trkpt lat="43.0499117" lon="11.4450933"><ele>467.0</ele><time>2026-04-06T13:52:52.825Z</time></trkpt><trkpt lat="43.0498917" lon="11.4452067"><ele>465.5</ele><time>2026-04-06T13:52:53.825Z</time></trkpt><trkpt lat="43.04985" lon="11.445315"><ele>464.0</ele><time>2026-04-06T13:52:54.828Z</time></trkpt><trkpt lat="43.0498183" lon="11.4454083"><ele>462.49999999999994</ele><time>2026-04-06T13:52:55.827Z</time></trkpt><trkpt lat="43.0497833" lon="11.4454917"><ele>461.0</ele><time>2026-04-06T13:52:56.827Z</time></trkpt><trkpt lat="43.0497583" lon="11.445575"><ele>461.0</ele><time>2026-04-06T13:52:57.828Z</time></trkpt><trkpt lat="43.0497367" lon="11.4456583"><ele>461.0</ele><time>2026-04-06T13:52:58.826Z</time></trkpt><trkpt lat="43.0496983" lon="11.4458017"><ele>461.0</ele><time>2026-04-06T13:53:00.824Z</time></trkpt><trkpt lat="43.0496817" lon="11.4459583"><ele>461.0</ele><time>2026-04-06T13:53:02.827Z</time></trkpt><trkpt lat="43.049665" lon="11.4461033"><ele>461.0</ele><time>2026-04-06T13:53:04.826Z</time></trkpt><trkpt lat="43.0496433" lon="11.4462333"><ele>461.66666666666663</ele><time>2026-04-06T13:53:06.834Z</time></trkpt><trkpt lat="43.0496233" lon="11.4463767"><ele>462.3333333333333</ele><time>2026-04-06T13:53:08.826Z</time></trkpt><trkpt lat="43.0496083" lon="11.4465317"><ele>463.0</ele><time>2026-04-06T13:53:10.826Z</time></trkpt><trkpt lat="43.0496017" lon="11.4466183"><ele>463.66666666666663</ele><time>2026-04-06T13:53:11.828Z</time></trkpt><trkpt lat="43.0495983" lon="11.44671"><ele>464.3333333333333</ele><time>2026-04-06T13:53:12.829Z</time></trkpt><trkpt lat="43.0495883" lon="11.4468067"><ele>465.0</ele><time>2026-04-06T13:53:13.824Z</time></trkpt><trkpt lat="43.0495783" lon="11.4469"><ele>465.0</ele><time>2026-04-06T13:53:14.827Z</time></trkpt><trkpt lat="43.049575" lon="11.4470067"><ele>465.0</ele><time>2026-04-06T13:53:15.824Z</time></trkpt><trkpt lat="43.0495667" lon="11.44712"><ele>465.0</ele><time>2026-04-06T13:53:16.826Z</time></trkpt><trkpt lat="43.0495717" lon="11.4472367"><ele>465.0</ele><time>2026-04-06T13:53:17.826Z</time></trkpt><trkpt lat="43.0495717" lon="11.4473417"><ele>465.0</ele><time>2026-04-06T13:53:18.824Z</time></trkpt><trkpt lat="43.0495717" lon="11.4474483"><ele>465.0</ele><time>2026-04-06T13:53:19.826Z</time></trkpt><trkpt lat="43.0495717" lon="11.4475583"><ele>465.1666666666667</ele><time>2026-04-06T13:53:20.827Z</time></trkpt><trkpt lat="43.049585" lon="11.4476617"><ele>465.33333333333337</ele><time>2026-04-06T13:53:21.824Z</time></trkpt><trkpt lat="43.049605" lon="11.4477817"><ele>465.5</ele><time>2026-04-06T13:53:22.826Z</time></trkpt><trkpt lat="43.0496333" lon="11.447895"><ele>465.6666666666667</ele><time>2026-04-06T13:53:23.83Z</time></trkpt><trkpt lat="43.049665" lon="11.448"><ele>465.83333333333337</ele><time>2026-04-06T13:53:24.828Z</time></trkpt><trkpt lat="43.0496867" lon="11.44809"><ele>466.0</ele><time>2026-04-06T13:53:25.828Z</time></trkpt><trkpt lat="43.0497133" lon="11.448245"><ele>466.6</ele><time>2026-04-06T13:53:27.827Z</time></trkpt><trkpt lat="43.04968" lon="11.448405"><ele>467.20000000000005</ele><time>2026-04-06T13:53:29.83Z</time></trkpt><trkpt lat="43.0496017" lon="11.4485433"><ele>467.79999999999995</ele><time>2026-04-06T13:53:31.823Z</time></trkpt><trkpt lat="43.049555" lon="11.4486183"><ele>468.4</ele><time>2026-04-06T13:53:32.826Z</time></trkpt><trkpt lat="43.0494883" lon="11.4486983"><ele>469.0</ele><time>2026-04-06T13:53:33.836Z</time></trkpt><trkpt lat="43.0494133" lon="11.4487933"><ele>469.4</ele><time>2026-04-06T13:53:34.828Z</time></trkpt><trkpt lat="43.049345" lon="11.448895"><ele>469.79999999999995</ele><time>2026-04-06T13:53:35.827Z</time></trkpt><trkpt lat="43.0492717" lon="11.448995"><ele>470.20000000000005</ele><time>2026-04-06T13:53:36.83Z</time></trkpt><trkpt lat="43.0492017" lon="11.449085"><ele>470.6</ele><time>2026-04-06T13:53:37.826Z</time></trkpt><trkpt lat="43.0491167" lon="11.4491817"><ele>471.0</ele><time>2026-04-06T13:53:38.828Z</time></trkpt><trkpt lat="43.0490367" lon="11.44929"><ele>471.0</ele><time>2026-04-06T13:53:39.825Z</time></trkpt><trkpt lat="43.0489633" lon="11.4493967"><ele>471.0</ele><time>2026-04-06T13:53:40.828Z</time></trkpt><trkpt lat="43.048885" lon="11.449505"><ele>471.0</ele><time>2026-04-06T13:53:41.824Z</time></trkpt><trkpt lat="43.048805" lon="11.449615"><ele>471.0</ele><time>2026-04-06T13:53:42.829Z</time></trkpt><trkpt lat="43.0487367" lon="11.4497267"><ele>471.0</ele><time>2026-04-06T13:53:43.825Z</time></trkpt><trkpt lat="43.0486783" lon="11.449835"><ele>473.6</ele><time>2026-04-06T13:53:44.83Z</time></trkpt><trkpt lat="43.0486117" lon="11.4499383"><ele>476.20000000000005</ele><time>2026-04-06T13:53:45.832Z</time></trkpt><trkpt lat="43.048545" lon="11.4500383"><ele>478.79999999999995</ele><time>2026-04-06T13:53:46.826Z</time></trkpt><trkpt lat="43.04848" lon="11.4501217"><ele>481.4</ele><time>2026-04-06T13:53:47.825Z</time></trkpt><trkpt lat="43.0484083" lon="11.4501967"><ele>484.0</ele><time>2026-04-06T13:53:48.823Z</time></trkpt><trkpt lat="43.0483317" lon="11.4502717"><ele>483.50000000000006</ele><time>2026-04-06T13:53:49.833Z</time></trkpt><trkpt lat="43.0482633" lon="11.45034"><ele>483.0</ele><time>2026-04-06T13:53:50.828Z</time></trkpt><trkpt lat="43.0482083" lon="11.4504133"><ele>482.5</ele><time>2026-04-06T13:53:51.828Z</time></trkpt><trkpt lat="43.0481667" lon="11.4504833"><ele>482.0</ele><time>2026-04-06T13:53:52.829Z</time></trkpt><trkpt lat="43.0481317" lon="11.4505633"><ele>481.50000000000006</ele><time>2026-04-06T13:53:53.828Z</time></trkpt><trkpt lat="43.0480983" lon="11.4506583"><ele>481.0</ele><time>2026-04-06T13:53:54.827Z</time></trkpt><trkpt lat="43.0480767" lon="11.450775"><ele>481.00000000000006</ele><time>2026-04-06T13:53:55.826Z</time></trkpt><trkpt lat="43.0480567" lon="11.450895"><ele>481.0</ele><time>2026-04-06T13:53:56.824Z</time></trkpt><trkpt lat="43.0480383" lon="11.451015"><ele>481.0</ele><time>2026-04-06T13:53:57.825Z</time></trkpt><trkpt lat="43.04802" lon="11.4511317"><ele>481.0</ele><time>2026-04-06T13:53:58.823Z</time></trkpt><trkpt lat="43.0480033" lon="11.4512433"><ele>481.00000000000006</ele><time>2026-04-06T13:53:59.827Z</time></trkpt><trkpt lat="43.0479817" lon="11.4513567"><ele>481.0</ele><time>2026-04-06T13:54:00.828Z</time></trkpt><trkpt lat="43.0479533" lon="11.4514733"><ele>481.5714285714285</ele><time>2026-04-06T13:54:01.824Z</time></trkpt><trkpt lat="43.04792" lon="11.4515917"><ele>482.1428571428571</ele><time>2026-04-06T13:54:02.829Z</time></trkpt><trkpt lat="43.04789" lon="11.4516933"><ele>482.7142857142857</ele><time>2026-04-06T13:54:03.833Z</time></trkpt><trkpt lat="43.04786" lon="11.4517817"><ele>483.2857142857143</ele><time>2026-04-06T13:54:04.827Z</time></trkpt><trkpt lat="43.0478333" lon="11.4518667"><ele>483.8571428571429</ele><time>2026-04-06T13:54:05.828Z</time></trkpt><trkpt lat="43.0478017" lon="11.4519467"><ele>484.4285714285715</ele><time>2026-04-06T13:54:06.824Z</time></trkpt><trkpt lat="43.0477783" lon="11.452035"><ele>485.00000000000006</ele><time>2026-04-06T13:54:07.824Z</time></trkpt><trkpt lat="43.0477583" lon="11.452135"><ele>485.8333333333333</ele><time>2026-04-06T13:54:08.83Z</time></trkpt><trkpt lat="43.0477417" lon="11.4522367"><ele>486.66666666666663</ele><time>2026-04-06T13:54:09.825Z</time></trkpt><trkpt lat="43.0477283" lon="11.45234"><ele>487.5</ele><time>2026-04-06T13:54:10.826Z</time></trkpt><trkpt lat="43.0477083" lon="11.4524517"><ele>488.33333333333337</ele><time>2026-04-06T13:54:11.825Z</time></trkpt><trkpt lat="43.0476867" lon="11.4525717"><ele>489.1666666666667</ele><time>2026-04-06T13:54:12.825Z</time></trkpt><trkpt lat="43.0476567" lon="11.4527033"><ele>490.0</ele><time>2026-04-06T13:54:13.825Z</time></trkpt><trkpt lat="43.0476267" lon="11.4528467"><ele>490.50000000000006</ele><time>2026-04-06T13:54:14.825Z</time></trkpt><trkpt lat="43.0475983" lon="11.4529867"><ele>491.0</ele><time>2026-04-06T13:54:15.829Z</time></trkpt><trkpt lat="43.0475767" lon="11.45311"><ele>491.5</ele><time>2026-04-06T13:54:16.823Z</time></trkpt><trkpt lat="43.0475583" lon="11.453215"><ele>492.0</ele><time>2026-04-06T13:54:17.83Z</time></trkpt><trkpt lat="43.0475383" lon="11.45331"><ele>492.50000000000006</ele><time>2026-04-06T13:54:18.825Z</time></trkpt><trkpt lat="43.0475267" lon="11.453405"><ele>493.0</ele><time>2026-04-06T13:54:19.824Z</time></trkpt><trkpt lat="43.0475183" lon="11.453495"><ele>493.0</ele><time>2026-04-06T13:54:20.827Z</time></trkpt><trkpt lat="43.0475017" lon="11.4535783"><ele>493.0</ele><time>2026-04-06T13:54:21.824Z</time></trkpt><trkpt lat="43.0474867" lon="11.4536633"><ele>493.0</ele><time>2026-04-06T13:54:22.826Z</time></trkpt><trkpt lat="43.047465" lon="11.453745"><ele>493.0</ele><time>2026-04-06T13:54:23.825Z</time></trkpt><trkpt lat="43.0474233" lon="11.4538167"><ele>493.0</ele><time>2026-04-06T13:54:24.823Z</time></trkpt><trkpt lat="43.047365" lon="11.453885"><ele>493.0</ele><time>2026-04-06T13:54:25.826Z</time></trkpt><trkpt lat="43.0473017" lon="11.4539483"><ele>493.0</ele><time>2026-04-06T13:54:26.824Z</time></trkpt><trkpt lat="43.0472167" lon="11.45401"><ele>495.25</ele><time>2026-04-06T13:54:27.823Z</time></trkpt><trkpt lat="43.0471233" lon="11.45408"><ele>497.5</ele><time>2026-04-06T13:54:28.826Z</time></trkpt><trkpt lat="43.04702" lon="11.4541483"><ele>499.75</ele><time>2026-04-06T13:54:29.828Z</time></trkpt><trkpt lat="43.0469133" lon="11.45421"><ele>502.0</ele><time>2026-04-06T13:54:30.831Z</time></trkpt><trkpt lat="43.0468" lon="11.454275"><ele>502.0</ele><time>2026-04-06T13:54:31.824Z</time></trkpt><trkpt lat="43.0466933" lon="11.4543433"><ele>502.0</ele><time>2026-04-06T13:54:32.83Z</time></trkpt><trkpt lat="43.04659" lon="11.4544183"><ele>502.0</ele><time>2026-04-06T13:54:33.827Z</time></trkpt><trkpt lat="43.0464933" lon="11.4545"><ele>502.0</ele><time>2026-04-06T13:54:34.828Z</time></trkpt><trkpt lat="43.0464017" lon="11.4545883"><ele>503.0</ele><time>2026-04-06T13:54:35.824Z</time></trkpt><trkpt lat="43.046315" lon="11.4546733"><ele>504.00000000000006</ele><time>2026-04-06T13:54:36.827Z</time></trkpt><trkpt lat="43.046225" lon="11.4547367"><ele>505.00000000000006</ele><time>2026-04-06T13:54:37.829Z</time></trkpt><trkpt lat="43.0461433" lon="11.4547917"><ele>506.0</ele><time>2026-04-06T13:54:38.834Z</time></trkpt><trkpt lat="43.0460567" lon="11.4548467"><ele>507.0</ele><time>2026-04-06T13:54:39.828Z</time></trkpt><trkpt lat="43.0459717" lon="11.4548933"><ele>507.0</ele><time>2026-04-06T13:54:40.828Z</time></trkpt><trkpt lat="43.045885" lon="11.4549383"><ele>507.0</ele><time>2026-04-06T13:54:41.827Z</time></trkpt><trkpt lat="43.0458067" lon="11.4549867"><ele>507.0</ele><time>2026-04-06T13:54:42.829Z</time></trkpt><trkpt lat="43.045725" lon="11.4550283"><ele>507.0</ele><time>2026-04-06T13:54:43.835Z</time></trkpt><trkpt lat="43.04565" lon="11.455075"><ele>507.0</ele><time>2026-04-06T13:54:44.831Z</time></trkpt><trkpt lat="43.04558" lon="11.4551383"><ele>507.0</ele><time>2026-04-06T13:54:45.824Z</time></trkpt><trkpt lat="43.0455167" lon="11.4552317"><ele>506.8</ele><time>2026-04-06T13:54:46.826Z</time></trkpt><trkpt lat="43.0454517" lon="11.4553517"><ele>506.6</ele><time>2026-04-06T13:54:47.827Z</time></trkpt><trkpt lat="43.045385" lon="11.4554817"><ele>506.40000000000003</ele><time>2026-04-06T13:54:48.831Z</time></trkpt><trkpt lat="43.0453217" lon="11.4556"><ele>506.20000000000005</ele><time>2026-04-06T13:54:49.827Z</time></trkpt><trkpt lat="43.0452567" lon="11.4557167"><ele>506.0</ele><time>2026-04-06T13:54:50.824Z</time></trkpt><trkpt lat="43.0451933" lon="11.455835"><ele>505.6</ele><time>2026-04-06T13:54:51.83Z</time></trkpt><trkpt lat="43.04514" lon="11.45595"><ele>505.20000000000005</ele><time>2026-04-06T13:54:52.831Z</time></trkpt><trkpt lat="43.0450783" lon="11.456055"><ele>504.79999999999995</ele><time>2026-04-06T13:54:53.825Z</time></trkpt><trkpt lat="43.0450233" lon="11.4561633"><ele>504.4</ele><time>2026-04-06T13:54:54.83Z</time></trkpt><trkpt lat="43.044975" lon="11.4562717"><ele>504.0</ele><time>2026-04-06T13:54:55.834Z</time></trkpt><trkpt lat="43.0449233" lon="11.4563717"><ele>503.6</ele><time>2026-04-06T13:54:56.831Z</time></trkpt><trkpt lat="43.0448717" lon="11.4564767"><ele>503.2</ele><time>2026-04-06T13:54:57.827Z</time></trkpt><trkpt lat="43.0448283" lon="11.4565933"><ele>502.80000000000007</ele><time>2026-04-06T13:54:58.825Z</time></trkpt><trkpt lat="43.0448" lon="11.456725"><ele>502.40000000000003</ele><time>2026-04-06T13:54:59.83Z</time></trkpt><trkpt lat="43.04478" lon="11.45686"><ele>502.0</ele><time>2026-04-06T13:55:00.828Z</time></trkpt><trkpt lat="43.0447633" lon="11.4569917"><ele>503.33333333333337</ele><time>2026-04-06T13:55:01.825Z</time></trkpt><trkpt lat="43.0447417" lon="11.4571217"><ele>504.6666666666667</ele><time>2026-04-06T13:55:02.829Z</time></trkpt><trkpt lat="43.04471" lon="11.4572333"><ele>506.0</ele><time>2026-04-06T13:55:03.826Z</time></trkpt><trkpt lat="43.0446733" lon="11.4573367"><ele>507.33333333333337</ele><time>2026-04-06T13:55:04.823Z</time></trkpt><trkpt lat="43.044615" lon="11.4574233"><ele>508.6666666666667</ele><time>2026-04-06T13:55:05.833Z</time></trkpt><trkpt lat="43.044545" lon="11.4575083"><ele>510.0</ele><time>2026-04-06T13:55:06.828Z</time></trkpt><trkpt lat="43.044455" lon="11.45758"><ele>510.0</ele><time>2026-04-06T13:55:07.827Z</time></trkpt><trkpt lat="43.04436" lon="11.4576483"><ele>510.0</ele><time>2026-04-06T13:55:08.826Z</time></trkpt><trkpt lat="43.044265" lon="11.4577283"><ele>510.0</ele><time>2026-04-06T13:55:09.824Z</time></trkpt><trkpt lat="43.044185" lon="11.4578183"><ele>510.0</ele><time>2026-04-06T13:55:10.826Z</time></trkpt><trkpt lat="43.0441133" lon="11.4579367"><ele>510.0</ele><time>2026-04-06T13:55:11.827Z</time></trkpt><trkpt lat="43.044035" lon="11.458055"><ele>509.25</ele><time>2026-04-06T13:55:12.831Z</time></trkpt><trkpt lat="43.0439517" lon="11.45819"><ele>508.5</ele><time>2026-04-06T13:55:13.829Z</time></trkpt><trkpt lat="43.0438617" lon="11.458335"><ele>507.75</ele><time>2026-04-06T13:55:14.825Z</time></trkpt><trkpt lat="43.0437633" lon="11.4584733"><ele>507.0</ele><time>2026-04-06T13:55:15.826Z</time></trkpt><trkpt lat="43.0436683" lon="11.45861"><ele>507.0</ele><time>2026-04-06T13:55:16.824Z</time></trkpt><trkpt lat="43.043585" lon="11.4587283"><ele>507.00000000000006</ele><time>2026-04-06T13:55:17.83Z</time></trkpt><trkpt lat="43.0435133" lon="11.4588417"><ele>507.00000000000006</ele><time>2026-04-06T13:55:18.828Z</time></trkpt><trkpt lat="43.0434367" lon="11.45894"><ele>507.0</ele><time>2026-04-06T13:55:19.825Z</time></trkpt><trkpt lat="43.0433517" lon="11.4590367"><ele>507.0</ele><time>2026-04-06T13:55:20.824Z</time></trkpt><trkpt lat="43.0432633" lon="11.4591133"><ele>507.0</ele><time>2026-04-06T13:55:21.827Z</time></trkpt><trkpt lat="43.0431733" lon="11.4591717"><ele>507.00000000000006</ele><time>2026-04-06T13:55:22.825Z</time></trkpt><trkpt lat="43.04309" lon="11.4592183"><ele>507.00000000000006</ele><time>2026-04-06T13:55:23.828Z</time></trkpt><trkpt lat="43.0430133" lon="11.45927"><ele>507.0</ele><time>2026-04-06T13:55:24.827Z</time></trkpt><trkpt lat="43.0429433" lon="11.4593433"><ele>507.0</ele><time>2026-04-06T13:55:25.823Z</time></trkpt><trkpt lat="43.0428867" lon="11.4594467"><ele>507.0</ele><time>2026-04-06T13:55:26.826Z</time></trkpt><trkpt lat="43.0428433" lon="11.45957"><ele>507.0</ele><time>2026-04-06T13:55:27.834Z</time></trkpt><trkpt lat="43.0428067" lon="11.4596967"><ele>507.0</ele><time>2026-04-06T13:55:28.828Z</time></trkpt><trkpt lat="43.0427717" lon="11.4598133"><ele>507.0</ele><time>2026-04-06T13:55:29.826Z</time></trkpt><trkpt lat="43.042745" lon="11.4599217"><ele>507.0</ele><time>2026-04-06T13:55:30.824Z</time></trkpt><trkpt lat="43.04272" lon="11.4600167"><ele>507.0</ele><time>2026-04-06T13:55:31.826Z</time></trkpt><trkpt lat="43.0427067" lon="11.46011"><ele>507.5</ele><time>2026-04-06T13:55:32.828Z</time></trkpt><trkpt lat="43.0427067" lon="11.4602033"><ele>508.0</ele><time>2026-04-06T13:55:33.828Z</time></trkpt><trkpt lat="43.04272" lon="11.4602967"><ele>508.5</ele><time>2026-04-06T13:55:34.826Z</time></trkpt><trkpt lat="43.0427417" lon="11.460395"><ele>509.0</ele><time>2026-04-06T13:55:35.823Z</time></trkpt><trkpt lat="43.0427883" lon="11.460495"><ele>509.5</ele><time>2026-04-06T13:55:36.83Z</time></trkpt><trkpt lat="43.042845" lon="11.4606083"><ele>510.0</ele><time>2026-04-06T13:55:37.826Z</time></trkpt><trkpt lat="43.0429" lon="11.4607183"><ele>510.0</ele><time>2026-04-06T13:55:38.83Z</time></trkpt><trkpt lat="43.0429533" lon="11.4608267"><ele>510.0</ele><time>2026-04-06T13:55:39.826Z</time></trkpt><trkpt lat="43.043" lon="11.4609317"><ele>510.0</ele><time>2026-04-06T13:55:40.824Z</time></trkpt><trkpt lat="43.0430483" lon="11.46104"><ele>510.0</ele><time>2026-04-06T13:55:41.827Z</time></trkpt><trkpt lat="43.0430967" lon="11.4611467"><ele>510.0</ele><time>2026-04-06T13:55:42.826Z</time></trkpt><trkpt lat="43.04314" lon="11.4612667"><ele>508.8</ele><time>2026-04-06T13:55:43.825Z</time></trkpt><trkpt lat="43.04319" lon="11.4613983"><ele>507.6</ele><time>2026-04-06T13:55:44.832Z</time></trkpt><trkpt lat="43.0432417" lon="11.461535"><ele>506.4</ele><time>2026-04-06T13:55:45.825Z</time></trkpt><trkpt lat="43.0432967" lon="11.4616617"><ele>505.2</ele><time>2026-04-06T13:55:46.83Z</time></trkpt><trkpt lat="43.04334" lon="11.4617817"><ele>504.0</ele><time>2026-04-06T13:55:47.828Z</time></trkpt><trkpt lat="43.0433917" lon="11.4618917"><ele>503.4</ele><time>2026-04-06T13:55:48.843Z</time></trkpt><trkpt lat="43.043445" lon="11.4620017"><ele>502.79999999999995</ele><time>2026-04-06T13:55:49.833Z</time></trkpt><trkpt lat="43.0434933" lon="11.4621233"><ele>502.20000000000005</ele><time>2026-04-06T13:55:50.827Z</time></trkpt><trkpt lat="43.0435333" lon="11.462245"><ele>501.6</ele><time>2026-04-06T13:55:51.828Z</time></trkpt><trkpt lat="43.0435733" lon="11.4623567"><ele>501.0</ele><time>2026-04-06T13:55:52.828Z</time></trkpt><trkpt lat="43.0436133" lon="11.4624567"><ele>501.0</ele><time>2026-04-06T13:55:53.827Z</time></trkpt><trkpt lat="43.0436233" lon="11.4625533"><ele>501.0</ele><time>2026-04-06T13:55:54.825Z</time></trkpt><trkpt lat="43.0436167" lon="11.46265"><ele>501.0</ele><time>2026-04-06T13:55:55.829Z</time></trkpt><trkpt lat="43.0435983" lon="11.4627483"><ele>501.0</ele><time>2026-04-06T13:55:56.828Z</time></trkpt><trkpt lat="43.0435617" lon="11.46285"><ele>501.0</ele><time>2026-04-06T13:55:57.824Z</time></trkpt><trkpt lat="43.0435167" lon="11.46295"><ele>501.0</ele><time>2026-04-06T13:55:58.824Z</time></trkpt><trkpt lat="43.04346" lon="11.463055"><ele>501.0</ele><time>2026-04-06T13:55:59.829Z</time></trkpt><trkpt lat="43.0433933" lon="11.4631583"><ele>501.0</ele><time>2026-04-06T13:56:00.828Z</time></trkpt><trkpt lat="43.04333" lon="11.4632617"><ele>501.0</ele><time>2026-04-06T13:56:01.828Z</time></trkpt><trkpt lat="43.0432783" lon="11.4633683"><ele>501.0</ele><time>2026-04-06T13:56:02.828Z</time></trkpt><trkpt lat="43.0432317" lon="11.463465"><ele>501.0</ele><time>2026-04-06T13:56:03.828Z</time></trkpt><trkpt lat="43.0431933" lon="11.4635667"><ele>500.5</ele><time>2026-04-06T13:56:04.83Z</time></trkpt><trkpt lat="43.0431633" lon="11.46369"><ele>500.0</ele><time>2026-04-06T13:56:05.825Z</time></trkpt><trkpt lat="43.0431383" lon="11.4638583"><ele>499.5</ele><time>2026-04-06T13:56:06.829Z</time></trkpt><trkpt lat="43.0431133" lon="11.464035"><ele>499.0</ele><time>2026-04-06T13:56:07.825Z</time></trkpt><trkpt lat="43.04309" lon="11.4641967"><ele>499.0</ele><time>2026-04-06T13:56:08.824Z</time></trkpt><trkpt lat="43.04307" lon="11.4643433"><ele>499.0</ele><time>2026-04-06T13:56:09.826Z</time></trkpt><trkpt lat="43.0430483" lon="11.46448"><ele>499.0</ele><time>2026-04-06T13:56:10.827Z</time></trkpt><trkpt lat="43.043025" lon="11.4646117"><ele>499.0</ele><time>2026-04-06T13:56:11.826Z</time></trkpt><trkpt lat="43.0429983" lon="11.4647417"><ele>499.0</ele><time>2026-04-06T13:56:12.834Z</time></trkpt><trkpt lat="43.0429633" lon="11.46487"><ele>499.6</ele><time>2026-04-06T13:56:13.824Z</time></trkpt><trkpt lat="43.0429233" lon="11.4649967"><ele>500.2</ele><time>2026-04-06T13:56:14.823Z</time></trkpt><trkpt lat="43.042875" lon="11.465115"><ele>500.80000000000007</ele><time>2026-04-06T13:56:15.825Z</time></trkpt><trkpt lat="43.042825" lon="11.46523"><ele>501.40000000000003</ele><time>2026-04-06T13:56:16.827Z</time></trkpt><trkpt lat="43.0427733" lon="11.46535"><ele>502.0</ele><time>2026-04-06T13:56:17.826Z</time></trkpt><trkpt lat="43.0427317" lon="11.4654733"><ele>502.0</ele><time>2026-04-06T13:56:18.827Z</time></trkpt><trkpt lat="43.0427" lon="11.465605"><ele>502.0</ele><time>2026-04-06T13:56:19.827Z</time></trkpt><trkpt lat="43.0426817" lon="11.46576"><ele>502.0</ele><time>2026-04-06T13:56:20.828Z</time></trkpt><trkpt lat="43.042665" lon="11.46595"><ele>502.0</ele><time>2026-04-06T13:56:21.829Z</time></trkpt><trkpt lat="43.0426533" lon="11.4661667"><ele>501.75</ele><time>2026-04-06T13:56:22.827Z</time></trkpt><trkpt lat="43.0426383" lon="11.46637"><ele>501.5</ele><time>2026-04-06T13:56:23.822Z</time></trkpt><trkpt lat="43.0426267" lon="11.4665483"><ele>501.25</ele><time>2026-04-06T13:56:24.829Z</time></trkpt><trkpt lat="43.0426183" lon="11.4667067"><ele>501.0</ele><time>2026-04-06T13:56:25.829Z</time></trkpt><trkpt lat="43.0426117" lon="11.4668467"><ele>501.0</ele><time>2026-04-06T13:56:26.828Z</time></trkpt><trkpt lat="43.0426017" lon="11.46697"><ele>501.0</ele><time>2026-04-06T13:56:27.824Z</time></trkpt><trkpt lat="43.0425817" lon="11.46709"><ele>501.0</ele><time>2026-04-06T13:56:28.824Z</time></trkpt><trkpt lat="43.0425517" lon="11.467215"><ele>501.0</ele><time>2026-04-06T13:56:29.825Z</time></trkpt><trkpt lat="43.04251" lon="11.4673467"><ele>501.0</ele><time>2026-04-06T13:56:30.827Z</time></trkpt><trkpt lat="43.04246" lon="11.46749"><ele>501.5</ele><time>2026-04-06T13:56:31.827Z</time></trkpt><trkpt lat="43.0424083" lon="11.4676467"><ele>502.0</ele><time>2026-04-06T13:56:32.826Z</time></trkpt><trkpt lat="43.0423583" lon="11.4678133"><ele>502.5</ele><time>2026-04-06T13:56:33.826Z</time></trkpt><trkpt lat="43.0423083" lon="11.46799"><ele>503.0</ele><time>2026-04-06T13:56:34.825Z</time></trkpt><trkpt lat="43.0422617" lon="11.4681667"><ele>503.5</ele><time>2026-04-06T13:56:35.828Z</time></trkpt><trkpt lat="43.0422183" lon="11.4683417"><ele>504.0</ele><time>2026-04-06T13:56:36.836Z</time></trkpt><trkpt lat="43.042175" lon="11.4685117"><ele>504.5</ele><time>2026-04-06T13:56:37.825Z</time></trkpt><trkpt lat="43.0421367" lon="11.4686683"><ele>505.0</ele><time>2026-04-06T13:56:38.826Z</time></trkpt><trkpt lat="43.0420967" lon="11.46881"><ele>505.2</ele><time>2026-04-06T13:56:39.829Z</time></trkpt><trkpt lat="43.0420583" lon="11.4689383"><ele>505.4</ele><time>2026-04-06T13:56:40.826Z</time></trkpt><trkpt lat="43.04201" lon="11.4690533"><ele>505.6</ele><time>2026-04-06T13:56:41.827Z</time></trkpt><trkpt lat="43.0419483" lon="11.4691483"><ele>505.8</ele><time>2026-04-06T13:56:42.826Z</time></trkpt><trkpt lat="43.0418717" lon="11.4692317"><ele>506.0</ele><time>2026-04-06T13:56:43.826Z</time></trkpt><trkpt lat="43.0417733" lon="11.4693067"><ele>506.0</ele><time>2026-04-06T13:56:44.827Z</time></trkpt><trkpt lat="43.04166" lon="11.469375"><ele>506.0</ele><time>2026-04-06T13:56:45.824Z</time></trkpt><trkpt lat="43.0415317" lon="11.4694333"><ele>506.0</ele><time>2026-04-06T13:56:46.826Z</time></trkpt><trkpt lat="43.0413967" lon="11.4695017"><ele>506.0</ele><time>2026-04-06T13:56:47.829Z</time></trkpt><trkpt lat="43.0412517" lon="11.4695933"><ele>508.5</ele><time>2026-04-06T13:56:48.831Z</time></trkpt><trkpt lat="43.0411167" lon="11.4696933"><ele>511.0</ele><time>2026-04-06T13:56:49.829Z</time></trkpt><trkpt lat="43.0409967" lon="11.4697883"><ele>513.5</ele><time>2026-04-06T13:56:50.827Z</time></trkpt><trkpt lat="43.0409" lon="11.46988"><ele>516.0</ele><time>2026-04-06T13:56:51.83Z</time></trkpt><trkpt lat="43.0408167" lon="11.4699733"><ele>517.0</ele><time>2026-04-06T13:56:52.829Z</time></trkpt><trkpt lat="43.0407417" lon="11.4700717"><ele>518.0</ele><time>2026-04-06T13:56:53.824Z</time></trkpt><trkpt lat="43.0406667" lon="11.470175"><ele>519.0</ele><time>2026-04-06T13:56:54.827Z</time></trkpt><trkpt lat="43.0405967" lon="11.4702817"><ele>520.0</ele><time>2026-04-06T13:56:55.828Z</time></trkpt><trkpt lat="43.0405333" lon="11.4703867"><ele>521.0</ele><time>2026-04-06T13:56:56.829Z</time></trkpt><trkpt lat="43.0404667" lon="11.470485"><ele>522.4</ele><time>2026-04-06T13:56:57.826Z</time></trkpt><trkpt lat="43.040395" lon="11.4705833"><ele>523.8</ele><time>2026-04-06T13:56:58.824Z</time></trkpt><trkpt lat="43.0403033" lon="11.470665"><ele>525.1999999999999</ele><time>2026-04-06T13:56:59.832Z</time></trkpt><trkpt lat="43.0402083" lon="11.4707183"><ele>526.6</ele><time>2026-04-06T13:57:00.826Z</time></trkpt><trkpt lat="43.0400983" lon="11.4707483"><ele>528.0</ele><time>2026-04-06T13:57:01.829Z</time></trkpt><trkpt lat="43.0399733" lon="11.4707933"><ele>529.3333333333334</ele><time>2026-04-06T13:57:02.838Z</time></trkpt><trkpt lat="43.0398217" lon="11.47087"><ele>530.6666666666667</ele><time>2026-04-06T13:57:03.831Z</time></trkpt><trkpt lat="43.0396717" lon="11.470955"><ele>532.0</ele><time>2026-04-06T13:57:04.831Z</time></trkpt><trkpt lat="43.0395283" lon="11.471035"><ele>532.0</ele><time>2026-04-06T13:57:05.827Z</time></trkpt><trkpt lat="43.0394017" lon="11.47111"><ele>532.0</ele><time>2026-04-06T13:57:06.827Z</time></trkpt><trkpt lat="43.0392833" lon="11.4711867"><ele>532.0</ele><time>2026-04-06T13:57:07.826Z</time></trkpt><trkpt lat="43.03917" lon="11.4712717"><ele>532.0</ele><time>2026-04-06T13:57:08.827Z</time></trkpt><trkpt lat="43.03906" lon="11.4713683"><ele>532.25</ele><time>2026-04-06T13:57:09.827Z</time></trkpt><trkpt lat="43.0389567" lon="11.4714917"><ele>532.5</ele><time>2026-04-06T13:57:10.827Z</time></trkpt><trkpt lat="43.0388667" lon="11.47163"><ele>532.75</ele><time>2026-04-06T13:57:11.827Z</time></trkpt><trkpt lat="43.038785" lon="11.47179"><ele>533.0</ele><time>2026-04-06T13:57:12.844Z</time></trkpt><trkpt lat="43.03872" lon="11.4719717"><ele>538.0</ele><time>2026-04-06T13:57:13.829Z</time></trkpt><trkpt lat="43.038675" lon="11.47217"><ele>543.0</ele><time>2026-04-06T13:57:14.829Z</time></trkpt><trkpt lat="43.038655" lon="11.472385"><ele>548.0</ele><time>2026-04-06T13:57:15.825Z</time></trkpt><trkpt lat="43.0386617" lon="11.4726117"><ele>548.0</ele><time>2026-04-06T13:57:16.825Z</time></trkpt><trkpt lat="43.0386833" lon="11.4728233"><ele>548.0</ele><time>2026-04-06T13:57:17.823Z</time></trkpt><trkpt lat="43.0387033" lon="11.4730217"><ele>548.0</ele><time>2026-04-06T13:57:18.827Z</time></trkpt><trkpt lat="43.0387117" lon="11.4732117"><ele>548.0</ele><time>2026-04-06T13:57:19.825Z</time></trkpt><trkpt lat="43.0387" lon="11.47339"><ele>551.0</ele><time>2026-04-06T13:57:20.825Z</time></trkpt><trkpt lat="43.0386667" lon="11.47355"><ele>554.0</ele><time>2026-04-06T13:57:21.824Z</time></trkpt><trkpt lat="43.0386" lon="11.4736867"><ele>557.0</ele><time>2026-04-06T13:57:22.823Z</time></trkpt><trkpt lat="43.0385" lon="11.4738033"><ele>560.0</ele><time>2026-04-06T13:57:23.835Z</time></trkpt><trkpt lat="43.0383717" lon="11.473905"><ele>563.0</ele><time>2026-04-06T13:57:24.838Z</time></trkpt><trkpt lat="43.038215" lon="11.473995"><ele>566.0</ele><time>2026-04-06T13:57:25.824Z</time></trkpt><trkpt lat="43.0380583" lon="11.4740767"><ele>569.0</ele><time>2026-04-06T13:57:26.825Z</time></trkpt><trkpt lat="43.037925" lon="11.474155"><ele>569.0</ele><time>2026-04-06T13:57:27.825Z</time></trkpt><trkpt lat="43.0378133" lon="11.474255"><ele>569.0</ele><time>2026-04-06T13:57:28.832Z</time></trkpt><trkpt lat="43.03772" lon="11.4743817"><ele>569.0</ele><time>2026-04-06T13:57:29.828Z</time></trkpt><trkpt lat="43.0376467" lon="11.4745333"><ele>569.0</ele><time>2026-04-06T13:57:30.828Z</time></trkpt><trkpt lat="43.0376217" lon="11.4747333"><ele>573.0</ele><time>2026-04-06T13:57:31.91Z</time></trkpt><trkpt lat="43.0376333" lon="11.4749683"><ele>577.0</ele><time>2026-04-06T13:57:32.826Z</time></trkpt><trkpt lat="43.0376533" lon="11.4752467"><ele>581.0</ele><time>2026-04-06T13:57:33.828Z</time></trkpt><trkpt lat="43.03767" lon="11.475525"><ele>583.6666666666666</ele><time>2026-04-06T13:57:34.827Z</time></trkpt><trkpt lat="43.037685" lon="11.4757917"><ele>586.3333333333334</ele><time>2026-04-06T13:57:35.825Z</time></trkpt><trkpt lat="43.0376967" lon="11.4760367"><ele>589.0</ele><time>2026-04-06T13:57:36.908Z</time></trkpt><trkpt lat="43.0377117" lon="11.476275"><ele>590.0</ele><time>2026-04-06T13:57:37.835Z</time></trkpt><trkpt lat="43.0377233" lon="11.4765033"><ele>591.0</ele><time>2026-04-06T13:57:38.832Z</time></trkpt><trkpt lat="43.0377367" lon="11.4767233"><ele>592.0</ele><time>2026-04-06T13:57:39.828Z</time></trkpt><trkpt lat="43.0377467" lon="11.4769333"><ele>593.5</ele><time>2026-04-06T13:57:40.823Z</time></trkpt><trkpt lat="43.037755" lon="11.4771317"><ele>595.0</ele><time>2026-04-06T13:57:41.829Z</time></trkpt><trkpt lat="43.0377517" lon="11.4773333"><ele>596.5</ele><time>2026-04-06T13:57:42.824Z</time></trkpt><trkpt lat="43.03774" lon="11.4775367"><ele>598.0</ele><time>2026-04-06T13:57:43.831Z</time></trkpt><trkpt lat="43.0377183" lon="11.4777533"><ele>598.0</ele><time>2026-04-06T13:57:44.828Z</time></trkpt><trkpt lat="43.0376817" lon="11.4779717"><ele>598.0</ele><time>2026-04-06T13:57:45.84Z</time></trkpt><trkpt lat="43.0376433" lon="11.478175"><ele>598.0</ele><time>2026-04-06T13:57:46.825Z</time></trkpt><trkpt lat="43.0375917" lon="11.4783567"><ele>598.0</ele><time>2026-04-06T13:57:47.827Z</time></trkpt><trkpt lat="43.0375317" lon="11.478525"><ele>598.0</ele><time>2026-04-06T13:57:48.828Z</time></trkpt><trkpt lat="43.0374517" lon="11.47869"><ele>598.0</ele><time>2026-04-06T13:57:49.827Z</time></trkpt><trkpt lat="43.0373583" lon="11.47886"><ele>598.0</ele><time>2026-04-06T13:57:50.83Z</time></trkpt><trkpt lat="43.03726" lon="11.4790283"><ele>598.25</ele><time>2026-04-06T13:57:51.823Z</time></trkpt><trkpt lat="43.0371633" lon="11.4791817"><ele>598.5</ele><time>2026-04-06T13:57:52.827Z</time></trkpt><trkpt lat="43.0370733" lon="11.4793167"><ele>598.75</ele><time>2026-04-06T13:57:53.829Z</time></trkpt><trkpt lat="43.0369967" lon="11.479425"><ele>599.0</ele><time>2026-04-06T13:57:54.826Z</time></trkpt><trkpt lat="43.036935" lon="11.47952"><ele>599.0</ele><time>2026-04-06T13:57:55.823Z</time></trkpt><trkpt lat="43.0368833" lon="11.4795983"><ele>599.0</ele><time>2026-04-06T13:57:56.83Z</time></trkpt><trkpt lat="43.0368283" lon="11.4797033"><ele>599.0</ele><time>2026-04-06T13:57:58.827Z</time></trkpt><trkpt lat="43.0368767" lon="11.47984"><ele>599.0</ele><time>2026-04-06T13:58:01.825Z</time></trkpt><trkpt lat="43.036925" lon="11.4799133"><ele>599.0</ele><time>2026-04-06T13:58:02.828Z</time></trkpt><trkpt lat="43.0370183" lon="11.4799917"><ele>599.6666666666666</ele><time>2026-04-06T13:58:03.829Z</time></trkpt><trkpt lat="43.0371367" lon="11.4800717"><ele>600.3333333333334</ele><time>2026-04-06T13:58:04.83Z</time></trkpt><trkpt lat="43.0372717" lon="11.48017"><ele>601.0</ele><time>2026-04-06T13:58:05.833Z</time></trkpt><trkpt lat="43.03742" lon="11.48029"><ele>599.0</ele><time>2026-04-06T13:58:06.824Z</time></trkpt><trkpt lat="43.0375683" lon="11.48042"><ele>597.0</ele><time>2026-04-06T13:58:07.828Z</time></trkpt><trkpt lat="43.03773" lon="11.4805633"><ele>595.0</ele><time>2026-04-06T13:58:08.833Z</time></trkpt><trkpt lat="43.0379133" lon="11.480725"><ele>593.5</ele><time>2026-04-06T13:58:09.827Z</time></trkpt><trkpt lat="43.0381217" lon="11.4809067"><ele>592.0</ele><time>2026-04-06T13:58:10.824Z</time></trkpt><trkpt lat="43.0383533" lon="11.481115"><ele>590.5</ele><time>2026-04-06T13:58:11.825Z</time></trkpt><trkpt lat="43.038585" lon="11.4813217"><ele>589.0</ele><time>2026-04-06T13:58:12.824Z</time></trkpt><trkpt lat="43.0388" lon="11.4815067"><ele>589.0</ele><time>2026-04-06T13:58:13.836Z</time></trkpt><trkpt lat="43.0390017" lon="11.4816817"><ele>589.0</ele><time>2026-04-06T13:58:14.828Z</time></trkpt><trkpt lat="43.0391983" lon="11.4818533"><ele>592.5</ele><time>2026-04-06T13:58:15.826Z</time></trkpt><trkpt lat="43.039395" lon="11.482025"><ele>596.0</ele><time>2026-04-06T13:58:16.827Z</time></trkpt><trkpt lat="43.0395867" lon="11.482195"><ele>599.0</ele><time>2026-04-06T13:58:17.828Z</time></trkpt><trkpt lat="43.039765" lon="11.4823533"><ele>602.0</ele><time>2026-04-06T13:58:18.829Z</time></trkpt><trkpt lat="43.039935" lon="11.4825"><ele>605.0</ele><time>2026-04-06T13:58:19.826Z</time></trkpt><trkpt lat="43.040105" lon="11.4826333"><ele>606.6666666666666</ele><time>2026-04-06T13:58:20.824Z</time></trkpt><trkpt lat="43.04028" lon="11.4827417"><ele>608.3333333333334</ele><time>2026-04-06T13:58:21.828Z</time></trkpt><trkpt lat="43.0404717" lon="11.4828367"><ele>610.0</ele><time>2026-04-06T13:58:22.825Z</time></trkpt><trkpt lat="43.0406717" lon="11.4829217"><ele>612.6666666666667</ele><time>2026-04-06T13:58:23.824Z</time></trkpt><trkpt lat="43.0408783" lon="11.4829967"><ele>615.3333333333334</ele><time>2026-04-06T13:58:24.83Z</time></trkpt><trkpt lat="43.04108" lon="11.48306"><ele>618.0</ele><time>2026-04-06T13:58:25.824Z</time></trkpt><trkpt lat="43.0412733" lon="11.483135"><ele>618.0</ele><time>2026-04-06T13:58:26.828Z</time></trkpt><trkpt lat="43.0414683" lon="11.483195"><ele>618.0</ele><time>2026-04-06T13:58:27.831Z</time></trkpt><trkpt lat="43.0416533" lon="11.4832517"><ele>618.0</ele><time>2026-04-06T13:58:28.831Z</time></trkpt><trkpt lat="43.0418417" lon="11.4833083"><ele>616.0</ele><time>2026-04-06T13:58:29.828Z</time></trkpt><trkpt lat="43.0420217" lon="11.48336"><ele>614.0</ele><time>2026-04-06T13:58:30.826Z</time></trkpt><trkpt lat="43.04219" lon="11.4834017"><ele>612.0</ele><time>2026-04-06T13:58:31.829Z</time></trkpt><trkpt lat="43.042355" lon="11.4834433"><ele>612.3333333333334</ele><time>2026-04-06T13:58:32.828Z</time></trkpt><trkpt lat="43.0425167" lon="11.483485"><ele>612.6666666666667</ele><time>2026-04-06T13:58:33.827Z</time></trkpt><trkpt lat="43.0426783" lon="11.4835267"><ele>613.0</ele><time>2026-04-06T13:58:34.824Z</time></trkpt><trkpt lat="43.04284" lon="11.4835633"><ele>613.0</ele><time>2026-04-06T13:58:35.831Z</time></trkpt><trkpt lat="43.043" lon="11.4835983"><ele>613.0</ele><time>2026-04-06T13:58:36.828Z</time></trkpt><trkpt lat="43.04316" lon="11.483645"><ele>613.0</ele><time>2026-04-06T13:58:37.827Z</time></trkpt><trkpt lat="43.043315" lon="11.48369"><ele>613.6666666666667</ele><time>2026-04-06T13:58:38.825Z</time></trkpt><trkpt lat="43.0434683" lon="11.4837517"><ele>614.3333333333334</ele><time>2026-04-06T13:58:39.826Z</time></trkpt><trkpt lat="43.0436117" lon="11.48383"><ele>615.0</ele><time>2026-04-06T13:58:40.825Z</time></trkpt><trkpt lat="43.04375" lon="11.48393"><ele>613.6666666666666</ele><time>2026-04-06T13:58:41.826Z</time></trkpt><trkpt lat="43.0438817" lon="11.4840483"><ele>612.3333333333333</ele><time>2026-04-06T13:58:42.827Z</time></trkpt><trkpt lat="43.0440067" lon="11.4841767"><ele>611.0</ele><time>2026-04-06T13:58:43.826Z</time></trkpt><trkpt lat="43.0441333" lon="11.4843067"><ele>611.0</ele><time>2026-04-06T13:58:44.823Z</time></trkpt><trkpt lat="43.0442567" lon="11.4844383"><ele>611.0</ele><time>2026-04-06T13:58:45.825Z</time></trkpt><trkpt lat="43.0443667" lon="11.48458"><ele>611.0</ele><time>2026-04-06T13:58:46.826Z</time></trkpt><trkpt lat="43.04446" lon="11.4847433"><ele>611.3333333333333</ele><time>2026-04-06T13:58:47.828Z</time></trkpt><trkpt lat="43.044535" lon="11.484925"><ele>611.6666666666666</ele><time>2026-04-06T13:58:48.83Z</time></trkpt><trkpt lat="43.0446033" lon="11.4851267"><ele>612.0</ele><time>2026-04-06T13:58:49.827Z</time></trkpt><trkpt lat="43.0446683" lon="11.4853467"><ele>612.6666666666666</ele><time>2026-04-06T13:58:50.829Z</time></trkpt><trkpt lat="43.0447367" lon="11.4855833"><ele>613.3333333333333</ele><time>2026-04-06T13:58:51.826Z</time></trkpt><trkpt lat="43.0448" lon="11.485815"><ele>614.0</ele><time>2026-04-06T13:58:52.829Z</time></trkpt><trkpt lat="43.044865" lon="11.4860333"><ele>614.0</ele><time>2026-04-06T13:58:53.825Z</time></trkpt><trkpt lat="43.04492" lon="11.4862383"><ele>614.0</ele><time>2026-04-06T13:58:54.826Z</time></trkpt><trkpt lat="43.0449733" lon="11.48643"><ele>614.0</ele><time>2026-04-06T13:58:55.826Z</time></trkpt><trkpt lat="43.0450233" lon="11.486615"><ele>614.25</ele><time>2026-04-06T13:58:56.829Z</time></trkpt><trkpt lat="43.0450783" lon="11.4867783"><ele>614.5</ele><time>2026-04-06T13:58:57.824Z</time></trkpt><trkpt lat="43.0451467" lon="11.486905"><ele>614.75</ele><time>2026-04-06T13:58:58.826Z</time></trkpt><trkpt lat="43.045235" lon="11.4869917"><ele>615.0</ele><time>2026-04-06T13:58:59.828Z</time></trkpt><trkpt lat="43.04534" lon="11.487055"><ele>615.0</ele><time>2026-04-06T13:59:00.826Z</time></trkpt><trkpt lat="43.0454617" lon="11.4870867"><ele>615.0</ele><time>2026-04-06T13:59:01.832Z</time></trkpt><trkpt lat="43.04559" lon="11.4871017"><ele>615.0</ele><time>2026-04-06T13:59:02.827Z</time></trkpt><trkpt lat="43.0457167" lon="11.4871267"><ele>615.0</ele><time>2026-04-06T13:59:03.828Z</time></trkpt><trkpt lat="43.0458333" lon="11.487185"><ele>614.5</ele><time>2026-04-06T13:59:04.829Z</time></trkpt><trkpt lat="43.045945" lon="11.4872817"><ele>614.0</ele><time>2026-04-06T13:59:05.826Z</time></trkpt><trkpt lat="43.0460467" lon="11.4874217"><ele>613.5</ele><time>2026-04-06T13:59:06.831Z</time></trkpt><trkpt lat="43.0461317" lon="11.4876083"><ele>613.0</ele><time>2026-04-06T13:59:07.829Z</time></trkpt><trkpt lat="43.0461983" lon="11.4878183"><ele>609.3333333333334</ele><time>2026-04-06T13:59:08.824Z</time></trkpt><trkpt lat="43.046255" lon="11.4880317"><ele>605.6666666666666</ele><time>2026-04-06T13:59:09.826Z</time></trkpt><trkpt lat="43.0463" lon="11.4882433"><ele>602.0</ele><time>2026-04-06T13:59:10.826Z</time></trkpt><trkpt lat="43.0463383" lon="11.4884517"><ele>602.0</ele><time>2026-04-06T13:59:11.828Z</time></trkpt><trkpt lat="43.0463767" lon="11.488655"><ele>602.0</ele><time>2026-04-06T13:59:12.826Z</time></trkpt><trkpt lat="43.0464167" lon="11.4888467"><ele>602.0</ele><time>2026-04-06T13:59:13.831Z</time></trkpt><trkpt lat="43.0464667" lon="11.48903"><ele>602.0</ele><time>2026-04-06T13:59:14.824Z</time></trkpt><trkpt lat="43.046535" lon="11.4892"><ele>605.25</ele><time>2026-04-06T13:59:15.826Z</time></trkpt><trkpt lat="43.0466367" lon="11.489345"><ele>608.5</ele><time>2026-04-06T13:59:16.827Z</time></trkpt><trkpt lat="43.0467617" lon="11.48945"><ele>611.75</ele><time>2026-04-06T13:59:17.828Z</time></trkpt><trkpt lat="43.04691" lon="11.489515"><ele>615.0</ele><time>2026-04-06T13:59:18.826Z</time></trkpt><trkpt lat="43.0470683" lon="11.4895383"><ele>615.0</ele><time>2026-04-06T13:59:19.823Z</time></trkpt><trkpt lat="43.0472233" lon="11.489565"><ele>615.0</ele><time>2026-04-06T13:59:20.831Z</time></trkpt><trkpt lat="43.0473717" lon="11.48963"><ele>615.0</ele><time>2026-04-06T13:59:21.828Z</time></trkpt><trkpt lat="43.0475017" lon="11.4897183"><ele>612.0</ele><time>2026-04-06T13:59:22.843Z</time></trkpt><trkpt lat="43.0476233" lon="11.4898283"><ele>609.0</ele><time>2026-04-06T13:59:23.835Z</time></trkpt><trkpt lat="43.0477383" lon="11.4899367"><ele>606.0</ele><time>2026-04-06T13:59:24.829Z</time></trkpt><trkpt lat="43.047855" lon="11.4900167"><ele>603.0</ele><time>2026-04-06T13:59:25.828Z</time></trkpt><trkpt lat="43.0479767" lon="11.49006"><ele>603.0</ele><time>2026-04-06T13:59:26.825Z</time></trkpt><trkpt lat="43.0480883" lon="11.4900583"><ele>603.0</ele><time>2026-04-06T13:59:27.826Z</time></trkpt><trkpt lat="43.0482017" lon="11.4900367"><ele>603.0</ele><time>2026-04-06T13:59:28.826Z</time></trkpt><trkpt lat="43.0483133" lon="11.4900083"><ele>603.0</ele><time>2026-04-06T13:59:29.828Z</time></trkpt><trkpt lat="43.04842" lon="11.489985"><ele>603.0</ele><time>2026-04-06T13:59:30.829Z</time></trkpt><trkpt lat="43.04852" lon="11.4899617"><ele>603.0</ele><time>2026-04-06T13:59:31.827Z</time></trkpt><trkpt lat="43.0486183" lon="11.489955"><ele>603.0</ele><time>2026-04-06T13:59:32.825Z</time></trkpt><trkpt lat="43.0487117" lon="11.48998"><ele>603.0</ele><time>2026-04-06T13:59:33.826Z</time></trkpt><trkpt lat="43.0487967" lon="11.49004"><ele>603.0</ele><time>2026-04-06T13:59:34.826Z</time></trkpt><trkpt lat="43.0488633" lon="11.4901433"><ele>603.0</ele><time>2026-04-06T13:59:35.827Z</time></trkpt><trkpt lat="43.0489117" lon="11.49027"><ele>603.0</ele><time>2026-04-06T13:59:36.828Z</time></trkpt><trkpt lat="43.0489517" lon="11.4903983"><ele>603.0</ele><time>2026-04-06T13:59:37.824Z</time></trkpt><trkpt lat="43.0489883" lon="11.4905317"><ele>603.0</ele><time>2026-04-06T13:59:38.834Z</time></trkpt><trkpt lat="43.0490217" lon="11.4906667"><ele>603.0</ele><time>2026-04-06T13:59:39.827Z</time></trkpt><trkpt lat="43.04906" lon="11.4908017"><ele>603.0</ele><time>2026-04-06T13:59:40.836Z</time></trkpt><trkpt lat="43.0491083" lon="11.49092"><ele>601.4</ele><time>2026-04-06T13:59:41.835Z</time></trkpt><trkpt lat="43.0491717" lon="11.4910067"><ele>599.8</ele><time>2026-04-06T13:59:42.826Z</time></trkpt><trkpt lat="43.0492483" lon="11.4910783"><ele>598.2</ele><time>2026-04-06T13:59:43.825Z</time></trkpt><trkpt lat="43.0493433" lon="11.491085"><ele>596.6</ele><time>2026-04-06T13:59:44.831Z</time></trkpt><trkpt lat="43.0494417" lon="11.4910717"><ele>595.0</ele><time>2026-04-06T13:59:45.829Z</time></trkpt><trkpt lat="43.04954" lon="11.4910467"><ele>595.0</ele><time>2026-04-06T13:59:46.832Z</time></trkpt><trkpt lat="43.049645" lon="11.491025"><ele>595.0</ele><time>2026-04-06T13:59:47.823Z</time></trkpt><trkpt lat="43.0497517" lon="11.4910183"><ele>595.0</ele><time>2026-04-06T13:59:48.824Z</time></trkpt><trkpt lat="43.0498517" lon="11.4910233"><ele>595.0</ele><time>2026-04-06T13:59:49.825Z</time></trkpt><trkpt lat="43.0499467" lon="11.49103"><ele>595.0</ele><time>2026-04-06T13:59:50.827Z</time></trkpt><trkpt lat="43.050035" lon="11.49103"><ele>595.4</ele><time>2026-04-06T13:59:51.832Z</time></trkpt><trkpt lat="43.0501117" lon="11.491025"><ele>595.8</ele><time>2026-04-06T13:59:52.835Z</time></trkpt><trkpt lat="43.0501967" lon="11.490975"><ele>596.2</ele><time>2026-04-06T13:59:53.824Z</time></trkpt><trkpt lat="43.0502633" lon="11.4908967"><ele>596.6</ele><time>2026-04-06T13:59:54.83Z</time></trkpt><trkpt lat="43.05032" lon="11.490795"><ele>597.0</ele><time>2026-04-06T13:59:55.824Z</time></trkpt><trkpt lat="43.0503783" lon="11.4906667"><ele>597.0</ele><time>2026-04-06T13:59:56.825Z</time></trkpt><trkpt lat="43.050435" lon="11.4905467"><ele>597.0</ele><time>2026-04-06T13:59:57.823Z</time></trkpt><trkpt lat="43.0504933" lon="11.4904167"><ele>597.0</ele><time>2026-04-06T13:59:58.824Z</time></trkpt><trkpt lat="43.0505533" lon="11.4902867"><ele>597.0</ele><time>2026-04-06T13:59:59.827Z</time></trkpt><trkpt lat="43.05061" lon="11.4901583"><ele>597.0</ele><time>2026-04-06T14:00:00.825Z</time></trkpt><trkpt lat="43.050665" lon="11.4900333"><ele>598.0</ele><time>2026-04-06T14:00:01.827Z</time></trkpt><trkpt lat="43.0507233" lon="11.4899167"><ele>599.0</ele><time>2026-04-06T14:00:02.825Z</time></trkpt><trkpt lat="43.0507783" lon="11.4898017"><ele>600.0</ele><time>2026-04-06T14:00:03.823Z</time></trkpt><trkpt lat="43.0508467" lon="11.489695"><ele>601.0</ele><time>2026-04-06T14:00:04.823Z</time></trkpt><trkpt lat="43.05092" lon="11.4896033"><ele>602.0</ele><time>2026-04-06T14:00:05.827Z</time></trkpt><trkpt lat="43.0510083" lon="11.48955"><ele>602.0</ele><time>2026-04-06T14:00:06.829Z</time></trkpt><trkpt lat="43.0511133" lon="11.4895483"><ele>602.0</ele><time>2026-04-06T14:00:07.822Z</time></trkpt><trkpt lat="43.0512133" lon="11.4896033"><ele>602.0</ele><time>2026-04-06T14:00:08.824Z</time></trkpt><trkpt lat="43.05129" lon="11.4897133"><ele>602.0</ele><time>2026-04-06T14:00:09.831Z</time></trkpt><trkpt lat="43.0513583" lon="11.48985"><ele>602.0</ele><time>2026-04-06T14:00:10.824Z</time></trkpt><trkpt lat="43.0514217" lon="11.489995"><ele>598.75</ele><time>2026-04-06T14:00:11.825Z</time></trkpt><trkpt lat="43.0514817" lon="11.4901417"><ele>595.5</ele><time>2026-04-06T14:00:12.824Z</time></trkpt><trkpt lat="43.0515417" lon="11.49028"><ele>592.25</ele><time>2026-04-06T14:00:13.823Z</time></trkpt><trkpt lat="43.0516067" lon="11.4904083"><ele>589.0</ele><time>2026-04-06T14:00:14.825Z</time></trkpt><trkpt lat="43.051675" lon="11.490525"><ele>585.8</ele><time>2026-04-06T14:00:15.826Z</time></trkpt><trkpt lat="43.0517533" lon="11.4906283"><ele>582.5999999999999</ele><time>2026-04-06T14:00:16.83Z</time></trkpt><trkpt lat="43.0518383" lon="11.4907267"><ele>579.4</ele><time>2026-04-06T14:00:17.823Z</time></trkpt><trkpt lat="43.0519283" lon="11.49082"><ele>576.1999999999999</ele><time>2026-04-06T14:00:18.822Z</time></trkpt><trkpt lat="43.052025" lon="11.4909083"><ele>573.0</ele><time>2026-04-06T14:00:19.827Z</time></trkpt><trkpt lat="43.0521367" lon="11.4909767"><ele>573.0</ele><time>2026-04-06T14:00:20.826Z</time></trkpt><trkpt lat="43.0522517" lon="11.4910067"><ele>573.0</ele><time>2026-04-06T14:00:21.826Z</time></trkpt><trkpt lat="43.05237" lon="11.4910033"><ele>573.0</ele><time>2026-04-06T14:00:22.825Z</time></trkpt><trkpt lat="43.0524883" lon="11.4909683"><ele>573.0</ele><time>2026-04-06T14:00:23.833Z</time></trkpt><trkpt lat="43.0526" lon="11.490915"><ele>573.8</ele><time>2026-04-06T14:00:24.83Z</time></trkpt><trkpt lat="43.0527083" lon="11.4908533"><ele>574.5999999999999</ele><time>2026-04-06T14:00:25.826Z</time></trkpt><trkpt lat="43.0528117" lon="11.49079"><ele>575.4000000000001</ele><time>2026-04-06T14:00:26.823Z</time></trkpt><trkpt lat="43.05291" lon="11.49072"><ele>576.2</ele><time>2026-04-06T14:00:27.823Z</time></trkpt><trkpt lat="43.05299" lon="11.49064"><ele>577.0</ele><time>2026-04-06T14:00:28.823Z</time></trkpt><trkpt lat="43.053055" lon="11.4905417"><ele>577.0</ele><time>2026-04-06T14:00:29.831Z</time></trkpt><trkpt lat="43.0531017" lon="11.4904267"><ele>577.0</ele><time>2026-04-06T14:00:30.827Z</time></trkpt><trkpt lat="43.05314" lon="11.49031"><ele>577.0</ele><time>2026-04-06T14:00:31.828Z</time></trkpt><trkpt lat="43.053175" lon="11.490195"><ele>577.0</ele><time>2026-04-06T14:00:32.824Z</time></trkpt><trkpt lat="43.0532017" lon="11.4900683"><ele>577.0</ele><time>2026-04-06T14:00:33.823Z</time></trkpt><trkpt lat="43.053225" lon="11.489945"><ele>575.4</ele><time>2026-04-06T14:00:34.83Z</time></trkpt><trkpt lat="43.0532433" lon="11.4898167"><ele>573.8000000000001</ele><time>2026-04-06T14:00:35.832Z</time></trkpt><trkpt lat="43.0532633" lon="11.4896867"><ele>572.2</ele><time>2026-04-06T14:00:36.83Z</time></trkpt><trkpt lat="43.053285" lon="11.4895567"><ele>570.6</ele><time>2026-04-06T14:00:37.829Z</time></trkpt><trkpt lat="43.05331" lon="11.489425"><ele>569.0</ele><time>2026-04-06T14:00:38.834Z</time></trkpt><trkpt lat="43.0533417" lon="11.4892967"><ele>569.0</ele><time>2026-04-06T14:00:39.829Z</time></trkpt><trkpt lat="43.05338" lon="11.4891733"><ele>569.0</ele><time>2026-04-06T14:00:40.824Z</time></trkpt><trkpt lat="43.0534267" lon="11.4890617"><ele>569.0</ele><time>2026-04-06T14:00:41.822Z</time></trkpt><trkpt lat="43.0534917" lon="11.4889733"><ele>569.0</ele><time>2026-04-06T14:00:42.831Z</time></trkpt><trkpt lat="43.0535767" lon="11.4889067"><ele>569.0</ele><time>2026-04-06T14:00:43.832Z</time></trkpt><trkpt lat="43.05367" lon="11.488865"><ele>569.0</ele><time>2026-04-06T14:00:44.826Z</time></trkpt><trkpt lat="43.053765" lon="11.4888333"><ele>569.0</ele><time>2026-04-06T14:00:45.822Z</time></trkpt><trkpt lat="43.0538583" lon="11.48881"><ele>569.0</ele><time>2026-04-06T14:00:46.823Z</time></trkpt><trkpt lat="43.053945" lon="11.48879"><ele>569.0</ele><time>2026-04-06T14:00:47.823Z</time></trkpt><trkpt lat="43.05403" lon="11.4887667"><ele>569.0</ele><time>2026-04-06T14:00:48.831Z</time></trkpt><trkpt lat="43.0541067" lon="11.4887417"><ele>569.0</ele><time>2026-04-06T14:00:49.842Z</time></trkpt><trkpt lat="43.0541767" lon="11.4887117"><ele>568.3333333333333</ele><time>2026-04-06T14:00:50.838Z</time></trkpt><trkpt lat="43.0542717" lon="11.4886883"><ele>567.6666666666666</ele><time>2026-04-06T14:00:52.824Z</time></trkpt><trkpt lat="43.0543783" lon="11.4886867"><ele>567.0</ele><time>2026-04-06T14:00:54.826Z</time></trkpt><trkpt lat="43.0544417" lon="11.48869"><ele>566.3333333333334</ele><time>2026-04-06T14:00:55.823Z</time></trkpt><trkpt lat="43.054515" lon="11.4887033"><ele>565.6666666666667</ele><time>2026-04-06T14:00:56.825Z</time></trkpt><trkpt lat="43.0545933" lon="11.4887283"><ele>565.0</ele><time>2026-04-06T14:00:57.824Z</time></trkpt><trkpt lat="43.05467" lon="11.488765"><ele>563.3333333333334</ele><time>2026-04-06T14:00:58.829Z</time></trkpt><trkpt lat="43.0547383" lon="11.48881"><ele>561.6666666666667</ele><time>2026-04-06T14:00:59.829Z</time></trkpt><trkpt lat="43.0547967" lon="11.4888517"><ele>560.0</ele><time>2026-04-06T14:01:00.824Z</time></trkpt><trkpt lat="43.054855" lon="11.4888983"><ele>558.3333333333334</ele><time>2026-04-06T14:01:01.826Z</time></trkpt><trkpt lat="43.0549117" lon="11.4889433"><ele>556.6666666666666</ele><time>2026-04-06T14:01:02.841Z</time></trkpt><trkpt lat="43.0549617" lon="11.4889967"><ele>555.0</ele><time>2026-04-06T14:01:03.828Z</time></trkpt><trkpt lat="43.055025" lon="11.4891267"><ele>555.0</ele><time>2026-04-06T14:01:05.823Z</time></trkpt><trkpt lat="43.0549783" lon="11.4892267"><ele>555.0</ele><time>2026-04-06T14:01:07.822Z</time></trkpt><trkpt lat="43.054855" lon="11.4892683"><ele>555.0</ele><time>2026-04-06T14:01:09.828Z</time></trkpt><trkpt lat="43.0547483" lon="11.4892767"><ele>555.0</ele><time>2026-04-06T14:01:10.824Z</time></trkpt><trkpt lat="43.054615" lon="11.4892633"><ele>555.0</ele><time>2026-04-06T14:01:11.824Z</time></trkpt><trkpt lat="43.0544967" lon="11.4892767"><ele>555.0</ele><time>2026-04-06T14:01:12.826Z</time></trkpt><trkpt lat="43.0543917" lon="11.4892933"><ele>555.0</ele><time>2026-04-06T14:01:13.83Z</time></trkpt><trkpt lat="43.0542167" lon="11.489395"><ele>555.0</ele><time>2026-04-06T14:01:15.824Z</time></trkpt><trkpt lat="43.0541617" lon="11.4894983"><ele>553.5</ele><time>2026-04-06T14:01:16.823Z</time></trkpt><trkpt lat="43.054125" lon="11.4896117"><ele>552.0</ele><time>2026-04-06T14:01:17.827Z</time></trkpt><trkpt lat="43.0541183" lon="11.489705"><ele>550.5</ele><time>2026-04-06T14:01:18.827Z</time></trkpt><trkpt lat="43.0541217" lon="11.489795"><ele>549.0</ele><time>2026-04-06T14:01:19.826Z</time></trkpt><trkpt lat="43.05415" lon="11.4898983"><ele>547.5</ele><time>2026-04-06T14:01:20.827Z</time></trkpt><trkpt lat="43.0542133" lon="11.4900133"><ele>546.0</ele><time>2026-04-06T14:01:21.822Z</time></trkpt><trkpt lat="43.0543033" lon="11.4901233"><ele>546.0</ele><time>2026-04-06T14:01:22.824Z</time></trkpt><trkpt lat="43.0544067" lon="11.4902333"><ele>546.0</ele><time>2026-04-06T14:01:23.829Z</time></trkpt><trkpt lat="43.0545083" lon="11.4903383"><ele>546.0</ele><time>2026-04-06T14:01:24.824Z</time></trkpt><trkpt lat="43.0546067" lon="11.4904417"><ele>546.0</ele><time>2026-04-06T14:01:25.828Z</time></trkpt><trkpt lat="43.054695" lon="11.4905483"><ele>544.4</ele><time>2026-04-06T14:01:26.825Z</time></trkpt><trkpt lat="43.0547833" lon="11.4906517"><ele>542.8</ele><time>2026-04-06T14:01:27.824Z</time></trkpt><trkpt lat="43.0548667" lon="11.4907533"><ele>541.1999999999999</ele><time>2026-04-06T14:01:28.826Z</time></trkpt><trkpt lat="43.0549367" lon="11.4908583"><ele>539.6</ele><time>2026-04-06T14:01:29.825Z</time></trkpt><trkpt lat="43.055" lon="11.4909667"><ele>538.0</ele><time>2026-04-06T14:01:30.825Z</time></trkpt><trkpt lat="43.0550533" lon="11.4910817"><ele>537.8</ele><time>2026-04-06T14:01:31.831Z</time></trkpt><trkpt lat="43.0551133" lon="11.4912"><ele>537.5999999999999</ele><time>2026-04-06T14:01:32.826Z</time></trkpt><trkpt lat="43.0551683" lon="11.4913167"><ele>537.4000000000001</ele><time>2026-04-06T14:01:33.827Z</time></trkpt><trkpt lat="43.0552183" lon="11.491425"><ele>537.2</ele><time>2026-04-06T14:01:34.824Z</time></trkpt><trkpt lat="43.0552633" lon="11.4915317"><ele>537.0</ele><time>2026-04-06T14:01:35.824Z</time></trkpt><trkpt lat="43.0553117" lon="11.4916183"><ele>533.6666666666666</ele><time>2026-04-06T14:01:36.826Z</time></trkpt><trkpt lat="43.0553583" lon="11.4916933"><ele>530.3333333333334</ele><time>2026-04-06T14:01:37.833Z</time></trkpt><trkpt lat="43.0554" lon="11.4917633"><ele>527.0</ele><time>2026-04-06T14:01:38.829Z</time></trkpt><trkpt lat="43.0554567" lon="11.4918683"><ele>523.6666666666667</ele><time>2026-04-06T14:01:40.826Z</time></trkpt><trkpt lat="43.0553967" lon="11.4919183"><ele>520.3333333333334</ele><time>2026-04-06T14:01:44.824Z</time></trkpt><trkpt lat="43.0553367" lon="11.4918367"><ele>517.0</ele><time>2026-04-06T14:01:46.827Z</time></trkpt><trkpt lat="43.05526" lon="11.4917267"><ele>517.0</ele><time>2026-04-06T14:01:48.827Z</time></trkpt><trkpt lat="43.0552083" lon="11.49166"><ele>517.0</ele><time>2026-04-06T14:01:49.839Z</time></trkpt><trkpt lat="43.05515" lon="11.4915867"><ele>517.0</ele><time>2026-04-06T14:01:50.83Z</time></trkpt><trkpt lat="43.0550867" lon="11.4915133"><ele>517.0</ele><time>2026-04-06T14:01:51.827Z</time></trkpt><trkpt lat="43.0550267" lon="11.4914283"><ele>517.0</ele><time>2026-04-06T14:01:52.823Z</time></trkpt><trkpt lat="43.0549633" lon="11.4913333"><ele>517.0</ele><time>2026-04-06T14:01:53.822Z</time></trkpt><trkpt lat="43.054895" lon="11.4912333"><ele>520.5</ele><time>2026-04-06T14:01:54.824Z</time></trkpt><trkpt lat="43.0548283" lon="11.4911317"><ele>524.0</ele><time>2026-04-06T14:01:55.824Z</time></trkpt><trkpt lat="43.0547617" lon="11.4910467"><ele>527.5</ele><time>2026-04-06T14:01:56.827Z</time></trkpt><trkpt lat="43.0546967" lon="11.49098"><ele>531.0</ele><time>2026-04-06T14:01:57.826Z</time></trkpt><trkpt lat="43.0546283" lon="11.490955"><ele>534.5</ele><time>2026-04-06T14:01:58.828Z</time></trkpt><trkpt lat="43.0545533" lon="11.4909667"><ele>538.0</ele><time>2026-04-06T14:01:59.826Z</time></trkpt><trkpt lat="43.0544817" lon="11.4910117"><ele>538.0</ele><time>2026-04-06T14:02:00.83Z</time></trkpt><trkpt lat="43.054415" lon="11.4910667"><ele>538.0</ele><time>2026-04-06T14:02:01.826Z</time></trkpt><trkpt lat="43.0543483" lon="11.4911517"><ele>538.0</ele><time>2026-04-06T14:02:02.826Z</time></trkpt><trkpt lat="43.0542867" lon="11.4912633"><ele>538.0</ele><time>2026-04-06T14:02:03.825Z</time></trkpt><trkpt lat="43.0542717" lon="11.4914583"><ele>538.0</ele><time>2026-04-06T14:02:04.825Z</time></trkpt><trkpt lat="43.05431" lon="11.4916683"><ele>537.5</ele><time>2026-04-06T14:02:05.825Z</time></trkpt><trkpt lat="43.0543533" lon="11.4918633"><ele>537.0</ele><time>2026-04-06T14:02:06.831Z</time></trkpt><trkpt lat="43.0543833" lon="11.4920417"><ele>536.5</ele><time>2026-04-06T14:02:07.827Z</time></trkpt><trkpt lat="43.0544017" lon="11.4922167"><ele>536.0</ele><time>2026-04-06T14:02:08.828Z</time></trkpt><trkpt lat="43.0544067" lon="11.492395"><ele>533.0</ele><time>2026-04-06T14:02:09.823Z</time></trkpt><trkpt lat="43.0543983" lon="11.4925717"><ele>530.0</ele><time>2026-04-06T14:02:10.822Z</time></trkpt><trkpt lat="43.05438" lon="11.4927483"><ele>527.0</ele><time>2026-04-06T14:02:11.83Z</time></trkpt><trkpt lat="43.0543467" lon="11.4929267"><ele>524.0</ele><time>2026-04-06T14:02:12.826Z</time></trkpt><trkpt lat="43.0542917" lon="11.4931033"><ele>521.5</ele><time>2026-04-06T14:02:13.826Z</time></trkpt><trkpt lat="43.05421" lon="11.49327"><ele>519.0</ele><time>2026-04-06T14:02:14.824Z</time></trkpt><trkpt lat="43.0541067" lon="11.4934133"><ele>516.5</ele><time>2026-04-06T14:02:15.824Z</time></trkpt><trkpt lat="43.05399" lon="11.4935383"><ele>514.0</ele><time>2026-04-06T14:02:16.826Z</time></trkpt><trkpt lat="43.053865" lon="11.4936583"><ele>512.5</ele><time>2026-04-06T14:02:17.827Z</time></trkpt><trkpt lat="43.0537383" lon="11.4937767"><ele>511.0</ele><time>2026-04-06T14:02:18.824Z</time></trkpt><trkpt lat="43.0536367" lon="11.4939167"><ele>509.5</ele><time>2026-04-06T14:02:19.822Z</time></trkpt><trkpt lat="43.0535583" lon="11.4940733"><ele>508.0</ele><time>2026-04-06T14:02:20.822Z</time></trkpt><trkpt lat="43.0535067" lon="11.4942583"><ele>508.0</ele><time>2026-04-06T14:02:21.826Z</time></trkpt><trkpt lat="43.0534783" lon="11.4944667"><ele>508.0</ele><time>2026-04-06T14:02:22.825Z</time></trkpt><trkpt lat="43.0534767" lon="11.4947"><ele>508.0</ele><time>2026-04-06T14:02:23.824Z</time></trkpt><trkpt lat="43.053485" lon="11.4949333"><ele>507.0</ele><time>2026-04-06T14:02:24.825Z</time></trkpt><trkpt lat="43.0535" lon="11.4951583"><ele>506.0</ele><time>2026-04-06T14:02:25.829Z</time></trkpt><trkpt lat="43.0535133" lon="11.495365"><ele>505.0</ele><time>2026-04-06T14:02:26.826Z</time></trkpt><trkpt lat="43.0535217" lon="11.4955583"><ele>504.75</ele><time>2026-04-06T14:02:27.826Z</time></trkpt><trkpt lat="43.0535233" lon="11.495745"><ele>504.5</ele><time>2026-04-06T14:02:28.822Z</time></trkpt><trkpt lat="43.053515" lon="11.4959333"><ele>504.25</ele><time>2026-04-06T14:02:29.824Z</time></trkpt><trkpt lat="43.0534967" lon="11.4961183"><ele>504.0</ele><time>2026-04-06T14:02:30.826Z</time></trkpt><trkpt lat="43.053475" lon="11.4963083"><ele>502.75</ele><time>2026-04-06T14:02:31.829Z</time></trkpt><trkpt lat="43.053455" lon="11.4965067"><ele>501.5</ele><time>2026-04-06T14:02:32.831Z</time></trkpt><trkpt lat="43.0534367" lon="11.4967083"><ele>500.25</ele><time>2026-04-06T14:02:33.825Z</time></trkpt><trkpt lat="43.0534133" lon="11.4969083"><ele>499.0</ele><time>2026-04-06T14:02:34.827Z</time></trkpt><trkpt lat="43.0533683" lon="11.4971033"><ele>498.25</ele><time>2026-04-06T14:02:35.827Z</time></trkpt><trkpt lat="43.0533117" lon="11.4972983"><ele>497.5</ele><time>2026-04-06T14:02:36.833Z</time></trkpt><trkpt lat="43.05325" lon="11.497485"><ele>496.75</ele><time>2026-04-06T14:02:37.828Z</time></trkpt><trkpt lat="43.0531883" lon="11.4976617"><ele>496.0</ele><time>2026-04-06T14:02:38.828Z</time></trkpt><trkpt lat="43.0531183" lon="11.4978267"><ele>497.0</ele><time>2026-04-06T14:02:39.83Z</time></trkpt><trkpt lat="43.0530517" lon="11.4979933"><ele>498.0</ele><time>2026-04-06T14:02:40.826Z</time></trkpt><trkpt lat="43.052985" lon="11.4981617"><ele>499.0</ele><time>2026-04-06T14:02:41.827Z</time></trkpt><trkpt lat="43.05291" lon="11.4983283"><ele>500.0</ele><time>2026-04-06T14:02:42.828Z</time></trkpt><trkpt lat="43.0528417" lon="11.4985017"><ele>500.0</ele><time>2026-04-06T14:02:43.824Z</time></trkpt><trkpt lat="43.052775" lon="11.49867"><ele>500.0</ele><time>2026-04-06T14:02:44.828Z</time></trkpt><trkpt lat="43.0527067" lon="11.4988283"><ele>500.0</ele><time>2026-04-06T14:02:45.827Z</time></trkpt><trkpt lat="43.052635" lon="11.4989817"><ele>500.0</ele><time>2026-04-06T14:02:46.828Z</time></trkpt><trkpt lat="43.052575" lon="11.4991333"><ele>498.25</ele><time>2026-04-06T14:02:47.826Z</time></trkpt><trkpt lat="43.0525083" lon="11.499275"><ele>496.5</ele><time>2026-04-06T14:02:48.833Z</time></trkpt><trkpt lat="43.0524483" lon="11.4994167"><ele>494.75</ele><time>2026-04-06T14:02:49.825Z</time></trkpt><trkpt lat="43.0523867" lon="11.4995533"><ele>493.0</ele><time>2026-04-06T14:02:50.844Z</time></trkpt><trkpt lat="43.0523267" lon="11.4997"><ele>489.5</ele><time>2026-04-06T14:02:51.825Z</time></trkpt><trkpt lat="43.05227" lon="11.4998583"><ele>486.0</ele><time>2026-04-06T14:02:52.824Z</time></trkpt><trkpt lat="43.0522067" lon="11.5000167"><ele>482.5</ele><time>2026-04-06T14:02:53.825Z</time></trkpt><trkpt lat="43.05214" lon="11.5001767"><ele>479.0</ele><time>2026-04-06T14:02:54.824Z</time></trkpt><trkpt lat="43.0520783" lon="11.5003317"><ele>477.75</ele><time>2026-04-06T14:02:55.832Z</time></trkpt><trkpt lat="43.0520167" lon="11.5004917"><ele>476.5</ele><time>2026-04-06T14:02:56.826Z</time></trkpt><trkpt lat="43.0519633" lon="11.50065"><ele>475.25</ele><time>2026-04-06T14:02:57.827Z</time></trkpt><trkpt lat="43.0519267" lon="11.50081"><ele>474.0</ele><time>2026-04-06T14:02:58.826Z</time></trkpt><trkpt lat="43.05191" lon="11.5009733"><ele>474.0</ele><time>2026-04-06T14:02:59.825Z</time></trkpt><trkpt lat="43.051905" lon="11.50114"><ele>474.0</ele><time>2026-04-06T14:03:00.827Z</time></trkpt><trkpt lat="43.0519033" lon="11.501325"><ele>474.0</ele><time>2026-04-06T14:03:01.826Z</time></trkpt><trkpt lat="43.0519117" lon="11.5015283"><ele>474.0</ele><time>2026-04-06T14:03:02.824Z</time></trkpt><trkpt lat="43.0519233" lon="11.5017317"><ele>472.75</ele><time>2026-04-06T14:03:03.824Z</time></trkpt><trkpt lat="43.0519267" lon="11.501925"><ele>471.5</ele><time>2026-04-06T14:03:04.826Z</time></trkpt><trkpt lat="43.0519183" lon="11.5021"><ele>470.25</ele><time>2026-04-06T14:03:05.833Z</time></trkpt><trkpt lat="43.0518933" lon="11.5022617"><ele>469.0</ele><time>2026-04-06T14:03:06.825Z</time></trkpt><trkpt lat="43.0518517" lon="11.5024117"><ele>468.4</ele><time>2026-04-06T14:03:07.828Z</time></trkpt><trkpt lat="43.0518267" lon="11.5025517"><ele>467.79999999999995</ele><time>2026-04-06T14:03:08.826Z</time></trkpt><trkpt lat="43.0517933" lon="11.5026867"><ele>467.20000000000005</ele><time>2026-04-06T14:03:09.828Z</time></trkpt><trkpt lat="43.0517767" lon="11.5028183"><ele>466.6</ele><time>2026-04-06T14:03:10.827Z</time></trkpt><trkpt lat="43.0517567" lon="11.50296"><ele>466.0</ele><time>2026-04-06T14:03:11.825Z</time></trkpt><trkpt lat="43.0517567" lon="11.503115"><ele>465.6</ele><time>2026-04-06T14:03:12.828Z</time></trkpt><trkpt lat="43.0517783" lon="11.5032717"><ele>465.20000000000005</ele><time>2026-04-06T14:03:13.824Z</time></trkpt><trkpt lat="43.0518167" lon="11.5034217"><ele>464.79999999999995</ele><time>2026-04-06T14:03:14.831Z</time></trkpt><trkpt lat="43.051865" lon="11.5035567"><ele>464.4</ele><time>2026-04-06T14:03:15.825Z</time></trkpt><trkpt lat="43.0518967" lon="11.5036817"><ele>464.0</ele><time>2026-04-06T14:03:16.827Z</time></trkpt><trkpt lat="43.0519417" lon="11.5037867"><ele>462.66666666666663</ele><time>2026-04-06T14:03:17.827Z</time></trkpt><trkpt lat="43.0519867" lon="11.503895"><ele>461.3333333333333</ele><time>2026-04-06T14:03:18.829Z</time></trkpt><trkpt lat="43.052025" lon="11.5040017"><ele>460.0</ele><time>2026-04-06T14:03:19.828Z</time></trkpt><trkpt lat="43.0520717" lon="11.5041"><ele>458.66666666666663</ele><time>2026-04-06T14:03:20.829Z</time></trkpt><trkpt lat="43.0521117" lon="11.5041967"><ele>457.3333333333333</ele><time>2026-04-06T14:03:21.826Z</time></trkpt><trkpt lat="43.052145" lon="11.5042933"><ele>456.0</ele><time>2026-04-06T14:03:22.829Z</time></trkpt><trkpt lat="43.052175" lon="11.5043917"><ele>456.0</ele><time>2026-04-06T14:03:23.829Z</time></trkpt><trkpt lat="43.0522017" lon="11.5044867"><ele>456.0</ele><time>2026-04-06T14:03:24.829Z</time></trkpt><trkpt lat="43.05223" lon="11.5045783"><ele>456.0</ele><time>2026-04-06T14:03:25.828Z</time></trkpt><trkpt lat="43.052245" lon="11.5046717"><ele>456.0</ele><time>2026-04-06T14:03:26.827Z</time></trkpt><trkpt lat="43.0522517" lon="11.5047633"><ele>456.0</ele><time>2026-04-06T14:03:27.825Z</time></trkpt><trkpt lat="43.05225" lon="11.50485"><ele>456.0</ele><time>2026-04-06T14:03:28.828Z</time></trkpt><trkpt lat="43.05226" lon="11.5049933"><ele>456.0</ele><time>2026-04-06T14:03:30.827Z</time></trkpt><trkpt lat="43.0523183" lon="11.505055"><ele>456.0</ele><time>2026-04-06T14:03:32.831Z</time></trkpt><trkpt lat="43.052395" lon="11.504995"><ele>456.0</ele><time>2026-04-06T14:03:34.828Z</time></trkpt><trkpt lat="43.052435" lon="11.5049"><ele>456.0</ele><time>2026-04-06T14:03:36.826Z</time></trkpt><trkpt lat="43.0524233" lon="11.5047317"><ele>456.0</ele><time>2026-04-06T14:03:38.823Z</time></trkpt><trkpt lat="43.0524233" lon="11.50463"><ele>456.0</ele><time>2026-04-06T14:03:39.828Z</time></trkpt><trkpt lat="43.0524217" lon="11.5044567"><ele>456.0</ele><time>2026-04-06T14:03:41.827Z</time></trkpt><trkpt lat="43.0524067" lon="11.5043217"><ele>456.0</ele><time>2026-04-06T14:03:43.832Z</time></trkpt><trkpt lat="43.0523867" lon="11.50421"><ele>456.0</ele><time>2026-04-06T14:03:45.825Z</time></trkpt><trkpt lat="43.0523133" lon="11.50419"><ele>456.0</ele><time>2026-04-06T14:06:31.827Z</time></trkpt><trkpt lat="43.052285" lon="11.5042917"><ele>456.0</ele><time>2026-04-06T14:06:35.826Z</time></trkpt><trkpt lat="43.0522383" lon="11.5041867"><ele>456.0</ele><time>2026-04-06T14:15:19.833Z</time></trkpt><trkpt lat="43.0521767" lon="11.5041517"><ele>456.0</ele><time>2026-04-06T14:15:22.826Z</time></trkpt><trkpt lat="43.0521883" lon="11.5042683"><ele>456.0</ele><time>2026-04-06T14:15:31.825Z</time></trkpt><trkpt lat="43.0522267" lon="11.5044017"><ele>456.0</ele><time>2026-04-06T14:15:33.825Z</time></trkpt><trkpt lat="43.0522633" lon="11.5045367"><ele>456.0</ele><time>2026-04-06T14:15:35.831Z</time></trkpt><trkpt lat="43.052285" lon="11.5046783"><ele>456.0</ele><time>2026-04-06T14:15:37.826Z</time></trkpt><trkpt lat="43.052295" lon="11.5048283"><ele>456.4</ele><time>2026-04-06T14:15:39.829Z</time></trkpt><trkpt lat="43.0523067" lon="11.50497"><ele>456.8</ele><time>2026-04-06T14:15:41.826Z</time></trkpt><trkpt lat="43.052375" lon="11.5050383"><ele>457.19999999999993</ele><time>2026-04-06T14:15:43.825Z</time></trkpt><trkpt lat="43.0525067" lon="11.5050117"><ele>457.59999999999997</ele><time>2026-04-06T14:15:45.829Z</time></trkpt><trkpt lat="43.0525883" lon="11.5050083"><ele>458.0</ele><time>2026-04-06T14:15:46.829Z</time></trkpt><trkpt lat="43.0526867" lon="11.5050433"><ele>458.0</ele><time>2026-04-06T14:15:47.823Z</time></trkpt><trkpt lat="43.05278" lon="11.5051067"><ele>457.99999999999994</ele><time>2026-04-06T14:15:48.825Z</time></trkpt><trkpt lat="43.0528667" lon="11.5051683"><ele>457.99999999999994</ele><time>2026-04-06T14:15:49.834Z</time></trkpt><trkpt lat="43.05295" lon="11.5052133"><ele>458.0</ele><time>2026-04-06T14:15:50.826Z</time></trkpt><trkpt lat="43.0530367" lon="11.5052617"><ele>458.0</ele><time>2026-04-06T14:15:51.825Z</time></trkpt><trkpt lat="43.0531233" lon="11.5053433"><ele>457.59999999999997</ele><time>2026-04-06T14:15:52.827Z</time></trkpt><trkpt lat="43.0531767" lon="11.5054567"><ele>457.19999999999993</ele><time>2026-04-06T14:15:53.831Z</time></trkpt><trkpt lat="43.0532117" lon="11.5055933"><ele>456.8</ele><time>2026-04-06T14:15:54.832Z</time></trkpt><trkpt lat="43.0532383" lon="11.5057283"><ele>456.4</ele><time>2026-04-06T14:15:55.826Z</time></trkpt><trkpt lat="43.0532417" lon="11.5058767"><ele>456.0</ele><time>2026-04-06T14:15:56.831Z</time></trkpt><trkpt lat="43.0532317" lon="11.506035"><ele>456.0</ele><time>2026-04-06T14:15:57.824Z</time></trkpt><trkpt lat="43.0532233" lon="11.50619"><ele>456.0</ele><time>2026-04-06T14:15:58.825Z</time></trkpt><trkpt lat="43.053205" lon="11.5063483"><ele>456.0</ele><time>2026-04-06T14:15:59.827Z</time></trkpt><trkpt lat="43.053185" lon="11.50651"><ele>456.0</ele><time>2026-04-06T14:16:00.825Z</time></trkpt><trkpt lat="43.053165" lon="11.506675"><ele>455.25</ele><time>2026-04-06T14:16:01.823Z</time></trkpt><trkpt lat="43.0531567" lon="11.5068433"><ele>454.5</ele><time>2026-04-06T14:16:02.824Z</time></trkpt><trkpt lat="43.0531417" lon="11.5070117"><ele>453.75</ele><time>2026-04-06T14:16:03.827Z</time></trkpt><trkpt lat="43.0531217" lon="11.5071833"><ele>453.0</ele><time>2026-04-06T14:16:04.828Z</time></trkpt><trkpt lat="43.0530967" lon="11.5073583"><ele>451.0</ele><time>2026-04-06T14:16:05.824Z</time></trkpt><trkpt lat="43.053075" lon="11.5075317"><ele>449.0</ele><time>2026-04-06T14:16:06.825Z</time></trkpt><trkpt lat="43.0530533" lon="11.50771"><ele>447.0</ele><time>2026-04-06T14:16:07.827Z</time></trkpt><trkpt lat="43.05303" lon="11.5078917"><ele>445.0</ele><time>2026-04-06T14:16:08.826Z</time></trkpt><trkpt lat="43.0530017" lon="11.50808"><ele>442.0</ele><time>2026-04-06T14:16:09.831Z</time></trkpt><trkpt lat="43.052975" lon="11.5082883"><ele>439.0</ele><time>2026-04-06T14:16:10.825Z</time></trkpt><trkpt lat="43.052965" lon="11.508515"><ele>436.0</ele><time>2026-04-06T14:16:11.825Z</time></trkpt><trkpt lat="43.0529717" lon="11.5087383"><ele>433.33333333333337</ele><time>2026-04-06T14:16:12.826Z</time></trkpt><trkpt lat="43.0529983" lon="11.508955"><ele>430.66666666666663</ele><time>2026-04-06T14:16:13.825Z</time></trkpt><trkpt lat="43.0530417" lon="11.5091583"><ele>428.0</ele><time>2026-04-06T14:16:14.829Z</time></trkpt><trkpt lat="43.0530833" lon="11.509355"><ele>428.0</ele><time>2026-04-06T14:16:15.827Z</time></trkpt><trkpt lat="43.0531317" lon="11.5095467"><ele>428.0</ele><time>2026-04-06T14:16:16.823Z</time></trkpt><trkpt lat="43.05317" lon="11.509735"><ele>428.0</ele><time>2026-04-06T14:16:17.826Z</time></trkpt><trkpt lat="43.0532283" lon="11.50991"><ele>428.0</ele><time>2026-04-06T14:16:18.827Z</time></trkpt><trkpt lat="43.0533017" lon="11.5100767"><ele>427.25</ele><time>2026-04-06T14:16:19.829Z</time></trkpt><trkpt lat="43.05341" lon="11.5102117"><ele>426.5</ele><time>2026-04-06T14:16:20.825Z</time></trkpt><trkpt lat="43.0535267" lon="11.5103333"><ele>425.75</ele><time>2026-04-06T14:16:21.825Z</time></trkpt><trkpt lat="43.0536467" lon="11.510445"><ele>425.0</ele><time>2026-04-06T14:16:22.83Z</time></trkpt><trkpt lat="43.053775" lon="11.51054"><ele>423.25</ele><time>2026-04-06T14:16:23.831Z</time></trkpt><trkpt lat="43.0539117" lon="11.51061"><ele>421.5</ele><time>2026-04-06T14:16:24.83Z</time></trkpt><trkpt lat="43.054055" lon="11.5106417"><ele>419.75</ele><time>2026-04-06T14:16:25.824Z</time></trkpt><trkpt lat="43.0542" lon="11.5106433"><ele>418.0</ele><time>2026-04-06T14:16:26.827Z</time></trkpt><trkpt lat="43.0543417" lon="11.5106017"><ele>417.5</ele><time>2026-04-06T14:16:27.824Z</time></trkpt><trkpt lat="43.054475" lon="11.510525"><ele>417.0</ele><time>2026-04-06T14:16:28.831Z</time></trkpt><trkpt lat="43.054595" lon="11.51043"><ele>416.5</ele><time>2026-04-06T14:16:29.831Z</time></trkpt><trkpt lat="43.0547017" lon="11.5103033"><ele>416.0</ele><time>2026-04-06T14:16:30.826Z</time></trkpt><trkpt lat="43.0548" lon="11.5101717"><ele>415.5</ele><time>2026-04-06T14:16:31.827Z</time></trkpt><trkpt lat="43.05489" lon="11.5100333"><ele>415.0</ele><time>2026-04-06T14:16:32.824Z</time></trkpt><trkpt lat="43.0549633" lon="11.5098833"><ele>414.5</ele><time>2026-04-06T14:16:33.831Z</time></trkpt><trkpt lat="43.0550267" lon="11.5097233"><ele>414.0</ele><time>2026-04-06T14:16:34.829Z</time></trkpt><trkpt lat="43.0550867" lon="11.5095533"><ele>414.0</ele><time>2026-04-06T14:16:35.824Z</time></trkpt><trkpt lat="43.0551433" lon="11.5093817"><ele>414.0</ele><time>2026-04-06T14:16:36.823Z</time></trkpt><trkpt lat="43.0552033" lon="11.5092167"><ele>414.0</ele><time>2026-04-06T14:16:37.827Z</time></trkpt><trkpt lat="43.055275" lon="11.50906"><ele>414.0</ele><time>2026-04-06T14:16:38.827Z</time></trkpt><trkpt lat="43.0553717" lon="11.5089233"><ele>414.0</ele><time>2026-04-06T14:16:39.826Z</time></trkpt><trkpt lat="43.0554617" lon="11.50879"><ele>414.0</ele><time>2026-04-06T14:16:40.823Z</time></trkpt><trkpt lat="43.0555567" lon="11.5086683"><ele>414.0</ele><time>2026-04-06T14:16:41.822Z</time></trkpt><trkpt lat="43.0556467" lon="11.5085483"><ele>414.0</ele><time>2026-04-06T14:16:42.827Z</time></trkpt><trkpt lat="43.0557317" lon="11.5084317"><ele>410.0</ele><time>2026-04-06T14:16:43.825Z</time></trkpt><trkpt lat="43.055805" lon="11.5083183"><ele>406.0</ele><time>2026-04-06T14:16:44.828Z</time></trkpt><trkpt lat="43.05587" lon="11.5081883"><ele>402.0</ele><time>2026-04-06T14:16:45.826Z</time></trkpt><trkpt lat="43.055905" lon="11.5080333"><ele>398.0</ele><time>2026-04-06T14:16:46.824Z</time></trkpt><trkpt lat="43.05592" lon="11.5078633"><ele>397.59999999999997</ele><time>2026-04-06T14:16:47.827Z</time></trkpt><trkpt lat="43.0559283" lon="11.5077083"><ele>397.2</ele><time>2026-04-06T14:16:48.827Z</time></trkpt><trkpt lat="43.0559283" lon="11.5075783"><ele>396.8</ele><time>2026-04-06T14:16:49.829Z</time></trkpt><trkpt lat="43.0559233" lon="11.5074733"><ele>396.4</ele><time>2026-04-06T14:16:50.827Z</time></trkpt><trkpt lat="43.05591" lon="11.5073133"><ele>396.0</ele><time>2026-04-06T14:16:52.824Z</time></trkpt><trkpt lat="43.05589" lon="11.50722"><ele>396.0</ele><time>2026-04-06T14:16:53.826Z</time></trkpt><trkpt lat="43.05586" lon="11.5071117"><ele>396.0</ele><time>2026-04-06T14:16:54.825Z</time></trkpt><trkpt lat="43.05581" lon="11.5069917"><ele>396.0</ele><time>2026-04-06T14:16:55.826Z</time></trkpt><trkpt lat="43.0557383" lon="11.5068667"><ele>396.0</ele><time>2026-04-06T14:16:56.825Z</time></trkpt><trkpt lat="43.0556567" lon="11.5067433"><ele>396.0</ele><time>2026-04-06T14:16:57.83Z</time></trkpt><trkpt lat="43.055585" lon="11.5066083"><ele>397.5</ele><time>2026-04-06T14:16:58.825Z</time></trkpt><trkpt lat="43.0555333" lon="11.5064583"><ele>399.0</ele><time>2026-04-06T14:16:59.823Z</time></trkpt><trkpt lat="43.05549" lon="11.506295"><ele>400.5</ele><time>2026-04-06T14:17:00.823Z</time></trkpt><trkpt lat="43.0554767" lon="11.506115"><ele>402.0</ele><time>2026-04-06T14:17:01.824Z</time></trkpt><trkpt lat="43.0554967" lon="11.5059283"><ele>402.0</ele><time>2026-04-06T14:17:02.828Z</time></trkpt><trkpt lat="43.05554" lon="11.5057433"><ele>402.0</ele><time>2026-04-06T14:17:03.827Z</time></trkpt><trkpt lat="43.0555983" lon="11.5055667"><ele>402.0</ele><time>2026-04-06T14:17:04.823Z</time></trkpt><trkpt lat="43.0556517" lon="11.50539"><ele>402.0</ele><time>2026-04-06T14:17:05.833Z</time></trkpt><trkpt lat="43.0557" lon="11.5052083"><ele>402.0</ele><time>2026-04-06T14:17:06.829Z</time></trkpt><trkpt lat="43.0557617" lon="11.5050267"><ele>402.0</ele><time>2026-04-06T14:17:07.827Z</time></trkpt><trkpt lat="43.05583" lon="11.50485"><ele>402.0</ele><time>2026-04-06T14:17:08.831Z</time></trkpt><trkpt lat="43.0559133" lon="11.5046867"><ele>402.0</ele><time>2026-04-06T14:17:09.826Z</time></trkpt><trkpt lat="43.0559983" lon="11.5045233"><ele>399.0</ele><time>2026-04-06T14:17:10.825Z</time></trkpt><trkpt lat="43.0560833" lon="11.5043633"><ele>396.0</ele><time>2026-04-06T14:17:11.827Z</time></trkpt><trkpt lat="43.0561617" lon="11.504205"><ele>393.0</ele><time>2026-04-06T14:17:12.828Z</time></trkpt><trkpt lat="43.0562633" lon="11.5040717"><ele>390.0</ele><time>2026-04-06T14:17:13.826Z</time></trkpt><trkpt lat="43.0563883" lon="11.5039633"><ele>390.0</ele><time>2026-04-06T14:17:14.824Z</time></trkpt><trkpt lat="43.05653" lon="11.5038683"><ele>390.0</ele><time>2026-04-06T14:17:15.827Z</time></trkpt><trkpt lat="43.056675" lon="11.5037717"><ele>390.0</ele><time>2026-04-06T14:17:16.828Z</time></trkpt><trkpt lat="43.0568233" lon="11.5036767"><ele>388.0</ele><time>2026-04-06T14:17:17.828Z</time></trkpt><trkpt lat="43.056975" lon="11.5035983"><ele>386.0</ele><time>2026-04-06T14:17:18.826Z</time></trkpt><trkpt lat="43.0571233" lon="11.5035317"><ele>384.0</ele><time>2026-04-06T14:17:19.827Z</time></trkpt><trkpt lat="43.0572717" lon="11.5034883"><ele>384.0</ele><time>2026-04-06T14:17:20.825Z</time></trkpt><trkpt lat="43.0574117" lon="11.50345"><ele>384.0</ele><time>2026-04-06T14:17:21.831Z</time></trkpt><trkpt lat="43.057545" lon="11.5033967"><ele>384.0</ele><time>2026-04-06T14:17:22.827Z</time></trkpt><trkpt lat="43.0576617" lon="11.5033067"><ele>384.0</ele><time>2026-04-06T14:17:23.825Z</time></trkpt><trkpt lat="43.0577367" lon="11.5031633"><ele>381.75</ele><time>2026-04-06T14:17:24.826Z</time></trkpt><trkpt lat="43.0577817" lon="11.5029933"><ele>379.5</ele><time>2026-04-06T14:17:25.826Z</time></trkpt><trkpt lat="43.0577917" lon="11.5028067"><ele>377.25</ele><time>2026-04-06T14:17:26.827Z</time></trkpt><trkpt lat="43.057785" lon="11.50262"><ele>375.0</ele><time>2026-04-06T14:17:27.827Z</time></trkpt><trkpt lat="43.0577967" lon="11.5024583"><ele>375.0</ele><time>2026-04-06T14:17:28.83Z</time></trkpt><trkpt lat="43.057835" lon="11.5023167"><ele>375.0</ele><time>2026-04-06T14:17:29.824Z</time></trkpt><trkpt lat="43.0579033" lon="11.5021983"><ele>375.0</ele><time>2026-04-06T14:17:30.827Z</time></trkpt><trkpt lat="43.0579983" lon="11.5021083"><ele>375.0</ele><time>2026-04-06T14:17:31.825Z</time></trkpt><trkpt lat="43.05811" lon="11.5020467"><ele>374.5</ele><time>2026-04-06T14:17:32.832Z</time></trkpt><trkpt lat="43.05823" lon="11.5020167"><ele>374.0</ele><time>2026-04-06T14:17:33.826Z</time></trkpt><trkpt lat="43.0583467" lon="11.5020183"><ele>373.5</ele><time>2026-04-06T14:17:34.823Z</time></trkpt><trkpt lat="43.0584683" lon="11.5020667"><ele>373.0</ele><time>2026-04-06T14:17:35.825Z</time></trkpt><trkpt lat="43.058595" lon="11.5021583"><ele>370.0</ele><time>2026-04-06T14:17:36.827Z</time></trkpt><trkpt lat="43.058715" lon="11.5022833"><ele>367.0</ele><time>2026-04-06T14:17:37.826Z</time></trkpt><trkpt lat="43.0588267" lon="11.50241"><ele>364.0</ele><time>2026-04-06T14:17:38.836Z</time></trkpt><trkpt lat="43.0589267" lon="11.50254"><ele>361.0</ele><time>2026-04-06T14:17:39.824Z</time></trkpt><trkpt lat="43.059025" lon="11.5026633"><ele>361.25</ele><time>2026-04-06T14:17:40.825Z</time></trkpt><trkpt lat="43.0591183" lon="11.5027833"><ele>361.5</ele><time>2026-04-06T14:17:41.828Z</time></trkpt><trkpt lat="43.0592267" lon="11.5028817"><ele>361.75</ele><time>2026-04-06T14:17:42.827Z</time></trkpt><trkpt lat="43.05935" lon="11.5029433"><ele>362.0</ele><time>2026-04-06T14:17:43.825Z</time></trkpt><trkpt lat="43.05947" lon="11.5030083"><ele>357.0</ele><time>2026-04-06T14:17:44.827Z</time></trkpt><trkpt lat="43.0595933" lon="11.503045"><ele>352.0</ele><time>2026-04-06T14:17:45.827Z</time></trkpt><trkpt lat="43.0597183" lon="11.5030633"><ele>347.0</ele><time>2026-04-06T14:17:46.827Z</time></trkpt><trkpt lat="43.0598417" lon="11.503075"><ele>342.0</ele><time>2026-04-06T14:17:47.829Z</time></trkpt><trkpt lat="43.0599667" lon="11.5030733"><ele>341.0</ele><time>2026-04-06T14:17:48.826Z</time></trkpt><trkpt lat="43.0600933" lon="11.5030517"><ele>340.0</ele><time>2026-04-06T14:17:49.825Z</time></trkpt><trkpt lat="43.060215" lon="11.5030033"><ele>339.0</ele><time>2026-04-06T14:17:50.827Z</time></trkpt><trkpt lat="43.0603367" lon="11.5029283"><ele>338.0</ele><time>2026-04-06T14:17:51.832Z</time></trkpt><trkpt lat="43.060445" lon="11.5028283"><ele>339.0</ele><time>2026-04-06T14:17:52.827Z</time></trkpt><trkpt lat="43.06054" lon="11.5026917"><ele>340.0</ele><time>2026-04-06T14:17:53.831Z</time></trkpt><trkpt lat="43.0606267" lon="11.5025433"><ele>341.0</ele><time>2026-04-06T14:17:54.824Z</time></trkpt><trkpt lat="43.0607117" lon="11.5023967"><ele>342.0</ele><time>2026-04-06T14:17:55.823Z</time></trkpt><trkpt lat="43.0608067" lon="11.502265"><ele>342.0</ele><time>2026-04-06T14:17:56.828Z</time></trkpt><trkpt lat="43.0609233" lon="11.5021733"><ele>342.0</ele><time>2026-04-06T14:17:57.824Z</time></trkpt><trkpt lat="43.0610567" lon="11.502115"><ele>342.0</ele><time>2026-04-06T14:17:58.826Z</time></trkpt><trkpt lat="43.0611967" lon="11.5020933"><ele>342.0</ele><time>2026-04-06T14:17:59.825Z</time></trkpt><trkpt lat="43.0613367" lon="11.5020717"><ele>342.0</ele><time>2026-04-06T14:18:00.824Z</time></trkpt><trkpt lat="43.061475" lon="11.5020217"><ele>342.0</ele><time>2026-04-06T14:18:01.826Z</time></trkpt><trkpt lat="43.0616183" lon="11.5019367"><ele>342.0</ele><time>2026-04-06T14:18:02.824Z</time></trkpt><trkpt lat="43.0617583" lon="11.5018217"><ele>342.0</ele><time>2026-04-06T14:18:03.823Z</time></trkpt><trkpt lat="43.0618933" lon="11.501705"><ele>342.0</ele><time>2026-04-06T14:18:04.824Z</time></trkpt><trkpt lat="43.0620233" lon="11.5015983"><ele>342.0</ele><time>2026-04-06T14:18:05.825Z</time></trkpt><trkpt lat="43.0621417" lon="11.50148"><ele>342.0</ele><time>2026-04-06T14:18:06.827Z</time></trkpt><trkpt lat="43.06226" lon="11.5013667"><ele>342.0</ele><time>2026-04-06T14:18:07.827Z</time></trkpt><trkpt lat="43.0623783" lon="11.50126"><ele>342.0</ele><time>2026-04-06T14:18:08.826Z</time></trkpt><trkpt lat="43.062495" lon="11.5011617"><ele>342.0</ele><time>2026-04-06T14:18:09.828Z</time></trkpt><trkpt lat="43.06262" lon="11.5010783"><ele>340.75</ele><time>2026-04-06T14:18:10.827Z</time></trkpt><trkpt lat="43.062755" lon="11.5010233"><ele>339.5</ele><time>2026-04-06T14:18:11.826Z</time></trkpt><trkpt lat="43.0628967" lon="11.5009983"><ele>338.25</ele><time>2026-04-06T14:18:12.828Z</time></trkpt><trkpt lat="43.0630383" lon="11.5010117"><ele>337.0</ele><time>2026-04-06T14:18:13.823Z</time></trkpt><trkpt lat="43.0631783" lon="11.5010567"><ele>335.0</ele><time>2026-04-06T14:18:14.824Z</time></trkpt><trkpt lat="43.063325" lon="11.5011267"><ele>333.0</ele><time>2026-04-06T14:18:15.827Z</time></trkpt><trkpt lat="43.0634717" lon="11.5012033"><ele>331.0</ele><time>2026-04-06T14:18:16.825Z</time></trkpt><trkpt lat="43.0636117" lon="11.5012767"><ele>329.0</ele><time>2026-04-06T14:18:17.828Z</time></trkpt><trkpt lat="43.06375" lon="11.50135"><ele>327.0</ele><time>2026-04-06T14:18:18.826Z</time></trkpt><trkpt lat="43.06389" lon="11.5014317"><ele>325.0</ele><time>2026-04-06T14:18:19.828Z</time></trkpt><trkpt lat="43.0640283" lon="11.5015"><ele>323.0</ele><time>2026-04-06T14:18:20.825Z</time></trkpt><trkpt lat="43.0641617" lon="11.5015683"><ele>322.75</ele><time>2026-04-06T14:18:21.824Z</time></trkpt><trkpt lat="43.0642917" lon="11.5016433"><ele>322.5</ele><time>2026-04-06T14:18:22.83Z</time></trkpt><trkpt lat="43.0644267" lon="11.5017067"><ele>322.25</ele><time>2026-04-06T14:18:23.823Z</time></trkpt><trkpt lat="43.0645667" lon="11.501755"><ele>322.0</ele><time>2026-04-06T14:18:24.828Z</time></trkpt><trkpt lat="43.06471" lon="11.5017567"><ele>322.0</ele><time>2026-04-06T14:18:25.831Z</time></trkpt><trkpt lat="43.0648517" lon="11.5017167"><ele>322.0</ele><time>2026-04-06T14:18:26.825Z</time></trkpt><trkpt lat="43.0649883" lon="11.50166"><ele>322.0</ele><time>2026-04-06T14:18:27.823Z</time></trkpt><trkpt lat="43.0651183" lon="11.5015633"><ele>322.0</ele><time>2026-04-06T14:18:28.823Z</time></trkpt><trkpt lat="43.0652367" lon="11.5014267"><ele>321.66666666666663</ele><time>2026-04-06T14:18:29.91Z</time></trkpt><trkpt lat="43.0653433" lon="11.5012667"><ele>321.3333333333333</ele><time>2026-04-06T14:18:30.826Z</time></trkpt><trkpt lat="43.0654383" lon="11.5010917"><ele>321.0</ele><time>2026-04-06T14:18:31.825Z</time></trkpt><trkpt lat="43.0656067" lon="11.5007517"><ele>321.0</ele><time>2026-04-06T14:18:33.826Z</time></trkpt><trkpt lat="43.0656817" lon="11.50059"><ele>321.0</ele><time>2026-04-06T14:18:34.833Z</time></trkpt><trkpt lat="43.0657633" lon="11.5004417"><ele>321.0</ele><time>2026-04-06T14:18:35.828Z</time></trkpt><trkpt lat="43.065865" lon="11.5003117"><ele>321.0</ele><time>2026-04-06T14:18:36.826Z</time></trkpt><trkpt lat="43.0659783" lon="11.5002083"><ele>319.25</ele><time>2026-04-06T14:18:37.825Z</time></trkpt><trkpt lat="43.0661083" lon="11.500135"><ele>317.5</ele><time>2026-04-06T14:18:38.824Z</time></trkpt><trkpt lat="43.066245" lon="11.50008"><ele>315.75</ele><time>2026-04-06T14:18:39.829Z</time></trkpt><trkpt lat="43.0663817" lon="11.5000333"><ele>314.0</ele><time>2026-04-06T14:18:40.833Z</time></trkpt><trkpt lat="43.06652" lon="11.4999833"><ele>311.33333333333337</ele><time>2026-04-06T14:18:41.824Z</time></trkpt><trkpt lat="43.0666667" lon="11.4999233"><ele>308.6666666666667</ele><time>2026-04-06T14:18:42.825Z</time></trkpt><trkpt lat="43.0668167" lon="11.49985"><ele>306.0</ele><time>2026-04-06T14:18:43.824Z</time></trkpt><trkpt lat="43.0669617" lon="11.499755"><ele>306.0</ele><time>2026-04-06T14:18:44.825Z</time></trkpt><trkpt lat="43.0671117" lon="11.4996483"><ele>306.0</ele><time>2026-04-06T14:18:45.829Z</time></trkpt><trkpt lat="43.0672667" lon="11.4995383"><ele>306.0</ele><time>2026-04-06T14:18:46.825Z</time></trkpt><trkpt lat="43.0674283" lon="11.4994367"><ele>305.3333333333333</ele><time>2026-04-06T14:18:47.826Z</time></trkpt><trkpt lat="43.0675883" lon="11.4993367"><ele>304.66666666666663</ele><time>2026-04-06T14:18:48.824Z</time></trkpt><trkpt lat="43.0677567" lon="11.499245"><ele>304.0</ele><time>2026-04-06T14:18:49.826Z</time></trkpt><trkpt lat="43.06794" lon="11.499175"><ele>304.0</ele><time>2026-04-06T14:18:50.829Z</time></trkpt><trkpt lat="43.06813" lon="11.49912"><ele>304.0</ele><time>2026-04-06T14:18:51.839Z</time></trkpt><trkpt lat="43.0683183" lon="11.499065"><ele>304.0</ele><time>2026-04-06T14:18:52.828Z</time></trkpt><trkpt lat="43.0685033" lon="11.4990117"><ele>300.66666666666663</ele><time>2026-04-06T14:18:53.828Z</time></trkpt><trkpt lat="43.0686867" lon="11.498955"><ele>297.3333333333333</ele><time>2026-04-06T14:18:54.827Z</time></trkpt><trkpt lat="43.0688667" lon="11.4988983"><ele>294.0</ele><time>2026-04-06T14:18:55.825Z</time></trkpt><trkpt lat="43.069045" lon="11.4988433"><ele>292.3333333333333</ele><time>2026-04-06T14:18:56.827Z</time></trkpt><trkpt lat="43.069225" lon="11.49879"><ele>290.66666666666663</ele><time>2026-04-06T14:18:57.823Z</time></trkpt><trkpt lat="43.069405" lon="11.498735"><ele>289.0</ele><time>2026-04-06T14:18:58.828Z</time></trkpt><trkpt lat="43.0695817" lon="11.4986833"><ele>289.0</ele><time>2026-04-06T14:18:59.826Z</time></trkpt><trkpt lat="43.06976" lon="11.4986283"><ele>289.0</ele><time>2026-04-06T14:19:00.827Z</time></trkpt><trkpt lat="43.06993" lon="11.4985667"><ele>289.0</ele><time>2026-04-06T14:19:01.834Z</time></trkpt><trkpt lat="43.0700967" lon="11.498495"><ele>287.66666666666663</ele><time>2026-04-06T14:19:02.826Z</time></trkpt><trkpt lat="43.07026" lon="11.4984067"><ele>286.3333333333333</ele><time>2026-04-06T14:19:03.827Z</time></trkpt><trkpt lat="43.07041" lon="11.4982967"><ele>285.0</ele><time>2026-04-06T14:19:04.826Z</time></trkpt><trkpt lat="43.07056" lon="11.49818"><ele>285.0</ele><time>2026-04-06T14:19:05.825Z</time></trkpt><trkpt lat="43.0707133" lon="11.498075"><ele>285.0</ele><time>2026-04-06T14:19:06.824Z</time></trkpt><trkpt lat="43.070865" lon="11.4979733"><ele>285.0</ele><time>2026-04-06T14:19:07.824Z</time></trkpt><trkpt lat="43.07101" lon="11.4978533"><ele>282.3333333333333</ele><time>2026-04-06T14:19:08.825Z</time></trkpt><trkpt lat="43.0711567" lon="11.4977417"><ele>279.66666666666663</ele><time>2026-04-06T14:19:09.827Z</time></trkpt><trkpt lat="43.0713083" lon="11.49763"><ele>277.0</ele><time>2026-04-06T14:19:10.824Z</time></trkpt><trkpt lat="43.07146" lon="11.4975133"><ele>278.0</ele><time>2026-04-06T14:19:11.828Z</time></trkpt><trkpt lat="43.0716117" lon="11.4974017"><ele>279.0</ele><time>2026-04-06T14:19:12.824Z</time></trkpt><trkpt lat="43.0717633" lon="11.49729"><ele>280.0</ele><time>2026-04-06T14:19:13.824Z</time></trkpt><trkpt lat="43.071915" lon="11.4971717"><ele>277.66666666666663</ele><time>2026-04-06T14:19:14.825Z</time></trkpt><trkpt lat="43.0720633" lon="11.497055"><ele>275.3333333333333</ele><time>2026-04-06T14:19:15.825Z</time></trkpt><trkpt lat="43.072215" lon="11.496945"><ele>273.0</ele><time>2026-04-06T14:19:16.828Z</time></trkpt><trkpt lat="43.072365" lon="11.4968233"><ele>274.0</ele><time>2026-04-06T14:19:17.824Z</time></trkpt><trkpt lat="43.0725167" lon="11.496705"><ele>275.0</ele><time>2026-04-06T14:19:18.827Z</time></trkpt><trkpt lat="43.0726733" lon="11.4965933"><ele>276.0</ele><time>2026-04-06T14:19:19.838Z</time></trkpt><trkpt lat="43.0728383" lon="11.4965033"><ele>276.0</ele><time>2026-04-06T14:19:20.828Z</time></trkpt><trkpt lat="43.0730083" lon="11.496425"><ele>276.0</ele><time>2026-04-06T14:19:21.825Z</time></trkpt><trkpt lat="43.0731817" lon="11.4963533"><ele>276.0</ele><time>2026-04-06T14:19:22.823Z</time></trkpt><trkpt lat="43.0733567" lon="11.4962867"><ele>272.3333333333333</ele><time>2026-04-06T14:19:23.83Z</time></trkpt><trkpt lat="43.07353" lon="11.4962033"><ele>268.66666666666663</ele><time>2026-04-06T14:19:24.826Z</time></trkpt><trkpt lat="43.0737033" lon="11.49611"><ele>265.0</ele><time>2026-04-06T14:19:25.823Z</time></trkpt><trkpt lat="43.073875" lon="11.4960033"><ele>265.0</ele><time>2026-04-06T14:19:26.824Z</time></trkpt><trkpt lat="43.0740383" lon="11.4958783"><ele>265.0</ele><time>2026-04-06T14:19:27.823Z</time></trkpt><trkpt lat="43.0741983" lon="11.4957533"><ele>265.0</ele><time>2026-04-06T14:19:28.827Z</time></trkpt><trkpt lat="43.0743567" lon="11.49563"><ele>264.66666666666663</ele><time>2026-04-06T14:19:29.826Z</time></trkpt><trkpt lat="43.07451" lon="11.4954983"><ele>264.3333333333333</ele><time>2026-04-06T14:19:30.827Z</time></trkpt><trkpt lat="43.074665" lon="11.4953683"><ele>264.0</ele><time>2026-04-06T14:19:31.824Z</time></trkpt><trkpt lat="43.07482" lon="11.495235"><ele>262.0</ele><time>2026-04-06T14:19:32.825Z</time></trkpt><trkpt lat="43.0749767" lon="11.495105"><ele>260.0</ele><time>2026-04-06T14:19:33.826Z</time></trkpt><trkpt lat="43.075125" lon="11.494975"><ele>258.0</ele><time>2026-04-06T14:19:34.828Z</time></trkpt><trkpt lat="43.07527" lon="11.4948483"><ele>258.0</ele><time>2026-04-06T14:19:35.824Z</time></trkpt><trkpt lat="43.0754133" lon="11.4947233"><ele>258.0</ele><time>2026-04-06T14:19:36.826Z</time></trkpt><trkpt lat="43.0755567" lon="11.4946"><ele>258.0</ele><time>2026-04-06T14:19:37.829Z</time></trkpt><trkpt lat="43.0756983" lon="11.494475"><ele>256.3333333333333</ele><time>2026-04-06T14:19:38.83Z</time></trkpt><trkpt lat="43.075835" lon="11.4943383"><ele>254.66666666666666</ele><time>2026-04-06T14:19:39.825Z</time></trkpt><trkpt lat="43.0759667" lon="11.49419"><ele>253.0</ele><time>2026-04-06T14:19:40.83Z</time></trkpt><trkpt lat="43.0760983" lon="11.4940533"><ele>253.0</ele><time>2026-04-06T14:19:41.831Z</time></trkpt><trkpt lat="43.07623" lon="11.4939167"><ele>253.0</ele><time>2026-04-06T14:19:42.826Z</time></trkpt><trkpt lat="43.0763633" lon="11.4937883"><ele>253.0</ele><time>2026-04-06T14:19:43.825Z</time></trkpt><trkpt lat="43.07649" lon="11.4936583"><ele>252.33333333333331</ele><time>2026-04-06T14:19:44.824Z</time></trkpt><trkpt lat="43.07661" lon="11.4935267"><ele>251.66666666666669</ele><time>2026-04-06T14:19:45.822Z</time></trkpt><trkpt lat="43.0767333" lon="11.4934017"><ele>251.0</ele><time>2026-04-06T14:19:46.823Z</time></trkpt><trkpt lat="43.0768583" lon="11.4932883"><ele>251.0</ele><time>2026-04-06T14:19:47.833Z</time></trkpt><trkpt lat="43.0769817" lon="11.4931833"><ele>251.0</ele><time>2026-04-06T14:19:48.829Z</time></trkpt><trkpt lat="43.077105" lon="11.493095"><ele>251.0</ele><time>2026-04-06T14:19:49.823Z</time></trkpt><trkpt lat="43.0772233" lon="11.49303"><ele>251.0</ele><time>2026-04-06T14:19:50.828Z</time></trkpt><trkpt lat="43.07733" lon="11.492975"><ele>251.0</ele><time>2026-04-06T14:19:51.825Z</time></trkpt><trkpt lat="43.07741" lon="11.492925"><ele>251.00000000000003</ele><time>2026-04-06T14:19:52.829Z</time></trkpt><trkpt lat="43.0774767" lon="11.492885"><ele>251.00000000000003</ele><time>2026-04-06T14:19:53.828Z</time></trkpt><trkpt lat="43.0775867" lon="11.4928417"><ele>251.0</ele><time>2026-04-06T14:19:55.825Z</time></trkpt><trkpt lat="43.077685" lon="11.4928867"><ele>251.0</ele><time>2026-04-06T14:19:57.825Z</time></trkpt><trkpt lat="43.0777967" lon="11.4929933"><ele>250.8</ele><time>2026-04-06T14:19:59.828Z</time></trkpt><trkpt lat="43.0778683" lon="11.493065"><ele>250.60000000000002</ele><time>2026-04-06T14:20:00.825Z</time></trkpt><trkpt lat="43.0779433" lon="11.4931533"><ele>250.4</ele><time>2026-04-06T14:20:01.832Z</time></trkpt><trkpt lat="43.0780233" lon="11.4932467"><ele>250.2</ele><time>2026-04-06T14:20:02.829Z</time></trkpt><trkpt lat="43.0781033" lon="11.49335"><ele>250.0</ele><time>2026-04-06T14:20:03.826Z</time></trkpt><trkpt lat="43.0781867" lon="11.4934517"><ele>250.0</ele><time>2026-04-06T14:20:04.827Z</time></trkpt><trkpt lat="43.07826" lon="11.4935517"><ele>250.0</ele><time>2026-04-06T14:20:05.826Z</time></trkpt><trkpt lat="43.078325" lon="11.49365"><ele>250.0</ele><time>2026-04-06T14:20:06.827Z</time></trkpt><trkpt lat="43.0784" lon="11.4937533"><ele>250.0</ele><time>2026-04-06T14:20:07.826Z</time></trkpt><trkpt lat="43.0784783" lon="11.49387"><ele>250.0</ele><time>2026-04-06T14:20:08.829Z</time></trkpt><trkpt lat="43.0785567" lon="11.4939933"><ele>250.8</ele><time>2026-04-06T14:20:09.828Z</time></trkpt><trkpt lat="43.078625" lon="11.4941233"><ele>251.6</ele><time>2026-04-06T14:20:10.825Z</time></trkpt><trkpt lat="43.0786867" lon="11.494255"><ele>252.39999999999998</ele><time>2026-04-06T14:20:11.824Z</time></trkpt><trkpt lat="43.078735" lon="11.4943867"><ele>253.2</ele><time>2026-04-06T14:20:12.831Z</time></trkpt><trkpt lat="43.0787817" lon="11.4945183"><ele>254.0</ele><time>2026-04-06T14:20:13.828Z</time></trkpt><trkpt lat="43.0788283" lon="11.494655"><ele>254.0</ele><time>2026-04-06T14:20:14.83Z</time></trkpt><trkpt lat="43.0788783" lon="11.494795"><ele>253.99999999999997</ele><time>2026-04-06T14:20:15.826Z</time></trkpt><trkpt lat="43.0789283" lon="11.494935"><ele>253.99999999999997</ele><time>2026-04-06T14:20:16.824Z</time></trkpt><trkpt lat="43.0789783" lon="11.495065"><ele>254.0</ele><time>2026-04-06T14:20:17.828Z</time></trkpt><trkpt lat="43.0790133" lon="11.4951983"><ele>254.0</ele><time>2026-04-06T14:20:18.826Z</time></trkpt><trkpt lat="43.07906" lon="11.4953283"><ele>255.6</ele><time>2026-04-06T14:20:19.824Z</time></trkpt><trkpt lat="43.079105" lon="11.49546"><ele>257.2</ele><time>2026-04-06T14:20:20.823Z</time></trkpt><trkpt lat="43.0791483" lon="11.4955933"><ele>258.79999999999995</ele><time>2026-04-06T14:20:21.825Z</time></trkpt><trkpt lat="43.0792017" lon="11.4957333"><ele>260.4</ele><time>2026-04-06T14:20:22.828Z</time></trkpt><trkpt lat="43.0792533" lon="11.4958817"><ele>262.0</ele><time>2026-04-06T14:20:23.824Z</time></trkpt><trkpt lat="43.0793083" lon="11.4960333"><ele>262.0</ele><time>2026-04-06T14:20:24.828Z</time></trkpt><trkpt lat="43.07936" lon="11.4961833"><ele>262.0</ele><time>2026-04-06T14:20:25.824Z</time></trkpt><trkpt lat="43.0794083" lon="11.4963167"><ele>262.0</ele><time>2026-04-06T14:20:26.832Z</time></trkpt><trkpt lat="43.0794467" lon="11.4964433"><ele>262.0</ele><time>2026-04-06T14:20:27.824Z</time></trkpt><trkpt lat="43.079475" lon="11.4965667"><ele>262.0</ele><time>2026-04-06T14:20:28.829Z</time></trkpt><trkpt lat="43.0795" lon="11.4966767"><ele>262.2</ele><time>2026-04-06T14:20:29.829Z</time></trkpt><trkpt lat="43.079515" lon="11.4967933"><ele>262.4</ele><time>2026-04-06T14:20:30.829Z</time></trkpt><trkpt lat="43.0795283" lon="11.4969183"><ele>262.6</ele><time>2026-04-06T14:20:31.835Z</time></trkpt><trkpt lat="43.0795433" lon="11.497045"><ele>262.8</ele><time>2026-04-06T14:20:32.828Z</time></trkpt><trkpt lat="43.0795717" lon="11.49717"><ele>263.0</ele><time>2026-04-06T14:20:33.829Z</time></trkpt><trkpt lat="43.0796017" lon="11.4973"><ele>263.0</ele><time>2026-04-06T14:20:34.827Z</time></trkpt><trkpt lat="43.0796417" lon="11.497435"><ele>263.0</ele><time>2026-04-06T14:20:35.828Z</time></trkpt><trkpt lat="43.0796867" lon="11.49757"><ele>263.0</ele><time>2026-04-06T14:20:36.827Z</time></trkpt><trkpt lat="43.079725" lon="11.4977067"><ele>263.0</ele><time>2026-04-06T14:20:37.833Z</time></trkpt><trkpt lat="43.0797633" lon="11.4978383"><ele>263.0</ele><time>2026-04-06T14:20:38.826Z</time></trkpt><trkpt lat="43.0798033" lon="11.4979717"><ele>262.4</ele><time>2026-04-06T14:20:39.827Z</time></trkpt><trkpt lat="43.079835" lon="11.4981033"><ele>261.8</ele><time>2026-04-06T14:20:40.824Z</time></trkpt><trkpt lat="43.0798667" lon="11.4982283"><ele>261.2</ele><time>2026-04-06T14:20:41.837Z</time></trkpt><trkpt lat="43.0799017" lon="11.498345"><ele>260.6</ele><time>2026-04-06T14:20:42.831Z</time></trkpt><trkpt lat="43.0799433" lon="11.4984533"><ele>260.0</ele><time>2026-04-06T14:20:43.827Z</time></trkpt><trkpt lat="43.07999" lon="11.4985517"><ele>261.6</ele><time>2026-04-06T14:20:44.832Z</time></trkpt><trkpt lat="43.0800517" lon="11.498655"><ele>263.2</ele><time>2026-04-06T14:20:45.83Z</time></trkpt><trkpt lat="43.0801217" lon="11.49876"><ele>264.8</ele><time>2026-04-06T14:20:46.826Z</time></trkpt><trkpt lat="43.0801917" lon="11.49887"><ele>266.4</ele><time>2026-04-06T14:20:47.827Z</time></trkpt><trkpt lat="43.0802667" lon="11.498985"><ele>268.0</ele><time>2026-04-06T14:20:48.825Z</time></trkpt><trkpt lat="43.0803383" lon="11.499095"><ele>268.0</ele><time>2026-04-06T14:20:49.825Z</time></trkpt><trkpt lat="43.080405" lon="11.499205"><ele>268.0</ele><time>2026-04-06T14:20:50.825Z</time></trkpt><trkpt lat="43.0804817" lon="11.499315"><ele>268.0</ele><time>2026-04-06T14:20:51.828Z</time></trkpt><trkpt lat="43.0805617" lon="11.4994333"><ele>268.0</ele><time>2026-04-06T14:20:52.824Z</time></trkpt><trkpt lat="43.08064" lon="11.49956"><ele>268.0</ele><time>2026-04-06T14:20:53.824Z</time></trkpt><trkpt lat="43.080715" lon="11.4996817"><ele>268.0</ele><time>2026-04-06T14:20:54.823Z</time></trkpt><trkpt lat="43.0807867" lon="11.4998033"><ele>268.0</ele><time>2026-04-06T14:20:55.829Z</time></trkpt><trkpt lat="43.0808583" lon="11.4999133"><ele>268.0</ele><time>2026-04-06T14:20:56.828Z</time></trkpt><trkpt lat="43.0809333" lon="11.5000133"><ele>268.0</ele><time>2026-04-06T14:20:57.826Z</time></trkpt><trkpt lat="43.0810067" lon="11.500105"><ele>268.0</ele><time>2026-04-06T14:20:58.824Z</time></trkpt><trkpt lat="43.08108" lon="11.500185"><ele>268.0</ele><time>2026-04-06T14:20:59.823Z</time></trkpt><trkpt lat="43.0811633" lon="11.50025"><ele>268.0</ele><time>2026-04-06T14:21:00.828Z</time></trkpt><trkpt lat="43.0812583" lon="11.5002933"><ele>268.0</ele><time>2026-04-06T14:21:01.827Z</time></trkpt><trkpt lat="43.0813617" lon="11.50032"><ele>268.0</ele><time>2026-04-06T14:21:02.831Z</time></trkpt><trkpt lat="43.08147" lon="11.5003467"><ele>268.0</ele><time>2026-04-06T14:21:03.829Z</time></trkpt><trkpt lat="43.0815767" lon="11.50037"><ele>268.0</ele><time>2026-04-06T14:21:04.826Z</time></trkpt><trkpt lat="43.08168" lon="11.5003967"><ele>268.0</ele><time>2026-04-06T14:21:05.829Z</time></trkpt><trkpt lat="43.0817833" lon="11.5004217"><ele>268.0</ele><time>2026-04-06T14:21:06.832Z</time></trkpt><trkpt lat="43.0818833" lon="11.5004483"><ele>268.0</ele><time>2026-04-06T14:21:07.826Z</time></trkpt><trkpt lat="43.08198" lon="11.5004767"><ele>267.8</ele><time>2026-04-06T14:21:08.826Z</time></trkpt><trkpt lat="43.08207" lon="11.5005067"><ele>267.6</ele><time>2026-04-06T14:21:09.824Z</time></trkpt><trkpt lat="43.0821583" lon="11.500535"><ele>267.4</ele><time>2026-04-06T14:21:10.83Z</time></trkpt><trkpt lat="43.0822533" lon="11.50057"><ele>267.2</ele><time>2026-04-06T14:21:11.83Z</time></trkpt><trkpt lat="43.0823483" lon="11.5006133"><ele>267.0</ele><time>2026-04-06T14:21:12.825Z</time></trkpt><trkpt lat="43.082445" lon="11.50066"><ele>267.6</ele><time>2026-04-06T14:21:13.824Z</time></trkpt><trkpt lat="43.0825417" lon="11.500705"><ele>268.2</ele><time>2026-04-06T14:21:14.825Z</time></trkpt><trkpt lat="43.0826417" lon="11.50075"><ele>268.8</ele><time>2026-04-06T14:21:15.83Z</time></trkpt><trkpt lat="43.08274" lon="11.5008017"><ele>269.4</ele><time>2026-04-06T14:21:16.826Z</time></trkpt><trkpt lat="43.0828433" lon="11.50086"><ele>270.0</ele><time>2026-04-06T14:21:17.826Z</time></trkpt><trkpt lat="43.0829517" lon="11.5009233"><ele>270.0</ele><time>2026-04-06T14:21:18.828Z</time></trkpt><trkpt lat="43.0830633" lon="11.50098"><ele>270.0</ele><time>2026-04-06T14:21:19.827Z</time></trkpt><trkpt lat="43.0831767" lon="11.5010433"><ele>270.0</ele><time>2026-04-06T14:21:20.826Z</time></trkpt><trkpt lat="43.08329" lon="11.501105"><ele>270.0</ele><time>2026-04-06T14:21:21.829Z</time></trkpt><trkpt lat="43.0834017" lon="11.5011683"><ele>269.25</ele><time>2026-04-06T14:21:22.826Z</time></trkpt><trkpt lat="43.0835083" lon="11.5012333"><ele>268.5</ele><time>2026-04-06T14:21:23.827Z</time></trkpt><trkpt lat="43.0836133" lon="11.5012967"><ele>267.75</ele><time>2026-04-06T14:21:24.824Z</time></trkpt><trkpt lat="43.0837233" lon="11.501355"><ele>267.0</ele><time>2026-04-06T14:21:25.825Z</time></trkpt><trkpt lat="43.08383" lon="11.5014133"><ele>267.0</ele><time>2026-04-06T14:21:26.827Z</time></trkpt><trkpt lat="43.0839267" lon="11.501465"><ele>267.0</ele><time>2026-04-06T14:21:27.827Z</time></trkpt><trkpt lat="43.0840067" lon="11.5015133"><ele>267.0</ele><time>2026-04-06T14:21:28.827Z</time></trkpt><trkpt lat="43.0840783" lon="11.5015583"><ele>267.0</ele><time>2026-04-06T14:21:29.825Z</time></trkpt><trkpt lat="43.084135" lon="11.5016033"><ele>267.0</ele><time>2026-04-06T14:21:30.827Z</time></trkpt><trkpt lat="43.0842067" lon="11.5016933"><ele>267.0</ele><time>2026-04-06T14:21:32.825Z</time></trkpt><trkpt lat="43.0842317" lon="11.5018217"><ele>267.2</ele><time>2026-04-06T14:21:34.828Z</time></trkpt><trkpt lat="43.0842033" lon="11.501995"><ele>267.4</ele><time>2026-04-06T14:21:36.825Z</time></trkpt><trkpt lat="43.0841717" lon="11.50211"><ele>267.6</ele><time>2026-04-06T14:21:37.825Z</time></trkpt><trkpt lat="43.0841267" lon="11.5022467"><ele>267.8</ele><time>2026-04-06T14:21:38.829Z</time></trkpt><trkpt lat="43.084085" lon="11.5023833"><ele>268.0</ele><time>2026-04-06T14:21:39.823Z</time></trkpt><trkpt lat="43.0840417" lon="11.502525"><ele>268.0</ele><time>2026-04-06T14:21:40.831Z</time></trkpt><trkpt lat="43.0840183" lon="11.5026767"><ele>268.0</ele><time>2026-04-06T14:21:41.825Z</time></trkpt><trkpt lat="43.084005" lon="11.5028383"><ele>268.0</ele><time>2026-04-06T14:21:42.824Z</time></trkpt><trkpt lat="43.0840017" lon="11.5029967"><ele>268.0</ele><time>2026-04-06T14:21:43.831Z</time></trkpt><trkpt lat="43.084005" lon="11.5031417"><ele>269.2</ele><time>2026-04-06T14:21:44.83Z</time></trkpt><trkpt lat="43.0840017" lon="11.5032733"><ele>270.4</ele><time>2026-04-06T14:21:45.827Z</time></trkpt><trkpt lat="43.084" lon="11.5034"><ele>271.59999999999997</ele><time>2026-04-06T14:21:46.825Z</time></trkpt><trkpt lat="43.08399" lon="11.5035233"><ele>272.8</ele><time>2026-04-06T14:21:47.823Z</time></trkpt><trkpt lat="43.0839683" lon="11.5036433"><ele>274.0</ele><time>2026-04-06T14:21:48.827Z</time></trkpt><trkpt lat="43.0839417" lon="11.50376"><ele>274.8333333333333</ele><time>2026-04-06T14:21:49.828Z</time></trkpt><trkpt lat="43.083905" lon="11.5038767"><ele>275.66666666666663</ele><time>2026-04-06T14:21:50.827Z</time></trkpt><trkpt lat="43.08386" lon="11.50399"><ele>276.5</ele><time>2026-04-06T14:21:51.827Z</time></trkpt><trkpt lat="43.0838167" lon="11.504095"><ele>277.3333333333333</ele><time>2026-04-06T14:21:52.824Z</time></trkpt><trkpt lat="43.0837733" lon="11.5041883"><ele>278.1666666666667</ele><time>2026-04-06T14:21:53.825Z</time></trkpt><trkpt lat="43.0837167" lon="11.50426"><ele>279.0</ele><time>2026-04-06T14:21:54.828Z</time></trkpt><trkpt lat="43.0836483" lon="11.5043033"><ele>279.0</ele><time>2026-04-06T14:21:55.829Z</time></trkpt><trkpt lat="43.0835733" lon="11.504325"><ele>279.0</ele><time>2026-04-06T14:21:56.825Z</time></trkpt><trkpt lat="43.0834917" lon="11.5043117"><ele>279.0</ele><time>2026-04-06T14:21:57.826Z</time></trkpt><trkpt lat="43.0834017" lon="11.50428"><ele>279.0</ele><time>2026-04-06T14:21:58.83Z</time></trkpt><trkpt lat="43.0833117" lon="11.5042467"><ele>279.0</ele><time>2026-04-06T14:21:59.826Z</time></trkpt><trkpt lat="43.0832233" lon="11.5042283"><ele>279.0</ele><time>2026-04-06T14:22:00.825Z</time></trkpt><trkpt lat="43.0831367" lon="11.5042317"><ele>280.8</ele><time>2026-04-06T14:22:01.825Z</time></trkpt><trkpt lat="43.083055" lon="11.5042667"><ele>282.59999999999997</ele><time>2026-04-06T14:22:02.828Z</time></trkpt><trkpt lat="43.082975" lon="11.5043133"><ele>284.4</ele><time>2026-04-06T14:22:03.831Z</time></trkpt><trkpt lat="43.0828983" lon="11.504405"><ele>286.2</ele><time>2026-04-06T14:22:04.832Z</time></trkpt><trkpt lat="43.082825" lon="11.5045033"><ele>288.0</ele><time>2026-04-06T14:22:05.826Z</time></trkpt><trkpt lat="43.08276" lon="11.5046183"><ele>289.25</ele><time>2026-04-06T14:22:06.831Z</time></trkpt><trkpt lat="43.0826933" lon="11.5047383"><ele>290.5</ele><time>2026-04-06T14:22:07.828Z</time></trkpt><trkpt lat="43.0826267" lon="11.5048667"><ele>291.75</ele><time>2026-04-06T14:22:08.828Z</time></trkpt><trkpt lat="43.08255" lon="11.5050033"><ele>293.0</ele><time>2026-04-06T14:22:09.827Z</time></trkpt><trkpt lat="43.0824717" lon="11.50514"><ele>293.25</ele><time>2026-04-06T14:22:10.825Z</time></trkpt><trkpt lat="43.0823933" lon="11.505275"><ele>293.5</ele><time>2026-04-06T14:22:11.825Z</time></trkpt><trkpt lat="43.0823133" lon="11.5054133"><ele>293.75</ele><time>2026-04-06T14:22:12.826Z</time></trkpt><trkpt lat="43.0822333" lon="11.5055583"><ele>294.0</ele><time>2026-04-06T14:22:13.828Z</time></trkpt><trkpt lat="43.082155" lon="11.5056967"><ele>295.2</ele><time>2026-04-06T14:22:14.829Z</time></trkpt><trkpt lat="43.08208" lon="11.505825"><ele>296.4</ele><time>2026-04-06T14:22:15.828Z</time></trkpt><trkpt lat="43.082015" lon="11.50594"><ele>297.6</ele><time>2026-04-06T14:22:16.827Z</time></trkpt><trkpt lat="43.08195" lon="11.5060517"><ele>298.8</ele><time>2026-04-06T14:22:17.825Z</time></trkpt><trkpt lat="43.081885" lon="11.50616"><ele>300.0</ele><time>2026-04-06T14:22:18.834Z</time></trkpt><trkpt lat="43.08182" lon="11.5062717"><ele>300.0</ele><time>2026-04-06T14:22:19.827Z</time></trkpt><trkpt lat="43.081755" lon="11.5063817"><ele>300.0</ele><time>2026-04-06T14:22:20.83Z</time></trkpt><trkpt lat="43.081695" lon="11.5064883"><ele>300.0</ele><time>2026-04-06T14:22:21.83Z</time></trkpt><trkpt lat="43.081635" lon="11.506595"><ele>300.0</ele><time>2026-04-06T14:22:22.829Z</time></trkpt><trkpt lat="43.0815733" lon="11.5067"><ele>300.0</ele><time>2026-04-06T14:22:23.835Z</time></trkpt><trkpt lat="43.0815117" lon="11.50681"><ele>299.4</ele><time>2026-04-06T14:22:24.828Z</time></trkpt><trkpt lat="43.0814467" lon="11.5069217"><ele>298.8</ele><time>2026-04-06T14:22:25.827Z</time></trkpt><trkpt lat="43.081385" lon="11.5070283"><ele>298.2</ele><time>2026-04-06T14:22:26.826Z</time></trkpt><trkpt lat="43.0813217" lon="11.5071367"><ele>297.6</ele><time>2026-04-06T14:22:27.824Z</time></trkpt><trkpt lat="43.0812583" lon="11.5072433"><ele>297.0</ele><time>2026-04-06T14:22:28.834Z</time></trkpt><trkpt lat="43.081195" lon="11.507345"><ele>299.0</ele><time>2026-04-06T14:22:29.826Z</time></trkpt><trkpt lat="43.0811317" lon="11.5074467"><ele>301.0</ele><time>2026-04-06T14:22:30.838Z</time></trkpt><trkpt lat="43.0810733" lon="11.507545"><ele>303.0</ele><time>2026-04-06T14:22:31.83Z</time></trkpt><trkpt lat="43.081015" lon="11.5076467"><ele>305.0</ele><time>2026-04-06T14:22:32.823Z</time></trkpt><trkpt lat="43.0809567" lon="11.507745"><ele>307.0</ele><time>2026-04-06T14:22:33.827Z</time></trkpt><trkpt lat="43.0809" lon="11.5078433"><ele>307.0</ele><time>2026-04-06T14:22:34.825Z</time></trkpt><trkpt lat="43.0808433" lon="11.5079383"><ele>307.0</ele><time>2026-04-06T14:22:35.83Z</time></trkpt><trkpt lat="43.0807867" lon="11.5080333"><ele>307.0</ele><time>2026-04-06T14:22:36.827Z</time></trkpt><trkpt lat="43.0807283" lon="11.5081333"><ele>307.0</ele><time>2026-04-06T14:22:37.828Z</time></trkpt><trkpt lat="43.080675" lon="11.5082317"><ele>307.0</ele><time>2026-04-06T14:22:38.83Z</time></trkpt><trkpt lat="43.0806183" lon="11.5083317"><ele>307.0</ele><time>2026-04-06T14:22:39.826Z</time></trkpt><trkpt lat="43.080565" lon="11.5084317"><ele>307.0</ele><time>2026-04-06T14:22:40.828Z</time></trkpt><trkpt lat="43.08051" lon="11.5085317"><ele>307.0</ele><time>2026-04-06T14:22:41.826Z</time></trkpt><trkpt lat="43.0804567" lon="11.5086267"><ele>307.0</ele><time>2026-04-06T14:22:42.828Z</time></trkpt><trkpt lat="43.0804067" lon="11.5087233"><ele>307.0</ele><time>2026-04-06T14:22:43.826Z</time></trkpt><trkpt lat="43.080355" lon="11.5088217"><ele>307.0</ele><time>2026-04-06T14:22:44.831Z</time></trkpt><trkpt lat="43.0803083" lon="11.5089233"><ele>306.66666666666663</ele><time>2026-04-06T14:22:45.825Z</time></trkpt><trkpt lat="43.080265" lon="11.5090183"><ele>306.3333333333333</ele><time>2026-04-06T14:22:46.824Z</time></trkpt><trkpt lat="43.0802233" lon="11.5091167"><ele>306.0</ele><time>2026-04-06T14:22:47.826Z</time></trkpt><trkpt lat="43.0801817" lon="11.50921"><ele>305.6666666666667</ele><time>2026-04-06T14:22:48.825Z</time></trkpt><trkpt lat="43.08014" lon="11.5093033"><ele>305.33333333333337</ele><time>2026-04-06T14:22:49.825Z</time></trkpt><trkpt lat="43.0800967" lon="11.5093967"><ele>305.0</ele><time>2026-04-06T14:22:50.824Z</time></trkpt><trkpt lat="43.0800567" lon="11.509485"><ele>305.0</ele><time>2026-04-06T14:22:51.825Z</time></trkpt><trkpt lat="43.0800183" lon="11.5095733"><ele>305.0</ele><time>2026-04-06T14:22:52.825Z</time></trkpt><trkpt lat="43.0799817" lon="11.5096617"><ele>305.0</ele><time>2026-04-06T14:22:53.827Z</time></trkpt><trkpt lat="43.07995" lon="11.5097483"><ele>305.0</ele><time>2026-04-06T14:22:54.826Z</time></trkpt><trkpt lat="43.0799233" lon="11.5098417"><ele>305.0</ele><time>2026-04-06T14:22:55.826Z</time></trkpt><trkpt lat="43.0799" lon="11.5099367"><ele>305.0</ele><time>2026-04-06T14:22:56.824Z</time></trkpt><trkpt lat="43.0798817" lon="11.5100267"><ele>305.0</ele><time>2026-04-06T14:22:57.829Z</time></trkpt><trkpt lat="43.079865" lon="11.5101567"><ele>303.83333333333337</ele><time>2026-04-06T14:22:59.824Z</time></trkpt><trkpt lat="43.079865" lon="11.5102633"><ele>302.6666666666667</ele><time>2026-04-06T14:23:01.825Z</time></trkpt><trkpt lat="43.0798678" lon="11.5103747"><ele>301.5</ele><time>2026-04-06T14:23:03.832Z</time></trkpt><trkpt lat="43.0798843" lon="11.5105079"><ele>300.3333333333333</ele><time>2026-04-06T14:23:05.828Z</time></trkpt><trkpt lat="43.0798975" lon="11.5106668"><ele>299.16666666666663</ele><time>2026-04-06T14:23:07.826Z</time></trkpt><trkpt lat="43.079904" lon="11.5107663"><ele>298.0</ele><time>2026-04-06T14:23:08.83Z</time></trkpt><trkpt lat="43.079912" lon="11.5108771"><ele>297.8333333333333</ele><time>2026-04-06T14:23:09.826Z</time></trkpt><trkpt lat="43.0799192" lon="11.5110004"><ele>297.66666666666663</ele><time>2026-04-06T14:23:10.823Z</time></trkpt><trkpt lat="43.079931" lon="11.5111246"><ele>297.5</ele><time>2026-04-06T14:23:11.824Z</time></trkpt><trkpt lat="43.0799508" lon="11.5112422"><ele>297.3333333333333</ele><time>2026-04-06T14:23:12.826Z</time></trkpt><trkpt lat="43.0799707" lon="11.5113575"><ele>297.1666666666667</ele><time>2026-04-06T14:23:13.83Z</time></trkpt><trkpt lat="43.0799941" lon="11.5114576"><ele>297.0</ele><time>2026-04-06T14:23:14.827Z</time></trkpt><trkpt lat="43.0800269" lon="11.5115563"><ele>299.1666666666667</ele><time>2026-04-06T14:23:15.827Z</time></trkpt><trkpt lat="43.0800718" lon="11.5116613"><ele>301.3333333333333</ele><time>2026-04-06T14:23:16.826Z</time></trkpt><trkpt lat="43.0801284" lon="11.5117555"><ele>303.5</ele><time>2026-04-06T14:23:17.83Z</time></trkpt><trkpt lat="43.0801859" lon="11.5118425"><ele>305.66666666666663</ele><time>2026-04-06T14:23:18.831Z</time></trkpt><trkpt lat="43.0802396" lon="11.51193"><ele>307.8333333333333</ele><time>2026-04-06T14:23:19.826Z</time></trkpt><trkpt lat="43.0802911" lon="11.5120134"><ele>310.0</ele><time>2026-04-06T14:23:20.827Z</time></trkpt><trkpt lat="43.0803401" lon="11.512099"><ele>310.3333333333333</ele><time>2026-04-06T14:23:21.832Z</time></trkpt><trkpt lat="43.0803886" lon="11.5121915"><ele>310.66666666666663</ele><time>2026-04-06T14:23:22.836Z</time></trkpt><trkpt lat="43.0804382" lon="11.5122853"><ele>311.0</ele><time>2026-04-06T14:23:23.829Z</time></trkpt><trkpt lat="43.0804887" lon="11.5123802"><ele>311.3333333333333</ele><time>2026-04-06T14:23:24.827Z</time></trkpt><trkpt lat="43.0805376" lon="11.5124753"><ele>311.6666666666667</ele><time>2026-04-06T14:23:25.826Z</time></trkpt><trkpt lat="43.0805885" lon="11.5125705"><ele>312.0</ele><time>2026-04-06T14:23:26.83Z</time></trkpt><trkpt lat="43.0806386" lon="11.5126675"><ele>312.0</ele><time>2026-04-06T14:23:27.825Z</time></trkpt><trkpt lat="43.0806859" lon="11.5127644"><ele>312.0</ele><time>2026-04-06T14:23:28.827Z</time></trkpt><trkpt lat="43.0807285" lon="11.5128551"><ele>312.0</ele><time>2026-04-06T14:23:29.824Z</time></trkpt><trkpt lat="43.0807738" lon="11.5129382"><ele>312.0</ele><time>2026-04-06T14:23:30.826Z</time></trkpt><trkpt lat="43.0808235" lon="11.5130121"><ele>312.0</ele><time>2026-04-06T14:23:31.824Z</time></trkpt><trkpt lat="43.0808795" lon="11.5130772"><ele>312.0</ele><time>2026-04-06T14:23:32.83Z</time></trkpt><trkpt lat="43.0809443" lon="11.5131299"><ele>314.0</ele><time>2026-04-06T14:23:33.822Z</time></trkpt><trkpt lat="43.081015" lon="11.5131721"><ele>316.0</ele><time>2026-04-06T14:23:34.824Z</time></trkpt><trkpt lat="43.0810912" lon="11.5131948"><ele>318.0</ele><time>2026-04-06T14:23:35.824Z</time></trkpt><trkpt lat="43.0811711" lon="11.5132006"><ele>320.0</ele><time>2026-04-06T14:23:36.825Z</time></trkpt><trkpt lat="43.0812544" lon="11.5131964"><ele>322.0</ele><time>2026-04-06T14:23:37.827Z</time></trkpt><trkpt lat="43.0813358" lon="11.5131869"><ele>324.0</ele><time>2026-04-06T14:23:38.83Z</time></trkpt><trkpt lat="43.0814106" lon="11.5131804"><ele>324.0</ele><time>2026-04-06T14:23:39.824Z</time></trkpt><trkpt lat="43.0814739" lon="11.5131856"><ele>324.0</ele><time>2026-04-06T14:23:40.826Z</time></trkpt><trkpt lat="43.0815758" lon="11.5132207"><ele>324.0</ele><time>2026-04-06T14:23:42.83Z</time></trkpt><trkpt lat="43.0816784" lon="11.5133001"><ele>324.0</ele><time>2026-04-06T14:23:44.828Z</time></trkpt><trkpt lat="43.081734" lon="11.5133602"><ele>324.0</ele><time>2026-04-06T14:23:45.827Z</time></trkpt><trkpt lat="43.0817879" lon="11.5134253"><ele>324.0</ele><time>2026-04-06T14:23:46.827Z</time></trkpt><trkpt lat="43.0818359" lon="11.513496"><ele>324.42857142857144</ele><time>2026-04-06T14:23:47.826Z</time></trkpt><trkpt lat="43.0818831" lon="11.5135652"><ele>324.85714285714283</ele><time>2026-04-06T14:23:48.824Z</time></trkpt><trkpt lat="43.0819294" lon="11.5136306"><ele>325.2857142857143</ele><time>2026-04-06T14:23:49.83Z</time></trkpt><trkpt lat="43.0819793" lon="11.5136957"><ele>325.7142857142857</ele><time>2026-04-06T14:23:50.826Z</time></trkpt><trkpt lat="43.0820269" lon="11.5137652"><ele>326.14285714285717</ele><time>2026-04-06T14:23:51.829Z</time></trkpt><trkpt lat="43.0820721" lon="11.5138379"><ele>326.57142857142856</ele><time>2026-04-06T14:23:52.823Z</time></trkpt><trkpt lat="43.0821169" lon="11.5139091"><ele>327.0</ele><time>2026-04-06T14:23:53.825Z</time></trkpt><trkpt lat="43.0821615" lon="11.5139792"><ele>327.1666666666667</ele><time>2026-04-06T14:23:54.825Z</time></trkpt><trkpt lat="43.0822056" lon="11.5140471"><ele>327.3333333333333</ele><time>2026-04-06T14:23:55.824Z</time></trkpt><trkpt lat="43.0822518" lon="11.5141138"><ele>327.5</ele><time>2026-04-06T14:23:56.828Z</time></trkpt><trkpt lat="43.0823038" lon="11.5141797"><ele>327.66666666666663</ele><time>2026-04-06T14:23:57.826Z</time></trkpt><trkpt lat="43.0823633" lon="11.5142466"><ele>327.8333333333333</ele><time>2026-04-06T14:23:58.824Z</time></trkpt><trkpt lat="43.0824294" lon="11.5143159"><ele>328.0</ele><time>2026-04-06T14:23:59.824Z</time></trkpt><trkpt lat="43.0825082" lon="11.5143897"><ele>327.79999999999995</ele><time>2026-04-06T14:24:00.824Z</time></trkpt><trkpt lat="43.0825905" lon="11.5144661"><ele>327.6</ele><time>2026-04-06T14:24:01.824Z</time></trkpt><trkpt lat="43.0826763" lon="11.5145435"><ele>327.4</ele><time>2026-04-06T14:24:02.84Z</time></trkpt><trkpt lat="43.0827611" lon="11.5146233"><ele>327.20000000000005</ele><time>2026-04-06T14:24:03.822Z</time></trkpt><trkpt lat="43.0828452" lon="11.5146981"><ele>327.0</ele><time>2026-04-06T14:24:04.822Z</time></trkpt><trkpt lat="43.0829287" lon="11.5147665"><ele>327.0</ele><time>2026-04-06T14:24:05.825Z</time></trkpt><trkpt lat="43.0830088" lon="11.5148298"><ele>327.0</ele><time>2026-04-06T14:24:06.829Z</time></trkpt><trkpt lat="43.0830915" lon="11.5148848"><ele>327.0</ele><time>2026-04-06T14:24:07.827Z</time></trkpt><trkpt lat="43.0831738" lon="11.5149294"><ele>327.0</ele><time>2026-04-06T14:24:08.823Z</time></trkpt><trkpt lat="43.0832544" lon="11.5149681"><ele>327.0</ele><time>2026-04-06T14:24:09.831Z</time></trkpt><trkpt lat="43.0833297" lon="11.5149989"><ele>327.0</ele><time>2026-04-06T14:24:10.83Z</time></trkpt><trkpt lat="43.0834015" lon="11.5150254"><ele>326.57142857142856</ele><time>2026-04-06T14:24:11.829Z</time></trkpt><trkpt lat="43.0834688" lon="11.515046"><ele>326.14285714285717</ele><time>2026-04-06T14:24:12.828Z</time></trkpt><trkpt lat="43.083539" lon="11.5150627"><ele>325.7142857142857</ele><time>2026-04-06T14:24:13.825Z</time></trkpt><trkpt lat="43.0836106" lon="11.5150774"><ele>325.2857142857143</ele><time>2026-04-06T14:24:14.827Z</time></trkpt><trkpt lat="43.0836836" lon="11.5150884"><ele>324.85714285714283</ele><time>2026-04-06T14:24:15.825Z</time></trkpt><trkpt lat="43.0837584" lon="11.515091"><ele>324.42857142857144</ele><time>2026-04-06T14:24:16.829Z</time></trkpt><trkpt lat="43.0838332" lon="11.5150883"><ele>324.0</ele><time>2026-04-06T14:24:17.826Z</time></trkpt><trkpt lat="43.0839054" lon="11.5150664"><ele>324.0</ele><time>2026-04-06T14:24:18.826Z</time></trkpt><trkpt lat="43.0839744" lon="11.5150345"><ele>324.0</ele><time>2026-04-06T14:24:19.824Z</time></trkpt><trkpt lat="43.0840403" lon="11.514996"><ele>324.0</ele><time>2026-04-06T14:24:20.828Z</time></trkpt><trkpt lat="43.0841033" lon="11.5149595"><ele>324.0</ele><time>2026-04-06T14:24:21.825Z</time></trkpt><trkpt lat="43.0841677" lon="11.5149233"><ele>324.0</ele><time>2026-04-06T14:24:22.825Z</time></trkpt><trkpt lat="43.0842367" lon="11.5148891"><ele>324.0</ele><time>2026-04-06T14:24:23.828Z</time></trkpt><trkpt lat="43.0843135" lon="11.5148628"><ele>324.0</ele><time>2026-04-06T14:24:24.827Z</time></trkpt><trkpt lat="43.0843962" lon="11.5148465"><ele>323.5</ele><time>2026-04-06T14:24:25.831Z</time></trkpt><trkpt lat="43.0844808" lon="11.5148426"><ele>323.0</ele><time>2026-04-06T14:24:26.824Z</time></trkpt><trkpt lat="43.0845624" lon="11.5148379"><ele>322.5</ele><time>2026-04-06T14:24:27.824Z</time></trkpt><trkpt lat="43.0846348" lon="11.514841"><ele>322.0</ele><time>2026-04-06T14:24:28.824Z</time></trkpt><trkpt lat="43.0846977" lon="11.5148492"><ele>321.5</ele><time>2026-04-06T14:24:29.822Z</time></trkpt><trkpt lat="43.0848097" lon="11.514854"><ele>321.0</ele><time>2026-04-06T14:24:31.825Z</time></trkpt><trkpt lat="43.0849235" lon="11.5148556"><ele>320.3333333333333</ele><time>2026-04-06T14:24:33.824Z</time></trkpt><trkpt lat="43.085031" lon="11.5148564"><ele>319.6666666666667</ele><time>2026-04-06T14:24:35.836Z</time></trkpt><trkpt lat="43.0851099" lon="11.5148504"><ele>319.0</ele><time>2026-04-06T14:24:37.824Z</time></trkpt><trkpt lat="43.0851852" lon="11.5148529"><ele>318.33333333333337</ele><time>2026-04-06T14:24:39.827Z</time></trkpt><trkpt lat="43.0852704" lon="11.5148642"><ele>317.6666666666667</ele><time>2026-04-06T14:24:41.825Z</time></trkpt><trkpt lat="43.0853652" lon="11.5148984"><ele>317.0</ele><time>2026-04-06T14:24:43.823Z</time></trkpt><trkpt lat="43.0854452" lon="11.5149403"><ele>317.0</ele><time>2026-04-06T14:24:45.827Z</time></trkpt><trkpt lat="43.085527" lon="11.5149987"><ele>317.0</ele><time>2026-04-06T14:24:47.823Z</time></trkpt><trkpt lat="43.0855988" lon="11.515084"><ele>317.0</ele><time>2026-04-06T14:24:49.832Z</time></trkpt><trkpt lat="43.0856641" lon="11.5151923"><ele>317.0</ele><time>2026-04-06T14:24:51.826Z</time></trkpt><trkpt lat="43.0857309" lon="11.5152962"><ele>317.0</ele><time>2026-04-06T14:24:53.833Z</time></trkpt><trkpt lat="43.0857976" lon="11.5153992"><ele>316.0</ele><time>2026-04-06T14:24:55.827Z</time></trkpt><trkpt lat="43.0858741" lon="11.5154924"><ele>315.0</ele><time>2026-04-06T14:24:57.827Z</time></trkpt><trkpt lat="43.0859729" lon="11.5155722"><ele>314.0</ele><time>2026-04-06T14:24:59.826Z</time></trkpt><trkpt lat="43.0860781" lon="11.5156537"><ele>313.0</ele><time>2026-04-06T14:25:01.824Z</time></trkpt><trkpt lat="43.0861689" lon="11.5157421"><ele>312.0</ele><time>2026-04-06T14:25:03.826Z</time></trkpt><trkpt lat="43.086237" lon="11.5158153"><ele>312.0</ele><time>2026-04-06T14:25:05.825Z</time></trkpt><trkpt lat="43.086291" lon="11.5158818"><ele>312.0</ele><time>2026-04-06T14:25:07.825Z</time></trkpt><trkpt lat="43.0863397" lon="11.5159687"><ele>312.0</ele><time>2026-04-06T14:25:09.828Z</time></trkpt><trkpt lat="43.0863933" lon="11.5160717"><ele>312.0</ele><time>2026-04-06T14:25:11.824Z</time></trkpt><trkpt lat="43.0864483" lon="11.51619"><ele>312.0</ele><time>2026-04-06T14:25:13.827Z</time></trkpt><trkpt lat="43.0864917" lon="11.5163183"><ele>310.4</ele><time>2026-04-06T14:25:15.829Z</time></trkpt><trkpt lat="43.0865267" lon="11.516445"><ele>308.79999999999995</ele><time>2026-04-06T14:25:17.823Z</time></trkpt><trkpt lat="43.0865433" lon="11.5165783"><ele>307.2</ele><time>2026-04-06T14:25:19.828Z</time></trkpt><trkpt lat="43.08655" lon="11.5167183"><ele>305.59999999999997</ele><time>2026-04-06T14:25:21.826Z</time></trkpt><trkpt lat="43.0865467" lon="11.5168567"><ele>304.0</ele><time>2026-04-06T14:25:23.828Z</time></trkpt><trkpt lat="43.0865317" lon="11.5170183"><ele>303.16666666666663</ele><time>2026-04-06T14:25:25.824Z</time></trkpt><trkpt lat="43.0865217" lon="11.51711"><ele>302.3333333333333</ele><time>2026-04-06T14:25:26.824Z</time></trkpt><trkpt lat="43.0865117" lon="11.517215"><ele>301.5</ele><time>2026-04-06T14:25:27.826Z</time></trkpt><trkpt lat="43.0865017" lon="11.517325"><ele>300.6666666666667</ele><time>2026-04-06T14:25:28.823Z</time></trkpt><trkpt lat="43.08649" lon="11.5174517"><ele>299.83333333333337</ele><time>2026-04-06T14:25:29.826Z</time></trkpt><trkpt lat="43.0864883" lon="11.51758"><ele>299.0</ele><time>2026-04-06T14:25:30.826Z</time></trkpt><trkpt lat="43.08648" lon="11.5177083"><ele>299.0</ele><time>2026-04-06T14:25:31.824Z</time></trkpt><trkpt lat="43.0864733" lon="11.517845"><ele>299.0</ele><time>2026-04-06T14:25:32.825Z</time></trkpt><trkpt lat="43.086465" lon="11.51799"><ele>299.0</ele><time>2026-04-06T14:25:33.831Z</time></trkpt><trkpt lat="43.0864533" lon="11.5181433"><ele>299.0</ele><time>2026-04-06T14:25:34.827Z</time></trkpt><trkpt lat="43.0864367" lon="11.518305"><ele>299.0</ele><time>2026-04-06T14:25:35.826Z</time></trkpt><trkpt lat="43.08642" lon="11.5184717"><ele>298.25</ele><time>2026-04-06T14:25:36.825Z</time></trkpt><trkpt lat="43.0864033" lon="11.5186367"><ele>297.5</ele><time>2026-04-06T14:25:37.825Z</time></trkpt><trkpt lat="43.0863883" lon="11.5187933"><ele>296.75</ele><time>2026-04-06T14:25:38.829Z</time></trkpt><trkpt lat="43.0863717" lon="11.51894"><ele>296.0</ele><time>2026-04-06T14:25:39.825Z</time></trkpt><trkpt lat="43.0863533" lon="11.5190833"><ele>296.0</ele><time>2026-04-06T14:25:40.825Z</time></trkpt><trkpt lat="43.0863317" lon="11.5192233"><ele>296.0</ele><time>2026-04-06T14:25:41.823Z</time></trkpt><trkpt lat="43.08631" lon="11.5193683"><ele>296.0</ele><time>2026-04-06T14:25:42.836Z</time></trkpt><trkpt lat="43.086285" lon="11.519515"><ele>296.0</ele><time>2026-04-06T14:25:43.823Z</time></trkpt><trkpt lat="43.0862683" lon="11.519665"><ele>296.0</ele><time>2026-04-06T14:25:44.824Z</time></trkpt><trkpt lat="43.08625" lon="11.519815"><ele>296.0</ele><time>2026-04-06T14:25:45.828Z</time></trkpt><trkpt lat="43.0862317" lon="11.5199617"><ele>296.0</ele><time>2026-04-06T14:25:46.83Z</time></trkpt><trkpt lat="43.0862133" lon="11.520105"><ele>296.0</ele><time>2026-04-06T14:25:47.824Z</time></trkpt><trkpt lat="43.08619" lon="11.5202433"><ele>296.0</ele><time>2026-04-06T14:25:48.828Z</time></trkpt><trkpt lat="43.0861617" lon="11.5203717"><ele>296.0</ele><time>2026-04-06T14:25:49.823Z</time></trkpt><trkpt lat="43.0861283" lon="11.5204917"><ele>296.5</ele><time>2026-04-06T14:25:50.83Z</time></trkpt><trkpt lat="43.0860883" lon="11.5206067"><ele>297.0</ele><time>2026-04-06T14:25:51.824Z</time></trkpt><trkpt lat="43.0860467" lon="11.520715"><ele>297.5</ele><time>2026-04-06T14:25:52.826Z</time></trkpt><trkpt lat="43.0859983" lon="11.5208183"><ele>298.0</ele><time>2026-04-06T14:25:53.829Z</time></trkpt><trkpt lat="43.08595" lon="11.52092"><ele>298.5</ele><time>2026-04-06T14:25:54.829Z</time></trkpt><trkpt lat="43.0858933" lon="11.52101"><ele>299.0</ele><time>2026-04-06T14:25:55.824Z</time></trkpt><trkpt lat="43.08583" lon="11.52109"><ele>298.8</ele><time>2026-04-06T14:25:56.824Z</time></trkpt><trkpt lat="43.08576" lon="11.521165"><ele>298.59999999999997</ele><time>2026-04-06T14:25:57.826Z</time></trkpt><trkpt lat="43.0856883" lon="11.5212417"><ele>298.4</ele><time>2026-04-06T14:25:58.826Z</time></trkpt><trkpt lat="43.0856083" lon="11.521315"><ele>298.2</ele><time>2026-04-06T14:25:59.827Z</time></trkpt><trkpt lat="43.0855167" lon="11.5213833"><ele>298.0</ele><time>2026-04-06T14:26:00.823Z</time></trkpt><trkpt lat="43.0854233" lon="11.52145"><ele>298.0</ele><time>2026-04-06T14:26:01.827Z</time></trkpt><trkpt lat="43.085325" lon="11.5215033"><ele>298.0</ele><time>2026-04-06T14:26:02.824Z</time></trkpt><trkpt lat="43.0852267" lon="11.5215467"><ele>298.0</ele><time>2026-04-06T14:26:03.825Z</time></trkpt><trkpt lat="43.0851267" lon="11.52159"><ele>298.0</ele><time>2026-04-06T14:26:04.824Z</time></trkpt><trkpt lat="43.085025" lon="11.5216283"><ele>298.0</ele><time>2026-04-06T14:26:05.827Z</time></trkpt><trkpt lat="43.0849217" lon="11.5216683"><ele>297.4</ele><time>2026-04-06T14:26:06.825Z</time></trkpt><trkpt lat="43.0848167" lon="11.5217133"><ele>296.8</ele><time>2026-04-06T14:26:07.825Z</time></trkpt><trkpt lat="43.0847117" lon="11.5217633"><ele>296.2</ele><time>2026-04-06T14:26:08.825Z</time></trkpt><trkpt lat="43.084605" lon="11.5218133"><ele>295.6</ele><time>2026-04-06T14:26:09.826Z</time></trkpt><trkpt lat="43.0845033" lon="11.5218617"><ele>295.0</ele><time>2026-04-06T14:26:10.824Z</time></trkpt><trkpt lat="43.0844067" lon="11.5219033"><ele>295.0</ele><time>2026-04-06T14:26:11.829Z</time></trkpt><trkpt lat="43.0843117" lon="11.5219517"><ele>295.0</ele><time>2026-04-06T14:26:12.827Z</time></trkpt><trkpt lat="43.08422" lon="11.522"><ele>295.0</ele><time>2026-04-06T14:26:13.826Z</time></trkpt><trkpt lat="43.0841333" lon="11.5220567"><ele>295.0</ele><time>2026-04-06T14:26:14.825Z</time></trkpt><trkpt lat="43.084045" lon="11.522105"><ele>295.0</ele><time>2026-04-06T14:26:15.829Z</time></trkpt><trkpt lat="43.08396" lon="11.5221517"><ele>295.8</ele><time>2026-04-06T14:26:16.825Z</time></trkpt><trkpt lat="43.0838767" lon="11.5222"><ele>296.6</ele><time>2026-04-06T14:26:17.828Z</time></trkpt><trkpt lat="43.0837933" lon="11.5222467"><ele>297.4</ele><time>2026-04-06T14:26:18.827Z</time></trkpt><trkpt lat="43.0837117" lon="11.5223067"><ele>298.2</ele><time>2026-04-06T14:26:19.825Z</time></trkpt><trkpt lat="43.083635" lon="11.5223767"><ele>299.0</ele><time>2026-04-06T14:26:20.83Z</time></trkpt><trkpt lat="43.0835683" lon="11.5224617"><ele>299.0</ele><time>2026-04-06T14:26:21.832Z</time></trkpt><trkpt lat="43.0835133" lon="11.522565"><ele>299.0</ele><time>2026-04-06T14:26:22.827Z</time></trkpt><trkpt lat="43.0834617" lon="11.5226667"><ele>299.0</ele><time>2026-04-06T14:26:23.827Z</time></trkpt><trkpt lat="43.0834217" lon="11.5227817"><ele>299.0</ele><time>2026-04-06T14:26:24.824Z</time></trkpt><trkpt lat="43.0833767" lon="11.5229117"><ele>299.0</ele><time>2026-04-06T14:26:25.824Z</time></trkpt><trkpt lat="43.0833383" lon="11.523045"><ele>299.0</ele><time>2026-04-06T14:26:26.827Z</time></trkpt><trkpt lat="43.0833017" lon="11.523175"><ele>299.0</ele><time>2026-04-06T14:26:27.829Z</time></trkpt><trkpt lat="43.0832783" lon="11.5233"><ele>299.0</ele><time>2026-04-06T14:26:28.825Z</time></trkpt><trkpt lat="43.0832517" lon="11.5234117"><ele>299.0</ele><time>2026-04-06T14:26:29.824Z</time></trkpt><trkpt lat="43.0832333" lon="11.5235167"><ele>299.0</ele><time>2026-04-06T14:26:30.914Z</time></trkpt><trkpt lat="43.0832133" lon="11.52361"><ele>299.0</ele><time>2026-04-06T14:26:31.828Z</time></trkpt><trkpt lat="43.0831933" lon="11.5236967"><ele>298.6666666666667</ele><time>2026-04-06T14:26:32.829Z</time></trkpt><trkpt lat="43.0831717" lon="11.5237833"><ele>298.33333333333337</ele><time>2026-04-06T14:26:33.828Z</time></trkpt><trkpt lat="43.083105" lon="11.5239233"><ele>298.0</ele><time>2026-04-06T14:26:35.826Z</time></trkpt><trkpt lat="43.083065" lon="11.52399"><ele>297.6666666666667</ele><time>2026-04-06T14:26:36.827Z</time></trkpt><trkpt lat="43.08302" lon="11.5240517"><ele>297.3333333333333</ele><time>2026-04-06T14:26:37.828Z</time></trkpt><trkpt lat="43.0829617" lon="11.5241"><ele>297.0</ele><time>2026-04-06T14:26:38.83Z</time></trkpt><trkpt lat="43.08289" lon="11.5241467"><ele>297.0</ele><time>2026-04-06T14:26:39.824Z</time></trkpt><trkpt lat="43.0828183" lon="11.5241917"><ele>297.0</ele><time>2026-04-06T14:26:40.827Z</time></trkpt><trkpt lat="43.0827433" lon="11.5242383"><ele>297.0</ele><time>2026-04-06T14:26:41.823Z</time></trkpt><trkpt lat="43.082665" lon="11.5242833"><ele>297.0</ele><time>2026-04-06T14:26:42.828Z</time></trkpt><trkpt lat="43.082585" lon="11.524335"><ele>297.0</ele><time>2026-04-06T14:26:43.827Z</time></trkpt><trkpt lat="43.0825017" lon="11.5244017"><ele>297.0</ele><time>2026-04-06T14:26:44.824Z</time></trkpt><trkpt lat="43.0824183" lon="11.5244667"><ele>296.0</ele><time>2026-04-06T14:26:45.824Z</time></trkpt><trkpt lat="43.0823383" lon="11.5245367"><ele>295.0</ele><time>2026-04-06T14:26:46.828Z</time></trkpt><trkpt lat="43.0822667" lon="11.5246133"><ele>294.0</ele><time>2026-04-06T14:26:47.827Z</time></trkpt><trkpt lat="43.082195" lon="11.524695"><ele>293.0</ele><time>2026-04-06T14:26:48.828Z</time></trkpt><trkpt lat="43.082125" lon="11.5247783"><ele>292.0</ele><time>2026-04-06T14:26:49.824Z</time></trkpt><trkpt lat="43.08205" lon="11.52487"><ele>292.0</ele><time>2026-04-06T14:26:50.828Z</time></trkpt><trkpt lat="43.081975" lon="11.524975"><ele>292.0</ele><time>2026-04-06T14:26:51.826Z</time></trkpt><trkpt lat="43.081895" lon="11.525075"><ele>292.0</ele><time>2026-04-06T14:26:52.83Z</time></trkpt><trkpt lat="43.0818159" lon="11.5251761"><ele>292.0</ele><time>2026-04-06T14:26:53.825Z</time></trkpt><trkpt lat="43.0817377" lon="11.5252743"><ele>292.0</ele><time>2026-04-06T14:26:54.828Z</time></trkpt><trkpt lat="43.0816652" lon="11.5253654"><ele>291.8333333333333</ele><time>2026-04-06T14:26:55.823Z</time></trkpt><trkpt lat="43.0815994" lon="11.5254496"><ele>291.66666666666663</ele><time>2026-04-06T14:26:56.824Z</time></trkpt><trkpt lat="43.0815399" lon="11.5255261"><ele>291.5</ele><time>2026-04-06T14:26:57.827Z</time></trkpt><trkpt lat="43.0814856" lon="11.5256042"><ele>291.3333333333333</ele><time>2026-04-06T14:26:58.829Z</time></trkpt><trkpt lat="43.0814345" lon="11.525689"><ele>291.1666666666667</ele><time>2026-04-06T14:26:59.827Z</time></trkpt><trkpt lat="43.0813847" lon="11.52578"><ele>291.0</ele><time>2026-04-06T14:27:00.829Z</time></trkpt><trkpt lat="43.0813398" lon="11.5258723"><ele>291.3333333333333</ele><time>2026-04-06T14:27:01.835Z</time></trkpt><trkpt lat="43.0812993" lon="11.5259568"><ele>291.6666666666667</ele><time>2026-04-06T14:27:02.826Z</time></trkpt><trkpt lat="43.0812647" lon="11.5260372"><ele>292.0</ele><time>2026-04-06T14:27:03.826Z</time></trkpt><trkpt lat="43.0812331" lon="11.5261166"><ele>292.33333333333337</ele><time>2026-04-06T14:27:04.824Z</time></trkpt><trkpt lat="43.0812007" lon="11.5261917"><ele>292.6666666666667</ele><time>2026-04-06T14:27:05.826Z</time></trkpt><trkpt lat="43.0811442" lon="11.5263309"><ele>293.0</ele><time>2026-04-06T14:27:07.83Z</time></trkpt><trkpt lat="43.0810919" lon="11.5264696"><ele>293.5</ele><time>2026-04-06T14:27:09.826Z</time></trkpt><trkpt lat="43.0810511" lon="11.5265849"><ele>294.0</ele><time>2026-04-06T14:27:11.828Z</time></trkpt><trkpt lat="43.081018" lon="11.5266791"><ele>294.5</ele><time>2026-04-06T14:27:13.824Z</time></trkpt><trkpt lat="43.0809844" lon="11.5267721"><ele>295.0</ele><time>2026-04-06T14:27:15.824Z</time></trkpt><trkpt lat="43.0809433" lon="11.5268717"><ele>295.5</ele><time>2026-04-06T14:27:17.826Z</time></trkpt><trkpt lat="43.0809033" lon="11.5269717"><ele>296.0</ele><time>2026-04-06T14:27:19.826Z</time></trkpt><trkpt lat="43.08085" lon="11.527105"><ele>296.40000000000003</ele><time>2026-04-06T14:27:21.832Z</time></trkpt><trkpt lat="43.0808034" lon="11.5272457"><ele>296.8</ele><time>2026-04-06T14:27:23.825Z</time></trkpt><trkpt lat="43.0807474" lon="11.5274028"><ele>297.20000000000005</ele><time>2026-04-06T14:27:25.827Z</time></trkpt><trkpt lat="43.0807157" lon="11.5274897"><ele>297.6</ele><time>2026-04-06T14:27:26.828Z</time></trkpt><trkpt lat="43.0806814" lon="11.5275821"><ele>298.0</ele><time>2026-04-06T14:27:27.826Z</time></trkpt><trkpt lat="43.0806486" lon="11.5276741"><ele>299.66666666666663</ele><time>2026-04-06T14:27:28.828Z</time></trkpt><trkpt lat="43.0806151" lon="11.5277622"><ele>301.3333333333333</ele><time>2026-04-06T14:27:29.827Z</time></trkpt><trkpt lat="43.0805792" lon="11.5278501"><ele>303.0</ele><time>2026-04-06T14:27:30.825Z</time></trkpt><trkpt lat="43.0805414" lon="11.5279389"><ele>304.6666666666667</ele><time>2026-04-06T14:27:31.828Z</time></trkpt><trkpt lat="43.0805044" lon="11.5280314"><ele>306.33333333333337</ele><time>2026-04-06T14:27:32.83Z</time></trkpt><trkpt lat="43.0804673" lon="11.5281287"><ele>308.0</ele><time>2026-04-06T14:27:33.823Z</time></trkpt><trkpt lat="43.0804304" lon="11.528235"><ele>308.2</ele><time>2026-04-06T14:27:34.825Z</time></trkpt><trkpt lat="43.0803853" lon="11.5283498"><ele>308.4</ele><time>2026-04-06T14:27:35.832Z</time></trkpt><trkpt lat="43.0803437" lon="11.5284731"><ele>308.59999999999997</ele><time>2026-04-06T14:27:36.828Z</time></trkpt><trkpt lat="43.0803002" lon="11.5285876"><ele>308.8</ele><time>2026-04-06T14:27:37.827Z</time></trkpt><trkpt lat="43.0802597" lon="11.5287007"><ele>309.0</ele><time>2026-04-06T14:27:38.834Z</time></trkpt><trkpt lat="43.0802213" lon="11.5288093"><ele>309.0</ele><time>2026-04-06T14:27:39.825Z</time></trkpt><trkpt lat="43.0801863" lon="11.5289129"><ele>309.0</ele><time>2026-04-06T14:27:40.827Z</time></trkpt><trkpt lat="43.080157" lon="11.5290154"><ele>309.0</ele><time>2026-04-06T14:27:41.828Z</time></trkpt><trkpt lat="43.080126" lon="11.5291141"><ele>309.0</ele><time>2026-04-06T14:27:42.826Z</time></trkpt><trkpt lat="43.0800957" lon="11.5292161"><ele>309.0</ele><time>2026-04-06T14:27:43.826Z</time></trkpt><trkpt lat="43.0800712" lon="11.5293226"><ele>309.0</ele><time>2026-04-06T14:27:44.823Z</time></trkpt><trkpt lat="43.0800468" lon="11.5294228"><ele>309.0</ele><time>2026-04-06T14:27:45.825Z</time></trkpt><trkpt lat="43.0800227" lon="11.5295208"><ele>309.0</ele><time>2026-04-06T14:27:46.827Z</time></trkpt><trkpt lat="43.0800023" lon="11.5296225"><ele>309.0</ele><time>2026-04-06T14:27:47.826Z</time></trkpt><trkpt lat="43.0799877" lon="11.5297254"><ele>309.0</ele><time>2026-04-06T14:27:48.827Z</time></trkpt><trkpt lat="43.0799741" lon="11.5298289"><ele>309.0</ele><time>2026-04-06T14:27:49.826Z</time></trkpt><trkpt lat="43.079969" lon="11.5299366"><ele>309.0</ele><time>2026-04-06T14:27:50.83Z</time></trkpt><trkpt lat="43.0799686" lon="11.5300475"><ele>308.5</ele><time>2026-04-06T14:27:51.826Z</time></trkpt><trkpt lat="43.0799717" lon="11.5301573"><ele>308.0</ele><time>2026-04-06T14:27:52.833Z</time></trkpt><trkpt lat="43.0799777" lon="11.5302674"><ele>307.5</ele><time>2026-04-06T14:27:53.827Z</time></trkpt><trkpt lat="43.0799777" lon="11.530376"><ele>307.0</ele><time>2026-04-06T14:27:54.825Z</time></trkpt><trkpt lat="43.0799779" lon="11.5304836"><ele>306.5</ele><time>2026-04-06T14:27:55.824Z</time></trkpt><trkpt lat="43.079977" lon="11.5305922"><ele>306.0</ele><time>2026-04-06T14:27:56.832Z</time></trkpt><trkpt lat="43.0799734" lon="11.5307029"><ele>305.0</ele><time>2026-04-06T14:27:57.829Z</time></trkpt><trkpt lat="43.0799684" lon="11.5308146"><ele>304.0</ele><time>2026-04-06T14:27:58.829Z</time></trkpt><trkpt lat="43.079963" lon="11.5309249"><ele>303.0</ele><time>2026-04-06T14:27:59.828Z</time></trkpt><trkpt lat="43.0799558" lon="11.5310335"><ele>302.0</ele><time>2026-04-06T14:28:00.827Z</time></trkpt><trkpt lat="43.0799431" lon="11.531142"><ele>301.0</ele><time>2026-04-06T14:28:01.824Z</time></trkpt><trkpt lat="43.0799277" lon="11.5312517"><ele>300.0</ele><time>2026-04-06T14:28:02.826Z</time></trkpt><trkpt lat="43.0799074" lon="11.5313618"><ele>299.5</ele><time>2026-04-06T14:28:03.827Z</time></trkpt><trkpt lat="43.0798824" lon="11.5314689"><ele>299.0</ele><time>2026-04-06T14:28:04.826Z</time></trkpt><trkpt lat="43.0798565" lon="11.531574"><ele>298.5</ele><time>2026-04-06T14:28:05.827Z</time></trkpt><trkpt lat="43.0798213" lon="11.5316823"><ele>298.0</ele><time>2026-04-06T14:28:06.828Z</time></trkpt><trkpt lat="43.0797797" lon="11.5317961"><ele>297.5</ele><time>2026-04-06T14:28:07.824Z</time></trkpt><trkpt lat="43.0797306" lon="11.5319083"><ele>297.0</ele><time>2026-04-06T14:28:08.827Z</time></trkpt><trkpt lat="43.0796871" lon="11.5320139"><ele>298.0</ele><time>2026-04-06T14:28:09.825Z</time></trkpt><trkpt lat="43.0796521" lon="11.5321131"><ele>299.0</ele><time>2026-04-06T14:28:10.827Z</time></trkpt><trkpt lat="43.0796262" lon="11.5322122"><ele>300.0</ele><time>2026-04-06T14:28:11.825Z</time></trkpt><trkpt lat="43.0796074" lon="11.5323047"><ele>301.0</ele><time>2026-04-06T14:28:12.824Z</time></trkpt><trkpt lat="43.0795971" lon="11.532393"><ele>302.0</ele><time>2026-04-06T14:28:13.824Z</time></trkpt><trkpt lat="43.0795978" lon="11.5324834"><ele>303.0</ele><time>2026-04-06T14:28:14.826Z</time></trkpt><trkpt lat="43.0796111" lon="11.5325721"><ele>304.0</ele><time>2026-04-06T14:28:15.827Z</time></trkpt><trkpt lat="43.0796313" lon="11.5326642"><ele>304.0</ele><time>2026-04-06T14:28:16.824Z</time></trkpt><trkpt lat="43.0796559" lon="11.5327681"><ele>304.0</ele><time>2026-04-06T14:28:17.823Z</time></trkpt><trkpt lat="43.0796913" lon="11.5328852"><ele>304.0</ele><time>2026-04-06T14:28:18.83Z</time></trkpt><trkpt lat="43.0797296" lon="11.5329989"><ele>304.0</ele><time>2026-04-06T14:28:19.827Z</time></trkpt><trkpt lat="43.07976" lon="11.5331079"><ele>304.0</ele><time>2026-04-06T14:28:20.827Z</time></trkpt><trkpt lat="43.079781" lon="11.5332166"><ele>304.0</ele><time>2026-04-06T14:28:21.828Z</time></trkpt><trkpt lat="43.0797893" lon="11.5333206"><ele>305.3333333333333</ele><time>2026-04-06T14:28:22.827Z</time></trkpt><trkpt lat="43.0797792" lon="11.5334212"><ele>306.66666666666663</ele><time>2026-04-06T14:28:23.83Z</time></trkpt><trkpt lat="43.0797588" lon="11.5335194"><ele>308.0</ele><time>2026-04-06T14:28:24.828Z</time></trkpt><trkpt lat="43.079734" lon="11.533619"><ele>309.3333333333333</ele><time>2026-04-06T14:28:25.828Z</time></trkpt><trkpt lat="43.0797178" lon="11.533722"><ele>310.6666666666667</ele><time>2026-04-06T14:28:26.83Z</time></trkpt><trkpt lat="43.0797167" lon="11.5338251"><ele>312.0</ele><time>2026-04-06T14:28:27.829Z</time></trkpt><trkpt lat="43.0797186" lon="11.5339298"><ele>312.8333333333333</ele><time>2026-04-06T14:28:28.83Z</time></trkpt><trkpt lat="43.079727" lon="11.5340405"><ele>313.6666666666667</ele><time>2026-04-06T14:28:29.828Z</time></trkpt><trkpt lat="43.0797461" lon="11.5341547"><ele>314.5</ele><time>2026-04-06T14:28:30.832Z</time></trkpt><trkpt lat="43.0797703" lon="11.5342652"><ele>315.33333333333337</ele><time>2026-04-06T14:28:31.826Z</time></trkpt><trkpt lat="43.0797924" lon="11.5343726"><ele>316.1666666666667</ele><time>2026-04-06T14:28:32.825Z</time></trkpt><trkpt lat="43.0798154" lon="11.5344777"><ele>317.0</ele><time>2026-04-06T14:28:33.826Z</time></trkpt><trkpt lat="43.0798394" lon="11.5345797"><ele>317.33333333333337</ele><time>2026-04-06T14:28:34.826Z</time></trkpt><trkpt lat="43.0798675" lon="11.5346806"><ele>317.6666666666667</ele><time>2026-04-06T14:28:35.827Z</time></trkpt><trkpt lat="43.0798949" lon="11.5347773"><ele>318.0</ele><time>2026-04-06T14:28:36.825Z</time></trkpt><trkpt lat="43.0799266" lon="11.534864"><ele>318.3333333333333</ele><time>2026-04-06T14:28:37.824Z</time></trkpt><trkpt lat="43.0799582" lon="11.534939"><ele>318.66666666666663</ele><time>2026-04-06T14:28:38.825Z</time></trkpt><trkpt lat="43.0800423" lon="11.5350586"><ele>319.0</ele><time>2026-04-06T14:28:40.825Z</time></trkpt><trkpt lat="43.0801246" lon="11.5351823"><ele>317.0</ele><time>2026-04-06T14:28:42.828Z</time></trkpt><trkpt lat="43.08019" lon="11.5353064"><ele>315.0</ele><time>2026-04-06T14:28:44.827Z</time></trkpt><trkpt lat="43.0802196" lon="11.5354467"><ele>313.0</ele><time>2026-04-06T14:28:46.824Z</time></trkpt><trkpt lat="43.0802218" lon="11.5356021"><ele>311.0</ele><time>2026-04-06T14:28:48.827Z</time></trkpt><trkpt lat="43.0802078" lon="11.5357629"><ele>310.2</ele><time>2026-04-06T14:28:50.824Z</time></trkpt><trkpt lat="43.0801913" lon="11.5359326"><ele>309.40000000000003</ele><time>2026-04-06T14:28:52.829Z</time></trkpt><trkpt lat="43.0801894" lon="11.5360191"><ele>308.6</ele><time>2026-04-06T14:28:53.828Z</time></trkpt><trkpt lat="43.0801895" lon="11.5361063"><ele>307.8</ele><time>2026-04-06T14:28:54.826Z</time></trkpt><trkpt lat="43.080206" lon="11.5362736"><ele>307.0</ele><time>2026-04-06T14:28:56.826Z</time></trkpt><trkpt lat="43.0802334" lon="11.5364405"><ele>305.2</ele><time>2026-04-06T14:28:58.828Z</time></trkpt><trkpt lat="43.080245" lon="11.5365255"><ele>303.4</ele><time>2026-04-06T14:28:59.827Z</time></trkpt><trkpt lat="43.0802611" lon="11.5366925"><ele>301.6</ele><time>2026-04-06T14:29:01.828Z</time></trkpt><trkpt lat="43.0802389" lon="11.5368533"><ele>299.8</ele><time>2026-04-06T14:29:03.826Z</time></trkpt><trkpt lat="43.0802155" lon="11.5370133"><ele>298.0</ele><time>2026-04-06T14:29:05.826Z</time></trkpt><trkpt lat="43.0802514" lon="11.5371687"><ele>297.0</ele><time>2026-04-06T14:29:07.831Z</time></trkpt><trkpt lat="43.0802856" lon="11.537244"><ele>296.0</ele><time>2026-04-06T14:29:08.828Z</time></trkpt><trkpt lat="43.080334" lon="11.5373183"><ele>295.0</ele><time>2026-04-06T14:29:09.826Z</time></trkpt><trkpt lat="43.0803922" lon="11.5373835"><ele>294.0</ele><time>2026-04-06T14:29:10.824Z</time></trkpt><trkpt lat="43.0804557" lon="11.5374346"><ele>293.0</ele><time>2026-04-06T14:29:11.823Z</time></trkpt><trkpt lat="43.0805173" lon="11.5374818"><ele>292.0</ele><time>2026-04-06T14:29:12.835Z</time></trkpt><trkpt lat="43.0805673" lon="11.5375375"><ele>291.0</ele><time>2026-04-06T14:29:13.828Z</time></trkpt><trkpt lat="43.0806097" lon="11.5376023"><ele>291.0</ele><time>2026-04-06T14:29:14.829Z</time></trkpt><trkpt lat="43.0806441" lon="11.5376752"><ele>291.0</ele><time>2026-04-06T14:29:15.825Z</time></trkpt><trkpt lat="43.080675" lon="11.5377572"><ele>291.0</ele><time>2026-04-06T14:29:16.824Z</time></trkpt><trkpt lat="43.0806997" lon="11.5378449"><ele>291.0</ele><time>2026-04-06T14:29:17.83Z</time></trkpt><trkpt lat="43.0807182" lon="11.537934"><ele>291.0</ele><time>2026-04-06T14:29:18.827Z</time></trkpt><trkpt lat="43.0807323" lon="11.5380312"><ele>291.0</ele><time>2026-04-06T14:29:19.828Z</time></trkpt><trkpt lat="43.0807456" lon="11.538142"><ele>291.0</ele><time>2026-04-06T14:29:20.826Z</time></trkpt><trkpt lat="43.0807667" lon="11.5382682"><ele>290.2</ele><time>2026-04-06T14:29:21.828Z</time></trkpt><trkpt lat="43.0807911" lon="11.5384091"><ele>289.40000000000003</ele><time>2026-04-06T14:29:22.828Z</time></trkpt><trkpt lat="43.0808174" lon="11.5385466"><ele>288.6</ele><time>2026-04-06T14:29:23.83Z</time></trkpt><trkpt lat="43.0808337" lon="11.5386902"><ele>287.8</ele><time>2026-04-06T14:29:24.827Z</time></trkpt><trkpt lat="43.0808601" lon="11.5388318"><ele>287.0</ele><time>2026-04-06T14:29:25.826Z</time></trkpt><trkpt lat="43.0808806" lon="11.5389702"><ele>286.8</ele><time>2026-04-06T14:29:26.828Z</time></trkpt><trkpt lat="43.0809031" lon="11.5391039"><ele>286.6</ele><time>2026-04-06T14:29:27.83Z</time></trkpt><trkpt lat="43.0809282" lon="11.5392299"><ele>286.40000000000003</ele><time>2026-04-06T14:29:28.828Z</time></trkpt><trkpt lat="43.0809574" lon="11.53935"><ele>286.2</ele><time>2026-04-06T14:29:29.827Z</time></trkpt><trkpt lat="43.0809966" lon="11.539458"><ele>286.0</ele><time>2026-04-06T14:29:30.825Z</time></trkpt><trkpt lat="43.0810444" lon="11.5395592"><ele>286.6</ele><time>2026-04-06T14:29:31.831Z</time></trkpt><trkpt lat="43.0811032" lon="11.5396594"><ele>287.20000000000005</ele><time>2026-04-06T14:29:32.828Z</time></trkpt><trkpt lat="43.081178" lon="11.5397541"><ele>287.79999999999995</ele><time>2026-04-06T14:29:33.826Z</time></trkpt><trkpt lat="43.0812562" lon="11.5398496"><ele>288.4</ele><time>2026-04-06T14:29:34.826Z</time></trkpt><trkpt lat="43.0813357" lon="11.5399352"><ele>289.0</ele><time>2026-04-06T14:29:35.824Z</time></trkpt><trkpt lat="43.081408" lon="11.5400161"><ele>289.0</ele><time>2026-04-06T14:29:36.823Z</time></trkpt><trkpt lat="43.0814697" lon="11.5400912"><ele>289.0</ele><time>2026-04-06T14:29:37.829Z</time></trkpt><trkpt lat="43.081518" lon="11.5401742"><ele>289.0</ele><time>2026-04-06T14:29:38.826Z</time></trkpt><trkpt lat="43.0815615" lon="11.5402689"><ele>289.0</ele><time>2026-04-06T14:29:39.825Z</time></trkpt><trkpt lat="43.0816011" lon="11.5403744"><ele>289.0</ele><time>2026-04-06T14:29:40.826Z</time></trkpt><trkpt lat="43.0816355" lon="11.5404905"><ele>289.0</ele><time>2026-04-06T14:29:41.829Z</time></trkpt><trkpt lat="43.0816544" lon="11.5406235"><ele>290.0</ele><time>2026-04-06T14:29:42.825Z</time></trkpt><trkpt lat="43.0816673" lon="11.5407672"><ele>291.0</ele><time>2026-04-06T14:29:43.827Z</time></trkpt><trkpt lat="43.0816772" lon="11.5409256"><ele>292.0</ele><time>2026-04-06T14:29:44.826Z</time></trkpt><trkpt lat="43.081691" lon="11.5410945"><ele>293.0</ele><time>2026-04-06T14:29:45.826Z</time></trkpt><trkpt lat="43.0817161" lon="11.5412577"><ele>293.6</ele><time>2026-04-06T14:29:46.823Z</time></trkpt><trkpt lat="43.0817491" lon="11.5414153"><ele>294.20000000000005</ele><time>2026-04-06T14:29:47.827Z</time></trkpt><trkpt lat="43.0817816" lon="11.5415634"><ele>294.8</ele><time>2026-04-06T14:29:48.827Z</time></trkpt><trkpt lat="43.081815" lon="11.5417"><ele>295.40000000000003</ele><time>2026-04-06T14:29:49.828Z</time></trkpt><trkpt lat="43.0818417" lon="11.5418265"><ele>296.0</ele><time>2026-04-06T14:29:50.823Z</time></trkpt><trkpt lat="43.0818628" lon="11.5419491"><ele>296.0</ele><time>2026-04-06T14:29:51.828Z</time></trkpt><trkpt lat="43.0818784" lon="11.542074"><ele>296.0</ele><time>2026-04-06T14:29:52.827Z</time></trkpt><trkpt lat="43.0818874" lon="11.5422014"><ele>296.0</ele><time>2026-04-06T14:29:53.824Z</time></trkpt><trkpt lat="43.0818857" lon="11.5423241"><ele>296.0</ele><time>2026-04-06T14:29:54.825Z</time></trkpt><trkpt lat="43.0818803" lon="11.5424452"><ele>296.0</ele><time>2026-04-06T14:29:55.824Z</time></trkpt><trkpt lat="43.0818813" lon="11.5425613"><ele>296.0</ele><time>2026-04-06T14:29:56.827Z</time></trkpt><trkpt lat="43.0818902" lon="11.5426668"><ele>296.0</ele><time>2026-04-06T14:29:57.829Z</time></trkpt><trkpt lat="43.0819121" lon="11.5427574"><ele>296.0</ele><time>2026-04-06T14:29:58.826Z</time></trkpt><trkpt lat="43.0819766" lon="11.5428948"><ele>296.0</ele><time>2026-04-06T14:30:00.828Z</time></trkpt><trkpt lat="43.0820681" lon="11.5429795"><ele>296.0</ele><time>2026-04-06T14:30:02.827Z</time></trkpt><trkpt lat="43.0821328" lon="11.5430024"><ele>296.0</ele><time>2026-04-06T14:30:03.826Z</time></trkpt><trkpt lat="43.0822098" lon="11.5430182"><ele>296.0</ele><time>2026-04-06T14:30:04.825Z</time></trkpt><trkpt lat="43.0823003" lon="11.5430371"><ele>294.8</ele><time>2026-04-06T14:30:05.829Z</time></trkpt><trkpt lat="43.0824001" lon="11.543063"><ele>293.6</ele><time>2026-04-06T14:30:06.83Z</time></trkpt><trkpt lat="43.0824966" lon="11.5430998"><ele>292.4</ele><time>2026-04-06T14:30:07.826Z</time></trkpt><trkpt lat="43.0825877" lon="11.5431369"><ele>291.2</ele><time>2026-04-06T14:30:08.83Z</time></trkpt><trkpt lat="43.0826768" lon="11.5431723"><ele>290.0</ele><time>2026-04-06T14:30:09.825Z</time></trkpt><trkpt lat="43.0827679" lon="11.5432031"><ele>290.0</ele><time>2026-04-06T14:30:10.825Z</time></trkpt><trkpt lat="43.0828583" lon="11.5432268"><ele>290.0</ele><time>2026-04-06T14:30:11.83Z</time></trkpt><trkpt lat="43.0829457" lon="11.5432403"><ele>290.0</ele><time>2026-04-06T14:30:12.826Z</time></trkpt><trkpt lat="43.0830323" lon="11.5432533"><ele>290.0</ele><time>2026-04-06T14:30:13.827Z</time></trkpt><trkpt lat="43.0831136" lon="11.5432676"><ele>290.0</ele><time>2026-04-06T14:30:14.826Z</time></trkpt><trkpt lat="43.0831867" lon="11.5432853"><ele>290.0</ele><time>2026-04-06T14:30:15.829Z</time></trkpt><trkpt lat="43.0832548" lon="11.5433026"><ele>288.75</ele><time>2026-04-06T14:30:16.825Z</time></trkpt><trkpt lat="43.0833745" lon="11.5433316"><ele>287.5</ele><time>2026-04-06T14:30:18.826Z</time></trkpt><trkpt lat="43.0834985" lon="11.5433613"><ele>286.25</ele><time>2026-04-06T14:30:20.827Z</time></trkpt><trkpt lat="43.0836181" lon="11.5433433"><ele>285.0</ele><time>2026-04-06T14:30:22.825Z</time></trkpt><trkpt lat="43.0837305" lon="11.5432715"><ele>285.0</ele><time>2026-04-06T14:30:24.826Z</time></trkpt><trkpt lat="43.0837935" lon="11.5432242"><ele>285.0</ele><time>2026-04-06T14:30:25.831Z</time></trkpt><trkpt lat="43.083865" lon="11.5431854"><ele>285.0</ele><time>2026-04-06T14:30:26.83Z</time></trkpt><trkpt lat="43.0839371" lon="11.5431692"><ele>285.0</ele><time>2026-04-06T14:30:27.828Z</time></trkpt><trkpt lat="43.0840066" lon="11.5431775"><ele>285.0</ele><time>2026-04-06T14:30:28.825Z</time></trkpt><trkpt lat="43.0840739" lon="11.5431993"><ele>285.0</ele><time>2026-04-06T14:30:29.826Z</time></trkpt><trkpt lat="43.0841369" lon="11.5432231"><ele>285.0</ele><time>2026-04-06T14:30:30.835Z</time></trkpt><trkpt lat="43.0842422" lon="11.5432804"><ele>283.4</ele><time>2026-04-06T14:30:32.826Z</time></trkpt><trkpt lat="43.0843448" lon="11.5433346"><ele>281.8</ele><time>2026-04-06T14:30:34.825Z</time></trkpt><trkpt lat="43.0844465" lon="11.5433813"><ele>280.2</ele><time>2026-04-06T14:30:36.828Z</time></trkpt><trkpt lat="43.0845511" lon="11.5434345"><ele>278.6</ele><time>2026-04-06T14:30:38.825Z</time></trkpt><trkpt lat="43.0846606" lon="11.5434644"><ele>277.0</ele><time>2026-04-06T14:30:40.828Z</time></trkpt><trkpt lat="43.0847746" lon="11.5435042"><ele>277.0</ele><time>2026-04-06T14:30:42.829Z</time></trkpt><trkpt lat="43.0848813" lon="11.543553"><ele>277.0</ele><time>2026-04-06T14:30:44.828Z</time></trkpt><trkpt lat="43.0850014" lon="11.5436181"><ele>277.0</ele><time>2026-04-06T14:30:46.827Z</time></trkpt><trkpt lat="43.0850734" lon="11.5436662"><ele>277.0</ele><time>2026-04-06T14:30:47.827Z</time></trkpt><trkpt lat="43.0851506" lon="11.5437209"><ele>277.0</ele><time>2026-04-06T14:30:48.835Z</time></trkpt><trkpt lat="43.0852411" lon="11.5437842"><ele>275.8333333333333</ele><time>2026-04-06T14:30:49.834Z</time></trkpt><trkpt lat="43.0853282" lon="11.5438429"><ele>274.66666666666663</ele><time>2026-04-06T14:30:50.832Z</time></trkpt><trkpt lat="43.0854109" lon="11.5438918"><ele>273.5</ele><time>2026-04-06T14:30:51.825Z</time></trkpt><trkpt lat="43.0854911" lon="11.5439304"><ele>272.3333333333333</ele><time>2026-04-06T14:30:52.827Z</time></trkpt><trkpt lat="43.085571" lon="11.5439611"><ele>271.1666666666667</ele><time>2026-04-06T14:30:53.825Z</time></trkpt><trkpt lat="43.0856588" lon="11.5439846"><ele>270.0</ele><time>2026-04-06T14:30:54.824Z</time></trkpt><trkpt lat="43.0857561" lon="11.5440031"><ele>270.0</ele><time>2026-04-06T14:30:55.83Z</time></trkpt><trkpt lat="43.0858645" lon="11.5440177"><ele>270.0</ele><time>2026-04-06T14:30:56.827Z</time></trkpt><trkpt lat="43.085978" lon="11.5440305"><ele>270.0</ele><time>2026-04-06T14:30:57.825Z</time></trkpt><trkpt lat="43.0860894" lon="11.5440497"><ele>270.0</ele><time>2026-04-06T14:30:58.825Z</time></trkpt><trkpt lat="43.0861913" lon="11.5440717"><ele>270.0</ele><time>2026-04-06T14:30:59.831Z</time></trkpt><trkpt lat="43.0862884" lon="11.5441023"><ele>270.0</ele><time>2026-04-06T14:31:00.839Z</time></trkpt><trkpt lat="43.0863762" lon="11.5441371"><ele>270.0</ele><time>2026-04-06T14:31:01.829Z</time></trkpt><trkpt lat="43.0864534" lon="11.544175"><ele>270.0</ele><time>2026-04-06T14:31:02.829Z</time></trkpt><trkpt lat="43.0865293" lon="11.5442249"><ele>270.0</ele><time>2026-04-06T14:31:03.825Z</time></trkpt><trkpt lat="43.0866057" lon="11.5442828"><ele>270.0</ele><time>2026-04-06T14:31:04.829Z</time></trkpt><trkpt lat="43.0866835" lon="11.5443486"><ele>270.0</ele><time>2026-04-06T14:31:05.829Z</time></trkpt><trkpt lat="43.08676" lon="11.5444139"><ele>270.1666666666667</ele><time>2026-04-06T14:31:06.825Z</time></trkpt><trkpt lat="43.0868334" lon="11.5444788"><ele>270.3333333333333</ele><time>2026-04-06T14:31:07.827Z</time></trkpt><trkpt lat="43.0869006" lon="11.54454"><ele>270.5</ele><time>2026-04-06T14:31:08.825Z</time></trkpt><trkpt lat="43.0869574" lon="11.5445908"><ele>270.66666666666663</ele><time>2026-04-06T14:31:09.828Z</time></trkpt><trkpt lat="43.0870421" lon="11.544672"><ele>270.8333333333333</ele><time>2026-04-06T14:31:11.828Z</time></trkpt><trkpt lat="43.0870826" lon="11.5447431"><ele>271.0</ele><time>2026-04-06T14:31:13.824Z</time></trkpt><trkpt lat="43.0870801" lon="11.5448731"><ele>271.0</ele><time>2026-04-06T14:31:16.83Z</time></trkpt><trkpt lat="43.0870267" lon="11.5450617"><ele>271.0</ele><time>2026-04-06T14:31:18.83Z</time></trkpt><trkpt lat="43.0869933" lon="11.5451733"><ele>271.0</ele><time>2026-04-06T14:31:19.829Z</time></trkpt><trkpt lat="43.0869567" lon="11.545295"><ele>271.0</ele><time>2026-04-06T14:31:20.824Z</time></trkpt><trkpt lat="43.0869133" lon="11.545425"><ele>271.0</ele><time>2026-04-06T14:31:21.824Z</time></trkpt><trkpt lat="43.0868683" lon="11.5455567"><ele>270.2</ele><time>2026-04-06T14:31:22.825Z</time></trkpt><trkpt lat="43.0868283" lon="11.5456883"><ele>269.40000000000003</ele><time>2026-04-06T14:31:23.827Z</time></trkpt><trkpt lat="43.086795" lon="11.545815"><ele>268.6</ele><time>2026-04-06T14:31:24.825Z</time></trkpt><trkpt lat="43.0867683" lon="11.5459383"><ele>267.8</ele><time>2026-04-06T14:31:25.825Z</time></trkpt><trkpt lat="43.0867383" lon="11.5460583"><ele>267.0</ele><time>2026-04-06T14:31:26.824Z</time></trkpt><trkpt lat="43.08671" lon="11.546175"><ele>266.8333333333333</ele><time>2026-04-06T14:31:27.824Z</time></trkpt><trkpt lat="43.086675" lon="11.5462817"><ele>266.6666666666667</ele><time>2026-04-06T14:31:28.825Z</time></trkpt><trkpt lat="43.0866483" lon="11.5463883"><ele>266.5</ele><time>2026-04-06T14:31:29.829Z</time></trkpt><trkpt lat="43.0866283" lon="11.5464967"><ele>266.33333333333337</ele><time>2026-04-06T14:31:30.826Z</time></trkpt><trkpt lat="43.0865983" lon="11.5465983"><ele>266.1666666666667</ele><time>2026-04-06T14:31:31.824Z</time></trkpt><trkpt lat="43.086575" lon="11.5467017"><ele>266.0</ele><time>2026-04-06T14:31:32.831Z</time></trkpt><trkpt lat="43.086555" lon="11.546805"><ele>264.83333333333337</ele><time>2026-04-06T14:31:33.826Z</time></trkpt><trkpt lat="43.0865333" lon="11.5469"><ele>263.6666666666667</ele><time>2026-04-06T14:31:34.827Z</time></trkpt><trkpt lat="43.086495" lon="11.5470517"><ele>262.5</ele><time>2026-04-06T14:31:36.824Z</time></trkpt><trkpt lat="43.08647" lon="11.5472"><ele>261.3333333333333</ele><time>2026-04-06T14:31:38.825Z</time></trkpt><trkpt lat="43.0864517" lon="11.547285"><ele>260.16666666666663</ele><time>2026-04-06T14:31:39.83Z</time></trkpt><trkpt lat="43.08643" lon="11.5473817"><ele>259.0</ele><time>2026-04-06T14:31:40.826Z</time></trkpt><trkpt lat="43.086405" lon="11.5474917"><ele>258.8333333333333</ele><time>2026-04-06T14:31:41.824Z</time></trkpt><trkpt lat="43.08638" lon="11.547595"><ele>258.66666666666663</ele><time>2026-04-06T14:31:42.826Z</time></trkpt><trkpt lat="43.0863567" lon="11.5476933"><ele>258.5</ele><time>2026-04-06T14:31:43.824Z</time></trkpt><trkpt lat="43.0863383" lon="11.547785"><ele>258.3333333333333</ele><time>2026-04-06T14:31:44.828Z</time></trkpt><trkpt lat="43.08632" lon="11.5478683"><ele>258.1666666666667</ele><time>2026-04-06T14:31:45.825Z</time></trkpt><trkpt lat="43.08629" lon="11.5480117"><ele>258.0</ele><time>2026-04-06T14:31:47.823Z</time></trkpt><trkpt lat="43.0862483" lon="11.548125"><ele>258.0</ele><time>2026-04-06T14:31:49.825Z</time></trkpt><trkpt lat="43.0862117" lon="11.5482217"><ele>258.0</ele><time>2026-04-06T14:31:52.823Z</time></trkpt><trkpt lat="43.0862567" lon="11.5481117"><ele>258.0</ele><time>2026-04-06T14:32:10.828Z</time></trkpt><trkpt lat="43.0863083" lon="11.5479433"><ele>258.0</ele><time>2026-04-06T14:32:12.825Z</time></trkpt><trkpt lat="43.08633" lon="11.547845"><ele>258.0</ele><time>2026-04-06T14:32:13.83Z</time></trkpt><trkpt lat="43.0863433" lon="11.547735"><ele>258.0</ele><time>2026-04-06T14:32:14.832Z</time></trkpt><trkpt lat="43.0863683" lon="11.5476283"><ele>258.0</ele><time>2026-04-06T14:32:15.828Z</time></trkpt><trkpt lat="43.0863883" lon="11.5475183"><ele>258.0</ele><time>2026-04-06T14:32:16.824Z</time></trkpt><trkpt lat="43.0864117" lon="11.5474117"><ele>258.0</ele><time>2026-04-06T14:32:17.825Z</time></trkpt><trkpt lat="43.0864283" lon="11.5473033"><ele>258.0</ele><time>2026-04-06T14:32:18.832Z</time></trkpt><trkpt lat="43.08645" lon="11.547195"><ele>258.0</ele><time>2026-04-06T14:32:19.826Z</time></trkpt><trkpt lat="43.08648" lon="11.54709"><ele>258.1666666666667</ele><time>2026-04-06T14:32:20.825Z</time></trkpt><trkpt lat="43.0865067" lon="11.5469817"><ele>258.3333333333333</ele><time>2026-04-06T14:32:21.834Z</time></trkpt><trkpt lat="43.0865383" lon="11.5468733"><ele>258.5</ele><time>2026-04-06T14:32:22.822Z</time></trkpt><trkpt lat="43.08657" lon="11.5467667"><ele>258.66666666666663</ele><time>2026-04-06T14:32:23.828Z</time></trkpt><trkpt lat="43.0866017" lon="11.5466617"><ele>258.8333333333333</ele><time>2026-04-06T14:32:24.826Z</time></trkpt><trkpt lat="43.0866317" lon="11.5465633"><ele>259.0</ele><time>2026-04-06T14:32:25.824Z</time></trkpt><trkpt lat="43.0866583" lon="11.54647"><ele>260.4</ele><time>2026-04-06T14:32:26.827Z</time></trkpt><trkpt lat="43.08668" lon="11.54637"><ele>261.79999999999995</ele><time>2026-04-06T14:32:27.825Z</time></trkpt><trkpt lat="43.086705" lon="11.5462783"><ele>263.20000000000005</ele><time>2026-04-06T14:32:28.829Z</time></trkpt><trkpt lat="43.08672" lon="11.5461317"><ele>264.6</ele><time>2026-04-06T14:32:30.836Z</time></trkpt><trkpt lat="43.0867383" lon="11.5459933"><ele>266.0</ele><time>2026-04-06T14:32:32.828Z</time></trkpt><trkpt lat="43.0867783" lon="11.54583"><ele>266.14285714285717</ele><time>2026-04-06T14:32:34.825Z</time></trkpt><trkpt lat="43.086805" lon="11.5457367"><ele>266.2857142857143</ele><time>2026-04-06T14:32:35.825Z</time></trkpt><trkpt lat="43.0868333" lon="11.5456483"><ele>266.42857142857144</ele><time>2026-04-06T14:32:36.864Z</time></trkpt><trkpt lat="43.0868567" lon="11.5455567"><ele>266.57142857142856</ele><time>2026-04-06T14:32:37.83Z</time></trkpt><trkpt lat="43.0868817" lon="11.545465"><ele>266.7142857142857</ele><time>2026-04-06T14:32:38.827Z</time></trkpt><trkpt lat="43.0869083" lon="11.54538"><ele>266.8571428571429</ele><time>2026-04-06T14:32:39.825Z</time></trkpt><trkpt lat="43.0869317" lon="11.545295"><ele>267.0</ele><time>2026-04-06T14:32:40.826Z</time></trkpt><trkpt lat="43.0869633" lon="11.54522"><ele>267.8</ele><time>2026-04-06T14:32:41.824Z</time></trkpt><trkpt lat="43.08701" lon="11.545105"><ele>268.6</ele><time>2026-04-06T14:32:43.827Z</time></trkpt><trkpt lat="43.0870483" lon="11.5449633"><ele>269.40000000000003</ele><time>2026-04-06T14:32:45.825Z</time></trkpt><trkpt lat="43.0871083" lon="11.5448017"><ele>270.2</ele><time>2026-04-06T14:32:47.832Z</time></trkpt><trkpt lat="43.08714" lon="11.5447117"><ele>271.0</ele><time>2026-04-06T14:32:48.825Z</time></trkpt><trkpt lat="43.08718" lon="11.5446033"><ele>271.5</ele><time>2026-04-06T14:32:49.824Z</time></trkpt><trkpt lat="43.0872417" lon="11.54448"><ele>272.0</ele><time>2026-04-06T14:32:50.824Z</time></trkpt><trkpt lat="43.087305" lon="11.544355"><ele>272.5</ele><time>2026-04-06T14:32:51.822Z</time></trkpt><trkpt lat="43.08737" lon="11.5442267"><ele>273.0</ele><time>2026-04-06T14:32:52.83Z</time></trkpt><trkpt lat="43.0874383" lon="11.5440917"><ele>273.25</ele><time>2026-04-06T14:32:53.827Z</time></trkpt><trkpt lat="43.0875117" lon="11.5439483"><ele>273.5</ele><time>2026-04-06T14:32:54.823Z</time></trkpt><trkpt lat="43.087585" lon="11.543805"><ele>273.75</ele><time>2026-04-06T14:32:55.823Z</time></trkpt><trkpt lat="43.0876517" lon="11.54367"><ele>274.0</ele><time>2026-04-06T14:32:56.827Z</time></trkpt><trkpt lat="43.0877167" lon="11.5435367"><ele>272.0</ele><time>2026-04-06T14:32:57.828Z</time></trkpt><trkpt lat="43.0877817" lon="11.5434167"><ele>270.0</ele><time>2026-04-06T14:32:58.824Z</time></trkpt><trkpt lat="43.0878367" lon="11.5432983"><ele>268.0</ele><time>2026-04-06T14:32:59.828Z</time></trkpt><trkpt lat="43.0878917" lon="11.5432017"><ele>266.0</ele><time>2026-04-06T14:33:00.824Z</time></trkpt><trkpt lat="43.0879267" lon="11.5431033"><ele>264.0</ele><time>2026-04-06T14:33:01.828Z</time></trkpt><trkpt lat="43.0879067" lon="11.5429983"><ele>264.0</ele><time>2026-04-06T14:33:02.828Z</time></trkpt><trkpt lat="43.08788" lon="11.54289"><ele>264.0</ele><time>2026-04-06T14:33:03.825Z</time></trkpt><trkpt lat="43.087855" lon="11.542785"><ele>264.0</ele><time>2026-04-06T14:33:04.825Z</time></trkpt><trkpt lat="43.087805" lon="11.5426983"><ele>264.0</ele><time>2026-04-06T14:33:05.824Z</time></trkpt><trkpt lat="43.087725" lon="11.542665"><ele>264.0</ele><time>2026-04-06T14:33:06.831Z</time></trkpt><trkpt lat="43.0876283" lon="11.5426633"><ele>264.0</ele><time>2026-04-06T14:33:07.826Z</time></trkpt><trkpt lat="43.0875267" lon="11.5426983"><ele>264.0</ele><time>2026-04-06T14:33:08.824Z</time></trkpt><trkpt lat="43.0874383" lon="11.5427733"><ele>264.0</ele><time>2026-04-06T14:33:09.825Z</time></trkpt><trkpt lat="43.0873617" lon="11.5428517"><ele>264.0</ele><time>2026-04-06T14:33:10.823Z</time></trkpt><trkpt lat="43.0872933" lon="11.5429233"><ele>264.0</ele><time>2026-04-06T14:33:11.829Z</time></trkpt><trkpt lat="43.087245" lon="11.5429967"><ele>264.0</ele><time>2026-04-06T14:33:12.825Z</time></trkpt><trkpt lat="43.087175" lon="11.543085"><ele>264.0</ele><time>2026-04-06T14:33:14.824Z</time></trkpt><trkpt lat="43.087135" lon="11.5431633"><ele>264.0</ele><time>2026-04-06T14:33:18.827Z</time></trkpt><trkpt lat="43.08721" lon="11.5432067"><ele>264.0</ele><time>2026-04-06T14:33:23.826Z</time></trkpt><trkpt lat="43.0872883" lon="11.5431083"><ele>264.0</ele><time>2026-04-06T14:33:25.825Z</time></trkpt><trkpt lat="43.0873483" lon="11.543015"><ele>264.0</ele><time>2026-04-06T14:33:26.83Z</time></trkpt><trkpt lat="43.0874133" lon="11.54292"><ele>264.0</ele><time>2026-04-06T14:33:27.824Z</time></trkpt><trkpt lat="43.087485" lon="11.5428217"><ele>264.0</ele><time>2026-04-06T14:33:28.834Z</time></trkpt><trkpt lat="43.0875617" lon="11.5427567"><ele>264.0</ele><time>2026-04-06T14:33:29.826Z</time></trkpt><trkpt lat="43.08764" lon="11.5427367"><ele>264.0</ele><time>2026-04-06T14:33:30.824Z</time></trkpt><trkpt lat="43.087715" lon="11.5427633"><ele>264.0</ele><time>2026-04-06T14:33:31.829Z</time></trkpt><trkpt lat="43.0877867" lon="11.5428083"><ele>264.0</ele><time>2026-04-06T14:33:32.824Z</time></trkpt><trkpt lat="43.087835" lon="11.5428883"><ele>264.0</ele><time>2026-04-06T14:33:33.831Z</time></trkpt><trkpt lat="43.08786" lon="11.542995"><ele>264.0</ele><time>2026-04-06T14:33:34.824Z</time></trkpt><trkpt lat="43.0878717" lon="11.5431067"><ele>264.0</ele><time>2026-04-06T14:33:35.828Z</time></trkpt><trkpt lat="43.08785" lon="11.5432217"><ele>264.0</ele><time>2026-04-06T14:33:36.83Z</time></trkpt><trkpt lat="43.0878083" lon="11.5433383"><ele>264.0</ele><time>2026-04-06T14:33:37.829Z</time></trkpt><trkpt lat="43.0877533" lon="11.5434583"><ele>264.0</ele><time>2026-04-06T14:33:38.824Z</time></trkpt><trkpt lat="43.0876967" lon="11.54357"><ele>264.0</ele><time>2026-04-06T14:33:39.824Z</time></trkpt><trkpt lat="43.0876483" lon="11.543665"><ele>264.0</ele><time>2026-04-06T14:33:40.828Z</time></trkpt><trkpt lat="43.0876017" lon="11.5437533"><ele>264.0</ele><time>2026-04-06T14:33:41.825Z</time></trkpt><trkpt lat="43.0875567" lon="11.5438417"><ele>264.0</ele><time>2026-04-06T14:33:42.827Z</time></trkpt><trkpt lat="43.0875083" lon="11.5439317"><ele>264.0</ele><time>2026-04-06T14:33:43.824Z</time></trkpt><trkpt lat="43.0874567" lon="11.5440267"><ele>264.0</ele><time>2026-04-06T14:33:44.826Z</time></trkpt><trkpt lat="43.0874067" lon="11.5441267"><ele>265.4</ele><time>2026-04-06T14:33:45.828Z</time></trkpt><trkpt lat="43.0873533" lon="11.5442317"><ele>266.79999999999995</ele><time>2026-04-06T14:33:46.826Z</time></trkpt><trkpt lat="43.0873017" lon="11.5443367"><ele>268.20000000000005</ele><time>2026-04-06T14:33:47.828Z</time></trkpt><trkpt lat="43.0872483" lon="11.544445"><ele>269.6</ele><time>2026-04-06T14:33:48.827Z</time></trkpt><trkpt lat="43.0872017" lon="11.5445583"><ele>271.0</ele><time>2026-04-06T14:33:49.824Z</time></trkpt><trkpt lat="43.0871583" lon="11.5446733"><ele>271.0</ele><time>2026-04-06T14:33:50.827Z</time></trkpt><trkpt lat="43.0871183" lon="11.544785"><ele>271.0</ele><time>2026-04-06T14:33:51.827Z</time></trkpt><trkpt lat="43.0870767" lon="11.5448917"><ele>271.0</ele><time>2026-04-06T14:33:52.826Z</time></trkpt><trkpt lat="43.08704" lon="11.5449967"><ele>271.0</ele><time>2026-04-06T14:33:53.829Z</time></trkpt><trkpt lat="43.0870033" lon="11.5451033"><ele>271.0</ele><time>2026-04-06T14:33:54.825Z</time></trkpt><trkpt lat="43.086965" lon="11.5452167"><ele>271.0</ele><time>2026-04-06T14:33:55.825Z</time></trkpt><trkpt lat="43.0869317" lon="11.5453383"><ele>270.3333333333333</ele><time>2026-04-06T14:33:56.826Z</time></trkpt><trkpt lat="43.086895" lon="11.5454533"><ele>269.66666666666663</ele><time>2026-04-06T14:33:57.825Z</time></trkpt><trkpt lat="43.0868633" lon="11.5455633"><ele>269.0</ele><time>2026-04-06T14:33:58.825Z</time></trkpt><trkpt lat="43.08683" lon="11.5456717"><ele>268.3333333333333</ele><time>2026-04-06T14:33:59.827Z</time></trkpt><trkpt lat="43.086795" lon="11.5457767"><ele>267.6666666666667</ele><time>2026-04-06T14:34:00.826Z</time></trkpt><trkpt lat="43.08677" lon="11.54588"><ele>267.0</ele><time>2026-04-06T14:34:01.827Z</time></trkpt><trkpt lat="43.0867467" lon="11.54597"><ele>267.0</ele><time>2026-04-06T14:34:02.827Z</time></trkpt><trkpt lat="43.0867083" lon="11.546085"><ele>267.0</ele><time>2026-04-06T14:34:04.823Z</time></trkpt><trkpt lat="43.0866133" lon="11.5460983"><ele>267.0</ele><time>2026-04-06T14:34:07.824Z</time></trkpt><trkpt lat="43.0865067" lon="11.5460483"><ele>267.0</ele><time>2026-04-06T14:34:09.824Z</time></trkpt><trkpt lat="43.0864317" lon="11.546015"><ele>267.0</ele><time>2026-04-06T14:34:10.828Z</time></trkpt><trkpt lat="43.0863433" lon="11.54598"><ele>266.0</ele><time>2026-04-06T14:34:11.829Z</time></trkpt><trkpt lat="43.08625" lon="11.5459483"><ele>265.0</ele><time>2026-04-06T14:34:12.829Z</time></trkpt><trkpt lat="43.086155" lon="11.5459167"><ele>264.0</ele><time>2026-04-06T14:34:13.825Z</time></trkpt><trkpt lat="43.0860633" lon="11.54589"><ele>263.0</ele><time>2026-04-06T14:34:14.825Z</time></trkpt><trkpt lat="43.0859733" lon="11.5458617"><ele>262.0</ele><time>2026-04-06T14:34:15.828Z</time></trkpt><trkpt lat="43.0858933" lon="11.5458383"><ele>262.0</ele><time>2026-04-06T14:34:16.824Z</time></trkpt><trkpt lat="43.085825" lon="11.5458083"><ele>262.0</ele><time>2026-04-06T14:34:17.824Z</time></trkpt><trkpt lat="43.08573" lon="11.5457633"><ele>262.0</ele><time>2026-04-06T14:34:19.828Z</time></trkpt><trkpt lat="43.0857267" lon="11.5458633"><ele>262.0</ele><time>2026-04-06T14:34:33.827Z</time></trkpt><trkpt lat="43.0856633" lon="11.5459867"><ele>262.0</ele><time>2026-04-06T14:34:35.827Z</time></trkpt><trkpt lat="43.0856" lon="11.546135"><ele>261.5</ele><time>2026-04-06T14:34:37.838Z</time></trkpt><trkpt lat="43.0855667" lon="11.5462217"><ele>261.0</ele><time>2026-04-06T14:34:38.823Z</time></trkpt><trkpt lat="43.085525" lon="11.546305"><ele>260.5</ele><time>2026-04-06T14:34:39.828Z</time></trkpt><trkpt lat="43.0854867" lon="11.54639"><ele>260.0</ele><time>2026-04-06T14:34:40.827Z</time></trkpt><trkpt lat="43.085445" lon="11.5464767"><ele>259.5</ele><time>2026-04-06T14:34:41.828Z</time></trkpt><trkpt lat="43.0853967" lon="11.546565"><ele>259.0</ele><time>2026-04-06T14:34:42.826Z</time></trkpt><trkpt lat="43.0853483" lon="11.5466517"><ele>259.0</ele><time>2026-04-06T14:34:43.829Z</time></trkpt><trkpt lat="43.0853083" lon="11.5467433"><ele>259.0</ele><time>2026-04-06T14:34:44.83Z</time></trkpt><trkpt lat="43.0852667" lon="11.5468233"><ele>259.0</ele><time>2026-04-06T14:34:45.828Z</time></trkpt><trkpt lat="43.0852233" lon="11.5468983"><ele>259.0</ele><time>2026-04-06T14:34:46.827Z</time></trkpt><trkpt lat="43.0851833" lon="11.54697"><ele>259.0</ele><time>2026-04-06T14:34:47.838Z</time></trkpt><trkpt lat="43.0851417" lon="11.54704"><ele>259.0</ele><time>2026-04-06T14:34:48.829Z</time></trkpt><trkpt lat="43.0851067" lon="11.5471167"><ele>259.0</ele><time>2026-04-06T14:34:49.83Z</time></trkpt><trkpt lat="43.085065" lon="11.5471967"><ele>258.5</ele><time>2026-04-06T14:34:50.829Z</time></trkpt><trkpt lat="43.0850183" lon="11.547285"><ele>258.0</ele><time>2026-04-06T14:34:51.827Z</time></trkpt><trkpt lat="43.0849783" lon="11.54738"><ele>257.5</ele><time>2026-04-06T14:34:52.825Z</time></trkpt><trkpt lat="43.08493" lon="11.5474733"><ele>257.0</ele><time>2026-04-06T14:34:53.826Z</time></trkpt><trkpt lat="43.0848867" lon="11.5475617"><ele>256.5</ele><time>2026-04-06T14:34:54.831Z</time></trkpt><trkpt lat="43.0848483" lon="11.5476433"><ele>256.0</ele><time>2026-04-06T14:34:55.828Z</time></trkpt><trkpt lat="43.084815" lon="11.5477217"><ele>255.49999999999997</ele><time>2026-04-06T14:34:56.833Z</time></trkpt><trkpt lat="43.0847783" lon="11.5477983"><ele>255.0</ele><time>2026-04-06T14:34:57.826Z</time></trkpt><trkpt lat="43.0847383" lon="11.5478733"><ele>254.5</ele><time>2026-04-06T14:34:58.83Z</time></trkpt><trkpt lat="43.0847" lon="11.5479533"><ele>254.0</ele><time>2026-04-06T14:34:59.827Z</time></trkpt><trkpt lat="43.084665" lon="11.548035"><ele>253.49999999999997</ele><time>2026-04-06T14:35:00.826Z</time></trkpt><trkpt lat="43.0846" lon="11.5481617"><ele>253.0</ele><time>2026-04-06T14:35:02.828Z</time></trkpt><trkpt lat="43.0845517" lon="11.5482367"><ele>252.2</ele><time>2026-04-06T14:35:04.827Z</time></trkpt><trkpt lat="43.0844767" lon="11.5483"><ele>251.4</ele><time>2026-04-06T14:35:07.824Z</time></trkpt><trkpt lat="43.084355" lon="11.5483233"><ele>250.59999999999997</ele><time>2026-04-06T14:35:09.831Z</time></trkpt><trkpt lat="43.08427" lon="11.5483317"><ele>249.79999999999998</ele><time>2026-04-06T14:35:10.824Z</time></trkpt><trkpt lat="43.0841733" lon="11.5483383"><ele>249.0</ele><time>2026-04-06T14:35:11.825Z</time></trkpt><trkpt lat="43.084075" lon="11.5483433"><ele>248.79999999999998</ele><time>2026-04-06T14:35:12.824Z</time></trkpt><trkpt lat="43.0839667" lon="11.5483383"><ele>248.59999999999997</ele><time>2026-04-06T14:35:13.829Z</time></trkpt><trkpt lat="43.0838583" lon="11.54834"><ele>248.4</ele><time>2026-04-06T14:35:14.83Z</time></trkpt><trkpt lat="43.083765" lon="11.5483417"><ele>248.2</ele><time>2026-04-06T14:35:15.825Z</time></trkpt><trkpt lat="43.0836767" lon="11.5483467"><ele>248.0</ele><time>2026-04-06T14:35:16.826Z</time></trkpt><trkpt lat="43.0835883" lon="11.548345"><ele>248.00000000000003</ele><time>2026-04-06T14:35:17.825Z</time></trkpt><trkpt lat="43.0835017" lon="11.54835"><ele>248.0</ele><time>2026-04-06T14:35:18.828Z</time></trkpt><trkpt lat="43.08342" lon="11.5483517"><ele>248.0</ele><time>2026-04-06T14:35:19.824Z</time></trkpt><trkpt lat="43.083335" lon="11.5483483"><ele>248.0</ele><time>2026-04-06T14:35:20.826Z</time></trkpt><trkpt lat="43.0832483" lon="11.54835"><ele>248.00000000000003</ele><time>2026-04-06T14:35:21.826Z</time></trkpt><trkpt lat="43.0831533" lon="11.5483533"><ele>248.0</ele><time>2026-04-06T14:35:22.83Z</time></trkpt><trkpt lat="43.083055" lon="11.5483617"><ele>248.4</ele><time>2026-04-06T14:35:23.828Z</time></trkpt><trkpt lat="43.0829517" lon="11.5483683"><ele>248.8</ele><time>2026-04-06T14:35:24.826Z</time></trkpt><trkpt lat="43.0828483" lon="11.5483733"><ele>249.2</ele><time>2026-04-06T14:35:25.827Z</time></trkpt><trkpt lat="43.0827467" lon="11.54838"><ele>249.6</ele><time>2026-04-06T14:35:26.828Z</time></trkpt><trkpt lat="43.0826467" lon="11.54839"><ele>250.0</ele><time>2026-04-06T14:35:27.824Z</time></trkpt><trkpt lat="43.0825433" lon="11.548395"><ele>250.0</ele><time>2026-04-06T14:35:28.828Z</time></trkpt><trkpt lat="43.0824417" lon="11.5483967"><ele>250.0</ele><time>2026-04-06T14:35:29.825Z</time></trkpt><trkpt lat="43.0823417" lon="11.54838"><ele>250.0</ele><time>2026-04-06T14:35:30.824Z</time></trkpt><trkpt lat="43.0822467" lon="11.54835"><ele>250.0</ele><time>2026-04-06T14:35:31.825Z</time></trkpt><trkpt lat="43.0821583" lon="11.548295"><ele>250.0</ele><time>2026-04-06T14:35:32.828Z</time></trkpt><trkpt lat="43.08207" lon="11.548225"><ele>250.2</ele><time>2026-04-06T14:35:33.826Z</time></trkpt><trkpt lat="43.0819933" lon="11.5481267"><ele>250.4</ele><time>2026-04-06T14:35:34.826Z</time></trkpt><trkpt lat="43.081925" lon="11.5480183"><ele>250.60000000000002</ele><time>2026-04-06T14:35:35.835Z</time></trkpt><trkpt lat="43.0818683" lon="11.5478983"><ele>250.8</ele><time>2026-04-06T14:35:36.829Z</time></trkpt><trkpt lat="43.0818183" lon="11.5477767"><ele>251.0</ele><time>2026-04-06T14:35:37.827Z</time></trkpt><trkpt lat="43.0817717" lon="11.547665"><ele>251.0</ele><time>2026-04-06T14:35:38.827Z</time></trkpt><trkpt lat="43.0817233" lon="11.5475533"><ele>251.00000000000003</ele><time>2026-04-06T14:35:39.828Z</time></trkpt><trkpt lat="43.0816683" lon="11.5474483"><ele>251.00000000000003</ele><time>2026-04-06T14:35:40.825Z</time></trkpt><trkpt lat="43.0816067" lon="11.547345"><ele>251.0</ele><time>2026-04-06T14:35:41.828Z</time></trkpt><trkpt lat="43.0815467" lon="11.54724"><ele>251.0</ele><time>2026-04-06T14:35:42.83Z</time></trkpt><trkpt lat="43.08146" lon="11.5471667"><ele>250.5</ele><time>2026-04-06T14:35:43.827Z</time></trkpt><trkpt lat="43.0813617" lon="11.5471083"><ele>250.0</ele><time>2026-04-06T14:35:44.828Z</time></trkpt><trkpt lat="43.0812583" lon="11.5470617"><ele>249.5</ele><time>2026-04-06T14:35:45.826Z</time></trkpt><trkpt lat="43.08114" lon="11.5470317"><ele>249.0</ele><time>2026-04-06T14:35:46.825Z</time></trkpt><trkpt lat="43.0810083" lon="11.5470117"><ele>249.0</ele><time>2026-04-06T14:35:47.828Z</time></trkpt><trkpt lat="43.08087" lon="11.5469883"><ele>249.0</ele><time>2026-04-06T14:35:48.825Z</time></trkpt><trkpt lat="43.0807283" lon="11.5469633"><ele>249.0</ele><time>2026-04-06T14:35:49.824Z</time></trkpt><trkpt lat="43.0805833" lon="11.5469333"><ele>249.0</ele><time>2026-04-06T14:35:50.824Z</time></trkpt><trkpt lat="43.0804383" lon="11.5469033"><ele>249.0</ele><time>2026-04-06T14:35:51.827Z</time></trkpt><trkpt lat="43.0802933" lon="11.54688"><ele>249.0</ele><time>2026-04-06T14:35:52.827Z</time></trkpt><trkpt lat="43.0801467" lon="11.5468483"><ele>249.0</ele><time>2026-04-06T14:35:53.827Z</time></trkpt><trkpt lat="43.07999" lon="11.5467917"><ele>247.33333333333331</ele><time>2026-04-06T14:35:54.827Z</time></trkpt><trkpt lat="43.0798167" lon="11.5467117"><ele>245.66666666666666</ele><time>2026-04-06T14:35:55.824Z</time></trkpt><trkpt lat="43.079635" lon="11.546615"><ele>244.0</ele><time>2026-04-06T14:35:56.837Z</time></trkpt><trkpt lat="43.079455" lon="11.5465133"><ele>244.0</ele><time>2026-04-06T14:35:57.833Z</time></trkpt><trkpt lat="43.0792817" lon="11.5464117"><ele>244.0</ele><time>2026-04-06T14:35:58.83Z</time></trkpt><trkpt lat="43.0791167" lon="11.5463133"><ele>244.0</ele><time>2026-04-06T14:35:59.825Z</time></trkpt><trkpt lat="43.0789667" lon="11.5462233"><ele>244.5</ele><time>2026-04-06T14:36:00.825Z</time></trkpt><trkpt lat="43.0788283" lon="11.54614"><ele>245.0</ele><time>2026-04-06T14:36:01.826Z</time></trkpt><trkpt lat="43.0787067" lon="11.5460633"><ele>245.5</ele><time>2026-04-06T14:36:02.829Z</time></trkpt><trkpt lat="43.0786067" lon="11.5460033"><ele>246.0</ele><time>2026-04-06T14:36:03.831Z</time></trkpt><trkpt lat="43.0785217" lon="11.5459667"><ele>246.0</ele><time>2026-04-06T14:36:04.826Z</time></trkpt><trkpt lat="43.0784417" lon="11.5459717"><ele>246.00000000000003</ele><time>2026-04-06T14:36:05.824Z</time></trkpt><trkpt lat="43.0783783" lon="11.546025"><ele>246.00000000000003</ele><time>2026-04-06T14:36:06.828Z</time></trkpt><trkpt lat="43.078315" lon="11.5461267"><ele>246.0</ele><time>2026-04-06T14:36:07.826Z</time></trkpt><trkpt lat="43.0782583" lon="11.5462533"><ele>246.0</ele><time>2026-04-06T14:36:08.828Z</time></trkpt><trkpt lat="43.0781967" lon="11.54637"><ele>245.4</ele><time>2026-04-06T14:36:09.83Z</time></trkpt><trkpt lat="43.07812" lon="11.5464483"><ele>244.8</ele><time>2026-04-06T14:36:10.826Z</time></trkpt><trkpt lat="43.07803" lon="11.5464933"><ele>244.20000000000002</ele><time>2026-04-06T14:36:11.831Z</time></trkpt><trkpt lat="43.0779217" lon="11.546515"><ele>243.60000000000002</ele><time>2026-04-06T14:36:12.827Z</time></trkpt><trkpt lat="43.0777983" lon="11.5465267"><ele>243.0</ele><time>2026-04-06T14:36:13.831Z</time></trkpt><trkpt lat="43.07766" lon="11.5465367"><ele>243.0</ele><time>2026-04-06T14:36:14.828Z</time></trkpt><trkpt lat="43.0775033" lon="11.5465583"><ele>243.0</ele><time>2026-04-06T14:36:15.825Z</time></trkpt><trkpt lat="43.0773383" lon="11.546585"><ele>243.0</ele><time>2026-04-06T14:36:16.826Z</time></trkpt><trkpt lat="43.0771817" lon="11.5466167"><ele>244.0</ele><time>2026-04-06T14:36:17.827Z</time></trkpt><trkpt lat="43.0770233" lon="11.5466517"><ele>245.0</ele><time>2026-04-06T14:36:18.825Z</time></trkpt><trkpt lat="43.0768617" lon="11.54669"><ele>246.0</ele><time>2026-04-06T14:36:19.83Z</time></trkpt><trkpt lat="43.0766933" lon="11.546725"><ele>247.33333333333331</ele><time>2026-04-06T14:36:20.829Z</time></trkpt><trkpt lat="43.07652" lon="11.5467667"><ele>248.66666666666666</ele><time>2026-04-06T14:36:21.826Z</time></trkpt><trkpt lat="43.0763433" lon="11.5468067"><ele>250.0</ele><time>2026-04-06T14:36:22.83Z</time></trkpt><trkpt lat="43.0761767" lon="11.5468467"><ele>250.0</ele><time>2026-04-06T14:36:23.826Z</time></trkpt><trkpt lat="43.07602" lon="11.5468867"><ele>250.0</ele><time>2026-04-06T14:36:24.829Z</time></trkpt><trkpt lat="43.07587" lon="11.5469233"><ele>250.0</ele><time>2026-04-06T14:36:25.826Z</time></trkpt><trkpt lat="43.0757233" lon="11.5469617"><ele>249.25</ele><time>2026-04-06T14:36:26.826Z</time></trkpt><trkpt lat="43.0755767" lon="11.546995"><ele>248.5</ele><time>2026-04-06T14:36:27.829Z</time></trkpt><trkpt lat="43.0754333" lon="11.547025"><ele>247.75</ele><time>2026-04-06T14:36:28.826Z</time></trkpt><trkpt lat="43.0752867" lon="11.5470583"><ele>247.0</ele><time>2026-04-06T14:36:29.827Z</time></trkpt><trkpt lat="43.0751367" lon="11.54709"><ele>247.0</ele><time>2026-04-06T14:36:30.825Z</time></trkpt><trkpt lat="43.074985" lon="11.5471233"><ele>247.0</ele><time>2026-04-06T14:36:31.831Z</time></trkpt><trkpt lat="43.0748317" lon="11.5471633"><ele>247.0</ele><time>2026-04-06T14:36:32.824Z</time></trkpt><trkpt lat="43.0746767" lon="11.5472067"><ele>247.66666666666666</ele><time>2026-04-06T14:36:33.826Z</time></trkpt><trkpt lat="43.07452" lon="11.5472483"><ele>248.33333333333331</ele><time>2026-04-06T14:36:34.824Z</time></trkpt><trkpt lat="43.07436" lon="11.5472883"><ele>249.0</ele><time>2026-04-06T14:36:35.827Z</time></trkpt><trkpt lat="43.0742033" lon="11.5473333"><ele>248.66666666666669</ele><time>2026-04-06T14:36:36.826Z</time></trkpt><trkpt lat="43.0740467" lon="11.5473733"><ele>248.33333333333334</ele><time>2026-04-06T14:36:37.829Z</time></trkpt><trkpt lat="43.07389" lon="11.5474167"><ele>248.0</ele><time>2026-04-06T14:36:38.827Z</time></trkpt><trkpt lat="43.07373" lon="11.54745"><ele>248.0</ele><time>2026-04-06T14:36:39.825Z</time></trkpt><trkpt lat="43.0735667" lon="11.5474733"><ele>248.0</ele><time>2026-04-06T14:36:40.827Z</time></trkpt><trkpt lat="43.073405" lon="11.5474867"><ele>248.0</ele><time>2026-04-06T14:36:41.824Z</time></trkpt><trkpt lat="43.0732417" lon="11.5474917"><ele>247.0</ele><time>2026-04-06T14:36:42.826Z</time></trkpt><trkpt lat="43.073085" lon="11.5474933"><ele>246.0</ele><time>2026-04-06T14:36:43.824Z</time></trkpt><trkpt lat="43.072955" lon="11.5474917"><ele>245.0</ele><time>2026-04-06T14:36:44.824Z</time></trkpt><trkpt lat="43.0728367" lon="11.547485"><ele>244.0</ele><time>2026-04-06T14:36:45.826Z</time></trkpt><trkpt lat="43.0727217" lon="11.5474717"><ele>244.0</ele><time>2026-04-06T14:36:46.829Z</time></trkpt><trkpt lat="43.0726" lon="11.5474583"><ele>244.0</ele><time>2026-04-06T14:36:47.825Z</time></trkpt><trkpt lat="43.0724683" lon="11.5474417"><ele>244.0</ele><time>2026-04-06T14:36:48.828Z</time></trkpt><trkpt lat="43.072325" lon="11.547415"><ele>244.0</ele><time>2026-04-06T14:36:49.825Z</time></trkpt><trkpt lat="43.0721767" lon="11.5473783"><ele>243.0</ele><time>2026-04-06T14:36:50.828Z</time></trkpt><trkpt lat="43.0720267" lon="11.5473383"><ele>242.0</ele><time>2026-04-06T14:36:51.83Z</time></trkpt><trkpt lat="43.0718717" lon="11.5472933"><ele>241.0</ele><time>2026-04-06T14:36:52.827Z</time></trkpt><trkpt lat="43.071725" lon="11.54725"><ele>241.25</ele><time>2026-04-06T14:36:53.825Z</time></trkpt><trkpt lat="43.0715883" lon="11.5472067"><ele>241.5</ele><time>2026-04-06T14:36:54.826Z</time></trkpt><trkpt lat="43.0714567" lon="11.5471683"><ele>241.75</ele><time>2026-04-06T14:36:55.831Z</time></trkpt><trkpt lat="43.07133" lon="11.54713"><ele>242.0</ele><time>2026-04-06T14:36:56.83Z</time></trkpt><trkpt lat="43.071205" lon="11.54709"><ele>242.0</ele><time>2026-04-06T14:36:57.825Z</time></trkpt><trkpt lat="43.0710767" lon="11.547045"><ele>242.0</ele><time>2026-04-06T14:36:58.828Z</time></trkpt><trkpt lat="43.070945" lon="11.5470033"><ele>242.0</ele><time>2026-04-06T14:36:59.829Z</time></trkpt><trkpt lat="43.0708083" lon="11.5469633"><ele>242.0</ele><time>2026-04-06T14:37:00.838Z</time></trkpt><trkpt lat="43.0706683" lon="11.5469283"><ele>242.25</ele><time>2026-04-06T14:37:01.827Z</time></trkpt><trkpt lat="43.07053" lon="11.5469"><ele>242.5</ele><time>2026-04-06T14:37:02.83Z</time></trkpt><trkpt lat="43.070395" lon="11.5468733"><ele>242.75</ele><time>2026-04-06T14:37:03.827Z</time></trkpt><trkpt lat="43.0702583" lon="11.54685"><ele>243.0</ele><time>2026-04-06T14:37:04.831Z</time></trkpt><trkpt lat="43.0701267" lon="11.5468317"><ele>243.0</ele><time>2026-04-06T14:37:05.83Z</time></trkpt><trkpt lat="43.069995" lon="11.5468183"><ele>243.0</ele><time>2026-04-06T14:37:06.828Z</time></trkpt><trkpt lat="43.0698583" lon="11.54681"><ele>243.0</ele><time>2026-04-06T14:37:07.824Z</time></trkpt><trkpt lat="43.0697217" lon="11.5468117"><ele>243.0</ele><time>2026-04-06T14:37:08.827Z</time></trkpt><trkpt lat="43.069585" lon="11.5468217"><ele>243.75</ele><time>2026-04-06T14:37:09.823Z</time></trkpt><trkpt lat="43.0694467" lon="11.5468317"><ele>244.5</ele><time>2026-04-06T14:37:10.831Z</time></trkpt><trkpt lat="43.0693083" lon="11.5468533"><ele>245.25</ele><time>2026-04-06T14:37:11.829Z</time></trkpt><trkpt lat="43.06917" lon="11.54688"><ele>246.0</ele><time>2026-04-06T14:37:12.824Z</time></trkpt><trkpt lat="43.0690333" lon="11.54691"><ele>246.0</ele><time>2026-04-06T14:37:13.824Z</time></trkpt><trkpt lat="43.068895" lon="11.5469483"><ele>246.0</ele><time>2026-04-06T14:37:14.829Z</time></trkpt><trkpt lat="43.0687617" lon="11.54699"><ele>246.0</ele><time>2026-04-06T14:37:15.829Z</time></trkpt><trkpt lat="43.06863" lon="11.5470383"><ele>246.0</ele><time>2026-04-06T14:37:16.826Z</time></trkpt><trkpt lat="43.0684917" lon="11.5470917"><ele>244.66666666666669</ele><time>2026-04-06T14:37:17.826Z</time></trkpt><trkpt lat="43.0683433" lon="11.547155"><ele>243.33333333333334</ele><time>2026-04-06T14:37:18.825Z</time></trkpt><trkpt lat="43.0681867" lon="11.5472267"><ele>242.0</ele><time>2026-04-06T14:37:19.827Z</time></trkpt><trkpt lat="43.0680217" lon="11.5473183"><ele>241.0</ele><time>2026-04-06T14:37:20.827Z</time></trkpt><trkpt lat="43.06785" lon="11.5474267"><ele>240.0</ele><time>2026-04-06T14:37:21.828Z</time></trkpt><trkpt lat="43.06768" lon="11.54755"><ele>239.0</ele><time>2026-04-06T14:37:22.827Z</time></trkpt><trkpt lat="43.0675133" lon="11.5476883"><ele>239.33333333333334</ele><time>2026-04-06T14:37:23.833Z</time></trkpt><trkpt lat="43.0673517" lon="11.5478283"><ele>239.66666666666669</ele><time>2026-04-06T14:37:24.826Z</time></trkpt><trkpt lat="43.0671933" lon="11.5479733"><ele>240.0</ele><time>2026-04-06T14:37:25.829Z</time></trkpt><trkpt lat="43.0670433" lon="11.5481333"><ele>240.33333333333331</ele><time>2026-04-06T14:37:26.826Z</time></trkpt><trkpt lat="43.0668967" lon="11.5483"><ele>240.66666666666666</ele><time>2026-04-06T14:37:27.824Z</time></trkpt><trkpt lat="43.0667567" lon="11.54847"><ele>241.0</ele><time>2026-04-06T14:37:28.825Z</time></trkpt><trkpt lat="43.06663" lon="11.5486533"><ele>240.0</ele><time>2026-04-06T14:37:29.827Z</time></trkpt><trkpt lat="43.0665117" lon="11.5488317"><ele>239.0</ele><time>2026-04-06T14:37:30.828Z</time></trkpt><trkpt lat="43.066405" lon="11.54902"><ele>238.0</ele><time>2026-04-06T14:37:31.826Z</time></trkpt><trkpt lat="43.0663" lon="11.5492117"><ele>238.0</ele><time>2026-04-06T14:37:32.826Z</time></trkpt><trkpt lat="43.0661967" lon="11.5494067"><ele>238.0</ele><time>2026-04-06T14:37:33.828Z</time></trkpt><trkpt lat="43.0660917" lon="11.5496083"><ele>238.0</ele><time>2026-04-06T14:37:34.828Z</time></trkpt><trkpt lat="43.0660117" lon="11.549805"><ele>237.66666666666666</ele><time>2026-04-06T14:37:35.828Z</time></trkpt><trkpt lat="43.0659283" lon="11.550005"><ele>237.33333333333331</ele><time>2026-04-06T14:37:36.829Z</time></trkpt><trkpt lat="43.0658517" lon="11.5502117"><ele>237.0</ele><time>2026-04-06T14:37:37.827Z</time></trkpt><trkpt lat="43.065775" lon="11.5504183"><ele>235.33333333333331</ele><time>2026-04-06T14:37:38.825Z</time></trkpt><trkpt lat="43.0657017" lon="11.5506233"><ele>233.66666666666666</ele><time>2026-04-06T14:37:39.829Z</time></trkpt><trkpt lat="43.0656317" lon="11.5508267"><ele>232.0</ele><time>2026-04-06T14:37:40.824Z</time></trkpt><trkpt lat="43.065565" lon="11.5510317"><ele>232.33333333333331</ele><time>2026-04-06T14:37:41.827Z</time></trkpt><trkpt lat="43.0655017" lon="11.55124"><ele>232.66666666666669</ele><time>2026-04-06T14:37:42.826Z</time></trkpt><trkpt lat="43.06544" lon="11.5514467"><ele>233.0</ele><time>2026-04-06T14:37:43.825Z</time></trkpt><trkpt lat="43.0653767" lon="11.5516567"><ele>233.0</ele><time>2026-04-06T14:37:44.825Z</time></trkpt><trkpt lat="43.0653133" lon="11.551865"><ele>233.0</ele><time>2026-04-06T14:37:45.827Z</time></trkpt><trkpt lat="43.0652483" lon="11.5520817"><ele>233.0</ele><time>2026-04-06T14:37:46.824Z</time></trkpt><trkpt lat="43.06518" lon="11.5523083"><ele>233.66666666666669</ele><time>2026-04-06T14:37:47.827Z</time></trkpt><trkpt lat="43.0651067" lon="11.552535"><ele>234.33333333333331</ele><time>2026-04-06T14:37:48.825Z</time></trkpt><trkpt lat="43.0650317" lon="11.5527733"><ele>235.0</ele><time>2026-04-06T14:37:49.829Z</time></trkpt><trkpt lat="43.0649517" lon="11.5530233"><ele>235.0</ele><time>2026-04-06T14:37:50.828Z</time></trkpt><trkpt lat="43.06487" lon="11.5532767"><ele>235.0</ele><time>2026-04-06T14:37:51.828Z</time></trkpt><trkpt lat="43.0647917" lon="11.553525"><ele>235.0</ele><time>2026-04-06T14:37:52.826Z</time></trkpt><trkpt lat="43.0647133" lon="11.5537633"><ele>237.0</ele><time>2026-04-06T14:37:53.832Z</time></trkpt><trkpt lat="43.0646367" lon="11.553995"><ele>239.0</ele><time>2026-04-06T14:37:54.833Z</time></trkpt><trkpt lat="43.0645667" lon="11.5542317"><ele>241.0</ele><time>2026-04-06T14:37:55.828Z</time></trkpt><trkpt lat="43.0644983" lon="11.5544683"><ele>244.0</ele><time>2026-04-06T14:37:56.827Z</time></trkpt><trkpt lat="43.064435" lon="11.55471"><ele>247.0</ele><time>2026-04-06T14:37:57.825Z</time></trkpt><trkpt lat="43.0643767" lon="11.5549583"><ele>250.0</ele><time>2026-04-06T14:37:58.831Z</time></trkpt><trkpt lat="43.0643233" lon="11.555215"><ele>250.0</ele><time>2026-04-06T14:37:59.824Z</time></trkpt><trkpt lat="43.0642717" lon="11.5554817"><ele>250.0</ele><time>2026-04-06T14:38:00.826Z</time></trkpt><trkpt lat="43.0642267" lon="11.555755"><ele>250.0</ele><time>2026-04-06T14:38:01.825Z</time></trkpt><trkpt lat="43.0641883" lon="11.55602"><ele>249.0</ele><time>2026-04-06T14:38:02.824Z</time></trkpt><trkpt lat="43.06416" lon="11.55627"><ele>248.0</ele><time>2026-04-06T14:38:03.832Z</time></trkpt><trkpt lat="43.0641383" lon="11.556505"><ele>247.0</ele><time>2026-04-06T14:38:04.827Z</time></trkpt><trkpt lat="43.0641217" lon="11.5567317"><ele>245.33333333333331</ele><time>2026-04-06T14:38:05.825Z</time></trkpt><trkpt lat="43.0641033" lon="11.556955"><ele>243.66666666666669</ele><time>2026-04-06T14:38:06.826Z</time></trkpt><trkpt lat="43.064085" lon="11.557175"><ele>242.0</ele><time>2026-04-06T14:38:07.826Z</time></trkpt><trkpt lat="43.064065" lon="11.5573917"><ele>242.0</ele><time>2026-04-06T14:38:08.837Z</time></trkpt><trkpt lat="43.06405" lon="11.5576067"><ele>242.0</ele><time>2026-04-06T14:38:09.829Z</time></trkpt><trkpt lat="43.0640333" lon="11.5578167"><ele>242.0</ele><time>2026-04-06T14:38:10.826Z</time></trkpt><trkpt lat="43.0640183" lon="11.5580217"><ele>243.5</ele><time>2026-04-06T14:38:11.825Z</time></trkpt><trkpt lat="43.0640033" lon="11.5582233"><ele>245.0</ele><time>2026-04-06T14:38:12.827Z</time></trkpt><trkpt lat="43.06399" lon="11.558425"><ele>246.5</ele><time>2026-04-06T14:38:13.83Z</time></trkpt><trkpt lat="43.0639783" lon="11.5586267"><ele>248.0</ele><time>2026-04-06T14:38:14.829Z</time></trkpt><trkpt lat="43.0639667" lon="11.5588267"><ele>249.0</ele><time>2026-04-06T14:38:15.823Z</time></trkpt><trkpt lat="43.063955" lon="11.5590267"><ele>250.0</ele><time>2026-04-06T14:38:16.824Z</time></trkpt><trkpt lat="43.063945" lon="11.559225"><ele>251.0</ele><time>2026-04-06T14:38:17.831Z</time></trkpt><trkpt lat="43.0639317" lon="11.559425"><ele>252.0</ele><time>2026-04-06T14:38:18.827Z</time></trkpt><trkpt lat="43.063915" lon="11.559635"><ele>254.33333333333331</ele><time>2026-04-06T14:38:19.828Z</time></trkpt><trkpt lat="43.0638983" lon="11.559855"><ele>256.66666666666663</ele><time>2026-04-06T14:38:20.829Z</time></trkpt><trkpt lat="43.0638817" lon="11.56009"><ele>259.0</ele><time>2026-04-06T14:38:21.828Z</time></trkpt><trkpt lat="43.0638617" lon="11.560335"><ele>260.0</ele><time>2026-04-06T14:38:22.826Z</time></trkpt><trkpt lat="43.0638417" lon="11.5605883"><ele>261.0</ele><time>2026-04-06T14:38:23.83Z</time></trkpt><trkpt lat="43.0638233" lon="11.5608483"><ele>262.0</ele><time>2026-04-06T14:38:24.829Z</time></trkpt><trkpt lat="43.0638083" lon="11.5611183"><ele>259.0</ele><time>2026-04-06T14:38:25.826Z</time></trkpt><trkpt lat="43.06379" lon="11.5613933"><ele>256.0</ele><time>2026-04-06T14:38:26.826Z</time></trkpt><trkpt lat="43.0637733" lon="11.5616717"><ele>253.0</ele><time>2026-04-06T14:38:27.827Z</time></trkpt><trkpt lat="43.0637567" lon="11.5619467"><ele>250.66666666666666</ele><time>2026-04-06T14:38:28.827Z</time></trkpt><trkpt lat="43.0637417" lon="11.5622217"><ele>248.33333333333331</ele><time>2026-04-06T14:38:29.828Z</time></trkpt><trkpt lat="43.0637317" lon="11.5624983"><ele>246.0</ele><time>2026-04-06T14:38:30.826Z</time></trkpt><trkpt lat="43.0637317" lon="11.5627733"><ele>245.0</ele><time>2026-04-06T14:38:31.831Z</time></trkpt><trkpt lat="43.0637433" lon="11.563035"><ele>244.0</ele><time>2026-04-06T14:38:32.832Z</time></trkpt><trkpt lat="43.063755" lon="11.5632883"><ele>243.0</ele><time>2026-04-06T14:38:33.833Z</time></trkpt><trkpt lat="43.06377" lon="11.56354"><ele>243.33333333333331</ele><time>2026-04-06T14:38:34.825Z</time></trkpt><trkpt lat="43.0637967" lon="11.5637933"><ele>243.66666666666666</ele><time>2026-04-06T14:38:35.826Z</time></trkpt><trkpt lat="43.0638333" lon="11.5640517"><ele>244.0</ele><time>2026-04-06T14:38:36.833Z</time></trkpt><trkpt lat="43.06388" lon="11.56431"><ele>244.33333333333331</ele><time>2026-04-06T14:38:37.827Z</time></trkpt><trkpt lat="43.063935" lon="11.5645667"><ele>244.66666666666669</ele><time>2026-04-06T14:38:38.829Z</time></trkpt><trkpt lat="43.0639967" lon="11.5648267"><ele>245.0</ele><time>2026-04-06T14:38:39.829Z</time></trkpt><trkpt lat="43.0640667" lon="11.5650767"><ele>247.0</ele><time>2026-04-06T14:38:40.823Z</time></trkpt><trkpt lat="43.0641417" lon="11.56532"><ele>249.0</ele><time>2026-04-06T14:38:41.827Z</time></trkpt><trkpt lat="43.06422" lon="11.5655533"><ele>251.0</ele><time>2026-04-06T14:38:42.828Z</time></trkpt><trkpt lat="43.0643017" lon="11.5657783"><ele>251.0</ele><time>2026-04-06T14:38:43.831Z</time></trkpt><trkpt lat="43.0643917" lon="11.5659967"><ele>251.0</ele><time>2026-04-06T14:38:44.83Z</time></trkpt><trkpt lat="43.0644933" lon="11.5662067"><ele>251.0</ele><time>2026-04-06T14:38:45.827Z</time></trkpt><trkpt lat="43.0645917" lon="11.5664083"><ele>249.66666666666669</ele><time>2026-04-06T14:38:46.824Z</time></trkpt><trkpt lat="43.0646967" lon="11.566605"><ele>248.33333333333331</ele><time>2026-04-06T14:38:47.829Z</time></trkpt><trkpt lat="43.064805" lon="11.5667967"><ele>247.0</ele><time>2026-04-06T14:38:48.825Z</time></trkpt><trkpt lat="43.0649183" lon="11.5669817"><ele>246.33333333333331</ele><time>2026-04-06T14:38:49.825Z</time></trkpt><trkpt lat="43.0650317" lon="11.5671667"><ele>245.66666666666669</ele><time>2026-04-06T14:38:50.83Z</time></trkpt><trkpt lat="43.0651483" lon="11.56735"><ele>245.0</ele><time>2026-04-06T14:38:51.826Z</time></trkpt><trkpt lat="43.0652683" lon="11.5675267"><ele>245.0</ele><time>2026-04-06T14:38:52.833Z</time></trkpt><trkpt lat="43.065385" lon="11.5677117"><ele>245.0</ele><time>2026-04-06T14:38:53.827Z</time></trkpt><trkpt lat="43.065505" lon="11.567895"><ele>245.0</ele><time>2026-04-06T14:38:54.834Z</time></trkpt><trkpt lat="43.0656333" lon="11.5680683"><ele>244.66666666666669</ele><time>2026-04-06T14:38:55.825Z</time></trkpt><trkpt lat="43.06576" lon="11.5682467"><ele>244.33333333333331</ele><time>2026-04-06T14:38:56.83Z</time></trkpt><trkpt lat="43.0658867" lon="11.56842"><ele>244.0</ele><time>2026-04-06T14:38:57.826Z</time></trkpt><trkpt lat="43.06601" lon="11.5685917"><ele>243.66666666666666</ele><time>2026-04-06T14:38:58.827Z</time></trkpt><trkpt lat="43.0661317" lon="11.5687633"><ele>243.33333333333331</ele><time>2026-04-06T14:38:59.824Z</time></trkpt><trkpt lat="43.0662517" lon="11.568935"><ele>243.0</ele><time>2026-04-06T14:39:00.826Z</time></trkpt><trkpt lat="43.06637" lon="11.5691083"><ele>243.0</ele><time>2026-04-06T14:39:01.826Z</time></trkpt><trkpt lat="43.0664933" lon="11.5692783"><ele>243.0</ele><time>2026-04-06T14:39:02.831Z</time></trkpt><trkpt lat="43.0666133" lon="11.5694533"><ele>243.0</ele><time>2026-04-06T14:39:03.826Z</time></trkpt><trkpt lat="43.0667367" lon="11.5696283"><ele>244.66666666666669</ele><time>2026-04-06T14:39:04.827Z</time></trkpt><trkpt lat="43.0668617" lon="11.5698017"><ele>246.33333333333334</ele><time>2026-04-06T14:39:05.824Z</time></trkpt><trkpt lat="43.06699" lon="11.5699733"><ele>248.0</ele><time>2026-04-06T14:39:06.829Z</time></trkpt><trkpt lat="43.0671167" lon="11.57015"><ele>248.0</ele><time>2026-04-06T14:39:07.828Z</time></trkpt><trkpt lat="43.0672417" lon="11.570325"><ele>248.0</ele><time>2026-04-06T14:39:08.826Z</time></trkpt><trkpt lat="43.067365" lon="11.5705017"><ele>248.0</ele><time>2026-04-06T14:39:09.825Z</time></trkpt><trkpt lat="43.06749" lon="11.57068"><ele>248.33333333333334</ele><time>2026-04-06T14:39:10.825Z</time></trkpt><trkpt lat="43.067615" lon="11.5708583"><ele>248.66666666666669</ele><time>2026-04-06T14:39:11.829Z</time></trkpt><trkpt lat="43.0677383" lon="11.5710367"><ele>249.0</ele><time>2026-04-06T14:39:12.827Z</time></trkpt><trkpt lat="43.0678617" lon="11.5712117"><ele>247.0</ele><time>2026-04-06T14:39:13.828Z</time></trkpt><trkpt lat="43.0679833" lon="11.5713833"><ele>245.0</ele><time>2026-04-06T14:39:14.825Z</time></trkpt><trkpt lat="43.0681033" lon="11.5715567"><ele>243.0</ele><time>2026-04-06T14:39:15.825Z</time></trkpt><trkpt lat="43.0682233" lon="11.5717317"><ele>243.66666666666669</ele><time>2026-04-06T14:39:16.829Z</time></trkpt><trkpt lat="43.06834" lon="11.57191"><ele>244.33333333333334</ele><time>2026-04-06T14:39:17.834Z</time></trkpt><trkpt lat="43.0684567" lon="11.572095"><ele>245.0</ele><time>2026-04-06T14:39:18.826Z</time></trkpt><trkpt lat="43.0685717" lon="11.5722767"><ele>245.0</ele><time>2026-04-06T14:39:19.825Z</time></trkpt><trkpt lat="43.0686833" lon="11.5724617"><ele>245.0</ele><time>2026-04-06T14:39:20.828Z</time></trkpt><trkpt lat="43.0687967" lon="11.572645"><ele>245.0</ele><time>2026-04-06T14:39:21.826Z</time></trkpt><trkpt lat="43.06891" lon="11.5728317"><ele>245.33333333333334</ele><time>2026-04-06T14:39:22.828Z</time></trkpt><trkpt lat="43.06902" lon="11.5730267"><ele>245.66666666666669</ele><time>2026-04-06T14:39:23.829Z</time></trkpt><trkpt lat="43.0691333" lon="11.5732333"><ele>246.0</ele><time>2026-04-06T14:39:24.826Z</time></trkpt><trkpt lat="43.0692467" lon="11.57345"><ele>246.0</ele><time>2026-04-06T14:39:25.829Z</time></trkpt><trkpt lat="43.069355" lon="11.57368"><ele>246.0</ele><time>2026-04-06T14:39:26.828Z</time></trkpt><trkpt lat="43.0694633" lon="11.5739267"><ele>246.0</ele><time>2026-04-06T14:39:27.829Z</time></trkpt><trkpt lat="43.06957" lon="11.574195"><ele>245.5</ele><time>2026-04-06T14:39:28.829Z</time></trkpt><trkpt lat="43.069675" lon="11.5744833"><ele>245.0</ele><time>2026-04-06T14:39:29.825Z</time></trkpt><trkpt lat="43.0697783" lon="11.5747783"><ele>245.0</ele><time>2026-04-06T14:39:30.824Z</time></trkpt><trkpt lat="43.06987" lon="11.5750833"><ele>245.0</ele><time>2026-04-06T14:39:31.827Z</time></trkpt><trkpt lat="43.0699567" lon="11.575395"><ele>246.5</ele><time>2026-04-06T14:39:32.828Z</time></trkpt><trkpt lat="43.07003" lon="11.5757133"><ele>248.0</ele><time>2026-04-06T14:39:33.83Z</time></trkpt><trkpt lat="43.0700917" lon="11.5760383"><ele>249.0</ele><time>2026-04-06T14:39:34.831Z</time></trkpt><trkpt lat="43.07014" lon="11.5763783"><ele>250.0</ele><time>2026-04-06T14:39:35.826Z</time></trkpt><trkpt lat="43.07018" lon="11.5767367"><ele>253.5</ele><time>2026-04-06T14:39:36.832Z</time></trkpt><trkpt lat="43.0701933" lon="11.57711"><ele>257.0</ele><time>2026-04-06T14:39:37.828Z</time></trkpt><trkpt lat="43.0701917" lon="11.5774733"><ele>257.0</ele><time>2026-04-06T14:39:38.828Z</time></trkpt><trkpt lat="43.0701817" lon="11.5778083"><ele>257.0</ele><time>2026-04-06T14:39:39.826Z</time></trkpt><trkpt lat="43.0701683" lon="11.5781133"><ele>259.6666666666667</ele><time>2026-04-06T14:39:40.824Z</time></trkpt><trkpt lat="43.0701383" lon="11.5783917"><ele>262.3333333333333</ele><time>2026-04-06T14:39:41.827Z</time></trkpt><trkpt lat="43.0701" lon="11.5786517"><ele>265.0</ele><time>2026-04-06T14:39:42.825Z</time></trkpt><trkpt lat="43.0700533" lon="11.5788983"><ele>268.0</ele><time>2026-04-06T14:39:43.826Z</time></trkpt><trkpt lat="43.0699967" lon="11.5791367"><ele>271.0</ele><time>2026-04-06T14:39:44.824Z</time></trkpt><trkpt lat="43.069935" lon="11.57937"><ele>274.0</ele><time>2026-04-06T14:39:45.828Z</time></trkpt><trkpt lat="43.0698683" lon="11.5796"><ele>277.66666666666663</ele><time>2026-04-06T14:39:46.83Z</time></trkpt><trkpt lat="43.0697967" lon="11.5798267"><ele>281.3333333333333</ele><time>2026-04-06T14:39:47.822Z</time></trkpt><trkpt lat="43.06972" lon="11.5800483"><ele>285.0</ele><time>2026-04-06T14:39:48.826Z</time></trkpt><trkpt lat="43.069635" lon="11.5802667"><ele>286.0</ele><time>2026-04-06T14:39:49.834Z</time></trkpt><trkpt lat="43.0695467" lon="11.5804733"><ele>287.0</ele><time>2026-04-06T14:39:50.826Z</time></trkpt><trkpt lat="43.0694483" lon="11.58066"><ele>288.0</ele><time>2026-04-06T14:39:51.827Z</time></trkpt><trkpt lat="43.0693567" lon="11.5808433"><ele>288.0</ele><time>2026-04-06T14:39:52.825Z</time></trkpt><trkpt lat="43.0692583" lon="11.5810183"><ele>288.0</ele><time>2026-04-06T14:39:53.825Z</time></trkpt><trkpt lat="43.0691533" lon="11.58119"><ele>288.0</ele><time>2026-04-06T14:39:54.824Z</time></trkpt><trkpt lat="43.0690417" lon="11.5813583"><ele>291.3333333333333</ele><time>2026-04-06T14:39:55.833Z</time></trkpt><trkpt lat="43.06893" lon="11.5815233"><ele>294.66666666666663</ele><time>2026-04-06T14:39:56.83Z</time></trkpt><trkpt lat="43.0688167" lon="11.58168"><ele>298.0</ele><time>2026-04-06T14:39:57.827Z</time></trkpt><trkpt lat="43.06871" lon="11.581835"><ele>298.0</ele><time>2026-04-06T14:39:58.825Z</time></trkpt><trkpt lat="43.0686" lon="11.58198"><ele>298.0</ele><time>2026-04-06T14:39:59.825Z</time></trkpt><trkpt lat="43.068485" lon="11.5821167"><ele>298.0</ele><time>2026-04-06T14:40:00.829Z</time></trkpt><trkpt lat="43.0683733" lon="11.582255"><ele>300.66666666666663</ele><time>2026-04-06T14:40:01.83Z</time></trkpt><trkpt lat="43.0682533" lon="11.5823817"><ele>303.3333333333333</ele><time>2026-04-06T14:40:02.828Z</time></trkpt><trkpt lat="43.0681267" lon="11.5825067"><ele>306.0</ele><time>2026-04-06T14:40:03.826Z</time></trkpt><trkpt lat="43.067995" lon="11.5826217"><ele>306.0</ele><time>2026-04-06T14:40:04.825Z</time></trkpt><trkpt lat="43.0678567" lon="11.5827383"><ele>306.0</ele><time>2026-04-06T14:40:05.828Z</time></trkpt><trkpt lat="43.06772" lon="11.5828633"><ele>306.0</ele><time>2026-04-06T14:40:06.827Z</time></trkpt><trkpt lat="43.06758" lon="11.5829817"><ele>307.0</ele><time>2026-04-06T14:40:07.831Z</time></trkpt><trkpt lat="43.0674367" lon="11.5830883"><ele>308.0</ele><time>2026-04-06T14:40:08.825Z</time></trkpt><trkpt lat="43.0672933" lon="11.583195"><ele>309.0</ele><time>2026-04-06T14:40:09.825Z</time></trkpt><trkpt lat="43.067145" lon="11.5832933"><ele>309.0</ele><time>2026-04-06T14:40:10.827Z</time></trkpt><trkpt lat="43.066995" lon="11.5833917"><ele>309.0</ele><time>2026-04-06T14:40:11.823Z</time></trkpt><trkpt lat="43.0668467" lon="11.5834917"><ele>309.0</ele><time>2026-04-06T14:40:12.824Z</time></trkpt><trkpt lat="43.0666967" lon="11.5835917"><ele>308.3333333333333</ele><time>2026-04-06T14:40:13.826Z</time></trkpt><trkpt lat="43.0665433" lon="11.583685"><ele>307.66666666666663</ele><time>2026-04-06T14:40:14.828Z</time></trkpt><trkpt lat="43.0663917" lon="11.5837733"><ele>307.0</ele><time>2026-04-06T14:40:15.836Z</time></trkpt><trkpt lat="43.06624" lon="11.5838617"><ele>307.0</ele><time>2026-04-06T14:40:16.827Z</time></trkpt><trkpt lat="43.0660867" lon="11.5839517"><ele>307.0</ele><time>2026-04-06T14:40:17.825Z</time></trkpt><trkpt lat="43.0659283" lon="11.584045"><ele>307.0</ele><time>2026-04-06T14:40:18.827Z</time></trkpt><trkpt lat="43.0657733" lon="11.5841333"><ele>310.0</ele><time>2026-04-06T14:40:19.823Z</time></trkpt><trkpt lat="43.0656217" lon="11.5842217"><ele>313.0</ele><time>2026-04-06T14:40:20.842Z</time></trkpt><trkpt lat="43.0654717" lon="11.58431"><ele>316.0</ele><time>2026-04-06T14:40:21.828Z</time></trkpt><trkpt lat="43.0653233" lon="11.5843967"><ele>316.0</ele><time>2026-04-06T14:40:22.826Z</time></trkpt><trkpt lat="43.0651733" lon="11.5844833"><ele>316.0</ele><time>2026-04-06T14:40:23.832Z</time></trkpt><trkpt lat="43.0650267" lon="11.58457"><ele>316.0</ele><time>2026-04-06T14:40:24.832Z</time></trkpt><trkpt lat="43.06488" lon="11.5846517"><ele>317.3333333333333</ele><time>2026-04-06T14:40:25.824Z</time></trkpt><trkpt lat="43.0647333" lon="11.5847383"><ele>318.6666666666667</ele><time>2026-04-06T14:40:26.828Z</time></trkpt><trkpt lat="43.064585" lon="11.5848283"><ele>320.0</ele><time>2026-04-06T14:40:27.823Z</time></trkpt><trkpt lat="43.0644383" lon="11.5849267"><ele>320.0</ele><time>2026-04-06T14:40:28.826Z</time></trkpt><trkpt lat="43.06429" lon="11.585025"><ele>320.0</ele><time>2026-04-06T14:40:29.828Z</time></trkpt><trkpt lat="43.0641433" lon="11.585125"><ele>320.0</ele><time>2026-04-06T14:40:30.83Z</time></trkpt><trkpt lat="43.0639933" lon="11.5852283"><ele>320.0</ele><time>2026-04-06T14:40:31.827Z</time></trkpt><trkpt lat="43.06385" lon="11.5853467"><ele>320.0</ele><time>2026-04-06T14:40:32.826Z</time></trkpt><trkpt lat="43.0637083" lon="11.585475"><ele>320.0</ele><time>2026-04-06T14:40:33.824Z</time></trkpt><trkpt lat="43.06357" lon="11.5856133"><ele>320.0</ele><time>2026-04-06T14:40:34.825Z</time></trkpt><trkpt lat="43.0634333" lon="11.5857583"><ele>320.0</ele><time>2026-04-06T14:40:35.827Z</time></trkpt><trkpt lat="43.0632983" lon="11.585905"><ele>320.0</ele><time>2026-04-06T14:40:36.824Z</time></trkpt><trkpt lat="43.0631717" lon="11.586065"><ele>322.33333333333337</ele><time>2026-04-06T14:40:37.823Z</time></trkpt><trkpt lat="43.06305" lon="11.5862333"><ele>324.6666666666667</ele><time>2026-04-06T14:40:38.828Z</time></trkpt><trkpt lat="43.0629333" lon="11.5864017"><ele>327.0</ele><time>2026-04-06T14:40:39.827Z</time></trkpt><trkpt lat="43.0628217" lon="11.5865783"><ele>327.0</ele><time>2026-04-06T14:40:40.831Z</time></trkpt><trkpt lat="43.0627133" lon="11.586765"><ele>327.0</ele><time>2026-04-06T14:40:41.836Z</time></trkpt><trkpt lat="43.062615" lon="11.5869533"><ele>327.0</ele><time>2026-04-06T14:40:42.828Z</time></trkpt><trkpt lat="43.06252" lon="11.5871483"><ele>330.6666666666667</ele><time>2026-04-06T14:40:43.823Z</time></trkpt><trkpt lat="43.0624317" lon="11.58735"><ele>334.33333333333337</ele><time>2026-04-06T14:40:44.828Z</time></trkpt><trkpt lat="43.0623483" lon="11.5875517"><ele>338.0</ele><time>2026-04-06T14:40:45.824Z</time></trkpt><trkpt lat="43.062275" lon="11.5877517"><ele>338.6666666666667</ele><time>2026-04-06T14:40:46.828Z</time></trkpt><trkpt lat="43.0622033" lon="11.58795"><ele>339.3333333333333</ele><time>2026-04-06T14:40:47.825Z</time></trkpt><trkpt lat="43.062135" lon="11.5881467"><ele>340.0</ele><time>2026-04-06T14:40:48.83Z</time></trkpt><trkpt lat="43.0620717" lon="11.588345"><ele>340.0</ele><time>2026-04-06T14:40:49.829Z</time></trkpt><trkpt lat="43.0620133" lon="11.5885433"><ele>340.0</ele><time>2026-04-06T14:40:50.828Z</time></trkpt><trkpt lat="43.0619517" lon="11.588735"><ele>340.0</ele><time>2026-04-06T14:40:51.83Z</time></trkpt><trkpt lat="43.0618883" lon="11.58892"><ele>339.75</ele><time>2026-04-06T14:40:52.826Z</time></trkpt><trkpt lat="43.0618267" lon="11.5891033"><ele>339.5</ele><time>2026-04-06T14:40:53.837Z</time></trkpt><trkpt lat="43.0617633" lon="11.589285"><ele>339.25</ele><time>2026-04-06T14:40:54.826Z</time></trkpt><trkpt lat="43.0616983" lon="11.589465"><ele>339.0</ele><time>2026-04-06T14:40:55.825Z</time></trkpt><trkpt lat="43.061625" lon="11.589635"><ele>342.25</ele><time>2026-04-06T14:40:56.825Z</time></trkpt><trkpt lat="43.06155" lon="11.5898083"><ele>345.5</ele><time>2026-04-06T14:40:57.825Z</time></trkpt><trkpt lat="43.06147" lon="11.5899717"><ele>348.75</ele><time>2026-04-06T14:40:58.83Z</time></trkpt><trkpt lat="43.0613933" lon="11.5901367"><ele>352.0</ele><time>2026-04-06T14:40:59.827Z</time></trkpt><trkpt lat="43.06131" lon="11.5903017"><ele>350.0</ele><time>2026-04-06T14:41:00.824Z</time></trkpt><trkpt lat="43.061225" lon="11.59047"><ele>348.0</ele><time>2026-04-06T14:41:01.823Z</time></trkpt><trkpt lat="43.06114" lon="11.59064"><ele>346.0</ele><time>2026-04-06T14:41:02.825Z</time></trkpt><trkpt lat="43.0610483" lon="11.5908017"><ele>346.0</ele><time>2026-04-06T14:41:03.825Z</time></trkpt><trkpt lat="43.06096" lon="11.5909667"><ele>346.0</ele><time>2026-04-06T14:41:04.823Z</time></trkpt><trkpt lat="43.06087" lon="11.5911433"><ele>346.0</ele><time>2026-04-06T14:41:05.825Z</time></trkpt><trkpt lat="43.06078" lon="11.591315"><ele>345.0</ele><time>2026-04-06T14:41:06.824Z</time></trkpt><trkpt lat="43.06069" lon="11.5914867"><ele>344.0</ele><time>2026-04-06T14:41:07.825Z</time></trkpt><trkpt lat="43.0606" lon="11.591665"><ele>343.0</ele><time>2026-04-06T14:41:08.828Z</time></trkpt><trkpt lat="43.060515" lon="11.591845"><ele>344.0</ele><time>2026-04-06T14:41:09.826Z</time></trkpt><trkpt lat="43.06043" lon="11.5920317"><ele>345.0</ele><time>2026-04-06T14:41:10.823Z</time></trkpt><trkpt lat="43.06035" lon="11.5922217"><ele>346.0</ele><time>2026-04-06T14:41:11.826Z</time></trkpt><trkpt lat="43.0602733" lon="11.592415"><ele>346.0</ele><time>2026-04-06T14:41:12.823Z</time></trkpt><trkpt lat="43.0601983" lon="11.5926133"><ele>346.0</ele><time>2026-04-06T14:41:13.824Z</time></trkpt><trkpt lat="43.0601317" lon="11.59281"><ele>346.0</ele><time>2026-04-06T14:41:14.827Z</time></trkpt><trkpt lat="43.0600683" lon="11.5930067"><ele>348.3333333333333</ele><time>2026-04-06T14:41:15.825Z</time></trkpt><trkpt lat="43.0600083" lon="11.5932083"><ele>350.6666666666667</ele><time>2026-04-06T14:41:16.823Z</time></trkpt><trkpt lat="43.0599533" lon="11.593415"><ele>353.0</ele><time>2026-04-06T14:41:17.825Z</time></trkpt><trkpt lat="43.0599083" lon="11.5936183"><ele>358.33333333333337</ele><time>2026-04-06T14:41:18.827Z</time></trkpt><trkpt lat="43.0598683" lon="11.59382"><ele>363.6666666666667</ele><time>2026-04-06T14:41:19.824Z</time></trkpt><trkpt lat="43.0598367" lon="11.5940217"><ele>369.0</ele><time>2026-04-06T14:41:20.828Z</time></trkpt><trkpt lat="43.05981" lon="11.5942233"><ele>369.0</ele><time>2026-04-06T14:41:21.825Z</time></trkpt><trkpt lat="43.0597833" lon="11.5944233"><ele>369.0</ele><time>2026-04-06T14:41:22.826Z</time></trkpt><trkpt lat="43.0597633" lon="11.5946217"><ele>369.0</ele><time>2026-04-06T14:41:23.83Z</time></trkpt><trkpt lat="43.0597483" lon="11.59482"><ele>369.0</ele><time>2026-04-06T14:41:24.825Z</time></trkpt><trkpt lat="43.0597417" lon="11.5950183"><ele>371.0</ele><time>2026-04-06T14:41:25.83Z</time></trkpt><trkpt lat="43.059735" lon="11.5952117"><ele>373.0</ele><time>2026-04-06T14:41:26.825Z</time></trkpt><trkpt lat="43.0597267" lon="11.595405"><ele>375.0</ele><time>2026-04-06T14:41:27.831Z</time></trkpt><trkpt lat="43.0597283" lon="11.5955933"><ele>377.0</ele><time>2026-04-06T14:41:28.825Z</time></trkpt><trkpt lat="43.059735" lon="11.5957767"><ele>377.75</ele><time>2026-04-06T14:41:29.827Z</time></trkpt><trkpt lat="43.0597467" lon="11.5959583"><ele>378.5</ele><time>2026-04-06T14:41:30.823Z</time></trkpt><trkpt lat="43.059755" lon="11.59614"><ele>379.25</ele><time>2026-04-06T14:41:31.824Z</time></trkpt><trkpt lat="43.059765" lon="11.5963267"><ele>380.0</ele><time>2026-04-06T14:41:32.826Z</time></trkpt><trkpt lat="43.0597767" lon="11.596515"><ele>380.25</ele><time>2026-04-06T14:41:33.831Z</time></trkpt><trkpt lat="43.05979" lon="11.5967033"><ele>380.5</ele><time>2026-04-06T14:41:34.825Z</time></trkpt><trkpt lat="43.0598" lon="11.596895"><ele>380.75</ele><time>2026-04-06T14:41:35.824Z</time></trkpt><trkpt lat="43.0598167" lon="11.59709"><ele>381.0</ele><time>2026-04-06T14:41:36.823Z</time></trkpt><trkpt lat="43.0598333" lon="11.5972883"><ele>381.0</ele><time>2026-04-06T14:41:37.828Z</time></trkpt><trkpt lat="43.0598567" lon="11.5974883"><ele>381.0</ele><time>2026-04-06T14:41:38.829Z</time></trkpt><trkpt lat="43.05988" lon="11.59769"><ele>381.0</ele><time>2026-04-06T14:41:39.825Z</time></trkpt><trkpt lat="43.0598983" lon="11.5978967"><ele>381.0</ele><time>2026-04-06T14:41:40.825Z</time></trkpt><trkpt lat="43.0599217" lon="11.5981"><ele>376.3333333333333</ele><time>2026-04-06T14:41:41.826Z</time></trkpt><trkpt lat="43.059955" lon="11.5983067"><ele>371.66666666666663</ele><time>2026-04-06T14:41:42.827Z</time></trkpt><trkpt lat="43.059995" lon="11.5985117"><ele>367.0</ele><time>2026-04-06T14:41:43.832Z</time></trkpt><trkpt lat="43.0600383" lon="11.598715"><ele>367.0</ele><time>2026-04-06T14:41:44.829Z</time></trkpt><trkpt lat="43.0600917" lon="11.5989117"><ele>367.0</ele><time>2026-04-06T14:41:45.823Z</time></trkpt><trkpt lat="43.0601467" lon="11.5991033"><ele>367.0</ele><time>2026-04-06T14:41:46.824Z</time></trkpt><trkpt lat="43.0602033" lon="11.599285"><ele>367.0</ele><time>2026-04-06T14:41:47.824Z</time></trkpt><trkpt lat="43.0602667" lon="11.5994633"><ele>369.5</ele><time>2026-04-06T14:41:48.832Z</time></trkpt><trkpt lat="43.06033" lon="11.5996367"><ele>372.0</ele><time>2026-04-06T14:41:49.826Z</time></trkpt><trkpt lat="43.0604017" lon="11.5998067"><ele>374.5</ele><time>2026-04-06T14:41:50.826Z</time></trkpt><trkpt lat="43.0604817" lon="11.5999733"><ele>377.0</ele><time>2026-04-06T14:41:51.825Z</time></trkpt><trkpt lat="43.0605583" lon="11.60014"><ele>377.0</ele><time>2026-04-06T14:41:52.824Z</time></trkpt><trkpt lat="43.06063" lon="11.6003067"><ele>377.0</ele><time>2026-04-06T14:41:53.827Z</time></trkpt><trkpt lat="43.060705" lon="11.60047"><ele>377.0</ele><time>2026-04-06T14:41:54.83Z</time></trkpt><trkpt lat="43.06078" lon="11.60063"><ele>377.0</ele><time>2026-04-06T14:41:55.827Z</time></trkpt><trkpt lat="43.0608533" lon="11.60078"><ele>378.75</ele><time>2026-04-06T14:41:56.823Z</time></trkpt><trkpt lat="43.0609217" lon="11.600925"><ele>380.5</ele><time>2026-04-06T14:41:57.828Z</time></trkpt><trkpt lat="43.0609917" lon="11.6010633"><ele>382.25</ele><time>2026-04-06T14:41:58.832Z</time></trkpt><trkpt lat="43.0610633" lon="11.6011917"><ele>384.0</ele><time>2026-04-06T14:41:59.828Z</time></trkpt><trkpt lat="43.0611233" lon="11.6013183"><ele>386.25</ele><time>2026-04-06T14:42:00.83Z</time></trkpt><trkpt lat="43.0611833" lon="11.60145"><ele>388.5</ele><time>2026-04-06T14:42:01.825Z</time></trkpt><trkpt lat="43.06124" lon="11.6015967"><ele>390.75</ele><time>2026-04-06T14:42:02.828Z</time></trkpt><trkpt lat="43.061285" lon="11.601755"><ele>393.0</ele><time>2026-04-06T14:42:03.829Z</time></trkpt><trkpt lat="43.06132" lon="11.6019233"><ele>395.0</ele><time>2026-04-06T14:42:04.823Z</time></trkpt><trkpt lat="43.0613533" lon="11.6021067"><ele>397.0</ele><time>2026-04-06T14:42:05.824Z</time></trkpt><trkpt lat="43.0613783" lon="11.6023"><ele>399.0</ele><time>2026-04-06T14:42:06.825Z</time></trkpt><trkpt lat="43.0614017" lon="11.60248"><ele>401.0</ele><time>2026-04-06T14:42:07.827Z</time></trkpt><trkpt lat="43.0614233" lon="11.6026433"><ele>401.0</ele><time>2026-04-06T14:42:08.829Z</time></trkpt><trkpt lat="43.0614433" lon="11.60279"><ele>401.0</ele><time>2026-04-06T14:42:09.826Z</time></trkpt><trkpt lat="43.0614633" lon="11.6029233"><ele>401.0</ele><time>2026-04-06T14:42:10.823Z</time></trkpt><trkpt lat="43.0614783" lon="11.603045"><ele>401.0</ele><time>2026-04-06T14:42:11.835Z</time></trkpt><trkpt lat="43.0614667" lon="11.603155"><ele>401.0</ele><time>2026-04-06T14:42:12.831Z</time></trkpt><trkpt lat="43.0614417" lon="11.6032533"><ele>402.0</ele><time>2026-04-06T14:42:13.826Z</time></trkpt><trkpt lat="43.0614067" lon="11.6033283"><ele>403.0</ele><time>2026-04-06T14:42:14.825Z</time></trkpt><trkpt lat="43.061345" lon="11.6033717"><ele>404.0</ele><time>2026-04-06T14:42:15.826Z</time></trkpt><trkpt lat="43.0612817" lon="11.6033867"><ele>405.0</ele><time>2026-04-06T14:42:16.824Z</time></trkpt><trkpt lat="43.061215" lon="11.603365"><ele>406.0</ele><time>2026-04-06T14:42:17.826Z</time></trkpt><trkpt lat="43.0611567" lon="11.6033267"><ele>407.0</ele><time>2026-04-06T14:42:18.826Z</time></trkpt><trkpt lat="43.0611033" lon="11.60326"><ele>408.0</ele><time>2026-04-06T14:42:19.824Z</time></trkpt><trkpt lat="43.0610733" lon="11.6031733"><ele>408.0</ele><time>2026-04-06T14:42:20.824Z</time></trkpt><trkpt lat="43.061085" lon="11.603005"><ele>408.0</ele><time>2026-04-06T14:42:22.827Z</time></trkpt><trkpt lat="43.0611067" lon="11.6029217"><ele>408.0</ele><time>2026-04-06T14:42:23.828Z</time></trkpt><trkpt lat="43.06114" lon="11.6028417"><ele>408.0</ele><time>2026-04-06T14:42:24.829Z</time></trkpt><trkpt lat="43.061175" lon="11.6027617"><ele>408.0</ele><time>2026-04-06T14:42:25.826Z</time></trkpt><trkpt lat="43.0612" lon="11.6026817"><ele>408.0</ele><time>2026-04-06T14:42:26.827Z</time></trkpt><trkpt lat="43.0612417" lon="11.6025467"><ele>406.8333333333333</ele><time>2026-04-06T14:42:28.825Z</time></trkpt><trkpt lat="43.0612433" lon="11.6024033"><ele>405.66666666666663</ele><time>2026-04-06T14:42:30.825Z</time></trkpt><trkpt lat="43.0612133" lon="11.602305"><ele>404.5</ele><time>2026-04-06T14:42:32.833Z</time></trkpt><trkpt lat="43.0611467" lon="11.6022317"><ele>403.3333333333333</ele><time>2026-04-06T14:42:34.826Z</time></trkpt><trkpt lat="43.0610867" lon="11.6022033"><ele>402.16666666666663</ele><time>2026-04-06T14:42:36.827Z</time></trkpt><trkpt lat="43.0610117" lon="11.6021533"><ele>401.0</ele><time>2026-04-06T14:42:39.825Z</time></trkpt><trkpt lat="43.0609317" lon="11.602135"><ele>401.0</ele><time>2026-04-06T14:42:41.826Z</time></trkpt><trkpt lat="43.0608383" lon="11.6020633"><ele>401.0</ele><time>2026-04-06T14:42:43.826Z</time></trkpt><trkpt lat="43.060755" lon="11.60199"><ele>401.0</ele><time>2026-04-06T14:42:45.828Z</time></trkpt><trkpt lat="43.060675" lon="11.6018767"><ele>401.0</ele><time>2026-04-06T14:42:47.829Z</time></trkpt><trkpt lat="43.0606033" lon="11.6017417"><ele>401.0</ele><time>2026-04-06T14:42:49.823Z</time></trkpt><trkpt lat="43.0605567" lon="11.6016783"><ele>400.20000000000005</ele><time>2026-04-06T14:42:50.829Z</time></trkpt><trkpt lat="43.06046" lon="11.6015767"><ele>399.40000000000003</ele><time>2026-04-06T14:42:52.824Z</time></trkpt><trkpt lat="43.0603833" lon="11.6015117"><ele>398.6</ele><time>2026-04-06T14:42:54.826Z</time></trkpt><trkpt lat="43.060325" lon="11.6014667"><ele>397.8</ele><time>2026-04-06T14:42:57.826Z</time></trkpt><trkpt lat="43.060345" lon="11.6015717"><ele>397.0</ele><time>2026-04-06T14:43:01.831Z</time></trkpt><trkpt lat="43.06048" lon="11.6016717"><ele>397.0</ele><time>2026-04-06T14:44:21.825Z</time></trkpt><trkpt lat="43.0605333" lon="11.601735"><ele>397.0</ele><time>2026-04-06T14:44:22.824Z</time></trkpt><trkpt lat="43.0605933" lon="11.6018417"><ele>397.0</ele><time>2026-04-06T14:44:23.826Z</time></trkpt><trkpt lat="43.0606517" lon="11.6019467"><ele>397.0</ele><time>2026-04-06T14:44:24.828Z</time></trkpt><trkpt lat="43.06071" lon="11.6020533"><ele>397.0</ele><time>2026-04-06T14:44:25.824Z</time></trkpt><trkpt lat="43.0607667" lon="11.60217"><ele>398.0</ele><time>2026-04-06T14:44:26.825Z</time></trkpt><trkpt lat="43.060815" lon="11.6023167"><ele>399.0</ele><time>2026-04-06T14:44:27.824Z</time></trkpt><trkpt lat="43.06084" lon="11.60248"><ele>400.0</ele><time>2026-04-06T14:44:28.83Z</time></trkpt><trkpt lat="43.0608617" lon="11.60263"><ele>401.0</ele><time>2026-04-06T14:44:29.824Z</time></trkpt><trkpt lat="43.060885" lon="11.602775"><ele>402.75</ele><time>2026-04-06T14:44:30.824Z</time></trkpt><trkpt lat="43.060905" lon="11.602925"><ele>404.5</ele><time>2026-04-06T14:44:31.836Z</time></trkpt><trkpt lat="43.0609233" lon="11.60308"><ele>406.25</ele><time>2026-04-06T14:44:32.827Z</time></trkpt><trkpt lat="43.0609317" lon="11.6032433"><ele>408.0</ele><time>2026-04-06T14:44:33.834Z</time></trkpt><trkpt lat="43.0609333" lon="11.6034067"><ele>408.0</ele><time>2026-04-06T14:44:34.827Z</time></trkpt><trkpt lat="43.0609317" lon="11.6035717"><ele>408.0</ele><time>2026-04-06T14:44:35.824Z</time></trkpt><trkpt lat="43.0609317" lon="11.6037417"><ele>408.0</ele><time>2026-04-06T14:44:36.824Z</time></trkpt><trkpt lat="43.06093" lon="11.603915"><ele>408.0</ele><time>2026-04-06T14:44:37.83Z</time></trkpt><trkpt lat="43.06093" lon="11.6040867"><ele>408.25</ele><time>2026-04-06T14:44:38.827Z</time></trkpt><trkpt lat="43.06094" lon="11.6042567"><ele>408.5</ele><time>2026-04-06T14:44:39.826Z</time></trkpt><trkpt lat="43.0609483" lon="11.6044267"><ele>408.75</ele><time>2026-04-06T14:44:40.823Z</time></trkpt><trkpt lat="43.06096" lon="11.6045933"><ele>409.0</ele><time>2026-04-06T14:44:41.832Z</time></trkpt><trkpt lat="43.0609733" lon="11.60476"><ele>409.0</ele><time>2026-04-06T14:44:42.831Z</time></trkpt><trkpt lat="43.0609833" lon="11.6049283"><ele>409.0</ele><time>2026-04-06T14:44:43.83Z</time></trkpt><trkpt lat="43.0609833" lon="11.6051017"><ele>409.0</ele><time>2026-04-06T14:44:44.833Z</time></trkpt><trkpt lat="43.06098" lon="11.6052717"><ele>409.0</ele><time>2026-04-06T14:44:45.825Z</time></trkpt><trkpt lat="43.0609467" lon="11.60542"><ele>408.0</ele><time>2026-04-06T14:44:46.824Z</time></trkpt><trkpt lat="43.0608917" lon="11.60555"><ele>407.0</ele><time>2026-04-06T14:44:47.824Z</time></trkpt><trkpt lat="43.0608333" lon="11.605675"><ele>406.0</ele><time>2026-04-06T14:44:48.824Z</time></trkpt><trkpt lat="43.0607867" lon="11.6057867"><ele>405.0</ele><time>2026-04-06T14:44:49.825Z</time></trkpt><trkpt lat="43.060745" lon="11.605885"><ele>404.0</ele><time>2026-04-06T14:44:50.826Z</time></trkpt><trkpt lat="43.0607317" lon="11.605985"><ele>403.99999999999994</ele><time>2026-04-06T14:44:51.824Z</time></trkpt><trkpt lat="43.0607417" lon="11.6060883"><ele>404.0</ele><time>2026-04-06T14:44:52.828Z</time></trkpt><trkpt lat="43.0607683" lon="11.6061833"><ele>404.0</ele><time>2026-04-06T14:44:53.826Z</time></trkpt><trkpt lat="43.060805" lon="11.606275"><ele>404.0</ele><time>2026-04-06T14:44:54.825Z</time></trkpt><trkpt lat="43.0608433" lon="11.6063717"><ele>403.99999999999994</ele><time>2026-04-06T14:44:55.827Z</time></trkpt><trkpt lat="43.06089" lon="11.6064817"><ele>404.0</ele><time>2026-04-06T14:44:56.824Z</time></trkpt><trkpt lat="43.0609483" lon="11.6066017"><ele>403.25</ele><time>2026-04-06T14:44:57.829Z</time></trkpt><trkpt lat="43.061005" lon="11.6067267"><ele>402.5</ele><time>2026-04-06T14:44:58.825Z</time></trkpt><trkpt lat="43.0610683" lon="11.6068617"><ele>401.75</ele><time>2026-04-06T14:44:59.827Z</time></trkpt><trkpt lat="43.061135" lon="11.6069967"><ele>401.0</ele><time>2026-04-06T14:45:00.824Z</time></trkpt><trkpt lat="43.0612133" lon="11.607135"><ele>400.0</ele><time>2026-04-06T14:45:01.827Z</time></trkpt><trkpt lat="43.0612967" lon="11.6072767"><ele>399.0</ele><time>2026-04-06T14:45:02.832Z</time></trkpt><trkpt lat="43.06137" lon="11.60742"><ele>398.0</ele><time>2026-04-06T14:45:03.829Z</time></trkpt><trkpt lat="43.06153" lon="11.6076833"><ele>398.0</ele><time>2026-04-06T14:45:05.823Z</time></trkpt><trkpt lat="43.061615" lon="11.60781"><ele>398.0</ele><time>2026-04-06T14:45:06.823Z</time></trkpt><trkpt lat="43.0616883" lon="11.6079467"><ele>398.0</ele><time>2026-04-06T14:45:07.826Z</time></trkpt><trkpt lat="43.0617733" lon="11.6080717"><ele>398.0</ele><time>2026-04-06T14:45:08.829Z</time></trkpt><trkpt lat="43.0618567" lon="11.6081967"><ele>399.75</ele><time>2026-04-06T14:45:09.826Z</time></trkpt><trkpt lat="43.0619433" lon="11.6083167"><ele>401.5</ele><time>2026-04-06T14:45:10.828Z</time></trkpt><trkpt lat="43.0620283" lon="11.6084433"><ele>403.25</ele><time>2026-04-06T14:45:11.831Z</time></trkpt><trkpt lat="43.0621133" lon="11.6085633"><ele>405.0</ele><time>2026-04-06T14:45:12.826Z</time></trkpt><trkpt lat="43.0622" lon="11.6086817"><ele>405.25</ele><time>2026-04-06T14:45:13.825Z</time></trkpt><trkpt lat="43.062285" lon="11.6087917"><ele>405.5</ele><time>2026-04-06T14:45:14.827Z</time></trkpt><trkpt lat="43.06237" lon="11.6089033"><ele>405.75</ele><time>2026-04-06T14:45:15.826Z</time></trkpt><trkpt lat="43.062455" lon="11.6090167"><ele>406.0</ele><time>2026-04-06T14:45:16.824Z</time></trkpt><trkpt lat="43.0625367" lon="11.60913"><ele>407.5</ele><time>2026-04-06T14:45:17.827Z</time></trkpt><trkpt lat="43.062615" lon="11.609245"><ele>409.0</ele><time>2026-04-06T14:45:18.824Z</time></trkpt><trkpt lat="43.0626983" lon="11.60935"><ele>410.5</ele><time>2026-04-06T14:45:19.826Z</time></trkpt><trkpt lat="43.0627883" lon="11.6094567"><ele>412.0</ele><time>2026-04-06T14:45:20.848Z</time></trkpt><trkpt lat="43.0628867" lon="11.6095567"><ele>412.0</ele><time>2026-04-06T14:45:21.831Z</time></trkpt><trkpt lat="43.0629933" lon="11.609655"><ele>412.0</ele><time>2026-04-06T14:45:22.824Z</time></trkpt><trkpt lat="43.0631033" lon="11.6097433"><ele>412.0</ele><time>2026-04-06T14:45:23.832Z</time></trkpt><trkpt lat="43.0632367" lon="11.6098317"><ele>412.0</ele><time>2026-04-06T14:45:24.826Z</time></trkpt><trkpt lat="43.0633683" lon="11.6099183"><ele>413.0</ele><time>2026-04-06T14:45:25.824Z</time></trkpt><trkpt lat="43.063515" lon="11.6100033"><ele>414.0</ele><time>2026-04-06T14:45:26.831Z</time></trkpt><trkpt lat="43.063665" lon="11.6100983"><ele>415.0</ele><time>2026-04-06T14:45:27.832Z</time></trkpt><trkpt lat="43.0638133" lon="11.6101967"><ele>415.0</ele><time>2026-04-06T14:45:28.826Z</time></trkpt><trkpt lat="43.0639533" lon="11.6102933"><ele>415.0</ele><time>2026-04-06T14:45:29.823Z</time></trkpt><trkpt lat="43.064085" lon="11.610385"><ele>415.0</ele><time>2026-04-06T14:45:30.825Z</time></trkpt><trkpt lat="43.0642133" lon="11.6104733"><ele>415.0</ele><time>2026-04-06T14:45:31.826Z</time></trkpt><trkpt lat="43.06434" lon="11.6105667"><ele>411.25</ele><time>2026-04-06T14:45:32.827Z</time></trkpt><trkpt lat="43.0644683" lon="11.610665"><ele>407.5</ele><time>2026-04-06T14:45:33.826Z</time></trkpt><trkpt lat="43.064595" lon="11.6107683"><ele>403.75</ele><time>2026-04-06T14:45:34.824Z</time></trkpt><trkpt lat="43.0647117" lon="11.6108783"><ele>400.0</ele><time>2026-04-06T14:45:35.825Z</time></trkpt><trkpt lat="43.06482" lon="11.6110083"><ele>400.0</ele><time>2026-04-06T14:45:36.828Z</time></trkpt><trkpt lat="43.0649217" lon="11.611155"><ele>400.0</ele><time>2026-04-06T14:45:37.827Z</time></trkpt><trkpt lat="43.0650183" lon="11.6113067"><ele>400.0</ele><time>2026-04-06T14:45:38.826Z</time></trkpt><trkpt lat="43.0651033" lon="11.611475"><ele>400.0</ele><time>2026-04-06T14:45:39.825Z</time></trkpt><trkpt lat="43.065185" lon="11.6116467"><ele>399.75</ele><time>2026-04-06T14:45:40.825Z</time></trkpt><trkpt lat="43.0652533" lon="11.6118267"><ele>399.5</ele><time>2026-04-06T14:45:41.826Z</time></trkpt><trkpt lat="43.06532" lon="11.6120067"><ele>399.25</ele><time>2026-04-06T14:45:42.825Z</time></trkpt><trkpt lat="43.0653883" lon="11.6121883"><ele>399.0</ele><time>2026-04-06T14:45:43.825Z</time></trkpt><trkpt lat="43.065465" lon="11.6123683"><ele>399.0</ele><time>2026-04-06T14:45:44.824Z</time></trkpt><trkpt lat="43.0655383" lon="11.6125483"><ele>399.0</ele><time>2026-04-06T14:45:45.824Z</time></trkpt><trkpt lat="43.06561" lon="11.6127317"><ele>399.0</ele><time>2026-04-06T14:45:46.824Z</time></trkpt><trkpt lat="43.065685" lon="11.61291"><ele>399.33333333333337</ele><time>2026-04-06T14:45:47.825Z</time></trkpt><trkpt lat="43.0657533" lon="11.61309"><ele>399.6666666666667</ele><time>2026-04-06T14:45:48.829Z</time></trkpt><trkpt lat="43.0658267" lon="11.613275"><ele>400.0</ele><time>2026-04-06T14:45:49.825Z</time></trkpt><trkpt lat="43.0659017" lon="11.61347"><ele>400.0</ele><time>2026-04-06T14:45:50.826Z</time></trkpt><trkpt lat="43.0659783" lon="11.6136683"><ele>400.0</ele><time>2026-04-06T14:45:51.831Z</time></trkpt><trkpt lat="43.0660683" lon="11.613855"><ele>400.0</ele><time>2026-04-06T14:45:52.826Z</time></trkpt><trkpt lat="43.0661767" lon="11.614025"><ele>400.0</ele><time>2026-04-06T14:45:53.828Z</time></trkpt><trkpt lat="43.0663" lon="11.6141783"><ele>400.0</ele><time>2026-04-06T14:45:54.827Z</time></trkpt><trkpt lat="43.0664383" lon="11.6143133"><ele>400.0</ele><time>2026-04-06T14:45:55.827Z</time></trkpt><trkpt lat="43.0665917" lon="11.6144267"><ele>399.0</ele><time>2026-04-06T14:45:56.83Z</time></trkpt><trkpt lat="43.0667617" lon="11.6145167"><ele>398.0</ele><time>2026-04-06T14:45:57.825Z</time></trkpt><trkpt lat="43.06694" lon="11.6145917"><ele>397.0</ele><time>2026-04-06T14:45:58.823Z</time></trkpt><trkpt lat="43.067125" lon="11.61466"><ele>397.0</ele><time>2026-04-06T14:45:59.824Z</time></trkpt><trkpt lat="43.0673083" lon="11.6147217"><ele>397.0</ele><time>2026-04-06T14:46:00.824Z</time></trkpt><trkpt lat="43.0674817" lon="11.6147883"><ele>397.0</ele><time>2026-04-06T14:46:01.83Z</time></trkpt><trkpt lat="43.06765" lon="11.614855"><ele>396.6666666666667</ele><time>2026-04-06T14:46:02.831Z</time></trkpt><trkpt lat="43.06782" lon="11.61492"><ele>396.33333333333337</ele><time>2026-04-06T14:46:03.825Z</time></trkpt><trkpt lat="43.0679933" lon="11.61498"><ele>396.0</ele><time>2026-04-06T14:46:04.824Z</time></trkpt><trkpt lat="43.0681667" lon="11.6150433"><ele>395.0</ele><time>2026-04-06T14:46:05.827Z</time></trkpt><trkpt lat="43.0683367" lon="11.615105"><ele>394.0</ele><time>2026-04-06T14:46:06.827Z</time></trkpt><trkpt lat="43.0685067" lon="11.6151633"><ele>393.0</ele><time>2026-04-06T14:46:07.825Z</time></trkpt><trkpt lat="43.0686733" lon="11.61522"><ele>393.0</ele><time>2026-04-06T14:46:08.824Z</time></trkpt><trkpt lat="43.0688383" lon="11.615285"><ele>393.0</ele><time>2026-04-06T14:46:09.823Z</time></trkpt><trkpt lat="43.069" lon="11.615365"><ele>393.0</ele><time>2026-04-06T14:46:10.825Z</time></trkpt><trkpt lat="43.0691483" lon="11.615465"><ele>390.0</ele><time>2026-04-06T14:46:11.826Z</time></trkpt><trkpt lat="43.069285" lon="11.6155783"><ele>387.0</ele><time>2026-04-06T14:46:12.825Z</time></trkpt><trkpt lat="43.069405" lon="11.6157133"><ele>384.0</ele><time>2026-04-06T14:46:13.824Z</time></trkpt><trkpt lat="43.0695117" lon="11.61586"><ele>384.0</ele><time>2026-04-06T14:46:14.826Z</time></trkpt><trkpt lat="43.0696" lon="11.6160167"><ele>384.0</ele><time>2026-04-06T14:46:15.828Z</time></trkpt><trkpt lat="43.0696817" lon="11.61618"><ele>384.0</ele><time>2026-04-06T14:46:16.826Z</time></trkpt><trkpt lat="43.0697567" lon="11.6163567"><ele>384.0</ele><time>2026-04-06T14:46:17.825Z</time></trkpt><trkpt lat="43.0698233" lon="11.6165433"><ele>382.6666666666667</ele><time>2026-04-06T14:46:18.824Z</time></trkpt><trkpt lat="43.069885" lon="11.6167433"><ele>381.33333333333337</ele><time>2026-04-06T14:46:19.824Z</time></trkpt><trkpt lat="43.0699417" lon="11.6169483"><ele>380.0</ele><time>2026-04-06T14:46:20.83Z</time></trkpt><trkpt lat="43.07" lon="11.6171517"><ele>379.6666666666667</ele><time>2026-04-06T14:46:21.83Z</time></trkpt><trkpt lat="43.0700617" lon="11.6173467"><ele>379.3333333333333</ele><time>2026-04-06T14:46:22.825Z</time></trkpt><trkpt lat="43.07013" lon="11.6175333"><ele>379.0</ele><time>2026-04-06T14:46:23.824Z</time></trkpt><trkpt lat="43.0702083" lon="11.61771"><ele>378.75</ele><time>2026-04-06T14:46:24.828Z</time></trkpt><trkpt lat="43.0702967" lon="11.6178667"><ele>378.5</ele><time>2026-04-06T14:46:25.828Z</time></trkpt><trkpt lat="43.070395" lon="11.6180033"><ele>378.25</ele><time>2026-04-06T14:46:26.826Z</time></trkpt><trkpt lat="43.0705033" lon="11.618125"><ele>378.0</ele><time>2026-04-06T14:46:27.824Z</time></trkpt><trkpt lat="43.070615" lon="11.6182317"><ele>378.0</ele><time>2026-04-06T14:46:28.824Z</time></trkpt><trkpt lat="43.0707283" lon="11.618325"><ele>378.0</ele><time>2026-04-06T14:46:29.824Z</time></trkpt><trkpt lat="43.0708433" lon="11.6184183"><ele>378.0</ele><time>2026-04-06T14:46:30.825Z</time></trkpt><trkpt lat="43.0709667" lon="11.6185067"><ele>378.0</ele><time>2026-04-06T14:46:31.826Z</time></trkpt><trkpt lat="43.0711017" lon="11.6185967"><ele>376.0</ele><time>2026-04-06T14:46:32.826Z</time></trkpt><trkpt lat="43.0712433" lon="11.6186833"><ele>374.0</ele><time>2026-04-06T14:46:33.826Z</time></trkpt><trkpt lat="43.07139" lon="11.6187783"><ele>372.0</ele><time>2026-04-06T14:46:34.825Z</time></trkpt><trkpt lat="43.0715383" lon="11.6188817"><ele>370.0</ele><time>2026-04-06T14:46:35.827Z</time></trkpt><trkpt lat="43.07168" lon="11.6189733"><ele>368.0</ele><time>2026-04-06T14:46:36.826Z</time></trkpt><trkpt lat="43.07182" lon="11.6190617"><ele>366.0</ele><time>2026-04-06T14:46:37.825Z</time></trkpt><trkpt lat="43.0719567" lon="11.6191567"><ele>366.0</ele><time>2026-04-06T14:46:38.825Z</time></trkpt><trkpt lat="43.07209" lon="11.6192367"><ele>366.0</ele><time>2026-04-06T14:46:39.83Z</time></trkpt><trkpt lat="43.0722167" lon="11.6193317"><ele>366.0</ele><time>2026-04-06T14:46:40.826Z</time></trkpt><trkpt lat="43.0723483" lon="11.6194183"><ele>366.0</ele><time>2026-04-06T14:46:41.83Z</time></trkpt><trkpt lat="43.07248" lon="11.6195117"><ele>367.0</ele><time>2026-04-06T14:46:42.825Z</time></trkpt><trkpt lat="43.0726167" lon="11.6196033"><ele>368.0</ele><time>2026-04-06T14:46:43.826Z</time></trkpt><trkpt lat="43.07275" lon="11.6197117"><ele>369.0</ele><time>2026-04-06T14:46:44.826Z</time></trkpt><trkpt lat="43.0728833" lon="11.61984"><ele>369.0</ele><time>2026-04-06T14:46:45.828Z</time></trkpt><trkpt lat="43.0730067" lon="11.6199967"><ele>369.0</ele><time>2026-04-06T14:46:46.829Z</time></trkpt><trkpt lat="43.0731167" lon="11.6201783"><ele>369.0</ele><time>2026-04-06T14:46:47.824Z</time></trkpt><trkpt lat="43.073215" lon="11.6203733"><ele>368.3333333333333</ele><time>2026-04-06T14:46:48.838Z</time></trkpt><trkpt lat="43.073295" lon="11.6205783"><ele>367.66666666666663</ele><time>2026-04-06T14:46:49.829Z</time></trkpt><trkpt lat="43.0733633" lon="11.62079"><ele>367.0</ele><time>2026-04-06T14:46:50.834Z</time></trkpt><trkpt lat="43.0734067" lon="11.6210083"><ele>366.0</ele><time>2026-04-06T14:46:51.825Z</time></trkpt><trkpt lat="43.0734317" lon="11.62123"><ele>365.0</ele><time>2026-04-06T14:46:52.824Z</time></trkpt><trkpt lat="43.0734367" lon="11.62146"><ele>364.0</ele><time>2026-04-06T14:46:53.824Z</time></trkpt><trkpt lat="43.0734217" lon="11.6217"><ele>364.0</ele><time>2026-04-06T14:46:54.828Z</time></trkpt><trkpt lat="43.0733817" lon="11.6219417"><ele>364.0</ele><time>2026-04-06T14:46:55.825Z</time></trkpt><trkpt lat="43.0733283" lon="11.622185"><ele>364.0</ele><time>2026-04-06T14:46:56.828Z</time></trkpt><trkpt lat="43.07327" lon="11.6224233"><ele>362.66666666666663</ele><time>2026-04-06T14:46:57.824Z</time></trkpt><trkpt lat="43.073215" lon="11.6226517"><ele>361.3333333333333</ele><time>2026-04-06T14:46:58.828Z</time></trkpt><trkpt lat="43.0731617" lon="11.6228817"><ele>360.0</ele><time>2026-04-06T14:46:59.825Z</time></trkpt><trkpt lat="43.073125" lon="11.6231167"><ele>360.0</ele><time>2026-04-06T14:47:00.827Z</time></trkpt><trkpt lat="43.0731" lon="11.623355"><ele>360.0</ele><time>2026-04-06T14:47:01.826Z</time></trkpt><trkpt lat="43.0731" lon="11.6235783"><ele>360.0</ele><time>2026-04-06T14:47:02.826Z</time></trkpt><trkpt lat="43.0731" lon="11.6237833"><ele>360.0</ele><time>2026-04-06T14:47:03.831Z</time></trkpt><trkpt lat="43.07311" lon="11.6239767"><ele>360.0</ele><time>2026-04-06T14:47:04.826Z</time></trkpt><trkpt lat="43.0731283" lon="11.6241583"><ele>360.0</ele><time>2026-04-06T14:47:05.829Z</time></trkpt><trkpt lat="43.073155" lon="11.6243217"><ele>360.0</ele><time>2026-04-06T14:47:06.826Z</time></trkpt><trkpt lat="43.07319" lon="11.62447"><ele>360.2</ele><time>2026-04-06T14:47:07.827Z</time></trkpt><trkpt lat="43.0732283" lon="11.6246017"><ele>360.4</ele><time>2026-04-06T14:47:08.838Z</time></trkpt><trkpt lat="43.0732717" lon="11.6247317"><ele>360.6</ele><time>2026-04-06T14:47:09.827Z</time></trkpt><trkpt lat="43.073325" lon="11.624865"><ele>360.8</ele><time>2026-04-06T14:47:10.827Z</time></trkpt><trkpt lat="43.0733917" lon="11.6249983"><ele>361.0</ele><time>2026-04-06T14:47:11.828Z</time></trkpt><trkpt lat="43.0734633" lon="11.6251317"><ele>361.0</ele><time>2026-04-06T14:47:12.824Z</time></trkpt><trkpt lat="43.0735383" lon="11.6252667"><ele>361.0</ele><time>2026-04-06T14:47:13.825Z</time></trkpt><trkpt lat="43.0736183" lon="11.6254067"><ele>361.0</ele><time>2026-04-06T14:47:14.825Z</time></trkpt><trkpt lat="43.0736983" lon="11.625555"><ele>361.0</ele><time>2026-04-06T14:47:15.825Z</time></trkpt><trkpt lat="43.0737833" lon="11.6257017"><ele>359.25</ele><time>2026-04-06T14:47:16.827Z</time></trkpt><trkpt lat="43.0738717" lon="11.62585"><ele>357.5</ele><time>2026-04-06T14:47:17.834Z</time></trkpt><trkpt lat="43.0739533" lon="11.6260017"><ele>355.75</ele><time>2026-04-06T14:47:18.836Z</time></trkpt><trkpt lat="43.074035" lon="11.62615"><ele>354.0</ele><time>2026-04-06T14:47:19.83Z</time></trkpt><trkpt lat="43.0741183" lon="11.6262883"><ele>354.0</ele><time>2026-04-06T14:47:20.832Z</time></trkpt><trkpt lat="43.0742017" lon="11.62641"><ele>354.0</ele><time>2026-04-06T14:47:21.825Z</time></trkpt><trkpt lat="43.0742667" lon="11.626525"><ele>354.0</ele><time>2026-04-06T14:47:22.824Z</time></trkpt><trkpt lat="43.07432" lon="11.6266117"><ele>354.0</ele><time>2026-04-06T14:47:23.827Z</time></trkpt><trkpt lat="43.07436" lon="11.6266833"><ele>354.0</ele><time>2026-04-06T14:47:24.826Z</time></trkpt><trkpt lat="43.0743883" lon="11.6267683"><ele>354.0</ele><time>2026-04-06T14:47:26.824Z</time></trkpt><trkpt lat="43.0744317" lon="11.6268667"><ele>352.2</ele><time>2026-04-06T14:47:39.827Z</time></trkpt><trkpt lat="43.0744983" lon="11.6269883"><ele>350.4</ele><time>2026-04-06T14:50:53.824Z</time></trkpt><trkpt lat="43.0745833" lon="11.627055"><ele>348.6</ele><time>2026-04-06T14:50:54.824Z</time></trkpt><trkpt lat="43.0746883" lon="11.6271167"><ele>346.8</ele><time>2026-04-06T14:50:55.825Z</time></trkpt><trkpt lat="43.074795" lon="11.6271833"><ele>345.0</ele><time>2026-04-06T14:50:56.825Z</time></trkpt><trkpt lat="43.074925" lon="11.62724"><ele>348.3333333333333</ele><time>2026-04-06T14:50:57.824Z</time></trkpt><trkpt lat="43.0750733" lon="11.6273067"><ele>351.66666666666663</ele><time>2026-04-06T14:50:58.829Z</time></trkpt><trkpt lat="43.0752383" lon="11.6273717"><ele>355.0</ele><time>2026-04-06T14:50:59.827Z</time></trkpt><trkpt lat="43.0754083" lon="11.627445"><ele>355.0</ele><time>2026-04-06T14:51:00.826Z</time></trkpt><trkpt lat="43.0756" lon="11.6275267"><ele>355.0</ele><time>2026-04-06T14:51:01.925Z</time></trkpt><trkpt lat="43.0757883" lon="11.6276117"><ele>355.0</ele><time>2026-04-06T14:51:02.834Z</time></trkpt><trkpt lat="43.0759733" lon="11.6276917"><ele>353.3333333333333</ele><time>2026-04-06T14:51:03.831Z</time></trkpt><trkpt lat="43.076155" lon="11.627775"><ele>351.6666666666667</ele><time>2026-04-06T14:51:04.829Z</time></trkpt><trkpt lat="43.076335" lon="11.6278533"><ele>350.0</ele><time>2026-04-06T14:51:05.833Z</time></trkpt><trkpt lat="43.076515" lon="11.6279267"><ele>348.0</ele><time>2026-04-06T14:51:06.824Z</time></trkpt><trkpt lat="43.0766817" lon="11.6279967"><ele>346.0</ele><time>2026-04-06T14:51:07.824Z</time></trkpt><trkpt lat="43.076845" lon="11.6280683"><ele>344.0</ele><time>2026-04-06T14:51:08.832Z</time></trkpt><trkpt lat="43.07701" lon="11.6281483"><ele>344.0</ele><time>2026-04-06T14:51:09.827Z</time></trkpt><trkpt lat="43.0771733" lon="11.6282267"><ele>344.0</ele><time>2026-04-06T14:51:10.826Z</time></trkpt><trkpt lat="43.07733" lon="11.62829"><ele>344.0</ele><time>2026-04-06T14:51:11.827Z</time></trkpt><trkpt lat="43.0774733" lon="11.6283533"><ele>344.5</ele><time>2026-04-06T14:51:12.83Z</time></trkpt><trkpt lat="43.0776133" lon="11.62841"><ele>345.0</ele><time>2026-04-06T14:51:13.831Z</time></trkpt><trkpt lat="43.0777533" lon="11.6284717"><ele>345.5</ele><time>2026-04-06T14:51:14.834Z</time></trkpt><trkpt lat="43.0778867" lon="11.6285317"><ele>346.0</ele><time>2026-04-06T14:51:15.828Z</time></trkpt><trkpt lat="43.0780133" lon="11.6285933"><ele>346.0</ele><time>2026-04-06T14:51:16.827Z</time></trkpt><trkpt lat="43.0781333" lon="11.6286417"><ele>346.0</ele><time>2026-04-06T14:51:17.831Z</time></trkpt><trkpt lat="43.0782433" lon="11.6286833"><ele>346.0</ele><time>2026-04-06T14:51:18.83Z</time></trkpt><trkpt lat="43.0783467" lon="11.6287133"><ele>346.0</ele><time>2026-04-06T14:51:19.832Z</time></trkpt><trkpt lat="43.0784433" lon="11.6287383"><ele>346.0</ele><time>2026-04-06T14:51:20.828Z</time></trkpt><trkpt lat="43.0785433" lon="11.628755"><ele>345.0</ele><time>2026-04-06T14:51:21.836Z</time></trkpt><trkpt lat="43.078645" lon="11.628775"><ele>344.0</ele><time>2026-04-06T14:51:22.831Z</time></trkpt><trkpt lat="43.07876" lon="11.6287867"><ele>343.0</ele><time>2026-04-06T14:51:23.828Z</time></trkpt><trkpt lat="43.078885" lon="11.6287833"><ele>342.0</ele><time>2026-04-06T14:51:24.831Z</time></trkpt><trkpt lat="43.0790167" lon="11.6287667"><ele>341.5</ele><time>2026-04-06T14:51:25.832Z</time></trkpt><trkpt lat="43.07915" lon="11.62875"><ele>341.0</ele><time>2026-04-06T14:51:26.832Z</time></trkpt><trkpt lat="43.0792833" lon="11.6287283"><ele>340.5</ele><time>2026-04-06T14:51:27.828Z</time></trkpt><trkpt lat="43.0794217" lon="11.628705"><ele>340.0</ele><time>2026-04-06T14:51:28.827Z</time></trkpt><trkpt lat="43.0795633" lon="11.628675"><ele>340.0</ele><time>2026-04-06T14:51:29.824Z</time></trkpt><trkpt lat="43.079705" lon="11.6286467"><ele>340.0</ele><time>2026-04-06T14:51:30.826Z</time></trkpt><trkpt lat="43.0798483" lon="11.6286217"><ele>340.0</ele><time>2026-04-06T14:51:31.828Z</time></trkpt><trkpt lat="43.079995" lon="11.6285933"><ele>340.0</ele><time>2026-04-06T14:51:32.827Z</time></trkpt><trkpt lat="43.08014" lon="11.6285733"><ele>341.0</ele><time>2026-04-06T14:51:33.824Z</time></trkpt><trkpt lat="43.0802767" lon="11.6285717"><ele>342.0</ele><time>2026-04-06T14:51:34.826Z</time></trkpt><trkpt lat="43.0804133" lon="11.628615"><ele>343.0</ele><time>2026-04-06T14:51:35.831Z</time></trkpt><trkpt lat="43.08055" lon="11.6286717"><ele>344.0</ele><time>2026-04-06T14:51:36.825Z</time></trkpt><trkpt lat="43.0806967" lon="11.6287567"><ele>343.6666666666667</ele><time>2026-04-06T14:51:37.827Z</time></trkpt><trkpt lat="43.0808483" lon="11.62886"><ele>343.3333333333333</ele><time>2026-04-06T14:51:38.829Z</time></trkpt><trkpt lat="43.0809967" lon="11.628955"><ele>343.0</ele><time>2026-04-06T14:51:39.829Z</time></trkpt><trkpt lat="43.081155" lon="11.6290283"><ele>343.0</ele><time>2026-04-06T14:51:40.826Z</time></trkpt><trkpt lat="43.081335" lon="11.6290683"><ele>343.0</ele><time>2026-04-06T14:51:41.829Z</time></trkpt><trkpt lat="43.0815483" lon="11.6290917"><ele>343.0</ele><time>2026-04-06T14:51:42.83Z</time></trkpt><trkpt lat="43.0817817" lon="11.6291183"><ele>341.0</ele><time>2026-04-06T14:51:43.832Z</time></trkpt><trkpt lat="43.082005" lon="11.6291483"><ele>339.0</ele><time>2026-04-06T14:51:44.828Z</time></trkpt><trkpt lat="43.0822183" lon="11.6291833"><ele>337.0</ele><time>2026-04-06T14:51:45.826Z</time></trkpt><trkpt lat="43.082425" lon="11.62922"><ele>336.3333333333333</ele><time>2026-04-06T14:51:46.826Z</time></trkpt><trkpt lat="43.08263" lon="11.62924"><ele>335.6666666666667</ele><time>2026-04-06T14:51:47.829Z</time></trkpt><trkpt lat="43.0828217" lon="11.629255"><ele>335.0</ele><time>2026-04-06T14:51:48.832Z</time></trkpt><trkpt lat="43.083" lon="11.6292783"><ele>335.0</ele><time>2026-04-06T14:51:49.832Z</time></trkpt><trkpt lat="43.083165" lon="11.6293233"><ele>335.0</ele><time>2026-04-06T14:51:50.826Z</time></trkpt><trkpt lat="43.0833133" lon="11.6294267"><ele>335.0</ele><time>2026-04-06T14:51:51.825Z</time></trkpt><trkpt lat="43.0834533" lon="11.6295517"><ele>336.33333333333337</ele><time>2026-04-06T14:51:52.825Z</time></trkpt><trkpt lat="43.0835767" lon="11.6297083"><ele>337.6666666666667</ele><time>2026-04-06T14:51:53.827Z</time></trkpt><trkpt lat="43.0836717" lon="11.6298917"><ele>339.0</ele><time>2026-04-06T14:51:54.826Z</time></trkpt><trkpt lat="43.0837417" lon="11.630095"><ele>339.0</ele><time>2026-04-06T14:51:55.833Z</time></trkpt><trkpt lat="43.0837867" lon="11.6303183"><ele>339.0</ele><time>2026-04-06T14:51:56.825Z</time></trkpt><trkpt lat="43.0838067" lon="11.6305633"><ele>339.0</ele><time>2026-04-06T14:51:57.83Z</time></trkpt><trkpt lat="43.0838067" lon="11.63084"><ele>342.0</ele><time>2026-04-06T14:51:58.828Z</time></trkpt><trkpt lat="43.0837933" lon="11.6311533"><ele>345.0</ele><time>2026-04-06T14:51:59.829Z</time></trkpt><trkpt lat="43.0837817" lon="11.6314733"><ele>345.0</ele><time>2026-04-06T14:52:00.824Z</time></trkpt><trkpt lat="43.08377" lon="11.6317717"><ele>345.0</ele><time>2026-04-06T14:52:01.829Z</time></trkpt><trkpt lat="43.08376" lon="11.6320517"><ele>345.0</ele><time>2026-04-06T14:52:02.834Z</time></trkpt><trkpt lat="43.0837467" lon="11.6323217"><ele>348.6666666666667</ele><time>2026-04-06T14:52:03.831Z</time></trkpt><trkpt lat="43.0837317" lon="11.632585"><ele>352.33333333333337</ele><time>2026-04-06T14:52:04.829Z</time></trkpt><trkpt lat="43.083715" lon="11.632835"><ele>356.0</ele><time>2026-04-06T14:52:05.83Z</time></trkpt><trkpt lat="43.0836933" lon="11.6330667"><ele>356.33333333333337</ele><time>2026-04-06T14:52:06.826Z</time></trkpt><trkpt lat="43.08367" lon="11.6332883"><ele>356.6666666666667</ele><time>2026-04-06T14:52:07.829Z</time></trkpt><trkpt lat="43.083645" lon="11.633505"><ele>357.0</ele><time>2026-04-06T14:52:08.835Z</time></trkpt><trkpt lat="43.083615" lon="11.6337167"><ele>355.6666666666667</ele><time>2026-04-06T14:52:09.834Z</time></trkpt><trkpt lat="43.083585" lon="11.6339283"><ele>354.33333333333337</ele><time>2026-04-06T14:52:10.827Z</time></trkpt><trkpt lat="43.0835567" lon="11.63414"><ele>353.0</ele><time>2026-04-06T14:52:11.833Z</time></trkpt><trkpt lat="43.0835283" lon="11.6343567"><ele>351.6666666666667</ele><time>2026-04-06T14:52:12.834Z</time></trkpt><trkpt lat="43.0835033" lon="11.6345883"><ele>350.3333333333333</ele><time>2026-04-06T14:52:13.834Z</time></trkpt><trkpt lat="43.0834833" lon="11.63482"><ele>349.0</ele><time>2026-04-06T14:52:14.826Z</time></trkpt><trkpt lat="43.083465" lon="11.635035"><ele>349.0</ele><time>2026-04-06T14:52:15.834Z</time></trkpt><trkpt lat="43.08346" lon="11.635235"><ele>349.0</ele><time>2026-04-06T14:52:16.826Z</time></trkpt><trkpt lat="43.0834567" lon="11.6354333"><ele>349.0</ele><time>2026-04-06T14:52:17.828Z</time></trkpt><trkpt lat="43.08345" lon="11.6356367"><ele>349.0</ele><time>2026-04-06T14:52:18.826Z</time></trkpt><trkpt lat="43.083445" lon="11.63585"><ele>349.0</ele><time>2026-04-06T14:52:19.829Z</time></trkpt><trkpt lat="43.0834367" lon="11.6360717"><ele>349.0</ele><time>2026-04-06T14:52:20.826Z</time></trkpt><trkpt lat="43.0834283" lon="11.6363"><ele>349.0</ele><time>2026-04-06T14:52:21.834Z</time></trkpt><trkpt lat="43.0834217" lon="11.636535"><ele>349.0</ele><time>2026-04-06T14:52:22.824Z</time></trkpt><trkpt lat="43.0834133" lon="11.63677"><ele>349.0</ele><time>2026-04-06T14:52:23.832Z</time></trkpt><trkpt lat="43.0834083" lon="11.6370017"><ele>349.0</ele><time>2026-04-06T14:52:24.829Z</time></trkpt><trkpt lat="43.0834" lon="11.6372283"><ele>350.0</ele><time>2026-04-06T14:52:25.835Z</time></trkpt><trkpt lat="43.0833867" lon="11.63745"><ele>351.0</ele><time>2026-04-06T14:52:26.83Z</time></trkpt><trkpt lat="43.0833667" lon="11.637665"><ele>352.0</ele><time>2026-04-06T14:52:27.836Z</time></trkpt><trkpt lat="43.083325" lon="11.637875"><ele>352.0</ele><time>2026-04-06T14:52:28.829Z</time></trkpt><trkpt lat="43.0832783" lon="11.63808"><ele>352.0</ele><time>2026-04-06T14:52:29.826Z</time></trkpt><trkpt lat="43.0832233" lon="11.6382817"><ele>352.0</ele><time>2026-04-06T14:52:30.826Z</time></trkpt><trkpt lat="43.0831633" lon="11.638475"><ele>355.0</ele><time>2026-04-06T14:52:31.827Z</time></trkpt><trkpt lat="43.0831" lon="11.6386667"><ele>358.0</ele><time>2026-04-06T14:52:32.832Z</time></trkpt><trkpt lat="43.0830333" lon="11.6388583"><ele>361.0</ele><time>2026-04-06T14:52:33.827Z</time></trkpt><trkpt lat="43.0829683" lon="11.6390467"><ele>361.0</ele><time>2026-04-06T14:52:34.828Z</time></trkpt><trkpt lat="43.0829083" lon="11.6392267"><ele>361.0</ele><time>2026-04-06T14:52:35.83Z</time></trkpt><trkpt lat="43.0828483" lon="11.639405"><ele>361.0</ele><time>2026-04-06T14:52:36.832Z</time></trkpt><trkpt lat="43.0827883" lon="11.6395933"><ele>361.0</ele><time>2026-04-06T14:52:37.834Z</time></trkpt><trkpt lat="43.0827233" lon="11.639785"><ele>361.66666666666663</ele><time>2026-04-06T14:52:38.831Z</time></trkpt><trkpt lat="43.0826483" lon="11.639975"><ele>362.3333333333333</ele><time>2026-04-06T14:52:39.826Z</time></trkpt><trkpt lat="43.082565" lon="11.640155"><ele>363.0</ele><time>2026-04-06T14:52:40.824Z</time></trkpt><trkpt lat="43.08247" lon="11.6403233"><ele>364.75</ele><time>2026-04-06T14:52:41.826Z</time></trkpt><trkpt lat="43.0823717" lon="11.6404817"><ele>366.5</ele><time>2026-04-06T14:52:42.825Z</time></trkpt><trkpt lat="43.0822733" lon="11.640625"><ele>368.25</ele><time>2026-04-06T14:52:43.828Z</time></trkpt><trkpt lat="43.082175" lon="11.640765"><ele>370.0</ele><time>2026-04-06T14:52:44.826Z</time></trkpt><trkpt lat="43.0820767" lon="11.6409083"><ele>370.0</ele><time>2026-04-06T14:52:45.828Z</time></trkpt><trkpt lat="43.0819783" lon="11.6410633"><ele>370.0</ele><time>2026-04-06T14:52:46.827Z</time></trkpt><trkpt lat="43.081885" lon="11.6412233"><ele>370.0</ele><time>2026-04-06T14:52:47.828Z</time></trkpt><trkpt lat="43.0818083" lon="11.64139"><ele>370.0</ele><time>2026-04-06T14:52:48.835Z</time></trkpt><trkpt lat="43.081745" lon="11.641565"><ele>369.75</ele><time>2026-04-06T14:52:49.827Z</time></trkpt><trkpt lat="43.0817017" lon="11.64175"><ele>369.5</ele><time>2026-04-06T14:52:50.83Z</time></trkpt><trkpt lat="43.0816767" lon="11.6419433"><ele>369.25</ele><time>2026-04-06T14:52:51.827Z</time></trkpt><trkpt lat="43.081665" lon="11.64214"><ele>369.0</ele><time>2026-04-06T14:52:52.832Z</time></trkpt><trkpt lat="43.0816583" lon="11.6423317"><ele>369.5</ele><time>2026-04-06T14:52:53.827Z</time></trkpt><trkpt lat="43.0816533" lon="11.6425217"><ele>370.0</ele><time>2026-04-06T14:52:54.827Z</time></trkpt><trkpt lat="43.0816467" lon="11.6427117"><ele>370.5</ele><time>2026-04-06T14:52:55.828Z</time></trkpt><trkpt lat="43.08164" lon="11.6429033"><ele>371.0</ele><time>2026-04-06T14:52:56.824Z</time></trkpt><trkpt lat="43.0816333" lon="11.6430883"><ele>371.25</ele><time>2026-04-06T14:52:57.835Z</time></trkpt><trkpt lat="43.081625" lon="11.643265"><ele>371.5</ele><time>2026-04-06T14:52:58.825Z</time></trkpt><trkpt lat="43.0816167" lon="11.64344"><ele>371.75</ele><time>2026-04-06T14:52:59.828Z</time></trkpt><trkpt lat="43.08161" lon="11.6436133"><ele>372.0</ele><time>2026-04-06T14:53:00.827Z</time></trkpt><trkpt lat="43.0816067" lon="11.6437883"><ele>372.0</ele><time>2026-04-06T14:53:01.827Z</time></trkpt><trkpt lat="43.0816" lon="11.6439683"><ele>372.0</ele><time>2026-04-06T14:53:02.827Z</time></trkpt><trkpt lat="43.0815983" lon="11.644155"><ele>372.0</ele><time>2026-04-06T14:53:03.825Z</time></trkpt><trkpt lat="43.081595" lon="11.6443467"><ele>372.0</ele><time>2026-04-06T14:53:04.83Z</time></trkpt><trkpt lat="43.0815933" lon="11.6445417"><ele>372.0</ele><time>2026-04-06T14:53:05.831Z</time></trkpt><trkpt lat="43.0815933" lon="11.6447383"><ele>372.0</ele><time>2026-04-06T14:53:06.832Z</time></trkpt><trkpt lat="43.0816083" lon="11.64493"><ele>372.0</ele><time>2026-04-06T14:53:07.83Z</time></trkpt><trkpt lat="43.081635" lon="11.6451067"><ele>372.0</ele><time>2026-04-06T14:53:08.828Z</time></trkpt><trkpt lat="43.08167" lon="11.645275"><ele>371.6</ele><time>2026-04-06T14:53:09.83Z</time></trkpt><trkpt lat="43.08171" lon="11.64543"><ele>371.20000000000005</ele><time>2026-04-06T14:53:10.825Z</time></trkpt><trkpt lat="43.0817517" lon="11.64557"><ele>370.8</ele><time>2026-04-06T14:53:11.826Z</time></trkpt><trkpt lat="43.081795" lon="11.6456967"><ele>370.4</ele><time>2026-04-06T14:53:12.83Z</time></trkpt><trkpt lat="43.0818417" lon="11.645815"><ele>370.0</ele><time>2026-04-06T14:53:13.825Z</time></trkpt><trkpt lat="43.08189" lon="11.6459317"><ele>370.0</ele><time>2026-04-06T14:53:14.829Z</time></trkpt><trkpt lat="43.081945" lon="11.6460483"><ele>370.0</ele><time>2026-04-06T14:53:15.824Z</time></trkpt><trkpt lat="43.082005" lon="11.6461633"><ele>370.0</ele><time>2026-04-06T14:53:16.828Z</time></trkpt><trkpt lat="43.0820733" lon="11.6462817"><ele>370.0</ele><time>2026-04-06T14:53:17.825Z</time></trkpt><trkpt lat="43.0821467" lon="11.646405"><ele>370.0</ele><time>2026-04-06T14:53:18.827Z</time></trkpt><trkpt lat="43.0822217" lon="11.6465317"><ele>370.25</ele><time>2026-04-06T14:53:19.838Z</time></trkpt><trkpt lat="43.0823" lon="11.64666"><ele>370.5</ele><time>2026-04-06T14:53:20.826Z</time></trkpt><trkpt lat="43.08238" lon="11.6467883"><ele>370.75</ele><time>2026-04-06T14:53:21.834Z</time></trkpt><trkpt lat="43.08246" lon="11.6469183"><ele>371.0</ele><time>2026-04-06T14:53:22.83Z</time></trkpt><trkpt lat="43.082545" lon="11.647055"><ele>371.0</ele><time>2026-04-06T14:53:23.826Z</time></trkpt><trkpt lat="43.08263" lon="11.6472"><ele>371.0</ele><time>2026-04-06T14:53:24.828Z</time></trkpt><trkpt lat="43.0827167" lon="11.6473467"><ele>371.0</ele><time>2026-04-06T14:53:25.833Z</time></trkpt><trkpt lat="43.0828033" lon="11.6474933"><ele>371.0</ele><time>2026-04-06T14:53:26.827Z</time></trkpt><trkpt lat="43.0828883" lon="11.6476383"><ele>371.0</ele><time>2026-04-06T14:53:27.823Z</time></trkpt><trkpt lat="43.0829717" lon="11.647785"><ele>371.0</ele><time>2026-04-06T14:53:28.828Z</time></trkpt><trkpt lat="43.0830517" lon="11.6479267"><ele>371.0</ele><time>2026-04-06T14:53:29.831Z</time></trkpt><trkpt lat="43.083135" lon="11.648065"><ele>371.0</ele><time>2026-04-06T14:53:30.838Z</time></trkpt><trkpt lat="43.083225" lon="11.648205"><ele>370.0</ele><time>2026-04-06T14:53:31.834Z</time></trkpt><trkpt lat="43.0833233" lon="11.6483633"><ele>369.0</ele><time>2026-04-06T14:53:32.83Z</time></trkpt><trkpt lat="43.08343" lon="11.648535"><ele>368.0</ele><time>2026-04-06T14:53:33.823Z</time></trkpt><trkpt lat="43.0835433" lon="11.6487167"><ele>366.6666666666667</ele><time>2026-04-06T14:53:34.833Z</time></trkpt><trkpt lat="43.083675" lon="11.6489233"><ele>365.3333333333333</ele><time>2026-04-06T14:53:35.83Z</time></trkpt><trkpt lat="43.0838217" lon="11.6491617"><ele>364.0</ele><time>2026-04-06T14:53:36.825Z</time></trkpt><trkpt lat="43.083965" lon="11.6494133"><ele>364.3333333333333</ele><time>2026-04-06T14:53:37.824Z</time></trkpt><trkpt lat="43.0840933" lon="11.6496517"><ele>364.6666666666667</ele><time>2026-04-06T14:53:38.829Z</time></trkpt><trkpt lat="43.0842117" lon="11.649865"><ele>365.0</ele><time>2026-04-06T14:53:39.827Z</time></trkpt><trkpt lat="43.0843333" lon="11.6500483"><ele>365.0</ele><time>2026-04-06T14:53:40.827Z</time></trkpt><trkpt lat="43.0844567" lon="11.650205"><ele>365.0</ele><time>2026-04-06T14:53:41.828Z</time></trkpt><trkpt lat="43.084575" lon="11.6503367"><ele>365.0</ele><time>2026-04-06T14:53:42.829Z</time></trkpt><trkpt lat="43.0846933" lon="11.6504583"><ele>366.0</ele><time>2026-04-06T14:53:43.823Z</time></trkpt><trkpt lat="43.084815" lon="11.65058"><ele>367.0</ele><time>2026-04-06T14:53:44.834Z</time></trkpt><trkpt lat="43.0849383" lon="11.6506933"><ele>368.0</ele><time>2026-04-06T14:53:45.832Z</time></trkpt><trkpt lat="43.0850633" lon="11.6508033"><ele>369.0</ele><time>2026-04-06T14:53:46.825Z</time></trkpt><trkpt lat="43.085185" lon="11.6509167"><ele>369.0</ele><time>2026-04-06T14:53:47.829Z</time></trkpt><trkpt lat="43.0853017" lon="11.6510267"><ele>369.0</ele><time>2026-04-06T14:53:48.825Z</time></trkpt><trkpt lat="43.085415" lon="11.65113"><ele>369.0</ele><time>2026-04-06T14:53:49.824Z</time></trkpt><trkpt lat="43.085525" lon="11.65123"><ele>369.0</ele><time>2026-04-06T14:53:50.825Z</time></trkpt><trkpt lat="43.085635" lon="11.6513367"><ele>369.0</ele><time>2026-04-06T14:53:51.84Z</time></trkpt><trkpt lat="43.08574" lon="11.6514383"><ele>369.0</ele><time>2026-04-06T14:53:52.825Z</time></trkpt><trkpt lat="43.0858333" lon="11.6515267"><ele>369.0</ele><time>2026-04-06T14:53:53.824Z</time></trkpt><trkpt lat="43.0859217" lon="11.6516"><ele>369.0</ele><time>2026-04-06T14:53:54.826Z</time></trkpt><trkpt lat="43.086005" lon="11.6516617"><ele>369.0</ele><time>2026-04-06T14:53:55.825Z</time></trkpt><trkpt lat="43.0860817" lon="11.6517217"><ele>369.0</ele><time>2026-04-06T14:53:56.825Z</time></trkpt><trkpt lat="43.08616" lon="11.6517783"><ele>369.0</ele><time>2026-04-06T14:53:57.823Z</time></trkpt><trkpt lat="43.08623" lon="11.651835"><ele>369.0</ele><time>2026-04-06T14:53:58.824Z</time></trkpt><trkpt lat="43.08629" lon="11.6518817"><ele>369.0</ele><time>2026-04-06T14:53:59.824Z</time></trkpt><trkpt lat="43.0863667" lon="11.651935"><ele>369.0</ele><time>2026-04-06T14:54:01.842Z</time></trkpt><trkpt lat="43.0864267" lon="11.6519767"><ele>369.0</ele><time>2026-04-06T14:54:03.825Z</time></trkpt><trkpt lat="43.0865133" lon="11.652035"><ele>368.6666666666667</ele><time>2026-04-06T14:54:06.824Z</time></trkpt><trkpt lat="43.0866017" lon="11.6520883"><ele>368.3333333333333</ele><time>2026-04-06T14:54:08.831Z</time></trkpt><trkpt lat="43.086665" lon="11.6521367"><ele>368.0</ele><time>2026-04-06T14:54:09.829Z</time></trkpt><trkpt lat="43.0867367" lon="11.6521917"><ele>367.66666666666663</ele><time>2026-04-06T14:54:10.83Z</time></trkpt><trkpt lat="43.0868117" lon="11.6522517"><ele>367.3333333333333</ele><time>2026-04-06T14:54:11.826Z</time></trkpt><trkpt lat="43.0868867" lon="11.6523017"><ele>367.0</ele><time>2026-04-06T14:54:12.824Z</time></trkpt><trkpt lat="43.0869833" lon="11.652355"><ele>367.0</ele><time>2026-04-06T14:54:13.83Z</time></trkpt><trkpt lat="43.087095" lon="11.65239"><ele>367.0</ele><time>2026-04-06T14:54:14.833Z</time></trkpt><trkpt lat="43.0872267" lon="11.6524033"><ele>367.0</ele><time>2026-04-06T14:54:15.83Z</time></trkpt><trkpt lat="43.08736" lon="11.65239"><ele>367.0</ele><time>2026-04-06T14:54:16.829Z</time></trkpt><trkpt lat="43.087475" lon="11.652345"><ele>368.75</ele><time>2026-04-06T14:54:17.825Z</time></trkpt><trkpt lat="43.0875833" lon="11.65228"><ele>370.5</ele><time>2026-04-06T14:54:18.824Z</time></trkpt><trkpt lat="43.08769" lon="11.6522133"><ele>372.25</ele><time>2026-04-06T14:54:19.826Z</time></trkpt><trkpt lat="43.0877967" lon="11.6521533"><ele>374.0</ele><time>2026-04-06T14:54:20.828Z</time></trkpt><trkpt lat="43.0879083" lon="11.6521083"><ele>374.0</ele><time>2026-04-06T14:54:21.828Z</time></trkpt><trkpt lat="43.088025" lon="11.652085"><ele>374.0</ele><time>2026-04-06T14:54:22.836Z</time></trkpt><trkpt lat="43.0881517" lon="11.65208"><ele>374.0</ele><time>2026-04-06T14:54:23.834Z</time></trkpt><trkpt lat="43.0882717" lon="11.65208"><ele>374.0</ele><time>2026-04-06T14:54:24.826Z</time></trkpt><trkpt lat="43.0883933" lon="11.6520983"><ele>375.0</ele><time>2026-04-06T14:54:25.827Z</time></trkpt><trkpt lat="43.0885067" lon="11.6521467"><ele>376.0</ele><time>2026-04-06T14:54:26.83Z</time></trkpt><trkpt lat="43.0886" lon="11.65224"><ele>377.0</ele><time>2026-04-06T14:54:27.825Z</time></trkpt><trkpt lat="43.0886667" lon="11.6523683"><ele>378.0</ele><time>2026-04-06T14:54:28.829Z</time></trkpt><trkpt lat="43.0887167" lon="11.6525"><ele>378.0</ele><time>2026-04-06T14:54:29.828Z</time></trkpt><trkpt lat="43.0887433" lon="11.65266"><ele>378.0</ele><time>2026-04-06T14:54:30.827Z</time></trkpt><trkpt lat="43.0887533" lon="11.6528317"><ele>378.0</ele><time>2026-04-06T14:54:31.827Z</time></trkpt><trkpt lat="43.0887617" lon="11.6529933"><ele>378.0</ele><time>2026-04-06T14:54:32.836Z</time></trkpt><trkpt lat="43.0887733" lon="11.6531517"><ele>379.0</ele><time>2026-04-06T14:54:33.826Z</time></trkpt><trkpt lat="43.0887883" lon="11.6533067"><ele>380.0</ele><time>2026-04-06T14:54:34.831Z</time></trkpt><trkpt lat="43.0888167" lon="11.65346"><ele>381.0</ele><time>2026-04-06T14:54:35.829Z</time></trkpt><trkpt lat="43.088855" lon="11.6536083"><ele>382.0</ele><time>2026-04-06T14:54:36.826Z</time></trkpt><trkpt lat="43.088915" lon="11.6537367"><ele>382.75</ele><time>2026-04-06T14:54:37.829Z</time></trkpt><trkpt lat="43.08901" lon="11.653825"><ele>383.5</ele><time>2026-04-06T14:54:38.833Z</time></trkpt><trkpt lat="43.0891067" lon="11.6538867"><ele>384.25</ele><time>2026-04-06T14:54:39.829Z</time></trkpt><trkpt lat="43.0892117" lon="11.653925"><ele>385.0</ele><time>2026-04-06T14:54:40.839Z</time></trkpt><trkpt lat="43.0893317" lon="11.653935"><ele>386.5</ele><time>2026-04-06T14:54:41.83Z</time></trkpt><trkpt lat="43.0894517" lon="11.6539317"><ele>388.0</ele><time>2026-04-06T14:54:42.825Z</time></trkpt><trkpt lat="43.089575" lon="11.653925"><ele>389.5</ele><time>2026-04-06T14:54:43.829Z</time></trkpt><trkpt lat="43.0896983" lon="11.6539067"><ele>391.0</ele><time>2026-04-06T14:54:44.832Z</time></trkpt><trkpt lat="43.089825" lon="11.6538717"><ele>392.20000000000005</ele><time>2026-04-06T14:54:45.828Z</time></trkpt><trkpt lat="43.0899333" lon="11.6538083"><ele>393.40000000000003</ele><time>2026-04-06T14:54:46.829Z</time></trkpt><trkpt lat="43.0900283" lon="11.653725"><ele>394.6</ele><time>2026-04-06T14:54:47.828Z</time></trkpt><trkpt lat="43.0901183" lon="11.6536467"><ele>395.8</ele><time>2026-04-06T14:54:48.824Z</time></trkpt><trkpt lat="43.090215" lon="11.6535867"><ele>397.0</ele><time>2026-04-06T14:54:49.828Z</time></trkpt><trkpt lat="43.0903217" lon="11.6535467"><ele>396.0</ele><time>2026-04-06T14:54:50.827Z</time></trkpt><trkpt lat="43.090435" lon="11.6535217"><ele>395.0</ele><time>2026-04-06T14:54:51.825Z</time></trkpt><trkpt lat="43.090545" lon="11.6535"><ele>394.0</ele><time>2026-04-06T14:54:52.83Z</time></trkpt><trkpt lat="43.090645" lon="11.6534833"><ele>393.0</ele><time>2026-04-06T14:54:53.839Z</time></trkpt><trkpt lat="43.0907383" lon="11.65347"><ele>392.0</ele><time>2026-04-06T14:54:54.829Z</time></trkpt><trkpt lat="43.0908317" lon="11.6534567"><ele>392.0</ele><time>2026-04-06T14:54:55.839Z</time></trkpt><trkpt lat="43.0909283" lon="11.653445"><ele>392.0</ele><time>2026-04-06T14:54:56.834Z</time></trkpt><trkpt lat="43.0910267" lon="11.6534367"><ele>392.0</ele><time>2026-04-06T14:54:57.833Z</time></trkpt><trkpt lat="43.091125" lon="11.6534283"><ele>392.0</ele><time>2026-04-06T14:54:58.83Z</time></trkpt><trkpt lat="43.0912283" lon="11.6534133"><ele>392.0</ele><time>2026-04-06T14:54:59.826Z</time></trkpt><trkpt lat="43.0913333" lon="11.6534017"><ele>392.0</ele><time>2026-04-06T14:55:00.827Z</time></trkpt><trkpt lat="43.0914433" lon="11.6533967"><ele>392.0</ele><time>2026-04-06T14:55:01.833Z</time></trkpt><trkpt lat="43.091565" lon="11.653415"><ele>392.0</ele><time>2026-04-06T14:55:02.825Z</time></trkpt><trkpt lat="43.0916917" lon="11.65346"><ele>392.0</ele><time>2026-04-06T14:55:03.83Z</time></trkpt><trkpt lat="43.0918283" lon="11.6535217"><ele>393.5</ele><time>2026-04-06T14:55:04.829Z</time></trkpt><trkpt lat="43.0919617" lon="11.653585"><ele>395.0</ele><time>2026-04-06T14:55:05.825Z</time></trkpt><trkpt lat="43.092085" lon="11.6536283"><ele>396.5</ele><time>2026-04-06T14:55:06.831Z</time></trkpt><trkpt lat="43.0922067" lon="11.65366"><ele>398.0</ele><time>2026-04-06T14:55:07.83Z</time></trkpt><trkpt lat="43.092325" lon="11.6536833"><ele>399.2</ele><time>2026-04-06T14:55:08.837Z</time></trkpt><trkpt lat="43.0924417" lon="11.6537"><ele>400.4</ele><time>2026-04-06T14:55:09.827Z</time></trkpt><trkpt lat="43.0925567" lon="11.6537133"><ele>401.59999999999997</ele><time>2026-04-06T14:55:10.832Z</time></trkpt><trkpt lat="43.0926583" lon="11.65372"><ele>402.79999999999995</ele><time>2026-04-06T14:55:11.831Z</time></trkpt><trkpt lat="43.0927533" lon="11.6537433"><ele>404.0</ele><time>2026-04-06T14:55:12.837Z</time></trkpt><trkpt lat="43.0928333" lon="11.6538233"><ele>404.0</ele><time>2026-04-06T14:55:13.832Z</time></trkpt><trkpt lat="43.0928767" lon="11.6539283"><ele>404.0</ele><time>2026-04-06T14:55:14.829Z</time></trkpt><trkpt lat="43.09287" lon="11.6540633"><ele>404.0</ele><time>2026-04-06T14:55:15.828Z</time></trkpt><trkpt lat="43.092845" lon="11.65419"><ele>404.0</ele><time>2026-04-06T14:55:16.825Z</time></trkpt><trkpt lat="43.092795" lon="11.6542817"><ele>404.0</ele><time>2026-04-06T14:55:17.831Z</time></trkpt><trkpt lat="43.0927167" lon="11.6543383"><ele>404.0</ele><time>2026-04-06T14:55:18.825Z</time></trkpt><trkpt lat="43.0926067" lon="11.6543283"><ele>404.0</ele><time>2026-04-06T14:55:19.826Z</time></trkpt><trkpt lat="43.0924983" lon="11.654275"><ele>404.0</ele><time>2026-04-06T14:55:20.829Z</time></trkpt><trkpt lat="43.092385" lon="11.65421"><ele>404.0</ele><time>2026-04-06T14:55:21.834Z</time></trkpt><trkpt lat="43.09227" lon="11.6541533"><ele>404.75</ele><time>2026-04-06T14:55:22.826Z</time></trkpt><trkpt lat="43.09215" lon="11.6541"><ele>405.5</ele><time>2026-04-06T14:55:23.841Z</time></trkpt><trkpt lat="43.092035" lon="11.654055"><ele>406.25</ele><time>2026-04-06T14:55:24.827Z</time></trkpt><trkpt lat="43.0919183" lon="11.654035"><ele>407.0</ele><time>2026-04-06T14:55:25.828Z</time></trkpt><trkpt lat="43.0917967" lon="11.6540383"><ele>407.0</ele><time>2026-04-06T14:55:26.832Z</time></trkpt><trkpt lat="43.0916733" lon="11.6540733"><ele>407.0</ele><time>2026-04-06T14:55:27.827Z</time></trkpt><trkpt lat="43.09155" lon="11.654125"><ele>407.0</ele><time>2026-04-06T14:55:28.825Z</time></trkpt><trkpt lat="43.0914233" lon="11.6541917"><ele>407.0</ele><time>2026-04-06T14:55:29.826Z</time></trkpt><trkpt lat="43.0913067" lon="11.654265"><ele>406.25</ele><time>2026-04-06T14:55:30.835Z</time></trkpt><trkpt lat="43.091195" lon="11.654355"><ele>405.5</ele><time>2026-04-06T14:55:31.831Z</time></trkpt><trkpt lat="43.091075" lon="11.6544467"><ele>404.75</ele><time>2026-04-06T14:55:32.829Z</time></trkpt><trkpt lat="43.090955" lon="11.6545333"><ele>404.0</ele><time>2026-04-06T14:55:33.827Z</time></trkpt><trkpt lat="43.0908433" lon="11.654625"><ele>404.5</ele><time>2026-04-06T14:55:34.838Z</time></trkpt><trkpt lat="43.0907333" lon="11.6547133"><ele>405.0</ele><time>2026-04-06T14:55:35.831Z</time></trkpt><trkpt lat="43.090625" lon="11.6548"><ele>405.5</ele><time>2026-04-06T14:55:36.836Z</time></trkpt><trkpt lat="43.0905233" lon="11.654895"><ele>406.0</ele><time>2026-04-06T14:55:37.83Z</time></trkpt><trkpt lat="43.09044" lon="11.655015"><ele>406.0</ele><time>2026-04-06T14:55:38.829Z</time></trkpt><trkpt lat="43.0903667" lon="11.6551583"><ele>406.0</ele><time>2026-04-06T14:55:39.835Z</time></trkpt><trkpt lat="43.0903133" lon="11.6553117"><ele>406.0</ele><time>2026-04-06T14:55:40.827Z</time></trkpt><trkpt lat="43.090275" lon="11.6554633"><ele>406.0</ele><time>2026-04-06T14:55:41.83Z</time></trkpt><trkpt lat="43.090255" lon="11.6556067"><ele>407.4</ele><time>2026-04-06T14:55:42.829Z</time></trkpt><trkpt lat="43.0902483" lon="11.6557567"><ele>408.8</ele><time>2026-04-06T14:55:43.833Z</time></trkpt><trkpt lat="43.0902533" lon="11.6559133"><ele>410.2</ele><time>2026-04-06T14:55:44.829Z</time></trkpt><trkpt lat="43.09027" lon="11.6560633"><ele>411.59999999999997</ele><time>2026-04-06T14:55:45.831Z</time></trkpt><trkpt lat="43.090285" lon="11.6562033"><ele>413.0</ele><time>2026-04-06T14:55:46.831Z</time></trkpt><trkpt lat="43.09029" lon="11.656345"><ele>413.79999999999995</ele><time>2026-04-06T14:55:47.825Z</time></trkpt><trkpt lat="43.0902783" lon="11.656485"><ele>414.6</ele><time>2026-04-06T14:55:48.824Z</time></trkpt><trkpt lat="43.0902417" lon="11.6566233"><ele>415.4</ele><time>2026-04-06T14:55:49.824Z</time></trkpt><trkpt lat="43.090185" lon="11.6567617"><ele>416.20000000000005</ele><time>2026-04-06T14:55:50.828Z</time></trkpt><trkpt lat="43.09011" lon="11.6568817"><ele>417.0</ele><time>2026-04-06T14:55:51.829Z</time></trkpt><trkpt lat="43.09001" lon="11.6569767"><ele>417.5</ele><time>2026-04-06T14:55:52.831Z</time></trkpt><trkpt lat="43.0899" lon="11.65705"><ele>418.0</ele><time>2026-04-06T14:55:53.833Z</time></trkpt><trkpt lat="43.0897717" lon="11.65708"><ele>418.5</ele><time>2026-04-06T14:55:54.835Z</time></trkpt><trkpt lat="43.0896533" lon="11.6571183"><ele>419.0</ele><time>2026-04-06T14:55:55.831Z</time></trkpt><trkpt lat="43.0895433" lon="11.6571817"><ele>419.0</ele><time>2026-04-06T14:55:56.825Z</time></trkpt><trkpt lat="43.0894383" lon="11.6572567"><ele>419.0</ele><time>2026-04-06T14:55:57.826Z</time></trkpt><trkpt lat="43.0893433" lon="11.6573683"><ele>419.0</ele><time>2026-04-06T14:55:58.827Z</time></trkpt><trkpt lat="43.0892533" lon="11.6574833"><ele>419.0</ele><time>2026-04-06T14:55:59.825Z</time></trkpt><trkpt lat="43.0891667" lon="11.6575983"><ele>418.75</ele><time>2026-04-06T14:56:00.832Z</time></trkpt><trkpt lat="43.0890817" lon="11.65771"><ele>418.5</ele><time>2026-04-06T14:56:01.834Z</time></trkpt><trkpt lat="43.0889917" lon="11.6578167"><ele>418.25</ele><time>2026-04-06T14:56:02.829Z</time></trkpt><trkpt lat="43.0889033" lon="11.65793"><ele>418.0</ele><time>2026-04-06T14:56:03.826Z</time></trkpt><trkpt lat="43.0888117" lon="11.6580383"><ele>419.2</ele><time>2026-04-06T14:56:04.829Z</time></trkpt><trkpt lat="43.0887217" lon="11.65815"><ele>420.4</ele><time>2026-04-06T14:56:05.831Z</time></trkpt><trkpt lat="43.0886417" lon="11.6582583"><ele>421.59999999999997</ele><time>2026-04-06T14:56:06.835Z</time></trkpt><trkpt lat="43.08856" lon="11.658355"><ele>422.79999999999995</ele><time>2026-04-06T14:56:07.832Z</time></trkpt><trkpt lat="43.0884883" lon="11.6584533"><ele>424.0</ele><time>2026-04-06T14:56:08.829Z</time></trkpt><trkpt lat="43.0884317" lon="11.6585617"><ele>424.79999999999995</ele><time>2026-04-06T14:56:09.831Z</time></trkpt><trkpt lat="43.0883983" lon="11.6586783"><ele>425.59999999999997</ele><time>2026-04-06T14:56:10.826Z</time></trkpt><trkpt lat="43.0883817" lon="11.6588"><ele>426.4</ele><time>2026-04-06T14:56:11.827Z</time></trkpt><trkpt lat="43.08839" lon="11.6589233"><ele>427.2</ele><time>2026-04-06T14:56:12.824Z</time></trkpt><trkpt lat="43.0884267" lon="11.659045"><ele>428.0</ele><time>2026-04-06T14:56:13.829Z</time></trkpt><trkpt lat="43.0884633" lon="11.6591733"><ele>428.0</ele><time>2026-04-06T14:56:14.839Z</time></trkpt><trkpt lat="43.0885033" lon="11.6593067"><ele>427.99999999999994</ele><time>2026-04-06T14:56:15.829Z</time></trkpt><trkpt lat="43.0885233" lon="11.65944"><ele>427.99999999999994</ele><time>2026-04-06T14:56:16.827Z</time></trkpt><trkpt lat="43.0885183" lon="11.65958"><ele>428.0</ele><time>2026-04-06T14:56:17.83Z</time></trkpt><trkpt lat="43.08848" lon="11.659715"><ele>428.0</ele><time>2026-04-06T14:56:18.838Z</time></trkpt><trkpt lat="43.0884183" lon="11.6598283"><ele>429.0</ele><time>2026-04-06T14:56:19.826Z</time></trkpt><trkpt lat="43.0883383" lon="11.6599083"><ele>429.99999999999994</ele><time>2026-04-06T14:56:20.826Z</time></trkpt><trkpt lat="43.0882467" lon="11.6599567"><ele>430.99999999999994</ele><time>2026-04-06T14:56:21.83Z</time></trkpt><trkpt lat="43.0881483" lon="11.65998"><ele>432.0</ele><time>2026-04-06T14:56:22.828Z</time></trkpt><trkpt lat="43.0880417" lon="11.6599833"><ele>433.0</ele><time>2026-04-06T14:56:23.845Z</time></trkpt><trkpt lat="43.0879317" lon="11.659975"><ele>434.0</ele><time>2026-04-06T14:56:24.83Z</time></trkpt><trkpt lat="43.0878183" lon="11.65996"><ele>435.0</ele><time>2026-04-06T14:56:25.829Z</time></trkpt><trkpt lat="43.0877017" lon="11.659945"><ele>436.0</ele><time>2026-04-06T14:56:26.836Z</time></trkpt><trkpt lat="43.0875817" lon="11.6599317"><ele>437.0</ele><time>2026-04-06T14:56:27.832Z</time></trkpt><trkpt lat="43.0874633" lon="11.6599133"><ele>437.40000000000003</ele><time>2026-04-06T14:56:28.834Z</time></trkpt><trkpt lat="43.08735" lon="11.659895"><ele>437.80000000000007</ele><time>2026-04-06T14:56:29.833Z</time></trkpt><trkpt lat="43.0872417" lon="11.65988"><ele>438.2</ele><time>2026-04-06T14:56:30.829Z</time></trkpt><trkpt lat="43.087135" lon="11.6598683"><ele>438.6</ele><time>2026-04-06T14:56:31.834Z</time></trkpt><trkpt lat="43.0870233" lon="11.6598617"><ele>439.0</ele><time>2026-04-06T14:56:32.837Z</time></trkpt><trkpt lat="43.08691" lon="11.6598667"><ele>439.0</ele><time>2026-04-06T14:56:33.829Z</time></trkpt><trkpt lat="43.0867917" lon="11.6599017"><ele>439.0</ele><time>2026-04-06T14:56:34.831Z</time></trkpt><trkpt lat="43.0866833" lon="11.6599733"><ele>439.0</ele><time>2026-04-06T14:56:35.828Z</time></trkpt><trkpt lat="43.0865883" lon="11.6600767"><ele>439.0</ele><time>2026-04-06T14:56:36.827Z</time></trkpt><trkpt lat="43.0865017" lon="11.660195"><ele>439.75</ele><time>2026-04-06T14:56:37.826Z</time></trkpt><trkpt lat="43.086425" lon="11.66033"><ele>440.5</ele><time>2026-04-06T14:56:38.833Z</time></trkpt><trkpt lat="43.086355" lon="11.6604767"><ele>441.25</ele><time>2026-04-06T14:56:39.832Z</time></trkpt><trkpt lat="43.086285" lon="11.660625"><ele>442.0</ele><time>2026-04-06T14:56:40.828Z</time></trkpt><trkpt lat="43.08622" lon="11.660775"><ele>442.0</ele><time>2026-04-06T14:56:41.831Z</time></trkpt><trkpt lat="43.08616" lon="11.66092"><ele>442.0</ele><time>2026-04-06T14:56:42.834Z</time></trkpt><trkpt lat="43.0861017" lon="11.6610567"><ele>442.0</ele><time>2026-04-06T14:56:43.831Z</time></trkpt><trkpt lat="43.0860533" lon="11.6611917"><ele>442.0</ele><time>2026-04-06T14:56:44.83Z</time></trkpt><trkpt lat="43.0860067" lon="11.6613267"><ele>443.5</ele><time>2026-04-06T14:56:45.832Z</time></trkpt><trkpt lat="43.0859617" lon="11.6614667"><ele>445.0</ele><time>2026-04-06T14:56:46.828Z</time></trkpt><trkpt lat="43.0859117" lon="11.6616067"><ele>446.5</ele><time>2026-04-06T14:56:47.827Z</time></trkpt><trkpt lat="43.0858617" lon="11.6617483"><ele>448.0</ele><time>2026-04-06T14:56:48.828Z</time></trkpt><trkpt lat="43.0858083" lon="11.6618967"><ele>449.0</ele><time>2026-04-06T14:56:49.829Z</time></trkpt><trkpt lat="43.08575" lon="11.662055"><ele>450.0</ele><time>2026-04-06T14:56:50.826Z</time></trkpt><trkpt lat="43.08569" lon="11.6622233"><ele>451.0</ele><time>2026-04-06T14:56:51.832Z</time></trkpt><trkpt lat="43.08563" lon="11.6623917"><ele>452.0</ele><time>2026-04-06T14:56:52.83Z</time></trkpt><trkpt lat="43.0855717" lon="11.662565"><ele>452.0</ele><time>2026-04-06T14:56:53.831Z</time></trkpt><trkpt lat="43.0855183" lon="11.66274"><ele>452.0</ele><time>2026-04-06T14:56:54.831Z</time></trkpt><trkpt lat="43.0854733" lon="11.6629183"><ele>452.0</ele><time>2026-04-06T14:56:55.826Z</time></trkpt><trkpt lat="43.0854233" lon="11.6630983"><ele>452.0</ele><time>2026-04-06T14:56:56.823Z</time></trkpt><trkpt lat="43.08538" lon="11.6632667"><ele>452.8</ele><time>2026-04-06T14:56:57.831Z</time></trkpt><trkpt lat="43.0853467" lon="11.66342"><ele>453.6</ele><time>2026-04-06T14:56:58.831Z</time></trkpt><trkpt lat="43.0853117" lon="11.6635617"><ele>454.40000000000003</ele><time>2026-04-06T14:56:59.842Z</time></trkpt><trkpt lat="43.0852817" lon="11.6636983"><ele>455.20000000000005</ele><time>2026-04-06T14:57:00.836Z</time></trkpt><trkpt lat="43.085245" lon="11.663835"><ele>456.0</ele><time>2026-04-06T14:57:01.83Z</time></trkpt><trkpt lat="43.0852083" lon="11.6639733"><ele>456.25</ele><time>2026-04-06T14:57:02.834Z</time></trkpt><trkpt lat="43.0851733" lon="11.6641167"><ele>456.5</ele><time>2026-04-06T14:57:03.837Z</time></trkpt><trkpt lat="43.08514" lon="11.6642667"><ele>456.75</ele><time>2026-04-06T14:57:04.831Z</time></trkpt><trkpt lat="43.0850967" lon="11.6644233"><ele>457.0</ele><time>2026-04-06T14:57:05.832Z</time></trkpt><trkpt lat="43.0850467" lon="11.6645883"><ele>457.0</ele><time>2026-04-06T14:57:06.832Z</time></trkpt><trkpt lat="43.0849817" lon="11.6647633"><ele>457.0</ele><time>2026-04-06T14:57:07.832Z</time></trkpt><trkpt lat="43.0848983" lon="11.6649417"><ele>457.0</ele><time>2026-04-06T14:57:08.83Z</time></trkpt><trkpt lat="43.0848017" lon="11.66513"><ele>458.6666666666667</ele><time>2026-04-06T14:57:09.829Z</time></trkpt><trkpt lat="43.0847033" lon="11.66533"><ele>460.33333333333337</ele><time>2026-04-06T14:57:10.83Z</time></trkpt><trkpt lat="43.0846083" lon="11.6655267"><ele>462.0</ele><time>2026-04-06T14:57:11.83Z</time></trkpt><trkpt lat="43.084515" lon="11.6657183"><ele>462.0</ele><time>2026-04-06T14:57:12.842Z</time></trkpt><trkpt lat="43.0844233" lon="11.6659017"><ele>462.0</ele><time>2026-04-06T14:57:13.828Z</time></trkpt><trkpt lat="43.0843333" lon="11.6660817"><ele>462.0</ele><time>2026-04-06T14:57:14.829Z</time></trkpt><trkpt lat="43.08424" lon="11.6662583"><ele>462.33333333333337</ele><time>2026-04-06T14:57:15.828Z</time></trkpt><trkpt lat="43.0841483" lon="11.6664417"><ele>462.6666666666667</ele><time>2026-04-06T14:57:16.826Z</time></trkpt><trkpt lat="43.084065" lon="11.66662"><ele>463.0</ele><time>2026-04-06T14:57:17.827Z</time></trkpt><trkpt lat="43.08399" lon="11.6667967"><ele>464.25</ele><time>2026-04-06T14:57:18.827Z</time></trkpt><trkpt lat="43.08393" lon="11.6669817"><ele>465.5</ele><time>2026-04-06T14:57:19.827Z</time></trkpt><trkpt lat="43.0838767" lon="11.6671683"><ele>466.75</ele><time>2026-04-06T14:57:20.829Z</time></trkpt><trkpt lat="43.083825" lon="11.6673533"><ele>468.0</ele><time>2026-04-06T14:57:21.826Z</time></trkpt><trkpt lat="43.08377" lon="11.6675333"><ele>468.0</ele><time>2026-04-06T14:57:22.827Z</time></trkpt><trkpt lat="43.0837133" lon="11.6677083"><ele>468.0</ele><time>2026-04-06T14:57:23.829Z</time></trkpt><trkpt lat="43.083655" lon="11.6678833"><ele>468.0</ele><time>2026-04-06T14:57:24.83Z</time></trkpt><trkpt lat="43.0836017" lon="11.6680483"><ele>468.0</ele><time>2026-04-06T14:57:25.827Z</time></trkpt><trkpt lat="43.0835483" lon="11.6682033"><ele>468.0</ele><time>2026-04-06T14:57:26.829Z</time></trkpt><trkpt lat="43.0834967" lon="11.6683533"><ele>468.0</ele><time>2026-04-06T14:57:27.828Z</time></trkpt><trkpt lat="43.0834483" lon="11.668495"><ele>468.0</ele><time>2026-04-06T14:57:28.824Z</time></trkpt><trkpt lat="43.083395" lon="11.6686383"><ele>468.0</ele><time>2026-04-06T14:57:29.83Z</time></trkpt><trkpt lat="43.083345" lon="11.66879"><ele>468.25</ele><time>2026-04-06T14:57:30.824Z</time></trkpt><trkpt lat="43.083295" lon="11.6689433"><ele>468.5</ele><time>2026-04-06T14:57:31.827Z</time></trkpt><trkpt lat="43.0832367" lon="11.6690967"><ele>468.75</ele><time>2026-04-06T14:57:32.824Z</time></trkpt><trkpt lat="43.0831817" lon="11.6692483"><ele>469.0</ele><time>2026-04-06T14:57:33.826Z</time></trkpt><trkpt lat="43.0831333" lon="11.6694"><ele>470.5</ele><time>2026-04-06T14:57:34.826Z</time></trkpt><trkpt lat="43.0830817" lon="11.669545"><ele>472.0</ele><time>2026-04-06T14:57:35.823Z</time></trkpt><trkpt lat="43.0830317" lon="11.6696867"><ele>473.5</ele><time>2026-04-06T14:57:36.832Z</time></trkpt><trkpt lat="43.08298" lon="11.6698217"><ele>475.0</ele><time>2026-04-06T14:57:37.834Z</time></trkpt><trkpt lat="43.0829283" lon="11.6699583"><ele>475.00000000000006</ele><time>2026-04-06T14:57:38.827Z</time></trkpt><trkpt lat="43.0828817" lon="11.6700933"><ele>475.0</ele><time>2026-04-06T14:57:39.825Z</time></trkpt><trkpt lat="43.0828383" lon="11.67022"><ele>475.0</ele><time>2026-04-06T14:57:40.83Z</time></trkpt><trkpt lat="43.0827967" lon="11.6703267"><ele>475.0</ele><time>2026-04-06T14:57:41.827Z</time></trkpt><trkpt lat="43.082755" lon="11.6704183"><ele>475.00000000000006</ele><time>2026-04-06T14:57:42.823Z</time></trkpt><trkpt lat="43.0827167" lon="11.6705"><ele>475.0</ele><time>2026-04-06T14:57:43.828Z</time></trkpt><trkpt lat="43.0826817" lon="11.6705733"><ele>475.1666666666667</ele><time>2026-04-06T14:57:44.828Z</time></trkpt><trkpt lat="43.0826183" lon="11.67069"><ele>475.33333333333337</ele><time>2026-04-06T14:57:46.831Z</time></trkpt><trkpt lat="43.08257" lon="11.67078"><ele>475.5</ele><time>2026-04-06T14:57:48.838Z</time></trkpt><trkpt lat="43.0825233" lon="11.67087"><ele>475.66666666666663</ele><time>2026-04-06T14:57:50.829Z</time></trkpt><trkpt lat="43.0824833" lon="11.6709367"><ele>475.8333333333333</ele><time>2026-04-06T14:57:52.825Z</time></trkpt><trkpt lat="43.0824083" lon="11.671025"><ele>476.0</ele><time>2026-04-06T14:57:56.835Z</time></trkpt><trkpt lat="43.0823417" lon="11.67111"><ele>476.0</ele><time>2026-04-06T14:57:58.827Z</time></trkpt><trkpt lat="43.0823067" lon="11.6712433"><ele>476.0</ele><time>2026-04-06T14:58:00.824Z</time></trkpt><trkpt lat="43.0823533" lon="11.67132"><ele>476.0</ele><time>2026-04-06T14:58:01.827Z</time></trkpt><trkpt lat="43.08247" lon="11.671425"><ele>476.0</ele><time>2026-04-06T14:58:03.826Z</time></trkpt><trkpt lat="43.0825533" lon="11.671495"><ele>476.0</ele><time>2026-04-06T14:58:04.828Z</time></trkpt><trkpt lat="43.0826583" lon="11.6716267"><ele>476.0</ele><time>2026-04-06T14:58:05.823Z</time></trkpt><trkpt lat="43.0827617" lon="11.67179"><ele>476.0</ele><time>2026-04-06T14:58:06.824Z</time></trkpt><trkpt lat="43.0828617" lon="11.6719733"><ele>476.0</ele><time>2026-04-06T14:58:07.828Z</time></trkpt><trkpt lat="43.0829533" lon="11.6721767"><ele>474.66666666666663</ele><time>2026-04-06T14:58:08.83Z</time></trkpt><trkpt lat="43.083035" lon="11.672395"><ele>473.33333333333337</ele><time>2026-04-06T14:58:09.835Z</time></trkpt><trkpt lat="43.083105" lon="11.6726133"><ele>472.0</ele><time>2026-04-06T14:58:10.826Z</time></trkpt><trkpt lat="43.0831617" lon="11.672825"><ele>472.0</ele><time>2026-04-06T14:58:11.827Z</time></trkpt><trkpt lat="43.0832117" lon="11.67303"><ele>472.0</ele><time>2026-04-06T14:58:12.828Z</time></trkpt><trkpt lat="43.0832567" lon="11.6732283"><ele>472.0</ele><time>2026-04-06T14:58:13.823Z</time></trkpt><trkpt lat="43.0832967" lon="11.67342"><ele>470.75</ele><time>2026-04-06T14:58:14.828Z</time></trkpt><trkpt lat="43.0833367" lon="11.673605"><ele>469.5</ele><time>2026-04-06T14:58:15.824Z</time></trkpt><trkpt lat="43.0833833" lon="11.6737767"><ele>468.25</ele><time>2026-04-06T14:58:16.823Z</time></trkpt><trkpt lat="43.0834283" lon="11.6739417"><ele>467.0</ele><time>2026-04-06T14:58:17.83Z</time></trkpt><trkpt lat="43.0834833" lon="11.674105"><ele>466.0</ele><time>2026-04-06T14:58:18.832Z</time></trkpt><trkpt lat="43.0835467" lon="11.6742617"><ele>465.0</ele><time>2026-04-06T14:58:19.828Z</time></trkpt><trkpt lat="43.08361" lon="11.6744067"><ele>464.0</ele><time>2026-04-06T14:58:20.825Z</time></trkpt><trkpt lat="43.08368" lon="11.674545"><ele>463.0</ele><time>2026-04-06T14:58:21.827Z</time></trkpt><trkpt lat="43.0837517" lon="11.6746733"><ele>462.59999999999997</ele><time>2026-04-06T14:58:22.83Z</time></trkpt><trkpt lat="43.083825" lon="11.6747967"><ele>462.19999999999993</ele><time>2026-04-06T14:58:23.831Z</time></trkpt><trkpt lat="43.0839" lon="11.6749117"><ele>461.8</ele><time>2026-04-06T14:58:24.829Z</time></trkpt><trkpt lat="43.0839733" lon="11.6750233"><ele>461.4</ele><time>2026-04-06T14:58:25.826Z</time></trkpt><trkpt lat="43.08404" lon="11.6751367"><ele>461.0</ele><time>2026-04-06T14:58:26.827Z</time></trkpt><trkpt lat="43.0841" lon="11.675255"><ele>459.8333333333333</ele><time>2026-04-06T14:58:27.832Z</time></trkpt><trkpt lat="43.08415" lon="11.67537"><ele>458.66666666666663</ele><time>2026-04-06T14:58:28.825Z</time></trkpt><trkpt lat="43.08419" lon="11.6754767"><ele>457.5</ele><time>2026-04-06T14:58:29.826Z</time></trkpt><trkpt lat="43.0842183" lon="11.6755783"><ele>456.33333333333337</ele><time>2026-04-06T14:58:30.826Z</time></trkpt><trkpt lat="43.0842383" lon="11.6756767"><ele>455.1666666666667</ele><time>2026-04-06T14:58:31.826Z</time></trkpt><trkpt lat="43.0842533" lon="11.6757633"><ele>454.0</ele><time>2026-04-06T14:58:32.83Z</time></trkpt><trkpt lat="43.084275" lon="11.6759083"><ele>454.0</ele><time>2026-04-06T14:58:34.823Z</time></trkpt><trkpt lat="43.0842717" lon="11.6760233"><ele>454.0</ele><time>2026-04-06T14:58:36.826Z</time></trkpt><trkpt lat="43.0842667" lon="11.676155"><ele>454.0</ele><time>2026-04-06T14:58:39.831Z</time></trkpt><trkpt lat="43.0842333" lon="11.676285"><ele>454.0</ele><time>2026-04-06T14:58:41.825Z</time></trkpt><trkpt lat="43.08423" lon="11.67643"><ele>454.0</ele><time>2026-04-06T14:58:43.824Z</time></trkpt><trkpt lat="43.08429" lon="11.6765383"><ele>453.2</ele><time>2026-04-06T14:58:45.835Z</time></trkpt><trkpt lat="43.0844017" lon="11.67661"><ele>452.4</ele><time>2026-04-06T14:58:47.828Z</time></trkpt><trkpt lat="43.0844783" lon="11.67665"><ele>451.6</ele><time>2026-04-06T14:58:48.838Z</time></trkpt><trkpt lat="43.0845567" lon="11.6767117"><ele>450.8</ele><time>2026-04-06T14:58:49.83Z</time></trkpt><trkpt lat="43.0846283" lon="11.6767883"><ele>450.0</ele><time>2026-04-06T14:58:50.845Z</time></trkpt><trkpt lat="43.084695" lon="11.67688"><ele>449.6</ele><time>2026-04-06T14:58:51.83Z</time></trkpt><trkpt lat="43.084765" lon="11.6769833"><ele>449.2</ele><time>2026-04-06T14:58:52.831Z</time></trkpt><trkpt lat="43.084835" lon="11.677095"><ele>448.79999999999995</ele><time>2026-04-06T14:58:53.827Z</time></trkpt><trkpt lat="43.0848933" lon="11.677215"><ele>448.4</ele><time>2026-04-06T14:58:54.827Z</time></trkpt><trkpt lat="43.0849583" lon="11.67733"><ele>448.0</ele><time>2026-04-06T14:58:55.827Z</time></trkpt><trkpt lat="43.0850233" lon="11.6774383"><ele>448.75</ele><time>2026-04-06T14:58:56.824Z</time></trkpt><trkpt lat="43.0850933" lon="11.6775483"><ele>449.5</ele><time>2026-04-06T14:58:57.832Z</time></trkpt><trkpt lat="43.0851667" lon="11.6776633"><ele>450.25</ele><time>2026-04-06T14:58:58.823Z</time></trkpt><trkpt lat="43.08525" lon="11.6777717"><ele>451.0</ele><time>2026-04-06T14:58:59.825Z</time></trkpt><trkpt lat="43.0853467" lon="11.6778717"><ele>451.0</ele><time>2026-04-06T14:59:00.824Z</time></trkpt><trkpt lat="43.0854517" lon="11.6779717"><ele>451.0</ele><time>2026-04-06T14:59:01.824Z</time></trkpt><trkpt lat="43.085555" lon="11.6780733"><ele>451.0</ele><time>2026-04-06T14:59:02.836Z</time></trkpt><trkpt lat="43.085665" lon="11.6781667"><ele>451.0</ele><time>2026-04-06T14:59:03.832Z</time></trkpt><trkpt lat="43.0857717" lon="11.6782633"><ele>451.6</ele><time>2026-04-06T14:59:04.827Z</time></trkpt><trkpt lat="43.0858683" lon="11.6783483"><ele>452.20000000000005</ele><time>2026-04-06T14:59:05.827Z</time></trkpt><trkpt lat="43.085955" lon="11.678435"><ele>452.79999999999995</ele><time>2026-04-06T14:59:06.828Z</time></trkpt><trkpt lat="43.0860483" lon="11.6785183"><ele>453.4</ele><time>2026-04-06T14:59:07.829Z</time></trkpt><trkpt lat="43.0861467" lon="11.6786"><ele>454.0</ele><time>2026-04-06T14:59:08.835Z</time></trkpt><trkpt lat="43.086245" lon="11.678685"><ele>454.0</ele><time>2026-04-06T14:59:09.829Z</time></trkpt><trkpt lat="43.0863467" lon="11.67877"><ele>454.0</ele><time>2026-04-06T14:59:10.827Z</time></trkpt><trkpt lat="43.0864417" lon="11.6788533"><ele>454.0</ele><time>2026-04-06T14:59:11.825Z</time></trkpt><trkpt lat="43.0865283" lon="11.678935"><ele>454.0</ele><time>2026-04-06T14:59:12.83Z</time></trkpt><trkpt lat="43.08662" lon="11.6790167"><ele>454.0</ele><time>2026-04-06T14:59:13.823Z</time></trkpt><trkpt lat="43.0867167" lon="11.6790983"><ele>454.25</ele><time>2026-04-06T14:59:14.83Z</time></trkpt><trkpt lat="43.0868117" lon="11.6791867"><ele>454.5</ele><time>2026-04-06T14:59:15.829Z</time></trkpt><trkpt lat="43.0869067" lon="11.6792783"><ele>454.75</ele><time>2026-04-06T14:59:16.826Z</time></trkpt><trkpt lat="43.087005" lon="11.6793633"><ele>455.0</ele><time>2026-04-06T14:59:17.828Z</time></trkpt><trkpt lat="43.0870967" lon="11.6794667"><ele>455.0</ele><time>2026-04-06T14:59:18.836Z</time></trkpt><trkpt lat="43.0871817" lon="11.6795833"><ele>455.0</ele><time>2026-04-06T14:59:19.83Z</time></trkpt><trkpt lat="43.087255" lon="11.6797117"><ele>455.0</ele><time>2026-04-06T14:59:20.825Z</time></trkpt><trkpt lat="43.0873283" lon="11.6798367"><ele>455.0</ele><time>2026-04-06T14:59:21.827Z</time></trkpt><trkpt lat="43.0873933" lon="11.6799733"><ele>455.5</ele><time>2026-04-06T14:59:22.828Z</time></trkpt><trkpt lat="43.08745" lon="11.68012"><ele>456.0</ele><time>2026-04-06T14:59:23.827Z</time></trkpt><trkpt lat="43.0874933" lon="11.6802683"><ele>456.5</ele><time>2026-04-06T14:59:24.822Z</time></trkpt><trkpt lat="43.0875317" lon="11.6804183"><ele>457.0</ele><time>2026-04-06T14:59:25.829Z</time></trkpt><trkpt lat="43.087565" lon="11.6805667"><ele>457.0</ele><time>2026-04-06T14:59:26.828Z</time></trkpt><trkpt lat="43.0875983" lon="11.680715"><ele>457.0</ele><time>2026-04-06T14:59:27.828Z</time></trkpt><trkpt lat="43.0876367" lon="11.68086"><ele>457.0</ele><time>2026-04-06T14:59:28.828Z</time></trkpt><trkpt lat="43.087675" lon="11.681005"><ele>457.0</ele><time>2026-04-06T14:59:29.827Z</time></trkpt><trkpt lat="43.08771" lon="11.6811517"><ele>457.5</ele><time>2026-04-06T14:59:30.828Z</time></trkpt><trkpt lat="43.0877433" lon="11.681305"><ele>458.0</ele><time>2026-04-06T14:59:31.827Z</time></trkpt><trkpt lat="43.0877817" lon="11.681465"><ele>458.5</ele><time>2026-04-06T14:59:32.84Z</time></trkpt><trkpt lat="43.0878233" lon="11.68164"><ele>459.0</ele><time>2026-04-06T14:59:33.832Z</time></trkpt><trkpt lat="43.0878683" lon="11.6818217"><ele>459.5</ele><time>2026-04-06T14:59:34.828Z</time></trkpt><trkpt lat="43.087915" lon="11.682"><ele>460.0</ele><time>2026-04-06T14:59:35.828Z</time></trkpt><trkpt lat="43.0879617" lon="11.6821767"><ele>460.5</ele><time>2026-04-06T14:59:36.827Z</time></trkpt><trkpt lat="43.0880083" lon="11.682355"><ele>461.0</ele><time>2026-04-06T14:59:37.827Z</time></trkpt><trkpt lat="43.0880517" lon="11.6825333"><ele>461.0</ele><time>2026-04-06T14:59:38.828Z</time></trkpt><trkpt lat="43.0880967" lon="11.6827183"><ele>461.0</ele><time>2026-04-06T14:59:39.828Z</time></trkpt><trkpt lat="43.08814" lon="11.6829"><ele>461.0</ele><time>2026-04-06T14:59:40.824Z</time></trkpt><trkpt lat="43.0881883" lon="11.6830867"><ele>461.0</ele><time>2026-04-06T14:59:41.828Z</time></trkpt><trkpt lat="43.0882433" lon="11.6832717"><ele>459.25</ele><time>2026-04-06T14:59:42.829Z</time></trkpt><trkpt lat="43.0883017" lon="11.6834517"><ele>457.5</ele><time>2026-04-06T14:59:43.836Z</time></trkpt><trkpt lat="43.0883717" lon="11.683625"><ele>455.75</ele><time>2026-04-06T14:59:44.828Z</time></trkpt><trkpt lat="43.08845" lon="11.6837967"><ele>454.0</ele><time>2026-04-06T14:59:45.827Z</time></trkpt><trkpt lat="43.088535" lon="11.68396"><ele>453.75</ele><time>2026-04-06T14:59:46.823Z</time></trkpt><trkpt lat="43.088635" lon="11.68411"><ele>453.5</ele><time>2026-04-06T14:59:47.829Z</time></trkpt><trkpt lat="43.0887433" lon="11.6842417"><ele>453.25</ele><time>2026-04-06T14:59:48.829Z</time></trkpt><trkpt lat="43.0888517" lon="11.6843667"><ele>453.0</ele><time>2026-04-06T14:59:49.825Z</time></trkpt><trkpt lat="43.08896" lon="11.68449"><ele>452.5</ele><time>2026-04-06T14:59:50.831Z</time></trkpt><trkpt lat="43.0890717" lon="11.6846133"><ele>452.0</ele><time>2026-04-06T14:59:51.834Z</time></trkpt><trkpt lat="43.089185" lon="11.6847367"><ele>451.5</ele><time>2026-04-06T14:59:52.833Z</time></trkpt><trkpt lat="43.0892933" lon="11.6848567"><ele>451.0</ele><time>2026-04-06T14:59:53.825Z</time></trkpt><trkpt lat="43.0894067" lon="11.6849767"><ele>450.0</ele><time>2026-04-06T14:59:54.833Z</time></trkpt><trkpt lat="43.0895183" lon="11.6851033"><ele>449.0</ele><time>2026-04-06T14:59:55.826Z</time></trkpt><trkpt lat="43.08963" lon="11.6852317"><ele>448.0</ele><time>2026-04-06T14:59:56.826Z</time></trkpt><trkpt lat="43.08974" lon="11.6853567"><ele>447.0</ele><time>2026-04-06T14:59:57.831Z</time></trkpt><trkpt lat="43.08985" lon="11.68548"><ele>446.0</ele><time>2026-04-06T14:59:58.824Z</time></trkpt><trkpt lat="43.0899633" lon="11.6856"><ele>445.0</ele><time>2026-04-06T14:59:59.826Z</time></trkpt><trkpt lat="43.090075" lon="11.6857183"><ele>444.0</ele><time>2026-04-06T15:00:00.824Z</time></trkpt><trkpt lat="43.09018" lon="11.68583"><ele>443.0</ele><time>2026-04-06T15:00:01.824Z</time></trkpt><trkpt lat="43.09028" lon="11.6859367"><ele>443.0</ele><time>2026-04-06T15:00:02.831Z</time></trkpt><trkpt lat="43.0903817" lon="11.68604"><ele>443.0</ele><time>2026-04-06T15:00:03.83Z</time></trkpt><trkpt lat="43.0904883" lon="11.6861283"><ele>443.0</ele><time>2026-04-06T15:00:04.83Z</time></trkpt><trkpt lat="43.090595" lon="11.6862"><ele>443.0</ele><time>2026-04-06T15:00:05.83Z</time></trkpt><trkpt lat="43.0907117" lon="11.6862617"><ele>442.5</ele><time>2026-04-06T15:00:06.83Z</time></trkpt><trkpt lat="43.0908283" lon="11.6863233"><ele>442.0</ele><time>2026-04-06T15:00:07.827Z</time></trkpt><trkpt lat="43.09094" lon="11.6863867"><ele>441.5</ele><time>2026-04-06T15:00:08.827Z</time></trkpt><trkpt lat="43.091055" lon="11.68645"><ele>441.0</ele><time>2026-04-06T15:00:09.833Z</time></trkpt><trkpt lat="43.0911733" lon="11.6865133"><ele>441.0</ele><time>2026-04-06T15:00:10.829Z</time></trkpt><trkpt lat="43.0912933" lon="11.6865783"><ele>441.0</ele><time>2026-04-06T15:00:11.832Z</time></trkpt><trkpt lat="43.09141" lon="11.6866433"><ele>441.0</ele><time>2026-04-06T15:00:12.829Z</time></trkpt><trkpt lat="43.09152" lon="11.686715"><ele>441.0</ele><time>2026-04-06T15:00:13.828Z</time></trkpt><trkpt lat="43.09162" lon="11.6868117"><ele>439.75</ele><time>2026-04-06T15:00:14.828Z</time></trkpt><trkpt lat="43.09169" lon="11.6869417"><ele>438.5</ele><time>2026-04-06T15:00:15.828Z</time></trkpt><trkpt lat="43.09173" lon="11.6870883"><ele>437.25</ele><time>2026-04-06T15:00:16.829Z</time></trkpt><trkpt lat="43.0917533" lon="11.6872383"><ele>436.0</ele><time>2026-04-06T15:00:17.828Z</time></trkpt><trkpt lat="43.0917767" lon="11.6873833"><ele>436.0</ele><time>2026-04-06T15:00:18.824Z</time></trkpt><trkpt lat="43.0918083" lon="11.6875133"><ele>436.0</ele><time>2026-04-06T15:00:19.825Z</time></trkpt><trkpt lat="43.0918683" lon="11.68763"><ele>436.0</ele><time>2026-04-06T15:00:20.829Z</time></trkpt><trkpt lat="43.091945" lon="11.6877317"><ele>436.0</ele><time>2026-04-06T15:00:21.826Z</time></trkpt><trkpt lat="43.0920483" lon="11.68783"><ele>436.0</ele><time>2026-04-06T15:00:22.824Z</time></trkpt><trkpt lat="43.0921733" lon="11.687935"><ele>436.33333333333337</ele><time>2026-04-06T15:00:23.823Z</time></trkpt><trkpt lat="43.0923167" lon="11.6880583"><ele>436.66666666666663</ele><time>2026-04-06T15:00:24.825Z</time></trkpt><trkpt lat="43.0924633" lon="11.6881883"><ele>437.0</ele><time>2026-04-06T15:00:25.826Z</time></trkpt><trkpt lat="43.092605" lon="11.6883117"><ele>435.5</ele><time>2026-04-06T15:00:26.827Z</time></trkpt><trkpt lat="43.0927367" lon="11.6884267"><ele>434.0</ele><time>2026-04-06T15:00:27.831Z</time></trkpt><trkpt lat="43.0928633" lon="11.68853"><ele>432.5</ele><time>2026-04-06T15:00:28.831Z</time></trkpt><trkpt lat="43.092985" lon="11.6886233"><ele>431.0</ele><time>2026-04-06T15:00:29.833Z</time></trkpt><trkpt lat="43.093105" lon="11.6887133"><ele>431.0</ele><time>2026-04-06T15:00:30.824Z</time></trkpt><trkpt lat="43.0932283" lon="11.6887967"><ele>431.0</ele><time>2026-04-06T15:00:31.828Z</time></trkpt><trkpt lat="43.0933617" lon="11.6888633"><ele>431.0</ele><time>2026-04-06T15:00:32.831Z</time></trkpt><trkpt lat="43.0934983" lon="11.6889167"><ele>431.0</ele><time>2026-04-06T15:00:33.824Z</time></trkpt><trkpt lat="43.09363" lon="11.6889583"><ele>430.0</ele><time>2026-04-06T15:00:34.825Z</time></trkpt><trkpt lat="43.0937583" lon="11.6889833"><ele>429.0</ele><time>2026-04-06T15:00:35.829Z</time></trkpt><trkpt lat="43.09389" lon="11.689"><ele>428.0</ele><time>2026-04-06T15:00:36.827Z</time></trkpt><trkpt lat="43.0940183" lon="11.6890117"><ele>427.0</ele><time>2026-04-06T15:00:37.825Z</time></trkpt><trkpt lat="43.094145" lon="11.6890333"><ele>427.0</ele><time>2026-04-06T15:00:38.826Z</time></trkpt><trkpt lat="43.09427" lon="11.6890617"><ele>427.0</ele><time>2026-04-06T15:00:39.83Z</time></trkpt><trkpt lat="43.0943983" lon="11.6890983"><ele>427.0</ele><time>2026-04-06T15:00:40.826Z</time></trkpt><trkpt lat="43.0945267" lon="11.689145"><ele>427.0</ele><time>2026-04-06T15:00:41.825Z</time></trkpt><trkpt lat="43.094655" lon="11.6891967"><ele>427.0</ele><time>2026-04-06T15:00:42.827Z</time></trkpt><trkpt lat="43.0947817" lon="11.6892567"><ele>427.0</ele><time>2026-04-06T15:00:43.831Z</time></trkpt><trkpt lat="43.0949067" lon="11.689325"><ele>427.0</ele><time>2026-04-06T15:00:44.827Z</time></trkpt><trkpt lat="43.0950317" lon="11.6894083"><ele>427.0</ele><time>2026-04-06T15:00:45.837Z</time></trkpt><trkpt lat="43.0951517" lon="11.6895017"><ele>425.75</ele><time>2026-04-06T15:00:46.824Z</time></trkpt><trkpt lat="43.0952683" lon="11.6896"><ele>424.5</ele><time>2026-04-06T15:00:47.823Z</time></trkpt><trkpt lat="43.0953783" lon="11.6897017"><ele>423.25</ele><time>2026-04-06T15:00:48.824Z</time></trkpt><trkpt lat="43.0954883" lon="11.6898167"><ele>422.0</ele><time>2026-04-06T15:00:49.825Z</time></trkpt><trkpt lat="43.0955933" lon="11.6899267"><ele>422.0</ele><time>2026-04-06T15:00:50.839Z</time></trkpt><trkpt lat="43.0956933" lon="11.6900383"><ele>422.0</ele><time>2026-04-06T15:00:51.828Z</time></trkpt><trkpt lat="43.09579" lon="11.690155"><ele>422.0</ele><time>2026-04-06T15:00:52.828Z</time></trkpt><trkpt lat="43.0958867" lon="11.690265"><ele>422.0</ele><time>2026-04-06T15:00:53.827Z</time></trkpt><trkpt lat="43.095985" lon="11.690375"><ele>421.0</ele><time>2026-04-06T15:00:54.833Z</time></trkpt><trkpt lat="43.0960783" lon="11.6904767"><ele>420.0</ele><time>2026-04-06T15:00:55.835Z</time></trkpt><trkpt lat="43.096165" lon="11.6905717"><ele>419.0</ele><time>2026-04-06T15:00:56.826Z</time></trkpt><trkpt lat="43.0962483" lon="11.690675"><ele>418.0</ele><time>2026-04-06T15:00:57.827Z</time></trkpt><trkpt lat="43.0963267" lon="11.69079"><ele>418.0</ele><time>2026-04-06T15:00:58.823Z</time></trkpt><trkpt lat="43.0963933" lon="11.690925"><ele>418.0</ele><time>2026-04-06T15:00:59.828Z</time></trkpt><trkpt lat="43.0964467" lon="11.6910783"><ele>418.0</ele><time>2026-04-06T15:01:00.828Z</time></trkpt><trkpt lat="43.0964883" lon="11.6912533"><ele>418.0</ele><time>2026-04-06T15:01:01.826Z</time></trkpt><trkpt lat="43.0965133" lon="11.6914383"><ele>417.5</ele><time>2026-04-06T15:01:02.83Z</time></trkpt><trkpt lat="43.0965283" lon="11.6916233"><ele>417.0</ele><time>2026-04-06T15:01:03.824Z</time></trkpt><trkpt lat="43.0965383" lon="11.6918083"><ele>416.5</ele><time>2026-04-06T15:01:04.829Z</time></trkpt><trkpt lat="43.09655" lon="11.6919917"><ele>416.0</ele><time>2026-04-06T15:01:05.841Z</time></trkpt><trkpt lat="43.0965617" lon="11.6921783"><ele>415.5</ele><time>2026-04-06T15:01:06.83Z</time></trkpt><trkpt lat="43.0965733" lon="11.6923583"><ele>415.0</ele><time>2026-04-06T15:01:07.836Z</time></trkpt><trkpt lat="43.096585" lon="11.6925283"><ele>414.5</ele><time>2026-04-06T15:01:08.828Z</time></trkpt><trkpt lat="43.096595" lon="11.6926917"><ele>414.0</ele><time>2026-04-06T15:01:09.826Z</time></trkpt><trkpt lat="43.09662" lon="11.6928467"><ele>415.4</ele><time>2026-04-06T15:01:10.825Z</time></trkpt><trkpt lat="43.096665" lon="11.6929933"><ele>416.79999999999995</ele><time>2026-04-06T15:01:11.829Z</time></trkpt><trkpt lat="43.0967317" lon="11.6931183"><ele>418.20000000000005</ele><time>2026-04-06T15:01:12.827Z</time></trkpt><trkpt lat="43.096805" lon="11.6932233"><ele>419.6</ele><time>2026-04-06T15:01:13.825Z</time></trkpt><trkpt lat="43.0968867" lon="11.6933233"><ele>421.0</ele><time>2026-04-06T15:01:14.823Z</time></trkpt><trkpt lat="43.09697" lon="11.6934167"><ele>421.0</ele><time>2026-04-06T15:01:15.827Z</time></trkpt><trkpt lat="43.0970567" lon="11.69351"><ele>421.0</ele><time>2026-04-06T15:01:16.829Z</time></trkpt><trkpt lat="43.09714" lon="11.6936183"><ele>421.0</ele><time>2026-04-06T15:01:17.828Z</time></trkpt><trkpt lat="43.0972317" lon="11.6937217"><ele>421.0</ele><time>2026-04-06T15:01:18.831Z</time></trkpt><trkpt lat="43.09733" lon="11.6938333"><ele>421.25</ele><time>2026-04-06T15:01:19.834Z</time></trkpt><trkpt lat="43.09743" lon="11.6939517"><ele>421.5</ele><time>2026-04-06T15:01:20.841Z</time></trkpt><trkpt lat="43.0975367" lon="11.69408"><ele>421.75</ele><time>2026-04-06T15:01:21.835Z</time></trkpt><trkpt lat="43.0976517" lon="11.69421"><ele>422.0</ele><time>2026-04-06T15:01:22.835Z</time></trkpt><trkpt lat="43.097775" lon="11.6943467"><ele>423.3333333333333</ele><time>2026-04-06T15:01:23.834Z</time></trkpt><trkpt lat="43.0979067" lon="11.6944933"><ele>424.66666666666663</ele><time>2026-04-06T15:01:24.839Z</time></trkpt><trkpt lat="43.0980667" lon="11.6946583"><ele>426.0</ele><time>2026-04-06T15:01:25.83Z</time></trkpt><trkpt lat="43.098245" lon="11.694845"><ele>426.33333333333337</ele><time>2026-04-06T15:01:26.829Z</time></trkpt><trkpt lat="43.098415" lon="11.6950467"><ele>426.6666666666667</ele><time>2026-04-06T15:01:27.826Z</time></trkpt><trkpt lat="43.0985667" lon="11.6952383"><ele>427.0</ele><time>2026-04-06T15:01:28.826Z</time></trkpt><trkpt lat="43.098715" lon="11.6954083"><ele>428.33333333333337</ele><time>2026-04-06T15:01:29.827Z</time></trkpt><trkpt lat="43.0988567" lon="11.6955683"><ele>429.66666666666663</ele><time>2026-04-06T15:01:30.83Z</time></trkpt><trkpt lat="43.0989833" lon="11.69572"><ele>431.0</ele><time>2026-04-06T15:01:31.823Z</time></trkpt><trkpt lat="43.0991117" lon="11.6958517"><ele>432.5</ele><time>2026-04-06T15:01:32.822Z</time></trkpt><trkpt lat="43.09923" lon="11.69598"><ele>434.0</ele><time>2026-04-06T15:01:33.828Z</time></trkpt><trkpt lat="43.0993467" lon="11.6961033"><ele>435.5</ele><time>2026-04-06T15:01:34.832Z</time></trkpt><trkpt lat="43.0994633" lon="11.6962117"><ele>437.0</ele><time>2026-04-06T15:01:35.826Z</time></trkpt><trkpt lat="43.0995917" lon="11.6963"><ele>437.5</ele><time>2026-04-06T15:01:36.83Z</time></trkpt><trkpt lat="43.0997267" lon="11.6963667"><ele>438.0</ele><time>2026-04-06T15:01:37.835Z</time></trkpt><trkpt lat="43.09987" lon="11.6964183"><ele>438.5</ele><time>2026-04-06T15:01:38.842Z</time></trkpt><trkpt lat="43.10001" lon="11.6964583"><ele>439.0</ele><time>2026-04-06T15:01:39.83Z</time></trkpt><trkpt lat="43.1001467" lon="11.6964983"><ele>441.0</ele><time>2026-04-06T15:01:40.83Z</time></trkpt><trkpt lat="43.100285" lon="11.6965417"><ele>443.0</ele><time>2026-04-06T15:01:41.827Z</time></trkpt><trkpt lat="43.1004233" lon="11.6965833"><ele>445.0</ele><time>2026-04-06T15:01:42.823Z</time></trkpt><trkpt lat="43.1005567" lon="11.6966117"><ele>447.0</ele><time>2026-04-06T15:01:43.828Z</time></trkpt><trkpt lat="43.1006883" lon="11.6966367"><ele>448.0</ele><time>2026-04-06T15:01:44.825Z</time></trkpt><trkpt lat="43.10082" lon="11.696665"><ele>449.0</ele><time>2026-04-06T15:01:45.827Z</time></trkpt><trkpt lat="43.1009467" lon="11.6966917"><ele>450.0</ele><time>2026-04-06T15:01:46.826Z</time></trkpt><trkpt lat="43.1010633" lon="11.69673"><ele>451.0</ele><time>2026-04-06T15:01:47.826Z</time></trkpt><trkpt lat="43.1011767" lon="11.6967967"><ele>451.0</ele><time>2026-04-06T15:01:48.822Z</time></trkpt><trkpt lat="43.101285" lon="11.6968767"><ele>451.0</ele><time>2026-04-06T15:01:49.827Z</time></trkpt><trkpt lat="43.10139" lon="11.696955"><ele>451.0</ele><time>2026-04-06T15:01:50.827Z</time></trkpt><trkpt lat="43.101495" lon="11.6970417"><ele>451.0</ele><time>2026-04-06T15:01:51.839Z</time></trkpt><trkpt lat="43.101595" lon="11.69713"><ele>453.8</ele><time>2026-04-06T15:01:52.837Z</time></trkpt><trkpt lat="43.1016867" lon="11.6972167"><ele>456.6</ele><time>2026-04-06T15:01:53.831Z</time></trkpt><trkpt lat="43.1017767" lon="11.6973033"><ele>459.4</ele><time>2026-04-06T15:01:54.832Z</time></trkpt><trkpt lat="43.1018617" lon="11.6974033"><ele>462.2</ele><time>2026-04-06T15:01:55.833Z</time></trkpt><trkpt lat="43.10195" lon="11.6975017"><ele>465.0</ele><time>2026-04-06T15:01:56.831Z</time></trkpt><trkpt lat="43.1020367" lon="11.6975983"><ele>465.0</ele><time>2026-04-06T15:01:57.828Z</time></trkpt><trkpt lat="43.1021217" lon="11.6977017"><ele>465.0</ele><time>2026-04-06T15:01:58.829Z</time></trkpt><trkpt lat="43.1022033" lon="11.697815"><ele>465.0</ele><time>2026-04-06T15:01:59.831Z</time></trkpt><trkpt lat="43.102275" lon="11.69794"><ele>465.0</ele><time>2026-04-06T15:02:00.828Z</time></trkpt><trkpt lat="43.1023367" lon="11.698065"><ele>464.6</ele><time>2026-04-06T15:02:01.83Z</time></trkpt><trkpt lat="43.102395" lon="11.6981883"><ele>464.2</ele><time>2026-04-06T15:02:02.837Z</time></trkpt><trkpt lat="43.1024533" lon="11.6983083"><ele>463.79999999999995</ele><time>2026-04-06T15:02:03.826Z</time></trkpt><trkpt lat="43.10251" lon="11.69843"><ele>463.4</ele><time>2026-04-06T15:02:04.827Z</time></trkpt><trkpt lat="43.1025717" lon="11.6985567"><ele>463.0</ele><time>2026-04-06T15:02:05.827Z</time></trkpt><trkpt lat="43.10264" lon="11.6986883"><ele>466.25</ele><time>2026-04-06T15:02:06.828Z</time></trkpt><trkpt lat="43.1027117" lon="11.6988267"><ele>469.5</ele><time>2026-04-06T15:02:07.832Z</time></trkpt><trkpt lat="43.102785" lon="11.6989717"><ele>472.75</ele><time>2026-04-06T15:02:08.827Z</time></trkpt><trkpt lat="43.10286" lon="11.6991317"><ele>476.0</ele><time>2026-04-06T15:02:09.827Z</time></trkpt><trkpt lat="43.1029383" lon="11.6993083"><ele>476.3333333333333</ele><time>2026-04-06T15:02:10.829Z</time></trkpt><trkpt lat="43.1030167" lon="11.6995067"><ele>476.66666666666663</ele><time>2026-04-06T15:02:11.828Z</time></trkpt><trkpt lat="43.103115" lon="11.69972"><ele>477.0</ele><time>2026-04-06T15:02:12.833Z</time></trkpt><trkpt lat="43.1032067" lon="11.699935"><ele>473.0</ele><time>2026-04-06T15:02:13.83Z</time></trkpt><trkpt lat="43.103315" lon="11.70013"><ele>469.0</ele><time>2026-04-06T15:02:14.824Z</time></trkpt><trkpt lat="43.1034333" lon="11.7003117"><ele>465.0</ele><time>2026-04-06T15:02:15.832Z</time></trkpt><trkpt lat="43.10354" lon="11.7004833"><ele>465.0</ele><time>2026-04-06T15:02:16.822Z</time></trkpt><trkpt lat="43.1036317" lon="11.7006467"><ele>465.0</ele><time>2026-04-06T15:02:17.828Z</time></trkpt><trkpt lat="43.1037183" lon="11.7008033"><ele>465.0</ele><time>2026-04-06T15:02:18.829Z</time></trkpt><trkpt lat="43.103805" lon="11.70096"><ele>465.0</ele><time>2026-04-06T15:02:19.83Z</time></trkpt><trkpt lat="43.1038833" lon="11.7011267"><ele>466.25</ele><time>2026-04-06T15:02:20.829Z</time></trkpt><trkpt lat="43.1039467" lon="11.7013033"><ele>467.5</ele><time>2026-04-06T15:02:21.827Z</time></trkpt><trkpt lat="43.1039933" lon="11.7014817"><ele>468.75</ele><time>2026-04-06T15:02:22.831Z</time></trkpt><trkpt lat="43.1040367" lon="11.7016467"><ele>470.0</ele><time>2026-04-06T15:02:23.825Z</time></trkpt><trkpt lat="43.1040733" lon="11.7017967"><ele>470.6</ele><time>2026-04-06T15:02:24.829Z</time></trkpt><trkpt lat="43.1041117" lon="11.7019317"><ele>471.2</ele><time>2026-04-06T15:02:25.826Z</time></trkpt><trkpt lat="43.1041383" lon="11.70206"><ele>471.79999999999995</ele><time>2026-04-06T15:02:26.825Z</time></trkpt><trkpt lat="43.10416" lon="11.7021833"><ele>472.4</ele><time>2026-04-06T15:02:27.838Z</time></trkpt><trkpt lat="43.1041617" lon="11.7023067"><ele>473.0</ele><time>2026-04-06T15:02:28.839Z</time></trkpt><trkpt lat="43.1041417" lon="11.7024317"><ele>473.0</ele><time>2026-04-06T15:02:29.828Z</time></trkpt><trkpt lat="43.1041083" lon="11.7025533"><ele>472.99999999999994</ele><time>2026-04-06T15:02:30.825Z</time></trkpt><trkpt lat="43.1040583" lon="11.7026717"><ele>472.99999999999994</ele><time>2026-04-06T15:02:31.825Z</time></trkpt><trkpt lat="43.104" lon="11.7027883"><ele>473.0</ele><time>2026-04-06T15:02:32.829Z</time></trkpt><trkpt lat="43.10393" lon="11.702905"><ele>473.0</ele><time>2026-04-06T15:02:33.828Z</time></trkpt><trkpt lat="43.1038517" lon="11.7030317"><ele>473.0</ele><time>2026-04-06T15:02:34.826Z</time></trkpt><trkpt lat="43.1037717" lon="11.7031683"><ele>473.0</ele><time>2026-04-06T15:02:35.83Z</time></trkpt><trkpt lat="43.103705" lon="11.70331"><ele>473.0</ele><time>2026-04-06T15:02:36.826Z</time></trkpt><trkpt lat="43.1036483" lon="11.70346"><ele>473.0</ele><time>2026-04-06T15:02:37.83Z</time></trkpt><trkpt lat="43.1035967" lon="11.703615"><ele>473.75</ele><time>2026-04-06T15:02:38.834Z</time></trkpt><trkpt lat="43.1035417" lon="11.70377"><ele>474.5</ele><time>2026-04-06T15:02:39.84Z</time></trkpt><trkpt lat="43.1035" lon="11.7039267"><ele>475.25</ele><time>2026-04-06T15:02:40.828Z</time></trkpt><trkpt lat="43.1034783" lon="11.70408"><ele>476.0</ele><time>2026-04-06T15:02:41.827Z</time></trkpt><trkpt lat="43.10348" lon="11.7042267"><ele>476.0</ele><time>2026-04-06T15:02:42.83Z</time></trkpt><trkpt lat="43.1035017" lon="11.7043667"><ele>476.0</ele><time>2026-04-06T15:02:43.827Z</time></trkpt><trkpt lat="43.1035567" lon="11.7044883"><ele>476.0</ele><time>2026-04-06T15:02:44.83Z</time></trkpt><trkpt lat="43.103635" lon="11.7045917"><ele>476.0</ele><time>2026-04-06T15:02:45.823Z</time></trkpt><trkpt lat="43.10372" lon="11.7046783"><ele>476.0</ele><time>2026-04-06T15:02:46.825Z</time></trkpt><trkpt lat="43.1038133" lon="11.704755"><ele>474.25</ele><time>2026-04-06T15:02:47.831Z</time></trkpt><trkpt lat="43.103915" lon="11.7048133"><ele>472.5</ele><time>2026-04-06T15:02:48.827Z</time></trkpt><trkpt lat="43.1040217" lon="11.7048717"><ele>470.75</ele><time>2026-04-06T15:02:49.83Z</time></trkpt><trkpt lat="43.1041317" lon="11.7049267"><ele>469.0</ele><time>2026-04-06T15:02:50.84Z</time></trkpt><trkpt lat="43.1042433" lon="11.7049717"><ele>470.5</ele><time>2026-04-06T15:02:51.829Z</time></trkpt><trkpt lat="43.1043583" lon="11.705025"><ele>472.0</ele><time>2026-04-06T15:02:52.83Z</time></trkpt><trkpt lat="43.1044733" lon="11.7050867"><ele>473.5</ele><time>2026-04-06T15:02:53.827Z</time></trkpt><trkpt lat="43.1045767" lon="11.705165"><ele>475.0</ele><time>2026-04-06T15:02:54.827Z</time></trkpt><trkpt lat="43.10468" lon="11.7052533"><ele>475.0</ele><time>2026-04-06T15:02:55.826Z</time></trkpt><trkpt lat="43.1047867" lon="11.7053483"><ele>475.0</ele><time>2026-04-06T15:02:56.827Z</time></trkpt><trkpt lat="43.10489" lon="11.7054583"><ele>475.0</ele><time>2026-04-06T15:02:57.828Z</time></trkpt><trkpt lat="43.104995" lon="11.7055783"><ele>475.0</ele><time>2026-04-06T15:02:58.823Z</time></trkpt><trkpt lat="43.1050883" lon="11.7057033"><ele>476.25</ele><time>2026-04-06T15:02:59.832Z</time></trkpt><trkpt lat="43.1051817" lon="11.70583"><ele>477.5</ele><time>2026-04-06T15:03:00.834Z</time></trkpt><trkpt lat="43.10527" lon="11.7059583"><ele>478.75</ele><time>2026-04-06T15:03:01.832Z</time></trkpt><trkpt lat="43.10535" lon="11.7060983"><ele>480.0</ele><time>2026-04-06T15:03:02.829Z</time></trkpt><trkpt lat="43.10543" lon="11.7062383"><ele>480.0</ele><time>2026-04-06T15:03:03.827Z</time></trkpt><trkpt lat="43.10551" lon="11.7063783"><ele>480.0</ele><time>2026-04-06T15:03:04.829Z</time></trkpt><trkpt lat="43.105595" lon="11.7065083"><ele>480.0</ele><time>2026-04-06T15:03:05.831Z</time></trkpt><trkpt lat="43.1056917" lon="11.7066233"><ele>480.0</ele><time>2026-04-06T15:03:06.834Z</time></trkpt><trkpt lat="43.1057917" lon="11.7067183"><ele>482.0</ele><time>2026-04-06T15:03:07.828Z</time></trkpt><trkpt lat="43.1058967" lon="11.7067933"><ele>484.0</ele><time>2026-04-06T15:03:08.84Z</time></trkpt><trkpt lat="43.1059933" lon="11.7068483"><ele>486.0</ele><time>2026-04-06T15:03:09.829Z</time></trkpt><trkpt lat="43.1060983" lon="11.7068967"><ele>488.0</ele><time>2026-04-06T15:03:10.828Z</time></trkpt><trkpt lat="43.1062083" lon="11.7069533"><ele>488.0</ele><time>2026-04-06T15:03:11.832Z</time></trkpt><trkpt lat="43.10631" lon="11.7070233"><ele>488.0</ele><time>2026-04-06T15:03:12.826Z</time></trkpt><trkpt lat="43.1064017" lon="11.70712"><ele>488.0</ele><time>2026-04-06T15:03:13.836Z</time></trkpt><trkpt lat="43.10649" lon="11.7072367"><ele>488.0</ele><time>2026-04-06T15:03:14.835Z</time></trkpt><trkpt lat="43.10658" lon="11.7073567"><ele>489.5</ele><time>2026-04-06T15:03:15.832Z</time></trkpt><trkpt lat="43.1066633" lon="11.7074783"><ele>491.0</ele><time>2026-04-06T15:03:16.826Z</time></trkpt><trkpt lat="43.1067517" lon="11.7075917"><ele>492.5</ele><time>2026-04-06T15:03:17.827Z</time></trkpt><trkpt lat="43.1068333" lon="11.7077067"><ele>494.0</ele><time>2026-04-06T15:03:18.832Z</time></trkpt><trkpt lat="43.106905" lon="11.7078467"><ele>494.25</ele><time>2026-04-06T15:03:19.828Z</time></trkpt><trkpt lat="43.1069433" lon="11.7080067"><ele>494.5</ele><time>2026-04-06T15:03:20.835Z</time></trkpt><trkpt lat="43.10696" lon="11.708165"><ele>494.75</ele><time>2026-04-06T15:03:21.828Z</time></trkpt><trkpt lat="43.1069517" lon="11.7083183"><ele>495.0</ele><time>2026-04-06T15:03:22.841Z</time></trkpt><trkpt lat="43.106925" lon="11.708465"><ele>496.4</ele><time>2026-04-06T15:03:23.835Z</time></trkpt><trkpt lat="43.1068667" lon="11.7085933"><ele>497.8</ele><time>2026-04-06T15:03:24.832Z</time></trkpt><trkpt lat="43.1067883" lon="11.7087017"><ele>499.20000000000005</ele><time>2026-04-06T15:03:25.833Z</time></trkpt><trkpt lat="43.1067" lon="11.708795"><ele>500.6</ele><time>2026-04-06T15:03:26.826Z</time></trkpt><trkpt lat="43.1066133" lon="11.7088883"><ele>502.0</ele><time>2026-04-06T15:03:27.824Z</time></trkpt><trkpt lat="43.10653" lon="11.7089783"><ele>500.20000000000005</ele><time>2026-04-06T15:03:28.834Z</time></trkpt><trkpt lat="43.1064683" lon="11.7090867"><ele>498.40000000000003</ele><time>2026-04-06T15:03:29.833Z</time></trkpt><trkpt lat="43.1064233" lon="11.7092083"><ele>496.59999999999997</ele><time>2026-04-06T15:03:30.831Z</time></trkpt><trkpt lat="43.1063917" lon="11.7093333"><ele>494.79999999999995</ele><time>2026-04-06T15:03:31.826Z</time></trkpt><trkpt lat="43.1063767" lon="11.7094717"><ele>493.0</ele><time>2026-04-06T15:03:32.83Z</time></trkpt><trkpt lat="43.106375" lon="11.7096183"><ele>493.0</ele><time>2026-04-06T15:03:33.83Z</time></trkpt><trkpt lat="43.1063767" lon="11.7097733"><ele>493.0</ele><time>2026-04-06T15:03:34.824Z</time></trkpt><trkpt lat="43.1063783" lon="11.7099367"><ele>493.0</ele><time>2026-04-06T15:03:35.832Z</time></trkpt><trkpt lat="43.1063833" lon="11.7101033"><ele>493.0</ele><time>2026-04-06T15:03:36.829Z</time></trkpt><trkpt lat="43.1063833" lon="11.7102767"><ele>495.25</ele><time>2026-04-06T15:03:37.83Z</time></trkpt><trkpt lat="43.10637" lon="11.71045"><ele>497.5</ele><time>2026-04-06T15:03:38.837Z</time></trkpt><trkpt lat="43.1063517" lon="11.7106217"><ele>499.75</ele><time>2026-04-06T15:03:39.834Z</time></trkpt><trkpt lat="43.1063217" lon="11.710795"><ele>502.0</ele><time>2026-04-06T15:03:40.832Z</time></trkpt><trkpt lat="43.1062767" lon="11.7109617"><ele>503.5</ele><time>2026-04-06T15:03:41.833Z</time></trkpt><trkpt lat="43.1062183" lon="11.711125"><ele>505.0</ele><time>2026-04-06T15:03:42.828Z</time></trkpt><trkpt lat="43.1061467" lon="11.7112883"><ele>506.5</ele><time>2026-04-06T15:03:43.833Z</time></trkpt><trkpt lat="43.1060717" lon="11.7114533"><ele>508.0</ele><time>2026-04-06T15:03:44.83Z</time></trkpt><trkpt lat="43.106" lon="11.71162"><ele>508.0</ele><time>2026-04-06T15:03:45.832Z</time></trkpt><trkpt lat="43.1059333" lon="11.7117867"><ele>508.0</ele><time>2026-04-06T15:03:46.835Z</time></trkpt><trkpt lat="43.10587" lon="11.7119533"><ele>508.0</ele><time>2026-04-06T15:03:47.837Z</time></trkpt><trkpt lat="43.1058117" lon="11.7121217"><ele>508.0</ele><time>2026-04-06T15:03:48.831Z</time></trkpt><trkpt lat="43.10576" lon="11.712295"><ele>507.0</ele><time>2026-04-06T15:03:49.831Z</time></trkpt><trkpt lat="43.1057133" lon="11.7124683"><ele>506.0</ele><time>2026-04-06T15:03:50.828Z</time></trkpt><trkpt lat="43.10567" lon="11.712635"><ele>505.0</ele><time>2026-04-06T15:03:51.832Z</time></trkpt><trkpt lat="43.1056267" lon="11.7127933"><ele>504.0</ele><time>2026-04-06T15:03:52.836Z</time></trkpt><trkpt lat="43.1055783" lon="11.7129467"><ele>502.25</ele><time>2026-04-06T15:03:53.834Z</time></trkpt><trkpt lat="43.105525" lon="11.7131"><ele>500.5</ele><time>2026-04-06T15:03:54.826Z</time></trkpt><trkpt lat="43.1054817" lon="11.7132767"><ele>498.75</ele><time>2026-04-06T15:03:55.83Z</time></trkpt><trkpt lat="43.1054533" lon="11.71348"><ele>497.0</ele><time>2026-04-06T15:03:56.829Z</time></trkpt><trkpt lat="43.1054467" lon="11.7137233"><ele>497.0</ele><time>2026-04-06T15:03:57.836Z</time></trkpt><trkpt lat="43.10545" lon="11.7140133"><ele>497.0</ele><time>2026-04-06T15:03:58.835Z</time></trkpt><trkpt lat="43.1054217" lon="11.7143033"><ele>497.0</ele><time>2026-04-06T15:03:59.826Z</time></trkpt><trkpt lat="43.1053867" lon="11.714575"><ele>498.0</ele><time>2026-04-06T15:04:00.831Z</time></trkpt><trkpt lat="43.1053683" lon="11.7148333"><ele>499.0</ele><time>2026-04-06T15:04:01.83Z</time></trkpt><trkpt lat="43.1053533" lon="11.7150717"><ele>500.0</ele><time>2026-04-06T15:04:02.825Z</time></trkpt><trkpt lat="43.1053417" lon="11.715295"><ele>500.25</ele><time>2026-04-06T15:04:03.828Z</time></trkpt><trkpt lat="43.1053333" lon="11.7154983"><ele>500.5</ele><time>2026-04-06T15:04:04.828Z</time></trkpt><trkpt lat="43.1053467" lon="11.715685"><ele>500.75</ele><time>2026-04-06T15:04:05.825Z</time></trkpt><trkpt lat="43.1053917" lon="11.7158567"><ele>501.0</ele><time>2026-04-06T15:04:06.824Z</time></trkpt><trkpt lat="43.105465" lon="11.7160183"><ele>501.0</ele><time>2026-04-06T15:04:07.838Z</time></trkpt><trkpt lat="43.1055483" lon="11.71617"><ele>501.0</ele><time>2026-04-06T15:04:08.831Z</time></trkpt><trkpt lat="43.10564" lon="11.7163067"><ele>501.0</ele><time>2026-04-06T15:04:09.831Z</time></trkpt><trkpt lat="43.1057333" lon="11.716435"><ele>501.0</ele><time>2026-04-06T15:04:10.83Z</time></trkpt><trkpt lat="43.10583" lon="11.7165633"><ele>501.0</ele><time>2026-04-06T15:04:11.829Z</time></trkpt><trkpt lat="43.1059333" lon="11.716695"><ele>501.0</ele><time>2026-04-06T15:04:12.834Z</time></trkpt><trkpt lat="43.1060317" lon="11.716835"><ele>501.0</ele><time>2026-04-06T15:04:13.829Z</time></trkpt><trkpt lat="43.106135" lon="11.7169717"><ele>501.0</ele><time>2026-04-06T15:04:14.832Z</time></trkpt><trkpt lat="43.1062383" lon="11.71711"><ele>500.75</ele><time>2026-04-06T15:04:15.831Z</time></trkpt><trkpt lat="43.1063367" lon="11.7172467"><ele>500.5</ele><time>2026-04-06T15:04:16.833Z</time></trkpt><trkpt lat="43.106435" lon="11.7173817"><ele>500.25</ele><time>2026-04-06T15:04:17.831Z</time></trkpt><trkpt lat="43.10653" lon="11.717515"><ele>500.0</ele><time>2026-04-06T15:04:18.828Z</time></trkpt><trkpt lat="43.1066267" lon="11.717635"><ele>498.75</ele><time>2026-04-06T15:04:19.831Z</time></trkpt><trkpt lat="43.1067167" lon="11.7177533"><ele>497.5</ele><time>2026-04-06T15:04:20.828Z</time></trkpt><trkpt lat="43.1068067" lon="11.7178733"><ele>496.25</ele><time>2026-04-06T15:04:21.834Z</time></trkpt><trkpt lat="43.106895" lon="11.718005"><ele>495.0</ele><time>2026-04-06T15:04:22.828Z</time></trkpt><trkpt lat="43.1069833" lon="11.7181467"><ele>495.0</ele><time>2026-04-06T15:04:23.831Z</time></trkpt><trkpt lat="43.10707" lon="11.7183033"><ele>495.0</ele><time>2026-04-06T15:04:24.825Z</time></trkpt><trkpt lat="43.1071533" lon="11.718465"><ele>495.0</ele><time>2026-04-06T15:04:25.83Z</time></trkpt><trkpt lat="43.1072317" lon="11.718625"><ele>495.0</ele><time>2026-04-06T15:04:26.831Z</time></trkpt><trkpt lat="43.107305" lon="11.7187867"><ele>494.75</ele><time>2026-04-06T15:04:27.832Z</time></trkpt><trkpt lat="43.1073733" lon="11.7189433"><ele>494.5</ele><time>2026-04-06T15:04:28.833Z</time></trkpt><trkpt lat="43.1074417" lon="11.7190933"><ele>494.25</ele><time>2026-04-06T15:04:29.826Z</time></trkpt><trkpt lat="43.1075083" lon="11.7192333"><ele>494.0</ele><time>2026-04-06T15:04:30.829Z</time></trkpt><trkpt lat="43.1075783" lon="11.7193683"><ele>494.0</ele><time>2026-04-06T15:04:31.831Z</time></trkpt><trkpt lat="43.1076467" lon="11.7195033"><ele>494.0</ele><time>2026-04-06T15:04:32.824Z</time></trkpt><trkpt lat="43.1077167" lon="11.71965"><ele>494.0</ele><time>2026-04-06T15:04:33.829Z</time></trkpt><trkpt lat="43.1077983" lon="11.7198117"><ele>494.0</ele><time>2026-04-06T15:04:34.828Z</time></trkpt><trkpt lat="43.10789" lon="11.7199883"><ele>494.0</ele><time>2026-04-06T15:04:35.837Z</time></trkpt><trkpt lat="43.1079917" lon="11.7201733"><ele>494.0</ele><time>2026-04-06T15:04:36.847Z</time></trkpt><trkpt lat="43.1080967" lon="11.72037"><ele>494.0</ele><time>2026-04-06T15:04:37.832Z</time></trkpt><trkpt lat="43.1082033" lon="11.7205733"><ele>495.3333333333333</ele><time>2026-04-06T15:04:38.826Z</time></trkpt><trkpt lat="43.1083133" lon="11.7207767"><ele>496.66666666666663</ele><time>2026-04-06T15:04:39.833Z</time></trkpt><trkpt lat="43.10841" lon="11.72098"><ele>498.0</ele><time>2026-04-06T15:04:40.828Z</time></trkpt><trkpt lat="43.1084933" lon="11.7211867"><ele>498.0</ele><time>2026-04-06T15:04:41.831Z</time></trkpt><trkpt lat="43.1085667" lon="11.7214067"><ele>498.0</ele><time>2026-04-06T15:04:42.834Z</time></trkpt><trkpt lat="43.108635" lon="11.72163"><ele>498.0</ele><time>2026-04-06T15:04:43.83Z</time></trkpt><trkpt lat="43.108695" lon="11.7218617"><ele>497.0</ele><time>2026-04-06T15:04:44.832Z</time></trkpt><trkpt lat="43.10875" lon="11.72209"><ele>496.0</ele><time>2026-04-06T15:04:45.831Z</time></trkpt><trkpt lat="43.1088" lon="11.7223083"><ele>495.0</ele><time>2026-04-06T15:04:46.827Z</time></trkpt><trkpt lat="43.10884" lon="11.722515"><ele>495.0</ele><time>2026-04-06T15:04:47.832Z</time></trkpt><trkpt lat="43.10886" lon="11.722725"><ele>495.0</ele><time>2026-04-06T15:04:48.83Z</time></trkpt><trkpt lat="43.1088517" lon="11.7229433"><ele>495.0</ele><time>2026-04-06T15:04:49.824Z</time></trkpt><trkpt lat="43.1088117" lon="11.723165"><ele>494.0</ele><time>2026-04-06T15:04:50.826Z</time></trkpt><trkpt lat="43.1087383" lon="11.7233767"><ele>493.0</ele><time>2026-04-06T15:04:51.831Z</time></trkpt><trkpt lat="43.108635" lon="11.72356"><ele>492.0</ele><time>2026-04-06T15:04:52.83Z</time></trkpt><trkpt lat="43.10851" lon="11.7237167"><ele>490.33333333333337</ele><time>2026-04-06T15:04:53.825Z</time></trkpt><trkpt lat="43.1083667" lon="11.7238417"><ele>488.6666666666667</ele><time>2026-04-06T15:04:54.829Z</time></trkpt><trkpt lat="43.108205" lon="11.7239267"><ele>487.0</ele><time>2026-04-06T15:04:55.83Z</time></trkpt><trkpt lat="43.10803" lon="11.7239767"><ele>487.0</ele><time>2026-04-06T15:04:56.83Z</time></trkpt><trkpt lat="43.107825" lon="11.7239783"><ele>487.0</ele><time>2026-04-06T15:04:57.828Z</time></trkpt><trkpt lat="43.1075967" lon="11.723975"><ele>487.0</ele><time>2026-04-06T15:04:58.829Z</time></trkpt><trkpt lat="43.1073617" lon="11.72397"><ele>487.5</ele><time>2026-04-06T15:04:59.828Z</time></trkpt><trkpt lat="43.107125" lon="11.723965"><ele>488.0</ele><time>2026-04-06T15:05:00.833Z</time></trkpt><trkpt lat="43.1068867" lon="11.7239583"><ele>488.0</ele><time>2026-04-06T15:05:01.827Z</time></trkpt><trkpt lat="43.1066567" lon="11.7239567"><ele>488.0</ele><time>2026-04-06T15:05:02.828Z</time></trkpt><trkpt lat="43.1064317" lon="11.723945"><ele>488.66666666666663</ele><time>2026-04-06T15:05:03.832Z</time></trkpt><trkpt lat="43.1062167" lon="11.72392"><ele>489.33333333333337</ele><time>2026-04-06T15:05:04.829Z</time></trkpt><trkpt lat="43.1060033" lon="11.7238567"><ele>490.0</ele><time>2026-04-06T15:05:05.834Z</time></trkpt><trkpt lat="43.1057917" lon="11.723765"><ele>490.33333333333337</ele><time>2026-04-06T15:05:06.832Z</time></trkpt><trkpt lat="43.1055833" lon="11.723675"><ele>490.66666666666663</ele><time>2026-04-06T15:05:07.841Z</time></trkpt><trkpt lat="43.1053783" lon="11.7235817"><ele>491.0</ele><time>2026-04-06T15:05:08.831Z</time></trkpt><trkpt lat="43.1051833" lon="11.7235067"><ele>491.0</ele><time>2026-04-06T15:05:09.834Z</time></trkpt><trkpt lat="43.1049867" lon="11.7234517"><ele>491.0</ele><time>2026-04-06T15:05:10.828Z</time></trkpt><trkpt lat="43.1047817" lon="11.7234367"><ele>491.0</ele><time>2026-04-06T15:05:11.831Z</time></trkpt><trkpt lat="43.10457" lon="11.723425"><ele>490.0</ele><time>2026-04-06T15:05:12.831Z</time></trkpt><trkpt lat="43.104355" lon="11.7234217"><ele>489.0</ele><time>2026-04-06T15:05:13.826Z</time></trkpt><trkpt lat="43.1041417" lon="11.7234133"><ele>488.0</ele><time>2026-04-06T15:05:14.828Z</time></trkpt><trkpt lat="43.1039433" lon="11.723415"><ele>487.0</ele><time>2026-04-06T15:05:15.822Z</time></trkpt><trkpt lat="43.1037467" lon="11.7234067"><ele>486.0</ele><time>2026-04-06T15:05:16.832Z</time></trkpt><trkpt lat="43.1035517" lon="11.7234017"><ele>485.0</ele><time>2026-04-06T15:05:17.823Z</time></trkpt><trkpt lat="43.1033617" lon="11.7234017"><ele>485.66666666666663</ele><time>2026-04-06T15:05:18.83Z</time></trkpt><trkpt lat="43.1031767" lon="11.72341"><ele>486.33333333333337</ele><time>2026-04-06T15:05:19.825Z</time></trkpt><trkpt lat="43.1029933" lon="11.723415"><ele>487.0</ele><time>2026-04-06T15:05:20.831Z</time></trkpt><trkpt lat="43.1028133" lon="11.7234183"><ele>487.0</ele><time>2026-04-06T15:05:21.84Z</time></trkpt><trkpt lat="43.1026383" lon="11.72342"><ele>487.0</ele><time>2026-04-06T15:05:22.828Z</time></trkpt><trkpt lat="43.1024767" lon="11.723425"><ele>487.0</ele><time>2026-04-06T15:05:23.839Z</time></trkpt><trkpt lat="43.10232" lon="11.7234433"><ele>487.6666666666667</ele><time>2026-04-06T15:05:24.834Z</time></trkpt><trkpt lat="43.1021733" lon="11.7235167"><ele>488.33333333333337</ele><time>2026-04-06T15:05:25.826Z</time></trkpt><trkpt lat="43.10205" lon="11.723645"><ele>489.0</ele><time>2026-04-06T15:05:26.827Z</time></trkpt><trkpt lat="43.1019433" lon="11.7238033"><ele>487.0</ele><time>2026-04-06T15:05:27.829Z</time></trkpt><trkpt lat="43.1018467" lon="11.7239967"><ele>485.0</ele><time>2026-04-06T15:05:28.837Z</time></trkpt><trkpt lat="43.1017533" lon="11.72421"><ele>483.0</ele><time>2026-04-06T15:05:29.831Z</time></trkpt><trkpt lat="43.101665" lon="11.7244317"><ele>482.66666666666663</ele><time>2026-04-06T15:05:30.829Z</time></trkpt><trkpt lat="43.1015833" lon="11.72466"><ele>482.3333333333333</ele><time>2026-04-06T15:05:31.832Z</time></trkpt><trkpt lat="43.10151" lon="11.7248933"><ele>482.0</ele><time>2026-04-06T15:05:32.829Z</time></trkpt><trkpt lat="43.10144" lon="11.7251317"><ele>486.0</ele><time>2026-04-06T15:05:33.833Z</time></trkpt><trkpt lat="43.1013767" lon="11.7253717"><ele>490.0</ele><time>2026-04-06T15:05:34.828Z</time></trkpt><trkpt lat="43.1013117" lon="11.7256167"><ele>494.0</ele><time>2026-04-06T15:05:35.832Z</time></trkpt><trkpt lat="43.10126" lon="11.72587"><ele>495.0</ele><time>2026-04-06T15:05:36.83Z</time></trkpt><trkpt lat="43.1012133" lon="11.7261317"><ele>496.0</ele><time>2026-04-06T15:05:37.829Z</time></trkpt><trkpt lat="43.1011667" lon="11.726405"><ele>497.0</ele><time>2026-04-06T15:05:38.833Z</time></trkpt><trkpt lat="43.1011067" lon="11.7266783"><ele>495.66666666666663</ele><time>2026-04-06T15:05:39.829Z</time></trkpt><trkpt lat="43.1010483" lon="11.726945"><ele>494.33333333333337</ele><time>2026-04-06T15:05:40.83Z</time></trkpt><trkpt lat="43.1009967" lon="11.7272133"><ele>493.0</ele><time>2026-04-06T15:05:41.827Z</time></trkpt><trkpt lat="43.1009333" lon="11.727485"><ele>493.0</ele><time>2026-04-06T15:05:42.829Z</time></trkpt><trkpt lat="43.1008683" lon="11.7277567"><ele>493.0</ele><time>2026-04-06T15:05:43.828Z</time></trkpt><trkpt lat="43.100775" lon="11.72802"><ele>493.0</ele><time>2026-04-06T15:05:44.828Z</time></trkpt><trkpt lat="43.100675" lon="11.7282717"><ele>493.0</ele><time>2026-04-06T15:05:45.829Z</time></trkpt><trkpt lat="43.1005683" lon="11.7285167"><ele>493.0</ele><time>2026-04-06T15:05:46.832Z</time></trkpt><trkpt lat="43.1004583" lon="11.7287583"><ele>493.0</ele><time>2026-04-06T15:05:47.835Z</time></trkpt><trkpt lat="43.1003467" lon="11.728995"><ele>491.6666666666667</ele><time>2026-04-06T15:05:48.831Z</time></trkpt><trkpt lat="43.1002333" lon="11.72923"><ele>490.33333333333337</ele><time>2026-04-06T15:05:49.827Z</time></trkpt><trkpt lat="43.1001183" lon="11.7294633"><ele>489.0</ele><time>2026-04-06T15:05:50.83Z</time></trkpt><trkpt lat="43.1000033" lon="11.7297"><ele>486.33333333333337</ele><time>2026-04-06T15:05:51.833Z</time></trkpt><trkpt lat="43.0998867" lon="11.72993"><ele>483.6666666666667</ele><time>2026-04-06T15:05:52.831Z</time></trkpt><trkpt lat="43.0997683" lon="11.730155"><ele>481.0</ele><time>2026-04-06T15:05:53.83Z</time></trkpt><trkpt lat="43.0996467" lon="11.7303683"><ele>481.0</ele><time>2026-04-06T15:05:54.832Z</time></trkpt><trkpt lat="43.0995283" lon="11.73058"><ele>481.0</ele><time>2026-04-06T15:05:55.827Z</time></trkpt><trkpt lat="43.0994083" lon="11.730785"><ele>481.0</ele><time>2026-04-06T15:05:56.823Z</time></trkpt><trkpt lat="43.099285" lon="11.7309867"><ele>481.0</ele><time>2026-04-06T15:05:57.832Z</time></trkpt><trkpt lat="43.09916" lon="11.7311917"><ele>481.0</ele><time>2026-04-06T15:05:58.835Z</time></trkpt><trkpt lat="43.0990317" lon="11.7313967"><ele>481.0</ele><time>2026-04-06T15:05:59.826Z</time></trkpt><trkpt lat="43.0989117" lon="11.7316083"><ele>481.0</ele><time>2026-04-06T15:06:00.827Z</time></trkpt><trkpt lat="43.09879" lon="11.7318133"><ele>481.0</ele><time>2026-04-06T15:06:01.833Z</time></trkpt><trkpt lat="43.09868" lon="11.73201"><ele>481.0</ele><time>2026-04-06T15:06:02.832Z</time></trkpt><trkpt lat="43.098585" lon="11.732205"><ele>483.6666666666667</ele><time>2026-04-06T15:06:03.825Z</time></trkpt><trkpt lat="43.0985033" lon="11.7324067"><ele>486.33333333333337</ele><time>2026-04-06T15:06:04.824Z</time></trkpt><trkpt lat="43.098445" lon="11.7326333"><ele>489.0</ele><time>2026-04-06T15:06:05.839Z</time></trkpt><trkpt lat="43.0984083" lon="11.7328833"><ele>490.0</ele><time>2026-04-06T15:06:06.832Z</time></trkpt><trkpt lat="43.0983883" lon="11.7331583"><ele>491.0</ele><time>2026-04-06T15:06:07.823Z</time></trkpt><trkpt lat="43.0983717" lon="11.7334567"><ele>492.0</ele><time>2026-04-06T15:06:08.831Z</time></trkpt><trkpt lat="43.0983533" lon="11.7337733"><ele>494.0</ele><time>2026-04-06T15:06:09.827Z</time></trkpt><trkpt lat="43.0983317" lon="11.73409"><ele>496.0</ele><time>2026-04-06T15:06:10.828Z</time></trkpt><trkpt lat="43.0983033" lon="11.7344"><ele>496.6666666666667</ele><time>2026-04-06T15:06:11.83Z</time></trkpt><trkpt lat="43.0982933" lon="11.7346983"><ele>497.33333333333337</ele><time>2026-04-06T15:06:12.831Z</time></trkpt><trkpt lat="43.098315" lon="11.7349933"><ele>498.0</ele><time>2026-04-06T15:06:13.83Z</time></trkpt><trkpt lat="43.098385" lon="11.7352933"><ele>500.5</ele><time>2026-04-06T15:06:14.83Z</time></trkpt><trkpt lat="43.0984567" lon="11.7356"><ele>503.0</ele><time>2026-04-06T15:06:15.828Z</time></trkpt><trkpt lat="43.098505" lon="11.735905"><ele>502.3333333333333</ele><time>2026-04-06T15:06:16.823Z</time></trkpt><trkpt lat="43.0985283" lon="11.7361983"><ele>501.66666666666663</ele><time>2026-04-06T15:06:17.831Z</time></trkpt><trkpt lat="43.0985183" lon="11.7364767"><ele>501.0</ele><time>2026-04-06T15:06:18.829Z</time></trkpt><trkpt lat="43.0985433" lon="11.736725"><ele>500.33333333333337</ele><time>2026-04-06T15:06:19.827Z</time></trkpt><trkpt lat="43.0985617" lon="11.73696"><ele>499.6666666666667</ele><time>2026-04-06T15:06:20.835Z</time></trkpt><trkpt lat="43.09858" lon="11.7371783"><ele>499.0</ele><time>2026-04-06T15:06:21.826Z</time></trkpt><trkpt lat="43.0985867" lon="11.7373833"><ele>499.0</ele><time>2026-04-06T15:06:22.843Z</time></trkpt><trkpt lat="43.0986033" lon="11.7375733"><ele>499.0</ele><time>2026-04-06T15:06:23.828Z</time></trkpt><trkpt lat="43.0986467" lon="11.7377517"><ele>499.0</ele><time>2026-04-06T15:06:24.828Z</time></trkpt><trkpt lat="43.0987" lon="11.73791"><ele>499.0</ele><time>2026-04-06T15:06:25.83Z</time></trkpt><trkpt lat="43.0987533" lon="11.73807"><ele>498.5</ele><time>2026-04-06T15:06:26.83Z</time></trkpt><trkpt lat="43.0988083" lon="11.7382467"><ele>498.0</ele><time>2026-04-06T15:06:27.828Z</time></trkpt><trkpt lat="43.098865" lon="11.7384283"><ele>497.5</ele><time>2026-04-06T15:06:28.831Z</time></trkpt><trkpt lat="43.0989067" lon="11.7386133"><ele>497.0</ele><time>2026-04-06T15:06:29.842Z</time></trkpt><trkpt lat="43.09893" lon="11.738795"><ele>496.75</ele><time>2026-04-06T15:06:30.826Z</time></trkpt><trkpt lat="43.0989317" lon="11.7389767"><ele>496.5</ele><time>2026-04-06T15:06:31.827Z</time></trkpt><trkpt lat="43.0989067" lon="11.7391583"><ele>496.25</ele><time>2026-04-06T15:06:32.826Z</time></trkpt><trkpt lat="43.0988567" lon="11.73933"><ele>496.0</ele><time>2026-04-06T15:06:33.83Z</time></trkpt><trkpt lat="43.098795" lon="11.7394967"><ele>495.75</ele><time>2026-04-06T15:06:34.827Z</time></trkpt><trkpt lat="43.0987383" lon="11.739655"><ele>495.5</ele><time>2026-04-06T15:06:35.827Z</time></trkpt><trkpt lat="43.09869" lon="11.7398133"><ele>495.25</ele><time>2026-04-06T15:06:36.822Z</time></trkpt><trkpt lat="43.0986533" lon="11.73998"><ele>495.0</ele><time>2026-04-06T15:06:37.826Z</time></trkpt><trkpt lat="43.0986317" lon="11.7401517"><ele>495.25</ele><time>2026-04-06T15:06:38.849Z</time></trkpt><trkpt lat="43.0986267" lon="11.74032"><ele>495.5</ele><time>2026-04-06T15:06:39.825Z</time></trkpt><trkpt lat="43.0986367" lon="11.7404833"><ele>495.75</ele><time>2026-04-06T15:06:40.828Z</time></trkpt><trkpt lat="43.0986533" lon="11.740645"><ele>496.0</ele><time>2026-04-06T15:06:41.828Z</time></trkpt><trkpt lat="43.0986767" lon="11.74081"><ele>496.0</ele><time>2026-04-06T15:06:42.828Z</time></trkpt><trkpt lat="43.0987033" lon="11.7409767"><ele>496.0</ele><time>2026-04-06T15:06:43.824Z</time></trkpt><trkpt lat="43.09872" lon="11.7411367"><ele>496.0</ele><time>2026-04-06T15:06:44.825Z</time></trkpt><trkpt lat="43.0987417" lon="11.741275"><ele>496.0</ele><time>2026-04-06T15:06:45.824Z</time></trkpt><trkpt lat="43.098775" lon="11.741405"><ele>496.0</ele><time>2026-04-06T15:06:46.827Z</time></trkpt><trkpt lat="43.098835" lon="11.7415217"><ele>496.4</ele><time>2026-04-06T15:06:47.825Z</time></trkpt><trkpt lat="43.098915" lon="11.7416067"><ele>496.8</ele><time>2026-04-06T15:06:48.824Z</time></trkpt><trkpt lat="43.099005" lon="11.741665"><ele>497.19999999999993</ele><time>2026-04-06T15:06:49.823Z</time></trkpt><trkpt lat="43.0991017" lon="11.741705"><ele>497.59999999999997</ele><time>2026-04-06T15:06:50.83Z</time></trkpt><trkpt lat="43.0992033" lon="11.7417333"><ele>498.0</ele><time>2026-04-06T15:06:51.829Z</time></trkpt><trkpt lat="43.0993033" lon="11.74176"><ele>499.0</ele><time>2026-04-06T15:06:52.83Z</time></trkpt><trkpt lat="43.0994017" lon="11.7417933"><ele>500.0</ele><time>2026-04-06T15:06:53.824Z</time></trkpt><trkpt lat="43.0995017" lon="11.741845"><ele>501.0</ele><time>2026-04-06T15:06:54.823Z</time></trkpt><trkpt lat="43.0996083" lon="11.74192"><ele>502.0</ele><time>2026-04-06T15:06:55.83Z</time></trkpt><trkpt lat="43.09972" lon="11.742015"><ele>502.5</ele><time>2026-04-06T15:06:56.828Z</time></trkpt><trkpt lat="43.0998333" lon="11.742125"><ele>503.0</ele><time>2026-04-06T15:06:57.826Z</time></trkpt><trkpt lat="43.099935" lon="11.7422383"><ele>503.5</ele><time>2026-04-06T15:06:58.828Z</time></trkpt><trkpt lat="43.1000233" lon="11.7423467"><ele>504.0</ele><time>2026-04-06T15:06:59.825Z</time></trkpt><trkpt lat="43.10011" lon="11.74245"><ele>504.0</ele><time>2026-04-06T15:07:00.823Z</time></trkpt><trkpt lat="43.1002017" lon="11.7425517"><ele>504.0</ele><time>2026-04-06T15:07:01.824Z</time></trkpt><trkpt lat="43.1002967" lon="11.7426567"><ele>504.0</ele><time>2026-04-06T15:07:02.825Z</time></trkpt><trkpt lat="43.100395" lon="11.7427633"><ele>504.0</ele><time>2026-04-06T15:07:03.823Z</time></trkpt><trkpt lat="43.1004883" lon="11.742875"><ele>504.0</ele><time>2026-04-06T15:07:04.829Z</time></trkpt><trkpt lat="43.1005733" lon="11.7430017"><ele>504.0</ele><time>2026-04-06T15:07:05.828Z</time></trkpt><trkpt lat="43.1006483" lon="11.74314"><ele>504.0</ele><time>2026-04-06T15:07:06.826Z</time></trkpt><trkpt lat="43.1007067" lon="11.7432933"><ele>504.0</ele><time>2026-04-06T15:07:07.831Z</time></trkpt><trkpt lat="43.100755" lon="11.743465"><ele>505.0</ele><time>2026-04-06T15:07:08.832Z</time></trkpt><trkpt lat="43.1007833" lon="11.74366"><ele>506.0</ele><time>2026-04-06T15:07:09.833Z</time></trkpt><trkpt lat="43.1007933" lon="11.7438867"><ele>507.0</ele><time>2026-04-06T15:07:10.828Z</time></trkpt><trkpt lat="43.10079" lon="11.7441517"><ele>507.0</ele><time>2026-04-06T15:07:11.828Z</time></trkpt><trkpt lat="43.1007733" lon="11.7444517"><ele>507.0</ele><time>2026-04-06T15:07:12.829Z</time></trkpt><trkpt lat="43.100755" lon="11.7447417"><ele>507.0</ele><time>2026-04-06T15:07:13.829Z</time></trkpt><trkpt lat="43.1007367" lon="11.7449833"><ele>507.25</ele><time>2026-04-06T15:07:14.843Z</time></trkpt><trkpt lat="43.1007067" lon="11.7451817"><ele>507.5</ele><time>2026-04-06T15:07:15.83Z</time></trkpt><trkpt lat="43.10066" lon="11.7453567"><ele>507.75</ele><time>2026-04-06T15:07:16.823Z</time></trkpt><trkpt lat="43.10058" lon="11.7454967"><ele>508.0</ele><time>2026-04-06T15:07:17.824Z</time></trkpt><trkpt lat="43.100465" lon="11.745595"><ele>508.0</ele><time>2026-04-06T15:07:18.83Z</time></trkpt><trkpt lat="43.1003217" lon="11.7456483"><ele>508.0</ele><time>2026-04-06T15:07:19.833Z</time></trkpt><trkpt lat="43.1001583" lon="11.745675"><ele>508.0</ele><time>2026-04-06T15:07:20.829Z</time></trkpt><trkpt lat="43.0999933" lon="11.7456967"><ele>510.0</ele><time>2026-04-06T15:07:21.827Z</time></trkpt><trkpt lat="43.0998433" lon="11.7457533"><ele>512.0</ele><time>2026-04-06T15:07:22.839Z</time></trkpt><trkpt lat="43.0997217" lon="11.7458633"><ele>514.0</ele><time>2026-04-06T15:07:23.834Z</time></trkpt><trkpt lat="43.0996133" lon="11.7460317"><ele>514.3333333333334</ele><time>2026-04-06T15:07:24.823Z</time></trkpt><trkpt lat="43.099515" lon="11.746245"><ele>514.6666666666666</ele><time>2026-04-06T15:07:25.828Z</time></trkpt><trkpt lat="43.09943" lon="11.746475"><ele>515.0</ele><time>2026-04-06T15:07:26.831Z</time></trkpt><trkpt lat="43.0993533" lon="11.7466883"><ele>516.0</ele><time>2026-04-06T15:07:27.824Z</time></trkpt><trkpt lat="43.099265" lon="11.74688"><ele>517.0</ele><time>2026-04-06T15:07:28.836Z</time></trkpt><trkpt lat="43.09915" lon="11.7470533"><ele>518.0</ele><time>2026-04-06T15:07:29.833Z</time></trkpt><trkpt lat="43.0990033" lon="11.7472133"><ele>518.0</ele><time>2026-04-06T15:07:30.827Z</time></trkpt><trkpt lat="43.09883" lon="11.7473717"><ele>518.0</ele><time>2026-04-06T15:07:31.83Z</time></trkpt><trkpt lat="43.098635" lon="11.7475317"><ele>518.0</ele><time>2026-04-06T15:07:32.832Z</time></trkpt><trkpt lat="43.0984433" lon="11.7477017"><ele>519.0</ele><time>2026-04-06T15:07:33.825Z</time></trkpt><trkpt lat="43.0982633" lon="11.747885"><ele>520.0</ele><time>2026-04-06T15:07:34.835Z</time></trkpt><trkpt lat="43.0981033" lon="11.7480783"><ele>521.0</ele><time>2026-04-06T15:07:35.831Z</time></trkpt><trkpt lat="43.097955" lon="11.748265"><ele>521.0</ele><time>2026-04-06T15:07:36.827Z</time></trkpt><trkpt lat="43.09782" lon="11.748435"><ele>521.0</ele><time>2026-04-06T15:07:37.829Z</time></trkpt><trkpt lat="43.0977017" lon="11.7485817"><ele>521.0</ele><time>2026-04-06T15:07:38.829Z</time></trkpt><trkpt lat="43.0975867" lon="11.7487"><ele>517.5</ele><time>2026-04-06T15:07:39.827Z</time></trkpt><trkpt lat="43.0974683" lon="11.7487917"><ele>514.0</ele><time>2026-04-06T15:07:40.827Z</time></trkpt><trkpt lat="43.0973433" lon="11.7488583"><ele>510.5</ele><time>2026-04-06T15:07:41.826Z</time></trkpt><trkpt lat="43.0972133" lon="11.7488983"><ele>507.0</ele><time>2026-04-06T15:07:42.827Z</time></trkpt><trkpt lat="43.0970733" lon="11.74891"><ele>507.0</ele><time>2026-04-06T15:07:43.826Z</time></trkpt><trkpt lat="43.09693" lon="11.7489133"><ele>507.0</ele><time>2026-04-06T15:07:44.828Z</time></trkpt><trkpt lat="43.096785" lon="11.748925"><ele>507.0</ele><time>2026-04-06T15:07:45.824Z</time></trkpt><trkpt lat="43.0966367" lon="11.7489467"><ele>507.0</ele><time>2026-04-06T15:07:46.831Z</time></trkpt><trkpt lat="43.0964967" lon="11.7489933"><ele>508.0</ele><time>2026-04-06T15:07:47.829Z</time></trkpt><trkpt lat="43.0963617" lon="11.7490583"><ele>509.0</ele><time>2026-04-06T15:07:48.826Z</time></trkpt><trkpt lat="43.0962317" lon="11.7491333"><ele>510.0</ele><time>2026-04-06T15:07:49.836Z</time></trkpt><trkpt lat="43.0961033" lon="11.7491967"><ele>511.0</ele><time>2026-04-06T15:07:50.837Z</time></trkpt><trkpt lat="43.0959767" lon="11.7492517"><ele>511.0</ele><time>2026-04-06T15:07:51.829Z</time></trkpt><trkpt lat="43.09586" lon="11.7493383"><ele>511.0</ele><time>2026-04-06T15:07:52.828Z</time></trkpt><trkpt lat="43.0957617" lon="11.749475"><ele>511.0</ele><time>2026-04-06T15:07:53.827Z</time></trkpt><trkpt lat="43.0956833" lon="11.7496317"><ele>511.0</ele><time>2026-04-06T15:07:54.824Z</time></trkpt><trkpt lat="43.0956" lon="11.749785"><ele>511.0</ele><time>2026-04-06T15:07:55.831Z</time></trkpt><trkpt lat="43.0954917" lon="11.7499117"><ele>511.0</ele><time>2026-04-06T15:07:56.831Z</time></trkpt><trkpt lat="43.0953533" lon="11.7500067"><ele>511.0</ele><time>2026-04-06T15:07:57.828Z</time></trkpt><trkpt lat="43.0952083" lon="11.7500767"><ele>511.0</ele><time>2026-04-06T15:07:58.829Z</time></trkpt><trkpt lat="43.095075" lon="11.7501667"><ele>511.0</ele><time>2026-04-06T15:07:59.827Z</time></trkpt><trkpt lat="43.0949533" lon="11.7503067"><ele>511.0</ele><time>2026-04-06T15:08:00.832Z</time></trkpt><trkpt lat="43.0948367" lon="11.7504933"><ele>512.0</ele><time>2026-04-06T15:08:01.825Z</time></trkpt><trkpt lat="43.094735" lon="11.7507117"><ele>513.0</ele><time>2026-04-06T15:08:02.833Z</time></trkpt><trkpt lat="43.0946567" lon="11.7509417"><ele>514.0</ele><time>2026-04-06T15:08:03.828Z</time></trkpt><trkpt lat="43.0945933" lon="11.751165"><ele>508.33333333333337</ele><time>2026-04-06T15:08:04.833Z</time></trkpt><trkpt lat="43.0945367" lon="11.751385"><ele>502.66666666666663</ele><time>2026-04-06T15:08:05.824Z</time></trkpt><trkpt lat="43.0944617" lon="11.7515867"><ele>497.0</ele><time>2026-04-06T15:08:06.824Z</time></trkpt><trkpt lat="43.0943517" lon="11.7517533"><ele>494.3333333333333</ele><time>2026-04-06T15:08:07.828Z</time></trkpt><trkpt lat="43.0942117" lon="11.7518817"><ele>491.66666666666663</ele><time>2026-04-06T15:08:08.825Z</time></trkpt><trkpt lat="43.0940367" lon="11.75197"><ele>489.0</ele><time>2026-04-06T15:08:09.838Z</time></trkpt><trkpt lat="43.0938483" lon="11.7520417"><ele>489.0</ele><time>2026-04-06T15:08:10.829Z</time></trkpt><trkpt lat="43.0936483" lon="11.7521033"><ele>489.0</ele><time>2026-04-06T15:08:11.832Z</time></trkpt><trkpt lat="43.0934367" lon="11.752175"><ele>489.0</ele><time>2026-04-06T15:08:12.827Z</time></trkpt><trkpt lat="43.0932267" lon="11.7522717"><ele>492.66666666666663</ele><time>2026-04-06T15:08:13.829Z</time></trkpt><trkpt lat="43.0930283" lon="11.75237"><ele>496.3333333333333</ele><time>2026-04-06T15:08:14.83Z</time></trkpt><trkpt lat="43.09284" lon="11.7524767"><ele>500.0</ele><time>2026-04-06T15:08:15.827Z</time></trkpt><trkpt lat="43.0926567" lon="11.7526"><ele>497.66666666666663</ele><time>2026-04-06T15:08:16.829Z</time></trkpt><trkpt lat="43.09249" lon="11.752735"><ele>495.33333333333337</ele><time>2026-04-06T15:08:17.836Z</time></trkpt><trkpt lat="43.0923367" lon="11.7528817"><ele>493.0</ele><time>2026-04-06T15:08:18.829Z</time></trkpt><trkpt lat="43.0921883" lon="11.75302"><ele>493.0</ele><time>2026-04-06T15:08:19.83Z</time></trkpt><trkpt lat="43.0920517" lon="11.753155"><ele>493.0</ele><time>2026-04-06T15:08:20.835Z</time></trkpt><trkpt lat="43.0919217" lon="11.7532817"><ele>493.0</ele><time>2026-04-06T15:08:21.835Z</time></trkpt><trkpt lat="43.0918033" lon="11.7534017"><ele>493.0</ele><time>2026-04-06T15:08:22.833Z</time></trkpt><trkpt lat="43.0916933" lon="11.7535217"><ele>493.0</ele><time>2026-04-06T15:08:23.83Z</time></trkpt><trkpt lat="43.0915883" lon="11.75365"><ele>493.0</ele><time>2026-04-06T15:08:24.833Z</time></trkpt><trkpt lat="43.0914733" lon="11.75378"><ele>493.0</ele><time>2026-04-06T15:08:25.829Z</time></trkpt><trkpt lat="43.091345" lon="11.7538983"><ele>491.0</ele><time>2026-04-06T15:08:26.829Z</time></trkpt><trkpt lat="43.0912" lon="11.7539883"><ele>489.0</ele><time>2026-04-06T15:08:27.825Z</time></trkpt><trkpt lat="43.091045" lon="11.7540517"><ele>487.0</ele><time>2026-04-06T15:08:28.826Z</time></trkpt><trkpt lat="43.0908867" lon="11.7541017"><ele>488.6666666666667</ele><time>2026-04-06T15:08:29.827Z</time></trkpt><trkpt lat="43.09073" lon="11.7541383"><ele>490.33333333333337</ele><time>2026-04-06T15:08:30.823Z</time></trkpt><trkpt lat="43.0905767" lon="11.7541717"><ele>492.0</ele><time>2026-04-06T15:08:31.829Z</time></trkpt><trkpt lat="43.090425" lon="11.7542017"><ele>492.0</ele><time>2026-04-06T15:08:32.829Z</time></trkpt><trkpt lat="43.0902833" lon="11.7542317"><ele>492.0</ele><time>2026-04-06T15:08:33.826Z</time></trkpt><trkpt lat="43.0901483" lon="11.7542617"><ele>492.0</ele><time>2026-04-06T15:08:34.83Z</time></trkpt><trkpt lat="43.090015" lon="11.7543067"><ele>492.0</ele><time>2026-04-06T15:08:35.83Z</time></trkpt><trkpt lat="43.0898783" lon="11.75435"><ele>491.75</ele><time>2026-04-06T15:08:36.827Z</time></trkpt><trkpt lat="43.0897483" lon="11.75442"><ele>491.5</ele><time>2026-04-06T15:08:37.825Z</time></trkpt><trkpt lat="43.08963" lon="11.7545033"><ele>491.25</ele><time>2026-04-06T15:08:38.828Z</time></trkpt><trkpt lat="43.0895233" lon="11.7546083"><ele>491.0</ele><time>2026-04-06T15:08:39.827Z</time></trkpt><trkpt lat="43.089425" lon="11.754735"><ele>491.0</ele><time>2026-04-06T15:08:40.831Z</time></trkpt><trkpt lat="43.0893383" lon="11.75488"><ele>491.0</ele><time>2026-04-06T15:08:41.829Z</time></trkpt><trkpt lat="43.0892533" lon="11.7550333"><ele>491.0</ele><time>2026-04-06T15:08:42.827Z</time></trkpt><trkpt lat="43.0891733" lon="11.7552"><ele>491.0</ele><time>2026-04-06T15:08:43.834Z</time></trkpt><trkpt lat="43.08909" lon="11.7553667"><ele>491.3333333333333</ele><time>2026-04-06T15:08:44.83Z</time></trkpt><trkpt lat="43.0890067" lon="11.7555367"><ele>491.66666666666663</ele><time>2026-04-06T15:08:45.829Z</time></trkpt><trkpt lat="43.0889217" lon="11.755715"><ele>492.0</ele><time>2026-04-06T15:08:46.829Z</time></trkpt><trkpt lat="43.08883" lon="11.7558983"><ele>489.33333333333337</ele><time>2026-04-06T15:08:47.828Z</time></trkpt><trkpt lat="43.08873" lon="11.7560767"><ele>486.6666666666667</ele><time>2026-04-06T15:08:48.837Z</time></trkpt><trkpt lat="43.0886217" lon="11.7562483"><ele>484.0</ele><time>2026-04-06T15:08:49.835Z</time></trkpt><trkpt lat="43.0885183" lon="11.75642"><ele>484.0</ele><time>2026-04-06T15:08:50.834Z</time></trkpt><trkpt lat="43.0884017" lon="11.75658"><ele>484.0</ele><time>2026-04-06T15:08:51.828Z</time></trkpt><trkpt lat="43.08828" lon="11.7567283"><ele>484.0</ele><time>2026-04-06T15:08:52.826Z</time></trkpt><trkpt lat="43.088155" lon="11.7568683"><ele>485.33333333333337</ele><time>2026-04-06T15:08:53.828Z</time></trkpt><trkpt lat="43.0880267" lon="11.75701"><ele>486.66666666666663</ele><time>2026-04-06T15:08:54.831Z</time></trkpt><trkpt lat="43.0878983" lon="11.75715"><ele>488.0</ele><time>2026-04-06T15:08:55.828Z</time></trkpt><trkpt lat="43.0877733" lon="11.757295"><ele>488.0</ele><time>2026-04-06T15:08:56.832Z</time></trkpt><trkpt lat="43.08766" lon="11.7574533"><ele>488.0</ele><time>2026-04-06T15:08:57.831Z</time></trkpt><trkpt lat="43.0875583" lon="11.7576367"><ele>488.0</ele><time>2026-04-06T15:08:58.83Z</time></trkpt><trkpt lat="43.08746" lon="11.7578217"><ele>492.3333333333333</ele><time>2026-04-06T15:08:59.828Z</time></trkpt><trkpt lat="43.0873617" lon="11.7580067"><ele>496.66666666666663</ele><time>2026-04-06T15:09:00.829Z</time></trkpt><trkpt lat="43.087265" lon="11.758185"><ele>501.0</ele><time>2026-04-06T15:09:01.822Z</time></trkpt><trkpt lat="43.0871733" lon="11.75835"><ele>501.0</ele><time>2026-04-06T15:09:02.831Z</time></trkpt><trkpt lat="43.087085" lon="11.7585083"><ele>501.0</ele><time>2026-04-06T15:09:03.83Z</time></trkpt><trkpt lat="43.0869967" lon="11.7586733"><ele>501.0</ele><time>2026-04-06T15:09:04.831Z</time></trkpt><trkpt lat="43.086905" lon="11.758845"><ele>497.66666666666663</ele><time>2026-04-06T15:09:05.823Z</time></trkpt><trkpt lat="43.086815" lon="11.75902"><ele>494.3333333333333</ele><time>2026-04-06T15:09:06.825Z</time></trkpt><trkpt lat="43.0867333" lon="11.7591933"><ele>491.0</ele><time>2026-04-06T15:09:07.824Z</time></trkpt><trkpt lat="43.0866583" lon="11.75937"><ele>490.66666666666663</ele><time>2026-04-06T15:09:08.83Z</time></trkpt><trkpt lat="43.0865917" lon="11.759555"><ele>490.33333333333337</ele><time>2026-04-06T15:09:09.829Z</time></trkpt><trkpt lat="43.086535" lon="11.75975"><ele>490.0</ele><time>2026-04-06T15:09:10.825Z</time></trkpt><trkpt lat="43.086505" lon="11.7599517"><ele>490.0</ele><time>2026-04-06T15:09:11.826Z</time></trkpt><trkpt lat="43.0864983" lon="11.7601567"><ele>490.0</ele><time>2026-04-06T15:09:12.825Z</time></trkpt><trkpt lat="43.0865167" lon="11.7603633"><ele>490.0</ele><time>2026-04-06T15:09:13.828Z</time></trkpt><trkpt lat="43.0865517" lon="11.7605717"><ele>490.0</ele><time>2026-04-06T15:09:14.826Z</time></trkpt><trkpt lat="43.0866017" lon="11.7607783"><ele>490.0</ele><time>2026-04-06T15:09:15.826Z</time></trkpt><trkpt lat="43.0866617" lon="11.76099"><ele>490.0</ele><time>2026-04-06T15:09:16.822Z</time></trkpt><trkpt lat="43.0867183" lon="11.761195"><ele>490.0</ele><time>2026-04-06T15:09:17.824Z</time></trkpt><trkpt lat="43.08677" lon="11.761395"><ele>490.0</ele><time>2026-04-06T15:09:18.828Z</time></trkpt><trkpt lat="43.0868183" lon="11.7616"><ele>490.0</ele><time>2026-04-06T15:09:19.829Z</time></trkpt><trkpt lat="43.086865" lon="11.7617983"><ele>489.6666666666667</ele><time>2026-04-06T15:09:20.837Z</time></trkpt><trkpt lat="43.086905" lon="11.762005"><ele>489.33333333333337</ele><time>2026-04-06T15:09:21.835Z</time></trkpt><trkpt lat="43.0869233" lon="11.7622283"><ele>489.0</ele><time>2026-04-06T15:09:22.829Z</time></trkpt><trkpt lat="43.086915" lon="11.7624567"><ele>489.0</ele><time>2026-04-06T15:09:23.826Z</time></trkpt><trkpt lat="43.0869133" lon="11.76268"><ele>489.0</ele><time>2026-04-06T15:09:24.829Z</time></trkpt><trkpt lat="43.0869033" lon="11.7629"><ele>489.0</ele><time>2026-04-06T15:09:25.834Z</time></trkpt><trkpt lat="43.0868883" lon="11.7631167"><ele>489.33333333333337</ele><time>2026-04-06T15:09:26.827Z</time></trkpt><trkpt lat="43.08687" lon="11.7633317"><ele>489.6666666666667</ele><time>2026-04-06T15:09:27.828Z</time></trkpt><trkpt lat="43.0868467" lon="11.7635467"><ele>490.0</ele><time>2026-04-06T15:09:28.826Z</time></trkpt><trkpt lat="43.0868233" lon="11.7637617"><ele>490.6666666666667</ele><time>2026-04-06T15:09:29.826Z</time></trkpt><trkpt lat="43.0868033" lon="11.7639733"><ele>491.33333333333337</ele><time>2026-04-06T15:09:30.832Z</time></trkpt><trkpt lat="43.0867783" lon="11.7641783"><ele>492.0</ele><time>2026-04-06T15:09:31.827Z</time></trkpt><trkpt lat="43.0867517" lon="11.7643767"><ele>493.33333333333337</ele><time>2026-04-06T15:09:32.833Z</time></trkpt><trkpt lat="43.08673" lon="11.76458"><ele>494.6666666666667</ele><time>2026-04-06T15:09:33.837Z</time></trkpt><trkpt lat="43.0867117" lon="11.7647867"><ele>496.0</ele><time>2026-04-06T15:09:34.833Z</time></trkpt><trkpt lat="43.086695" lon="11.765"><ele>496.6666666666667</ele><time>2026-04-06T15:09:35.836Z</time></trkpt><trkpt lat="43.086675" lon="11.765215"><ele>497.33333333333337</ele><time>2026-04-06T15:09:36.834Z</time></trkpt><trkpt lat="43.086655" lon="11.76543"><ele>498.0</ele><time>2026-04-06T15:09:37.829Z</time></trkpt><trkpt lat="43.0866317" lon="11.7656383"><ele>498.0</ele><time>2026-04-06T15:09:38.835Z</time></trkpt><trkpt lat="43.08661" lon="11.765845"><ele>498.0</ele><time>2026-04-06T15:09:39.832Z</time></trkpt><trkpt lat="43.0865867" lon="11.7660433"><ele>498.0</ele><time>2026-04-06T15:09:40.828Z</time></trkpt><trkpt lat="43.0865683" lon="11.7662417"><ele>498.0</ele><time>2026-04-06T15:09:41.83Z</time></trkpt><trkpt lat="43.0865483" lon="11.7664417"><ele>497.66666666666663</ele><time>2026-04-06T15:09:42.829Z</time></trkpt><trkpt lat="43.0865333" lon="11.7666433"><ele>497.3333333333333</ele><time>2026-04-06T15:09:43.831Z</time></trkpt><trkpt lat="43.086515" lon="11.76685"><ele>497.0</ele><time>2026-04-06T15:09:44.835Z</time></trkpt><trkpt lat="43.086495" lon="11.7670617"><ele>498.3333333333333</ele><time>2026-04-06T15:09:45.839Z</time></trkpt><trkpt lat="43.0864783" lon="11.7672883"><ele>499.66666666666663</ele><time>2026-04-06T15:09:46.831Z</time></trkpt><trkpt lat="43.0864617" lon="11.7675417"><ele>501.0</ele><time>2026-04-06T15:09:47.834Z</time></trkpt><trkpt lat="43.0864367" lon="11.767795"><ele>502.5</ele><time>2026-04-06T15:09:48.828Z</time></trkpt><trkpt lat="43.0864083" lon="11.7680183"><ele>504.0</ele><time>2026-04-06T15:09:49.831Z</time></trkpt><trkpt lat="43.086385" lon="11.7682167"><ele>505.5</ele><time>2026-04-06T15:09:50.848Z</time></trkpt><trkpt lat="43.0863633" lon="11.76839"><ele>507.0</ele><time>2026-04-06T15:09:51.831Z</time></trkpt><trkpt lat="43.0863483" lon="11.7685467"><ele>508.0</ele><time>2026-04-06T15:09:52.831Z</time></trkpt><trkpt lat="43.086335" lon="11.7687067"><ele>509.0</ele><time>2026-04-06T15:09:53.833Z</time></trkpt><trkpt lat="43.0863283" lon="11.7688683"><ele>510.0</ele><time>2026-04-06T15:09:54.83Z</time></trkpt><trkpt lat="43.08633" lon="11.76902"><ele>511.0</ele><time>2026-04-06T15:09:55.825Z</time></trkpt><trkpt lat="43.0863317" lon="11.7691683"><ele>511.0</ele><time>2026-04-06T15:09:56.83Z</time></trkpt><trkpt lat="43.0863417" lon="11.76932"><ele>511.0</ele><time>2026-04-06T15:09:57.833Z</time></trkpt><trkpt lat="43.086355" lon="11.7694817"><ele>511.0</ele><time>2026-04-06T15:09:58.833Z</time></trkpt><trkpt lat="43.086375" lon="11.7696467"><ele>511.0</ele><time>2026-04-06T15:09:59.827Z</time></trkpt><trkpt lat="43.086395" lon="11.769815"><ele>511.75</ele><time>2026-04-06T15:10:00.828Z</time></trkpt><trkpt lat="43.0864133" lon="11.7699867"><ele>512.5</ele><time>2026-04-06T15:10:01.836Z</time></trkpt><trkpt lat="43.0864283" lon="11.77016"><ele>513.25</ele><time>2026-04-06T15:10:02.83Z</time></trkpt><trkpt lat="43.0864433" lon="11.77033"><ele>514.0</ele><time>2026-04-06T15:10:03.837Z</time></trkpt><trkpt lat="43.0864533" lon="11.770495"><ele>515.5</ele><time>2026-04-06T15:10:04.833Z</time></trkpt><trkpt lat="43.0864567" lon="11.7706683"><ele>517.0</ele><time>2026-04-06T15:10:05.83Z</time></trkpt><trkpt lat="43.086465" lon="11.77085"><ele>518.5</ele><time>2026-04-06T15:10:06.837Z</time></trkpt><trkpt lat="43.0864783" lon="11.7710283"><ele>520.0</ele><time>2026-04-06T15:10:07.829Z</time></trkpt><trkpt lat="43.0864917" lon="11.771205"><ele>521.25</ele><time>2026-04-06T15:10:08.837Z</time></trkpt><trkpt lat="43.0865017" lon="11.7713817"><ele>522.5</ele><time>2026-04-06T15:10:09.831Z</time></trkpt><trkpt lat="43.0865133" lon="11.7715567"><ele>523.75</ele><time>2026-04-06T15:10:10.83Z</time></trkpt><trkpt lat="43.0865183" lon="11.77173"><ele>525.0</ele><time>2026-04-06T15:10:11.832Z</time></trkpt><trkpt lat="43.0865183" lon="11.7719017"><ele>525.0</ele><time>2026-04-06T15:10:12.828Z</time></trkpt><trkpt lat="43.08651" lon="11.7720733"><ele>525.0</ele><time>2026-04-06T15:10:13.838Z</time></trkpt><trkpt lat="43.0864983" lon="11.7722417"><ele>525.0</ele><time>2026-04-06T15:10:14.835Z</time></trkpt><trkpt lat="43.0864883" lon="11.7724133"><ele>525.0</ele><time>2026-04-06T15:10:15.832Z</time></trkpt><trkpt lat="43.0864767" lon="11.7725817"><ele>523.5</ele><time>2026-04-06T15:10:16.828Z</time></trkpt><trkpt lat="43.086475" lon="11.7727483"><ele>522.0</ele><time>2026-04-06T15:10:17.829Z</time></trkpt><trkpt lat="43.08648" lon="11.7729117"><ele>520.5</ele><time>2026-04-06T15:10:18.839Z</time></trkpt><trkpt lat="43.0864983" lon="11.7730683"><ele>519.0</ele><time>2026-04-06T15:10:19.832Z</time></trkpt><trkpt lat="43.08653" lon="11.7732117"><ele>519.0</ele><time>2026-04-06T15:10:20.847Z</time></trkpt><trkpt lat="43.0865633" lon="11.7733467"><ele>519.0</ele><time>2026-04-06T15:10:21.832Z</time></trkpt><trkpt lat="43.0866" lon="11.7734733"><ele>519.0</ele><time>2026-04-06T15:10:22.823Z</time></trkpt><trkpt lat="43.0866417" lon="11.7735933"><ele>519.0</ele><time>2026-04-06T15:10:23.827Z</time></trkpt><trkpt lat="43.0866783" lon="11.7737117"><ele>519.0</ele><time>2026-04-06T15:10:24.826Z</time></trkpt><trkpt lat="43.0867217" lon="11.773835"><ele>517.8</ele><time>2026-04-06T15:10:25.828Z</time></trkpt><trkpt lat="43.0867667" lon="11.773965"><ele>516.5999999999999</ele><time>2026-04-06T15:10:26.829Z</time></trkpt><trkpt lat="43.0868133" lon="11.7740933"><ele>515.4</ele><time>2026-04-06T15:10:27.823Z</time></trkpt><trkpt lat="43.0868583" lon="11.7742267"><ele>514.1999999999999</ele><time>2026-04-06T15:10:28.824Z</time></trkpt><trkpt lat="43.0869083" lon="11.7743617"><ele>513.0</ele><time>2026-04-06T15:10:29.829Z</time></trkpt><trkpt lat="43.0869533" lon="11.7744967"><ele>511.75</ele><time>2026-04-06T15:10:30.823Z</time></trkpt><trkpt lat="43.0869983" lon="11.7746433"><ele>510.5</ele><time>2026-04-06T15:10:31.828Z</time></trkpt><trkpt lat="43.0870467" lon="11.7747867"><ele>509.25</ele><time>2026-04-06T15:10:32.828Z</time></trkpt><trkpt lat="43.0870967" lon="11.7749317"><ele>508.0</ele><time>2026-04-06T15:10:33.831Z</time></trkpt><trkpt lat="43.0871383" lon="11.7750783"><ele>507.59999999999997</ele><time>2026-04-06T15:10:34.823Z</time></trkpt><trkpt lat="43.0871767" lon="11.7752183"><ele>507.19999999999993</ele><time>2026-04-06T15:10:35.828Z</time></trkpt><trkpt lat="43.08721" lon="11.7753467"><ele>506.8</ele><time>2026-04-06T15:10:36.825Z</time></trkpt><trkpt lat="43.08724" lon="11.7754633"><ele>506.4</ele><time>2026-04-06T15:10:37.825Z</time></trkpt><trkpt lat="43.0872667" lon="11.7755783"><ele>506.0</ele><time>2026-04-06T15:10:38.83Z</time></trkpt><trkpt lat="43.08729" lon="11.7756817"><ele>506.0</ele><time>2026-04-06T15:10:39.833Z</time></trkpt><trkpt lat="43.0873083" lon="11.7757667"><ele>506.0</ele><time>2026-04-06T15:10:40.828Z</time></trkpt><trkpt lat="43.0873167" lon="11.77593"><ele>506.0</ele><time>2026-04-06T15:10:42.824Z</time></trkpt><trkpt lat="43.08733" lon="11.776085"><ele>506.0</ele><time>2026-04-06T15:10:44.831Z</time></trkpt><trkpt lat="43.087365" lon="11.776205"><ele>506.0</ele><time>2026-04-06T15:10:46.829Z</time></trkpt><trkpt lat="43.0874033" lon="11.776325"><ele>505.6</ele><time>2026-04-06T15:10:48.827Z</time></trkpt><trkpt lat="43.087425" lon="11.7764583"><ele>505.20000000000005</ele><time>2026-04-06T15:10:50.827Z</time></trkpt><trkpt lat="43.08745" lon="11.7765967"><ele>504.79999999999995</ele><time>2026-04-06T15:10:52.827Z</time></trkpt><trkpt lat="43.0874767" lon="11.776725"><ele>504.4</ele><time>2026-04-06T15:10:54.826Z</time></trkpt><trkpt lat="43.0874983" lon="11.7768567"><ele>504.0</ele><time>2026-04-06T15:10:56.827Z</time></trkpt><trkpt lat="43.08753" lon="11.7770117"><ele>505.0</ele><time>2026-04-06T15:10:58.823Z</time></trkpt><trkpt lat="43.0875533" lon="11.7771083"><ele>506.0</ele><time>2026-04-06T15:10:59.83Z</time></trkpt><trkpt lat="43.087585" lon="11.777205"><ele>507.0</ele><time>2026-04-06T15:11:00.828Z</time></trkpt><trkpt lat="43.0876167" lon="11.77731"><ele>508.0</ele><time>2026-04-06T15:11:01.834Z</time></trkpt><trkpt lat="43.08765" lon="11.7774083"><ele>509.0</ele><time>2026-04-06T15:11:02.838Z</time></trkpt><trkpt lat="43.08768" lon="11.77749"><ele>510.0</ele><time>2026-04-06T15:11:03.826Z</time></trkpt><trkpt lat="43.0877" lon="11.7775733"><ele>511.0</ele><time>2026-04-06T15:11:04.829Z</time></trkpt><trkpt lat="43.087715" lon="11.7776617"><ele>510.1666666666667</ele><time>2026-04-06T15:11:05.829Z</time></trkpt><trkpt lat="43.0877433" lon="11.7777433"><ele>509.33333333333337</ele><time>2026-04-06T15:11:06.826Z</time></trkpt><trkpt lat="43.08776" lon="11.777835"><ele>508.5</ele><time>2026-04-06T15:11:07.823Z</time></trkpt><trkpt lat="43.08778" lon="11.77793"><ele>507.66666666666663</ele><time>2026-04-06T15:11:08.824Z</time></trkpt><trkpt lat="43.0878017" lon="11.7780417"><ele>506.8333333333333</ele><time>2026-04-06T15:11:09.824Z</time></trkpt><trkpt lat="43.0878167" lon="11.7781567"><ele>506.0</ele><time>2026-04-06T15:11:10.828Z</time></trkpt><trkpt lat="43.0878367" lon="11.7782633"><ele>505.99999999999994</ele><time>2026-04-06T15:11:11.827Z</time></trkpt><trkpt lat="43.0878567" lon="11.7783767"><ele>506.0</ele><time>2026-04-06T15:11:12.83Z</time></trkpt><trkpt lat="43.08788" lon="11.7784917"><ele>506.0</ele><time>2026-04-06T15:11:13.829Z</time></trkpt><trkpt lat="43.087905" lon="11.7786117"><ele>506.0</ele><time>2026-04-06T15:11:14.824Z</time></trkpt><trkpt lat="43.087935" lon="11.7787333"><ele>505.99999999999994</ele><time>2026-04-06T15:11:15.825Z</time></trkpt><trkpt lat="43.08797" lon="11.778845"><ele>506.0</ele><time>2026-04-06T15:11:16.827Z</time></trkpt><trkpt lat="43.0880167" lon="11.7789533"><ele>504.6</ele><time>2026-04-06T15:11:17.839Z</time></trkpt><trkpt lat="43.0880733" lon="11.779055"><ele>503.20000000000005</ele><time>2026-04-06T15:11:18.831Z</time></trkpt><trkpt lat="43.088135" lon="11.7791483"><ele>501.79999999999995</ele><time>2026-04-06T15:11:19.832Z</time></trkpt><trkpt lat="43.0881933" lon="11.77924"><ele>500.4</ele><time>2026-04-06T15:11:20.829Z</time></trkpt><trkpt lat="43.0882533" lon="11.77933"><ele>499.0</ele><time>2026-04-06T15:11:21.829Z</time></trkpt><trkpt lat="43.088315" lon="11.7794133"><ele>501.50000000000006</ele><time>2026-04-06T15:11:22.827Z</time></trkpt><trkpt lat="43.0883783" lon="11.77949"><ele>504.0</ele><time>2026-04-06T15:11:23.827Z</time></trkpt><trkpt lat="43.088435" lon="11.7795767"><ele>506.5</ele><time>2026-04-06T15:11:24.828Z</time></trkpt><trkpt lat="43.0884933" lon="11.779665"><ele>509.0</ele><time>2026-04-06T15:11:25.825Z</time></trkpt><trkpt lat="43.08855" lon="11.7797517"><ele>511.50000000000006</ele><time>2026-04-06T15:11:26.828Z</time></trkpt><trkpt lat="43.0886067" lon="11.7798483"><ele>514.0</ele><time>2026-04-06T15:11:27.826Z</time></trkpt><trkpt lat="43.0886683" lon="11.7799417"><ele>514.0</ele><time>2026-04-06T15:11:28.826Z</time></trkpt><trkpt lat="43.08874" lon="11.7800367"><ele>514.0</ele><time>2026-04-06T15:11:29.826Z</time></trkpt><trkpt lat="43.088805" lon="11.78013"><ele>514.0</ele><time>2026-04-06T15:11:30.83Z</time></trkpt><trkpt lat="43.0888633" lon="11.7802167"><ele>514.0</ele><time>2026-04-06T15:11:31.827Z</time></trkpt><trkpt lat="43.0889167" lon="11.7803017"><ele>514.0</ele><time>2026-04-06T15:11:32.827Z</time></trkpt><trkpt lat="43.08897" lon="11.78039"><ele>514.0</ele><time>2026-04-06T15:11:33.824Z</time></trkpt><trkpt lat="43.0890217" lon="11.7805033"><ele>516.3333333333334</ele><time>2026-04-06T15:11:34.844Z</time></trkpt><trkpt lat="43.0891383" lon="11.7807733"><ele>518.6666666666666</ele><time>2026-04-06T15:11:36.831Z</time></trkpt><trkpt lat="43.0892067" lon="11.7809183"><ele>521.0</ele><time>2026-04-06T15:11:37.828Z</time></trkpt><trkpt lat="43.08927" lon="11.7810733"><ele>521.0</ele><time>2026-04-06T15:11:38.831Z</time></trkpt><trkpt lat="43.08932" lon="11.78124"><ele>521.0</ele><time>2026-04-06T15:11:39.823Z</time></trkpt><trkpt lat="43.0893533" lon="11.7814017"><ele>521.0</ele><time>2026-04-06T15:11:40.825Z</time></trkpt><trkpt lat="43.0893617" lon="11.7815617"><ele>521.0</ele><time>2026-04-06T15:11:41.829Z</time></trkpt><trkpt lat="43.0893633" lon="11.7817167"><ele>517.0</ele><time>2026-04-06T15:11:42.843Z</time></trkpt><trkpt lat="43.0893683" lon="11.7818733"><ele>513.0</ele><time>2026-04-06T15:11:43.824Z</time></trkpt><trkpt lat="43.0893817" lon="11.78203"><ele>509.0</ele><time>2026-04-06T15:11:44.83Z</time></trkpt><trkpt lat="43.0894233" lon="11.7821783"><ele>505.0</ele><time>2026-04-06T15:11:45.826Z</time></trkpt><trkpt lat="43.089485" lon="11.782305"><ele>505.0</ele><time>2026-04-06T15:11:46.827Z</time></trkpt><trkpt lat="43.0895633" lon="11.7824017"><ele>505.0</ele><time>2026-04-06T15:11:47.827Z</time></trkpt><trkpt lat="43.08966" lon="11.78248"><ele>505.0</ele><time>2026-04-06T15:11:48.828Z</time></trkpt><trkpt lat="43.0897683" lon="11.782525"><ele>505.0</ele><time>2026-04-06T15:11:49.827Z</time></trkpt><trkpt lat="43.0898833" lon="11.7825417"><ele>505.0</ele><time>2026-04-06T15:11:50.823Z</time></trkpt><trkpt lat="43.0899967" lon="11.7825517"><ele>512.75</ele><time>2026-04-06T15:11:51.832Z</time></trkpt><trkpt lat="43.0901083" lon="11.7825617"><ele>520.5</ele><time>2026-04-06T15:11:52.827Z</time></trkpt><trkpt lat="43.0902183" lon="11.7825833"><ele>528.25</ele><time>2026-04-06T15:11:53.824Z</time></trkpt><trkpt lat="43.0903317" lon="11.782615"><ele>536.0</ele><time>2026-04-06T15:11:54.831Z</time></trkpt><trkpt lat="43.0904483" lon="11.7826617"><ele>532.75</ele><time>2026-04-06T15:11:55.826Z</time></trkpt><trkpt lat="43.0905633" lon="11.7827283"><ele>529.5</ele><time>2026-04-06T15:11:56.83Z</time></trkpt><trkpt lat="43.0906667" lon="11.78282"><ele>526.25</ele><time>2026-04-06T15:11:57.83Z</time></trkpt><trkpt lat="43.0907633" lon="11.782905"><ele>523.0</ele><time>2026-04-06T15:11:58.842Z</time></trkpt><trkpt lat="43.090855" lon="11.782995"><ele>523.0</ele><time>2026-04-06T15:11:59.826Z</time></trkpt><trkpt lat="43.090945" lon="11.783085"><ele>523.0</ele><time>2026-04-06T15:12:00.83Z</time></trkpt><trkpt lat="43.0910467" lon="11.7831617"><ele>523.0</ele><time>2026-04-06T15:12:01.832Z</time></trkpt><trkpt lat="43.091155" lon="11.7832233"><ele>523.0</ele><time>2026-04-06T15:12:02.826Z</time></trkpt><trkpt lat="43.09128" lon="11.7832783"><ele>523.0</ele><time>2026-04-06T15:12:03.832Z</time></trkpt><trkpt lat="43.0914" lon="11.7833217"><ele>523.0</ele><time>2026-04-06T15:12:04.83Z</time></trkpt><trkpt lat="43.0915183" lon="11.78336"><ele>523.0</ele><time>2026-04-06T15:12:05.831Z</time></trkpt><trkpt lat="43.0916317" lon="11.7833933"><ele>523.0</ele><time>2026-04-06T15:12:06.828Z</time></trkpt><trkpt lat="43.091735" lon="11.7834383"><ele>523.0</ele><time>2026-04-06T15:12:07.833Z</time></trkpt><trkpt lat="43.0918317" lon="11.7834917"><ele>523.0</ele><time>2026-04-06T15:12:08.834Z</time></trkpt><trkpt lat="43.09193" lon="11.78354"><ele>523.0</ele><time>2026-04-06T15:12:09.831Z</time></trkpt><trkpt lat="43.0920283" lon="11.7835817"><ele>523.0</ele><time>2026-04-06T15:12:10.828Z</time></trkpt><trkpt lat="43.092125" lon="11.78363"><ele>523.0</ele><time>2026-04-06T15:12:11.834Z</time></trkpt><trkpt lat="43.092225" lon="11.7836867"><ele>523.0</ele><time>2026-04-06T15:12:12.832Z</time></trkpt><trkpt lat="43.09232" lon="11.7837467"><ele>523.0</ele><time>2026-04-06T15:12:13.825Z</time></trkpt><trkpt lat="43.0924167" lon="11.7838"><ele>523.0</ele><time>2026-04-06T15:12:14.83Z</time></trkpt><trkpt lat="43.0925167" lon="11.7838433"><ele>523.0</ele><time>2026-04-06T15:12:15.829Z</time></trkpt><trkpt lat="43.09262" lon="11.783885"><ele>523.0</ele><time>2026-04-06T15:12:16.828Z</time></trkpt><trkpt lat="43.0927217" lon="11.7839233"><ele>527.0</ele><time>2026-04-06T15:12:17.833Z</time></trkpt><trkpt lat="43.0928217" lon="11.783955"><ele>527.0</ele><time>2026-04-06T15:12:18.831Z</time></trkpt><trkpt lat="43.092925" lon="11.7839633"><ele>527.0</ele><time>2026-04-06T15:12:19.829Z</time></trkpt></trkseg></trk></gpx>